﻿<?xml version="1.0" encoding="utf-8"?><gpx creator="Garmin Desktop App" version="1.1" xsi:schemaLocation="http://www.topografix.com/GPX/1/1 http://www.topografix.com/GPX/1/1/gpx.xsd http://www.garmin.com/xmlschemas/WaypointExtension/v1 http://www8.garmin.com/xmlschemas/WaypointExtensionv1.xsd http://www.garmin.com/xmlschemas/TrackPointExtension/v1 http://www.garmin.com/xmlschemas/TrackPointExtensionv1.xsd http://www.garmin.com/xmlschemas/GpxExtensions/v3 http://www8.garmin.com/xmlschemas/GpxExtensionsv3.xsd http://www.garmin.com/xmlschemas/ActivityExtension/v1 http://www8.garmin.com/xmlschemas/ActivityExtensionv1.xsd http://www.garmin.com/xmlschemas/AdventuresExtensions/v1 http://www8.garmin.com/xmlschemas/AdventuresExtensionv1.xsd http://www.garmin.com/xmlschemas/PressureExtension/v1 http://www.garmin.com/xmlschemas/PressureExtensionv1.xsd http://www.garmin.com/xmlschemas/TripExtensions/v1 http://www.garmin.com/xmlschemas/TripExtensionsv1.xsd http://www.garmin.com/xmlschemas/TripMetaDataExtensions/v1 http://www.garmin.com/xmlschemas/TripMetaDataExtensionsv1.xsd http://www.garmin.com/xmlschemas/ViaPointTransportationModeExtensions/v1 http://www.garmin.com/xmlschemas/ViaPointTransportationModeExtensionsv1.xsd http://www.garmin.com/xmlschemas/CreationTimeExtension/v1 http://www.garmin.com/xmlschemas/CreationTimeExtensionsv1.xsd http://www.garmin.com/xmlschemas/AccelerationExtension/v1 http://www.garmin.com/xmlschemas/AccelerationExtensionv1.xsd http://www.garmin.com/xmlschemas/PowerExtension/v1 http://www.garmin.com/xmlschemas/PowerExtensionv1.xsd http://www.garmin.com/xmlschemas/VideoExtension/v1 http://www.garmin.com/xmlschemas/VideoExtensionv1.xsd" xmlns="http://www.topografix.com/GPX/1/1" xmlns:xsi="http://www.w3.org/2001/XMLSchema-instance" xmlns:wptx1="http://www.garmin.com/xmlschemas/WaypointExtension/v1" xmlns:gpxtrx="http://www.garmin.com/xmlschemas/GpxExtensions/v3" xmlns:gpxtpx="http://www.garmin.com/xmlschemas/TrackPointExtension/v1" xmlns:gpxx="http://www.garmin.com/xmlschemas/GpxExtensions/v3" xmlns:trp="http://www.garmin.com/xmlschemas/TripExtensions/v1" xmlns:adv="http://www.garmin.com/xmlschemas/AdventuresExtensions/v1" xmlns:prs="http://www.garmin.com/xmlschemas/PressureExtension/v1" xmlns:tmd="http://www.garmin.com/xmlschemas/TripMetaDataExtensions/v1" xmlns:vptm="http://www.garmin.com/xmlschemas/ViaPointTransportationModeExtensions/v1" xmlns:ctx="http://www.garmin.com/xmlschemas/CreationTimeExtension/v1" xmlns:gpxacc="http://www.garmin.com/xmlschemas/AccelerationExtension/v1" xmlns:gpxpx="http://www.garmin.com/xmlschemas/PowerExtension/v1" xmlns:vidx1="http://www.garmin.com/xmlschemas/VideoExtension/v1">

  <metadata>
    <link href="http://www.garmin.com">
      <text>Garmin International</text>
    </link>
    <time>2025-04-25T18:32:04Z</time>
    <bounds maxlat="45.466547040268779" maxlon="3.323815036565065" minlat="43.270511962473392" minlon="1.95014800876379" />
  </metadata>

  <trk>
    <name>250425_G_Track</name>
    <extensions>
      <gpxx:TrackExtension>
        <gpxx:DisplayColor>DarkGray</gpxx:DisplayColor>
      </gpxx:TrackExtension>
    </extensions>
    <trkseg>
      <trkpt lat="45.466530025005341" lon="3.263322003185749">
        <ele>380.33999999999997</ele>
        <time>2025-04-25T06:05:36Z</time>
      </trkpt>
      <trkpt lat="45.466516027227044" lon="3.26342904008925">
        <ele>412.06</ele>
        <time>2025-04-25T06:06:37Z</time>
      </trkpt>
      <trkpt lat="45.466538993641734" lon="3.263402972370386">
        <ele>406.76999999999998</ele>
        <time>2025-04-25T06:07:26Z</time>
      </trkpt>
      <trkpt lat="45.466537987813354" lon="3.263404984027147">
        <ele>406.76999999999998</ele>
        <time>2025-04-25T06:08:15Z</time>
      </trkpt>
      <trkpt lat="45.466537987813354" lon="3.263400038704276">
        <ele>406.76999999999998</ele>
        <time>2025-04-25T06:08:47Z</time>
      </trkpt>
      <trkpt lat="45.466547040268779" lon="3.263256959617138">
        <ele>406.29000000000002</ele>
        <time>2025-04-25T06:08:51Z</time>
      </trkpt>
      <trkpt lat="45.466518960893154" lon="3.263184037059546">
        <ele>406.29000000000002</ele>
        <time>2025-04-25T06:08:52Z</time>
      </trkpt>
      <trkpt lat="45.466254008933902" lon="3.262488003820181">
        <ele>404.37</ele>
        <time>2025-04-25T06:09:01Z</time>
      </trkpt>
      <trkpt lat="45.466216038912535" lon="3.262436036020517">
        <ele>404.37</ele>
        <time>2025-04-25T06:09:02Z</time>
      </trkpt>
      <trkpt lat="45.466172033920884" lon="3.262465037405491">
        <ele>404.37</ele>
        <time>2025-04-25T06:09:03Z</time>
      </trkpt>
      <trkpt lat="45.466116964817047" lon="3.262502001598477">
        <ele>403.88999999999999</ele>
        <time>2025-04-25T06:09:04Z</time>
      </trkpt>
      <trkpt lat="45.4660589620471" lon="3.262539971619844">
        <ele>403.41000000000003</ele>
        <time>2025-04-25T06:09:05Z</time>
      </trkpt>
      <trkpt lat="45.465995008125901" lon="3.262582970783114">
        <ele>403.41000000000003</ele>
        <time>2025-04-25T06:09:06Z</time>
      </trkpt>
      <trkpt lat="45.465922001749277" lon="3.262621024623513">
        <ele>403.41000000000003</ele>
        <time>2025-04-25T06:09:07Z</time>
      </trkpt>
      <trkpt lat="45.464873006567359" lon="3.263115976005793">
        <ele>402.44999999999999</ele>
        <time>2025-04-25T06:09:21Z</time>
      </trkpt>
      <trkpt lat="45.464720036834478" lon="3.263178002089262">
        <ele>402.44999999999999</ele>
        <time>2025-04-25T06:09:23Z</time>
      </trkpt>
      <trkpt lat="45.464580981060863" lon="3.26321798376739">
        <ele>403.41000000000003</ele>
        <time>2025-04-25T06:09:25Z</time>
      </trkpt>
      <trkpt lat="45.464529013261199" lon="3.263286966830492">
        <ele>403.88999999999999</ele>
        <time>2025-04-25T06:09:26Z</time>
      </trkpt>
      <trkpt lat="45.46446799300611" lon="3.263368019834161">
        <ele>403.88999999999999</ele>
        <time>2025-04-25T06:09:27Z</time>
      </trkpt>
      <trkpt lat="45.464387023821473" lon="3.263449994847179">
        <ele>403.88999999999999</ele>
        <time>2025-04-25T06:09:28Z</time>
      </trkpt>
      <trkpt lat="45.464302031323314" lon="3.263528030365706">
        <ele>403.88999999999999</ele>
        <time>2025-04-25T06:09:29Z</time>
      </trkpt>
      <trkpt lat="45.464031966403127" lon="3.263802034780383">
        <ele>403.88999999999999</ele>
        <time>2025-04-25T06:09:32Z</time>
      </trkpt>
      <trkpt lat="45.463949991390109" lon="3.263910999521613">
        <ele>403.41000000000003</ele>
        <time>2025-04-25T06:09:33Z</time>
      </trkpt>
      <trkpt lat="45.463863993063569" lon="3.264027005061507">
        <ele>402.93000000000001</ele>
        <time>2025-04-25T06:09:34Z</time>
      </trkpt>
      <trkpt lat="45.46369300223887" lon="3.264261027798057">
        <ele>402.44999999999999</ele>
        <time>2025-04-25T06:09:36Z</time>
      </trkpt>
      <trkpt lat="45.463052038103342" lon="3.265581009909511">
        <ele>402.93000000000001</ele>
        <time>2025-04-25T06:09:46Z</time>
      </trkpt>
      <trkpt lat="45.462724976241589" lon="3.267302988097072">
        <ele>402.44999999999999</ele>
        <time>2025-04-25T06:09:57Z</time>
      </trkpt>
      <trkpt lat="45.462647024542093" lon="3.267624014988542">
        <ele>401.49000000000001</ele>
        <time>2025-04-25T06:10:00Z</time>
      </trkpt>
      <trkpt lat="45.462627997621894" lon="3.267682017758489">
        <ele>401.49000000000001</ele>
        <time>2025-04-25T06:10:01Z</time>
      </trkpt>
      <trkpt lat="45.462627997621894" lon="3.267682017758489">
        <ele>401.49000000000001</ele>
        <time>2025-04-25T06:10:02Z</time>
      </trkpt>
      <trkpt lat="45.462646018713713" lon="3.267783019691706">
        <ele>401.49000000000001</ele>
        <time>2025-04-25T06:10:03Z</time>
      </trkpt>
      <trkpt lat="45.462656999006867" lon="3.267846973612905">
        <ele>401.00999999999999</ele>
        <time>2025-04-25T06:10:04Z</time>
      </trkpt>
      <trkpt lat="45.462669990956783" lon="3.26792199164629">
        <ele>400.52999999999997</ele>
        <time>2025-04-25T06:10:05Z</time>
      </trkpt>
      <trkpt lat="45.462686000391841" lon="3.268014024943113">
        <ele>401.00999999999999</ele>
        <time>2025-04-25T06:10:06Z</time>
      </trkpt>
      <trkpt lat="45.462703015655279" lon="3.268111003562808">
        <ele>401.00999999999999</ele>
        <time>2025-04-25T06:10:07Z</time>
      </trkpt>
      <trkpt lat="45.462709972634912" lon="3.26824301853776">
        <ele>401.49000000000001</ele>
        <time>2025-04-25T06:10:08Z</time>
      </trkpt>
      <trkpt lat="45.462649958208203" lon="3.269397960975766">
        <ele>401.97000000000003</ele>
        <time>2025-04-25T06:10:15Z</time>
      </trkpt>
      <trkpt lat="45.462581980973482" lon="3.271535011008382">
        <ele>401.49000000000001</ele>
        <time>2025-04-25T06:10:24Z</time>
      </trkpt>
      <trkpt lat="45.462499000132084" lon="3.27460496686399">
        <ele>399.07999999999998</ele>
        <time>2025-04-25T06:10:37Z</time>
      </trkpt>
      <trkpt lat="45.46249003149569" lon="3.27496899291873">
        <ele>398.60000000000002</ele>
        <time>2025-04-25T06:10:39Z</time>
      </trkpt>
      <trkpt lat="45.462485002353787" lon="3.275133026763797">
        <ele>398.60000000000002</ele>
        <time>2025-04-25T06:10:40Z</time>
      </trkpt>
      <trkpt lat="45.462477961555123" lon="3.275406025350094">
        <ele>398.12</ele>
        <time>2025-04-25T06:10:41Z</time>
      </trkpt>
      <trkpt lat="45.461907992139459" lon="3.275595959275961">
        <ele>398.60000000000002</ele>
        <time>2025-04-25T06:10:44Z</time>
      </trkpt>
      <trkpt lat="45.461811013519764" lon="3.275529993698001">
        <ele>398.60000000000002</ele>
        <time>2025-04-25T06:10:45Z</time>
      </trkpt>
      <trkpt lat="45.461705988273025" lon="3.275460004806519">
        <ele>398.60000000000002</ele>
        <time>2025-04-25T06:10:46Z</time>
      </trkpt>
      <trkpt lat="45.461599035188556" lon="3.275386998429894">
        <ele>399.07999999999998</ele>
        <time>2025-04-25T06:10:47Z</time>
      </trkpt>
      <trkpt lat="45.461491998285055" lon="3.275316003710032">
        <ele>399.07999999999998</ele>
        <time>2025-04-25T06:10:48Z</time>
      </trkpt>
      <trkpt lat="45.460419030860066" lon="3.27466799877584">
        <ele>401.49000000000001</ele>
        <time>2025-04-25T06:10:58Z</time>
      </trkpt>
      <trkpt lat="45.460305036976933" lon="3.274674033746123">
        <ele>401.49000000000001</ele>
        <time>2025-04-25T06:10:59Z</time>
      </trkpt>
      <trkpt lat="45.460193976759911" lon="3.274698005989194">
        <ele>401.97000000000003</ele>
        <time>2025-04-25T06:11:00Z</time>
      </trkpt>
      <trkpt lat="45.460081994533539" lon="3.274720972403884">
        <ele>401.97000000000003</ele>
        <time>2025-04-25T06:11:01Z</time>
      </trkpt>
      <trkpt lat="45.459966994822025" lon="3.274747040122747">
        <ele>401.97000000000003</ele>
        <time>2025-04-25T06:11:02Z</time>
      </trkpt>
      <trkpt lat="45.459017995744944" lon="3.274943009018898">
        <ele>401.00999999999999</ele>
        <time>2025-04-25T06:11:10Z</time>
      </trkpt>
      <trkpt lat="45.457836985588074" lon="3.275079969316721">
        <ele>397.63999999999999</ele>
        <time>2025-04-25T06:11:19Z</time>
      </trkpt>
      <trkpt lat="45.457727015018463" lon="3.275127997621894">
        <ele>397.63999999999999</ele>
        <time>2025-04-25T06:11:20Z</time>
      </trkpt>
      <trkpt lat="45.457626013085246" lon="3.275189017876983">
        <ele>397.63999999999999</ele>
        <time>2025-04-25T06:11:21Z</time>
      </trkpt>
      <trkpt lat="45.457541020587087" lon="3.275294965133071">
        <ele>398.12</ele>
        <time>2025-04-25T06:11:22Z</time>
      </trkpt>
      <trkpt lat="45.457470025867224" lon="3.275426980108023">
        <ele>398.12</ele>
        <time>2025-04-25T06:11:23Z</time>
      </trkpt>
      <trkpt lat="45.45739802531898" lon="3.27557098120451">
        <ele>398.60000000000002</ele>
        <time>2025-04-25T06:11:24Z</time>
      </trkpt>
      <trkpt lat="45.457327030599117" lon="3.275725040584803">
        <ele>398.60000000000002</ele>
        <time>2025-04-25T06:11:25Z</time>
      </trkpt>
      <trkpt lat="45.45671297237277" lon="3.277042005211115">
        <ele>401.00999999999999</ele>
        <time>2025-04-25T06:11:33Z</time>
      </trkpt>
      <trkpt lat="45.456348024308681" lon="3.278099969029427">
        <ele>401.97000000000003</ele>
        <time>2025-04-25T06:11:39Z</time>
      </trkpt>
      <trkpt lat="45.456289015710354" lon="3.278270959854126">
        <ele>402.44999999999999</ele>
        <time>2025-04-25T06:11:40Z</time>
      </trkpt>
      <trkpt lat="45.455991961061954" lon="3.279136978089809">
        <ele>403.88999999999999</ele>
        <time>2025-04-25T06:11:46Z</time>
      </trkpt>
      <trkpt lat="45.455962037667632" lon="3.279225993901491">
        <ele>404.37</ele>
        <time>2025-04-25T06:11:47Z</time>
      </trkpt>
      <trkpt lat="45.455897999927402" lon="3.279275028035045">
        <ele>404.37</ele>
        <time>2025-04-25T06:11:48Z</time>
      </trkpt>
      <trkpt lat="45.455825999379158" lon="3.279311992228031">
        <ele>404.85000000000002</ele>
        <time>2025-04-25T06:11:49Z</time>
      </trkpt>
      <trkpt lat="45.455756010487676" lon="3.279318027198315">
        <ele>405.32999999999998</ele>
        <time>2025-04-25T06:11:50Z</time>
      </trkpt>
      <trkpt lat="45.45568099245429" lon="3.279324984177947">
        <ele>406.29000000000002</ele>
        <time>2025-04-25T06:11:51Z</time>
      </trkpt>
      <trkpt lat="45.455440012738109" lon="3.279347028583288">
        <ele>408.22000000000003</ele>
        <time>2025-04-25T06:11:54Z</time>
      </trkpt>
      <trkpt lat="45.455354014411569" lon="3.279354991391301">
        <ele>409.18000000000001</ele>
        <time>2025-04-25T06:11:55Z</time>
      </trkpt>
      <trkpt lat="45.45514103025198" lon="3.279461022466421">
        <ele>411.10000000000002</ele>
        <time>2025-04-25T06:11:58Z</time>
      </trkpt>
      <trkpt lat="45.455074980854988" lon="3.279505027458072">
        <ele>412.06</ele>
        <time>2025-04-25T06:11:59Z</time>
      </trkpt>
      <trkpt lat="45.455022007226944" lon="3.279609968885779">
        <ele>413.01999999999998</ele>
        <time>2025-04-25T06:12:00Z</time>
      </trkpt>
      <trkpt lat="45.454970961436629" lon="3.279711976647377">
        <ele>414.47000000000003</ele>
        <time>2025-04-25T06:12:01Z</time>
      </trkpt>
      <trkpt lat="45.454938020557165" lon="3.279824964702129">
        <ele>415.91000000000003</ele>
        <time>2025-04-25T06:12:02Z</time>
      </trkpt>
      <trkpt lat="45.454921005293727" lon="3.279957985505462">
        <ele>417.35000000000002</ele>
        <time>2025-04-25T06:12:03Z</time>
      </trkpt>
      <trkpt lat="45.454902984201908" lon="3.280091006308794">
        <ele>418.31</ele>
        <time>2025-04-25T06:12:04Z</time>
      </trkpt>
      <trkpt lat="45.454834001138806" lon="3.280513035133481">
        <ele>421.68000000000001</ele>
        <time>2025-04-25T06:12:07Z</time>
      </trkpt>
      <trkpt lat="45.454553039744496" lon="3.281659008935094">
        <ele>429.85000000000002</ele>
        <time>2025-04-25T06:12:15Z</time>
      </trkpt>
      <trkpt lat="45.454411972314119" lon="3.281926978379488">
        <ele>432.25</ele>
        <time>2025-04-25T06:12:17Z</time>
      </trkpt>
      <trkpt lat="45.453889025375247" lon="3.282685959711671">
        <ele>442.33999999999997</ele>
        <time>2025-04-25T06:12:23Z</time>
      </trkpt>
      <trkpt lat="45.452884035184979" lon="3.283606041222811">
        <ele>455.31999999999999</ele>
        <time>2025-04-25T06:12:31Z</time>
      </trkpt>
      <trkpt lat="45.451568998396397" lon="3.284867014735937">
        <ele>459.64999999999998</ele>
        <time>2025-04-25T06:12:40Z</time>
      </trkpt>
      <trkpt lat="45.450564008206129" lon="3.285994967445731">
        <ele>460.61000000000001</ele>
        <time>2025-04-25T06:12:48Z</time>
      </trkpt>
      <trkpt lat="45.450488990172744" lon="3.286135029047728">
        <ele>461.08999999999997</ele>
        <time>2025-04-25T06:12:49Z</time>
      </trkpt>
      <trkpt lat="45.450429981574416" lon="3.286301996558905">
        <ele>461.08999999999997</ele>
        <time>2025-04-25T06:12:50Z</time>
      </trkpt>
      <trkpt lat="45.450322022661567" lon="3.286610031500459">
        <ele>461.08999999999997</ele>
        <time>2025-04-25T06:12:52Z</time>
      </trkpt>
      <trkpt lat="45.450275000184774" lon="3.286741962656379">
        <ele>461.08999999999997</ele>
        <time>2025-04-25T06:12:53Z</time>
      </trkpt>
      <trkpt lat="45.450195958837867" lon="3.286852017045021">
        <ele>461.08999999999997</ele>
        <time>2025-04-25T06:12:54Z</time>
      </trkpt>
      <trkpt lat="45.450096968561411" lon="3.286912031471729">
        <ele>461.08999999999997</ele>
        <time>2025-04-25T06:12:55Z</time>
      </trkpt>
      <trkpt lat="45.449988003820181" lon="3.286976991221309">
        <ele>461.08999999999997</ele>
        <time>2025-04-25T06:12:56Z</time>
      </trkpt>
      <trkpt lat="45.449876021593809" lon="3.287043962627649">
        <ele>461.56999999999999</ele>
        <time>2025-04-25T06:12:57Z</time>
      </trkpt>
      <trkpt lat="45.449565974995494" lon="3.287254013121128">
        <ele>461.56999999999999</ele>
        <time>2025-04-25T06:13:00Z</time>
      </trkpt>
      <trkpt lat="45.449482994154096" lon="3.287355015054345">
        <ele>461.56999999999999</ele>
        <time>2025-04-25T06:13:01Z</time>
      </trkpt>
      <trkpt lat="45.44940403662622" lon="3.287464985623956">
        <ele>461.56999999999999</ele>
        <time>2025-04-25T06:13:02Z</time>
      </trkpt>
      <trkpt lat="45.449361959472299" lon="3.287614015862346">
        <ele>462.05000000000001</ele>
        <time>2025-04-25T06:13:03Z</time>
      </trkpt>
      <trkpt lat="45.44932097196579" lon="3.287762040272355">
        <ele>462.52999999999997</ele>
        <time>2025-04-25T06:13:04Z</time>
      </trkpt>
      <trkpt lat="45.449281996116042" lon="3.28790201805532">
        <ele>462.52999999999997</ele>
        <time>2025-04-25T06:13:05Z</time>
      </trkpt>
      <trkpt lat="45.449227010831237" lon="3.288026992231607">
        <ele>463.00999999999999</ele>
        <time>2025-04-25T06:13:06Z</time>
      </trkpt>
      <trkpt lat="45.449162973091006" lon="3.288116008043289">
        <ele>463.00999999999999</ele>
        <time>2025-04-25T06:13:07Z</time>
      </trkpt>
      <trkpt lat="45.449080998077989" lon="3.288134029135108">
        <ele>462.52999999999997</ele>
        <time>2025-04-25T06:13:08Z</time>
      </trkpt>
      <trkpt lat="45.44899701140821" lon="3.288136962801218">
        <ele>463.00999999999999</ele>
        <time>2025-04-25T06:13:09Z</time>
      </trkpt>
      <trkpt lat="45.448913024738431" lon="3.28813998028636">
        <ele>463.49000000000001</ele>
        <time>2025-04-25T06:13:10Z</time>
      </trkpt>
      <trkpt lat="45.448640026152134" lon="3.288150960579515">
        <ele>464.93000000000001</ele>
        <time>2025-04-25T06:13:13Z</time>
      </trkpt>
      <trkpt lat="45.448566013947129" lon="3.288190020248294">
        <ele>464.93000000000001</ele>
        <time>2025-04-25T06:13:14Z</time>
      </trkpt>
      <trkpt lat="45.448498958721757" lon="3.288241988047957">
        <ele>465.42000000000002</ele>
        <time>2025-04-25T06:13:15Z</time>
      </trkpt>
      <trkpt lat="45.44844196178019" lon="3.288285993039608">
        <ele>465.42000000000002</ele>
        <time>2025-04-25T06:13:16Z</time>
      </trkpt>
      <trkpt lat="45.448394017294049" lon="3.288323041051626">
        <ele>465.42000000000002</ele>
        <time>2025-04-25T06:13:17Z</time>
      </trkpt>
      <trkpt lat="45.448337020352483" lon="3.288366962224245">
        <ele>464.93000000000001</ele>
        <time>2025-04-25T06:13:18Z</time>
      </trkpt>
      <trkpt lat="45.448299972340465" lon="3.288219021633267">
        <ele>464.93000000000001</ele>
        <time>2025-04-25T06:13:19Z</time>
      </trkpt>
      <trkpt lat="45.448278011754155" lon="3.288131011649966">
        <ele>464.44999999999999</ele>
        <time>2025-04-25T06:13:20Z</time>
      </trkpt>
      <trkpt lat="45.448250016197562" lon="3.288019029423595">
        <ele>464.44999999999999</ele>
        <time>2025-04-25T06:13:21Z</time>
      </trkpt>
      <trkpt lat="45.448217997327447" lon="3.287891037762165">
        <ele>463.97000000000003</ele>
        <time>2025-04-25T06:13:22Z</time>
      </trkpt>
      <trkpt lat="45.447942987084389" lon="3.287119986489415">
        <ele>462.52999999999997</ele>
        <time>2025-04-25T06:13:28Z</time>
      </trkpt>
      <trkpt lat="45.447895964607596" lon="3.287029964849353">
        <ele>462.05000000000001</ele>
        <time>2025-04-25T06:13:29Z</time>
      </trkpt>
      <trkpt lat="45.447803009301424" lon="3.286904990673065">
        <ele>460.61000000000001</ele>
        <time>2025-04-25T06:13:31Z</time>
      </trkpt>
      <trkpt lat="45.447742994874716" lon="3.28687003813684">
        <ele>460.13</ele>
        <time>2025-04-25T06:13:32Z</time>
      </trkpt>
      <trkpt lat="45.447681974619627" lon="3.286835001781583">
        <ele>459.17000000000002</ele>
        <time>2025-04-25T06:13:33Z</time>
      </trkpt>
      <trkpt lat="45.447622966021299" lon="3.286800971254706">
        <ele>458.69</ele>
        <time>2025-04-25T06:13:34Z</time>
      </trkpt>
      <trkpt lat="45.447568986564875" lon="3.286775993183255">
        <ele>458.20999999999998</ele>
        <time>2025-04-25T06:13:35Z</time>
      </trkpt>
      <trkpt lat="45.447506038472056" lon="3.286766018718481">
        <ele>457.24000000000001</ele>
        <time>2025-04-25T06:13:36Z</time>
      </trkpt>
      <trkpt lat="45.447056014090776" lon="3.286720002070069">
        <ele>453.88</ele>
        <time>2025-04-25T06:13:42Z</time>
      </trkpt>
      <trkpt lat="45.446669021621346" lon="3.286713967099786">
        <ele>451.48000000000002</ele>
        <time>2025-04-25T06:13:47Z</time>
      </trkpt>
      <trkpt lat="45.446597021073103" lon="3.286686977371573">
        <ele>451</ele>
        <time>2025-04-25T06:13:48Z</time>
      </trkpt>
      <trkpt lat="45.446533989161253" lon="3.286642972379923">
        <ele>450.51999999999998</ele>
        <time>2025-04-25T06:13:49Z</time>
      </trkpt>
      <trkpt lat="45.446470035240054" lon="3.286564014852047">
        <ele>450.02999999999997</ele>
        <time>2025-04-25T06:13:50Z</time>
      </trkpt>
      <trkpt lat="45.446431981399655" lon="3.286483967676759">
        <ele>449.06999999999999</ele>
        <time>2025-04-25T06:13:51Z</time>
      </trkpt>
      <trkpt lat="45.446393005549908" lon="3.286400986835361">
        <ele>447.63</ele>
        <time>2025-04-25T06:13:52Z</time>
      </trkpt>
      <trkpt lat="45.446355035528541" lon="3.286321023479104">
        <ele>447.14999999999998</ele>
        <time>2025-04-25T06:13:53Z</time>
      </trkpt>
      <trkpt lat="45.446315975859761" lon="3.286237958818674">
        <ele>446.19</ele>
        <time>2025-04-25T06:13:54Z</time>
      </trkpt>
      <trkpt lat="45.446277000010014" lon="3.286156989634037">
        <ele>445.23000000000002</ele>
        <time>2025-04-25T06:13:55Z</time>
      </trkpt>
      <trkpt lat="45.446223020553589" lon="3.28609898686409">
        <ele>444.75</ele>
        <time>2025-04-25T06:13:56Z</time>
      </trkpt>
      <trkpt lat="45.446166023612022" lon="3.286038972437382">
        <ele>443.79000000000002</ele>
        <time>2025-04-25T06:13:57Z</time>
      </trkpt>
      <trkpt lat="45.446110032498837" lon="3.285979963839054">
        <ele>443.31</ele>
        <time>2025-04-25T06:13:58Z</time>
      </trkpt>
      <trkpt lat="45.446054963395" lon="3.285921961069107">
        <ele>442.33999999999997</ele>
        <time>2025-04-25T06:13:59Z</time>
      </trkpt>
      <trkpt lat="45.445999978110194" lon="3.285863036289811">
        <ele>441.86000000000001</ele>
        <time>2025-04-25T06:14:00Z</time>
      </trkpt>
      <trkpt lat="45.445942981168628" lon="3.285803021863103">
        <ele>441.86000000000001</ele>
        <time>2025-04-25T06:14:01Z</time>
      </trkpt>
      <trkpt lat="45.445884978398681" lon="3.285749964416027">
        <ele>441.86000000000001</ele>
        <time>2025-04-25T06:14:02Z</time>
      </trkpt>
      <trkpt lat="45.445823036134243" lon="3.285703025758266">
        <ele>441.86000000000001</ele>
        <time>2025-04-25T06:14:03Z</time>
      </trkpt>
      <trkpt lat="45.445706024765968" lon="3.285606969147921">
        <ele>442.33999999999997</ele>
        <time>2025-04-25T06:14:05Z</time>
      </trkpt>
      <trkpt lat="45.445651039481163" lon="3.285551983863115">
        <ele>441.86000000000001</ele>
        <time>2025-04-25T06:14:06Z</time>
      </trkpt>
      <trkpt lat="45.445502009242773" lon="3.285403037443757">
        <ele>441.38</ele>
        <time>2025-04-25T06:14:09Z</time>
      </trkpt>
      <trkpt lat="45.445456998422742" lon="3.285359032452107">
        <ele>441.38</ele>
        <time>2025-04-25T06:14:10Z</time>
      </trkpt>
      <trkpt lat="45.445401007309556" lon="3.285341011360288">
        <ele>440.89999999999998</ele>
        <time>2025-04-25T06:14:11Z</time>
      </trkpt>
      <trkpt lat="45.445331018418074" lon="3.285348974168301">
        <ele>440.42000000000002</ele>
        <time>2025-04-25T06:14:12Z</time>
      </trkpt>
      <trkpt lat="45.445264969021082" lon="3.285371018573642">
        <ele>440.42000000000002</ele>
        <time>2025-04-25T06:14:13Z</time>
      </trkpt>
      <trkpt lat="45.445201015099883" lon="3.285391973331571">
        <ele>439.94</ele>
        <time>2025-04-25T06:14:14Z</time>
      </trkpt>
      <trkpt lat="45.445134965702891" lon="3.285409994423389">
        <ele>439.45999999999998</ele>
        <time>2025-04-25T06:14:15Z</time>
      </trkpt>
      <trkpt lat="45.445064976811409" lon="3.285420974716544">
        <ele>439.45999999999998</ele>
        <time>2025-04-25T06:14:16Z</time>
      </trkpt>
      <trkpt lat="45.444996999576688" lon="3.285432038828731">
        <ele>438.98000000000002</ele>
        <time>2025-04-25T06:14:17Z</time>
      </trkpt>
      <trkpt lat="45.444754008203745" lon="3.285470008850098">
        <ele>438.01999999999998</ele>
        <time>2025-04-25T06:14:21Z</time>
      </trkpt>
      <trkpt lat="45.444754008203745" lon="3.285470008850098">
        <ele>438.5</ele>
        <time>2025-04-25T06:14:22Z</time>
      </trkpt>
      <trkpt lat="45.444681001827121" lon="3.285475037992001">
        <ele>438.98000000000002</ele>
        <time>2025-04-25T06:14:23Z</time>
      </trkpt>
      <trkpt lat="45.444655017927289" lon="3.285423992201686">
        <ele>438.98000000000002</ele>
        <time>2025-04-25T06:14:24Z</time>
      </trkpt>
      <trkpt lat="45.444619981572032" lon="3.285351991653442">
        <ele>439.45999999999998</ele>
        <time>2025-04-25T06:14:25Z</time>
      </trkpt>
      <trkpt lat="45.444388976320624" lon="3.284826027229428">
        <ele>440.89999999999998</ele>
        <time>2025-04-25T06:14:32Z</time>
      </trkpt>
      <trkpt lat="45.44435796327889" lon="3.284733993932605">
        <ele>440.89999999999998</ele>
        <time>2025-04-25T06:14:33Z</time>
      </trkpt>
      <trkpt lat="45.44433600269258" lon="3.284649001434445">
        <ele>441.38</ele>
        <time>2025-04-25T06:14:34Z</time>
      </trkpt>
      <trkpt lat="45.444213962182403" lon="3.284193025901914">
        <ele>441.86000000000001</ele>
        <time>2025-04-25T06:14:39Z</time>
      </trkpt>
      <trkpt lat="45.444181021302938" lon="3.284095963463187">
        <ele>442.33999999999997</ele>
        <time>2025-04-25T06:14:40Z</time>
      </trkpt>
      <trkpt lat="45.44414103962481" lon="3.283993033692241">
        <ele>442.81999999999999</ele>
        <time>2025-04-25T06:14:41Z</time>
      </trkpt>
      <trkpt lat="45.444083958864212" lon="3.283912986516953">
        <ele>443.31</ele>
        <time>2025-04-25T06:14:42Z</time>
      </trkpt>
      <trkpt lat="45.444029979407787" lon="3.283835034817457">
        <ele>443.79000000000002</ele>
        <time>2025-04-25T06:14:43Z</time>
      </trkpt>
      <trkpt lat="45.443922020494938" lon="3.283679969608784">
        <ele>445.23000000000002</ele>
        <time>2025-04-25T06:14:45Z</time>
      </trkpt>
      <trkpt lat="45.443791011348367" lon="3.283494981005788">
        <ele>446.67000000000002</ele>
        <time>2025-04-25T06:14:48Z</time>
      </trkpt>
      <trkpt lat="45.443757986649871" lon="3.283446030691266">
        <ele>446.67000000000002</ele>
        <time>2025-04-25T06:14:49Z</time>
      </trkpt>
      <trkpt lat="45.443668970838189" lon="3.2833890337497">
        <ele>447.14999999999998</ele>
        <time>2025-04-25T06:14:50Z</time>
      </trkpt>
      <trkpt lat="45.443619014695287" lon="3.283420968800783">
        <ele>447.63</ele>
        <time>2025-04-25T06:14:51Z</time>
      </trkpt>
      <trkpt lat="45.44356101192534" lon="3.283458016812801">
        <ele>448.11000000000001</ele>
        <time>2025-04-25T06:14:52Z</time>
      </trkpt>
      <trkpt lat="45.44349898584187" lon="3.28349799849093">
        <ele>448.58999999999997</ele>
        <time>2025-04-25T06:14:53Z</time>
      </trkpt>
      <trkpt lat="45.442671021446586" lon="3.284029997885227">
        <ele>454.83999999999997</ele>
        <time>2025-04-25T06:15:03Z</time>
      </trkpt>
      <trkpt lat="45.442516040056944" lon="3.284128988161683">
        <ele>456.27999999999997</ele>
        <time>2025-04-25T06:15:05Z</time>
      </trkpt>
      <trkpt lat="45.442460970953107" lon="3.28420601785183">
        <ele>456.75999999999999</ele>
        <time>2025-04-25T06:15:06Z</time>
      </trkpt>
      <trkpt lat="45.442411014810205" lon="3.284287992864847">
        <ele>457.72000000000003</ele>
        <time>2025-04-25T06:15:07Z</time>
      </trkpt>
      <trkpt lat="45.441777007654309" lon="3.28534503467381">
        <ele>463.49000000000001</ele>
        <time>2025-04-25T06:15:20Z</time>
      </trkpt>
      <trkpt lat="45.441601993516088" lon="3.285636976361275">
        <ele>463.97000000000003</ele>
        <time>2025-04-25T06:15:24Z</time>
      </trkpt>
      <trkpt lat="45.441567962989211" lon="3.285693973302841">
        <ele>463.97000000000003</ele>
        <time>2025-04-25T06:15:25Z</time>
      </trkpt>
      <trkpt lat="45.441532004624605" lon="3.285752981901169">
        <ele>463.97000000000003</ele>
        <time>2025-04-25T06:15:26Z</time>
      </trkpt>
      <trkpt lat="45.44149998575449" lon="3.285807967185974">
        <ele>463.97000000000003</ele>
        <time>2025-04-25T06:15:27Z</time>
      </trkpt>
      <trkpt lat="45.44150099158287" lon="3.28590402379632">
        <ele>463.97000000000003</ele>
        <time>2025-04-25T06:15:28Z</time>
      </trkpt>
      <trkpt lat="45.441535022109747" lon="3.285954985767603">
        <ele>463.97000000000003</ele>
        <time>2025-04-25T06:15:29Z</time>
      </trkpt>
      <trkpt lat="45.441576009616256" lon="3.286019023507834">
        <ele>463.97000000000003</ele>
        <time>2025-04-25T06:15:30Z</time>
      </trkpt>
      <trkpt lat="45.441624037921429" lon="3.286093035712838">
        <ele>463.97000000000003</ele>
        <time>2025-04-25T06:15:31Z</time>
      </trkpt>
      <trkpt lat="45.441725039854646" lon="3.286271989345551">
        <ele>463.49000000000001</ele>
        <time>2025-04-25T06:15:33Z</time>
      </trkpt>
      <trkpt lat="45.442071966826916" lon="3.287213025614619">
        <ele>461.56999999999999</ele>
        <time>2025-04-25T06:15:44Z</time>
      </trkpt>
      <trkpt lat="45.442086970433593" lon="3.287253007292748">
        <ele>461.08999999999997</ele>
        <time>2025-04-25T06:15:45Z</time>
      </trkpt>
      <trkpt lat="45.442024022340775" lon="3.287382004782558">
        <ele>461.08999999999997</ele>
        <time>2025-04-25T06:15:46Z</time>
      </trkpt>
      <trkpt lat="45.441996026784182" lon="3.287383010610938">
        <ele>460.61000000000001</ele>
        <time>2025-04-25T06:15:47Z</time>
      </trkpt>
      <trkpt lat="45.44195001013577" lon="3.287384016439319">
        <ele>460.13</ele>
        <time>2025-04-25T06:15:48Z</time>
      </trkpt>
      <trkpt lat="45.441892007365823" lon="3.287385022267699">
        <ele>459.64999999999998</ele>
        <time>2025-04-25T06:15:49Z</time>
      </trkpt>
      <trkpt lat="45.441829981282353" lon="3.28738602809608">
        <ele>459.64999999999998</ele>
        <time>2025-04-25T06:15:50Z</time>
      </trkpt>
      <trkpt lat="45.441185999661684" lon="3.287401031702757">
        <ele>456.27999999999997</ele>
        <time>2025-04-25T06:15:58Z</time>
      </trkpt>
      <trkpt lat="45.441098995506763" lon="3.287433972582221">
        <ele>455.80000000000001</ele>
        <time>2025-04-25T06:15:59Z</time>
      </trkpt>
      <trkpt lat="45.441006040200591" lon="3.287476971745491">
        <ele>455.80000000000001</ele>
        <time>2025-04-25T06:16:00Z</time>
      </trkpt>
      <trkpt lat="45.440905960276723" lon="3.287522988393903">
        <ele>455.80000000000001</ele>
        <time>2025-04-25T06:16:01Z</time>
      </trkpt>
      <trkpt lat="45.440819039940834" lon="3.287614015862346">
        <ele>455.80000000000001</ele>
        <time>2025-04-25T06:16:02Z</time>
      </trkpt>
      <trkpt lat="45.439570974558592" lon="3.288516998291016">
        <ele>460.61000000000001</ele>
        <time>2025-04-25T06:16:14Z</time>
      </trkpt>
      <trkpt lat="45.438865972682834" lon="3.2889149710536">
        <ele>459.64999999999998</ele>
        <time>2025-04-25T06:16:19Z</time>
      </trkpt>
      <trkpt lat="45.438697999343276" lon="3.288949001580477">
        <ele>459.64999999999998</ele>
        <time>2025-04-25T06:16:20Z</time>
      </trkpt>
      <trkpt lat="45.438531031832099" lon="3.288984037935734">
        <ele>459.17000000000002</ele>
        <time>2025-04-25T06:16:21Z</time>
      </trkpt>
      <trkpt lat="45.438361968845129" lon="3.288994012400508">
        <ele>458.69</ele>
        <time>2025-04-25T06:16:22Z</time>
      </trkpt>
      <trkpt lat="45.438206987455487" lon="3.288928968831897">
        <ele>458.20999999999998</ele>
        <time>2025-04-25T06:16:23Z</time>
      </trkpt>
      <trkpt lat="45.438045971095562" lon="3.288861997425556">
        <ele>458.20999999999998</ele>
        <time>2025-04-25T06:16:24Z</time>
      </trkpt>
      <trkpt lat="45.437883026897907" lon="3.288792008534074">
        <ele>458.20999999999998</ele>
        <time>2025-04-25T06:16:25Z</time>
      </trkpt>
      <trkpt lat="45.437736008316278" lon="3.288674997165799">
        <ele>458.20999999999998</ele>
        <time>2025-04-25T06:16:26Z</time>
      </trkpt>
      <trkpt lat="45.43685800395906" lon="3.288009976968169">
        <ele>458.20999999999998</ele>
        <time>2025-04-25T06:16:32Z</time>
      </trkpt>
      <trkpt lat="45.43670604005456" lon="3.287949962541461">
        <ele>458.20999999999998</ele>
        <time>2025-04-25T06:16:33Z</time>
      </trkpt>
      <trkpt lat="45.436544017866254" lon="3.287929007783532">
        <ele>457.72000000000003</ele>
        <time>2025-04-25T06:16:34Z</time>
      </trkpt>
      <trkpt lat="45.436380989849567" lon="3.287906963378191">
        <ele>457.72000000000003</ele>
        <time>2025-04-25T06:16:35Z</time>
      </trkpt>
      <trkpt lat="45.436220979318023" lon="3.287886008620262">
        <ele>457.24000000000001</ele>
        <time>2025-04-25T06:16:36Z</time>
      </trkpt>
      <trkpt lat="45.434991018846631" lon="3.288045013323426">
        <ele>455.80000000000001</ele>
        <time>2025-04-25T06:16:44Z</time>
      </trkpt>
      <trkpt lat="45.434834025800228" lon="3.288045013323426">
        <ele>455.80000000000001</ele>
        <time>2025-04-25T06:16:45Z</time>
      </trkpt>
      <trkpt lat="45.434677032753825" lon="3.288020035251975">
        <ele>455.80000000000001</ele>
        <time>2025-04-25T06:16:46Z</time>
      </trkpt>
      <trkpt lat="45.434520961716771" lon="3.287980975583196">
        <ele>455.31999999999999</ele>
        <time>2025-04-25T06:16:47Z</time>
      </trkpt>
      <trkpt lat="45.434371009469032" lon="3.287930013611913">
        <ele>455.31999999999999</ele>
        <time>2025-04-25T06:16:48Z</time>
      </trkpt>
      <trkpt lat="45.434226002544165" lon="3.28786002472043">
        <ele>454.83999999999997</ele>
        <time>2025-04-25T06:16:49Z</time>
      </trkpt>
      <trkpt lat="45.433324025943875" lon="3.287546038627625">
        <ele>453.88</ele>
        <time>2025-04-25T06:16:55Z</time>
      </trkpt>
      <trkpt lat="45.432118959724903" lon="3.287325007840991">
        <ele>452.44</ele>
        <time>2025-04-25T06:17:03Z</time>
      </trkpt>
      <trkpt lat="45.431023025885224" lon="3.287240015342832">
        <ele>451.95999999999998</ele>
        <time>2025-04-25T06:17:10Z</time>
      </trkpt>
      <trkpt lat="45.430057011544704" lon="3.28704496845603">
        <ele>453.39999999999998</ele>
        <time>2025-04-25T06:17:16Z</time>
      </trkpt>
      <trkpt lat="45.428940961137414" lon="3.286301996558905">
        <ele>454.36000000000001</ele>
        <time>2025-04-25T06:17:24Z</time>
      </trkpt>
      <trkpt lat="45.428799977526069" lon="3.286264026537538">
        <ele>454.36000000000001</ele>
        <time>2025-04-25T06:17:25Z</time>
      </trkpt>
      <trkpt lat="45.428666034713387" lon="3.2862279843539">
        <ele>453.88</ele>
        <time>2025-04-25T06:17:26Z</time>
      </trkpt>
      <trkpt lat="45.428532008081675" lon="3.286256985738874">
        <ele>453.88</ele>
        <time>2025-04-25T06:17:27Z</time>
      </trkpt>
      <trkpt lat="45.4283959697932" lon="3.286320017650724">
        <ele>453.88</ele>
        <time>2025-04-25T06:17:28Z</time>
      </trkpt>
      <trkpt lat="45.428259009495378" lon="3.286416996270418">
        <ele>453.88</ele>
        <time>2025-04-25T06:17:29Z</time>
      </trkpt>
      <trkpt lat="45.428117020055652" lon="3.286516992375255">
        <ele>453.88</ele>
        <time>2025-04-25T06:17:30Z</time>
      </trkpt>
      <trkpt lat="45.426899967715144" lon="3.287100959569216">
        <ele>453.88</ele>
        <time>2025-04-25T06:17:38Z</time>
      </trkpt>
      <trkpt lat="45.425243033096194" lon="3.287272034212947">
        <ele>451.95999999999998</ele>
        <time>2025-04-25T06:17:48Z</time>
      </trkpt>
      <trkpt lat="45.425091991201043" lon="3.287207996472716">
        <ele>451.95999999999998</ele>
        <time>2025-04-25T06:17:49Z</time>
      </trkpt>
      <trkpt lat="45.423589032143354" lon="3.286564014852047">
        <ele>451</ele>
        <time>2025-04-25T06:18:00Z</time>
      </trkpt>
      <trkpt lat="45.423450982198119" lon="3.286542976275086">
        <ele>450.51999999999998</ele>
        <time>2025-04-25T06:18:01Z</time>
      </trkpt>
      <trkpt lat="45.423308992758393" lon="3.286542976275086">
        <ele>450.02999999999997</ele>
        <time>2025-04-25T06:18:02Z</time>
      </trkpt>
      <trkpt lat="45.422542970627546" lon="3.286659987643361">
        <ele>448.58999999999997</ele>
        <time>2025-04-25T06:18:09Z</time>
      </trkpt>
      <trkpt lat="45.422415984794497" lon="3.286693012341857">
        <ele>448.11000000000001</ele>
        <time>2025-04-25T06:18:12Z</time>
      </trkpt>
      <trkpt lat="45.42235697619617" lon="3.286723019555211">
        <ele>448.11000000000001</ele>
        <time>2025-04-25T06:18:13Z</time>
      </trkpt>
      <trkpt lat="45.422287993133068" lon="3.286756966263056">
        <ele>448.11000000000001</ele>
        <time>2025-04-25T06:18:14Z</time>
      </trkpt>
      <trkpt lat="45.422219010069966" lon="3.286822009831667">
        <ele>448.11000000000001</ele>
        <time>2025-04-25T06:18:15Z</time>
      </trkpt>
      <trkpt lat="45.422151032835245" lon="3.286932986229658">
        <ele>448.11000000000001</ele>
        <time>2025-04-25T06:18:16Z</time>
      </trkpt>
      <trkpt lat="45.422080038115382" lon="3.287052009254694">
        <ele>448.11000000000001</ele>
        <time>2025-04-25T06:18:17Z</time>
      </trkpt>
      <trkpt lat="45.421365983784199" lon="3.288029003888369">
        <ele>446.67000000000002</ele>
        <time>2025-04-25T06:18:24Z</time>
      </trkpt>
      <trkpt lat="45.420735999941826" lon="3.288448015227914">
        <ele>444.26999999999998</ele>
        <time>2025-04-25T06:18:28Z</time>
      </trkpt>
      <trkpt lat="45.418802965432405" lon="3.289013039320707">
        <ele>433.20999999999998</ele>
        <time>2025-04-25T06:18:38Z</time>
      </trkpt>
      <trkpt lat="45.418040966615081" lon="3.289309004321694">
        <ele>427.92000000000002</ele>
        <time>2025-04-25T06:18:42Z</time>
      </trkpt>
      <trkpt lat="45.417860001325607" lon="3.289421992376447">
        <ele>426.95999999999998</ele>
        <time>2025-04-25T06:18:43Z</time>
      </trkpt>
      <trkpt lat="45.417527994140983" lon="3.289700020104647">
        <ele>424.56</ele>
        <time>2025-04-25T06:18:45Z</time>
      </trkpt>
      <trkpt lat="45.41737100109458" lon="3.289863970130682">
        <ele>423.60000000000002</ele>
        <time>2025-04-25T06:18:46Z</time>
      </trkpt>
      <trkpt lat="45.417216019704938" lon="3.290025992318988">
        <ele>422.16000000000003</ele>
        <time>2025-04-25T06:18:47Z</time>
      </trkpt>
      <trkpt lat="45.417084004729986" lon="3.29022497870028">
        <ele>421.68000000000001</ele>
        <time>2025-04-25T06:18:48Z</time>
      </trkpt>
      <trkpt lat="45.416951989755034" lon="3.290428994223476">
        <ele>420.70999999999998</ele>
        <time>2025-04-25T06:18:49Z</time>
      </trkpt>
      <trkpt lat="45.416820980608463" lon="3.290634015575051">
        <ele>420.23000000000002</ele>
        <time>2025-04-25T06:18:50Z</time>
      </trkpt>
      <trkpt lat="45.416731964796782" lon="3.290881030261517">
        <ele>419.75</ele>
        <time>2025-04-25T06:18:51Z</time>
      </trkpt>
      <trkpt lat="45.416644960641861" lon="3.291130978614092">
        <ele>419.75</ele>
        <time>2025-04-25T06:18:52Z</time>
      </trkpt>
      <trkpt lat="45.416558040305972" lon="3.291381010785699">
        <ele>419.26999999999998</ele>
        <time>2025-04-25T06:18:53Z</time>
      </trkpt>
      <trkpt lat="45.416480004787445" lon="3.291635988280177">
        <ele>418.79000000000002</ele>
        <time>2025-04-25T06:18:54Z</time>
      </trkpt>
      <trkpt lat="45.415959991514683" lon="3.294342001900077">
        <ele>415.91000000000003</ele>
        <time>2025-04-25T06:19:04Z</time>
      </trkpt>
      <trkpt lat="45.415705014020205" lon="3.295887038111687">
        <ele>415.43000000000001</ele>
        <time>2025-04-25T06:19:10Z</time>
      </trkpt>
      <trkpt lat="45.415711970999837" lon="3.296143021434546">
        <ele>415.91000000000003</ele>
        <time>2025-04-25T06:19:11Z</time>
      </trkpt>
      <trkpt lat="45.415719011798501" lon="3.296415014192462">
        <ele>416.38999999999999</ele>
        <time>2025-04-25T06:19:12Z</time>
      </trkpt>
      <trkpt lat="45.416052024811506" lon="3.299503996968269">
        <ele>419.26999999999998</ele>
        <time>2025-04-25T06:19:23Z</time>
      </trkpt>
      <trkpt lat="45.416270960122347" lon="3.300897991284728">
        <ele>424.07999999999998</ele>
        <time>2025-04-25T06:19:30Z</time>
      </trkpt>
      <trkpt lat="45.416299039497972" lon="3.301024977117777">
        <ele>425.04000000000002</ele>
        <time>2025-04-25T06:19:31Z</time>
      </trkpt>
      <trkpt lat="45.416240030899644" lon="3.30122597515583">
        <ele>425.51999999999998</ele>
        <time>2025-04-25T06:19:32Z</time>
      </trkpt>
      <trkpt lat="45.41616995818913" lon="3.301304010674357">
        <ele>426.48000000000002</ele>
        <time>2025-04-25T06:19:33Z</time>
      </trkpt>
      <trkpt lat="45.416091000661254" lon="3.301391014829278">
        <ele>427.44</ele>
        <time>2025-04-25T06:19:34Z</time>
      </trkpt>
      <trkpt lat="45.416005002334714" lon="3.301485981792212">
        <ele>428.39999999999998</ele>
        <time>2025-04-25T06:19:35Z</time>
      </trkpt>
      <trkpt lat="45.415399996563792" lon="3.302698004990816">
        <ele>436.57999999999998</ele>
        <time>2025-04-25T06:19:43Z</time>
      </trkpt>
      <trkpt lat="45.414584018290043" lon="3.304846035316587">
        <ele>443.79000000000002</ele>
        <time>2025-04-25T06:19:53Z</time>
      </trkpt>
      <trkpt lat="45.414348989725113" lon="3.305295975878835">
        <ele>444.75</ele>
        <time>2025-04-25T06:19:55Z</time>
      </trkpt>
      <trkpt lat="45.414213035255671" lon="3.305486999452114">
        <ele>445.70999999999998</ele>
        <time>2025-04-25T06:19:56Z</time>
      </trkpt>
      <trkpt lat="45.4140629991889" lon="3.305654972791672">
        <ele>446.67000000000002</ele>
        <time>2025-04-25T06:19:57Z</time>
      </trkpt>
      <trkpt lat="45.413895025849342" lon="3.30577801913023">
        <ele>447.63</ele>
        <time>2025-04-25T06:19:58Z</time>
      </trkpt>
      <trkpt lat="45.413726968690753" lon="3.305900981649756">
        <ele>448.58999999999997</ele>
        <time>2025-04-25T06:19:59Z</time>
      </trkpt>
      <trkpt lat="45.4126469604671" lon="3.306585028767586">
        <ele>453.88</ele>
        <time>2025-04-25T06:20:05Z</time>
      </trkpt>
      <trkpt lat="45.412443028762937" lon="3.30661604180932">
        <ele>454.83999999999997</ele>
        <time>2025-04-25T06:20:06Z</time>
      </trkpt>
      <trkpt lat="45.41223700158298" lon="3.306647976860404">
        <ele>455.80000000000001</ele>
        <time>2025-04-25T06:20:07Z</time>
      </trkpt>
      <trkpt lat="45.410746028646827" lon="3.306740010157228">
        <ele>463.00999999999999</ele>
        <time>2025-04-25T06:20:15Z</time>
      </trkpt>
      <trkpt lat="45.410591969266534" lon="3.306786026805639">
        <ele>464.44999999999999</ele>
        <time>2025-04-25T06:20:16Z</time>
      </trkpt>
      <trkpt lat="45.410443022847176" lon="3.306855009868741">
        <ele>465.42000000000002</ele>
        <time>2025-04-25T06:20:17Z</time>
      </trkpt>
      <trkpt lat="45.410308996215463" lon="3.306966992095113">
        <ele>466.38</ele>
        <time>2025-04-25T06:20:18Z</time>
      </trkpt>
      <trkpt lat="45.410188967362046" lon="3.307108981534839">
        <ele>467.81999999999999</ele>
        <time>2025-04-25T06:20:19Z</time>
      </trkpt>
      <trkpt lat="45.410095006227493" lon="3.307293970137835">
        <ele>469.25999999999999</ele>
        <time>2025-04-25T06:20:20Z</time>
      </trkpt>
      <trkpt lat="45.410018982365727" lon="3.30749899148941">
        <ele>470.22000000000003</ele>
        <time>2025-04-25T06:20:21Z</time>
      </trkpt>
      <trkpt lat="45.409942958503962" lon="3.307703007012606">
        <ele>471.18000000000001</ele>
        <time>2025-04-25T06:20:22Z</time>
      </trkpt>
      <trkpt lat="45.409699967131019" lon="3.308306001126766">
        <ele>474.06999999999999</ele>
        <time>2025-04-25T06:20:25Z</time>
      </trkpt>
      <trkpt lat="45.409617992118001" lon="3.308470034971833">
        <ele>475.02999999999997</ele>
        <time>2025-04-25T06:20:26Z</time>
      </trkpt>
      <trkpt lat="45.409434009343386" lon="3.308854009956121">
        <ele>477.43000000000001</ele>
        <time>2025-04-25T06:20:29Z</time>
      </trkpt>
      <trkpt lat="45.409387992694974" lon="3.308963980525732">
        <ele>477.91000000000003</ele>
        <time>2025-04-25T06:20:30Z</time>
      </trkpt>
      <trkpt lat="45.409366032108665" lon="3.309095995500684">
        <ele>478.38999999999999</ele>
        <time>2025-04-25T06:20:31Z</time>
      </trkpt>
      <trkpt lat="45.409343987703323" lon="3.309229016304016">
        <ele>478.38999999999999</ele>
        <time>2025-04-25T06:20:32Z</time>
      </trkpt>
      <trkpt lat="45.409325966611505" lon="3.309361031278968">
        <ele>478.38999999999999</ele>
        <time>2025-04-25T06:20:33Z</time>
      </trkpt>
      <trkpt lat="45.409320015460253" lon="3.309506038203836">
        <ele>477.91000000000003</ele>
        <time>2025-04-25T06:20:34Z</time>
      </trkpt>
      <trkpt lat="45.409235022962093" lon="3.311249976977706">
        <ele>472.63</ele>
        <time>2025-04-25T06:20:46Z</time>
      </trkpt>
      <trkpt lat="45.409136032685637" lon="3.311691032722592">
        <ele>470.69999999999999</ele>
        <time>2025-04-25T06:20:49Z</time>
      </trkpt>
      <trkpt lat="45.409075012430549" lon="3.311965959146619">
        <ele>469.74000000000001</ele>
        <time>2025-04-25T06:20:51Z</time>
      </trkpt>
      <trkpt lat="45.409045005217195" lon="3.312100991606712">
        <ele>469.25999999999999</ele>
        <time>2025-04-25T06:20:52Z</time>
      </trkpt>
      <trkpt lat="45.408897986635566" lon="3.312593009322882">
        <ele>467.33999999999997</ele>
        <time>2025-04-25T06:20:56Z</time>
      </trkpt>
      <trkpt lat="45.408816011622548" lon="3.312742039561272">
        <ele>466.38</ele>
        <time>2025-04-25T06:20:57Z</time>
      </trkpt>
      <trkpt lat="45.408751973882318" lon="3.312858967110515">
        <ele>465.89999999999998</ele>
        <time>2025-04-25T06:20:58Z</time>
      </trkpt>
      <trkpt lat="45.408614007756114" lon="3.313068011775613">
        <ele>464.93000000000001</ele>
        <time>2025-04-25T06:21:00Z</time>
      </trkpt>
      <trkpt lat="45.408532032743096" lon="3.313145963475108">
        <ele>464.44999999999999</ele>
        <time>2025-04-25T06:21:01Z</time>
      </trkpt>
      <trkpt lat="45.408449973911047" lon="3.313225004822016">
        <ele>463.97000000000003</ele>
        <time>2025-04-25T06:21:02Z</time>
      </trkpt>
      <trkpt lat="45.408367998898029" lon="3.313303040340543">
        <ele>463.49000000000001</ele>
        <time>2025-04-25T06:21:03Z</time>
      </trkpt>
      <trkpt lat="45.408289963379502" lon="3.313376968726516">
        <ele>463.00999999999999</ele>
        <time>2025-04-25T06:21:04Z</time>
      </trkpt>
      <trkpt lat="45.408211005851626" lon="3.313452992588282">
        <ele>462.52999999999997</ele>
        <time>2025-04-25T06:21:05Z</time>
      </trkpt>
      <trkpt lat="45.408126013353467" lon="3.313519963994622">
        <ele>462.05000000000001</ele>
        <time>2025-04-25T06:21:06Z</time>
      </trkpt>
      <trkpt lat="45.408035991713405" lon="3.313576960936189">
        <ele>461.56999999999999</ele>
        <time>2025-04-25T06:21:07Z</time>
      </trkpt>
      <trkpt lat="45.407385975122452" lon="3.314180038869381">
        <ele>458.20999999999998</ele>
        <time>2025-04-25T06:21:15Z</time>
      </trkpt>
      <trkpt lat="45.407245997339487" lon="3.3143309969455">
        <ele>457.72000000000003</ele>
        <time>2025-04-25T06:21:17Z</time>
      </trkpt>
      <trkpt lat="45.407200986519456" lon="3.314390005543828">
        <ele>456.75999999999999</ele>
        <time>2025-04-25T06:21:18Z</time>
      </trkpt>
      <trkpt lat="45.407159999012947" lon="3.314443985000253">
        <ele>456.27999999999997</ele>
        <time>2025-04-25T06:21:19Z</time>
      </trkpt>
      <trkpt lat="45.407031001523137" lon="3.314395034685731">
        <ele>455.80000000000001</ele>
        <time>2025-04-25T06:21:20Z</time>
      </trkpt>
      <trkpt lat="45.407031001523137" lon="3.314395034685731">
        <ele>455.31999999999999</ele>
        <time>2025-04-25T06:21:21Z</time>
      </trkpt>
      <trkpt lat="45.406963024288416" lon="3.314380031079054">
        <ele>454.83999999999997</ele>
        <time>2025-04-25T06:21:22Z</time>
      </trkpt>
      <trkpt lat="45.406675022095442" lon="3.3143309969455">
        <ele>452.92000000000002</ele>
        <time>2025-04-25T06:21:26Z</time>
      </trkpt>
      <trkpt lat="45.405873963609338" lon="3.314301995560527">
        <ele>449.55000000000001</ele>
        <time>2025-04-25T06:21:37Z</time>
      </trkpt>
      <trkpt lat="45.405826019123197" lon="3.31426796503365">
        <ele>449.55000000000001</ele>
        <time>2025-04-25T06:21:38Z</time>
      </trkpt>
      <trkpt lat="45.405782014131546" lon="3.314237035810947">
        <ele>449.55000000000001</ele>
        <time>2025-04-25T06:21:39Z</time>
      </trkpt>
      <trkpt lat="45.405703978613019" lon="3.31415900029242">
        <ele>449.06999999999999</ele>
        <time>2025-04-25T06:21:41Z</time>
      </trkpt>
      <trkpt lat="45.405714036896825" lon="3.31409303471446">
        <ele>448.58999999999997</ele>
        <time>2025-04-25T06:21:42Z</time>
      </trkpt>
      <trkpt lat="45.40572602301836" lon="3.314011981710792">
        <ele>448.58999999999997</ele>
        <time>2025-04-25T06:21:43Z</time>
      </trkpt>
      <trkpt lat="45.405739014968276" lon="3.313919026404619">
        <ele>449.06999999999999</ele>
        <time>2025-04-25T06:21:44Z</time>
      </trkpt>
      <trkpt lat="45.405755024403334" lon="3.31381500698626">
        <ele>449.06999999999999</ele>
        <time>2025-04-25T06:21:45Z</time>
      </trkpt>
      <trkpt lat="45.405780002474785" lon="3.313479982316494">
        <ele>449.55000000000001</ele>
        <time>2025-04-25T06:21:48Z</time>
      </trkpt>
      <trkpt lat="45.40576801635325" lon="3.313264986500144">
        <ele>449.55000000000001</ele>
        <time>2025-04-25T06:21:50Z</time>
      </trkpt>
      <trkpt lat="45.405738009139895" lon="3.313160967081785">
        <ele>449.55000000000001</ele>
        <time>2025-04-25T06:21:51Z</time>
      </trkpt>
      <trkpt lat="45.405703978613019" lon="3.313091984018683">
        <ele>450.02999999999997</ele>
        <time>2025-04-25T06:21:52Z</time>
      </trkpt>
      <trkpt lat="45.405667014420033" lon="3.313074968755245">
        <ele>449.55000000000001</ele>
        <time>2025-04-25T06:21:53Z</time>
      </trkpt>
      <trkpt lat="45.405667014420033" lon="3.313074968755245">
        <ele>450.02999999999997</ele>
        <time>2025-04-25T06:21:54Z</time>
      </trkpt>
      <trkpt lat="45.405561989173293" lon="3.31304001621902">
        <ele>449.55000000000001</ele>
        <time>2025-04-25T06:22:01Z</time>
      </trkpt>
      <trkpt lat="45.405388986691833" lon="3.312986958771944">
        <ele>448.11000000000001</ele>
        <time>2025-04-25T06:22:06Z</time>
      </trkpt>
      <trkpt lat="45.405337018892169" lon="3.312973966822028">
        <ele>447.63</ele>
        <time>2025-04-25T06:22:07Z</time>
      </trkpt>
      <trkpt lat="45.405272981151938" lon="3.312958041206002">
        <ele>447.14999999999998</ele>
        <time>2025-04-25T06:22:08Z</time>
      </trkpt>
      <trkpt lat="45.405199974775314" lon="3.312940020114183">
        <ele>446.67000000000002</ele>
        <time>2025-04-25T06:22:09Z</time>
      </trkpt>
      <trkpt lat="45.405122023075819" lon="3.312919987365603">
        <ele>446.67000000000002</ele>
        <time>2025-04-25T06:22:10Z</time>
      </trkpt>
      <trkpt lat="45.405053040012717" lon="3.312873970717192">
        <ele>446.19</ele>
        <time>2025-04-25T06:22:11Z</time>
      </trkpt>
      <trkpt lat="45.404982967302203" lon="3.312814040109515">
        <ele>445.70999999999998</ele>
        <time>2025-04-25T06:22:12Z</time>
      </trkpt>
      <trkpt lat="45.404921025037766" lon="3.312728041782975">
        <ele>445.23000000000002</ele>
        <time>2025-04-25T06:22:13Z</time>
      </trkpt>
      <trkpt lat="45.40486603975296" lon="3.312617987394333">
        <ele>444.75</ele>
        <time>2025-04-25T06:22:14Z</time>
      </trkpt>
      <trkpt lat="45.404810970649123" lon="3.312509022653103">
        <ele>444.75</ele>
        <time>2025-04-25T06:22:15Z</time>
      </trkpt>
      <trkpt lat="45.404660012573004" lon="3.312136027961969">
        <ele>444.26999999999998</ele>
        <time>2025-04-25T06:22:18Z</time>
      </trkpt>
      <trkpt lat="45.404165983200073" lon="3.310584034770727">
        <ele>444.26999999999998</ele>
        <time>2025-04-25T06:22:29Z</time>
      </trkpt>
      <trkpt lat="45.403490988537669" lon="3.308859961107373">
        <ele>450.51999999999998</ele>
        <time>2025-04-25T06:22:40Z</time>
      </trkpt>
      <trkpt lat="45.403146995231509" lon="3.307722033932805">
        <ele>455.31999999999999</ele>
        <time>2025-04-25T06:22:48Z</time>
      </trkpt>
      <trkpt lat="45.403146995231509" lon="3.307679034769535">
        <ele>455.80000000000001</ele>
        <time>2025-04-25T06:22:49Z</time>
      </trkpt>
      <trkpt lat="45.403068959712982" lon="3.307607034221292">
        <ele>456.27999999999997</ele>
        <time>2025-04-25T06:22:50Z</time>
      </trkpt>
      <trkpt lat="45.403013974428177" lon="3.307595970109105">
        <ele>456.75999999999999</ele>
        <time>2025-04-25T06:22:51Z</time>
      </trkpt>
      <trkpt lat="45.40293300524354" lon="3.307679034769535">
        <ele>456.75999999999999</ele>
        <time>2025-04-25T06:22:52Z</time>
      </trkpt>
      <trkpt lat="45.40291297249496" lon="3.307809038087726">
        <ele>457.24000000000001</ele>
        <time>2025-04-25T06:22:53Z</time>
      </trkpt>
      <trkpt lat="45.402859998866916" lon="3.307870980352163">
        <ele>457.24000000000001</ele>
        <time>2025-04-25T06:22:54Z</time>
      </trkpt>
      <trkpt lat="45.40280400775373" lon="3.307936023920775">
        <ele>457.24000000000001</ele>
        <time>2025-04-25T06:22:55Z</time>
      </trkpt>
      <trkpt lat="45.402728989720345" lon="3.307936023920775">
        <ele>457.24000000000001</ele>
        <time>2025-04-25T06:22:56Z</time>
      </trkpt>
      <trkpt lat="45.402651960030198" lon="3.307936023920775">
        <ele>457.72000000000003</ele>
        <time>2025-04-25T06:22:57Z</time>
      </trkpt>
      <trkpt lat="45.402576019987464" lon="3.307936023920775">
        <ele>458.20999999999998</ele>
        <time>2025-04-25T06:22:58Z</time>
      </trkpt>
      <trkpt lat="45.402523968368769" lon="3.307980028912425">
        <ele>458.20999999999998</ele>
        <time>2025-04-25T06:22:59Z</time>
      </trkpt>
      <trkpt lat="45.402438975870609" lon="3.308065021410584">
        <ele>458.69</ele>
        <time>2025-04-25T06:23:00Z</time>
      </trkpt>
      <trkpt lat="45.402421038597822" lon="3.308117995038629">
        <ele>459.17000000000002</ele>
        <time>2025-04-25T06:23:01Z</time>
      </trkpt>
      <trkpt lat="45.402381978929043" lon="3.30822897143662">
        <ele>459.17000000000002</ele>
        <time>2025-04-25T06:23:02Z</time>
      </trkpt>
      <trkpt lat="45.402120966464281" lon="3.30898099578917">
        <ele>462.05000000000001</ele>
        <time>2025-04-25T06:23:09Z</time>
      </trkpt>
      <trkpt lat="45.402094982564449" lon="3.309054002165794">
        <ele>462.52999999999997</ele>
        <time>2025-04-25T06:23:10Z</time>
      </trkpt>
      <trkpt lat="45.402023987844586" lon="3.309032041579485">
        <ele>463.00999999999999</ele>
        <time>2025-04-25T06:23:11Z</time>
      </trkpt>
      <trkpt lat="45.401975959539413" lon="3.309019971638918">
        <ele>463.49000000000001</ele>
        <time>2025-04-25T06:23:12Z</time>
      </trkpt>
      <trkpt lat="45.401922985911369" lon="3.309004968032241">
        <ele>463.49000000000001</ele>
        <time>2025-04-25T06:23:13Z</time>
      </trkpt>
      <trkpt lat="45.40185903199017" lon="3.308986024931073">
        <ele>463.49000000000001</ele>
        <time>2025-04-25T06:23:14Z</time>
      </trkpt>
      <trkpt lat="45.401808992028236" lon="3.308912012726069">
        <ele>463.97000000000003</ele>
        <time>2025-04-25T06:23:15Z</time>
      </trkpt>
      <trkpt lat="45.401239022612572" lon="3.308246992528439">
        <ele>465.42000000000002</ele>
        <time>2025-04-25T06:23:23Z</time>
      </trkpt>
      <trkpt lat="45.40112997405231" lon="3.308128975331783">
        <ele>465.89999999999998</ele>
        <time>2025-04-25T06:23:24Z</time>
      </trkpt>
      <trkpt lat="45.401052022352815" lon="3.308093016967177">
        <ele>465.89999999999998</ele>
        <time>2025-04-25T06:23:25Z</time>
      </trkpt>
      <trkpt lat="45.400945991277695" lon="3.308043982833624">
        <ele>465.89999999999998</ele>
        <time>2025-04-25T06:23:26Z</time>
      </trkpt>
      <trkpt lat="45.400836020708084" lon="3.307996960356832">
        <ele>465.89999999999998</ele>
        <time>2025-04-25T06:23:27Z</time>
      </trkpt>
      <trkpt lat="45.400719009339809" lon="3.307967036962509">
        <ele>465.89999999999998</ele>
        <time>2025-04-25T06:23:28Z</time>
      </trkpt>
      <trkpt lat="45.400105034932494" lon="3.307753968983889">
        <ele>466.38</ele>
        <time>2025-04-25T06:23:33Z</time>
      </trkpt>
      <trkpt lat="45.400008978322148" lon="3.307665959000588">
        <ele>466.38</ele>
        <time>2025-04-25T06:23:34Z</time>
      </trkpt>
      <trkpt lat="45.399906970560551" lon="3.307570992037654">
        <ele>466.86000000000001</ele>
        <time>2025-04-25T06:23:35Z</time>
      </trkpt>
      <trkpt lat="45.398903992027044" lon="3.306284034624696">
        <ele>474.06999999999999</ele>
        <time>2025-04-25T06:23:46Z</time>
      </trkpt>
      <trkpt lat="45.398623030632734" lon="3.305923026055098">
        <ele>476.94999999999999</ele>
        <time>2025-04-25T06:23:49Z</time>
      </trkpt>
      <trkpt lat="45.398498978465796" lon="3.305852031335235">
        <ele>477.91000000000003</ele>
        <time>2025-04-25T06:23:50Z</time>
      </trkpt>
      <trkpt lat="45.398370986804366" lon="3.305781958624721">
        <ele>478.38999999999999</ele>
        <time>2025-04-25T06:23:51Z</time>
      </trkpt>
      <trkpt lat="45.397738991305232" lon="3.30547702498734">
        <ele>481.27999999999997</ele>
        <time>2025-04-25T06:23:56Z</time>
      </trkpt>
      <trkpt lat="45.397619968280196" lon="3.305493034422398">
        <ele>480.80000000000001</ele>
        <time>2025-04-25T06:23:57Z</time>
      </trkpt>
      <trkpt lat="45.397482002153993" lon="3.305511977523565">
        <ele>480.31999999999999</ele>
        <time>2025-04-25T06:23:58Z</time>
      </trkpt>
      <trkpt lat="45.396623024716973" lon="3.305840967223048">
        <ele>475.50999999999999</ele>
        <time>2025-04-25T06:24:04Z</time>
      </trkpt>
      <trkpt lat="45.396451028063893" lon="3.305839039385319">
        <ele>474.55000000000001</ele>
        <time>2025-04-25T06:24:05Z</time>
      </trkpt>
      <trkpt lat="45.396280037239194" lon="3.305812971666455">
        <ele>473.58999999999997</ele>
        <time>2025-04-25T06:24:06Z</time>
      </trkpt>
      <trkpt lat="45.394842959940434" lon="3.305596970021725">
        <ele>463.97000000000003</ele>
        <time>2025-04-25T06:24:15Z</time>
      </trkpt>
      <trkpt lat="45.394681021571159" lon="3.305632006376982">
        <ele>463.49000000000001</ele>
        <time>2025-04-25T06:24:16Z</time>
      </trkpt>
      <trkpt lat="45.394531991332769" lon="3.305664025247097">
        <ele>463.00999999999999</ele>
        <time>2025-04-25T06:24:17Z</time>
      </trkpt>
      <trkpt lat="45.392269967123866" lon="3.306256961077452">
        <ele>461.56999999999999</ele>
        <time>2025-04-25T06:24:31Z</time>
      </trkpt>
      <trkpt lat="45.391794964671135" lon="3.306322004646063">
        <ele>461.56999999999999</ele>
        <time>2025-04-25T06:24:34Z</time>
      </trkpt>
      <trkpt lat="45.39165498688817" lon="3.30629400908947">
        <ele>461.56999999999999</ele>
        <time>2025-04-25T06:24:35Z</time>
      </trkpt>
      <trkpt lat="45.391528001055121" lon="3.306218991056085">
        <ele>461.56999999999999</ele>
        <time>2025-04-25T06:24:36Z</time>
      </trkpt>
      <trkpt lat="45.389915993437171" lon="3.305267980322242">
        <ele>464.44999999999999</ele>
        <time>2025-04-25T06:24:47Z</time>
      </trkpt>
      <trkpt lat="45.388960959389806" lon="3.304701028391719">
        <ele>464.93000000000001</ele>
        <time>2025-04-25T06:24:55Z</time>
      </trkpt>
      <trkpt lat="45.388471959158778" lon="3.304280005395412">
        <ele>464.44999999999999</ele>
        <time>2025-04-25T06:25:03Z</time>
      </trkpt>
      <trkpt lat="45.388416973873973" lon="3.30423298291862">
        <ele>463.97000000000003</ele>
        <time>2025-04-25T06:25:05Z</time>
      </trkpt>
      <trkpt lat="45.388348996639252" lon="3.304215967655182">
        <ele>463.97000000000003</ele>
        <time>2025-04-25T06:25:06Z</time>
      </trkpt>
      <trkpt lat="45.387695962563157" lon="3.303898964077234">
        <ele>463.49000000000001</ele>
        <time>2025-04-25T06:25:13Z</time>
      </trkpt>
      <trkpt lat="45.386534985154867" lon="3.303053984418511">
        <ele>464.44999999999999</ele>
        <time>2025-04-25T06:25:24Z</time>
      </trkpt>
      <trkpt lat="45.384856006130576" lon="3.301818994805217">
        <ele>467.33999999999997</ele>
        <time>2025-04-25T06:25:40Z</time>
      </trkpt>
      <trkpt lat="45.383847998455167" lon="3.301555970683694">
        <ele>468.30000000000001</ele>
        <time>2025-04-25T06:25:48Z</time>
      </trkpt>
      <trkpt lat="45.382256023585796" lon="3.301528980955482">
        <ele>468.77999999999997</ele>
        <time>2025-04-25T06:25:58Z</time>
      </trkpt>
      <trkpt lat="45.381194958463311" lon="3.301017014309764">
        <ele>470.22000000000003</ele>
        <time>2025-04-25T06:26:05Z</time>
      </trkpt>
      <trkpt lat="45.378951039165258" lon="3.299468038603663">
        <ele>470.22000000000003</ele>
        <time>2025-04-25T06:26:20Z</time>
      </trkpt>
      <trkpt lat="45.377543969079852" lon="3.298240005970001">
        <ele>472.63</ele>
        <time>2025-04-25T06:26:30Z</time>
      </trkpt>
      <trkpt lat="45.376008991152048" lon="3.297780007123947">
        <ele>474.55000000000001</ele>
        <time>2025-04-25T06:26:39Z</time>
      </trkpt>
      <trkpt lat="45.374364964663982" lon="3.29774396494031">
        <ele>473.58999999999997</ele>
        <time>2025-04-25T06:26:49Z</time>
      </trkpt>
      <trkpt lat="45.372722027823329" lon="3.298583999276161">
        <ele>470.22000000000003</ele>
        <time>2025-04-25T06:26:59Z</time>
      </trkpt>
      <trkpt lat="45.372105035930872" lon="3.298974009230733">
        <ele>469.25999999999999</ele>
        <time>2025-04-25T06:27:03Z</time>
      </trkpt>
      <trkpt lat="45.371944019570947" lon="3.299042992293835">
        <ele>468.77999999999997</ele>
        <time>2025-04-25T06:27:04Z</time>
      </trkpt>
      <trkpt lat="45.370164038613439" lon="3.299507014453411">
        <ele>463.97000000000003</ele>
        <time>2025-04-25T06:27:15Z</time>
      </trkpt>
      <trkpt lat="45.36937203258276" lon="3.299686973914504">
        <ele>460.61000000000001</ele>
        <time>2025-04-25T06:27:22Z</time>
      </trkpt>
      <trkpt lat="45.369127029553056" lon="3.299675993621349">
        <ele>458.20999999999998</ele>
        <time>2025-04-25T06:27:27Z</time>
      </trkpt>
      <trkpt lat="45.369099033996463" lon="3.299736008048058">
        <ele>458.20999999999998</ele>
        <time>2025-04-25T06:27:28Z</time>
      </trkpt>
      <trkpt lat="45.369063997641206" lon="3.299813959747553">
        <ele>457.72000000000003</ele>
        <time>2025-04-25T06:27:29Z</time>
      </trkpt>
      <trkpt lat="45.369019992649555" lon="3.299908004701138">
        <ele>457.24000000000001</ele>
        <time>2025-04-25T06:27:30Z</time>
      </trkpt>
      <trkpt lat="45.368967019021511" lon="3.300014035776258">
        <ele>457.24000000000001</ele>
        <time>2025-04-25T06:27:31Z</time>
      </trkpt>
      <trkpt lat="45.368907004594803" lon="3.300133980810642">
        <ele>456.75999999999999</ele>
        <time>2025-04-25T06:27:32Z</time>
      </trkpt>
      <trkpt lat="45.368193034082651" lon="3.301584972068667">
        <ele>452.92000000000002</ele>
        <time>2025-04-25T06:27:41Z</time>
      </trkpt>
      <trkpt lat="45.367348976433277" lon="3.303384985774756">
        <ele>449.06999999999999</ele>
        <time>2025-04-25T06:27:54Z</time>
      </trkpt>
      <trkpt lat="45.366540960967541" lon="3.305023983120918">
        <ele>443.79000000000002</ele>
        <time>2025-04-25T06:28:06Z</time>
      </trkpt>
      <trkpt lat="45.365825984627008" lon="3.306518979370594">
        <ele>440.42000000000002</ele>
        <time>2025-04-25T06:28:17Z</time>
      </trkpt>
      <trkpt lat="45.364953009411693" lon="3.308280017226934">
        <ele>435.61000000000001</ele>
        <time>2025-04-25T06:28:30Z</time>
      </trkpt>
      <trkpt lat="45.364444982260466" lon="3.309377040714026">
        <ele>433.20999999999998</ele>
        <time>2025-04-25T06:28:39Z</time>
      </trkpt>
      <trkpt lat="45.364374993368983" lon="3.309400007128716">
        <ele>432.73000000000002</ele>
        <time>2025-04-25T06:28:41Z</time>
      </trkpt>
      <trkpt lat="45.364341968670487" lon="3.309369999915361">
        <ele>431.76999999999998</ele>
        <time>2025-04-25T06:28:42Z</time>
      </trkpt>
      <trkpt lat="45.36430299282074" lon="3.309334041550756">
        <ele>431.29000000000002</ele>
        <time>2025-04-25T06:28:43Z</time>
      </trkpt>
      <trkpt lat="45.364253958687186" lon="3.309289030730724">
        <ele>430.81</ele>
        <time>2025-04-25T06:28:44Z</time>
      </trkpt>
      <trkpt lat="45.36419503390789" lon="3.309234967455268">
        <ele>430.32999999999998</ele>
        <time>2025-04-25T06:28:45Z</time>
      </trkpt>
      <trkpt lat="45.364128984510899" lon="3.309176964685321">
        <ele>429.85000000000002</ele>
        <time>2025-04-25T06:28:46Z</time>
      </trkpt>
      <trkpt lat="45.3640650305897" lon="3.309123991057277">
        <ele>429.85000000000002</ele>
        <time>2025-04-25T06:28:47Z</time>
      </trkpt>
      <trkpt lat="45.363999987021089" lon="3.309070011600852">
        <ele>429.85000000000002</ele>
        <time>2025-04-25T06:28:48Z</time>
      </trkpt>
      <trkpt lat="45.363929998129606" lon="3.309011003002524">
        <ele>429.37</ele>
        <time>2025-04-25T06:28:49Z</time>
      </trkpt>
      <trkpt lat="45.363359022885561" lon="3.308501970022917">
        <ele>427.92000000000002</ele>
        <time>2025-04-25T06:28:58Z</time>
      </trkpt>
      <trkpt lat="45.363278975710273" lon="3.308429969474673">
        <ele>427.92000000000002</ele>
        <time>2025-04-25T06:28:59Z</time>
      </trkpt>
      <trkpt lat="45.36322901956737" lon="3.308370960876346">
        <ele>427.92000000000002</ele>
        <time>2025-04-25T06:29:00Z</time>
      </trkpt>
      <trkpt lat="45.363001031801105" lon="3.308085976168513">
        <ele>427.44</ele>
        <time>2025-04-25T06:29:04Z</time>
      </trkpt>
      <trkpt lat="45.362960966303945" lon="3.307996038347483">
        <ele>427.44</ele>
        <time>2025-04-25T06:29:05Z</time>
      </trkpt>
      <trkpt lat="45.362914027646184" lon="3.307893024757505">
        <ele>427.92000000000002</ele>
        <time>2025-04-25T06:29:06Z</time>
      </trkpt>
      <trkpt lat="45.362813025712967" lon="3.307521035894752">
        <ele>429.37</ele>
        <time>2025-04-25T06:29:10Z</time>
      </trkpt>
      <trkpt lat="45.362786035984755" lon="3.307422967627645">
        <ele>429.85000000000002</ele>
        <time>2025-04-25T06:29:11Z</time>
      </trkpt>
      <trkpt lat="45.36273499019444" lon="3.307333029806614">
        <ele>430.32999999999998</ele>
        <time>2025-04-25T06:29:12Z</time>
      </trkpt>
      <trkpt lat="45.362686961889267" lon="3.307248959317803">
        <ele>430.81</ele>
        <time>2025-04-25T06:29:13Z</time>
      </trkpt>
      <trkpt lat="45.362639017403126" lon="3.307163966819644">
        <ele>430.81</ele>
        <time>2025-04-25T06:29:14Z</time>
      </trkpt>
      <trkpt lat="45.36258595995605" lon="3.30709096044302">
        <ele>431.29000000000002</ele>
        <time>2025-04-25T06:29:15Z</time>
      </trkpt>
      <trkpt lat="45.362394014373422" lon="3.306880993768573">
        <ele>431.76999999999998</ele>
        <time>2025-04-25T06:29:18Z</time>
      </trkpt>
      <trkpt lat="45.362335005775094" lon="3.306819973513484">
        <ele>432.25</ele>
        <time>2025-04-25T06:29:19Z</time>
      </trkpt>
      <trkpt lat="45.362053960561752" lon="3.306483021005988">
        <ele>433.69</ele>
        <time>2025-04-25T06:29:23Z</time>
      </trkpt>
      <trkpt lat="45.36193803884089" lon="3.306276993826032">
        <ele>434.17000000000002</ele>
        <time>2025-04-25T06:29:25Z</time>
      </trkpt>
      <trkpt lat="45.361455995589495" lon="3.30491996370256">
        <ele>436.57999999999998</ele>
        <time>2025-04-25T06:29:34Z</time>
      </trkpt>
      <trkpt lat="45.360866999253631" lon="3.303047027438879">
        <ele>438.98000000000002</ele>
        <time>2025-04-25T06:29:43Z</time>
      </trkpt>
      <trkpt lat="45.360484030097723" lon="3.301971964538097">
        <ele>440.42000000000002</ele>
        <time>2025-04-25T06:29:48Z</time>
      </trkpt>
      <trkpt lat="45.360389985144138" lon="3.301823018118739">
        <ele>440.89999999999998</ele>
        <time>2025-04-25T06:29:49Z</time>
      </trkpt>
      <trkpt lat="45.36028596572578" lon="3.301708018407226">
        <ele>441.38</ele>
        <time>2025-04-25T06:29:50Z</time>
      </trkpt>
      <trkpt lat="45.360172977671027" lon="3.301603998988867">
        <ele>441.86000000000001</ele>
        <time>2025-04-25T06:29:51Z</time>
      </trkpt>
      <trkpt lat="45.360054960474372" lon="3.301495034247637">
        <ele>442.33999999999997</ele>
        <time>2025-04-25T06:29:52Z</time>
      </trkpt>
      <trkpt lat="45.359096992760897" lon="3.300696993246675">
        <ele>444.75</ele>
        <time>2025-04-25T06:29:59Z</time>
      </trkpt>
      <trkpt lat="45.358966989442706" lon="3.300526002421975">
        <ele>444.75</ele>
        <time>2025-04-25T06:30:00Z</time>
      </trkpt>
      <trkpt lat="45.358860958367586" lon="3.300315029919148">
        <ele>445.23000000000002</ele>
        <time>2025-04-25T06:30:01Z</time>
      </trkpt>
      <trkpt lat="45.358771020546556" lon="3.300091987475753">
        <ele>445.70999999999998</ele>
        <time>2025-04-25T06:30:02Z</time>
      </trkpt>
      <trkpt lat="45.358682004734874" lon="3.29986902885139">
        <ele>446.19</ele>
        <time>2025-04-25T06:30:03Z</time>
      </trkpt>
      <trkpt lat="45.357591016218066" lon="3.297114986926317">
        <ele>458.69</ele>
        <time>2025-04-25T06:30:16Z</time>
      </trkpt>
      <trkpt lat="45.356966983526945" lon="3.295623008161783">
        <ele>463.97000000000003</ele>
        <time>2025-04-25T06:30:23Z</time>
      </trkpt>
      <trkpt lat="45.356856007128954" lon="3.295410024002194">
        <ele>464.44999999999999</ele>
        <time>2025-04-25T06:30:24Z</time>
      </trkpt>
      <trkpt lat="45.356727009639144" lon="3.295226963236928">
        <ele>465.42000000000002</ele>
        <time>2025-04-25T06:30:25Z</time>
      </trkpt>
      <trkpt lat="45.35656901076436" lon="3.295071981847286">
        <ele>466.38</ele>
        <time>2025-04-25T06:30:26Z</time>
      </trkpt>
      <trkpt lat="45.356406988576055" lon="3.294912977144122">
        <ele>466.86000000000001</ele>
        <time>2025-04-25T06:30:27Z</time>
      </trkpt>
      <trkpt lat="45.355259003117681" lon="3.293844033032656">
        <ele>473.11000000000001</ele>
        <time>2025-04-25T06:30:34Z</time>
      </trkpt>
      <trkpt lat="45.355088012292981" lon="3.293732972815633">
        <ele>474.06999999999999</ele>
        <time>2025-04-25T06:30:35Z</time>
      </trkpt>
      <trkpt lat="45.354920038953424" lon="3.293623002246022">
        <ele>474.55000000000001</ele>
        <time>2025-04-25T06:30:36Z</time>
      </trkpt>
      <trkpt lat="45.354272034019232" lon="3.293269034475088">
        <ele>477.91000000000003</ele>
        <time>2025-04-25T06:30:40Z</time>
      </trkpt>
      <trkpt lat="45.353661999106407" lon="3.292841976508498">
        <ele>481.27999999999997</ele>
        <time>2025-04-25T06:30:44Z</time>
      </trkpt>
      <trkpt lat="45.353506011888385" lon="3.29277902841568">
        <ele>482.24000000000001</ele>
        <time>2025-04-25T06:30:45Z</time>
      </trkpt>
      <trkpt lat="45.353176016360521" lon="3.292655982077122">
        <ele>484.63999999999999</ele>
        <time>2025-04-25T06:30:48Z</time>
      </trkpt>
      <trkpt lat="45.353111978620291" lon="3.292633015662432">
        <ele>485.60000000000002</ele>
        <time>2025-04-25T06:30:49Z</time>
      </trkpt>
      <trkpt lat="45.35304400138557" lon="3.292669979855418">
        <ele>486.07999999999998</ele>
        <time>2025-04-25T06:30:50Z</time>
      </trkpt>
      <trkpt lat="45.353015000000596" lon="3.292742986232042">
        <ele>486.56</ele>
        <time>2025-04-25T06:30:51Z</time>
      </trkpt>
      <trkpt lat="45.35298096947372" lon="3.292832002043724">
        <ele>487.05000000000001</ele>
        <time>2025-04-25T06:30:52Z</time>
      </trkpt>
      <trkpt lat="45.352936964482069" lon="3.292943984270096">
        <ele>487.52999999999997</ele>
        <time>2025-04-25T06:30:53Z</time>
      </trkpt>
      <trkpt lat="45.352886002510786" lon="3.293073987588286">
        <ele>487.52999999999997</ele>
        <time>2025-04-25T06:30:54Z</time>
      </trkpt>
      <trkpt lat="45.352362971752882" lon="3.294405033811927">
        <ele>489.93000000000001</ele>
        <time>2025-04-25T06:31:02Z</time>
      </trkpt>
      <trkpt lat="45.352017972618341" lon="3.29499302431941">
        <ele>490.88999999999999</ele>
        <time>2025-04-25T06:31:06Z</time>
      </trkpt>
      <trkpt lat="45.351903978735209" lon="3.295077010989189">
        <ele>490.88999999999999</ele>
        <time>2025-04-25T06:31:07Z</time>
      </trkpt>
      <trkpt lat="45.351789984852076" lon="3.295138031244278">
        <ele>490.41000000000003</ele>
        <time>2025-04-25T06:31:08Z</time>
      </trkpt>
      <trkpt lat="45.351667022332549" lon="3.29516502097249">
        <ele>489.93000000000001</ele>
        <time>2025-04-25T06:31:09Z</time>
      </trkpt>
      <trkpt lat="45.351523021236062" lon="3.295155968517065">
        <ele>489.44999999999999</ele>
        <time>2025-04-25T06:31:10Z</time>
      </trkpt>
      <trkpt lat="45.351364016532898" lon="3.295151023194194">
        <ele>488.49000000000001</ele>
        <time>2025-04-25T06:31:11Z</time>
      </trkpt>
      <trkpt lat="45.351196965202689" lon="3.295170972123742">
        <ele>487.52999999999997</ele>
        <time>2025-04-25T06:31:12Z</time>
      </trkpt>
      <trkpt lat="45.349918976426125" lon="3.295545978471637">
        <ele>481.75999999999999</ele>
        <time>2025-04-25T06:31:20Z</time>
      </trkpt>
      <trkpt lat="45.349772041663527" lon="3.295633988454938">
        <ele>479.83999999999997</ele>
        <time>2025-04-25T06:31:25Z</time>
      </trkpt>
      <trkpt lat="45.349772041663527" lon="3.295633988454938">
        <ele>479.35000000000002</ele>
        <time>2025-04-25T06:31:43Z</time>
      </trkpt>
      <trkpt lat="45.34971403889358" lon="3.295669024810195">
        <ele>478.87</ele>
        <time>2025-04-25T06:32:39Z</time>
      </trkpt>
      <trkpt lat="45.349225038662553" lon="3.295844038948417">
        <ele>476.94999999999999</ele>
        <time>2025-04-25T06:32:45Z</time>
      </trkpt>
      <trkpt lat="45.348774008452892" lon="3.295950992032886">
        <ele>475.99000000000001</ele>
        <time>2025-04-25T06:32:49Z</time>
      </trkpt>
      <trkpt lat="45.348652973771095" lon="3.295933976769447">
        <ele>475.50999999999999</ele>
        <time>2025-04-25T06:32:50Z</time>
      </trkpt>
      <trkpt lat="45.348520958796144" lon="3.29591603949666">
        <ele>475.50999999999999</ele>
        <time>2025-04-25T06:32:51Z</time>
      </trkpt>
      <trkpt lat="45.347907990217209" lon="3.295835992321372">
        <ele>475.02999999999997</ele>
        <time>2025-04-25T06:32:55Z</time>
      </trkpt>
      <trkpt lat="45.34638399258256" lon="3.295863987877965">
        <ele>475.02999999999997</ele>
        <time>2025-04-25T06:33:04Z</time>
      </trkpt>
      <trkpt lat="45.34610596485436" lon="3.295907992869616">
        <ele>474.06999999999999</ele>
        <time>2025-04-25T06:33:06Z</time>
      </trkpt>
      <trkpt lat="45.345969004556537" lon="3.295964989811182">
        <ele>473.11000000000001</ele>
        <time>2025-04-25T06:33:07Z</time>
      </trkpt>
      <trkpt lat="45.345242964103818" lon="3.296407973393798">
        <ele>475.50999999999999</ele>
        <time>2025-04-25T06:33:12Z</time>
      </trkpt>
      <trkpt lat="45.344307040795684" lon="3.296683989465237">
        <ele>483.68000000000001</ele>
        <time>2025-04-25T06:33:19Z</time>
      </trkpt>
      <trkpt lat="45.343660963699222" lon="3.296836959198117">
        <ele>489.44999999999999</ele>
        <time>2025-04-25T06:33:25Z</time>
      </trkpt>
      <trkpt lat="45.34354998730123" lon="3.296803012490273">
        <ele>490.41000000000003</ele>
        <time>2025-04-25T06:33:26Z</time>
      </trkpt>
      <trkpt lat="45.343470023944974" lon="3.296702010557056">
        <ele>491.85000000000002</ele>
        <time>2025-04-25T06:33:27Z</time>
      </trkpt>
      <trkpt lat="45.343392994254827" lon="3.296589022502303">
        <ele>493.29000000000002</ele>
        <time>2025-04-25T06:33:28Z</time>
      </trkpt>
      <trkpt lat="45.343301966786385" lon="3.296456001698971">
        <ele>494.74000000000001</ele>
        <time>2025-04-25T06:33:29Z</time>
      </trkpt>
      <trkpt lat="45.343245975673199" lon="3.29634502530098">
        <ele>496.18000000000001</ele>
        <time>2025-04-25T06:33:30Z</time>
      </trkpt>
      <trkpt lat="45.342777008190751" lon="3.295406000688672">
        <ele>510.12</ele>
        <time>2025-04-25T06:33:38Z</time>
      </trkpt>
      <trkpt lat="45.342735014855862" lon="3.295323019847274">
        <ele>511.56</ele>
        <time>2025-04-25T06:33:39Z</time>
      </trkpt>
      <trkpt lat="45.342643987387419" lon="3.295252025127411">
        <ele>513</ele>
        <time>2025-04-25T06:33:40Z</time>
      </trkpt>
      <trkpt lat="45.342562012374401" lon="3.295246995985508">
        <ele>514.44000000000005</ele>
        <time>2025-04-25T06:33:41Z</time>
      </trkpt>
      <trkpt lat="45.342471990734339" lon="3.295241966843605">
        <ele>515.39999999999998</ele>
        <time>2025-04-25T06:33:42Z</time>
      </trkpt>
      <trkpt lat="45.342380041256547" lon="3.295237021520734">
        <ele>516.37</ele>
        <time>2025-04-25T06:33:43Z</time>
      </trkpt>
      <trkpt lat="45.341355018317699" lon="3.29518798738718">
        <ele>524.53999999999996</ele>
        <time>2025-04-25T06:33:53Z</time>
      </trkpt>
      <trkpt lat="45.340318009257317" lon="3.295110035687685">
        <ele>528.86000000000001</ele>
        <time>2025-04-25T06:34:01Z</time>
      </trkpt>
      <trkpt lat="45.338741037994623" lon="3.295500967651606">
        <ele>531.75</ele>
        <time>2025-04-25T06:34:11Z</time>
      </trkpt>
      <trkpt lat="45.338175008073449" lon="3.295724010095">
        <ele>528.86000000000001</ele>
        <time>2025-04-25T06:34:15Z</time>
      </trkpt>
      <trkpt lat="45.338036036118865" lon="3.295743959024549">
        <ele>528.38</ele>
        <time>2025-04-25T06:34:16Z</time>
      </trkpt>
      <trkpt lat="45.337910978123546" lon="3.295725015923381">
        <ele>527.41999999999996</ele>
        <time>2025-04-25T06:34:17Z</time>
      </trkpt>
      <trkpt lat="45.337804025039077" lon="3.295708000659943">
        <ele>526.94000000000005</ele>
        <time>2025-04-25T06:34:18Z</time>
      </trkpt>
      <trkpt lat="45.337717020884156" lon="3.29565997235477">
        <ele>526.46000000000004</ele>
        <time>2025-04-25T06:34:19Z</time>
      </trkpt>
      <trkpt lat="45.337650971487164" lon="3.29561797901988">
        <ele>525.98000000000002</ele>
        <time>2025-04-25T06:34:20Z</time>
      </trkpt>
      <trkpt lat="45.337558016180992" lon="3.295557964593172">
        <ele>525.01999999999998</ele>
        <time>2025-04-25T06:34:22Z</time>
      </trkpt>
      <trkpt lat="45.337487021461129" lon="3.295512031763792">
        <ele>524.53999999999996</ele>
        <time>2025-04-25T06:34:24Z</time>
      </trkpt>
      <trkpt lat="45.337476041167974" lon="3.295430978760123">
        <ele>524.05999999999995</ele>
        <time>2025-04-25T06:34:25Z</time>
      </trkpt>
      <trkpt lat="45.337464977055788" lon="3.295350009575486">
        <ele>523.58000000000004</ele>
        <time>2025-04-25T06:34:26Z</time>
      </trkpt>
      <trkpt lat="45.337336985394359" lon="3.295232998207212">
        <ele>523.09000000000003</ele>
        <time>2025-04-25T06:34:27Z</time>
      </trkpt>
      <trkpt lat="45.337279988452792" lon="3.295210031792522">
        <ele>523.09000000000003</ele>
        <time>2025-04-25T06:34:28Z</time>
      </trkpt>
      <trkpt lat="45.337182004004717" lon="3.295169966295362">
        <ele>523.09000000000003</ele>
        <time>2025-04-25T06:34:29Z</time>
      </trkpt>
      <trkpt lat="45.337073039263487" lon="3.295125039294362">
        <ele>523.09000000000003</ele>
        <time>2025-04-25T06:34:30Z</time>
      </trkpt>
      <trkpt lat="45.335938967764378" lon="3.294661017134786">
        <ele>523.09000000000003</ele>
        <time>2025-04-25T06:34:38Z</time>
      </trkpt>
      <trkpt lat="45.335509981960058" lon="3.294449038803577">
        <ele>523.58000000000004</ele>
        <time>2025-04-25T06:34:41Z</time>
      </trkpt>
      <trkpt lat="45.335397999733686" lon="3.294315012171865">
        <ele>524.05999999999995</ele>
        <time>2025-04-25T06:34:42Z</time>
      </trkpt>
      <trkpt lat="45.335292974486947" lon="3.294159024953842">
        <ele>525.01999999999998</ele>
        <time>2025-04-25T06:34:43Z</time>
      </trkpt>
      <trkpt lat="45.335199013352394" lon="3.293988034129143">
        <ele>525.5</ele>
        <time>2025-04-25T06:34:44Z</time>
      </trkpt>
      <trkpt lat="45.335101028904319" lon="3.29381100833416">
        <ele>525.98000000000002</ele>
        <time>2025-04-25T06:34:45Z</time>
      </trkpt>
      <trkpt lat="45.334819983690977" lon="3.293300969526172">
        <ele>527.41999999999996</ele>
        <time>2025-04-25T06:34:48Z</time>
      </trkpt>
      <trkpt lat="45.334714958444238" lon="3.293149005621672">
        <ele>527.89999999999998</ele>
        <time>2025-04-25T06:34:49Z</time>
      </trkpt>
      <trkpt lat="45.334611022844911" lon="3.293044986203313">
        <ele>528.38</ele>
        <time>2025-04-25T06:34:50Z</time>
      </trkpt>
      <trkpt lat="45.334464004263282" lon="3.292945995926857">
        <ele>528.38</ele>
        <time>2025-04-25T06:34:51Z</time>
      </trkpt>
      <trkpt lat="45.334326960146427" lon="3.292854968458414">
        <ele>528.38</ele>
        <time>2025-04-25T06:34:52Z</time>
      </trkpt>
      <trkpt lat="45.334181031212211" lon="3.292757989838719">
        <ele>528.86000000000001</ele>
        <time>2025-04-25T06:34:53Z</time>
      </trkpt>
      <trkpt lat="45.333251981064677" lon="3.292452972382307">
        <ele>530.78999999999996</ele>
        <time>2025-04-25T06:34:59Z</time>
      </trkpt>
      <trkpt lat="45.333112003281713" lon="3.292359011247754">
        <ele>531.26999999999998</ele>
        <time>2025-04-25T06:35:00Z</time>
      </trkpt>
      <trkpt lat="45.332975964993238" lon="3.292268989607692">
        <ele>531.26999999999998</ele>
        <time>2025-04-25T06:35:01Z</time>
      </trkpt>
      <trkpt lat="45.33284998498857" lon="3.292185002937913">
        <ele>531.75</ele>
        <time>2025-04-25T06:35:02Z</time>
      </trkpt>
      <trkpt lat="45.332714030519128" lon="3.292128005996347">
        <ele>531.75</ele>
        <time>2025-04-25T06:35:03Z</time>
      </trkpt>
      <trkpt lat="45.332563994452357" lon="3.292095987126231">
        <ele>531.75</ele>
        <time>2025-04-25T06:35:04Z</time>
      </trkpt>
      <trkpt lat="45.332413036376238" lon="3.292064974084497">
        <ele>531.75</ele>
        <time>2025-04-25T06:35:05Z</time>
      </trkpt>
      <trkpt lat="45.332125034183264" lon="3.292064974084497">
        <ele>531.75</ele>
        <time>2025-04-25T06:35:07Z</time>
      </trkpt>
      <trkpt lat="45.331994025036693" lon="3.292091963812709">
        <ele>531.26999999999998</ele>
        <time>2025-04-25T06:35:08Z</time>
      </trkpt>
      <trkpt lat="45.331876007840037" lon="3.292171005159617">
        <ele>531.75</ele>
        <time>2025-04-25T06:35:09Z</time>
      </trkpt>
      <trkpt lat="45.331755978986621" lon="3.292281981557608">
        <ele>532.23000000000002</ele>
        <time>2025-04-25T06:35:10Z</time>
      </trkpt>
      <trkpt lat="45.331628993153572" lon="3.292401004582644">
        <ele>532.71000000000004</ele>
        <time>2025-04-25T06:35:11Z</time>
      </trkpt>
      <trkpt lat="45.331503013148904" lon="3.292526984587312">
        <ele>533.66999999999996</ele>
        <time>2025-04-25T06:35:12Z</time>
      </trkpt>
      <trkpt lat="45.3312580101192" lon="3.292771987617016">
        <ele>535.11000000000001</ele>
        <time>2025-04-25T06:35:14Z</time>
      </trkpt>
      <trkpt lat="45.331140998750925" lon="3.292876007035375">
        <ele>535.59000000000003</ele>
        <time>2025-04-25T06:35:15Z</time>
      </trkpt>
      <trkpt lat="45.331002026796341" lon="3.29290802590549">
        <ele>536.54999999999995</ele>
        <time>2025-04-25T06:35:16Z</time>
      </trkpt>
      <trkpt lat="45.330854002386332" lon="3.292940966784954">
        <ele>537.02999999999997</ele>
        <time>2025-04-25T06:35:17Z</time>
      </trkpt>
      <trkpt lat="45.330698015168309" lon="3.292976003140211">
        <ele>537.50999999999999</ele>
        <time>2025-04-25T06:35:18Z</time>
      </trkpt>
      <trkpt lat="45.330219995230436" lon="3.293083040043712">
        <ele>540.39999999999998</ele>
        <time>2025-04-25T06:35:21Z</time>
      </trkpt>
      <trkpt lat="45.33005696721375" lon="3.293142970651388">
        <ele>541.84000000000003</ele>
        <time>2025-04-25T06:35:22Z</time>
      </trkpt>
      <trkpt lat="45.329909026622772" lon="3.293245984241366">
        <ele>543.27999999999997</ele>
        <time>2025-04-25T06:35:23Z</time>
      </trkpt>
      <trkpt lat="45.329622030258179" lon="3.293444970622659">
        <ele>546.64999999999998</ele>
        <time>2025-04-25T06:35:25Z</time>
      </trkpt>
      <trkpt lat="45.329470988363028" lon="3.293500961735845">
        <ele>549.04999999999995</ele>
        <time>2025-04-25T06:35:26Z</time>
      </trkpt>
      <trkpt lat="45.329159013926983" lon="3.293606992810965">
        <ele>553.86000000000001</ele>
        <time>2025-04-25T06:35:28Z</time>
      </trkpt>
      <trkpt lat="45.329011995345354" lon="3.293658038601279">
        <ele>555.77999999999997</ele>
        <time>2025-04-25T06:35:29Z</time>
      </trkpt>
      <trkpt lat="45.328880986198783" lon="3.293702965602279">
        <ele>558.17999999999995</ele>
        <time>2025-04-25T06:35:30Z</time>
      </trkpt>
      <trkpt lat="45.328752994537354" lon="3.293699026107788">
        <ele>560.11000000000001</ele>
        <time>2025-04-25T06:35:31Z</time>
      </trkpt>
      <trkpt lat="45.328646041452885" lon="3.293687961995602">
        <ele>561.54999999999995</ele>
        <time>2025-04-25T06:35:32Z</time>
      </trkpt>
      <trkpt lat="45.328527018427849" lon="3.293624008074403">
        <ele>563.47000000000003</ele>
        <time>2025-04-25T06:35:33Z</time>
      </trkpt>
      <trkpt lat="45.328431967645884" lon="3.293572962284088">
        <ele>564.90999999999997</ele>
        <time>2025-04-25T06:35:34Z</time>
      </trkpt>
      <trkpt lat="45.328352004289627" lon="3.293502973392606">
        <ele>566.35000000000002</ele>
        <time>2025-04-25T06:35:35Z</time>
      </trkpt>
      <trkpt lat="45.328297019004822" lon="3.293379005044699">
        <ele>568.27999999999997</ele>
        <time>2025-04-25T06:35:36Z</time>
      </trkpt>
      <trkpt lat="45.328285032883286" lon="3.293213965371251">
        <ele>569.72000000000003</ele>
        <time>2025-04-25T06:35:37Z</time>
      </trkpt>
      <trkpt lat="45.328290984034538" lon="3.2930370233953">
        <ele>572.12</ele>
        <time>2025-04-25T06:35:38Z</time>
      </trkpt>
      <trkpt lat="45.328297019004822" lon="3.292845999822021">
        <ele>573.55999999999995</ele>
        <time>2025-04-25T06:35:39Z</time>
      </trkpt>
      <trkpt lat="45.328301964327693" lon="3.292649025097489">
        <ele>574.52999999999997</ele>
        <time>2025-04-25T06:35:40Z</time>
      </trkpt>
      <trkpt lat="45.328276986256242" lon="3.292463030666113">
        <ele>576.45000000000005</ele>
        <time>2025-04-25T06:35:41Z</time>
      </trkpt>
      <trkpt lat="45.328252008184791" lon="3.292295979335904">
        <ele>577.88999999999999</ele>
        <time>2025-04-25T06:35:42Z</time>
      </trkpt>
      <trkpt lat="45.328198028728366" lon="3.292135968804359">
        <ele>578.85000000000002</ele>
        <time>2025-04-25T06:35:43Z</time>
      </trkpt>
      <trkpt lat="45.328119993209839" lon="3.292000014334917">
        <ele>579.80999999999995</ele>
        <time>2025-04-25T06:35:44Z</time>
      </trkpt>
      <trkpt lat="45.328040029853582" lon="3.291860036551952">
        <ele>580.76999999999998</ele>
        <time>2025-04-25T06:35:45Z</time>
      </trkpt>
      <trkpt lat="45.327954031527042" lon="3.291723998263478">
        <ele>581.73000000000002</ele>
        <time>2025-04-25T06:35:46Z</time>
      </trkpt>
      <trkpt lat="45.327858980745077" lon="3.291607992723584">
        <ele>582.70000000000005</ele>
        <time>2025-04-25T06:35:47Z</time>
      </trkpt>
      <trkpt lat="45.327299991622567" lon="3.29095202498138">
        <ele>587.5</ele>
        <time>2025-04-25T06:35:54Z</time>
      </trkpt>
      <trkpt lat="45.327199995517731" lon="3.290924029424787">
        <ele>587.98000000000002</ele>
        <time>2025-04-25T06:35:55Z</time>
      </trkpt>
      <trkpt lat="45.327097987756133" lon="3.290928974747658">
        <ele>588.95000000000005</ele>
        <time>2025-04-25T06:35:56Z</time>
      </trkpt>
      <trkpt lat="45.326987011358142" lon="3.290934003889561">
        <ele>589.90999999999997</ele>
        <time>2025-04-25T06:35:57Z</time>
      </trkpt>
      <trkpt lat="45.326871005818248" lon="3.290939033031464">
        <ele>590.87</ele>
        <time>2025-04-25T06:35:58Z</time>
      </trkpt>
      <trkpt lat="45.326345041394234" lon="3.290987983345985">
        <ele>594.71000000000004</ele>
        <time>2025-04-25T06:36:02Z</time>
      </trkpt>
      <trkpt lat="45.326218977570534" lon="3.291071970015764">
        <ele>596.14999999999998</ele>
        <time>2025-04-25T06:36:03Z</time>
      </trkpt>
      <trkpt lat="45.326088974252343" lon="3.291157968342304">
        <ele>597.12</ele>
        <time>2025-04-25T06:36:04Z</time>
      </trkpt>
      <trkpt lat="45.325118014588952" lon="3.291956009343267">
        <ele>609.13</ele>
        <time>2025-04-25T06:36:12Z</time>
      </trkpt>
      <trkpt lat="45.3250050265342" lon="3.291995991021395">
        <ele>610.57000000000005</ele>
        <time>2025-04-25T06:36:13Z</time>
      </trkpt>
      <trkpt lat="45.324906958267093" lon="3.291990039870143">
        <ele>612.01999999999998</ele>
        <time>2025-04-25T06:36:14Z</time>
      </trkpt>
      <trkpt lat="45.324806040152907" lon="3.291930025443435">
        <ele>613.46000000000004</ele>
        <time>2025-04-25T06:36:15Z</time>
      </trkpt>
      <trkpt lat="45.324702020734549" lon="3.291825000196695">
        <ele>614.89999999999998</ele>
        <time>2025-04-25T06:36:16Z</time>
      </trkpt>
      <trkpt lat="45.32459800131619" lon="3.29170698300004">
        <ele>616.82000000000005</ele>
        <time>2025-04-25T06:36:17Z</time>
      </trkpt>
      <trkpt lat="45.324493981897831" lon="3.291558958590031">
        <ele>618.25999999999999</ele>
        <time>2025-04-25T06:36:18Z</time>
      </trkpt>
      <trkpt lat="45.32361002638936" lon="3.290019035339356">
        <ele>631.24000000000001</ele>
        <time>2025-04-25T06:36:27Z</time>
      </trkpt>
      <trkpt lat="45.323334010317922" lon="3.289512014016509">
        <ele>634.61000000000001</ele>
        <time>2025-04-25T06:36:30Z</time>
      </trkpt>
      <trkpt lat="45.323230996727943" lon="3.289362983778119">
        <ele>635.09000000000003</ele>
        <time>2025-04-25T06:36:31Z</time>
      </trkpt>
      <trkpt lat="45.323108034208417" lon="3.289251001551747">
        <ele>635.57000000000005</ele>
        <time>2025-04-25T06:36:32Z</time>
      </trkpt>
      <trkpt lat="45.322965960949659" lon="3.289155028760433">
        <ele>636.04999999999995</ele>
        <time>2025-04-25T06:36:33Z</time>
      </trkpt>
      <trkpt lat="45.32281500287354" lon="3.289052015170455">
        <ele>636.52999999999997</ele>
        <time>2025-04-25T06:36:34Z</time>
      </trkpt>
      <trkpt lat="45.322660021483898" lon="3.288945984095335">
        <ele>637.00999999999999</ele>
        <time>2025-04-25T06:36:35Z</time>
      </trkpt>
      <trkpt lat="45.321728959679604" lon="3.288511969149113">
        <ele>642.29999999999995</ele>
        <time>2025-04-25T06:36:41Z</time>
      </trkpt>
      <trkpt lat="45.321575989946723" lon="3.2885040063411">
        <ele>643.25999999999999</ele>
        <time>2025-04-25T06:36:42Z</time>
      </trkpt>
      <trkpt lat="45.321436012163758" lon="3.288516998291016">
        <ele>644.22000000000003</ele>
        <time>2025-04-25T06:36:43Z</time>
      </trkpt>
      <trkpt lat="45.321263009682298" lon="3.288588998839259">
        <ele>645.17999999999995</ele>
        <time>2025-04-25T06:36:44Z</time>
      </trkpt>
      <trkpt lat="45.321104004979134" lon="3.288654964417219">
        <ele>646.13999999999999</ele>
        <time>2025-04-25T06:36:45Z</time>
      </trkpt>
      <trkpt lat="45.320939971134067" lon="3.288723025470972">
        <ele>647.10000000000002</ele>
        <time>2025-04-25T06:36:46Z</time>
      </trkpt>
      <trkpt lat="45.320148970931768" lon="3.289074981585145">
        <ele>650.47000000000003</ele>
        <time>2025-04-25T06:36:51Z</time>
      </trkpt>
      <trkpt lat="45.319997007027268" lon="3.289161985740066">
        <ele>650.95000000000005</ele>
        <time>2025-04-25T06:36:52Z</time>
      </trkpt>
      <trkpt lat="45.318445013836026" lon="3.290250040590763">
        <ele>651.90999999999997</ele>
        <time>2025-04-25T06:37:01Z</time>
      </trkpt>
      <trkpt lat="45.318258013576269" lon="3.290351964533329">
        <ele>651.90999999999997</ele>
        <time>2025-04-25T06:37:02Z</time>
      </trkpt>
      <trkpt lat="45.318059027194977" lon="3.290397981181741">
        <ele>651.90999999999997</ele>
        <time>2025-04-25T06:37:03Z</time>
      </trkpt>
      <trkpt lat="45.317857023328543" lon="3.29043896868825">
        <ele>651.90999999999997</ele>
        <time>2025-04-25T06:37:04Z</time>
      </trkpt>
      <trkpt lat="45.317648984491825" lon="3.290431005880237">
        <ele>651.42999999999995</ele>
        <time>2025-04-25T06:37:05Z</time>
      </trkpt>
      <trkpt lat="45.317438011988997" lon="3.290408039465547">
        <ele>651.42999999999995</ele>
        <time>2025-04-25T06:37:06Z</time>
      </trkpt>
      <trkpt lat="45.315789040178061" lon="3.290170999243856">
        <ele>654.30999999999995</ele>
        <time>2025-04-25T06:37:15Z</time>
      </trkpt>
      <trkpt lat="45.3149080183357" lon="3.290040995925665">
        <ele>653.35000000000002</ele>
        <time>2025-04-25T06:37:20Z</time>
      </trkpt>
      <trkpt lat="45.314716994762421" lon="3.290040995925665">
        <ele>652.87</ele>
        <time>2025-04-25T06:37:21Z</time>
      </trkpt>
      <trkpt lat="45.314531000331044" lon="3.290040995925665">
        <ele>652.38999999999999</ele>
        <time>2025-04-25T06:37:22Z</time>
      </trkpt>
      <trkpt lat="45.314344000071287" lon="3.290106961503625">
        <ele>651.90999999999997</ele>
        <time>2025-04-25T06:37:23Z</time>
      </trkpt>
      <trkpt lat="45.314161023125052" lon="3.290193965658546">
        <ele>651.42999999999995</ele>
        <time>2025-04-25T06:37:24Z</time>
      </trkpt>
      <trkpt lat="45.313016977161169" lon="3.290949007496238">
        <ele>652.38999999999999</ele>
        <time>2025-04-25T06:37:31Z</time>
      </trkpt>
      <trkpt lat="45.311767989769578" lon="3.291773032397032">
        <ele>653.35000000000002</ele>
        <time>2025-04-25T06:37:39Z</time>
      </trkpt>
      <trkpt lat="45.311145968735218" lon="3.292261026799679">
        <ele>654.30999999999995</ele>
        <time>2025-04-25T06:37:45Z</time>
      </trkpt>
      <trkpt lat="45.311051001772285" lon="3.292336966842413">
        <ele>654.79999999999995</ele>
        <time>2025-04-25T06:37:48Z</time>
      </trkpt>
      <trkpt lat="45.310961985960603" lon="3.292399998754263">
        <ele>654.79999999999995</ele>
        <time>2025-04-25T06:37:49Z</time>
      </trkpt>
      <trkpt lat="45.310919992625713" lon="3.292479962110519">
        <ele>654.79999999999995</ele>
        <time>2025-04-25T06:37:50Z</time>
      </trkpt>
      <trkpt lat="45.31086903065443" lon="3.292575012892485">
        <ele>654.79999999999995</ele>
        <time>2025-04-25T06:37:51Z</time>
      </trkpt>
      <trkpt lat="45.310810022056103" lon="3.292684983462095">
        <ele>655.27999999999997</ele>
        <time>2025-04-25T06:37:52Z</time>
      </trkpt>
      <trkpt lat="45.310745984315872" lon="3.292804006487131">
        <ele>655.27999999999997</ele>
        <time>2025-04-25T06:37:53Z</time>
      </trkpt>
      <trkpt lat="45.310679012909532" lon="3.292933003976941">
        <ele>654.30999999999995</ele>
        <time>2025-04-25T06:37:54Z</time>
      </trkpt>
      <trkpt lat="45.310199987143278" lon="3.294192971661687">
        <ele>650.95000000000005</ele>
        <time>2025-04-25T06:38:01Z</time>
      </trkpt>
      <trkpt lat="45.310149025171995" lon="3.294403022155166">
        <ele>650.47000000000003</ele>
        <time>2025-04-25T06:38:02Z</time>
      </trkpt>
      <trkpt lat="45.309833027422428" lon="3.29638903029263">
        <ele>647.59000000000003</ele>
        <time>2025-04-25T06:38:10Z</time>
      </trkpt>
      <trkpt lat="45.309634963050485" lon="3.298520967364311">
        <ele>648.07000000000005</ele>
        <time>2025-04-25T06:38:18Z</time>
      </trkpt>
      <trkpt lat="45.309579977765679" lon="3.298764964565635">
        <ele>648.07000000000005</ele>
        <time>2025-04-25T06:38:19Z</time>
      </trkpt>
      <trkpt lat="45.309496996924281" lon="3.298999993130565">
        <ele>647.59000000000003</ele>
        <time>2025-04-25T06:38:20Z</time>
      </trkpt>
      <trkpt lat="45.308904983103275" lon="3.300811992958188">
        <ele>643.74000000000001</ele>
        <time>2025-04-25T06:38:28Z</time>
      </trkpt>
      <trkpt lat="45.308788977563381" lon="3.301005028188229">
        <ele>643.25999999999999</ele>
        <time>2025-04-25T06:38:29Z</time>
      </trkpt>
      <trkpt lat="45.308693004772067" lon="3.301164032891393">
        <ele>642.29999999999995</ele>
        <time>2025-04-25T06:38:30Z</time>
      </trkpt>
      <trkpt lat="45.308590997010469" lon="3.30133200623095">
        <ele>641.34000000000003</ele>
        <time>2025-04-25T06:38:31Z</time>
      </trkpt>
      <trkpt lat="45.308479014784098" lon="3.301516994833946">
        <ele>639.88999999999999</ele>
        <time>2025-04-25T06:38:32Z</time>
      </trkpt>
      <trkpt lat="45.308362003415823" lon="3.301711035892367">
        <ele>638.45000000000005</ele>
        <time>2025-04-25T06:38:33Z</time>
      </trkpt>
      <trkpt lat="45.308264018967748" lon="3.301929971203208">
        <ele>637.00999999999999</ele>
        <time>2025-04-25T06:38:34Z</time>
      </trkpt>
      <trkpt lat="45.308206016197801" lon="3.302192995324731">
        <ele>635.09000000000003</ele>
        <time>2025-04-25T06:38:35Z</time>
      </trkpt>
      <trkpt lat="45.308144995942712" lon="3.302471023052931">
        <ele>633.64999999999998</ele>
        <time>2025-04-25T06:38:36Z</time>
      </trkpt>
      <trkpt lat="45.307462960481644" lon="3.305193968117237">
        <ele>616.82000000000005</ele>
        <time>2025-04-25T06:38:46Z</time>
      </trkpt>
      <trkpt lat="45.306971026584506" lon="3.30650900490582">
        <ele>609.13</ele>
        <time>2025-04-25T06:38:52Z</time>
      </trkpt>
      <trkpt lat="45.306891985237598" lon="3.306696005165577">
        <ele>608.16999999999996</ele>
        <time>2025-04-25T06:38:53Z</time>
      </trkpt>
      <trkpt lat="45.306777991354465" lon="3.306845035403967">
        <ele>607.21000000000004</ele>
        <time>2025-04-25T06:38:54Z</time>
      </trkpt>
      <trkpt lat="45.306661985814571" lon="3.306961040943861">
        <ele>606.25</ele>
        <time>2025-04-25T06:38:55Z</time>
      </trkpt>
      <trkpt lat="45.306540029123425" lon="3.307061959058046">
        <ele>605.76999999999998</ele>
        <time>2025-04-25T06:38:56Z</time>
      </trkpt>
      <trkpt lat="45.306402985006571" lon="3.307091966271401">
        <ele>605.28999999999996</ele>
        <time>2025-04-25T06:38:57Z</time>
      </trkpt>
      <trkpt lat="45.306263007223606" lon="3.307122979313135">
        <ele>604.80999999999995</ele>
        <time>2025-04-25T06:38:58Z</time>
      </trkpt>
      <trkpt lat="45.306116994470358" lon="3.30715499818325">
        <ele>604.33000000000004</ele>
        <time>2025-04-25T06:38:59Z</time>
      </trkpt>
      <trkpt lat="45.304318992421031" lon="3.307470995932818">
        <ele>595.66999999999996</ele>
        <time>2025-04-25T06:39:10Z</time>
      </trkpt>
      <trkpt lat="45.304034007713199" lon="3.307563029229641">
        <ele>593.26999999999998</ele>
        <time>2025-04-25T06:39:12Z</time>
      </trkpt>
      <trkpt lat="45.303909033536911" lon="3.307612985372543">
        <ele>592.30999999999995</ele>
        <time>2025-04-25T06:39:13Z</time>
      </trkpt>
      <trkpt lat="45.3038249630481" lon="3.307725973427296">
        <ele>590.87</ele>
        <time>2025-04-25T06:39:14Z</time>
      </trkpt>
      <trkpt lat="45.303731001913548" lon="3.307858994230628">
        <ele>589.90999999999997</ele>
        <time>2025-04-25T06:39:15Z</time>
      </trkpt>
      <trkpt lat="45.303645003587008" lon="3.308017998933792">
        <ele>588.46000000000004</ele>
        <time>2025-04-25T06:39:16Z</time>
      </trkpt>
      <trkpt lat="45.3035659622401" lon="3.308196030557156">
        <ele>587.5</ele>
        <time>2025-04-25T06:39:17Z</time>
      </trkpt>
      <trkpt lat="45.303511982783675" lon="3.308367021381855">
        <ele>585.58000000000004</ele>
        <time>2025-04-25T06:39:18Z</time>
      </trkpt>
      <trkpt lat="45.303492033854127" lon="3.308548992499709">
        <ele>584.62</ele>
        <time>2025-04-25T06:39:19Z</time>
      </trkpt>
      <trkpt lat="45.303470995277166" lon="3.308746973052621">
        <ele>582.70000000000005</ele>
        <time>2025-04-25T06:39:20Z</time>
      </trkpt>
      <trkpt lat="45.303448028862476" lon="3.30895802937448">
        <ele>580.76999999999998</ele>
        <time>2025-04-25T06:39:21Z</time>
      </trkpt>
      <trkpt lat="45.303424978628755" lon="3.309169001877308">
        <ele>578.85000000000002</ele>
        <time>2025-04-25T06:39:22Z</time>
      </trkpt>
      <trkpt lat="45.303404023870826" lon="3.309359019622207">
        <ele>576.92999999999995</ele>
        <time>2025-04-25T06:39:23Z</time>
      </trkpt>
      <trkpt lat="45.303405029699206" lon="3.309523975476623">
        <ele>575.00999999999999</ele>
        <time>2025-04-25T06:39:24Z</time>
      </trkpt>
      <trkpt lat="45.30345699749887" lon="3.309687003493309">
        <ele>573.55999999999995</ele>
        <time>2025-04-25T06:39:25Z</time>
      </trkpt>
      <trkpt lat="45.303516006097198" lon="3.309868974611163">
        <ele>572.60000000000002</ele>
        <time>2025-04-25T06:39:26Z</time>
      </trkpt>
      <trkpt lat="45.303579960018396" lon="3.310063015669584">
        <ele>571.15999999999997</ele>
        <time>2025-04-25T06:39:27Z</time>
      </trkpt>
      <trkpt lat="45.303642991930246" lon="3.310256972908974">
        <ele>569.24000000000001</ele>
        <time>2025-04-25T06:39:28Z</time>
      </trkpt>
      <trkpt lat="45.303662018850446" lon="3.31046199426055">
        <ele>567.79999999999995</ele>
        <time>2025-04-25T06:39:29Z</time>
      </trkpt>
      <trkpt lat="45.303651038557291" lon="3.310659974813461">
        <ele>566.35000000000002</ele>
        <time>2025-04-25T06:39:30Z</time>
      </trkpt>
      <trkpt lat="45.303639974445105" lon="3.310844963416457">
        <ele>564.90999999999997</ele>
        <time>2025-04-25T06:39:31Z</time>
      </trkpt>
      <trkpt lat="45.30362999998033" lon="3.311015032231808">
        <ele>563.47000000000003</ele>
        <time>2025-04-25T06:39:32Z</time>
      </trkpt>
      <trkpt lat="45.303665958344936" lon="3.311176970601082">
        <ele>562.02999999999997</ele>
        <time>2025-04-25T06:39:33Z</time>
      </trkpt>
      <trkpt lat="45.303727984428406" lon="3.311345027759671">
        <ele>560.59000000000003</ele>
        <time>2025-04-25T06:39:34Z</time>
      </trkpt>
      <trkpt lat="45.303795961663127" lon="3.311531022191048">
        <ele>559.13999999999999</ele>
        <time>2025-04-25T06:39:35Z</time>
      </trkpt>
      <trkpt lat="45.303863016888499" lon="3.311712993308902">
        <ele>557.70000000000005</ele>
        <time>2025-04-25T06:39:36Z</time>
      </trkpt>
      <trkpt lat="45.303872991353273" lon="3.311916003003717">
        <ele>556.25999999999999</ele>
        <time>2025-04-25T06:39:37Z</time>
      </trkpt>
      <trkpt lat="45.303882965818048" lon="3.312107026576996">
        <ele>554.82000000000005</ele>
        <time>2025-04-25T06:39:38Z</time>
      </trkpt>
      <trkpt lat="45.303847007453442" lon="3.312269970774651">
        <ele>553.38</ele>
        <time>2025-04-25T06:39:39Z</time>
      </trkpt>
      <trkpt lat="45.303797973319888" lon="3.312464011833072">
        <ele>551.92999999999995</ele>
        <time>2025-04-25T06:39:40Z</time>
      </trkpt>
      <trkpt lat="45.303699988871813" lon="3.312598960474134">
        <ele>550.49000000000001</ele>
        <time>2025-04-25T06:39:41Z</time>
      </trkpt>
      <trkpt lat="45.303589012473822" lon="3.312751008197665">
        <ele>549.04999999999995</ele>
        <time>2025-04-25T06:39:42Z</time>
      </trkpt>
      <trkpt lat="45.303479041904211" lon="3.312900960445404">
        <ele>548.09000000000003</ele>
        <time>2025-04-25T06:39:43Z</time>
      </trkpt>
      <trkpt lat="45.303378039970994" lon="3.31304001621902">
        <ele>547.13</ele>
        <time>2025-04-25T06:39:44Z</time>
      </trkpt>
      <trkpt lat="45.303281983360648" lon="3.313171025365591">
        <ele>545.69000000000005</ele>
        <time>2025-04-25T06:39:45Z</time>
      </trkpt>
      <trkpt lat="45.303200008347631" lon="3.313328018411994">
        <ele>544.24000000000001</ele>
        <time>2025-04-25T06:39:46Z</time>
      </trkpt>
      <trkpt lat="45.303147034719586" lon="3.31353303976357">
        <ele>543.27999999999997</ele>
        <time>2025-04-25T06:39:47Z</time>
      </trkpt>
      <trkpt lat="45.30309003777802" lon="3.31374803557992">
        <ele>542.32000000000005</ele>
        <time>2025-04-25T06:39:48Z</time>
      </trkpt>
      <trkpt lat="45.302881998941302" lon="3.314542975276709">
        <ele>537.02999999999997</ele>
        <time>2025-04-25T06:39:52Z</time>
      </trkpt>
      <trkpt lat="45.302857020869851" lon="3.314718995243311">
        <ele>536.07000000000005</ele>
        <time>2025-04-25T06:39:53Z</time>
      </trkpt>
      <trkpt lat="45.302883004769683" lon="3.314899038523436">
        <ele>535.11000000000001</ele>
        <time>2025-04-25T06:39:54Z</time>
      </trkpt>
      <trkpt lat="45.302935978397727" lon="3.315086038783193">
        <ele>534.14999999999998</ele>
        <time>2025-04-25T06:39:55Z</time>
      </trkpt>
      <trkpt lat="45.303000016137958" lon="3.315270021557808">
        <ele>533.19000000000005</ele>
        <time>2025-04-25T06:39:56Z</time>
      </trkpt>
      <trkpt lat="45.303057013079524" lon="3.315432965755463">
        <ele>531.75</ele>
        <time>2025-04-25T06:39:57Z</time>
      </trkpt>
      <trkpt lat="45.303089031949639" lon="3.31557503901422">
        <ele>530.78999999999996</ele>
        <time>2025-04-25T06:39:58Z</time>
      </trkpt>
      <trkpt lat="45.303148962557316" lon="3.315894976258278">
        <ele>526.94000000000005</ele>
        <time>2025-04-25T06:40:01Z</time>
      </trkpt>
      <trkpt lat="45.303159020841122" lon="3.315950967371464">
        <ele>525.98000000000002</ele>
        <time>2025-04-25T06:40:02Z</time>
      </trkpt>
      <trkpt lat="45.303165977820754" lon="3.315987009555101">
        <ele>525.01999999999998</ele>
        <time>2025-04-25T06:40:03Z</time>
      </trkpt>
      <trkpt lat="45.303111998364329" lon="3.31596102565527">
        <ele>524.05999999999995</ele>
        <time>2025-04-25T06:40:04Z</time>
      </trkpt>
      <trkpt lat="45.303111998364329" lon="3.31596102565527">
        <ele>522.61000000000001</ele>
        <time>2025-04-25T06:40:05Z</time>
      </trkpt>
      <trkpt lat="45.303090959787369" lon="3.315944010391831">
        <ele>521.64999999999998</ele>
        <time>2025-04-25T06:40:06Z</time>
      </trkpt>
      <trkpt lat="45.303047960624099" lon="3.315906040370464">
        <ele>520.69000000000005</ele>
        <time>2025-04-25T06:40:07Z</time>
      </trkpt>
      <trkpt lat="45.302996998652816" lon="3.315862035378814">
        <ele>520.21000000000004</ele>
        <time>2025-04-25T06:40:08Z</time>
      </trkpt>
      <trkpt lat="45.302859032526612" lon="3.315742006525397">
        <ele>518.76999999999998</ele>
        <time>2025-04-25T06:40:10Z</time>
      </trkpt>
      <trkpt lat="45.302699021995068" lon="3.3149319794029">
        <ele>518.76999999999998</ele>
        <time>2025-04-25T06:40:15Z</time>
      </trkpt>
      <trkpt lat="45.302688963711262" lon="3.314756965264678">
        <ele>518.76999999999998</ele>
        <time>2025-04-25T06:40:16Z</time>
      </trkpt>
      <trkpt lat="45.302691981196404" lon="3.314583962783217">
        <ele>519.25</ele>
        <time>2025-04-25T06:40:17Z</time>
      </trkpt>
      <trkpt lat="45.302727017551661" lon="3.314400985836983">
        <ele>519.73000000000002</ele>
        <time>2025-04-25T06:40:18Z</time>
      </trkpt>
      <trkpt lat="45.302760964259505" lon="3.314223038032651">
        <ele>520.21000000000004</ele>
        <time>2025-04-25T06:40:19Z</time>
      </trkpt>
      <trkpt lat="45.30279197730124" lon="3.314066966995597">
        <ele>520.69000000000005</ele>
        <time>2025-04-25T06:40:20Z</time>
      </trkpt>
      <trkpt lat="45.302799018099904" lon="3.313906034454703">
        <ele>520.69000000000005</ele>
        <time>2025-04-25T06:40:21Z</time>
      </trkpt>
      <trkpt lat="45.302768005058169" lon="3.31375096924603">
        <ele>520.69000000000005</ele>
        <time>2025-04-25T06:40:22Z</time>
      </trkpt>
      <trkpt lat="45.302713019773364" lon="3.313639992848039">
        <ele>521.16999999999996</ele>
        <time>2025-04-25T06:40:23Z</time>
      </trkpt>
      <trkpt lat="45.302616963163018" lon="3.313507977873087">
        <ele>521.16999999999996</ele>
        <time>2025-04-25T06:40:24Z</time>
      </trkpt>
      <trkpt lat="45.302503975108266" lon="3.313434971496463">
        <ele>521.64999999999998</ele>
        <time>2025-04-25T06:40:25Z</time>
      </trkpt>
      <trkpt lat="45.302381012588739" lon="3.313355008140206">
        <ele>522.13</ele>
        <time>2025-04-25T06:40:26Z</time>
      </trkpt>
      <trkpt lat="45.301219029352069" lon="3.312394022941589">
        <ele>528.86000000000001</ele>
        <time>2025-04-25T06:40:34Z</time>
      </trkpt>
      <trkpt lat="45.299653960391879" lon="3.310959963127971">
        <ele>538.48000000000002</ele>
        <time>2025-04-25T06:40:45Z</time>
      </trkpt>
      <trkpt lat="45.299511970952153" lon="3.310910006985068">
        <ele>539.44000000000005</ele>
        <time>2025-04-25T06:40:46Z</time>
      </trkpt>
      <trkpt lat="45.299365036189556" lon="3.310858961194754">
        <ele>539.91999999999996</ele>
        <time>2025-04-25T06:40:47Z</time>
      </trkpt>
      <trkpt lat="45.29795897193253" lon="3.310803975909948">
        <ele>547.13</ele>
        <time>2025-04-25T06:40:55Z</time>
      </trkpt>
      <trkpt lat="45.29722798615694" lon="3.310737004503608">
        <ele>551.45000000000005</ele>
        <time>2025-04-25T06:41:00Z</time>
      </trkpt>
      <trkpt lat="45.297105023637414" lon="3.310687970370054">
        <ele>552.40999999999997</ele>
        <time>2025-04-25T06:41:01Z</time>
      </trkpt>
      <trkpt lat="45.297004021704197" lon="3.310599038377404">
        <ele>552.89999999999998</ele>
        <time>2025-04-25T06:41:02Z</time>
      </trkpt>
      <trkpt lat="45.296932021155953" lon="3.310468029230833">
        <ele>553.38</ele>
        <time>2025-04-25T06:41:03Z</time>
      </trkpt>
      <trkpt lat="45.296886004507542" lon="3.310329979285598">
        <ele>553.86000000000001</ele>
        <time>2025-04-25T06:41:04Z</time>
      </trkpt>
      <trkpt lat="45.296835964545608" lon="3.310166029259563">
        <ele>553.86000000000001</ele>
        <time>2025-04-25T06:41:05Z</time>
      </trkpt>
      <trkpt lat="45.296619962900877" lon="3.308374984189868">
        <ele>554.82000000000005</ele>
        <time>2025-04-25T06:41:14Z</time>
      </trkpt>
      <trkpt lat="45.296588027849793" lon="3.308171974495053">
        <ele>554.82000000000005</ele>
        <time>2025-04-25T06:41:15Z</time>
      </trkpt>
      <trkpt lat="45.296494988724589" lon="3.307995032519102">
        <ele>555.29999999999995</ele>
        <time>2025-04-25T06:41:16Z</time>
      </trkpt>
      <trkpt lat="45.296402033418417" lon="3.307814989238977">
        <ele>555.29999999999995</ele>
        <time>2025-04-25T06:41:17Z</time>
      </trkpt>
      <trkpt lat="45.296282004565001" lon="3.307653972879052">
        <ele>555.29999999999995</ele>
        <time>2025-04-25T06:41:18Z</time>
      </trkpt>
      <trkpt lat="45.296145966276526" lon="3.307522963732481">
        <ele>555.77999999999997</ele>
        <time>2025-04-25T06:41:19Z</time>
      </trkpt>
      <trkpt lat="45.296008000150323" lon="3.30739002674818">
        <ele>555.77999999999997</ele>
        <time>2025-04-25T06:41:20Z</time>
      </trkpt>
      <trkpt lat="45.29438903555274" lon="3.305856976658106">
        <ele>559.62</ele>
        <time>2025-04-25T06:41:31Z</time>
      </trkpt>
      <trkpt lat="45.294086029753089" lon="3.305625971406698">
        <ele>561.07000000000005</ele>
        <time>2025-04-25T06:41:33Z</time>
      </trkpt>
      <trkpt lat="45.293915960937738" lon="3.305553970858455">
        <ele>561.54999999999995</ele>
        <time>2025-04-25T06:41:34Z</time>
      </trkpt>
      <trkpt lat="45.292517021298409" lon="3.305143006145954">
        <ele>570.67999999999995</ele>
        <time>2025-04-25T06:41:42Z</time>
      </trkpt>
      <trkpt lat="45.290155000984669" lon="3.304804963991046">
        <ele>583.65999999999997</ele>
        <time>2025-04-25T06:41:54Z</time>
      </trkpt>
      <trkpt lat="45.287829022854567" lon="3.304142039269209">
        <ele>594.71000000000004</ele>
        <time>2025-04-25T06:42:06Z</time>
      </trkpt>
      <trkpt lat="45.28620301745832" lon="3.303666030988097">
        <ele>597.12</ele>
        <time>2025-04-25T06:42:15Z</time>
      </trkpt>
      <trkpt lat="45.284625962376595" lon="3.303016014397144">
        <ele>595.19000000000005</ele>
        <time>2025-04-25T06:42:24Z</time>
      </trkpt>
      <trkpt lat="45.28377503156662" lon="3.302628016099334">
        <ele>594.23000000000002</ele>
        <time>2025-04-25T06:42:30Z</time>
      </trkpt>
      <trkpt lat="45.283643016591668" lon="3.302618963643909">
        <ele>593.75</ele>
        <time>2025-04-25T06:42:31Z</time>
      </trkpt>
      <trkpt lat="45.283512007445097" lon="3.30264201387763">
        <ele>593.26999999999998</ele>
        <time>2025-04-25T06:42:32Z</time>
      </trkpt>
      <trkpt lat="45.283214030787349" lon="3.302756007760763">
        <ele>593.26999999999998</ele>
        <time>2025-04-25T06:42:34Z</time>
      </trkpt>
      <trkpt lat="45.283047985285521" lon="3.302790960296989">
        <ele>593.75</ele>
        <time>2025-04-25T06:42:35Z</time>
      </trkpt>
      <trkpt lat="45.282881017774343" lon="3.302801018580794">
        <ele>594.23000000000002</ele>
        <time>2025-04-25T06:42:36Z</time>
      </trkpt>
      <trkpt lat="45.282770041376352" lon="3.302807975560427">
        <ele>594.71000000000004</ele>
        <time>2025-04-25T06:42:37Z</time>
      </trkpt>
      <trkpt lat="45.282599972561002" lon="3.302722983062267">
        <ele>595.19000000000005</ele>
        <time>2025-04-25T06:42:38Z</time>
      </trkpt>
      <trkpt lat="45.282458988949656" lon="3.302651988342404">
        <ele>595.66999999999996</ele>
        <time>2025-04-25T06:42:39Z</time>
      </trkpt>
      <trkpt lat="45.282308030873537" lon="3.302576970309019">
        <ele>596.14999999999998</ele>
        <time>2025-04-25T06:42:40Z</time>
      </trkpt>
      <trkpt lat="45.281993038952351" lon="3.302418971434236">
        <ele>597.60000000000002</ele>
        <time>2025-04-25T06:42:42Z</time>
      </trkpt>
      <trkpt lat="45.280619999393821" lon="3.30203901976347">
        <ele>602.88</ele>
        <time>2025-04-25T06:42:50Z</time>
      </trkpt>
      <trkpt lat="45.27975901030004" lon="3.302091993391514">
        <ele>606.73000000000002</ele>
        <time>2025-04-25T06:42:55Z</time>
      </trkpt>
      <trkpt lat="45.279585001990199" lon="3.302079001441598">
        <ele>607.69000000000005</ele>
        <time>2025-04-25T06:42:56Z</time>
      </trkpt>
      <trkpt lat="45.279419040307403" lon="3.302014041692019">
        <ele>608.16999999999996</ele>
        <time>2025-04-25T06:42:57Z</time>
      </trkpt>
      <trkpt lat="45.277762021869421" lon="3.301270985975862">
        <ele>615.38</ele>
        <time>2025-04-25T06:43:07Z</time>
      </trkpt>
      <trkpt lat="45.277285007759929" lon="3.300969991832972">
        <ele>616.82000000000005</ele>
        <time>2025-04-25T06:43:10Z</time>
      </trkpt>
      <trkpt lat="45.2771379891783" lon="3.300840994343162">
        <ele>617.29999999999995</ele>
        <time>2025-04-25T06:43:11Z</time>
      </trkpt>
      <trkpt lat="45.276188990101218" lon="3.299874980002642">
        <ele>619.23000000000002</ele>
        <time>2025-04-25T06:43:19Z</time>
      </trkpt>
      <trkpt lat="45.276011964306235" lon="3.299743970856071">
        <ele>619.23000000000002</ele>
        <time>2025-04-25T06:43:21Z</time>
      </trkpt>
      <trkpt lat="45.275916997343302" lon="3.299694014713168">
        <ele>619.23000000000002</ele>
        <time>2025-04-25T06:43:22Z</time>
      </trkpt>
      <trkpt lat="45.275797974318266" lon="3.299683034420013">
        <ele>619.23000000000002</ele>
        <time>2025-04-25T06:43:23Z</time>
      </trkpt>
      <trkpt lat="45.275667971000075" lon="3.299683034420013">
        <ele>619.23000000000002</ele>
        <time>2025-04-25T06:43:24Z</time>
      </trkpt>
      <trkpt lat="45.275528999045491" lon="3.299710024148226">
        <ele>618.75</ele>
        <time>2025-04-25T06:43:25Z</time>
      </trkpt>
      <trkpt lat="45.27432200498879" lon="3.299902975559235">
        <ele>617.29999999999995</ele>
        <time>2025-04-25T06:43:34Z</time>
      </trkpt>
      <trkpt lat="45.274209016934037" lon="3.299911022186279">
        <ele>617.29999999999995</ele>
        <time>2025-04-25T06:43:35Z</time>
      </trkpt>
      <trkpt lat="45.274104997515678" lon="3.299859976395965">
        <ele>617.29999999999995</ele>
        <time>2025-04-25T06:43:36Z</time>
      </trkpt>
      <trkpt lat="45.274018999189138" lon="3.299786970019341">
        <ele>617.29999999999995</ele>
        <time>2025-04-25T06:43:37Z</time>
      </trkpt>
      <trkpt lat="45.273938030004501" lon="3.299718992784619">
        <ele>616.82000000000005</ele>
        <time>2025-04-25T06:43:38Z</time>
      </trkpt>
      <trkpt lat="45.273869968950748" lon="3.299661995843053">
        <ele>616.34000000000003</ele>
        <time>2025-04-25T06:43:39Z</time>
      </trkpt>
      <trkpt lat="45.273676011711359" lon="3.299509026110172">
        <ele>616.34000000000003</ele>
        <time>2025-04-25T06:43:44Z</time>
      </trkpt>
      <trkpt lat="45.273620020598173" lon="3.299457980319858">
        <ele>616.34000000000003</ele>
        <time>2025-04-25T06:43:45Z</time>
      </trkpt>
      <trkpt lat="45.27354902587831" lon="3.299393020570278">
        <ele>616.34000000000003</ele>
        <time>2025-04-25T06:43:46Z</time>
      </trkpt>
      <trkpt lat="45.27346202172339" lon="3.29931297339499">
        <ele>616.34000000000003</ele>
        <time>2025-04-25T06:43:47Z</time>
      </trkpt>
      <trkpt lat="45.273350961506367" lon="3.299270980060101">
        <ele>616.34000000000003</ele>
        <time>2025-04-25T06:43:48Z</time>
      </trkpt>
      <trkpt lat="45.273221964016557" lon="3.299242984503508">
        <ele>616.34000000000003</ele>
        <time>2025-04-25T06:43:49Z</time>
      </trkpt>
      <trkpt lat="45.273083997890353" lon="3.299241978675127">
        <ele>616.82000000000005</ele>
        <time>2025-04-25T06:43:50Z</time>
      </trkpt>
      <trkpt lat="45.272934967651963" lon="3.299293024465442">
        <ele>616.82000000000005</ele>
        <time>2025-04-25T06:43:51Z</time>
      </trkpt>
      <trkpt lat="45.27277504093945" lon="3.299349015578628">
        <ele>616.82000000000005</ele>
        <time>2025-04-25T06:43:52Z</time>
      </trkpt>
      <trkpt lat="45.2726049721241" lon="3.299407018348575">
        <ele>616.82000000000005</ele>
        <time>2025-04-25T06:43:53Z</time>
      </trkpt>
      <trkpt lat="45.27168296277523" lon="3.299669036641717">
        <ele>614.89999999999998</ele>
        <time>2025-04-25T06:43:58Z</time>
      </trkpt>
      <trkpt lat="45.271499985828996" lon="3.299694014713168">
        <ele>614.41999999999996</ele>
        <time>2025-04-25T06:43:59Z</time>
      </trkpt>
      <trkpt lat="45.271321032196283" lon="3.299657972529531">
        <ele>614.41999999999996</ele>
        <time>2025-04-25T06:44:00Z</time>
      </trkpt>
      <trkpt lat="45.271136965602636" lon="3.299614973366261">
        <ele>613.94000000000005</ele>
        <time>2025-04-25T06:44:01Z</time>
      </trkpt>
      <trkpt lat="45.270957006141543" lon="3.299532998353243">
        <ele>613.46000000000004</ele>
        <time>2025-04-25T06:44:02Z</time>
      </trkpt>
      <trkpt lat="45.270774029195309" lon="3.299444988369942">
        <ele>613.46000000000004</ele>
        <time>2025-04-25T06:44:03Z</time>
      </trkpt>
      <trkpt lat="45.269348016008735" lon="3.298734035342932">
        <ele>612.98000000000002</ele>
        <time>2025-04-25T06:44:12Z</time>
      </trkpt>
      <trkpt lat="45.269233016297221" lon="3.298705033957958">
        <ele>613.46000000000004</ele>
        <time>2025-04-25T06:44:13Z</time>
      </trkpt>
      <trkpt lat="45.269138971343637" lon="3.298704028129578">
        <ele>613.46000000000004</ele>
        <time>2025-04-25T06:44:14Z</time>
      </trkpt>
      <trkpt lat="45.269050039350986" lon="3.298760019242764">
        <ele>613.46000000000004</ele>
        <time>2025-04-25T06:44:15Z</time>
      </trkpt>
      <trkpt lat="45.268988013267517" lon="3.298825984820724">
        <ele>612.98000000000002</ele>
        <time>2025-04-25T06:44:16Z</time>
      </trkpt>
      <trkpt lat="45.268959011882544" lon="3.298964034765959">
        <ele>612.98000000000002</ele>
        <time>2025-04-25T06:44:17Z</time>
      </trkpt>
      <trkpt lat="45.268926993012428" lon="3.299117004498839">
        <ele>612.98000000000002</ele>
        <time>2025-04-25T06:44:18Z</time>
      </trkpt>
      <trkpt lat="45.268895979970694" lon="3.29926997423172">
        <ele>612.5</ele>
        <time>2025-04-25T06:44:19Z</time>
      </trkpt>
      <trkpt lat="45.268864966928959" lon="3.299417998641729">
        <ele>612.01999999999998</ele>
        <time>2025-04-25T06:44:20Z</time>
      </trkpt>
      <trkpt lat="45.268787015229464" lon="3.299584966152906">
        <ele>611.53999999999996</ele>
        <time>2025-04-25T06:44:21Z</time>
      </trkpt>
      <trkpt lat="45.268556009978056" lon="3.300134986639023">
        <ele>612.01999999999998</ele>
        <time>2025-04-25T06:44:24Z</time>
      </trkpt>
      <trkpt lat="45.268504964187741" lon="3.300333973020315">
        <ele>612.01999999999998</ele>
        <time>2025-04-25T06:44:25Z</time>
      </trkpt>
      <trkpt lat="45.268416032195091" lon="3.300679977983236">
        <ele>612.98000000000002</ele>
        <time>2025-04-25T06:44:27Z</time>
      </trkpt>
      <trkpt lat="45.268364986404777" lon="3.300814004614949">
        <ele>613.46000000000004</ele>
        <time>2025-04-25T06:44:28Z</time>
      </trkpt>
      <trkpt lat="45.268299020826817" lon="3.300919029861689">
        <ele>613.46000000000004</ele>
        <time>2025-04-25T06:44:29Z</time>
      </trkpt>
      <trkpt lat="45.268205981701612" lon="3.300940990447998">
        <ele>613.94000000000005</ele>
        <time>2025-04-25T06:44:30Z</time>
      </trkpt>
      <trkpt lat="45.26809198781848" lon="3.300940990447998">
        <ele>614.41999999999996</ele>
        <time>2025-04-25T06:44:31Z</time>
      </trkpt>
      <trkpt lat="45.26796399615705" lon="3.300940990447998">
        <ele>614.89999999999998</ele>
        <time>2025-04-25T06:44:32Z</time>
      </trkpt>
      <trkpt lat="45.267843967303634" lon="3.300862032920122">
        <ele>615.38</ele>
        <time>2025-04-25T06:44:33Z</time>
      </trkpt>
      <trkpt lat="45.266922041773796" lon="3.300240011885762">
        <ele>620.19000000000005</ele>
        <time>2025-04-25T06:44:39Z</time>
      </trkpt>
      <trkpt lat="45.265762992203236" lon="3.299497039988637">
        <ele>626.91999999999996</ele>
        <time>2025-04-25T06:44:46Z</time>
      </trkpt>
      <trkpt lat="45.26525697670877" lon="3.29931003972888">
        <ele>629.79999999999995</ele>
        <time>2025-04-25T06:44:49Z</time>
      </trkpt>
      <trkpt lat="45.263847978785634" lon="3.299401989206672">
        <ele>638.45000000000005</ele>
        <time>2025-04-25T06:44:57Z</time>
      </trkpt>
      <trkpt lat="45.261529041454196" lon="3.30004395917058">
        <ele>648.07000000000005</ele>
        <time>2025-04-25T06:45:09Z</time>
      </trkpt>
      <trkpt lat="45.261193010956049" lon="3.300163988023996">
        <ele>649.99000000000001</ele>
        <time>2025-04-25T06:45:11Z</time>
      </trkpt>
      <trkpt lat="45.261048004031181" lon="3.300260966643691">
        <ele>650.95000000000005</ele>
        <time>2025-04-25T06:45:12Z</time>
      </trkpt>
      <trkpt lat="45.26091598905623" lon="3.300392981618643">
        <ele>652.38999999999999</ele>
        <time>2025-04-25T06:45:13Z</time>
      </trkpt>
      <trkpt lat="45.260801995173097" lon="3.30055701546371">
        <ele>653.83000000000004</ele>
        <time>2025-04-25T06:45:14Z</time>
      </trkpt>
      <trkpt lat="45.260704010725021" lon="3.300764970481396">
        <ele>654.79999999999995</ele>
        <time>2025-04-25T06:45:15Z</time>
      </trkpt>
      <trkpt lat="45.260618012398481" lon="3.301002010703087">
        <ele>656.24000000000001</ele>
        <time>2025-04-25T06:45:16Z</time>
      </trkpt>
      <trkpt lat="45.26033797301352" lon="3.301708018407226">
        <ele>660.08000000000004</ele>
        <time>2025-04-25T06:45:19Z</time>
      </trkpt>
      <trkpt lat="45.260105039924383" lon="3.302122000604868">
        <ele>662.00999999999999</ele>
        <time>2025-04-25T06:45:21Z</time>
      </trkpt>
      <trkpt lat="45.259953998029232" lon="3.302312018349767">
        <ele>663.45000000000005</ele>
        <time>2025-04-25T06:45:22Z</time>
      </trkpt>
      <trkpt lat="45.258322041481733" lon="3.304131980985403">
        <ele>673.53999999999996</ele>
        <time>2025-04-25T06:45:32Z</time>
      </trkpt>
      <trkpt lat="45.258147027343512" lon="3.304225020110607">
        <ele>674.5</ele>
        <time>2025-04-25T06:45:33Z</time>
      </trkpt>
      <trkpt lat="45.256349025294185" lon="3.30517603084445">
        <ele>683.14999999999998</ele>
        <time>2025-04-25T06:45:43Z</time>
      </trkpt>
      <trkpt lat="45.256006037816405" lon="3.305290024727583">
        <ele>684.12</ele>
        <time>2025-04-25T06:45:45Z</time>
      </trkpt>
      <trkpt lat="45.255831023678184" lon="3.305278960615397">
        <ele>684.60000000000002</ele>
        <time>2025-04-25T06:45:46Z</time>
      </trkpt>
      <trkpt lat="45.255647040903568" lon="3.305266974493861">
        <ele>685.08000000000004</ele>
        <time>2025-04-25T06:45:47Z</time>
      </trkpt>
      <trkpt lat="45.254395036026835" lon="3.3048539981246">
        <ele>689.39999999999998</ele>
        <time>2025-04-25T06:45:54Z</time>
      </trkpt>
      <trkpt lat="45.254237037152052" lon="3.304716031998396">
        <ele>690.36000000000001</ele>
        <time>2025-04-25T06:45:55Z</time>
      </trkpt>
      <trkpt lat="45.254091024398804" lon="3.304559038951993">
        <ele>690.84000000000003</ele>
        <time>2025-04-25T06:45:56Z</time>
      </trkpt>
      <trkpt lat="45.253965966403484" lon="3.304369021207094">
        <ele>691.80999999999995</ele>
        <time>2025-04-25T06:45:57Z</time>
      </trkpt>
      <trkpt lat="45.253855995833874" lon="3.304180009290576">
        <ele>692.76999999999998</ele>
        <time>2025-04-25T06:45:58Z</time>
      </trkpt>
      <trkpt lat="45.253678970038891" lon="3.303791005164385">
        <ele>694.69000000000005</ele>
        <time>2025-04-25T06:46:00Z</time>
      </trkpt>
      <trkpt lat="45.253618033602834" lon="3.303580032661557">
        <ele>695.16999999999996</ele>
        <time>2025-04-25T06:46:01Z</time>
      </trkpt>
      <trkpt lat="45.253571011126041" lon="3.303366964682937">
        <ele>696.13</ele>
        <time>2025-04-25T06:46:02Z</time>
      </trkpt>
      <trkpt lat="45.253522982820868" lon="3.303150963038206">
        <ele>697.09000000000003</ele>
        <time>2025-04-25T06:46:03Z</time>
      </trkpt>
      <trkpt lat="45.253501022234559" lon="3.30296203494072">
        <ele>697.57000000000005</ele>
        <time>2025-04-25T06:46:04Z</time>
      </trkpt>
      <trkpt lat="45.253441007807851" lon="3.302434980869293">
        <ele>698.04999999999995</ele>
        <time>2025-04-25T06:46:07Z</time>
      </trkpt>
      <trkpt lat="45.253386022523046" lon="3.302343031391501">
        <ele>698.52999999999997</ele>
        <time>2025-04-25T06:46:08Z</time>
      </trkpt>
      <trkpt lat="45.253316033631563" lon="3.302263990044594">
        <ele>698.52999999999997</ele>
        <time>2025-04-25T06:46:09Z</time>
      </trkpt>
      <trkpt lat="45.25324403308332" lon="3.302178997546434">
        <ele>698.52999999999997</ele>
        <time>2025-04-25T06:46:10Z</time>
      </trkpt>
      <trkpt lat="45.253173038363457" lon="3.302113031968474">
        <ele>699.01999999999998</ele>
        <time>2025-04-25T06:46:11Z</time>
      </trkpt>
      <trkpt lat="45.253058960661292" lon="3.302081013098359">
        <ele>699.01999999999998</ele>
        <time>2025-04-25T06:46:12Z</time>
      </trkpt>
      <trkpt lat="45.252935998141766" lon="3.302143039181829">
        <ele>699.5</ele>
        <time>2025-04-25T06:46:13Z</time>
      </trkpt>
      <trkpt lat="45.252796020358801" lon="3.302221996709704">
        <ele>699.98000000000002</ele>
        <time>2025-04-25T06:46:14Z</time>
      </trkpt>
      <trkpt lat="45.25264497846365" lon="3.302306989207864">
        <ele>700.46000000000004</ele>
        <time>2025-04-25T06:46:15Z</time>
      </trkpt>
      <trkpt lat="45.252471975982189" lon="3.302374966442585">
        <ele>700.94000000000005</ele>
        <time>2025-04-25T06:46:16Z</time>
      </trkpt>
      <trkpt lat="45.252302996814251" lon="3.302411008626223">
        <ele>701.89999999999998</ele>
        <time>2025-04-25T06:46:17Z</time>
      </trkpt>
      <trkpt lat="45.25215002708137" lon="3.302443027496338">
        <ele>702.38</ele>
        <time>2025-04-25T06:46:18Z</time>
      </trkpt>
      <trkpt lat="45.251988004893064" lon="3.302398016676307">
        <ele>702.86000000000001</ele>
        <time>2025-04-25T06:46:19Z</time>
      </trkpt>
      <trkpt lat="45.251847021281719" lon="3.302359040826559">
        <ele>703.34000000000003</ele>
        <time>2025-04-25T06:46:20Z</time>
      </trkpt>
      <trkpt lat="45.251727998256683" lon="3.30227798782289">
        <ele>703.82000000000005</ele>
        <time>2025-04-25T06:46:21Z</time>
      </trkpt>
      <trkpt lat="45.251641999930143" lon="3.302137004211545">
        <ele>704.77999999999997</ele>
        <time>2025-04-25T06:46:22Z</time>
      </trkpt>
      <trkpt lat="45.251551978290081" lon="3.301990991458297">
        <ele>705.25999999999999</ele>
        <time>2025-04-25T06:46:23Z</time>
      </trkpt>
      <trkpt lat="45.251457011327147" lon="3.301836010068655">
        <ele>706.23000000000002</ele>
        <time>2025-04-25T06:46:24Z</time>
      </trkpt>
      <trkpt lat="45.25135600939393" lon="3.301670970395207">
        <ele>707.19000000000005</ele>
        <time>2025-04-25T06:46:25Z</time>
      </trkpt>
      <trkpt lat="45.251233968883753" lon="3.3015660289675">
        <ele>708.14999999999998</ele>
        <time>2025-04-25T06:46:26Z</time>
      </trkpt>
      <trkpt lat="45.251086028292775" lon="3.301541972905397">
        <ele>708.63</ele>
        <time>2025-04-25T06:46:27Z</time>
      </trkpt>
      <trkpt lat="45.250930041074753" lon="3.301541972905397">
        <ele>709.59000000000003</ele>
        <time>2025-04-25T06:46:28Z</time>
      </trkpt>
      <trkpt lat="45.250759972259402" lon="3.301605004817247">
        <ele>710.07000000000005</ele>
        <time>2025-04-25T06:46:29Z</time>
      </trkpt>
      <trkpt lat="45.25058101862669" lon="3.301683040335774">
        <ele>710.54999999999995</ele>
        <time>2025-04-25T06:46:30Z</time>
      </trkpt>
      <trkpt lat="45.249512996524572" lon="3.301912033930421">
        <ele>715.84000000000003</ele>
        <time>2025-04-25T06:46:36Z</time>
      </trkpt>
      <trkpt lat="45.249364972114563" lon="3.301887977868319">
        <ele>716.32000000000005</ele>
        <time>2025-04-25T06:46:37Z</time>
      </trkpt>
      <trkpt lat="45.249243015423417" lon="3.301813965663314">
        <ele>717.27999999999997</ele>
        <time>2025-04-25T06:46:38Z</time>
      </trkpt>
      <trkpt lat="45.249134972691536" lon="3.30174196511507">
        <ele>718.24000000000001</ele>
        <time>2025-04-25T06:46:39Z</time>
      </trkpt>
      <trkpt lat="45.249060960486531" lon="3.301629982888699">
        <ele>719.20000000000005</ele>
        <time>2025-04-25T06:46:40Z</time>
      </trkpt>
      <trkpt lat="45.249001029878855" lon="3.301529986783862">
        <ele>720.15999999999997</ele>
        <time>2025-04-25T06:46:41Z</time>
      </trkpt>
      <trkpt lat="45.248947972431779" lon="3.301441976800561">
        <ele>721.13</ele>
        <time>2025-04-25T06:46:42Z</time>
      </trkpt>
      <trkpt lat="45.248891981318593" lon="3.301358995959163">
        <ele>722.09000000000003</ele>
        <time>2025-04-25T06:46:43Z</time>
      </trkpt>
      <trkpt lat="45.248375991359353" lon="3.300645025447011">
        <ele>728.34000000000003</ele>
        <time>2025-04-25T06:46:51Z</time>
      </trkpt>
      <trkpt lat="45.248226961120963" lon="3.300508987158537">
        <ele>729.77999999999997</ele>
        <time>2025-04-25T06:46:53Z</time>
      </trkpt>
      <trkpt lat="45.247973995283246" lon="3.300351994112134">
        <ele>731.22000000000003</ele>
        <time>2025-04-25T06:46:56Z</time>
      </trkpt>
      <trkpt lat="45.247900988906622" lon="3.300318969413638">
        <ele>731.70000000000005</ele>
        <time>2025-04-25T06:46:57Z</time>
      </trkpt>
      <trkpt lat="45.247800992801785" lon="3.300293991342187">
        <ele>732.17999999999995</ele>
        <time>2025-04-25T06:46:58Z</time>
      </trkpt>
      <trkpt lat="45.247643999755383" lon="3.300254009664059">
        <ele>732.65999999999997</ele>
        <time>2025-04-25T06:47:00Z</time>
      </trkpt>
      <trkpt lat="45.247536962851882" lon="3.300289968028665">
        <ele>733.13999999999999</ele>
        <time>2025-04-25T06:47:01Z</time>
      </trkpt>
      <trkpt lat="45.247449958696961" lon="3.300318969413638">
        <ele>733.13999999999999</ele>
        <time>2025-04-25T06:47:02Z</time>
      </trkpt>
      <trkpt lat="45.247363038361073" lon="3.300378983840346">
        <ele>733.13999999999999</ele>
        <time>2025-04-25T06:47:03Z</time>
      </trkpt>
      <trkpt lat="45.247276034206152" lon="3.300438998267055">
        <ele>733.13999999999999</ele>
        <time>2025-04-25T06:47:04Z</time>
      </trkpt>
      <trkpt lat="45.247185006737709" lon="3.300503036007285">
        <ele>732.65999999999997</ele>
        <time>2025-04-25T06:47:05Z</time>
      </trkpt>
      <trkpt lat="45.247086016461253" lon="3.30055802129209">
        <ele>732.65999999999997</ele>
        <time>2025-04-25T06:47:06Z</time>
      </trkpt>
      <trkpt lat="45.246983002871275" lon="3.300614012405276">
        <ele>733.13999999999999</ele>
        <time>2025-04-25T06:47:07Z</time>
      </trkpt>
      <trkpt lat="45.246876971796155" lon="3.300649970769882">
        <ele>733.13999999999999</ele>
        <time>2025-04-25T06:47:08Z</time>
      </trkpt>
      <trkpt lat="45.246759038418531" lon="3.300651982426643">
        <ele>733.62</ele>
        <time>2025-04-25T06:47:09Z</time>
      </trkpt>
      <trkpt lat="45.24663096293807" lon="3.30062298104167">
        <ele>733.62</ele>
        <time>2025-04-25T06:47:10Z</time>
      </trkpt>
      <trkpt lat="45.245508039370179" lon="3.300220984965563">
        <ele>736.02999999999997</ele>
        <time>2025-04-25T06:47:17Z</time>
      </trkpt>
      <trkpt lat="45.243895025923848" lon="3.299266034737229">
        <ele>740.35000000000002</ele>
        <time>2025-04-25T06:47:26Z</time>
      </trkpt>
      <trkpt lat="45.242515029385686" lon="3.298298008739948">
        <ele>748.03999999999996</ele>
        <time>2025-04-25T06:47:34Z</time>
      </trkpt>
      <trkpt lat="45.242199031636119" lon="3.298122994601727">
        <ele>749</ele>
        <time>2025-04-25T06:47:36Z</time>
      </trkpt>
      <trkpt lat="45.242061987519264" lon="3.298009000718594">
        <ele>749.97000000000003</ele>
        <time>2025-04-25T06:47:37Z</time>
      </trkpt>
      <trkpt lat="45.241954028606415" lon="3.297852007672191">
        <ele>750.45000000000005</ele>
        <time>2025-04-25T06:47:38Z</time>
      </trkpt>
      <trkpt lat="45.241841962561011" lon="3.297683028504252">
        <ele>751.40999999999997</ele>
        <time>2025-04-25T06:47:39Z</time>
      </trkpt>
      <trkpt lat="45.241752024739981" lon="3.29748596996069">
        <ele>752.37</ele>
        <time>2025-04-25T06:47:40Z</time>
      </trkpt>
      <trkpt lat="45.241510039195418" lon="3.296955982223153">
        <ele>754.28999999999996</ele>
        <time>2025-04-25T06:47:43Z</time>
      </trkpt>
      <trkpt lat="45.241507021710277" lon="3.296774011105299">
        <ele>754.76999999999998</ele>
        <time>2025-04-25T06:47:44Z</time>
      </trkpt>
      <trkpt lat="45.241507021710277" lon="3.296619029715657">
        <ele>755.25</ele>
        <time>2025-04-25T06:47:45Z</time>
      </trkpt>
      <trkpt lat="45.241549015045166" lon="3.296490032225847">
        <ele>755.73000000000002</ele>
        <time>2025-04-25T06:47:46Z</time>
      </trkpt>
      <trkpt lat="45.241638030856848" lon="3.296380983665586">
        <ele>756.21000000000004</ele>
        <time>2025-04-25T06:47:47Z</time>
      </trkpt>
      <trkpt lat="45.241753030568361" lon="3.296290040016174">
        <ele>756.69000000000005</ele>
        <time>2025-04-25T06:47:48Z</time>
      </trkpt>
      <trkpt lat="45.241894014179707" lon="3.296247962862253">
        <ele>757.17999999999995</ele>
        <time>2025-04-25T06:47:49Z</time>
      </trkpt>
      <trkpt lat="45.242046983912587" lon="3.296202030032873">
        <ele>757.17999999999995</ele>
        <time>2025-04-25T06:47:50Z</time>
      </trkpt>
      <trkpt lat="45.242348983883858" lon="3.29610999673605">
        <ele>757.65999999999997</ele>
        <time>2025-04-25T06:47:52Z</time>
      </trkpt>
      <trkpt lat="45.242472030222416" lon="3.296048976480961">
        <ele>757.65999999999997</ele>
        <time>2025-04-25T06:47:53Z</time>
      </trkpt>
      <trkpt lat="45.242599016055465" lon="3.295913022011519">
        <ele>757.65999999999997</ele>
        <time>2025-04-25T06:47:54Z</time>
      </trkpt>
      <trkpt lat="45.242723990231752" lon="3.295776983723044">
        <ele>758.13999999999999</ele>
        <time>2025-04-25T06:47:55Z</time>
      </trkpt>
      <trkpt lat="45.242839995771646" lon="3.295603981241584">
        <ele>758.62</ele>
        <time>2025-04-25T06:47:56Z</time>
      </trkpt>
      <trkpt lat="45.242950972169638" lon="3.295425027608872">
        <ele>759.10000000000002</ele>
        <time>2025-04-25T06:47:57Z</time>
      </trkpt>
      <trkpt lat="45.243208967149258" lon="3.294867966324091">
        <ele>759.58000000000004</ele>
        <time>2025-04-25T06:48:00Z</time>
      </trkpt>
      <trkpt lat="45.243264958262444" lon="3.294678032398224">
        <ele>760.05999999999995</ele>
        <time>2025-04-25T06:48:01Z</time>
      </trkpt>
      <trkpt lat="45.243303012102842" lon="3.29447703436017">
        <ele>760.05999999999995</ele>
        <time>2025-04-25T06:48:02Z</time>
      </trkpt>
      <trkpt lat="45.243328996002674" lon="3.294265978038311">
        <ele>760.53999999999996</ele>
        <time>2025-04-25T06:48:03Z</time>
      </trkpt>
      <trkpt lat="45.243322961032391" lon="3.294047964736819">
        <ele>761.01999999999998</ele>
        <time>2025-04-25T06:48:04Z</time>
      </trkpt>
      <trkpt lat="45.243316004052758" lon="3.293820982798934">
        <ele>761.01999999999998</ele>
        <time>2025-04-25T06:48:05Z</time>
      </trkpt>
      <trkpt lat="45.243290020152926" lon="3.292885981500149">
        <ele>762.46000000000004</ele>
        <time>2025-04-25T06:48:09Z</time>
      </trkpt>
      <trkpt lat="45.243250038474798" lon="3.292660005390644">
        <ele>762.94000000000005</ele>
        <time>2025-04-25T06:48:10Z</time>
      </trkpt>
      <trkpt lat="45.243193963542581" lon="3.292434029281139">
        <ele>763.41999999999996</ele>
        <time>2025-04-25T06:48:11Z</time>
      </trkpt>
      <trkpt lat="45.243135960772634" lon="3.292203024029732">
        <ele>763.89999999999998</ele>
        <time>2025-04-25T06:48:12Z</time>
      </trkpt>
      <trkpt lat="45.243052979931235" lon="3.291996996849775">
        <ele>763.89999999999998</ele>
        <time>2025-04-25T06:48:13Z</time>
      </trkpt>
      <trkpt lat="45.242965975776315" lon="3.291821982711554">
        <ele>764.38999999999999</ele>
        <time>2025-04-25T06:48:14Z</time>
      </trkpt>
      <trkpt lat="45.242887018248439" lon="3.29166398383677">
        <ele>764.38999999999999</ele>
        <time>2025-04-25T06:48:15Z</time>
      </trkpt>
      <trkpt lat="45.242758020758629" lon="3.291582008823752">
        <ele>764.38999999999999</ele>
        <time>2025-04-25T06:48:16Z</time>
      </trkpt>
      <trkpt lat="45.242624999955297" lon="3.291528029367328">
        <ele>764.87</ele>
        <time>2025-04-25T06:48:17Z</time>
      </trkpt>
      <trkpt lat="45.242479993030429" lon="3.291493998840451">
        <ele>764.87</ele>
        <time>2025-04-25T06:48:18Z</time>
      </trkpt>
      <trkpt lat="45.242065005004406" lon="3.291397020220757">
        <ele>766.30999999999995</ele>
        <time>2025-04-25T06:48:21Z</time>
      </trkpt>
      <trkpt lat="45.241961991414428" lon="3.291311021894217">
        <ele>766.78999999999996</ele>
        <time>2025-04-25T06:48:22Z</time>
      </trkpt>
      <trkpt lat="45.241890996694565" lon="3.291193004697561">
        <ele>767.26999999999998</ele>
        <time>2025-04-25T06:48:23Z</time>
      </trkpt>
      <trkpt lat="45.241850009188056" lon="3.291069958359003">
        <ele>767.75</ele>
        <time>2025-04-25T06:48:24Z</time>
      </trkpt>
      <trkpt lat="45.241855038329959" lon="3.29086996614933">
        <ele>768.23000000000002</ele>
        <time>2025-04-25T06:48:25Z</time>
      </trkpt>
      <trkpt lat="45.241860989481211" lon="3.290677014738321">
        <ele>769.19000000000005</ele>
        <time>2025-04-25T06:48:26Z</time>
      </trkpt>
      <trkpt lat="45.241866018623114" lon="3.290470987558365">
        <ele>770.14999999999998</ele>
        <time>2025-04-25T06:48:27Z</time>
      </trkpt>
      <trkpt lat="45.241870963945985" lon="3.290277030318975">
        <ele>771.11000000000001</ele>
        <time>2025-04-25T06:48:28Z</time>
      </trkpt>
      <trkpt lat="45.241832993924618" lon="3.290085000917316">
        <ele>771.60000000000002</ele>
        <time>2025-04-25T06:48:29Z</time>
      </trkpt>
      <trkpt lat="45.241774991154671" lon="3.289905041456223">
        <ele>772.08000000000004</ele>
        <time>2025-04-25T06:48:30Z</time>
      </trkpt>
      <trkpt lat="45.241680024191737" lon="3.289755005389452">
        <ele>772.55999999999995</ele>
        <time>2025-04-25T06:48:31Z</time>
      </trkpt>
      <trkpt lat="45.241583967581391" lon="3.289604969322681">
        <ele>773.51999999999998</ele>
        <time>2025-04-25T06:48:32Z</time>
      </trkpt>
      <trkpt lat="45.241481959819794" lon="3.289461974054575">
        <ele>774</ele>
        <time>2025-04-25T06:48:33Z</time>
      </trkpt>
      <trkpt lat="45.241367965936661" lon="3.2893639896065">
        <ele>774.96000000000004</ele>
        <time>2025-04-25T06:48:34Z</time>
      </trkpt>
      <trkpt lat="45.241243997588754" lon="3.289332976564765">
        <ele>775.44000000000005</ele>
        <time>2025-04-25T06:48:35Z</time>
      </trkpt>
      <trkpt lat="45.241120029240847" lon="3.289311015978456">
        <ele>776.39999999999998</ele>
        <time>2025-04-25T06:48:36Z</time>
      </trkpt>
      <trkpt lat="45.241002012044191" lon="3.289370024576783">
        <ele>777.36000000000001</ele>
        <time>2025-04-25T06:48:37Z</time>
      </trkpt>
      <trkpt lat="45.240888018161058" lon="3.289482006803155">
        <ele>778.32000000000005</ele>
        <time>2025-04-25T06:48:38Z</time>
      </trkpt>
      <trkpt lat="45.240762960165739" lon="3.289611004292965">
        <ele>778.80999999999995</ele>
        <time>2025-04-25T06:48:39Z</time>
      </trkpt>
      <trkpt lat="45.24022601544857" lon="3.29013797454536">
        <ele>782.64999999999998</ele>
        <time>2025-04-25T06:48:43Z</time>
      </trkpt>
      <trkpt lat="45.240102969110012" lon="3.290208969265223">
        <ele>783.61000000000001</ele>
        <time>2025-04-25T06:48:44Z</time>
      </trkpt>
      <trkpt lat="45.23998998105526" lon="3.290195977315307">
        <ele>784.57000000000005</ele>
        <time>2025-04-25T06:48:45Z</time>
      </trkpt>
      <trkpt lat="45.239897025749087" lon="3.290140992030501">
        <ele>785.04999999999995</ele>
        <time>2025-04-25T06:48:46Z</time>
      </trkpt>
      <trkpt lat="45.239798035472631" lon="3.290026998147368">
        <ele>786.01999999999998</ele>
        <time>2025-04-25T06:48:47Z</time>
      </trkpt>
      <trkpt lat="45.239687981083989" lon="3.2899010181427">
        <ele>786.98000000000002</ele>
        <time>2025-04-25T06:48:48Z</time>
      </trkpt>
      <trkpt lat="45.239569963887334" lon="3.289764979854226">
        <ele>787.94000000000005</ele>
        <time>2025-04-25T06:48:49Z</time>
      </trkpt>
      <trkpt lat="45.239457981660962" lon="3.289586026221514">
        <ele>788.41999999999996</ele>
        <time>2025-04-25T06:48:50Z</time>
      </trkpt>
      <trkpt lat="45.2393679600209" lon="3.289395002648234">
        <ele>789.38</ele>
        <time>2025-04-25T06:48:51Z</time>
      </trkpt>
      <trkpt lat="45.239287996664643" lon="3.289200039580464">
        <ele>790.34000000000003</ele>
        <time>2025-04-25T06:48:52Z</time>
      </trkpt>
      <trkpt lat="45.239218007773161" lon="3.288989989086986">
        <ele>791.77999999999997</ele>
        <time>2025-04-25T06:48:53Z</time>
      </trkpt>
      <trkpt lat="45.239148018881679" lon="3.288779016584158">
        <ele>793.22000000000003</ele>
        <time>2025-04-25T06:48:54Z</time>
      </trkpt>
      <trkpt lat="45.239069983363152" lon="3.288559997454286">
        <ele>794.66999999999996</ele>
        <time>2025-04-25T06:48:55Z</time>
      </trkpt>
      <trkpt lat="45.238955989480019" lon="3.288364028558135">
        <ele>795.63</ele>
        <time>2025-04-25T06:48:56Z</time>
      </trkpt>
      <trkpt lat="45.23884903639555" lon="3.288178034126759">
        <ele>796.59000000000003</ele>
        <time>2025-04-25T06:48:57Z</time>
      </trkpt>
      <trkpt lat="45.238710986450315" lon="3.288038978353143">
        <ele>797.54999999999995</ele>
        <time>2025-04-25T06:48:58Z</time>
      </trkpt>
      <trkpt lat="45.238568997010589" lon="3.287922972813249">
        <ele>798.99000000000001</ele>
        <time>2025-04-25T06:48:59Z</time>
      </trkpt>
      <trkpt lat="45.238427007570863" lon="3.28783999197185">
        <ele>799.95000000000005</ele>
        <time>2025-04-25T06:49:00Z</time>
      </trkpt>
      <trkpt lat="45.23829398676753" lon="3.28781702555716">
        <ele>800.91999999999996</ele>
        <time>2025-04-25T06:49:01Z</time>
      </trkpt>
      <trkpt lat="45.238159038126469" lon="3.287830017507076">
        <ele>801.88</ele>
        <time>2025-04-25T06:49:02Z</time>
      </trkpt>
      <trkpt lat="45.238032974302769" lon="3.287935964763165">
        <ele>803.32000000000005</ele>
        <time>2025-04-25T06:49:03Z</time>
      </trkpt>
      <trkpt lat="45.237894002348185" lon="3.288051970303059">
        <ele>804.27999999999997</ele>
        <time>2025-04-25T06:49:04Z</time>
      </trkpt>
      <trkpt lat="45.237745977938175" lon="3.288176022469997">
        <ele>805.72000000000003</ele>
        <time>2025-04-25T06:49:05Z</time>
      </trkpt>
      <trkpt lat="45.236933017149568" lon="3.288835007697344">
        <ele>811.49000000000001</ele>
        <time>2025-04-25T06:49:10Z</time>
      </trkpt>
      <trkpt lat="45.23676797747612" lon="3.288898961618543">
        <ele>812.45000000000005</ele>
        <time>2025-04-25T06:49:11Z</time>
      </trkpt>
      <trkpt lat="45.236608972772956" lon="3.288960987702012">
        <ele>813.88999999999999</ele>
        <time>2025-04-25T06:49:12Z</time>
      </trkpt>
      <trkpt lat="45.236449968069792" lon="3.288968028500676">
        <ele>814.85000000000002</ele>
        <time>2025-04-25T06:49:13Z</time>
      </trkpt>
      <trkpt lat="45.236293980851769" lon="3.288968028500676">
        <ele>815.82000000000005</ele>
        <time>2025-04-25T06:49:14Z</time>
      </trkpt>
      <trkpt lat="45.236150985583663" lon="3.288931986317039">
        <ele>816.77999999999997</ele>
        <time>2025-04-25T06:49:15Z</time>
      </trkpt>
      <trkpt lat="45.236021988093853" lon="3.288894016295672">
        <ele>817.25999999999999</ele>
        <time>2025-04-25T06:49:16Z</time>
      </trkpt>
      <trkpt lat="45.235909000039101" lon="3.288860991597176">
        <ele>818.22000000000003</ele>
        <time>2025-04-25T06:49:17Z</time>
      </trkpt>
      <trkpt lat="45.235829958692193" lon="3.288746997714043">
        <ele>819.17999999999995</ele>
        <time>2025-04-25T06:49:18Z</time>
      </trkpt>
      <trkpt lat="45.235781008377671" lon="3.288627974689007">
        <ele>819.65999999999997</ele>
        <time>2025-04-25T06:49:19Z</time>
      </trkpt>
      <trkpt lat="45.235791988670826" lon="3.288495959714055">
        <ele>820.13999999999999</ele>
        <time>2025-04-25T06:49:20Z</time>
      </trkpt>
      <trkpt lat="45.235829958692193" lon="3.288357993587852">
        <ele>820.62</ele>
        <time>2025-04-25T06:49:21Z</time>
      </trkpt>
      <trkpt lat="45.235905982553959" lon="3.288231007754803">
        <ele>821.10000000000002</ele>
        <time>2025-04-25T06:49:22Z</time>
      </trkpt>
      <trkpt lat="45.235988041386008" lon="3.288093963637948">
        <ele>822.05999999999995</ele>
        <time>2025-04-25T06:49:23Z</time>
      </trkpt>
      <trkpt lat="45.23605702444911" lon="3.287963960319758">
        <ele>822.05999999999995</ele>
        <time>2025-04-25T06:49:24Z</time>
      </trkpt>
      <trkpt lat="45.236063981428742" lon="3.287800010293722">
        <ele>822.05999999999995</ele>
        <time>2025-04-25T06:49:25Z</time>
      </trkpt>
      <trkpt lat="45.236070016399026" lon="3.287674030289054">
        <ele>821.58000000000004</ele>
        <time>2025-04-25T06:49:26Z</time>
      </trkpt>
      <trkpt lat="45.236072028055787" lon="3.287612004205585">
        <ele>821.58000000000004</ele>
        <time>2025-04-25T06:49:27Z</time>
      </trkpt>
      <trkpt lat="45.236074039712548" lon="3.287573028355837">
        <ele>821.58000000000004</ele>
        <time>2025-04-25T06:49:28Z</time>
      </trkpt>
      <trkpt lat="45.236077979207039" lon="3.287487030029297">
        <ele>821.58000000000004</ele>
        <time>2025-04-25T06:49:29Z</time>
      </trkpt>
      <trkpt lat="45.236022993922234" lon="3.287528017535806">
        <ele>821.10000000000002</ele>
        <time>2025-04-25T06:49:30Z</time>
      </trkpt>
      <trkpt lat="45.235991980880499" lon="3.287550983950496">
        <ele>821.10000000000002</ele>
        <time>2025-04-25T06:49:31Z</time>
      </trkpt>
      <trkpt lat="45.235972031950951" lon="3.287617033347487">
        <ele>820.62</ele>
        <time>2025-04-25T06:49:32Z</time>
      </trkpt>
      <trkpt lat="45.235949987545609" lon="3.28768702223897">
        <ele>820.62</ele>
        <time>2025-04-25T06:49:33Z</time>
      </trkpt>
      <trkpt lat="45.235925009474158" lon="3.287768997251988">
        <ele>820.62</ele>
        <time>2025-04-25T06:49:34Z</time>
      </trkpt>
      <trkpt lat="45.235895002260804" lon="3.287867987528443">
        <ele>820.62</ele>
        <time>2025-04-25T06:49:35Z</time>
      </trkpt>
      <trkpt lat="45.235862983390689" lon="3.287972006946802">
        <ele>821.10000000000002</ele>
        <time>2025-04-25T06:49:36Z</time>
      </trkpt>
      <trkpt lat="45.235831970348954" lon="3.288072003051639">
        <ele>821.58000000000004</ele>
        <time>2025-04-25T06:49:37Z</time>
      </trkpt>
      <trkpt lat="45.235761981457472" lon="3.288174010813236">
        <ele>822.05999999999995</ele>
        <time>2025-04-25T06:49:38Z</time>
      </trkpt>
      <trkpt lat="45.235684029757977" lon="3.288261014968157">
        <ele>822.54999999999995</ele>
        <time>2025-04-25T06:49:39Z</time>
      </trkpt>
      <trkpt lat="45.235597025603056" lon="3.288356987759471">
        <ele>823.02999999999997</ele>
        <time>2025-04-25T06:49:40Z</time>
      </trkpt>
      <trkpt lat="45.235508009791374" lon="3.288455978035927">
        <ele>823.02999999999997</ele>
        <time>2025-04-25T06:49:41Z</time>
      </trkpt>
      <trkpt lat="45.235429974272847" lon="3.288568966090679">
        <ele>823.02999999999997</ele>
        <time>2025-04-25T06:49:42Z</time>
      </trkpt>
      <trkpt lat="45.235411031171679" lon="3.288713973015547">
        <ele>823.02999999999997</ele>
        <time>2025-04-25T06:49:43Z</time>
      </trkpt>
      <trkpt lat="45.235393010079861" lon="3.28884799964726">
        <ele>823.02999999999997</ele>
        <time>2025-04-25T06:49:44Z</time>
      </trkpt>
      <trkpt lat="45.23541203700006" lon="3.288937015458942">
        <ele>823.02999999999997</ele>
        <time>2025-04-25T06:49:45Z</time>
      </trkpt>
      <trkpt lat="45.235441038385034" lon="3.28904296271503">
        <ele>823.02999999999997</ele>
        <time>2025-04-25T06:49:46Z</time>
      </trkpt>
      <trkpt lat="45.235483031719923" lon="3.289152011275291">
        <ele>823.50999999999999</ele>
        <time>2025-04-25T06:49:47Z</time>
      </trkpt>
      <trkpt lat="45.235540028661489" lon="3.289270028471947">
        <ele>824.47000000000003</ele>
        <time>2025-04-25T06:49:48Z</time>
      </trkpt>
      <trkpt lat="45.235729040578008" lon="3.289656015112996">
        <ele>828.30999999999995</ele>
        <time>2025-04-25T06:49:51Z</time>
      </trkpt>
      <trkpt lat="45.235858038067818" lon="3.289919961243868">
        <ele>831.20000000000005</ele>
        <time>2025-04-25T06:49:53Z</time>
      </trkpt>
      <trkpt lat="45.235921991989017" lon="3.290040995925665">
        <ele>832.15999999999997</ele>
        <time>2025-04-25T06:49:54Z</time>
      </trkpt>
      <trkpt lat="45.23599399253726" lon="3.29013898037374">
        <ele>832.63999999999999</ele>
        <time>2025-04-25T06:49:55Z</time>
      </trkpt>
      <trkpt lat="45.236059036105871" lon="3.290227996185422">
        <ele>833.60000000000002</ele>
        <time>2025-04-25T06:49:56Z</time>
      </trkpt>
      <trkpt lat="45.236116033047438" lon="3.290305025875568">
        <ele>833.12</ele>
        <time>2025-04-25T06:49:57Z</time>
      </trkpt>
      <trkpt lat="45.236142016947269" lon="3.290422037243843">
        <ele>833.12</ele>
        <time>2025-04-25T06:49:58Z</time>
      </trkpt>
      <trkpt lat="45.236142016947269" lon="3.290552040562034">
        <ele>832.63999999999999</ele>
        <time>2025-04-25T06:49:59Z</time>
      </trkpt>
      <trkpt lat="45.236106980592012" lon="3.290699981153011">
        <ele>832.63999999999999</ele>
        <time>2025-04-25T06:50:00Z</time>
      </trkpt>
      <trkpt lat="45.236045038327575" lon="3.290843982249498">
        <ele>832.63999999999999</ele>
        <time>2025-04-25T06:50:01Z</time>
      </trkpt>
      <trkpt lat="45.235976977273822" lon="3.291002986952663">
        <ele>832.15999999999997</ele>
        <time>2025-04-25T06:50:02Z</time>
      </trkpt>
      <trkpt lat="45.235904976725578" lon="3.291169032454491">
        <ele>832.63999999999999</ele>
        <time>2025-04-25T06:50:03Z</time>
      </trkpt>
      <trkpt lat="45.235181031748652" lon="3.292647013440728">
        <ele>834.55999999999995</ele>
        <time>2025-04-25T06:50:12Z</time>
      </trkpt>
      <trkpt lat="45.234670992940664" lon="3.293985016644001">
        <ele>839.37</ele>
        <time>2025-04-25T06:50:20Z</time>
      </trkpt>
      <trkpt lat="45.234292969107628" lon="3.294997969642282">
        <ele>841.28999999999996</ele>
        <time>2025-04-25T06:50:26Z</time>
      </trkpt>
      <trkpt lat="45.234205964952707" lon="3.295097965747118">
        <ele>841.28999999999996</ele>
        <time>2025-04-25T06:50:27Z</time>
      </trkpt>
      <trkpt lat="45.234104041010141" lon="3.295182958245277">
        <ele>841.76999999999998</ele>
        <time>2025-04-25T06:50:28Z</time>
      </trkpt>
      <trkpt lat="45.233998009935021" lon="3.295270968228579">
        <ele>841.76999999999998</ele>
        <time>2025-04-25T06:50:29Z</time>
      </trkpt>
      <trkpt lat="45.23388896137476" lon="3.295361995697022">
        <ele>841.76999999999998</ele>
        <time>2025-04-25T06:50:30Z</time>
      </trkpt>
      <trkpt lat="45.233774967491627" lon="3.29540197737515">
        <ele>841.76999999999998</ele>
        <time>2025-04-25T06:50:31Z</time>
      </trkpt>
      <trkpt lat="45.233646975830197" lon="3.295446988195181">
        <ele>841.28999999999996</ele>
        <time>2025-04-25T06:50:32Z</time>
      </trkpt>
      <trkpt lat="45.233516972512007" lon="3.295491999015212">
        <ele>840.80999999999995</ele>
        <time>2025-04-25T06:50:33Z</time>
      </trkpt>
      <trkpt lat="45.231921980157495" lon="3.296051993966103">
        <ele>838.40999999999997</ele>
        <time>2025-04-25T06:50:46Z</time>
      </trkpt>
      <trkpt lat="45.231809997931123" lon="3.296127011999488">
        <ele>837.92999999999995</ele>
        <time>2025-04-25T06:50:47Z</time>
      </trkpt>
      <trkpt lat="45.231704972684383" lon="3.296222984790802">
        <ele>838.40999999999997</ele>
        <time>2025-04-25T06:50:48Z</time>
      </trkpt>
      <trkpt lat="45.231595002114773" lon="3.296322980895639">
        <ele>837.92999999999995</ele>
        <time>2025-04-25T06:50:49Z</time>
      </trkpt>
      <trkpt lat="45.230503007769585" lon="3.297319002449513">
        <ele>832.15999999999997</ele>
        <time>2025-04-25T06:50:59Z</time>
      </trkpt>
      <trkpt lat="45.230417009443045" lon="3.29739703796804">
        <ele>831.67999999999995</ele>
        <time>2025-04-25T06:51:00Z</time>
      </trkpt>
      <trkpt lat="45.230350960046053" lon="3.29748303629458">
        <ele>831.20000000000005</ele>
        <time>2025-04-25T06:51:01Z</time>
      </trkpt>
      <trkpt lat="45.230288011953235" lon="3.297567022964358">
        <ele>830.72000000000003</ele>
        <time>2025-04-25T06:51:02Z</time>
      </trkpt>
      <trkpt lat="45.230254987254739" lon="3.297668024897575">
        <ele>830.24000000000001</ele>
        <time>2025-04-25T06:51:03Z</time>
      </trkpt>
      <trkpt lat="45.230222968384624" lon="3.297774977982044">
        <ele>829.75999999999999</ele>
        <time>2025-04-25T06:51:04Z</time>
      </trkpt>
      <trkpt lat="45.230217017233372" lon="3.297874974086881">
        <ele>828.78999999999996</ele>
        <time>2025-04-25T06:51:05Z</time>
      </trkpt>
      <trkpt lat="45.230212993919849" lon="3.297998020425439">
        <ele>827.83000000000004</ele>
        <time>2025-04-25T06:51:06Z</time>
      </trkpt>
      <trkpt lat="45.230208970606327" lon="3.298133974894881">
        <ele>827.35000000000002</ele>
        <time>2025-04-25T06:51:07Z</time>
      </trkpt>
      <trkpt lat="45.230205031111836" lon="3.298273030668497">
        <ele>826.38999999999999</ele>
        <time>2025-04-25T06:51:08Z</time>
      </trkpt>
      <trkpt lat="45.230201007798314" lon="3.298405967652798">
        <ele>825.42999999999995</ele>
        <time>2025-04-25T06:51:09Z</time>
      </trkpt>
      <trkpt lat="45.230212993919849" lon="3.298533037304878">
        <ele>824.47000000000003</ele>
        <time>2025-04-25T06:51:10Z</time>
      </trkpt>
      <trkpt lat="45.230255993083119" lon="3.298660023137927">
        <ele>823.50999999999999</ele>
        <time>2025-04-25T06:51:11Z</time>
      </trkpt>
      <trkpt lat="45.230327993631363" lon="3.298732023686171">
        <ele>823.02999999999997</ele>
        <time>2025-04-25T06:51:12Z</time>
      </trkpt>
      <trkpt lat="45.230405023321509" lon="3.298807963728905">
        <ele>822.54999999999995</ele>
        <time>2025-04-25T06:51:13Z</time>
      </trkpt>
      <trkpt lat="45.230497978627682" lon="3.298853980377317">
        <ele>822.54999999999995</ele>
        <time>2025-04-25T06:51:14Z</time>
      </trkpt>
      <trkpt lat="45.230592023581266" lon="3.298895973712206">
        <ele>823.02999999999997</ele>
        <time>2025-04-25T06:51:15Z</time>
      </trkpt>
      <trkpt lat="45.2306869905442" lon="3.298947019502521">
        <ele>823.50999999999999</ele>
        <time>2025-04-25T06:51:16Z</time>
      </trkpt>
      <trkpt lat="45.230783969163895" lon="3.298998987302184">
        <ele>823.99000000000001</ele>
        <time>2025-04-25T06:51:17Z</time>
      </trkpt>
      <trkpt lat="45.230882037431002" lon="3.299051960930228">
        <ele>824.47000000000003</ele>
        <time>2025-04-25T06:51:18Z</time>
      </trkpt>
      <trkpt lat="45.23163297213614" lon="3.299479018896818">
        <ele>825.90999999999997</ele>
        <time>2025-04-25T06:51:26Z</time>
      </trkpt>
      <trkpt lat="45.231700027361512" lon="3.299545990303159">
        <ele>825.90999999999997</ele>
        <time>2025-04-25T06:51:27Z</time>
      </trkpt>
      <trkpt lat="45.231754006817937" lon="3.299686973914504">
        <ele>826.38999999999999</ele>
        <time>2025-04-25T06:51:28Z</time>
      </trkpt>
      <trkpt lat="45.231799017637968" lon="3.29980599693954">
        <ele>826.38999999999999</ele>
        <time>2025-04-25T06:51:29Z</time>
      </trkpt>
      <trkpt lat="45.231846962124109" lon="3.299930971115828">
        <ele>826.38999999999999</ele>
        <time>2025-04-25T06:51:30Z</time>
      </trkpt>
      <trkpt lat="45.231989035382867" lon="3.300303965806961">
        <ele>826.38999999999999</ele>
        <time>2025-04-25T06:51:33Z</time>
      </trkpt>
      <trkpt lat="45.232033962383866" lon="3.300422988831997">
        <ele>826.87</ele>
        <time>2025-04-25T06:51:34Z</time>
      </trkpt>
      <trkpt lat="45.232105040922761" lon="3.300518039613962">
        <ele>827.35000000000002</ele>
        <time>2025-04-25T06:51:35Z</time>
      </trkpt>
      <trkpt lat="45.232185004279017" lon="3.300609989091754">
        <ele>827.83000000000004</ele>
        <time>2025-04-25T06:51:36Z</time>
      </trkpt>
      <trkpt lat="45.232264967635274" lon="3.300703028216958">
        <ele>827.83000000000004</ele>
        <time>2025-04-25T06:51:37Z</time>
      </trkpt>
      <trkpt lat="45.232517011463642" lon="3.300993964076042">
        <ele>829.26999999999998</ele>
        <time>2025-04-25T06:51:40Z</time>
      </trkpt>
      <trkpt lat="45.23259999230504" lon="3.301089014858007">
        <ele>828.78999999999996</ele>
        <time>2025-04-25T06:51:41Z</time>
      </trkpt>
      <trkpt lat="45.23266302421689" lon="3.301214994862676">
        <ele>828.30999999999995</ele>
        <time>2025-04-25T06:51:42Z</time>
      </trkpt>
      <trkpt lat="45.232725972309709" lon="3.301339969038963">
        <ele>828.30999999999995</ele>
        <time>2025-04-25T06:51:43Z</time>
      </trkpt>
      <trkpt lat="45.23277198895812" lon="3.30148296430707">
        <ele>827.83000000000004</ele>
        <time>2025-04-25T06:51:44Z</time>
      </trkpt>
      <trkpt lat="45.232766959816217" lon="3.30163199454546">
        <ele>827.35000000000002</ele>
        <time>2025-04-25T06:51:45Z</time>
      </trkpt>
      <trkpt lat="45.232762014493346" lon="3.301797034218907">
        <ele>826.38999999999999</ele>
        <time>2025-04-25T06:51:46Z</time>
      </trkpt>
      <trkpt lat="45.232755979523063" lon="3.301979005336762">
        <ele>825.90999999999997</ele>
        <time>2025-04-25T06:51:47Z</time>
      </trkpt>
      <trkpt lat="45.232694037258625" lon="3.303895024582744">
        <ele>823.02999999999997</ele>
        <time>2025-04-25T06:51:56Z</time>
      </trkpt>
      <trkpt lat="45.232739970088005" lon="3.305951021611691">
        <ele>818.70000000000005</ele>
        <time>2025-04-25T06:52:05Z</time>
      </trkpt>
      <trkpt lat="45.232850024476647" lon="3.307458003982902">
        <ele>805.72000000000003</ele>
        <time>2025-04-25T06:52:12Z</time>
      </trkpt>
      <trkpt lat="45.233030989766121" lon="3.308797013014555">
        <ele>791.29999999999995</ele>
        <time>2025-04-25T06:52:18Z</time>
      </trkpt>
      <trkpt lat="45.233080023899674" lon="3.308974960818887">
        <ele>789.38</ele>
        <time>2025-04-25T06:52:19Z</time>
      </trkpt>
      <trkpt lat="45.233138026669621" lon="3.309180987998843">
        <ele>787.46000000000004</ele>
        <time>2025-04-25T06:52:20Z</time>
      </trkpt>
      <trkpt lat="45.233185971155763" lon="3.309285007417202">
        <ele>786.01999999999998</ele>
        <time>2025-04-25T06:52:21Z</time>
      </trkpt>
      <trkpt lat="45.233255960047245" lon="3.309438982978463">
        <ele>784.57000000000005</ele>
        <time>2025-04-25T06:52:22Z</time>
      </trkpt>
      <trkpt lat="45.233326032757759" lon="3.309590024873614">
        <ele>782.64999999999998</ele>
        <time>2025-04-25T06:52:23Z</time>
      </trkpt>
      <trkpt lat="45.233378000557423" lon="3.309741988778114">
        <ele>781.21000000000004</ele>
        <time>2025-04-25T06:52:24Z</time>
      </trkpt>
      <trkpt lat="45.23339400999248" lon="3.309913985431194">
        <ele>779.76999999999998</ele>
        <time>2025-04-25T06:52:25Z</time>
      </trkpt>
      <trkpt lat="45.233481014147401" lon="3.310875976458192">
        <ele>775.44000000000005</ele>
        <time>2025-04-25T06:52:30Z</time>
      </trkpt>
      <trkpt lat="45.233540022745728" lon="3.311013020575047">
        <ele>774.96000000000004</ele>
        <time>2025-04-25T06:52:31Z</time>
      </trkpt>
      <trkpt lat="45.233624009415507" lon="3.311118967831135">
        <ele>774.48000000000002</ele>
        <time>2025-04-25T06:52:32Z</time>
      </trkpt>
      <trkpt lat="45.233720988035202" lon="3.311233967542648">
        <ele>774</ele>
        <time>2025-04-25T06:52:33Z</time>
      </trkpt>
      <trkpt lat="45.233825007453561" lon="3.311357013881207">
        <ele>773.51999999999998</ele>
        <time>2025-04-25T06:52:34Z</time>
      </trkpt>
      <trkpt lat="45.234133964404464" lon="3.311727996915579">
        <ele>771.60000000000002</ele>
        <time>2025-04-25T06:52:37Z</time>
      </trkpt>
      <trkpt lat="45.234201019629836" lon="3.311845008283854">
        <ele>770.63</ele>
        <time>2025-04-25T06:52:38Z</time>
      </trkpt>
      <trkpt lat="45.234223986044526" lon="3.311995966359973">
        <ele>770.14999999999998</ele>
        <time>2025-04-25T06:52:39Z</time>
      </trkpt>
      <trkpt lat="45.234222980216146" lon="3.312152037397027">
        <ele>769.19000000000005</ele>
        <time>2025-04-25T06:52:40Z</time>
      </trkpt>
      <trkpt lat="45.234200013801455" lon="3.312324034050107">
        <ele>768.71000000000004</ele>
        <time>2025-04-25T06:52:41Z</time>
      </trkpt>
      <trkpt lat="45.234174029901624" lon="3.312513967975974">
        <ele>767.75</ele>
        <time>2025-04-25T06:52:42Z</time>
      </trkpt>
      <trkpt lat="45.23412398993969" lon="3.312892997637391">
        <ele>766.78999999999996</ele>
        <time>2025-04-25T06:52:44Z</time>
      </trkpt>
      <trkpt lat="45.234091971069574" lon="3.313063988462091">
        <ele>766.30999999999995</ele>
        <time>2025-04-25T06:52:45Z</time>
      </trkpt>
      <trkpt lat="45.23401795886457" lon="3.313201032578945">
        <ele>766.30999999999995</ele>
        <time>2025-04-25T06:52:46Z</time>
      </trkpt>
      <trkpt lat="45.233941012993455" lon="3.313343022018671">
        <ele>765.83000000000004</ele>
        <time>2025-04-25T06:52:47Z</time>
      </trkpt>
      <trkpt lat="45.233859959989786" lon="3.313491968438029">
        <ele>765.83000000000004</ele>
        <time>2025-04-25T06:52:48Z</time>
      </trkpt>
      <trkpt lat="45.23360900580883" lon="3.313952973112464">
        <ele>765.35000000000002</ele>
        <time>2025-04-25T06:52:51Z</time>
      </trkpt>
      <trkpt lat="45.233541028574109" lon="3.314112983644009">
        <ele>764.87</ele>
        <time>2025-04-25T06:52:52Z</time>
      </trkpt>
      <trkpt lat="45.233482019975781" lon="3.314296966418624">
        <ele>764.38999999999999</ele>
        <time>2025-04-25T06:52:53Z</time>
      </trkpt>
      <trkpt lat="45.232821023091674" lon="3.315951973199844">
        <ele>757.17999999999995</ele>
        <time>2025-04-25T06:53:02Z</time>
      </trkpt>
      <trkpt lat="45.232546012848616" lon="3.316394034773111">
        <ele>755.25</ele>
        <time>2025-04-25T06:53:05Z</time>
      </trkpt>
      <trkpt lat="45.232449034228921" lon="3.316514985635877">
        <ele>754.28999999999996</ele>
        <time>2025-04-25T06:53:06Z</time>
      </trkpt>
      <trkpt lat="45.232252981513739" lon="3.31675797700882">
        <ele>753.33000000000004</ele>
        <time>2025-04-25T06:53:08Z</time>
      </trkpt>
      <trkpt lat="45.232150973752141" lon="3.31688404083252">
        <ele>752.85000000000002</ele>
        <time>2025-04-25T06:53:09Z</time>
      </trkpt>
      <trkpt lat="45.231386963278055" lon="3.318538041785359">
        <ele>747.08000000000004</ele>
        <time>2025-04-25T06:53:19Z</time>
      </trkpt>
      <trkpt lat="45.230771983042359" lon="3.319964976981282">
        <ele>744.20000000000005</ele>
        <time>2025-04-25T06:53:28Z</time>
      </trkpt>
      <trkpt lat="45.230755973607302" lon="3.320101015269756">
        <ele>743.72000000000003</ele>
        <time>2025-04-25T06:53:29Z</time>
      </trkpt>
      <trkpt lat="45.230740970000625" lon="3.320232024416328">
        <ele>743.24000000000001</ele>
        <time>2025-04-25T06:53:30Z</time>
      </trkpt>
      <trkpt lat="45.230724960565567" lon="3.32036898471415">
        <ele>742.27999999999997</ele>
        <time>2025-04-25T06:53:31Z</time>
      </trkpt>
      <trkpt lat="45.230728983879089" lon="3.320534024387598">
        <ele>741.30999999999995</ele>
        <time>2025-04-25T06:53:32Z</time>
      </trkpt>
      <trkpt lat="45.230765026062727" lon="3.320692023262382">
        <ele>740.35000000000002</ele>
        <time>2025-04-25T06:53:33Z</time>
      </trkpt>
      <trkpt lat="45.230802996084094" lon="3.320856979116797">
        <ele>739.87</ele>
        <time>2025-04-25T06:53:34Z</time>
      </trkpt>
      <trkpt lat="45.231293002143502" lon="3.322984976693988">
        <ele>729.77999999999997</ele>
        <time>2025-04-25T06:53:46Z</time>
      </trkpt>
      <trkpt lat="45.231435997411609" lon="3.323604986071587">
        <ele>724.00999999999999</ele>
        <time>2025-04-25T06:53:52Z</time>
      </trkpt>
      <trkpt lat="45.231433985754848" lon="3.323734989389777">
        <ele>721.61000000000001</ele>
        <time>2025-04-25T06:53:55Z</time>
      </trkpt>
      <trkpt lat="45.231399033218622" lon="3.323741024360061">
        <ele>720.64999999999998</ele>
        <time>2025-04-25T06:53:56Z</time>
      </trkpt>
      <trkpt lat="45.231346981599927" lon="3.323749992996454">
        <ele>720.15999999999997</ele>
        <time>2025-04-25T06:53:57Z</time>
      </trkpt>
      <trkpt lat="45.231281016021967" lon="3.32376197911799">
        <ele>719.67999999999995</ele>
        <time>2025-04-25T06:53:58Z</time>
      </trkpt>
      <trkpt lat="45.23120398633182" lon="3.323775976896286">
        <ele>719.67999999999995</ele>
        <time>2025-04-25T06:53:59Z</time>
      </trkpt>
      <trkpt lat="45.231112036854029" lon="3.323792992159724">
        <ele>719.67999999999995</ele>
        <time>2025-04-25T06:54:00Z</time>
      </trkpt>
      <trkpt lat="45.230992008000612" lon="3.323815036565065">
        <ele>720.15999999999997</ele>
        <time>2025-04-25T06:54:01Z</time>
      </trkpt>
      <trkpt lat="45.230892011895776" lon="3.323800032958388">
        <ele>720.64999999999998</ele>
        <time>2025-04-25T06:54:02Z</time>
      </trkpt>
      <trkpt lat="45.230638040229678" lon="3.323734989389777">
        <ele>722.09000000000003</ele>
        <time>2025-04-25T06:54:04Z</time>
      </trkpt>
      <trkpt lat="45.230511976405978" lon="3.323671035468578">
        <ele>723.04999999999995</ele>
        <time>2025-04-25T06:54:05Z</time>
      </trkpt>
      <trkpt lat="45.230379961431026" lon="3.323604986071587">
        <ele>723.52999999999997</ele>
        <time>2025-04-25T06:54:06Z</time>
      </trkpt>
      <trkpt lat="45.229818038642406" lon="3.323113974183798">
        <ele>724.97000000000003</ele>
        <time>2025-04-25T06:54:11Z</time>
      </trkpt>
      <trkpt lat="45.229737991467118" lon="3.32298900000751">
        <ele>724.97000000000003</ele>
        <time>2025-04-25T06:54:12Z</time>
      </trkpt>
      <trkpt lat="45.22965501062572" lon="3.32285899668932">
        <ele>724.97000000000003</ele>
        <time>2025-04-25T06:54:13Z</time>
      </trkpt>
      <trkpt lat="45.229568006470799" lon="3.322723964229226">
        <ele>725.45000000000005</ele>
        <time>2025-04-25T06:54:14Z</time>
      </trkpt>
      <trkpt lat="45.229469016194344" lon="3.322569988667965">
        <ele>725.45000000000005</ele>
        <time>2025-04-25T06:54:15Z</time>
      </trkpt>
      <trkpt lat="45.229436997324228" lon="3.322390029206872">
        <ele>725.45000000000005</ele>
        <time>2025-04-25T06:54:16Z</time>
      </trkpt>
      <trkpt lat="45.229403972625732" lon="3.322205040603876">
        <ele>724.97000000000003</ele>
        <time>2025-04-25T06:54:17Z</time>
      </trkpt>
      <trkpt lat="45.229371031746268" lon="3.322019968181849">
        <ele>724.97000000000003</ele>
        <time>2025-04-25T06:54:18Z</time>
      </trkpt>
      <trkpt lat="45.229306994006038" lon="3.32118303515017">
        <ele>722.57000000000005</ele>
        <time>2025-04-25T06:54:23Z</time>
      </trkpt>
      <trkpt lat="45.229275980964303" lon="3.321046996861696">
        <ele>721.61000000000001</ele>
        <time>2025-04-25T06:54:24Z</time>
      </trkpt>
      <trkpt lat="45.229206997901201" lon="3.32094800658524">
        <ele>721.13</ele>
        <time>2025-04-25T06:54:25Z</time>
      </trkpt>
      <trkpt lat="45.229126028716564" lon="3.320832001045346">
        <ele>721.13</ele>
        <time>2025-04-25T06:54:26Z</time>
      </trkpt>
      <trkpt lat="45.229027038440108" lon="3.320787996053696">
        <ele>720.64999999999998</ele>
        <time>2025-04-25T06:54:27Z</time>
      </trkpt>
      <trkpt lat="45.228912960737944" lon="3.320736028254032">
        <ele>720.64999999999998</ele>
        <time>2025-04-25T06:54:28Z</time>
      </trkpt>
      <trkpt lat="45.22879502736032" lon="3.320721024647355">
        <ele>720.64999999999998</ele>
        <time>2025-04-25T06:54:29Z</time>
      </trkpt>
      <trkpt lat="45.22866602987051" lon="3.320713983848691">
        <ele>720.15999999999997</ele>
        <time>2025-04-25T06:54:30Z</time>
      </trkpt>
      <trkpt lat="45.228532003238797" lon="3.320708032697439">
        <ele>719.67999999999995</ele>
        <time>2025-04-25T06:54:31Z</time>
      </trkpt>
      <trkpt lat="45.228124978020787" lon="3.320670984685421">
        <ele>717.27999999999997</ele>
        <time>2025-04-25T06:54:34Z</time>
      </trkpt>
      <trkpt lat="45.228012995794415" lon="3.320641983300448">
        <ele>716.32000000000005</ele>
        <time>2025-04-25T06:54:35Z</time>
      </trkpt>
      <trkpt lat="45.227929009124637" lon="3.320557996630669">
        <ele>715.36000000000001</ele>
        <time>2025-04-25T06:54:36Z</time>
      </trkpt>
      <trkpt lat="45.22785197943449" lon="3.320432016626">
        <ele>714.39999999999998</ele>
        <time>2025-04-25T06:54:37Z</time>
      </trkpt>
      <trkpt lat="45.227801017463207" lon="3.320275023579598">
        <ele>713.44000000000005</ele>
        <time>2025-04-25T06:54:38Z</time>
      </trkpt>
      <trkpt lat="45.227760029956698" lon="3.320103026926518">
        <ele>712.47000000000003</ele>
        <time>2025-04-25T06:54:39Z</time>
      </trkpt>
      <trkpt lat="45.227717030793428" lon="3.319920971989632">
        <ele>711.50999999999999</ele>
        <time>2025-04-25T06:54:40Z</time>
      </trkpt>
      <trkpt lat="45.227713007479906" lon="3.31972299143672">
        <ele>710.54999999999995</ele>
        <time>2025-04-25T06:54:41Z</time>
      </trkpt>
      <trkpt lat="45.227718036621809" lon="3.319524005055428">
        <ele>709.59000000000003</ele>
        <time>2025-04-25T06:54:42Z</time>
      </trkpt>
      <trkpt lat="45.227727005258203" lon="3.319132989272475">
        <ele>707.66999999999996</ele>
        <time>2025-04-25T06:54:44Z</time>
      </trkpt>
      <trkpt lat="45.227727005258203" lon="3.318950012326241">
        <ele>706.71000000000004</ele>
        <time>2025-04-25T06:54:45Z</time>
      </trkpt>
      <trkpt lat="45.227712001651525" lon="3.318774998188019">
        <ele>705.75</ele>
        <time>2025-04-25T06:54:46Z</time>
      </trkpt>
      <trkpt lat="45.227694986388087" lon="3.318596966564655">
        <ele>704.77999999999997</ele>
        <time>2025-04-25T06:54:47Z</time>
      </trkpt>
      <trkpt lat="45.227660033851862" lon="3.318417007103562">
        <ele>703.82000000000005</ele>
        <time>2025-04-25T06:54:48Z</time>
      </trkpt>
      <trkpt lat="45.227607982233167" lon="3.318235035985708">
        <ele>702.86000000000001</ele>
        <time>2025-04-25T06:54:49Z</time>
      </trkpt>
      <trkpt lat="45.227287039160728" lon="3.317096019163728">
        <ele>697.09000000000003</ele>
        <time>2025-04-25T06:54:55Z</time>
      </trkpt>
      <trkpt lat="45.227117976173759" lon="3.316343994811177">
        <ele>693.73000000000002</ele>
        <time>2025-04-25T06:54:59Z</time>
      </trkpt>
      <trkpt lat="45.227081011980772" lon="3.316180966794491">
        <ele>692.76999999999998</ele>
        <time>2025-04-25T06:55:00Z</time>
      </trkpt>
      <trkpt lat="45.227014040574431" lon="3.316078037023544">
        <ele>691.33000000000004</ele>
        <time>2025-04-25T06:55:01Z</time>
      </trkpt>
      <trkpt lat="45.226913038641214" lon="3.316009975969791">
        <ele>690.36000000000001</ele>
        <time>2025-04-25T06:55:02Z</time>
      </trkpt>
      <trkpt lat="45.226802984252572" lon="3.31594099290669">
        <ele>689.39999999999998</ele>
        <time>2025-04-25T06:55:03Z</time>
      </trkpt>
      <trkpt lat="45.226669041439891" lon="3.31596203148365">
        <ele>688.91999999999996</ele>
        <time>2025-04-25T06:55:04Z</time>
      </trkpt>
      <trkpt lat="45.226525040343404" lon="3.31598499789834">
        <ele>687.96000000000004</ele>
        <time>2025-04-25T06:55:05Z</time>
      </trkpt>
      <trkpt lat="45.226399982348084" lon="3.31600402481854">
        <ele>687</ele>
        <time>2025-04-25T06:55:06Z</time>
      </trkpt>
      <trkpt lat="45.226231003180146" lon="3.315974017605186">
        <ele>686.03999999999996</ele>
        <time>2025-04-25T06:55:07Z</time>
      </trkpt>
      <trkpt lat="45.226095970720053" lon="3.315907968208194">
        <ele>685.08000000000004</ele>
        <time>2025-04-25T06:55:08Z</time>
      </trkpt>
      <trkpt lat="45.225963033735752" lon="3.315803026780486">
        <ele>684.12</ele>
        <time>2025-04-25T06:55:09Z</time>
      </trkpt>
      <trkpt lat="45.225822972133756" lon="3.315692972391844">
        <ele>683.14999999999998</ele>
        <time>2025-04-25T06:55:10Z</time>
      </trkpt>
      <trkpt lat="45.225424999371171" lon="3.315390972420573">
        <ele>680.75</ele>
        <time>2025-04-25T06:55:13Z</time>
      </trkpt>
      <trkpt lat="45.224746987223625" lon="3.315111016854644">
        <ele>676.41999999999996</ele>
        <time>2025-04-25T06:55:18Z</time>
      </trkpt>
      <trkpt lat="45.224641961976886" lon="3.314986964687705">
        <ele>675.46000000000004</ele>
        <time>2025-04-25T06:55:19Z</time>
      </trkpt>
      <trkpt lat="45.224538026377559" lon="3.314844975247979">
        <ele>674.5</ele>
        <time>2025-04-25T06:55:20Z</time>
      </trkpt>
      <trkpt lat="45.223910976201296" lon="3.3139010053128">
        <ele>670.17999999999995</ele>
        <time>2025-04-25T06:55:27Z</time>
      </trkpt>
      <trkpt lat="45.223888009786606" lon="3.313749963417649">
        <ele>669.70000000000005</ele>
        <time>2025-04-25T06:55:28Z</time>
      </trkpt>
      <trkpt lat="45.223867977038026" lon="3.3136229775846">
        <ele>669.22000000000003</ele>
        <time>2025-04-25T06:55:29Z</time>
      </trkpt>
      <trkpt lat="45.223836963996291" lon="3.313455004245043">
        <ele>668.73000000000002</ele>
        <time>2025-04-25T06:55:30Z</time>
      </trkpt>
      <trkpt lat="45.223804023116827" lon="3.313278984278441">
        <ele>667.76999999999998</ele>
        <time>2025-04-25T06:55:31Z</time>
      </trkpt>
      <trkpt lat="45.223743002861738" lon="3.313179994001985">
        <ele>666.80999999999995</ele>
        <time>2025-04-25T06:55:32Z</time>
      </trkpt>
      <trkpt lat="45.223663961514831" lon="3.313053008168936">
        <ele>666.33000000000004</ele>
        <time>2025-04-25T06:55:33Z</time>
      </trkpt>
      <trkpt lat="45.223575029522181" lon="3.312910012900829">
        <ele>665.37</ele>
        <time>2025-04-25T06:55:34Z</time>
      </trkpt>
      <trkpt lat="45.223501017317176" lon="3.312748996540904">
        <ele>664.40999999999997</ele>
        <time>2025-04-25T06:55:35Z</time>
      </trkpt>
      <trkpt lat="45.223438991233706" lon="3.312550010159612">
        <ele>663.92999999999995</ele>
        <time>2025-04-25T06:55:36Z</time>
      </trkpt>
      <trkpt lat="45.22340202704072" lon="3.312388993799686">
        <ele>662.49000000000001</ele>
        <time>2025-04-25T06:55:37Z</time>
      </trkpt>
      <trkpt lat="45.223361039534211" lon="3.312218002974987">
        <ele>661.03999999999996</ele>
        <time>2025-04-25T06:55:38Z</time>
      </trkpt>
      <trkpt lat="45.223294990137219" lon="3.312075007706881">
        <ele>659.60000000000002</ele>
        <time>2025-04-25T06:55:39Z</time>
      </trkpt>
      <trkpt lat="45.223225001245737" lon="3.31194500438869">
        <ele>658.63999999999999</ele>
        <time>2025-04-25T06:55:40Z</time>
      </trkpt>
      <trkpt lat="45.223143026232719" lon="3.311827993020415">
        <ele>657.20000000000005</ele>
        <time>2025-04-25T06:55:41Z</time>
      </trkpt>
      <trkpt lat="45.22303800098598" lon="3.311733026057482">
        <ele>655.75999999999999</ele>
        <time>2025-04-25T06:55:42Z</time>
      </trkpt>
      <trkpt lat="45.222919983789325" lon="3.311658008024097">
        <ele>654.30999999999995</ele>
        <time>2025-04-25T06:55:43Z</time>
      </trkpt>
      <trkpt lat="45.222790986299515" lon="3.311625989153981">
        <ele>652.87</ele>
        <time>2025-04-25T06:55:44Z</time>
      </trkpt>
      <trkpt lat="45.222658971324563" lon="3.311592964455485">
        <ele>651.90999999999997</ele>
        <time>2025-04-25T06:55:45Z</time>
      </trkpt>
      <trkpt lat="45.222129989415407" lon="3.311476958915591">
        <ele>648.54999999999995</ele>
        <time>2025-04-25T06:55:49Z</time>
      </trkpt>
      <trkpt lat="45.222056983038783" lon="3.311373023316264">
        <ele>648.07000000000005</ele>
        <time>2025-04-25T06:55:50Z</time>
      </trkpt>
      <trkpt lat="45.221980959177017" lon="3.311263974756002">
        <ele>647.59000000000003</ele>
        <time>2025-04-25T06:55:51Z</time>
      </trkpt>
      <trkpt lat="45.221908036619425" lon="3.311160039156675">
        <ele>647.59000000000003</ele>
        <time>2025-04-25T06:55:52Z</time>
      </trkpt>
      <trkpt lat="45.22183402441442" lon="3.311055013909936">
        <ele>647.10000000000002</ele>
        <time>2025-04-25T06:55:53Z</time>
      </trkpt>
      <trkpt lat="45.221541998907924" lon="3.310686964541674">
        <ele>646.13999999999999</ele>
        <time>2025-04-25T06:55:56Z</time>
      </trkpt>
      <trkpt lat="45.221420964226127" lon="3.310559978708625">
        <ele>645.65999999999997</ele>
        <time>2025-04-25T06:55:57Z</time>
      </trkpt>
      <trkpt lat="45.220054965466261" lon="3.309449041262269">
        <ele>653.35000000000002</ele>
        <time>2025-04-25T06:56:07Z</time>
      </trkpt>
      <trkpt lat="45.219324985519052" lon="3.309127008542419">
        <ele>659.60000000000002</ele>
        <time>2025-04-25T06:56:12Z</time>
      </trkpt>
      <trkpt lat="45.219200011342764" lon="3.309116028249264">
        <ele>661.03999999999996</ele>
        <time>2025-04-25T06:56:13Z</time>
      </trkpt>
      <trkpt lat="45.219086017459631" lon="3.309158021584153">
        <ele>662.00999999999999</ele>
        <time>2025-04-25T06:56:14Z</time>
      </trkpt>
      <trkpt lat="45.218970011919737" lon="3.309209989383817">
        <ele>662.97000000000003</ele>
        <time>2025-04-25T06:56:15Z</time>
      </trkpt>
      <trkpt lat="45.218868004158139" lon="3.309328006580472">
        <ele>663.92999999999995</ele>
        <time>2025-04-25T06:56:16Z</time>
      </trkpt>
      <trkpt lat="45.218758033588529" lon="3.309455998241901">
        <ele>665.37</ele>
        <time>2025-04-25T06:56:17Z</time>
      </trkpt>
      <trkpt lat="45.218266015872359" lon="3.310027979314327">
        <ele>670.17999999999995</ele>
        <time>2025-04-25T06:56:22Z</time>
      </trkpt>
      <trkpt lat="45.21818202920258" lon="3.310125041753054">
        <ele>671.13999999999999</ele>
        <time>2025-04-25T06:56:23Z</time>
      </trkpt>
      <trkpt lat="45.218079015612602" lon="3.310153959318996">
        <ele>672.10000000000002</ele>
        <time>2025-04-25T06:56:24Z</time>
      </trkpt>
      <trkpt lat="45.217980025336146" lon="3.310137027874589">
        <ele>673.05999999999995</ele>
        <time>2025-04-25T06:56:25Z</time>
      </trkpt>
      <trkpt lat="45.21790400147438" lon="3.310059998184443">
        <ele>674.5</ele>
        <time>2025-04-25T06:56:26Z</time>
      </trkpt>
      <trkpt lat="45.217845998704433" lon="3.309938041493297">
        <ele>675.94000000000005</ele>
        <time>2025-04-25T06:56:27Z</time>
      </trkpt>
      <trkpt lat="45.217781960964203" lon="3.309805020689964">
        <ele>677.38999999999999</ele>
        <time>2025-04-25T06:56:28Z</time>
      </trkpt>
      <trkpt lat="45.217718007043004" lon="3.30966898240149">
        <ele>679.30999999999995</ele>
        <time>2025-04-25T06:56:29Z</time>
      </trkpt>
      <trkpt lat="45.217512985691428" lon="3.30923798494041">
        <ele>684.12</ele>
        <time>2025-04-25T06:56:32Z</time>
      </trkpt>
      <trkpt lat="45.217419024556875" lon="3.309106975793839">
        <ele>686.03999999999996</ele>
        <time>2025-04-25T06:56:33Z</time>
      </trkpt>
      <trkpt lat="45.217313999310136" lon="3.308974960818887">
        <ele>687.48000000000002</ele>
        <time>2025-04-25T06:56:34Z</time>
      </trkpt>
      <trkpt lat="45.217100009322166" lon="3.308707997202873">
        <ele>690.36000000000001</ele>
        <time>2025-04-25T06:56:36Z</time>
      </trkpt>
      <trkpt lat="45.21691401489079" lon="3.308405997231603">
        <ele>692.28999999999996</ele>
        <time>2025-04-25T06:56:38Z</time>
      </trkpt>
      <trkpt lat="45.216837991029024" lon="3.308235006406903">
        <ele>693.25</ele>
        <time>2025-04-25T06:56:39Z</time>
      </trkpt>
      <trkpt lat="45.216212030500174" lon="3.307035975158215">
        <ele>705.25999999999999</ele>
        <time>2025-04-25T06:56:46Z</time>
      </trkpt>
      <trkpt lat="45.215912964195013" lon="3.306583017110825">
        <ele>709.59000000000003</ele>
        <time>2025-04-25T06:56:49Z</time>
      </trkpt>
      <trkpt lat="45.215849010273814" lon="3.306418983265758">
        <ele>711.02999999999997</ele>
        <time>2025-04-25T06:56:50Z</time>
      </trkpt>
      <trkpt lat="45.215822020545602" lon="3.306248998269439">
        <ele>712.47000000000003</ele>
        <time>2025-04-25T06:56:51Z</time>
      </trkpt>
      <trkpt lat="45.215822020545602" lon="3.306080019101501">
        <ele>713.91999999999996</ele>
        <time>2025-04-25T06:56:52Z</time>
      </trkpt>
      <trkpt lat="45.215822020545602" lon="3.305903999134898">
        <ele>715.36000000000001</ele>
        <time>2025-04-25T06:56:53Z</time>
      </trkpt>
      <trkpt lat="45.215822020545602" lon="3.305748011916876">
        <ele>716.79999999999995</ele>
        <time>2025-04-25T06:56:54Z</time>
      </trkpt>
      <trkpt lat="45.215778015553951" lon="3.305604010820389">
        <ele>718.24000000000001</ele>
        <time>2025-04-25T06:56:55Z</time>
      </trkpt>
      <trkpt lat="45.215738033875823" lon="3.305475013330579">
        <ele>719.67999999999995</ele>
        <time>2025-04-25T06:56:56Z</time>
      </trkpt>
      <trkpt lat="45.215662010014057" lon="3.305394966155291">
        <ele>720.64999999999998</ele>
        <time>2025-04-25T06:56:57Z</time>
      </trkpt>
      <trkpt lat="45.215564025565982" lon="3.305296981707215">
        <ele>721.61000000000001</ele>
        <time>2025-04-25T06:56:58Z</time>
      </trkpt>
      <trkpt lat="45.215448020026088" lon="3.305226992815733">
        <ele>723.04999999999995</ele>
        <time>2025-04-25T06:56:59Z</time>
      </trkpt>
      <trkpt lat="45.215071002021432" lon="3.304975032806397">
        <ele>725.92999999999995</ele>
        <time>2025-04-25T06:57:02Z</time>
      </trkpt>
      <trkpt lat="45.21495901979506" lon="3.304862966760993">
        <ele>727.37</ele>
        <time>2025-04-25T06:57:03Z</time>
      </trkpt>
      <trkpt lat="45.214850977063179" lon="3.304741010069847">
        <ele>728.34000000000003</ele>
        <time>2025-04-25T06:57:04Z</time>
      </trkpt>
      <trkpt lat="45.213794019073248" lon="3.303424967452884">
        <ele>739.38999999999999</ele>
        <time>2025-04-25T06:57:14Z</time>
      </trkpt>
      <trkpt lat="45.213728975504637" lon="3.303270991891623">
        <ele>739.87</ele>
        <time>2025-04-25T06:57:15Z</time>
      </trkpt>
      <trkpt lat="45.213654963299632" lon="3.30292196944356">
        <ele>741.78999999999996</ele>
        <time>2025-04-25T06:57:17Z</time>
      </trkpt>
      <trkpt lat="45.213625961914659" lon="3.302733963355422">
        <ele>742.75999999999999</ele>
        <time>2025-04-25T06:57:18Z</time>
      </trkpt>
      <trkpt lat="45.213596960529685" lon="3.302545035257936">
        <ele>743.72000000000003</ele>
        <time>2025-04-25T06:57:19Z</time>
      </trkpt>
      <trkpt lat="45.213506016880274" lon="3.30210599116981">
        <ele>746.60000000000002</ele>
        <time>2025-04-25T06:57:22Z</time>
      </trkpt>
      <trkpt lat="45.213470980525017" lon="3.302000965923071">
        <ele>747.08000000000004</ele>
        <time>2025-04-25T06:57:23Z</time>
      </trkpt>
      <trkpt lat="45.213407026603818" lon="3.301931982859969">
        <ele>748.03999999999996</ele>
        <time>2025-04-25T06:57:24Z</time>
      </trkpt>
      <trkpt lat="45.21332798525691" lon="3.301875991746783">
        <ele>748.51999999999998</ele>
        <time>2025-04-25T06:57:25Z</time>
      </trkpt>
      <trkpt lat="45.21324098110199" lon="3.301895018666983">
        <ele>749.49000000000001</ele>
        <time>2025-04-25T06:57:26Z</time>
      </trkpt>
      <trkpt lat="45.213150959461927" lon="3.301935000345111">
        <ele>750.45000000000005</ele>
        <time>2025-04-25T06:57:27Z</time>
      </trkpt>
      <trkpt lat="45.213081976398826" lon="3.302007000893354">
        <ele>751.40999999999997</ele>
        <time>2025-04-25T06:57:28Z</time>
      </trkpt>
      <trkpt lat="45.213010981678963" lon="3.302120994776487">
        <ele>751.88999999999999</ele>
        <time>2025-04-25T06:57:29Z</time>
      </trkpt>
      <trkpt lat="45.212971000000834" lon="3.302258960902691">
        <ele>752.37</ele>
        <time>2025-04-25T06:57:30Z</time>
      </trkpt>
      <trkpt lat="45.212923977524042" lon="3.302418971434236">
        <ele>752.85000000000002</ele>
        <time>2025-04-25T06:57:31Z</time>
      </trkpt>
      <trkpt lat="45.212800009176135" lon="3.302715020254254">
        <ele>753.80999999999995</ele>
        <time>2025-04-25T06:57:33Z</time>
      </trkpt>
      <trkpt lat="45.212709987536073" lon="3.302832031622529">
        <ele>753.80999999999995</ele>
        <time>2025-04-25T06:57:34Z</time>
      </trkpt>
      <trkpt lat="45.212646033614874" lon="3.302915012463927">
        <ele>754.28999999999996</ele>
        <time>2025-04-25T06:57:35Z</time>
      </trkpt>
      <trkpt lat="45.212503960356116" lon="3.302948037162423">
        <ele>754.28999999999996</ele>
        <time>2025-04-25T06:57:36Z</time>
      </trkpt>
      <trkpt lat="45.212383009493351" lon="3.302976032719016">
        <ele>754.76999999999998</ele>
        <time>2025-04-25T06:57:37Z</time>
      </trkpt>
      <trkpt lat="45.212259963154793" lon="3.30300503410399">
        <ele>754.76999999999998</ele>
        <time>2025-04-25T06:57:38Z</time>
      </trkpt>
      <trkpt lat="45.212131971493363" lon="3.303035041317344">
        <ele>754.76999999999998</ele>
        <time>2025-04-25T06:57:39Z</time>
      </trkpt>
      <trkpt lat="45.211997022852302" lon="3.303069993853569">
        <ele>754.76999999999998</ele>
        <time>2025-04-25T06:57:40Z</time>
      </trkpt>
      <trkpt lat="45.211877999827266" lon="3.303165966644883">
        <ele>755.25</ele>
        <time>2025-04-25T06:57:41Z</time>
      </trkpt>
      <trkpt lat="45.211147014051676" lon="3.303762003779411">
        <ele>756.21000000000004</ele>
        <time>2025-04-25T06:57:47Z</time>
      </trkpt>
      <trkpt lat="45.211033020168543" lon="3.303824029862881">
        <ele>756.21000000000004</ele>
        <time>2025-04-25T06:57:48Z</time>
      </trkpt>
      <trkpt lat="45.210917014628649" lon="3.303831992670894">
        <ele>756.21000000000004</ele>
        <time>2025-04-25T06:57:49Z</time>
      </trkpt>
      <trkpt lat="45.210801009088755" lon="3.303810032084584">
        <ele>756.21000000000004</ele>
        <time>2025-04-25T06:57:50Z</time>
      </trkpt>
      <trkpt lat="45.210681986063719" lon="3.303788993507624">
        <ele>756.21000000000004</ele>
        <time>2025-04-25T06:57:51Z</time>
      </trkpt>
      <trkpt lat="45.210567992180586" lon="3.303768038749695">
        <ele>756.21000000000004</ele>
        <time>2025-04-25T06:57:52Z</time>
      </trkpt>
      <trkpt lat="45.210462966933846" lon="3.303760997951031">
        <ele>756.69000000000005</ele>
        <time>2025-04-25T06:57:53Z</time>
      </trkpt>
      <trkpt lat="45.21036297082901" lon="3.303817994892597">
        <ele>757.17999999999995</ele>
        <time>2025-04-25T06:57:54Z</time>
      </trkpt>
      <trkpt lat="45.210273033007979" lon="3.303941963240504">
        <ele>757.17999999999995</ele>
        <time>2025-04-25T06:57:55Z</time>
      </trkpt>
      <trkpt lat="45.21018804050982" lon="3.304101973772049">
        <ele>757.65999999999997</ele>
        <time>2025-04-25T06:57:56Z</time>
      </trkpt>
      <trkpt lat="45.210099024698138" lon="3.304270030930638">
        <ele>758.13999999999999</ele>
        <time>2025-04-25T06:57:57Z</time>
      </trkpt>
      <trkpt lat="45.210006991401315" lon="3.304442027583718">
        <ele>758.62</ele>
        <time>2025-04-25T06:57:58Z</time>
      </trkpt>
      <trkpt lat="45.209911018610001" lon="3.304621987044811">
        <ele>758.62</ele>
        <time>2025-04-25T06:57:59Z</time>
      </trkpt>
      <trkpt lat="45.209378013387322" lon="3.305742982774973">
        <ele>761.01999999999998</ele>
        <time>2025-04-25T06:58:05Z</time>
      </trkpt>
      <trkpt lat="45.209325039759278" lon="3.30592998303473">
        <ele>761.98000000000002</ele>
        <time>2025-04-25T06:58:06Z</time>
      </trkpt>
      <trkpt lat="45.209171986207366" lon="3.306375984102488">
        <ele>765.83000000000004</ele>
        <time>2025-04-25T06:58:09Z</time>
      </trkpt>
      <trkpt lat="45.209106020629406" lon="3.306456031277776">
        <ele>766.78999999999996</ele>
        <time>2025-04-25T06:58:10Z</time>
      </trkpt>
      <trkpt lat="45.209023961797357" lon="3.306475980207324">
        <ele>767.75</ele>
        <time>2025-04-25T06:58:11Z</time>
      </trkpt>
      <trkpt lat="45.208934023976326" lon="3.306499030441046">
        <ele>768.23000000000002</ele>
        <time>2025-04-25T06:58:12Z</time>
      </trkpt>
      <trkpt lat="45.208807038143277" lon="3.306456031277776">
        <ele>769.19000000000005</ele>
        <time>2025-04-25T06:58:13Z</time>
      </trkpt>
      <trkpt lat="45.208674017339945" lon="3.306412026286125">
        <ele>770.14999999999998</ele>
        <time>2025-04-25T06:58:14Z</time>
      </trkpt>
      <trkpt lat="45.208543008193374" lon="3.306338014081121">
        <ele>770.63</ele>
        <time>2025-04-25T06:58:15Z</time>
      </trkpt>
      <trkpt lat="45.208413004875183" lon="3.306236006319523">
        <ele>771.60000000000002</ele>
        <time>2025-04-25T06:58:16Z</time>
      </trkpt>
      <trkpt lat="45.20791101269424" lon="3.305773995816708">
        <ele>774.96000000000004</ele>
        <time>2025-04-25T06:58:20Z</time>
      </trkpt>
      <trkpt lat="45.207794001325965" lon="3.305644998326898">
        <ele>775.91999999999996</ele>
        <time>2025-04-25T06:58:21Z</time>
      </trkpt>
      <trkpt lat="45.207684030756354" lon="3.305523041635752">
        <ele>776.39999999999998</ele>
        <time>2025-04-25T06:58:22Z</time>
      </trkpt>
      <trkpt lat="45.207581017166376" lon="3.305407958105207">
        <ele>777.36000000000001</ele>
        <time>2025-04-25T06:58:23Z</time>
      </trkpt>
      <trkpt lat="45.207467023283243" lon="3.305342998355627">
        <ele>778.80999999999995</ele>
        <time>2025-04-25T06:58:24Z</time>
      </trkpt>
      <trkpt lat="45.207342971116304" lon="3.305311985313892">
        <ele>779.76999999999998</ele>
        <time>2025-04-25T06:58:25Z</time>
      </trkpt>
      <trkpt lat="45.207215985283256" lon="3.305322965607047">
        <ele>781.21000000000004</ele>
        <time>2025-04-25T06:58:26Z</time>
      </trkpt>
      <trkpt lat="45.207099979743361" lon="3.305369988083839">
        <ele>782.16999999999996</ele>
        <time>2025-04-25T06:58:27Z</time>
      </trkpt>
      <trkpt lat="45.206992020830512" lon="3.305412987247109">
        <ele>783.61000000000001</ele>
        <time>2025-04-25T06:58:28Z</time>
      </trkpt>
      <trkpt lat="45.20685900002718" lon="3.305406030267477">
        <ele>785.04999999999995</ele>
        <time>2025-04-25T06:58:29Z</time>
      </trkpt>
      <trkpt lat="45.206745006144047" lon="3.305382980033755">
        <ele>786.5</ele>
        <time>2025-04-25T06:58:30Z</time>
      </trkpt>
      <trkpt lat="45.206603016704321" lon="3.305257000029087">
        <ele>787.46000000000004</ele>
        <time>2025-04-25T06:58:31Z</time>
      </trkpt>
      <trkpt lat="45.206465972587466" lon="3.30513596534729">
        <ele>788.41999999999996</ele>
        <time>2025-04-25T06:58:32Z</time>
      </trkpt>
      <trkpt lat="45.20632297731936" lon="3.305007973685861">
        <ele>789.86000000000001</ele>
        <time>2025-04-25T06:58:33Z</time>
      </trkpt>
      <trkpt lat="45.206179982051253" lon="3.304881993681192">
        <ele>790.82000000000005</ele>
        <time>2025-04-25T06:58:34Z</time>
      </trkpt>
      <trkpt lat="45.205773040652275" lon="3.304585022851825">
        <ele>794.66999999999996</ele>
        <time>2025-04-25T06:58:37Z</time>
      </trkpt>
      <trkpt lat="45.205645971000195" lon="3.304507993161678">
        <ele>795.63</ele>
        <time>2025-04-25T06:58:38Z</time>
      </trkpt>
      <trkpt lat="45.205542035400867" lon="3.304405985400081">
        <ele>797.07000000000005</ele>
        <time>2025-04-25T06:58:39Z</time>
      </trkpt>
      <trkpt lat="45.205500964075327" lon="3.304310012608767">
        <ele>798.02999999999997</ele>
        <time>2025-04-25T06:58:40Z</time>
      </trkpt>
      <trkpt lat="45.20548696629703" lon="3.304144972935319">
        <ele>799.47000000000003</ele>
        <time>2025-04-25T06:58:41Z</time>
      </trkpt>
      <trkpt lat="45.205471962690353" lon="3.303968030959368">
        <ele>800.44000000000005</ele>
        <time>2025-04-25T06:58:42Z</time>
      </trkpt>
      <trkpt lat="45.205457964912057" lon="3.303795028477907">
        <ele>801.39999999999998</ele>
        <time>2025-04-25T06:58:43Z</time>
      </trkpt>
      <trkpt lat="45.205390993505716" lon="3.303594030439854">
        <ele>802.84000000000003</ele>
        <time>2025-04-25T06:58:44Z</time>
      </trkpt>
      <trkpt lat="45.205298960208893" lon="3.303434019908309">
        <ele>803.32000000000005</ele>
        <time>2025-04-25T06:58:45Z</time>
      </trkpt>
      <trkpt lat="45.205183960497379" lon="3.303290018811822">
        <ele>803.79999999999995</ele>
        <time>2025-04-25T06:58:46Z</time>
      </trkpt>
      <trkpt lat="45.205042976886034" lon="3.303169989958406">
        <ele>803.79999999999995</ele>
        <time>2025-04-25T06:58:47Z</time>
      </trkpt>
      <trkpt lat="45.204895958304405" lon="3.303044009953737">
        <ele>803.79999999999995</ele>
        <time>2025-04-25T06:58:48Z</time>
      </trkpt>
      <trkpt lat="45.204306039959192" lon="3.302527014166117">
        <ele>803.79999999999995</ele>
        <time>2025-04-25T06:58:52Z</time>
      </trkpt>
      <trkpt lat="45.204148041084409" lon="3.302439004182816">
        <ele>803.79999999999995</ele>
        <time>2025-04-25T06:58:53Z</time>
      </trkpt>
      <trkpt lat="45.203729029744864" lon="3.302243035286665">
        <ele>803.32000000000005</ele>
        <time>2025-04-25T06:58:56Z</time>
      </trkpt>
      <trkpt lat="45.203601038083434" lon="3.302213028073311">
        <ele>803.32000000000005</ele>
        <time>2025-04-25T06:58:57Z</time>
      </trkpt>
      <trkpt lat="45.203243969008327" lon="3.302197018638253">
        <ele>803.32000000000005</ele>
        <time>2025-04-25T06:59:00Z</time>
      </trkpt>
      <trkpt lat="45.203116983175278" lon="3.302203975617886">
        <ele>802.84000000000003</ele>
        <time>2025-04-25T06:59:02Z</time>
      </trkpt>
      <trkpt lat="45.20307800732553" lon="3.302205987274647">
        <ele>802.36000000000001</ele>
        <time>2025-04-25T06:59:03Z</time>
      </trkpt>
      <trkpt lat="45.203054035082459" lon="3.302206993103027">
        <ele>802.36000000000001</ele>
        <time>2025-04-25T06:59:11Z</time>
      </trkpt>
      <trkpt lat="45.203041965141892" lon="3.302111020311713">
        <ele>802.36000000000001</ele>
        <time>2025-04-25T06:59:20Z</time>
      </trkpt>
      <trkpt lat="45.203040037304163" lon="3.302095010876656">
        <ele>802.84000000000003</ele>
        <time>2025-04-25T06:59:21Z</time>
      </trkpt>
      <trkpt lat="45.203054035082459" lon="3.302206993103027">
        <ele>802.84000000000003</ele>
        <time>2025-04-25T06:59:22Z</time>
      </trkpt>
      <trkpt lat="45.203054035082459" lon="3.302206993103027">
        <ele>802.84000000000003</ele>
        <time>2025-04-25T06:59:35Z</time>
      </trkpt>
      <trkpt lat="45.203054035082459" lon="3.302206993103027">
        <ele>802.84000000000003</ele>
        <time>2025-04-25T07:00:11Z</time>
      </trkpt>
      <trkpt lat="45.203054035082459" lon="3.302206993103027">
        <ele>802.84000000000003</ele>
        <time>2025-04-25T07:00:40Z</time>
      </trkpt>
      <trkpt lat="45.203054035082459" lon="3.302206993103027">
        <ele>802.84000000000003</ele>
        <time>2025-04-25T07:01:22Z</time>
      </trkpt>
      <trkpt lat="45.203054035082459" lon="3.302206993103027">
        <ele>802.84000000000003</ele>
        <time>2025-04-25T07:02:15Z</time>
      </trkpt>
      <trkpt lat="45.203024027869105" lon="3.302237000316382">
        <ele>803.79999999999995</ele>
        <time>2025-04-25T07:02:47Z</time>
      </trkpt>
      <trkpt lat="45.203011035919189" lon="3.302249992266297">
        <ele>804.27999999999997</ele>
        <time>2025-04-25T07:02:48Z</time>
      </trkpt>
      <trkpt lat="45.202989997342229" lon="3.302272036671639">
        <ele>804.75999999999999</ele>
        <time>2025-04-25T07:02:49Z</time>
      </trkpt>
      <trkpt lat="45.202609961852431" lon="3.302651988342404">
        <ele>804.75999999999999</ele>
        <time>2025-04-25T07:02:56Z</time>
      </trkpt>
      <trkpt lat="45.202039992436767" lon="3.30343896523118">
        <ele>805.72000000000003</ele>
        <time>2025-04-25T07:03:03Z</time>
      </trkpt>
      <trkpt lat="45.20174796693027" lon="3.303627977147698">
        <ele>805.72000000000003</ele>
        <time>2025-04-25T07:03:06Z</time>
      </trkpt>
      <trkpt lat="45.201606983318925" lon="3.303657984361053">
        <ele>805.24000000000001</ele>
        <time>2025-04-25T07:03:07Z</time>
      </trkpt>
      <trkpt lat="45.200501997023821" lon="3.303891001269221">
        <ele>804.75999999999999</ele>
        <time>2025-04-25T07:03:14Z</time>
      </trkpt>
      <trkpt lat="45.200338969007134" lon="3.303925031796098">
        <ele>805.24000000000001</ele>
        <time>2025-04-25T07:03:15Z</time>
      </trkpt>
      <trkpt lat="45.200170995667577" lon="3.303974987939">
        <ele>805.24000000000001</ele>
        <time>2025-04-25T07:03:16Z</time>
      </trkpt>
      <trkpt lat="45.200009979307652" lon="3.304041037335992">
        <ele>805.72000000000003</ele>
        <time>2025-04-25T07:03:17Z</time>
      </trkpt>
      <trkpt lat="45.199850974604487" lon="3.304107002913952">
        <ele>806.20000000000005</ele>
        <time>2025-04-25T07:03:18Z</time>
      </trkpt>
      <trkpt lat="45.199688030406833" lon="3.304173974320293">
        <ele>807.15999999999997</ele>
        <time>2025-04-25T07:03:19Z</time>
      </trkpt>
      <trkpt lat="45.198924019932747" lon="3.304488966241479">
        <ele>810.04999999999995</ele>
        <time>2025-04-25T07:03:24Z</time>
      </trkpt>
      <trkpt lat="45.198782030493021" lon="3.304598014801741">
        <ele>810.52999999999997</ele>
        <time>2025-04-25T07:03:25Z</time>
      </trkpt>
      <trkpt lat="45.198653033003211" lon="3.304712008684874">
        <ele>811.00999999999999</ele>
        <time>2025-04-25T07:03:26Z</time>
      </trkpt>
      <trkpt lat="45.198530992493033" lon="3.304818961769342">
        <ele>811.49000000000001</ele>
        <time>2025-04-25T07:03:27Z</time>
      </trkpt>
      <trkpt lat="45.198419010266662" lon="3.304917030036449">
        <ele>811.97000000000003</ele>
        <time>2025-04-25T07:03:28Z</time>
      </trkpt>
      <trkpt lat="45.198301998898387" lon="3.304964974522591">
        <ele>812.45000000000005</ele>
        <time>2025-04-25T07:03:29Z</time>
      </trkpt>
      <trkpt lat="45.198175013065338" lon="3.30498400144279">
        <ele>812.92999999999995</ele>
        <time>2025-04-25T07:03:30Z</time>
      </trkpt>
      <trkpt lat="45.198045009747148" lon="3.304981989786029">
        <ele>813.40999999999997</ele>
        <time>2025-04-25T07:03:31Z</time>
      </trkpt>
      <trkpt lat="45.197907965630293" lon="3.304944019764662">
        <ele>813.88999999999999</ele>
        <time>2025-04-25T07:03:32Z</time>
      </trkpt>
      <trkpt lat="45.196902975440025" lon="3.304477985948324">
        <ele>821.58000000000004</ele>
        <time>2025-04-25T07:03:38Z</time>
      </trkpt>
      <trkpt lat="45.19564300775528" lon="3.303589001297951">
        <ele>830.72000000000003</ele>
        <time>2025-04-25T07:03:45Z</time>
      </trkpt>
      <trkpt lat="45.194555958732963" lon="3.302696999162436">
        <ele>838.88999999999999</ele>
        <time>2025-04-25T07:03:52Z</time>
      </trkpt>
      <trkpt lat="45.193623974919319" lon="3.302285028621554">
        <ele>843.21000000000004</ele>
        <time>2025-04-25T07:03:57Z</time>
      </trkpt>
      <trkpt lat="45.193440997973084" lon="3.302228031679988">
        <ele>844.17999999999995</ele>
        <time>2025-04-25T07:03:58Z</time>
      </trkpt>
      <trkpt lat="45.193255003541708" lon="3.302242029458284">
        <ele>845.13999999999999</ele>
        <time>2025-04-25T07:03:59Z</time>
      </trkpt>
      <trkpt lat="45.193075966089964" lon="3.30225401557982">
        <ele>845.62</ele>
        <time>2025-04-25T07:04:00Z</time>
      </trkpt>
      <trkpt lat="45.192906986922026" lon="3.302267007529736">
        <ele>846.10000000000002</ele>
        <time>2025-04-25T07:04:01Z</time>
      </trkpt>
      <trkpt lat="45.19274496473372" lon="3.302258038893342">
        <ele>846.58000000000004</ele>
        <time>2025-04-25T07:04:02Z</time>
      </trkpt>
      <trkpt lat="45.1925940066576" lon="3.302235994488001">
        <ele>847.05999999999995</ele>
        <time>2025-04-25T07:04:03Z</time>
      </trkpt>
      <trkpt lat="45.192441958934069" lon="3.302157036960125">
        <ele>847.53999999999996</ele>
        <time>2025-04-25T07:04:04Z</time>
      </trkpt>
      <trkpt lat="45.192303992807865" lon="3.302057040855289">
        <ele>848.01999999999998</ele>
        <time>2025-04-25T07:04:05Z</time>
      </trkpt>
      <trkpt lat="45.192167032510042" lon="3.30191396176815">
        <ele>848.5</ele>
        <time>2025-04-25T07:04:06Z</time>
      </trkpt>
      <trkpt lat="45.192029988393188" lon="3.301772978156805">
        <ele>848.98000000000002</ele>
        <time>2025-04-25T07:04:07Z</time>
      </trkpt>
      <trkpt lat="45.191894033923745" lon="3.301629982888699">
        <ele>849.46000000000004</ele>
        <time>2025-04-25T07:04:08Z</time>
      </trkpt>
      <trkpt lat="45.191752966493368" lon="3.301484975963831">
        <ele>849.46000000000004</ele>
        <time>2025-04-25T07:04:09Z</time>
      </trkpt>
      <trkpt lat="45.191591028124094" lon="3.301382968202233">
        <ele>849.94000000000005</ele>
        <time>2025-04-25T07:04:10Z</time>
      </trkpt>
      <trkpt lat="45.191426994279027" lon="3.301282972097397">
        <ele>850.41999999999996</ele>
        <time>2025-04-25T07:04:11Z</time>
      </trkpt>
      <trkpt lat="45.190077004954219" lon="3.300488032400608">
        <ele>854.75</ele>
        <time>2025-04-25T07:04:19Z</time>
      </trkpt>
      <trkpt lat="45.189897967502475" lon="3.300394993275404">
        <ele>855.23000000000002</ele>
        <time>2025-04-25T07:04:20Z</time>
      </trkpt>
      <trkpt lat="45.189727982506156" lon="3.300315029919148">
        <ele>856.19000000000005</ele>
        <time>2025-04-25T07:04:21Z</time>
      </trkpt>
      <trkpt lat="45.189095987007022" lon="3.300231965258718">
        <ele>859.08000000000004</ele>
        <time>2025-04-25T07:04:25Z</time>
      </trkpt>
      <trkpt lat="45.188946034759283" lon="3.300182009115815">
        <ele>860.03999999999996</ele>
        <time>2025-04-25T07:04:26Z</time>
      </trkpt>
      <trkpt lat="45.188806978985667" lon="3.300216961652041">
        <ele>861</ele>
        <time>2025-04-25T07:04:27Z</time>
      </trkpt>
      <trkpt lat="45.188685022294521" lon="3.300392981618643">
        <ele>861.96000000000004</ele>
        <time>2025-04-25T07:04:28Z</time>
      </trkpt>
      <trkpt lat="45.188556024804711" lon="3.300470011308789">
        <ele>862.91999999999996</ele>
        <time>2025-04-25T07:04:29Z</time>
      </trkpt>
      <trkpt lat="45.18788798712194" lon="3.300897991284728">
        <ele>865.79999999999995</ele>
        <time>2025-04-25T07:04:34Z</time>
      </trkpt>
      <trkpt lat="45.187738034874201" lon="3.300956999883056">
        <ele>866.28999999999996</ele>
        <time>2025-04-25T07:04:35Z</time>
      </trkpt>
      <trkpt lat="45.187601996585727" lon="3.300983989611268">
        <ele>866.76999999999998</ele>
        <time>2025-04-25T07:04:36Z</time>
      </trkpt>
      <trkpt lat="45.187448021024466" lon="3.300986001268029">
        <ele>867.25</ele>
        <time>2025-04-25T07:04:37Z</time>
      </trkpt>
      <trkpt lat="45.18730997107923" lon="3.300931015983224">
        <ele>867.25</ele>
        <time>2025-04-25T07:04:38Z</time>
      </trkpt>
      <trkpt lat="45.187182985246181" lon="3.300820039585233">
        <ele>867.73000000000002</ele>
        <time>2025-04-25T07:04:39Z</time>
      </trkpt>
      <trkpt lat="45.187060022726655" lon="3.300696993246675">
        <ele>868.21000000000004</ele>
        <time>2025-04-25T07:04:40Z</time>
      </trkpt>
      <trkpt lat="45.18694301135838" lon="3.300549974665046">
        <ele>868.69000000000005</ele>
        <time>2025-04-25T07:04:41Z</time>
      </trkpt>
      <trkpt lat="45.186834968626499" lon="3.300362974405289">
        <ele>869.16999999999996</ele>
        <time>2025-04-25T07:04:42Z</time>
      </trkpt>
      <trkpt lat="45.186085039749742" lon="3.299092026427388">
        <ele>873.5</ele>
        <time>2025-04-25T07:04:49Z</time>
      </trkpt>
      <trkpt lat="45.185986971482635" lon="3.298981972038746">
        <ele>873.98000000000002</ele>
        <time>2025-04-25T07:04:50Z</time>
      </trkpt>
      <trkpt lat="45.185879012569785" lon="3.298938972875476">
        <ele>873.98000000000002</ele>
        <time>2025-04-25T07:04:51Z</time>
      </trkpt>
      <trkpt lat="45.185753032565117" lon="3.298908965662122">
        <ele>874.46000000000004</ele>
        <time>2025-04-25T07:04:52Z</time>
      </trkpt>
      <trkpt lat="45.185656975954771" lon="3.299000998958945">
        <ele>874.94000000000005</ele>
        <time>2025-04-25T07:04:53Z</time>
      </trkpt>
      <trkpt lat="45.18554599955678" lon="3.299107030034065">
        <ele>874.94000000000005</ele>
        <time>2025-04-25T07:04:54Z</time>
      </trkpt>
      <trkpt lat="45.185428988188505" lon="3.299219012260437">
        <ele>874.94000000000005</ele>
        <time>2025-04-25T07:04:55Z</time>
      </trkpt>
      <trkpt lat="45.185312982648611" lon="3.299330994486809">
        <ele>874.46000000000004</ele>
        <time>2025-04-25T07:04:56Z</time>
      </trkpt>
      <trkpt lat="45.185197982937098" lon="3.299411041662097">
        <ele>874.46000000000004</ele>
        <time>2025-04-25T07:04:57Z</time>
      </trkpt>
      <trkpt lat="45.185059010982513" lon="3.299457980319858">
        <ele>874.46000000000004</ele>
        <time>2025-04-25T07:04:58Z</time>
      </trkpt>
      <trkpt lat="45.184926996007562" lon="3.299459991976619">
        <ele>874.46000000000004</ele>
        <time>2025-04-25T07:04:59Z</time>
      </trkpt>
      <trkpt lat="45.184809984639287" lon="3.299410035833716">
        <ele>874.94000000000005</ele>
        <time>2025-04-25T07:05:00Z</time>
      </trkpt>
      <trkpt lat="45.184667995199561" lon="3.299309033900499">
        <ele>875.41999999999996</ele>
        <time>2025-04-25T07:05:01Z</time>
      </trkpt>
      <trkpt lat="45.184526005759835" lon="3.299208031967282">
        <ele>875.89999999999998</ele>
        <time>2025-04-25T07:05:02Z</time>
      </trkpt>
      <trkpt lat="45.183585975319147" lon="3.298496995121241">
        <ele>882.14999999999998</ele>
        <time>2025-04-25T07:05:08Z</time>
      </trkpt>
      <trkpt lat="45.183409033343196" lon="3.298415020108223">
        <ele>883.59000000000003</ele>
        <time>2025-04-25T07:05:09Z</time>
      </trkpt>
      <trkpt lat="45.182907963171601" lon="3.298183009028435">
        <ele>886.47000000000003</ele>
        <time>2025-04-25T07:05:12Z</time>
      </trkpt>
      <trkpt lat="45.182779971510172" lon="3.298077983781695">
        <ele>887.42999999999995</ele>
        <time>2025-04-25T07:05:13Z</time>
      </trkpt>
      <trkpt lat="45.182648040354252" lon="3.297919984906912">
        <ele>888.88</ele>
        <time>2025-04-25T07:05:14Z</time>
      </trkpt>
      <trkpt lat="45.1823899615556" lon="3.297610022127628">
        <ele>891.27999999999997</ele>
        <time>2025-04-25T07:05:16Z</time>
      </trkpt>
      <trkpt lat="45.182264987379313" lon="3.297459986060858">
        <ele>892.24000000000001</ele>
        <time>2025-04-25T07:05:17Z</time>
      </trkpt>
      <trkpt lat="45.182112017646432" lon="3.297340963035822">
        <ele>892.72000000000003</ele>
        <time>2025-04-25T07:05:18Z</time>
      </trkpt>
      <trkpt lat="45.181949995458126" lon="3.297268962487578">
        <ele>893.67999999999995</ele>
        <time>2025-04-25T07:05:19Z</time>
      </trkpt>
      <trkpt lat="45.18178503960371" lon="3.297196039929986">
        <ele>894.63999999999999</ele>
        <time>2025-04-25T07:05:20Z</time>
      </trkpt>
      <trkpt lat="45.181606002151966" lon="3.297121021896601">
        <ele>895.61000000000001</ele>
        <time>2025-04-25T07:05:21Z</time>
      </trkpt>
      <trkpt lat="45.18142000772059" lon="3.297114986926317">
        <ele>896.57000000000005</ele>
        <time>2025-04-25T07:05:22Z</time>
      </trkpt>
      <trkpt lat="45.18122898414731" lon="3.297108029946685">
        <ele>897.52999999999997</ele>
        <time>2025-04-25T07:05:23Z</time>
      </trkpt>
      <trkpt lat="45.180061971768737" lon="3.297110963612795">
        <ele>905.70000000000005</ele>
        <time>2025-04-25T07:05:29Z</time>
      </trkpt>
      <trkpt lat="45.178488017991185" lon="3.297290001064539">
        <ele>916.75</ele>
        <time>2025-04-25T07:05:37Z</time>
      </trkpt>
      <trkpt lat="45.178077975288033" lon="3.297336017712951">
        <ele>919.63999999999999</ele>
        <time>2025-04-25T07:05:39Z</time>
      </trkpt>
      <trkpt lat="45.176754975691438" lon="3.297374993562698">
        <ele>927.80999999999995</ele>
        <time>2025-04-25T07:05:46Z</time>
      </trkpt>
      <trkpt lat="45.176590019837022" lon="3.297354960814118">
        <ele>928.76999999999998</ele>
        <time>2025-04-25T07:05:47Z</time>
      </trkpt>
      <trkpt lat="45.176439983770251" lon="3.297337023541331">
        <ele>930.21000000000004</ele>
        <time>2025-04-25T07:05:48Z</time>
      </trkpt>
      <trkpt lat="45.176293971017003" lon="3.297320008277893">
        <ele>930.69000000000005</ele>
        <time>2025-04-25T07:05:49Z</time>
      </trkpt>
      <trkpt lat="45.176162039861083" lon="3.297368958592415">
        <ele>931.16999999999996</ele>
        <time>2025-04-25T07:05:50Z</time>
      </trkpt>
      <trkpt lat="45.176032958552241" lon="3.297449005767703">
        <ele>931.16999999999996</ele>
        <time>2025-04-25T07:05:51Z</time>
      </trkpt>
      <trkpt lat="45.175903961062431" lon="3.297568028792739">
        <ele>932.13999999999999</ele>
        <time>2025-04-25T07:05:52Z</time>
      </trkpt>
      <trkpt lat="45.175768006592989" lon="3.297693002969027">
        <ele>932.62</ele>
        <time>2025-04-25T07:05:53Z</time>
      </trkpt>
      <trkpt lat="45.175628028810024" lon="3.297823006287217">
        <ele>932.62</ele>
        <time>2025-04-25T07:05:54Z</time>
      </trkpt>
      <trkpt lat="45.175483021885157" lon="3.29795703291893">
        <ele>933.10000000000002</ele>
        <time>2025-04-25T07:05:55Z</time>
      </trkpt>
      <trkpt lat="45.175311025232077" lon="3.298035990446806">
        <ele>934.05999999999995</ele>
        <time>2025-04-25T07:05:56Z</time>
      </trkpt>
      <trkpt lat="45.174500998109579" lon="3.298390964046121">
        <ele>937.41999999999996</ele>
        <time>2025-04-25T07:06:01Z</time>
      </trkpt>
      <trkpt lat="45.174361020326614" lon="3.298403033986688">
        <ele>938.38</ele>
        <time>2025-04-25T07:06:02Z</time>
      </trkpt>
      <trkpt lat="45.174240991473198" lon="3.29836598597467">
        <ele>938.86000000000001</ele>
        <time>2025-04-25T07:06:03Z</time>
      </trkpt>
      <trkpt lat="45.174129009246826" lon="3.298284010961652">
        <ele>939.83000000000004</ele>
        <time>2025-04-25T07:06:04Z</time>
      </trkpt>
      <trkpt lat="45.174001017585397" lon="3.298191977664828">
        <ele>940.30999999999995</ele>
        <time>2025-04-25T07:06:05Z</time>
      </trkpt>
      <trkpt lat="45.173869002610445" lon="3.298084018751979">
        <ele>941.26999999999998</ele>
        <time>2025-04-25T07:06:06Z</time>
      </trkpt>
      <trkpt lat="45.17373195849359" lon="3.297947980463505">
        <ele>942.23000000000002</ele>
        <time>2025-04-25T07:06:07Z</time>
      </trkpt>
      <trkpt lat="45.172708025202155" lon="3.296722965314984">
        <ele>954.73000000000002</ele>
        <time>2025-04-25T07:06:15Z</time>
      </trkpt>
      <trkpt lat="45.172477019950747" lon="3.29651802778244">
        <ele>957.13</ele>
        <time>2025-04-25T07:06:17Z</time>
      </trkpt>
      <trkpt lat="45.172370988875628" lon="3.296434041112661">
        <ele>958.57000000000005</ele>
        <time>2025-04-25T07:06:18Z</time>
      </trkpt>
      <trkpt lat="45.172263029962778" lon="3.29634896479547">
        <ele>959.52999999999997</ele>
        <time>2025-04-25T07:06:19Z</time>
      </trkpt>
      <trkpt lat="45.172170996665955" lon="3.296337984502316">
        <ele>960.49000000000001</ele>
        <time>2025-04-25T07:06:20Z</time>
      </trkpt>
      <trkpt lat="45.172063037753105" lon="3.296323986724019">
        <ele>961.46000000000004</ele>
        <time>2025-04-25T07:06:21Z</time>
      </trkpt>
      <trkpt lat="45.171951977536082" lon="3.296309988945723">
        <ele>962.89999999999998</ele>
        <time>2025-04-25T07:06:22Z</time>
      </trkpt>
      <trkpt lat="45.171052012592554" lon="3.296221978962421">
        <ele>967.70000000000005</ele>
        <time>2025-04-25T07:06:30Z</time>
      </trkpt>
      <trkpt lat="45.169940991327167" lon="3.295798022300005">
        <ele>966.25999999999999</ele>
        <time>2025-04-25T07:06:37Z</time>
      </trkpt>
      <trkpt lat="45.169636979699135" lon="3.295622002333403">
        <ele>965.29999999999995</ele>
        <time>2025-04-25T07:06:39Z</time>
      </trkpt>
      <trkpt lat="45.169489961117506" lon="3.295572968199849">
        <ele>964.82000000000005</ele>
        <time>2025-04-25T07:06:40Z</time>
      </trkpt>
      <trkpt lat="45.169319976121187" lon="3.295565005391836">
        <ele>964.82000000000005</ele>
        <time>2025-04-25T07:06:41Z</time>
      </trkpt>
      <trkpt lat="45.168611034750938" lon="3.295497028157115">
        <ele>963.86000000000001</ele>
        <time>2025-04-25T07:06:45Z</time>
      </trkpt>
      <trkpt lat="45.168447000905871" lon="3.295429972931743">
        <ele>963.38</ele>
        <time>2025-04-25T07:06:46Z</time>
      </trkpt>
      <trkpt lat="45.168098984286189" lon="3.29531597904861">
        <ele>962.89999999999998</ele>
        <time>2025-04-25T07:06:48Z</time>
      </trkpt>
      <trkpt lat="45.167057029902935" lon="3.295026971027255">
        <ele>964.34000000000003</ele>
        <time>2025-04-25T07:06:55Z</time>
      </trkpt>
      <trkpt lat="45.166884027421474" lon="3.294942984357476">
        <ele>965.29999999999995</ele>
        <time>2025-04-25T07:06:57Z</time>
      </trkpt>
      <trkpt lat="45.166802974417806" lon="3.294898979365826">
        <ele>966.25999999999999</ele>
        <time>2025-04-25T07:06:58Z</time>
      </trkpt>
      <trkpt lat="45.166368037462234" lon="3.294673003256321">
        <ele>967.70000000000005</ele>
        <time>2025-04-25T07:07:03Z</time>
      </trkpt>
      <trkpt lat="45.166283966973424" lon="3.294630004093051">
        <ele>968.17999999999995</ele>
        <time>2025-04-25T07:07:04Z</time>
      </trkpt>
      <trkpt lat="45.166196962818503" lon="3.29458499327302">
        <ele>968.17999999999995</ele>
        <time>2025-04-25T07:07:05Z</time>
      </trkpt>
      <trkpt lat="45.16610199585557" lon="3.294535959139466">
        <ele>968.66999999999996</ele>
        <time>2025-04-25T07:07:06Z</time>
      </trkpt>
      <trkpt lat="45.165999988093972" lon="3.294483991339803">
        <ele>968.66999999999996</ele>
        <time>2025-04-25T07:07:07Z</time>
      </trkpt>
      <trkpt lat="45.165134975686669" lon="3.294081995263696">
        <ele>964.82000000000005</ele>
        <time>2025-04-25T07:07:15Z</time>
      </trkpt>
      <trkpt lat="45.164908999577165" lon="3.294012006372213">
        <ele>963.38</ele>
        <time>2025-04-25T07:07:17Z</time>
      </trkpt>
      <trkpt lat="45.164814032614231" lon="3.294059028849006">
        <ele>962.89999999999998</ele>
        <time>2025-04-25T07:07:18Z</time>
      </trkpt>
      <trkpt lat="45.164712024852633" lon="3.294114014133811">
        <ele>962.41999999999996</ele>
        <time>2025-04-25T07:07:19Z</time>
      </trkpt>
      <trkpt lat="45.164643963798881" lon="3.294202024117112">
        <ele>961.94000000000005</ele>
        <time>2025-04-25T07:07:20Z</time>
      </trkpt>
      <trkpt lat="45.164587972685695" lon="3.294357005506754">
        <ele>961.46000000000004</ele>
        <time>2025-04-25T07:07:21Z</time>
      </trkpt>
      <trkpt lat="45.164528964087367" lon="3.29452296718955">
        <ele>961.46000000000004</ele>
        <time>2025-04-25T07:07:22Z</time>
      </trkpt>
      <trkpt lat="45.164244985207915" lon="3.295312039554119">
        <ele>960.00999999999999</ele>
        <time>2025-04-25T07:07:26Z</time>
      </trkpt>
      <trkpt lat="45.16416996717453" lon="3.295537009835243">
        <ele>959.52999999999997</ele>
        <time>2025-04-25T07:07:27Z</time>
      </trkpt>
      <trkpt lat="45.164138032123446" lon="3.29578896984458">
        <ele>959.04999999999995</ele>
        <time>2025-04-25T07:07:28Z</time>
      </trkpt>
      <trkpt lat="45.164106013253331" lon="3.296042019501329">
        <ele>958.57000000000005</ele>
        <time>2025-04-25T07:07:29Z</time>
      </trkpt>
      <trkpt lat="45.164073994383216" lon="3.296290962025523">
        <ele>958.09000000000003</ele>
        <time>2025-04-25T07:07:30Z</time>
      </trkpt>
      <trkpt lat="45.164043987169862" lon="3.29652096144855">
        <ele>957.13</ele>
        <time>2025-04-25T07:07:31Z</time>
      </trkpt>
      <trkpt lat="45.163989001885056" lon="3.296752972528338">
        <ele>955.69000000000005</ele>
        <time>2025-04-25T07:07:32Z</time>
      </trkpt>
      <trkpt lat="45.163937034085393" lon="3.29697098582983">
        <ele>954.73000000000002</ele>
        <time>2025-04-25T07:07:33Z</time>
      </trkpt>
      <trkpt lat="45.163826979696751" lon="3.297178018838167">
        <ele>954.25</ele>
        <time>2025-04-25T07:07:34Z</time>
      </trkpt>
      <trkpt lat="45.163628999143839" lon="3.297545984387398">
        <ele>952.32000000000005</ele>
        <time>2025-04-25T07:07:36Z</time>
      </trkpt>
      <trkpt lat="45.163383996114135" lon="3.297857036814094">
        <ele>949.91999999999996</ele>
        <time>2025-04-25T07:07:38Z</time>
      </trkpt>
      <trkpt lat="45.162945035845041" lon="3.298490960150957">
        <ele>945.11000000000001</ele>
        <time>2025-04-25T07:07:42Z</time>
      </trkpt>
      <trkpt lat="45.162911005318165" lon="3.298647031188011">
        <ele>944.14999999999998</ele>
        <time>2025-04-25T07:07:43Z</time>
      </trkpt>
      <trkpt lat="45.162906982004642" lon="3.298666980117559">
        <ele>943.19000000000005</ele>
        <time>2025-04-25T07:07:44Z</time>
      </trkpt>
      <trkpt lat="45.16296599060297" lon="3.298807041719556">
        <ele>942.23000000000002</ele>
        <time>2025-04-25T07:07:45Z</time>
      </trkpt>
      <trkpt lat="45.163014018908143" lon="3.298923969268799">
        <ele>941.75</ele>
        <time>2025-04-25T07:07:46Z</time>
      </trkpt>
      <trkpt lat="45.163122983649373" lon="3.298997981473804">
        <ele>941.75</ele>
        <time>2025-04-25T07:07:47Z</time>
      </trkpt>
      <trkpt lat="45.163272013887763" lon="3.299098983407021">
        <ele>941.75</ele>
        <time>2025-04-25T07:07:48Z</time>
      </trkpt>
      <trkpt lat="45.163415009155869" lon="3.299195962026715">
        <ele>941.75</ele>
        <time>2025-04-25T07:07:49Z</time>
      </trkpt>
      <trkpt lat="45.164220007136464" lon="3.299972964450717">
        <ele>946.07000000000005</ele>
        <time>2025-04-25T07:07:54Z</time>
      </trkpt>
      <trkpt lat="45.16556597314775" lon="3.300975020974875">
        <ele>951.84000000000003</ele>
        <time>2025-04-25T07:08:02Z</time>
      </trkpt>
      <trkpt lat="45.165739981457591" lon="3.301091026514769">
        <ele>952.32000000000005</ele>
        <time>2025-04-25T07:08:03Z</time>
      </trkpt>
      <trkpt lat="45.165981967002153" lon="3.301315996795893">
        <ele>953.76999999999998</ele>
        <time>2025-04-25T07:08:05Z</time>
      </trkpt>
      <trkpt lat="45.166107024997473" lon="3.301469972357154">
        <ele>954.25</ele>
        <time>2025-04-25T07:08:06Z</time>
      </trkpt>
      <trkpt lat="45.166220013052225" lon="3.301683962345123">
        <ele>954.73000000000002</ele>
        <time>2025-04-25T07:08:07Z</time>
      </trkpt>
      <trkpt lat="45.166241973638535" lon="3.301842967048287">
        <ele>954.73000000000002</ele>
        <time>2025-04-25T07:08:08Z</time>
      </trkpt>
      <trkpt lat="45.166243985295296" lon="3.302043965086341">
        <ele>955.21000000000004</ele>
        <time>2025-04-25T07:08:09Z</time>
      </trkpt>
      <trkpt lat="45.16620903275907" lon="3.302245968952775">
        <ele>955.69000000000005</ele>
        <time>2025-04-25T07:08:10Z</time>
      </trkpt>
      <trkpt lat="45.166153963655233" lon="3.302429029718041">
        <ele>956.16999999999996</ele>
        <time>2025-04-25T07:08:11Z</time>
      </trkpt>
      <trkpt lat="45.166093027219176" lon="3.302632039412856">
        <ele>956.64999999999998</ele>
        <time>2025-04-25T07:08:12Z</time>
      </trkpt>
      <trkpt lat="45.166023960337043" lon="3.302861033007503">
        <ele>957.61000000000001</ele>
        <time>2025-04-25T07:08:13Z</time>
      </trkpt>
      <trkpt lat="45.165884988382459" lon="3.303377022966743">
        <ele>958.57000000000005</ele>
        <time>2025-04-25T07:08:15Z</time>
      </trkpt>
      <trkpt lat="45.165832014754415" lon="3.303657984361053">
        <ele>959.04999999999995</ele>
        <time>2025-04-25T07:08:16Z</time>
      </trkpt>
      <trkpt lat="45.165689019486308" lon="3.304420989006758">
        <ele>960.49000000000001</ele>
        <time>2025-04-25T07:08:19Z</time>
      </trkpt>
      <trkpt lat="45.165636967867613" lon="3.304642019793391">
        <ele>960.98000000000002</ele>
        <time>2025-04-25T07:08:20Z</time>
      </trkpt>
      <trkpt lat="45.165534038096666" lon="3.304838994517922">
        <ele>961.46000000000004</ele>
        <time>2025-04-25T07:08:21Z</time>
      </trkpt>
      <trkpt lat="45.165418032556772" lon="3.305061031132937">
        <ele>961.94000000000005</ele>
        <time>2025-04-25T07:08:22Z</time>
      </trkpt>
      <trkpt lat="45.165288029238582" lon="3.305233027786017">
        <ele>961.94000000000005</ele>
        <time>2025-04-25T07:08:23Z</time>
      </trkpt>
      <trkpt lat="45.164879998192191" lon="3.305704006925225">
        <ele>963.86000000000001</ele>
        <time>2025-04-25T07:08:26Z</time>
      </trkpt>
      <trkpt lat="45.164718981832266" lon="3.305827975273132">
        <ele>965.29999999999995</ele>
        <time>2025-04-25T07:08:27Z</time>
      </trkpt>
      <trkpt lat="45.164542039856315" lon="3.305911961942911">
        <ele>966.74000000000001</ele>
        <time>2025-04-25T07:08:28Z</time>
      </trkpt>
      <trkpt lat="45.163161959499121" lon="3.306569019332528">
        <ele>976.36000000000001</ele>
        <time>2025-04-25T07:08:35Z</time>
      </trkpt>
      <trkpt lat="45.162949981167912" lon="3.306670021265745">
        <ele>977.32000000000005</ele>
        <time>2025-04-25T07:08:36Z</time>
      </trkpt>
      <trkpt lat="45.161683978512883" lon="3.306893985718489">
        <ele>984.04999999999995</ele>
        <time>2025-04-25T07:08:43Z</time>
      </trkpt>
      <trkpt lat="45.161533020436764" lon="3.306964980438352">
        <ele>985.00999999999999</ele>
        <time>2025-04-25T07:08:44Z</time>
      </trkpt>
      <trkpt lat="45.161340991035104" lon="3.307056007906795">
        <ele>985.97000000000003</ele>
        <time>2025-04-25T07:08:45Z</time>
      </trkpt>
      <trkpt lat="45.161261027678847" lon="3.307170001789928">
        <ele>987.40999999999997</ele>
        <time>2025-04-25T07:08:46Z</time>
      </trkpt>
      <trkpt lat="45.161143010482192" lon="3.307336969301105">
        <ele>988.37</ele>
        <time>2025-04-25T07:08:47Z</time>
      </trkpt>
      <trkpt lat="45.161035973578691" lon="3.307550959289074">
        <ele>989.33000000000004</ele>
        <time>2025-04-25T07:08:48Z</time>
      </trkpt>
      <trkpt lat="45.160953998565674" lon="3.307778025045991">
        <ele>990.29999999999995</ele>
        <time>2025-04-25T07:08:49Z</time>
      </trkpt>
      <trkpt lat="45.160868000239134" lon="3.308012969791889">
        <ele>990.77999999999997</ele>
        <time>2025-04-25T07:08:50Z</time>
      </trkpt>
      <trkpt lat="45.160783007740974" lon="3.308246992528439">
        <ele>991.25999999999999</ele>
        <time>2025-04-25T07:08:51Z</time>
      </trkpt>
      <trkpt lat="45.160693991929293" lon="3.308448996394873">
        <ele>991.25999999999999</ele>
        <time>2025-04-25T07:08:52Z</time>
      </trkpt>
      <trkpt lat="45.160353016108274" lon="3.309179982170463">
        <ele>992.22000000000003</ele>
        <time>2025-04-25T07:08:56Z</time>
      </trkpt>
      <trkpt lat="45.160308005288243" lon="3.309377962723374">
        <ele>992.22000000000003</ele>
        <time>2025-04-25T07:08:57Z</time>
      </trkpt>
      <trkpt lat="45.160295013338327" lon="3.309587007388473">
        <ele>993.17999999999995</ele>
        <time>2025-04-25T07:08:58Z</time>
      </trkpt>
      <trkpt lat="45.160182025283575" lon="3.310949988663197">
        <ele>997.99000000000001</ele>
        <time>2025-04-25T07:09:06Z</time>
      </trkpt>
      <trkpt lat="45.160112958401442" lon="3.311456004157662">
        <ele>997.99000000000001</ele>
        <time>2025-04-25T07:09:10Z</time>
      </trkpt>
      <trkpt lat="45.1600840408355" lon="3.31166697666049">
        <ele>997.99000000000001</ele>
        <time>2025-04-25T07:09:12Z</time>
      </trkpt>
      <trkpt lat="45.160074988380075" lon="3.311734031885862">
        <ele>997.99000000000001</ele>
        <time>2025-04-25T07:09:13Z</time>
      </trkpt>
      <trkpt lat="45.160068031400442" lon="3.311815001070499">
        <ele>997.99000000000001</ele>
        <time>2025-04-25T07:09:14Z</time>
      </trkpt>
      <trkpt lat="45.159968035295606" lon="3.311892030760646">
        <ele>997.99000000000001</ele>
        <time>2025-04-25T07:09:15Z</time>
      </trkpt>
      <trkpt lat="45.159938028082252" lon="3.311856994405389">
        <ele>997.99000000000001</ele>
        <time>2025-04-25T07:09:16Z</time>
      </trkpt>
      <trkpt lat="45.159894023090601" lon="3.311805026605725">
        <ele>997.99000000000001</ele>
        <time>2025-04-25T07:09:17Z</time>
      </trkpt>
      <trkpt lat="45.159837026149035" lon="3.311736965551972">
        <ele>997.99000000000001</ele>
        <time>2025-04-25T07:09:18Z</time>
      </trkpt>
      <trkpt lat="45.159766031429172" lon="3.311654990538955">
        <ele>997.99000000000001</ele>
        <time>2025-04-25T07:09:19Z</time>
      </trkpt>
      <trkpt lat="45.159690007567406" lon="3.311564968898892">
        <ele>997.99000000000001</ele>
        <time>2025-04-25T07:09:20Z</time>
      </trkpt>
      <trkpt lat="45.158815020695329" lon="3.310888968408108">
        <ele>1000.39</ele>
        <time>2025-04-25T07:09:28Z</time>
      </trkpt>
      <trkpt lat="45.157496966421604" lon="3.30994701012969">
        <ele>1006.64</ele>
        <time>2025-04-25T07:09:38Z</time>
      </trkpt>
      <trkpt lat="45.156745025888085" lon="3.309012008830905">
        <ele>1009.04</ele>
        <time>2025-04-25T07:09:44Z</time>
      </trkpt>
      <trkpt lat="45.155864004045725" lon="3.307714993134141">
        <ele>1011.9299999999999</ele>
        <time>2025-04-25T07:09:51Z</time>
      </trkpt>
      <trkpt lat="45.154861025512218" lon="3.306627022102475">
        <ele>1010.96</ele>
        <time>2025-04-25T07:09:58Z</time>
      </trkpt>
      <trkpt lat="45.15471501275897" lon="3.306510010734201">
        <ele>1010.48</ele>
        <time>2025-04-25T07:09:59Z</time>
      </trkpt>
      <trkpt lat="45.154173960909247" lon="3.306085970252752">
        <ele>1007.6</ele>
        <time>2025-04-25T07:10:03Z</time>
      </trkpt>
      <trkpt lat="45.154011016711593" lon="3.306052023544908">
        <ele>1006.16</ele>
        <time>2025-04-25T07:10:04Z</time>
      </trkpt>
      <trkpt lat="45.153838014230132" lon="3.30601598136127">
        <ele>1005.6799999999999</ele>
        <time>2025-04-25T07:10:05Z</time>
      </trkpt>
      <trkpt lat="45.153652019798756" lon="3.306027967482805">
        <ele>1005.2</ele>
        <time>2025-04-25T07:10:06Z</time>
      </trkpt>
      <trkpt lat="45.153460996225476" lon="3.30605898052454">
        <ele>1004.72</ele>
        <time>2025-04-25T07:10:07Z</time>
      </trkpt>
      <trkpt lat="45.152051998302341" lon="3.30629400908947">
        <ele>1002.79</ele>
        <time>2025-04-25T07:10:15Z</time>
      </trkpt>
      <trkpt lat="45.151915038004518" lon="3.306284034624696">
        <ele>1002.3099999999999</ele>
        <time>2025-04-25T07:10:16Z</time>
      </trkpt>
      <trkpt lat="45.151787968352437" lon="3.306245980784297">
        <ele>1001.83</ele>
        <time>2025-04-25T07:10:17Z</time>
      </trkpt>
      <trkpt lat="45.151670034974813" lon="3.306170040741563">
        <ele>1001.35</ele>
        <time>2025-04-25T07:10:18Z</time>
      </trkpt>
      <trkpt lat="45.151570038869977" lon="3.306040037423372">
        <ele>1001.35</ele>
        <time>2025-04-25T07:10:19Z</time>
      </trkpt>
      <trkpt lat="45.151486974209547" lon="3.305885978043079">
        <ele>1000.87</ele>
        <time>2025-04-25T07:10:20Z</time>
      </trkpt>
      <trkpt lat="45.151441963389516" lon="3.305694032460451">
        <ele>1000.87</ele>
        <time>2025-04-25T07:10:21Z</time>
      </trkpt>
      <trkpt lat="45.15140600502491" lon="3.305483981966972">
        <ele>1000.87</ele>
        <time>2025-04-25T07:10:22Z</time>
      </trkpt>
      <trkpt lat="45.151395024731755" lon="3.30526202917099">
        <ele>1000.87</ele>
        <time>2025-04-25T07:10:23Z</time>
      </trkpt>
      <trkpt lat="45.151421008631587" lon="3.305035969242454">
        <ele>1001.35</ele>
        <time>2025-04-25T07:10:24Z</time>
      </trkpt>
      <trkpt lat="45.151466019451618" lon="3.304803036153317">
        <ele>1002.3099999999999</ele>
        <time>2025-04-25T07:10:25Z</time>
      </trkpt>
      <trkpt lat="45.151517987251282" lon="3.304568007588387">
        <ele>1003.27</ele>
        <time>2025-04-25T07:10:26Z</time>
      </trkpt>
      <trkpt lat="45.151597028598189" lon="3.304132986813784">
        <ele>1005.6799999999999</ele>
        <time>2025-04-25T07:10:28Z</time>
      </trkpt>
      <trkpt lat="45.151588981971145" lon="3.303912039846182">
        <ele>1006.64</ele>
        <time>2025-04-25T07:10:29Z</time>
      </trkpt>
      <trkpt lat="45.151581019163132" lon="3.303680028766394">
        <ele>1007.6</ele>
        <time>2025-04-25T07:10:30Z</time>
      </trkpt>
      <trkpt lat="45.151552017778158" lon="3.303441982716322">
        <ele>1008.5599999999999</ele>
        <time>2025-04-25T07:10:31Z</time>
      </trkpt>
      <trkpt lat="45.151510024443269" lon="3.303207037970424">
        <ele>1009.52</ele>
        <time>2025-04-25T07:10:32Z</time>
      </trkpt>
      <trkpt lat="45.151284970343113" lon="3.30240597948432">
        <ele>1013.37</ele>
        <time>2025-04-25T07:10:36Z</time>
      </trkpt>
      <trkpt lat="45.15119100920856" lon="3.302228031679988">
        <ele>1014.33</ele>
        <time>2025-04-25T07:10:37Z</time>
      </trkpt>
      <trkpt lat="45.151080032810569" lon="3.302086964249611">
        <ele>1014.8099999999999</ele>
        <time>2025-04-25T07:10:38Z</time>
      </trkpt>
      <trkpt lat="45.150831006467342" lon="3.301795022562146">
        <ele>1016.25</ele>
        <time>2025-04-25T07:10:40Z</time>
      </trkpt>
      <trkpt lat="45.150691028684378" lon="3.301701983436942">
        <ele>1016.73</ele>
        <time>2025-04-25T07:10:41Z</time>
      </trkpt>
      <trkpt lat="45.150548033416271" lon="3.301623025909066">
        <ele>1017.6900000000001</ele>
        <time>2025-04-25T07:10:42Z</time>
      </trkpt>
      <trkpt lat="45.149151021614671" lon="3.300961023196578">
        <ele>1025.8599999999999</ele>
        <time>2025-04-25T07:10:51Z</time>
      </trkpt>
      <trkpt lat="45.149008026346564" lon="3.300834037363529">
        <ele>1026.8299999999999</ele>
        <time>2025-04-25T07:10:52Z</time>
      </trkpt>
      <trkpt lat="45.148885985836387" lon="3.300671009346843">
        <ele>1027.79</ele>
        <time>2025-04-25T07:10:53Z</time>
      </trkpt>
      <trkpt lat="45.148761011660099" lon="3.300500018522143">
        <ele>1028.75</ele>
        <time>2025-04-25T07:10:54Z</time>
      </trkpt>
      <trkpt lat="45.148670990020037" lon="3.300296002998948">
        <ele>1029.71</ele>
        <time>2025-04-25T07:10:55Z</time>
      </trkpt>
      <trkpt lat="45.148581974208355" lon="3.300089975818992">
        <ele>1030.6700000000001</ele>
        <time>2025-04-25T07:10:56Z</time>
      </trkpt>
      <trkpt lat="45.148503016680479" lon="3.299870034679771">
        <ele>1032.1099999999999</ele>
        <time>2025-04-25T07:10:57Z</time>
      </trkpt>
      <trkpt lat="45.14842196367681" lon="3.299644980579615">
        <ele>1033.0699999999999</ele>
        <time>2025-04-25T07:10:58Z</time>
      </trkpt>
      <trkpt lat="45.147570027038455" lon="3.297279020771384">
        <ele>1045.0899999999999</ele>
        <time>2025-04-25T07:11:08Z</time>
      </trkpt>
      <trkpt lat="45.146815991029143" lon="3.295740019530058">
        <ele>1051.3399999999999</ele>
        <time>2025-04-25T07:11:15Z</time>
      </trkpt>
      <trkpt lat="45.146653968840837" lon="3.295375993475318">
        <ele>1052.78</ele>
        <time>2025-04-25T07:11:17Z</time>
      </trkpt>
      <trkpt lat="45.146603006869555" lon="3.295222017914057">
        <ele>1053.26</ele>
        <time>2025-04-25T07:11:18Z</time>
      </trkpt>
      <trkpt lat="45.146591020748019" lon="3.295081034302712">
        <ele>1053.74</ele>
        <time>2025-04-25T07:11:19Z</time>
      </trkpt>
      <trkpt lat="45.146581968292594" lon="3.294939966872335">
        <ele>1053.74</ele>
        <time>2025-04-25T07:11:20Z</time>
      </trkpt>
      <trkpt lat="45.1465920265764" lon="3.294794037938118">
        <ele>1054.22</ele>
        <time>2025-04-25T07:11:21Z</time>
      </trkpt>
      <trkpt lat="45.146623039618134" lon="3.29462799243629">
        <ele>1054.22</ele>
        <time>2025-04-25T07:11:22Z</time>
      </trkpt>
      <trkpt lat="45.146895032376051" lon="3.293141964823008">
        <ele>1052.78</ele>
        <time>2025-04-25T07:11:29Z</time>
      </trkpt>
      <trkpt lat="45.14691699296236" lon="3.29295395873487">
        <ele>1052.3</ele>
        <time>2025-04-25T07:11:30Z</time>
      </trkpt>
      <trkpt lat="45.146847004070878" lon="3.292612982913852">
        <ele>1051.3399999999999</ele>
        <time>2025-04-25T07:11:32Z</time>
      </trkpt>
      <trkpt lat="45.146792018786073" lon="3.292459007352591">
        <ele>1050.8599999999999</ele>
        <time>2025-04-25T07:11:33Z</time>
      </trkpt>
      <trkpt lat="45.146707026287913" lon="3.292336966842413">
        <ele>1050.3800000000001</ele>
        <time>2025-04-25T07:11:34Z</time>
      </trkpt>
      <trkpt lat="45.146492030471563" lon="3.292121971026063">
        <ele>1048.9400000000001</ele>
        <time>2025-04-25T07:11:36Z</time>
      </trkpt>
      <trkpt lat="45.146366972476244" lon="3.29211400821805">
        <ele>1047.49</ele>
        <time>2025-04-25T07:11:37Z</time>
      </trkpt>
      <trkpt lat="45.146226994693279" lon="3.292105039581657">
        <ele>1046.53</ele>
        <time>2025-04-25T07:11:38Z</time>
      </trkpt>
      <trkpt lat="45.14607997611165" lon="3.292132029309869">
        <ele>1045.0899999999999</ele>
        <time>2025-04-25T07:11:39Z</time>
      </trkpt>
      <trkpt lat="45.145922983065248" lon="3.292206041514874">
        <ele>1044.1300000000001</ele>
        <time>2025-04-25T07:11:40Z</time>
      </trkpt>
      <trkpt lat="45.145757021382451" lon="3.292282987385988">
        <ele>1042.6900000000001</ele>
        <time>2025-04-25T07:11:41Z</time>
      </trkpt>
      <trkpt lat="45.145097030326724" lon="3.292614994570613">
        <ele>1036.9200000000001</ele>
        <time>2025-04-25T07:11:45Z</time>
      </trkpt>
      <trkpt lat="45.144972978159785" lon="3.292731000110507">
        <ele>1035.96</ele>
        <time>2025-04-25T07:11:46Z</time>
      </trkpt>
      <trkpt lat="45.144867030903697" lon="3.292871983721852">
        <ele>1034.52</ele>
        <time>2025-04-25T07:11:47Z</time>
      </trkpt>
      <trkpt lat="45.144768040627241" lon="3.293003998696804">
        <ele>1033.0699999999999</ele>
        <time>2025-04-25T07:11:48Z</time>
      </trkpt>
      <trkpt lat="45.144652035087347" lon="3.293101983144879">
        <ele>1031.1500000000001</ele>
        <time>2025-04-25T07:11:49Z</time>
      </trkpt>
      <trkpt lat="45.144561007618904" lon="3.293172977864742">
        <ele>1029.71</ele>
        <time>2025-04-25T07:11:50Z</time>
      </trkpt>
      <trkpt lat="45.144386999309063" lon="3.293212037533522">
        <ele>1028.27</ele>
        <time>2025-04-25T07:11:51Z</time>
      </trkpt>
      <trkpt lat="45.144232017919421" lon="3.293245984241366">
        <ele>1026.8299999999999</ele>
        <time>2025-04-25T07:11:52Z</time>
      </trkpt>
      <trkpt lat="45.144069995731115" lon="3.293282026425004">
        <ele>1024.9000000000001</ele>
        <time>2025-04-25T07:11:53Z</time>
      </trkpt>
      <trkpt lat="45.143297016620636" lon="3.293479001149535">
        <ele>1018.17</ele>
        <time>2025-04-25T07:11:58Z</time>
      </trkpt>
      <trkpt lat="45.143158966675401" lon="3.293543038889766">
        <ele>1016.73</ele>
        <time>2025-04-25T07:11:59Z</time>
      </trkpt>
      <trkpt lat="45.14302896335721" lon="3.29366197809577">
        <ele>1015.29</ele>
        <time>2025-04-25T07:12:00Z</time>
      </trkpt>
      <trkpt lat="45.142898038029671" lon="3.293804973363876">
        <ele>1013.85</ele>
        <time>2025-04-25T07:12:01Z</time>
      </trkpt>
      <trkpt lat="45.142759988084435" lon="3.293956015259028">
        <ele>1011.9299999999999</ele>
        <time>2025-04-25T07:12:02Z</time>
      </trkpt>
      <trkpt lat="45.142614981159568" lon="3.294115019962192">
        <ele>1010.48</ele>
        <time>2025-04-25T07:12:03Z</time>
      </trkpt>
      <trkpt lat="45.142190018668771" lon="3.2945859991014">
        <ele>1005.6799999999999</ele>
        <time>2025-04-25T07:12:06Z</time>
      </trkpt>
      <trkpt lat="45.142087005078793" lon="3.294760007411242">
        <ele>1004.23</ele>
        <time>2025-04-25T07:12:07Z</time>
      </trkpt>
      <trkpt lat="45.141993965953588" lon="3.294915994629264">
        <ele>1002.79</ele>
        <time>2025-04-25T07:12:08Z</time>
      </trkpt>
      <trkpt lat="45.141906961798668" lon="3.295063013210893">
        <ele>1001.35</ele>
        <time>2025-04-25T07:12:09Z</time>
      </trkpt>
      <trkpt lat="45.141807971522212" lon="3.295182958245277">
        <ele>999.90999999999997</ele>
        <time>2025-04-25T07:12:10Z</time>
      </trkpt>
      <trkpt lat="45.141666987910867" lon="3.295283038169146">
        <ele>998.47000000000003</ele>
        <time>2025-04-25T07:12:11Z</time>
      </trkpt>
      <trkpt lat="45.141515024006367" lon="3.295390997081995">
        <ele>997.01999999999998</ele>
        <time>2025-04-25T07:12:12Z</time>
      </trkpt>
      <trkpt lat="45.140548003837466" lon="3.295876979827881">
        <ele>987.88999999999999</ele>
        <time>2025-04-25T07:12:19Z</time>
      </trkpt>
      <trkpt lat="45.14044800773263" lon="3.295844038948417">
        <ele>986.45000000000005</ele>
        <time>2025-04-25T07:12:20Z</time>
      </trkpt>
      <trkpt lat="45.140356980264187" lon="3.295813025906682">
        <ele>985.49000000000001</ele>
        <time>2025-04-25T07:12:21Z</time>
      </trkpt>
      <trkpt lat="45.140283973887563" lon="3.295778995379806">
        <ele>985.00999999999999</ele>
        <time>2025-04-25T07:12:22Z</time>
      </trkpt>
      <trkpt lat="45.140231000259519" lon="3.295686962082982">
        <ele>984.04999999999995</ele>
        <time>2025-04-25T07:12:23Z</time>
      </trkpt>
      <trkpt lat="45.140205016359687" lon="3.29559501260519">
        <ele>984.04999999999995</ele>
        <time>2025-04-25T07:12:24Z</time>
      </trkpt>
      <trkpt lat="45.140208033844829" lon="3.295485964044929">
        <ele>984.04999999999995</ele>
        <time>2025-04-25T07:12:25Z</time>
      </trkpt>
      <trkpt lat="45.140262013301253" lon="3.295376999303699">
        <ele>984.52999999999997</ele>
        <time>2025-04-25T07:12:26Z</time>
      </trkpt>
      <trkpt lat="45.140354968607426" lon="3.295189999043942">
        <ele>984.52999999999997</ele>
        <time>2025-04-25T07:12:27Z</time>
      </trkpt>
      <trkpt lat="45.140419006347656" lon="3.295130990445614">
        <ele>985.00999999999999</ele>
        <time>2025-04-25T07:12:28Z</time>
      </trkpt>
      <trkpt lat="45.140526965260506" lon="3.295028982684016">
        <ele>985.49000000000001</ele>
        <time>2025-04-25T07:12:29Z</time>
      </trkpt>
      <trkpt lat="45.140639031305909" lon="3.294924041256309">
        <ele>985.49000000000001</ele>
        <time>2025-04-25T07:12:30Z</time>
      </trkpt>
      <trkpt lat="45.140980007126927" lon="3.294604020193219">
        <ele>985.97000000000003</ele>
        <time>2025-04-25T07:12:33Z</time>
      </trkpt>
      <trkpt lat="45.141076985746622" lon="3.294484997168183">
        <ele>986.45000000000005</ele>
        <time>2025-04-25T07:12:34Z</time>
      </trkpt>
      <trkpt lat="45.141131971031427" lon="3.29432800412178">
        <ele>986.92999999999995</ele>
        <time>2025-04-25T07:12:35Z</time>
      </trkpt>
      <trkpt lat="45.141192991286516" lon="3.294151984155178">
        <ele>986.92999999999995</ele>
        <time>2025-04-25T07:12:36Z</time>
      </trkpt>
      <trkpt lat="45.141249988228083" lon="3.293951991945505">
        <ele>986.92999999999995</ele>
        <time>2025-04-25T07:12:37Z</time>
      </trkpt>
      <trkpt lat="45.141290975734591" lon="3.293733978644013">
        <ele>986.45000000000005</ele>
        <time>2025-04-25T07:12:38Z</time>
      </trkpt>
      <trkpt lat="45.14147998765111" lon="3.292796965688467">
        <ele>985.00999999999999</ele>
        <time>2025-04-25T07:12:42Z</time>
      </trkpt>
      <trkpt lat="45.141748040914536" lon="3.291933964937925">
        <ele>987.40999999999997</ele>
        <time>2025-04-25T07:12:46Z</time>
      </trkpt>
      <trkpt lat="45.141777964308858" lon="3.291715029627085">
        <ele>988.37</ele>
        <time>2025-04-25T07:12:47Z</time>
      </trkpt>
      <trkpt lat="45.141984997317195" lon="3.290178962051868">
        <ele>995.10000000000002</ele>
        <time>2025-04-25T07:12:55Z</time>
      </trkpt>
      <trkpt lat="45.141989020630717" lon="3.289693985134363">
        <ele>996.05999999999995</ele>
        <time>2025-04-25T07:12:58Z</time>
      </trkpt>
      <trkpt lat="45.141949038952589" lon="3.289543027058244">
        <ele>996.53999999999996</ele>
        <time>2025-04-25T07:12:59Z</time>
      </trkpt>
      <trkpt lat="45.141814006492496" lon="3.289014967158437">
        <ele>997.50999999999999</ele>
        <time>2025-04-25T07:13:02Z</time>
      </trkpt>
      <trkpt lat="45.141555005684495" lon="3.287303969264031">
        <ele>993.17999999999995</ele>
        <time>2025-04-25T07:13:09Z</time>
      </trkpt>
      <trkpt lat="45.141535978764296" lon="3.287104982882738">
        <ele>992.22000000000003</ele>
        <time>2025-04-25T07:13:10Z</time>
      </trkpt>
      <trkpt lat="45.141563974320889" lon="3.286943966522813">
        <ele>991.74000000000001</ele>
        <time>2025-04-25T07:13:11Z</time>
      </trkpt>
      <trkpt lat="45.141610996797681" lon="3.286831984296441">
        <ele>990.77999999999997</ele>
        <time>2025-04-25T07:13:12Z</time>
      </trkpt>
      <trkpt lat="45.141688026487827" lon="3.286755038425326">
        <ele>990.77999999999997</ele>
        <time>2025-04-25T07:13:13Z</time>
      </trkpt>
      <trkpt lat="45.141762960702181" lon="3.286694018170238">
        <ele>990.29999999999995</ele>
        <time>2025-04-25T07:13:14Z</time>
      </trkpt>
      <trkpt lat="45.141863040626049" lon="3.28670097514987">
        <ele>990.29999999999995</ele>
        <time>2025-04-25T07:13:15Z</time>
      </trkpt>
      <trkpt lat="45.141966976225376" lon="3.286707010120153">
        <ele>990.77999999999997</ele>
        <time>2025-04-25T07:13:16Z</time>
      </trkpt>
      <trkpt lat="45.142072001472116" lon="3.286714972928166">
        <ele>990.77999999999997</ele>
        <time>2025-04-25T07:13:17Z</time>
      </trkpt>
      <trkpt lat="45.142178032547235" lon="3.286669040098786">
        <ele>991.74000000000001</ele>
        <time>2025-04-25T07:13:18Z</time>
      </trkpt>
      <trkpt lat="45.142271993681788" lon="3.286583963781595">
        <ele>992.22000000000003</ele>
        <time>2025-04-25T07:13:19Z</time>
      </trkpt>
      <trkpt lat="45.142353968694806" lon="3.286458989605308">
        <ele>992.70000000000005</ele>
        <time>2025-04-25T07:13:20Z</time>
      </trkpt>
      <trkpt lat="45.14238003641367" lon="3.286303002387285">
        <ele>993.17999999999995</ele>
        <time>2025-04-25T07:13:21Z</time>
      </trkpt>
      <trkpt lat="45.142409959807992" lon="3.286122959107161">
        <ele>994.13999999999999</ele>
        <time>2025-04-25T07:13:22Z</time>
      </trkpt>
      <trkpt lat="45.142394034191966" lon="3.285902012139559">
        <ele>995.10000000000002</ele>
        <time>2025-04-25T07:13:23Z</time>
      </trkpt>
      <trkpt lat="45.142371989786625" lon="3.285705959424377">
        <ele>996.05999999999995</ele>
        <time>2025-04-25T07:13:24Z</time>
      </trkpt>
      <trkpt lat="45.142326978966594" lon="3.285455005243421">
        <ele>996.53999999999996</ele>
        <time>2025-04-25T07:13:25Z</time>
      </trkpt>
      <trkpt lat="45.142284985631704" lon="3.285223999992013">
        <ele>997.99000000000001</ele>
        <time>2025-04-25T07:13:26Z</time>
      </trkpt>
      <trkpt lat="45.141986003145576" lon="3.283538985997438">
        <ele>1007.6</ele>
        <time>2025-04-25T07:13:33Z</time>
      </trkpt>
      <trkpt lat="45.141986003145576" lon="3.28334896825254">
        <ele>1008.5599999999999</ele>
        <time>2025-04-25T07:13:34Z</time>
      </trkpt>
      <trkpt lat="45.142023973166943" lon="3.283175965771079">
        <ele>1010</ele>
        <time>2025-04-25T07:13:35Z</time>
      </trkpt>
      <trkpt lat="45.142092034220695" lon="3.283020984381437">
        <ele>1011.4400000000001</ele>
        <time>2025-04-25T07:13:36Z</time>
      </trkpt>
      <trkpt lat="45.142196975648403" lon="3.282888969406486">
        <ele>1011.9299999999999</ele>
        <time>2025-04-25T07:13:37Z</time>
      </trkpt>
      <trkpt lat="45.142329996451735" lon="3.282760977745056">
        <ele>1013.37</ele>
        <time>2025-04-25T07:13:38Z</time>
      </trkpt>
      <trkpt lat="45.143345966935158" lon="3.282006019726396">
        <ele>1017.21</ele>
        <time>2025-04-25T07:13:44Z</time>
      </trkpt>
      <trkpt lat="45.143967987969518" lon="3.281535040587187">
        <ele>1017.6900000000001</ele>
        <time>2025-04-25T07:13:48Z</time>
      </trkpt>
      <trkpt lat="45.144065972417593" lon="3.28139497898519">
        <ele>1017.6900000000001</ele>
        <time>2025-04-25T07:13:49Z</time>
      </trkpt>
      <trkpt lat="45.144141996279359" lon="3.281209990382195">
        <ele>1017.21</ele>
        <time>2025-04-25T07:13:50Z</time>
      </trkpt>
      <trkpt lat="45.144203016534448" lon="3.280987031757832">
        <ele>1017.21</ele>
        <time>2025-04-25T07:13:51Z</time>
      </trkpt>
      <trkpt lat="45.144266970455647" lon="3.28074999153614">
        <ele>1017.21</ele>
        <time>2025-04-25T07:13:52Z</time>
      </trkpt>
      <trkpt lat="45.144481966271996" lon="3.28001799993217">
        <ele>1018.17</ele>
        <time>2025-04-25T07:13:55Z</time>
      </trkpt>
      <trkpt lat="45.144597971811891" lon="3.279834017157555">
        <ele>1018.17</ele>
        <time>2025-04-25T07:13:56Z</time>
      </trkpt>
      <trkpt lat="45.144708026200533" lon="3.279659003019333">
        <ele>1018.17</ele>
        <time>2025-04-25T07:13:57Z</time>
      </trkpt>
      <trkpt lat="45.144812967628241" lon="3.279492035508156">
        <ele>1018.17</ele>
        <time>2025-04-25T07:13:58Z</time>
      </trkpt>
      <trkpt lat="45.144885974004865" lon="3.279306963086128">
        <ele>1018.65</ele>
        <time>2025-04-25T07:13:59Z</time>
      </trkpt>
      <trkpt lat="45.144936013966799" lon="3.279103031381965">
        <ele>1018.65</ele>
        <time>2025-04-25T07:14:00Z</time>
      </trkpt>
      <trkpt lat="45.14496099203825" lon="3.278872026130557">
        <ele>1019.13</ele>
        <time>2025-04-25T07:14:01Z</time>
      </trkpt>
      <trkpt lat="45.144986975938082" lon="3.278627023100853">
        <ele>1020.1</ele>
        <time>2025-04-25T07:14:02Z</time>
      </trkpt>
      <trkpt lat="45.145236002281308" lon="3.276585023850203">
        <ele>1025.3800000000001</ele>
        <time>2025-04-25T07:14:10Z</time>
      </trkpt>
      <trkpt lat="45.145291993394494" lon="3.276368016377091">
        <ele>1025.8599999999999</ele>
        <time>2025-04-25T07:14:11Z</time>
      </trkpt>
      <trkpt lat="45.145386960357428" lon="3.276177998632193">
        <ele>1026.8299999999999</ele>
        <time>2025-04-25T07:14:12Z</time>
      </trkpt>
      <trkpt lat="45.145484022796154" lon="3.275984041392803">
        <ele>1026.8299999999999</ele>
        <time>2025-04-25T07:14:13Z</time>
      </trkpt>
      <trkpt lat="45.145610002800822" lon="3.275809027254582">
        <ele>1027.3099999999999</ele>
        <time>2025-04-25T07:14:14Z</time>
      </trkpt>
      <trkpt lat="45.145745035260916" lon="3.275636024773121">
        <ele>1027.3099999999999</ele>
        <time>2025-04-25T07:14:15Z</time>
      </trkpt>
      <trkpt lat="45.146281979978085" lon="3.274939991533756">
        <ele>1026.8299999999999</ele>
        <time>2025-04-25T07:14:19Z</time>
      </trkpt>
      <trkpt lat="45.146338976919651" lon="3.274719966575503">
        <ele>1026.3399999999999</ele>
        <time>2025-04-25T07:14:20Z</time>
      </trkpt>
      <trkpt lat="45.146393040195107" lon="3.274480998516083">
        <ele>1026.3399999999999</ele>
        <time>2025-04-25T07:14:21Z</time>
      </trkpt>
      <trkpt lat="45.14642296358943" lon="3.274226021021605">
        <ele>1026.3399999999999</ele>
        <time>2025-04-25T07:14:22Z</time>
      </trkpt>
      <trkpt lat="45.146451964974403" lon="3.273979006335139">
        <ele>1025.8599999999999</ele>
        <time>2025-04-25T07:14:23Z</time>
      </trkpt>
      <trkpt lat="45.14646403491497" lon="3.273749006912112">
        <ele>1025.8599999999999</ele>
        <time>2025-04-25T07:14:24Z</time>
      </trkpt>
      <trkpt lat="45.14644299633801" lon="3.273543985560536">
        <ele>1025.8599999999999</ele>
        <time>2025-04-25T07:14:25Z</time>
      </trkpt>
      <trkpt lat="45.146407959982753" lon="3.273355979472399">
        <ele>1025.8599999999999</ele>
        <time>2025-04-25T07:14:26Z</time>
      </trkpt>
      <trkpt lat="45.146322967484593" lon="3.273214995861054">
        <ele>1025.8599999999999</ele>
        <time>2025-04-25T07:14:27Z</time>
      </trkpt>
      <trkpt lat="45.146235963329673" lon="3.273069988936186">
        <ele>1025.3800000000001</ele>
        <time>2025-04-25T07:14:28Z</time>
      </trkpt>
      <trkpt lat="45.146123981103301" lon="3.272987008094788">
        <ele>1025.8599999999999</ele>
        <time>2025-04-25T07:14:29Z</time>
      </trkpt>
      <trkpt lat="45.146002024412155" lon="3.272897992283106">
        <ele>1025.8599999999999</ele>
        <time>2025-04-25T07:14:30Z</time>
      </trkpt>
      <trkpt lat="45.145869003608823" lon="3.272800007835031">
        <ele>1025.8599999999999</ele>
        <time>2025-04-25T07:14:31Z</time>
      </trkpt>
      <trkpt lat="45.145139023661613" lon="3.272267002612352">
        <ele>1024.4200000000001</ele>
        <time>2025-04-25T07:14:36Z</time>
      </trkpt>
      <trkpt lat="45.145015977323055" lon="3.272244036197662">
        <ele>1023.46</ele>
        <time>2025-04-25T07:14:37Z</time>
      </trkpt>
      <trkpt lat="45.1448979601264" lon="3.272234983742237">
        <ele>1022.98</ele>
        <time>2025-04-25T07:14:38Z</time>
      </trkpt>
      <trkpt lat="45.144784972071648" lon="3.272254010662437">
        <ele>1022.5</ele>
        <time>2025-04-25T07:14:39Z</time>
      </trkpt>
      <trkpt lat="45.144663015380502" lon="3.272307990118861">
        <ele>1022.02</ele>
        <time>2025-04-25T07:14:40Z</time>
      </trkpt>
      <trkpt lat="45.143525004386902" lon="3.272809982299805">
        <ele>1014.8099999999999</ele>
        <time>2025-04-25T07:14:47Z</time>
      </trkpt>
      <trkpt lat="45.143218981102109" lon="3.272978039458394">
        <ele>1012.41</ele>
        <time>2025-04-25T07:14:49Z</time>
      </trkpt>
      <trkpt lat="45.142884040251374" lon="3.273246008902788">
        <ele>1009.52</ele>
        <time>2025-04-25T07:14:52Z</time>
      </trkpt>
      <trkpt lat="45.142788989469409" lon="3.273272998631001">
        <ele>1008.5599999999999</ele>
        <time>2025-04-25T07:14:53Z</time>
      </trkpt>
      <trkpt lat="45.142697962000966" lon="3.273255983367562">
        <ele>1008.08</ele>
        <time>2025-04-25T07:14:54Z</time>
      </trkpt>
      <trkpt lat="45.142608024179935" lon="3.273195968940854">
        <ele>1008.08</ele>
        <time>2025-04-25T07:14:55Z</time>
      </trkpt>
      <trkpt lat="45.142582040280104" lon="3.273090021684766">
        <ele>1007.6</ele>
        <time>2025-04-25T07:14:56Z</time>
      </trkpt>
      <trkpt lat="45.142586985602975" lon="3.272954989224672">
        <ele>1007.12</ele>
        <time>2025-04-25T07:14:57Z</time>
      </trkpt>
      <trkpt lat="45.142629984766245" lon="3.272822974249721">
        <ele>1007.12</ele>
        <time>2025-04-25T07:14:58Z</time>
      </trkpt>
      <trkpt lat="45.142678013071418" lon="3.272671010345221">
        <ele>1007.12</ele>
        <time>2025-04-25T07:14:59Z</time>
      </trkpt>
      <trkpt lat="45.143044972792268" lon="3.271524030715227">
        <ele>1006.64</ele>
        <time>2025-04-25T07:15:05Z</time>
      </trkpt>
      <trkpt lat="45.143138011917472" lon="3.271369971334934">
        <ele>1006.16</ele>
        <time>2025-04-25T07:15:06Z</time>
      </trkpt>
      <trkpt lat="45.143223004415631" lon="3.271226976066828">
        <ele>1006.16</ele>
        <time>2025-04-25T07:15:07Z</time>
      </trkpt>
      <trkpt lat="45.143299028277397" lon="3.271099990233779">
        <ele>1005.6799999999999</ele>
        <time>2025-04-25T07:15:08Z</time>
      </trkpt>
      <trkpt lat="45.143360970541835" lon="3.270996976643801">
        <ele>1005.6799999999999</ele>
        <time>2025-04-25T07:15:09Z</time>
      </trkpt>
      <trkpt lat="45.143381003290415" lon="3.270888011902571">
        <ele>1005.2</ele>
        <time>2025-04-25T07:15:10Z</time>
      </trkpt>
      <trkpt lat="45.143376979976892" lon="3.270781980827451">
        <ele>1004.72</ele>
        <time>2025-04-25T07:15:11Z</time>
      </trkpt>
      <trkpt lat="45.143340015783906" lon="3.270663963630796">
        <ele>1004.23</ele>
        <time>2025-04-25T07:15:12Z</time>
      </trkpt>
      <trkpt lat="45.143303973600268" lon="3.270547958090901">
        <ele>1004.23</ele>
        <time>2025-04-25T07:15:13Z</time>
      </trkpt>
      <trkpt lat="45.143272960558534" lon="3.270429018884897">
        <ele>1003.75</ele>
        <time>2025-04-25T07:15:14Z</time>
      </trkpt>
      <trkpt lat="45.143272960558534" lon="3.270308990031481">
        <ele>1003.75</ele>
        <time>2025-04-25T07:15:15Z</time>
      </trkpt>
      <trkpt lat="45.143343033269048" lon="3.270208993926644">
        <ele>1003.75</ele>
        <time>2025-04-25T07:15:16Z</time>
      </trkpt>
      <trkpt lat="45.143428025767207" lon="3.270163983106613">
        <ele>1003.75</ele>
        <time>2025-04-25T07:15:17Z</time>
      </trkpt>
      <trkpt lat="45.143527016043663" lon="3.270150991156697">
        <ele>1003.75</ele>
        <time>2025-04-25T07:15:18Z</time>
      </trkpt>
      <trkpt lat="45.143627012148499" lon="3.270137999206781">
        <ele>1004.23</ele>
        <time>2025-04-25T07:15:19Z</time>
      </trkpt>
      <trkpt lat="45.143713010475039" lon="3.270117966458201">
        <ele>1004.72</ele>
        <time>2025-04-25T07:15:20Z</time>
      </trkpt>
      <trkpt lat="45.143776964396238" lon="3.270053006708622">
        <ele>1005.2</ele>
        <time>2025-04-25T07:15:21Z</time>
      </trkpt>
      <trkpt lat="45.143813006579876" lon="3.269942030310631">
        <ele>1005.6799999999999</ele>
        <time>2025-04-25T07:15:22Z</time>
      </trkpt>
      <trkpt lat="45.143847959116101" lon="3.269798029214144">
        <ele>1006.16</ele>
        <time>2025-04-25T07:15:23Z</time>
      </trkpt>
      <trkpt lat="45.143888024613261" lon="3.269632989540696">
        <ele>1006.64</ele>
        <time>2025-04-25T07:15:24Z</time>
      </trkpt>
      <trkpt lat="45.143932029604912" lon="3.269453030079603">
        <ele>1007.12</ele>
        <time>2025-04-25T07:15:25Z</time>
      </trkpt>
      <trkpt lat="45.143977040424943" lon="3.269269969314337">
        <ele>1007.6</ele>
        <time>2025-04-25T07:15:26Z</time>
      </trkpt>
      <trkpt lat="45.144042000174522" lon="3.269110964611173">
        <ele>1007.6</ele>
        <time>2025-04-25T07:15:27Z</time>
      </trkpt>
      <trkpt lat="45.144139984622598" lon="3.268984984606504">
        <ele>1007.6</ele>
        <time>2025-04-25T07:15:28Z</time>
      </trkpt>
      <trkpt lat="45.144262025132775" lon="3.268900997936726">
        <ele>1008.5599999999999</ele>
        <time>2025-04-25T07:15:29Z</time>
      </trkpt>
      <trkpt lat="45.14438197016716" lon="3.268818017095327">
        <ele>1009.04</ele>
        <time>2025-04-25T07:15:30Z</time>
      </trkpt>
      <trkpt lat="45.144485989585519" lon="3.268737969920039">
        <ele>1010</ele>
        <time>2025-04-25T07:15:31Z</time>
      </trkpt>
      <trkpt lat="45.144556984305382" lon="3.268622970208526">
        <ele>1010.96</ele>
        <time>2025-04-25T07:15:32Z</time>
      </trkpt>
      <trkpt lat="45.144603000953794" lon="3.268472012132406">
        <ele>1011.4400000000001</ele>
        <time>2025-04-25T07:15:33Z</time>
      </trkpt>
      <trkpt lat="45.144630996510386" lon="3.268317030742765">
        <ele>1011.9299999999999</ele>
        <time>2025-04-25T07:15:34Z</time>
      </trkpt>
      <trkpt lat="45.144658992066979" lon="3.26816095970571">
        <ele>1012.41</ele>
        <time>2025-04-25T07:15:35Z</time>
      </trkpt>
      <trkpt lat="45.144685981795192" lon="3.268013019114733">
        <ele>1012.89</ele>
        <time>2025-04-25T07:15:36Z</time>
      </trkpt>
      <trkpt lat="45.144805004820228" lon="3.266778029501438">
        <ele>1019.13</ele>
        <time>2025-04-25T07:15:46Z</time>
      </trkpt>
      <trkpt lat="45.144807016476989" lon="3.266668980941176">
        <ele>1019.62</ele>
        <time>2025-04-25T07:15:47Z</time>
      </trkpt>
      <trkpt lat="45.144810033962131" lon="3.266559010371566">
        <ele>1020.1</ele>
        <time>2025-04-25T07:15:48Z</time>
      </trkpt>
      <trkpt lat="45.144812967628241" lon="3.266448033973575">
        <ele>1020.58</ele>
        <time>2025-04-25T07:15:49Z</time>
      </trkpt>
      <trkpt lat="45.144814979285002" lon="3.266336973756552">
        <ele>1020.58</ele>
        <time>2025-04-25T07:15:50Z</time>
      </trkpt>
      <trkpt lat="45.144840041175485" lon="3.264798978343606">
        <ele>1025.3800000000001</ele>
        <time>2025-04-25T07:16:04Z</time>
      </trkpt>
      <trkpt lat="45.144819002598524" lon="3.264107974246144">
        <ele>1024.9000000000001</ele>
        <time>2025-04-25T07:16:10Z</time>
      </trkpt>
      <trkpt lat="45.144797964021564" lon="3.263314040377736">
        <ele>1023.9400000000001</ele>
        <time>2025-04-25T07:16:17Z</time>
      </trkpt>
      <trkpt lat="45.144836017861962" lon="3.262865021824837">
        <ele>1024.4200000000001</ele>
        <time>2025-04-25T07:16:21Z</time>
      </trkpt>
      <trkpt lat="45.144840041175485" lon="3.262761002406478">
        <ele>1023.9400000000001</ele>
        <time>2025-04-25T07:16:22Z</time>
      </trkpt>
      <trkpt lat="45.144827971234918" lon="3.26242002658546">
        <ele>1023.46</ele>
        <time>2025-04-25T07:16:25Z</time>
      </trkpt>
      <trkpt lat="45.144822020083666" lon="3.262289017438889">
        <ele>1023.46</ele>
        <time>2025-04-25T07:16:26Z</time>
      </trkpt>
      <trkpt lat="45.144817996770144" lon="3.262153984978795">
        <ele>1023.46</ele>
        <time>2025-04-25T07:16:27Z</time>
      </trkpt>
      <trkpt lat="45.144817996770144" lon="3.261865982785821">
        <ele>1022.5</ele>
        <time>2025-04-25T07:16:29Z</time>
      </trkpt>
      <trkpt lat="45.144817996770144" lon="3.261436996981502">
        <ele>1022.5</ele>
        <time>2025-04-25T07:16:32Z</time>
      </trkpt>
      <trkpt lat="45.14485202729702" lon="3.261291990056634">
        <ele>1022.5</ele>
        <time>2025-04-25T07:16:33Z</time>
      </trkpt>
      <trkpt lat="45.144885974004865" lon="3.261143965646625">
        <ele>1022.5</ele>
        <time>2025-04-25T07:16:34Z</time>
      </trkpt>
      <trkpt lat="45.144946994259953" lon="3.260880019515753">
        <ele>1022.98</ele>
        <time>2025-04-25T07:16:36Z</time>
      </trkpt>
      <trkpt lat="45.144972978159785" lon="3.260703999549151">
        <ele>1023.46</ele>
        <time>2025-04-25T07:16:37Z</time>
      </trkpt>
      <trkpt lat="45.144996028393507" lon="3.260554969310761">
        <ele>1023.46</ele>
        <time>2025-04-25T07:16:38Z</time>
      </trkpt>
      <trkpt lat="45.145011032000184" lon="3.260408034548163">
        <ele>1023.9400000000001</ele>
        <time>2025-04-25T07:16:39Z</time>
      </trkpt>
      <trkpt lat="45.145011032000184" lon="3.260262021794915">
        <ele>1024.4200000000001</ele>
        <time>2025-04-25T07:16:40Z</time>
      </trkpt>
      <trkpt lat="45.144997034221888" lon="3.260126989334822">
        <ele>1024.4200000000001</ele>
        <time>2025-04-25T07:16:41Z</time>
      </trkpt>
      <trkpt lat="45.144966021180153" lon="3.259989023208618">
        <ele>1024.9000000000001</ele>
        <time>2025-04-25T07:16:42Z</time>
      </trkpt>
      <trkpt lat="45.144774997606874" lon="3.259188970550895">
        <ele>1026.8299999999999</ele>
        <time>2025-04-25T07:16:48Z</time>
      </trkpt>
      <trkpt lat="45.144715989008546" lon="3.259089980274439">
        <ele>1027.3099999999999</ele>
        <time>2025-04-25T07:16:49Z</time>
      </trkpt>
      <trkpt lat="45.144658992066979" lon="3.258991995826364">
        <ele>1027.79</ele>
        <time>2025-04-25T07:16:50Z</time>
      </trkpt>
      <trkpt lat="45.144603000953794" lon="3.258898034691811">
        <ele>1028.27</ele>
        <time>2025-04-25T07:16:51Z</time>
      </trkpt>
      <trkpt lat="45.144523959606886" lon="3.2588329911232">
        <ele>1028.75</ele>
        <time>2025-04-25T07:16:52Z</time>
      </trkpt>
      <trkpt lat="45.14444500207901" lon="3.258794015273452">
        <ele>1029.71</ele>
        <time>2025-04-25T07:16:53Z</time>
      </trkpt>
      <trkpt lat="45.144364032894373" lon="3.258753027766943">
        <ele>1029.71</ele>
        <time>2025-04-25T07:16:54Z</time>
      </trkpt>
      <trkpt lat="45.144275017082691" lon="3.258714973926544">
        <ele>1030.1900000000001</ele>
        <time>2025-04-25T07:16:55Z</time>
      </trkpt>
      <trkpt lat="45.144174015149474" lon="3.258744981139898">
        <ele>1030.1900000000001</ele>
        <time>2025-04-25T07:16:56Z</time>
      </trkpt>
      <trkpt lat="45.14405800960958" lon="3.258781023323536">
        <ele>1029.71</ele>
        <time>2025-04-25T07:16:57Z</time>
      </trkpt>
      <trkpt lat="45.143013959750533" lon="3.259146977216005">
        <ele>1025.8599999999999</ele>
        <time>2025-04-25T07:17:04Z</time>
      </trkpt>
      <trkpt lat="45.142887979745865" lon="3.259175978600979">
        <ele>1025.3800000000001</ele>
        <time>2025-04-25T07:17:05Z</time>
      </trkpt>
      <trkpt lat="45.1427670288831" lon="3.259128034114838">
        <ele>1024.9000000000001</ele>
        <time>2025-04-25T07:17:06Z</time>
      </trkpt>
      <trkpt lat="45.142663009464741" lon="3.259036000818014">
        <ele>1023.9400000000001</ele>
        <time>2025-04-25T07:17:07Z</time>
      </trkpt>
      <trkpt lat="45.142587991431355" lon="3.258886970579624">
        <ele>1023.46</ele>
        <time>2025-04-25T07:17:08Z</time>
      </trkpt>
      <trkpt lat="45.14251196756959" lon="3.258735006675124">
        <ele>1022.98</ele>
        <time>2025-04-25T07:17:09Z</time>
      </trkpt>
      <trkpt lat="45.142500987276435" lon="3.258582036942244">
        <ele>1022.5</ele>
        <time>2025-04-25T07:17:10Z</time>
      </trkpt>
      <trkpt lat="45.142500987276435" lon="3.2584029994905">
        <ele>1022.5</ele>
        <time>2025-04-25T07:17:11Z</time>
      </trkpt>
      <trkpt lat="45.142515990883112" lon="3.258239971473813">
        <ele>1022.02</ele>
        <time>2025-04-25T07:17:12Z</time>
      </trkpt>
      <trkpt lat="45.142577011138201" lon="3.258062023669481">
        <ele>1022.02</ele>
        <time>2025-04-25T07:17:13Z</time>
      </trkpt>
      <trkpt lat="45.1426409650594" lon="3.257875023409724">
        <ele>1021.54</ele>
        <time>2025-04-25T07:17:14Z</time>
      </trkpt>
      <trkpt lat="45.142783038318157" lon="3.257309999316931">
        <ele>1020.1</ele>
        <time>2025-04-25T07:17:17Z</time>
      </trkpt>
      <trkpt lat="45.142800975590944" lon="3.257100032642484">
        <ele>1019.13</ele>
        <time>2025-04-25T07:17:18Z</time>
      </trkpt>
      <trkpt lat="45.142800975590944" lon="3.256872966885567">
        <ele>1018.17</ele>
        <time>2025-04-25T07:17:19Z</time>
      </trkpt>
      <trkpt lat="45.142800975590944" lon="3.256636010482907">
        <ele>1017.21</ele>
        <time>2025-04-25T07:17:20Z</time>
      </trkpt>
      <trkpt lat="45.142783960327506" lon="3.256387989968061">
        <ele>1016.25</ele>
        <time>2025-04-25T07:17:21Z</time>
      </trkpt>
      <trkpt lat="45.142739033326507" lon="3.256139969453216">
        <ele>1015.29</ele>
        <time>2025-04-25T07:17:22Z</time>
      </trkpt>
      <trkpt lat="45.142693016678095" lon="3.255887003615499">
        <ele>1014.33</ele>
        <time>2025-04-25T07:17:23Z</time>
      </trkpt>
      <trkpt lat="45.142602995038033" lon="3.255390040576458">
        <ele>1011.9299999999999</ele>
        <time>2025-04-25T07:17:25Z</time>
      </trkpt>
      <trkpt lat="45.142600983381271" lon="3.255132967606187">
        <ele>1010.48</ele>
        <time>2025-04-25T07:17:26Z</time>
      </trkpt>
      <trkpt lat="45.142636019736528" lon="3.254882013425231">
        <ele>1009.52</ele>
        <time>2025-04-25T07:17:27Z</time>
      </trkpt>
      <trkpt lat="45.142752025276423" lon="3.254197966307402">
        <ele>1006.16</ele>
        <time>2025-04-25T07:17:30Z</time>
      </trkpt>
      <trkpt lat="45.14277096837759" lon="3.253995962440968">
        <ele>1005.2</ele>
        <time>2025-04-25T07:17:31Z</time>
      </trkpt>
      <trkpt lat="45.142732998356223" lon="3.253831006586552">
        <ele>1004.23</ele>
        <time>2025-04-25T07:17:32Z</time>
      </trkpt>
      <trkpt lat="45.142670972272754" lon="3.25367895886302">
        <ele>1003.27</ele>
        <time>2025-04-25T07:17:33Z</time>
      </trkpt>
      <trkpt lat="45.142585979774594" lon="3.253534035757184">
        <ele>1002.3099999999999</ele>
        <time>2025-04-25T07:17:34Z</time>
      </trkpt>
      <trkpt lat="45.142477015033364" lon="3.253417024388909">
        <ele>1000.87</ele>
        <time>2025-04-25T07:17:35Z</time>
      </trkpt>
      <trkpt lat="45.142352040857077" lon="3.253303030505776">
        <ele>1000.39</ele>
        <time>2025-04-25T07:17:36Z</time>
      </trkpt>
      <trkpt lat="45.142213990911841" lon="3.253207979723811">
        <ele>999.90999999999997</ele>
        <time>2025-04-25T07:17:37Z</time>
      </trkpt>
      <trkpt lat="45.142066972330213" lon="3.253123993054032">
        <ele>998.95000000000005</ele>
        <time>2025-04-25T07:17:38Z</time>
      </trkpt>
      <trkpt lat="45.141911990940571" lon="3.253063978627324">
        <ele>997.99000000000001</ele>
        <time>2025-04-25T07:17:39Z</time>
      </trkpt>
      <trkpt lat="45.141744017601013" lon="3.253016034141183">
        <ele>997.01999999999998</ele>
        <time>2025-04-25T07:17:40Z</time>
      </trkpt>
      <trkpt lat="45.14025698415935" lon="3.252354031428695">
        <ele>987.88999999999999</ele>
        <time>2025-04-25T07:17:48Z</time>
      </trkpt>
      <trkpt lat="45.138477003201842" lon="3.251391034573317">
        <ele>973.47000000000003</ele>
        <time>2025-04-25T07:17:58Z</time>
      </trkpt>
      <trkpt lat="45.137752974405885" lon="3.251116024330258">
        <ele>968.66999999999996</ele>
        <time>2025-04-25T07:18:02Z</time>
      </trkpt>
      <trkpt lat="45.137616014108062" lon="3.250988032668829">
        <ele>967.22000000000003</ele>
        <time>2025-04-25T07:18:03Z</time>
      </trkpt>
      <trkpt lat="45.137508977204561" lon="3.250827016308904">
        <ele>965.77999999999997</ele>
        <time>2025-04-25T07:18:04Z</time>
      </trkpt>
      <trkpt lat="45.137423984706402" lon="3.250643033534288">
        <ele>964.82000000000005</ele>
        <time>2025-04-25T07:18:05Z</time>
      </trkpt>
      <trkpt lat="45.137336980551481" lon="3.250449998304248">
        <ele>963.38</ele>
        <time>2025-04-25T07:18:06Z</time>
      </trkpt>
      <trkpt lat="45.137249976396561" lon="3.250257968902588">
        <ele>962.41999999999996</ele>
        <time>2025-04-25T07:18:07Z</time>
      </trkpt>
      <trkpt lat="45.137170013040304" lon="3.250079015269876">
        <ele>961.46000000000004</ele>
        <time>2025-04-25T07:18:08Z</time>
      </trkpt>
      <trkpt lat="45.137078985571861" lon="3.249920010566711">
        <ele>960.49000000000001</ele>
        <time>2025-04-25T07:18:09Z</time>
      </trkpt>
      <trkpt lat="45.136969015002251" lon="3.249804005026817">
        <ele>959.52999999999997</ele>
        <time>2025-04-25T07:18:10Z</time>
      </trkpt>
      <trkpt lat="45.136758964508772" lon="3.249583980068564">
        <ele>957.61000000000001</ele>
        <time>2025-04-25T07:18:12Z</time>
      </trkpt>
      <trkpt lat="45.136661985889077" lon="3.249477026984096">
        <ele>957.13</ele>
        <time>2025-04-25T07:18:13Z</time>
      </trkpt>
      <trkpt lat="45.136622004210949" lon="3.249310981482267">
        <ele>956.64999999999998</ele>
        <time>2025-04-25T07:18:14Z</time>
      </trkpt>
      <trkpt lat="45.136577999219298" lon="3.249129010364413">
        <ele>956.64999999999998</ele>
        <time>2025-04-25T07:18:15Z</time>
      </trkpt>
      <trkpt lat="45.136530976742506" lon="3.248935975134373">
        <ele>956.16999999999996</ele>
        <time>2025-04-25T07:18:16Z</time>
      </trkpt>
      <trkpt lat="45.136195030063391" lon="3.247910030186176">
        <ele>956.64999999999998</ele>
        <time>2025-04-25T07:18:21Z</time>
      </trkpt>
      <trkpt lat="45.136082964017987" lon="3.247735016047955">
        <ele>957.13</ele>
        <time>2025-04-25T07:18:22Z</time>
      </trkpt>
      <trkpt lat="45.135966958478093" lon="3.247553966939449">
        <ele>957.61000000000001</ele>
        <time>2025-04-25T07:18:23Z</time>
      </trkpt>
      <trkpt lat="45.135833015665412" lon="3.247373001649976">
        <ele>958.09000000000003</ele>
        <time>2025-04-25T07:18:24Z</time>
      </trkpt>
      <trkpt lat="45.135674010962248" lon="3.247237969189882">
        <ele>958.57000000000005</ele>
        <time>2025-04-25T07:18:25Z</time>
      </trkpt>
      <trkpt lat="45.135512994602323" lon="3.24710201472044">
        <ele>959.04999999999995</ele>
        <time>2025-04-25T07:18:26Z</time>
      </trkpt>
      <trkpt lat="45.134894996881485" lon="3.246577978134155">
        <ele>963.38</ele>
        <time>2025-04-25T07:18:30Z</time>
      </trkpt>
      <trkpt lat="45.134773962199688" lon="3.246475970372558">
        <ele>963.86000000000001</ele>
        <time>2025-04-25T07:18:31Z</time>
      </trkpt>
      <trkpt lat="45.134707996621728" lon="3.246333980932832">
        <ele>964.82000000000005</ele>
        <time>2025-04-25T07:18:32Z</time>
      </trkpt>
      <trkpt lat="45.134666003286839" lon="3.246173970401287">
        <ele>965.77999999999997</ele>
        <time>2025-04-25T07:18:33Z</time>
      </trkpt>
      <trkpt lat="45.134630966931581" lon="3.24600700289011">
        <ele>966.74000000000001</ele>
        <time>2025-04-25T07:18:34Z</time>
      </trkpt>
      <trkpt lat="45.134595008566976" lon="3.245864007622004">
        <ele>967.22000000000003</ele>
        <time>2025-04-25T07:18:35Z</time>
      </trkpt>
      <trkpt lat="45.134529964998364" lon="3.245746996253729">
        <ele>967.70000000000005</ele>
        <time>2025-04-25T07:18:36Z</time>
      </trkpt>
      <trkpt lat="45.134422006085515" lon="3.245673989877105">
        <ele>968.66999999999996</ele>
        <time>2025-04-25T07:18:37Z</time>
      </trkpt>
      <trkpt lat="45.134296026080847" lon="3.245651023462415">
        <ele>969.63</ele>
        <time>2025-04-25T07:18:38Z</time>
      </trkpt>
      <trkpt lat="45.134145990014076" lon="3.245624033734202">
        <ele>970.59000000000003</ele>
        <time>2025-04-25T07:18:39Z</time>
      </trkpt>
      <trkpt lat="45.133988996967673" lon="3.245584974065423">
        <ele>971.54999999999995</ele>
        <time>2025-04-25T07:18:40Z</time>
      </trkpt>
      <trkpt lat="45.133821023628116" lon="3.24551003985107">
        <ele>972.99000000000001</ele>
        <time>2025-04-25T07:18:41Z</time>
      </trkpt>
      <trkpt lat="45.132228964939713" lon="3.244796991348267">
        <ele>984.04999999999995</ele>
        <time>2025-04-25T07:18:49Z</time>
      </trkpt>
      <trkpt lat="45.132023021578789" lon="3.244730019941926">
        <ele>985.49000000000001</ele>
        <time>2025-04-25T07:18:50Z</time>
      </trkpt>
      <trkpt lat="45.131611973047256" lon="3.244624994695187">
        <ele>988.85000000000002</ele>
        <time>2025-04-25T07:18:52Z</time>
      </trkpt>
      <trkpt lat="45.131035968661308" lon="3.244534973055124">
        <ele>993.65999999999997</ele>
        <time>2025-04-25T07:18:55Z</time>
      </trkpt>
      <trkpt lat="45.130867995321751" lon="3.244506977498531">
        <ele>995.10000000000002</ele>
        <time>2025-04-25T07:18:56Z</time>
      </trkpt>
      <trkpt lat="45.130721982568502" lon="3.24443900026381">
        <ele>996.53999999999996</ele>
        <time>2025-04-25T07:18:57Z</time>
      </trkpt>
      <trkpt lat="45.130582004785538" lon="3.244366999715567">
        <ele>997.50999999999999</ele>
        <time>2025-04-25T07:18:58Z</time>
      </trkpt>
      <trkpt lat="45.130467005074024" lon="3.244233978912234">
        <ele>998.95000000000005</ele>
        <time>2025-04-25T07:18:59Z</time>
      </trkpt>
      <trkpt lat="45.130353011190891" lon="3.244101963937283">
        <ele>999.90999999999997</ele>
        <time>2025-04-25T07:19:00Z</time>
      </trkpt>
      <trkpt lat="45.130252009257674" lon="3.24398503638804">
        <ele>1000.87</ele>
        <time>2025-04-25T07:19:01Z</time>
      </trkpt>
      <trkpt lat="45.130168022587895" lon="3.243896020576358">
        <ele>1002.3099999999999</ele>
        <time>2025-04-25T07:19:02Z</time>
      </trkpt>
      <trkpt lat="45.130085041746497" lon="3.243841035291553">
        <ele>1003.27</ele>
        <time>2025-04-25T07:19:03Z</time>
      </trkpt>
      <trkpt lat="45.129989990964532" lon="3.243857966735959">
        <ele>1004.23</ele>
        <time>2025-04-25T07:19:04Z</time>
      </trkpt>
      <trkpt lat="45.129893012344837" lon="3.243933990597725">
        <ele>1005.2</ele>
        <time>2025-04-25T07:19:05Z</time>
      </trkpt>
      <trkpt lat="45.129837021231651" lon="3.244064999744296">
        <ele>1005.6799999999999</ele>
        <time>2025-04-25T07:19:06Z</time>
      </trkpt>
      <trkpt lat="45.129772983491421" lon="3.244213024154306">
        <ele>1006.16</ele>
        <time>2025-04-25T07:19:07Z</time>
      </trkpt>
      <trkpt lat="45.129647003486753" lon="3.24450396001339">
        <ele>1007.12</ele>
        <time>2025-04-25T07:19:09Z</time>
      </trkpt>
      <trkpt lat="45.129567962139845" lon="3.244602028280497">
        <ele>1007.6</ele>
        <time>2025-04-25T07:19:10Z</time>
      </trkpt>
      <trkpt lat="45.129433013498783" lon="3.244721973314881">
        <ele>1008.5599999999999</ele>
        <time>2025-04-25T07:19:11Z</time>
      </trkpt>
      <trkpt lat="45.129326982423663" lon="3.244742006063461">
        <ele>1009.52</ele>
        <time>2025-04-25T07:19:12Z</time>
      </trkpt>
      <trkpt lat="45.129172001034021" lon="3.244772013276815">
        <ele>1010.48</ele>
        <time>2025-04-25T07:19:13Z</time>
      </trkpt>
      <trkpt lat="45.128274969756603" lon="3.244945015758276">
        <ele>1016.25</ele>
        <time>2025-04-25T07:19:18Z</time>
      </trkpt>
      <trkpt lat="45.128139015287161" lon="3.244929006323218">
        <ele>1017.21</ele>
        <time>2025-04-25T07:19:19Z</time>
      </trkpt>
      <trkpt lat="45.128037007525563" lon="3.24488902464509">
        <ele>1017.6900000000001</ele>
        <time>2025-04-25T07:19:20Z</time>
      </trkpt>
      <trkpt lat="45.127957966178656" lon="3.244821969419718">
        <ele>1018.65</ele>
        <time>2025-04-25T07:19:21Z</time>
      </trkpt>
      <trkpt lat="45.127892000600696" lon="3.244733959436417">
        <ele>1019.13</ele>
        <time>2025-04-25T07:19:22Z</time>
      </trkpt>
      <trkpt lat="45.127854030579329" lon="3.244603034108877">
        <ele>1019.62</ele>
        <time>2025-04-25T07:19:23Z</time>
      </trkpt>
      <trkpt lat="45.12783600948751" lon="3.24446096085012">
        <ele>1020.1</ele>
        <time>2025-04-25T07:19:24Z</time>
      </trkpt>
      <trkpt lat="45.12781597673893" lon="3.244306985288858">
        <ele>1020.1</ele>
        <time>2025-04-25T07:19:25Z</time>
      </trkpt>
      <trkpt lat="45.12779401615262" lon="3.244140017777681">
        <ele>1020.58</ele>
        <time>2025-04-25T07:19:26Z</time>
      </trkpt>
      <trkpt lat="45.127697959542274" lon="3.243390005081892">
        <ele>1023.46</ele>
        <time>2025-04-25T07:19:30Z</time>
      </trkpt>
      <trkpt lat="45.127709023654461" lon="3.243197975680232">
        <ele>1023.9400000000001</ele>
        <time>2025-04-25T07:19:31Z</time>
      </trkpt>
      <trkpt lat="45.127741964533925" lon="3.243008963763714">
        <ele>1024.9000000000001</ele>
        <time>2025-04-25T07:19:32Z</time>
      </trkpt>
      <trkpt lat="45.12779401615262" lon="3.24280503205955">
        <ele>1025.8599999999999</ele>
        <time>2025-04-25T07:19:33Z</time>
      </trkpt>
      <trkpt lat="45.127869034186006" lon="3.242610991001129">
        <ele>1026.3399999999999</ele>
        <time>2025-04-25T07:19:34Z</time>
      </trkpt>
      <trkpt lat="45.127958972007036" lon="3.242400018498302">
        <ele>1026.8299999999999</ele>
        <time>2025-04-25T07:19:35Z</time>
      </trkpt>
      <trkpt lat="45.128164999186993" lon="3.241992993280292">
        <ele>1027.79</ele>
        <time>2025-04-25T07:19:37Z</time>
      </trkpt>
      <trkpt lat="45.128281004726887" lon="3.241797024384141">
        <ele>1027.79</ele>
        <time>2025-04-25T07:19:38Z</time>
      </trkpt>
      <trkpt lat="45.128429029136896" lon="3.241630978882313">
        <ele>1027.79</ele>
        <time>2025-04-25T07:19:39Z</time>
      </trkpt>
      <trkpt lat="45.130227031186223" lon="3.239610018208623">
        <ele>1026.8299999999999</ele>
        <time>2025-04-25T07:19:51Z</time>
      </trkpt>
      <trkpt lat="45.130855003371835" lon="3.238855982199311">
        <ele>1029.71</ele>
        <time>2025-04-25T07:19:56Z</time>
      </trkpt>
      <trkpt lat="45.130920968949795" lon="3.238676022738218">
        <ele>1030.1900000000001</ele>
        <time>2025-04-25T07:19:57Z</time>
      </trkpt>
      <trkpt lat="45.130988024175167" lon="3.238469995558262">
        <ele>1030.6700000000001</ele>
        <time>2025-04-25T07:19:58Z</time>
      </trkpt>
      <trkpt lat="45.13133998028934" lon="3.23661801405251">
        <ele>1032.5899999999999</ele>
        <time>2025-04-25T07:20:05Z</time>
      </trkpt>
      <trkpt lat="45.13170400634408" lon="3.234718004241586">
        <ele>1034.04</ele>
        <time>2025-04-25T07:20:13Z</time>
      </trkpt>
      <trkpt lat="45.131799979135394" lon="3.234220035374165">
        <ele>1034.52</ele>
        <time>2025-04-25T07:20:18Z</time>
      </trkpt>
      <trkpt lat="45.131792016327381" lon="3.234133031219244">
        <ele>1034.52</ele>
        <time>2025-04-25T07:20:19Z</time>
      </trkpt>
      <trkpt lat="45.131762009114027" lon="3.234120039269328">
        <ele>1034.52</ele>
        <time>2025-04-25T07:20:20Z</time>
      </trkpt>
      <trkpt lat="45.131718004122376" lon="3.234101012349129">
        <ele>1034.04</ele>
        <time>2025-04-25T07:20:21Z</time>
      </trkpt>
      <trkpt lat="45.131655978038907" lon="3.234074022620916">
        <ele>1034.04</ele>
        <time>2025-04-25T07:20:22Z</time>
      </trkpt>
      <trkpt lat="45.131577020511031" lon="3.234038986265659">
        <ele>1034.04</ele>
        <time>2025-04-25T07:20:23Z</time>
      </trkpt>
      <trkpt lat="45.131482975557446" lon="3.233997998759151">
        <ele>1034.04</ele>
        <time>2025-04-25T07:20:24Z</time>
      </trkpt>
      <trkpt lat="45.131392031908035" lon="3.233921974897385">
        <ele>1034.04</ele>
        <time>2025-04-25T07:20:25Z</time>
      </trkpt>
      <trkpt lat="45.131292035803199" lon="3.233832037076354">
        <ele>1035</ele>
        <time>2025-04-25T07:20:26Z</time>
      </trkpt>
      <trkpt lat="45.13118801638484" lon="3.233737992122769">
        <ele>1035.48</ele>
        <time>2025-04-25T07:20:27Z</time>
      </trkpt>
      <trkpt lat="45.131078967824578" lon="3.233639001846314">
        <ele>1035.96</ele>
        <time>2025-04-25T07:20:28Z</time>
      </trkpt>
      <trkpt lat="45.130958016961813" lon="3.233553003519774">
        <ele>1036.9200000000001</ele>
        <time>2025-04-25T07:20:29Z</time>
      </trkpt>
      <trkpt lat="45.130832958966494" lon="3.233473040163517">
        <ele>1037.4000000000001</ele>
        <time>2025-04-25T07:20:30Z</time>
      </trkpt>
      <trkpt lat="45.130688035860658" lon="3.233433980494738">
        <ele>1037.8800000000001</ele>
        <time>2025-04-25T07:20:31Z</time>
      </trkpt>
      <trkpt lat="45.130533976480365" lon="3.233403973281384">
        <ele>1038.8399999999999</ele>
        <time>2025-04-25T07:20:32Z</time>
      </trkpt>
      <trkpt lat="45.13037103228271" lon="3.2333720382303">
        <ele>1039.3199999999999</ele>
        <time>2025-04-25T07:20:33Z</time>
      </trkpt>
      <trkpt lat="45.129538960754871" lon="3.233161987736821">
        <ele>1041.25</ele>
        <time>2025-04-25T07:20:38Z</time>
      </trkpt>
      <trkpt lat="45.129379034042358" lon="3.233074983581901">
        <ele>1041.73</ele>
        <time>2025-04-25T07:20:39Z</time>
      </trkpt>
      <trkpt lat="45.129225980490446" lon="3.232954032719135">
        <ele>1042.21</ele>
        <time>2025-04-25T07:20:40Z</time>
      </trkpt>
      <trkpt lat="45.127547001466155" lon="3.231767993420363">
        <ele>1046.53</ele>
        <time>2025-04-25T07:20:50Z</time>
      </trkpt>
      <trkpt lat="45.125928958877921" lon="3.231299025937915">
        <ele>1045.0899999999999</ele>
        <time>2025-04-25T07:20:58Z</time>
      </trkpt>
      <trkpt lat="45.123564004898071" lon="3.230778006836772">
        <ele>1041.73</ele>
        <time>2025-04-25T07:21:09Z</time>
      </trkpt>
      <trkpt lat="45.121773965656757" lon="3.231028039008379">
        <ele>1042.6900000000001</ele>
        <time>2025-04-25T07:21:18Z</time>
      </trkpt>
      <trkpt lat="45.120979025959969" lon="3.23113901540637">
        <ele>1043.1700000000001</ele>
        <time>2025-04-25T07:21:24Z</time>
      </trkpt>
      <trkpt lat="45.120879029855132" lon="3.231131974607706">
        <ele>1043.1700000000001</ele>
        <time>2025-04-25T07:21:25Z</time>
      </trkpt>
      <trkpt lat="45.11984596028924" lon="3.230980010703206">
        <ele>1041.25</ele>
        <time>2025-04-25T07:21:33Z</time>
      </trkpt>
      <trkpt lat="45.119390990585089" lon="3.23107497766614">
        <ele>1039.8</ele>
        <time>2025-04-25T07:21:38Z</time>
      </trkpt>
      <trkpt lat="45.119256963953376" lon="3.231100039556623">
        <ele>1039.8</ele>
        <time>2025-04-25T07:21:39Z</time>
      </trkpt>
      <trkpt lat="45.119214970618486" lon="3.231038013473153">
        <ele>1039.8</ele>
        <time>2025-04-25T07:21:40Z</time>
      </trkpt>
      <trkpt lat="45.119169959798455" lon="3.230972969904542">
        <ele>1039.8</ele>
        <time>2025-04-25T07:21:41Z</time>
      </trkpt>
      <trkpt lat="45.119131989777088" lon="3.230916978791356">
        <ele>1039.3199999999999</ele>
        <time>2025-04-25T07:21:42Z</time>
      </trkpt>
      <trkpt lat="45.119102988392115" lon="3.230874985456467">
        <ele>1039.3199999999999</ele>
        <time>2025-04-25T07:21:43Z</time>
      </trkpt>
      <trkpt lat="45.119072981178761" lon="3.230830980464816">
        <ele>1039.3199999999999</ele>
        <time>2025-04-25T07:21:44Z</time>
      </trkpt>
      <trkpt lat="45.119036016985774" lon="3.230777001008391">
        <ele>1039.3199999999999</ele>
        <time>2025-04-25T07:21:45Z</time>
      </trkpt>
      <trkpt lat="45.11898597702384" lon="3.230712963268161">
        <ele>1039.3199999999999</ele>
        <time>2025-04-25T07:21:46Z</time>
      </trkpt>
      <trkpt lat="45.118854967877269" lon="3.230582037940621">
        <ele>1039.3199999999999</ele>
        <time>2025-04-25T07:21:48Z</time>
      </trkpt>
      <trkpt lat="45.118796965107322" lon="3.230508025735617">
        <ele>1039.8</ele>
        <time>2025-04-25T07:21:49Z</time>
      </trkpt>
      <trkpt lat="45.118751032277942" lon="3.230410041287541">
        <ele>1039.8</ele>
        <time>2025-04-25T07:21:50Z</time>
      </trkpt>
      <trkpt lat="45.118617005646229" lon="3.230127990245819">
        <ele>1040.76</ele>
        <time>2025-04-25T07:21:53Z</time>
      </trkpt>
      <trkpt lat="45.118578029796481" lon="3.230040986090899">
        <ele>1040.76</ele>
        <time>2025-04-25T07:21:54Z</time>
      </trkpt>
      <trkpt lat="45.118538970127702" lon="3.229955993592739">
        <ele>1041.25</ele>
        <time>2025-04-25T07:21:55Z</time>
      </trkpt>
      <trkpt lat="45.118513992056251" lon="3.22987100109458">
        <ele>1041.25</ele>
        <time>2025-04-25T07:21:56Z</time>
      </trkpt>
      <trkpt lat="45.118530001491308" lon="3.229740997776389">
        <ele>1042.21</ele>
        <time>2025-04-25T07:21:57Z</time>
      </trkpt>
      <trkpt lat="45.118553973734379" lon="3.22955098003149">
        <ele>1042.6900000000001</ele>
        <time>2025-04-25T07:21:58Z</time>
      </trkpt>
      <trkpt lat="45.118592027574778" lon="3.229427011683583">
        <ele>1043.6500000000001</ele>
        <time>2025-04-25T07:21:59Z</time>
      </trkpt>
      <trkpt lat="45.11868498288095" lon="3.229125011712313">
        <ele>1044.1300000000001</ele>
        <time>2025-04-25T07:22:01Z</time>
      </trkpt>
      <trkpt lat="45.118725970387459" lon="3.228992996737361">
        <ele>1044.1300000000001</ele>
        <time>2025-04-25T07:22:02Z</time>
      </trkpt>
      <trkpt lat="45.118736028671265" lon="3.228833992034197">
        <ele>1043.6500000000001</ele>
        <time>2025-04-25T07:22:03Z</time>
      </trkpt>
      <trkpt lat="45.118744997307658" lon="3.228693008422852">
        <ele>1043.1700000000001</ele>
        <time>2025-04-25T07:22:04Z</time>
      </trkpt>
      <trkpt lat="45.118725970387459" lon="3.228542972356081">
        <ele>1042.21</ele>
        <time>2025-04-25T07:22:05Z</time>
      </trkpt>
      <trkpt lat="45.118694035336375" lon="3.228382039815188">
        <ele>1041.73</ele>
        <time>2025-04-25T07:22:06Z</time>
      </trkpt>
      <trkpt lat="45.118654975667596" lon="3.228207025676966">
        <ele>1041.25</ele>
        <time>2025-04-25T07:22:07Z</time>
      </trkpt>
      <trkpt lat="45.118582975119352" lon="3.228042991831899">
        <ele>1040.28</ele>
        <time>2025-04-25T07:22:08Z</time>
      </trkpt>
      <trkpt lat="45.118508040904999" lon="3.227872001007199">
        <ele>1039.8</ele>
        <time>2025-04-25T07:22:09Z</time>
      </trkpt>
      <trkpt lat="45.118424976244569" lon="3.227685000747442">
        <ele>1038.3599999999999</ele>
        <time>2025-04-25T07:22:10Z</time>
      </trkpt>
      <trkpt lat="45.118309976533055" lon="3.227516021579504">
        <ele>1037.8800000000001</ele>
        <time>2025-04-25T07:22:11Z</time>
      </trkpt>
      <trkpt lat="45.11786799877882" lon="3.226869022473693">
        <ele>1035.48</ele>
        <time>2025-04-25T07:22:15Z</time>
      </trkpt>
      <trkpt lat="45.117777977138758" lon="3.226699959486723">
        <ele>1035</ele>
        <time>2025-04-25T07:22:16Z</time>
      </trkpt>
      <trkpt lat="45.117689967155457" lon="3.226533997803927">
        <ele>1035</ele>
        <time>2025-04-25T07:22:17Z</time>
      </trkpt>
      <trkpt lat="45.117518976330757" lon="3.226210959255695">
        <ele>1034.52</ele>
        <time>2025-04-25T07:22:19Z</time>
      </trkpt>
      <trkpt lat="45.117428032681346" lon="3.226053966209292">
        <ele>1034.52</ele>
        <time>2025-04-25T07:22:20Z</time>
      </trkpt>
      <trkpt lat="45.117138018831611" lon="3.225581981241703">
        <ele>1034.52</ele>
        <time>2025-04-25T07:22:23Z</time>
      </trkpt>
      <trkpt lat="45.117042968049645" lon="3.22551098652184">
        <ele>1034.52</ele>
        <time>2025-04-25T07:22:24Z</time>
      </trkpt>
      <trkpt lat="45.116925034672022" lon="3.225438985973597">
        <ele>1034.52</ele>
        <time>2025-04-25T07:22:25Z</time>
      </trkpt>
      <trkpt lat="45.116646001115441" lon="3.225341001525521">
        <ele>1034.52</ele>
        <time>2025-04-25T07:22:27Z</time>
      </trkpt>
      <trkpt lat="45.116526978090405" lon="3.225291967391968">
        <ele>1034.04</ele>
        <time>2025-04-25T07:22:28Z</time>
      </trkpt>
      <trkpt lat="45.116441985592246" lon="3.225197000429034">
        <ele>1034.04</ele>
        <time>2025-04-25T07:22:29Z</time>
      </trkpt>
      <trkpt lat="45.116344001144171" lon="3.225088035687804">
        <ele>1034.04</ele>
        <time>2025-04-25T07:22:30Z</time>
      </trkpt>
      <trkpt lat="45.116290021687746" lon="3.224969012662768">
        <ele>1034.04</ele>
        <time>2025-04-25T07:22:31Z</time>
      </trkpt>
      <trkpt lat="45.116223972290754" lon="3.224820988252759">
        <ele>1033.55</ele>
        <time>2025-04-25T07:22:32Z</time>
      </trkpt>
      <trkpt lat="45.116161024197936" lon="3.224680004641414">
        <ele>1033.55</ele>
        <time>2025-04-25T07:22:33Z</time>
      </trkpt>
      <trkpt lat="45.11606496758759" lon="3.224340034648776">
        <ele>1033.55</ele>
        <time>2025-04-25T07:22:35Z</time>
      </trkpt>
      <trkpt lat="45.116082988679409" lon="3.224142976105213">
        <ele>1034.04</ele>
        <time>2025-04-25T07:22:36Z</time>
      </trkpt>
      <trkpt lat="45.116157000884414" lon="3.223788002505899">
        <ele>1034.04</ele>
        <time>2025-04-25T07:22:38Z</time>
      </trkpt>
      <trkpt lat="45.1161939650774" lon="3.223607959225774">
        <ele>1034.04</ele>
        <time>2025-04-25T07:22:39Z</time>
      </trkpt>
      <trkpt lat="45.11617099866271" lon="3.22346999309957">
        <ele>1034.52</ele>
        <time>2025-04-25T07:22:40Z</time>
      </trkpt>
      <trkpt lat="45.116120958700776" lon="3.223288021981716">
        <ele>1034.52</ele>
        <time>2025-04-25T07:22:41Z</time>
      </trkpt>
      <trkpt lat="45.116033032536507" lon="3.22310596704483">
        <ele>1035</ele>
        <time>2025-04-25T07:22:42Z</time>
      </trkpt>
      <trkpt lat="45.115945022553205" lon="3.222923995926976">
        <ele>1035.48</ele>
        <time>2025-04-25T07:22:43Z</time>
      </trkpt>
      <trkpt lat="45.11559197679162" lon="3.222383027896285">
        <ele>1035.96</ele>
        <time>2025-04-25T07:22:46Z</time>
      </trkpt>
      <trkpt lat="45.115195009857416" lon="3.221920011565089">
        <ele>1036.9200000000001</ele>
        <time>2025-04-25T07:22:49Z</time>
      </trkpt>
      <trkpt lat="45.115056037902832" lon="3.221799982711673">
        <ele>1036.9200000000001</ele>
        <time>2025-04-25T07:22:50Z</time>
      </trkpt>
      <trkpt lat="45.114554967731237" lon="3.221267983317375">
        <ele>1037.4000000000001</ele>
        <time>2025-04-25T07:22:54Z</time>
      </trkpt>
      <trkpt lat="45.11445103213191" lon="3.221110990270972">
        <ele>1037.8800000000001</ele>
        <time>2025-04-25T07:22:55Z</time>
      </trkpt>
      <trkpt lat="45.114132016897202" lon="3.220650991424918">
        <ele>1038.3599999999999</ele>
        <time>2025-04-25T07:22:58Z</time>
      </trkpt>
      <trkpt lat="45.114017017185688" lon="3.220569016411901">
        <ele>1038.3599999999999</ele>
        <time>2025-04-25T07:22:59Z</time>
      </trkpt>
      <trkpt lat="45.113876033574343" lon="3.220530040562153">
        <ele>1037.8800000000001</ele>
        <time>2025-04-25T07:23:00Z</time>
      </trkpt>
      <trkpt lat="45.113734966143966" lon="3.220497015863657">
        <ele>1037.8800000000001</ele>
        <time>2025-04-25T07:23:01Z</time>
      </trkpt>
      <trkpt lat="45.113576967269182" lon="3.220484023913741">
        <ele>1037.8800000000001</ele>
        <time>2025-04-25T07:23:02Z</time>
      </trkpt>
      <trkpt lat="45.112137040123343" lon="3.220720980316401">
        <ele>1040.76</ele>
        <time>2025-04-25T07:23:10Z</time>
      </trkpt>
      <trkpt lat="45.111012021079659" lon="3.220920972526074">
        <ele>1043.6500000000001</ele>
        <time>2025-04-25T07:23:16Z</time>
      </trkpt>
      <trkpt lat="45.110849998891354" lon="3.220885014161468">
        <ele>1044.1300000000001</ele>
        <time>2025-04-25T07:23:17Z</time>
      </trkpt>
      <trkpt lat="45.11069200001657" lon="3.220812007784843">
        <ele>1044.6099999999999</ele>
        <time>2025-04-25T07:23:18Z</time>
      </trkpt>
      <trkpt lat="45.110531989485025" lon="3.220713017508388">
        <ele>1045.0899999999999</ele>
        <time>2025-04-25T07:23:19Z</time>
      </trkpt>
      <trkpt lat="45.11036803945899" lon="3.220602963119745">
        <ele>1046.05</ele>
        <time>2025-04-25T07:23:20Z</time>
      </trkpt>
      <trkpt lat="45.109502021223307" lon="3.219936015084386">
        <ele>1050.8599999999999</ele>
        <time>2025-04-25T07:23:25Z</time>
      </trkpt>
      <trkpt lat="45.109039004892111" lon="3.219492025673389">
        <ele>1054.7</ele>
        <time>2025-04-25T07:23:28Z</time>
      </trkpt>
      <trkpt lat="45.108880000188947" lon="3.21940996684134">
        <ele>1056.1500000000001</ele>
        <time>2025-04-25T07:23:29Z</time>
      </trkpt>
      <trkpt lat="45.10845797136426" lon="3.219178961589932">
        <ele>1060.95</ele>
        <time>2025-04-25T07:23:32Z</time>
      </trkpt>
      <trkpt lat="45.108355963602662" lon="3.219083994626999">
        <ele>1062.8699999999999</ele>
        <time>2025-04-25T07:23:33Z</time>
      </trkpt>
      <trkpt lat="45.108170974999666" lon="3.218875033780932">
        <ele>1065.76</ele>
        <time>2025-04-25T07:23:36Z</time>
      </trkpt>
      <trkpt lat="45.108144991099834" lon="3.218800015747547">
        <ele>1066.72</ele>
        <time>2025-04-25T07:23:37Z</time>
      </trkpt>
      <trkpt lat="45.10811498388648" lon="3.218713011592627">
        <ele>1067.6800000000001</ele>
        <time>2025-04-25T07:23:38Z</time>
      </trkpt>
      <trkpt lat="45.108080031350255" lon="3.21861301548779">
        <ele>1068.1600000000001</ele>
        <time>2025-04-25T07:23:39Z</time>
      </trkpt>
      <trkpt lat="45.108044994994998" lon="3.218511007726193">
        <ele>1068.1600000000001</ele>
        <time>2025-04-25T07:23:40Z</time>
      </trkpt>
      <trkpt lat="45.107965031638741" lon="3.218298023566604">
        <ele>1069.1199999999999</ele>
        <time>2025-04-25T07:23:42Z</time>
      </trkpt>
      <trkpt lat="45.107914991676807" lon="3.218203978613019">
        <ele>1069.1199999999999</ele>
        <time>2025-04-25T07:23:43Z</time>
      </trkpt>
      <trkpt lat="45.107840979471803" lon="3.218129966408014">
        <ele>1069.1199999999999</ele>
        <time>2025-04-25T07:23:44Z</time>
      </trkpt>
      <trkpt lat="45.107762021943927" lon="3.218051008880138">
        <ele>1068.6400000000001</ele>
        <time>2025-04-25T07:23:45Z</time>
      </trkpt>
      <trkpt lat="45.107672000303864" lon="3.218025024980307">
        <ele>1068.1600000000001</ele>
        <time>2025-04-25T07:23:46Z</time>
      </trkpt>
      <trkpt lat="45.107561023905873" lon="3.217993006110191">
        <ele>1068.1600000000001</ele>
        <time>2025-04-25T07:23:47Z</time>
      </trkpt>
      <trkpt lat="45.107431020587683" lon="3.217955958098173">
        <ele>1067.6800000000001</ele>
        <time>2025-04-25T07:23:48Z</time>
      </trkpt>
      <trkpt lat="45.106296027079225" lon="3.217444997280836">
        <ele>1063.3599999999999</ele>
        <time>2025-04-25T07:23:55Z</time>
      </trkpt>
      <trkpt lat="45.106140961870551" lon="3.217327985912561">
        <ele>1062.8699999999999</ele>
        <time>2025-04-25T07:23:56Z</time>
      </trkpt>
      <trkpt lat="45.105991009622812" lon="3.2171930372715">
        <ele>1061.9100000000001</ele>
        <time>2025-04-25T07:23:57Z</time>
      </trkpt>
      <trkpt lat="45.105592031031847" lon="3.216695990413427">
        <ele>1060.47</ele>
        <time>2025-04-25T07:24:00Z</time>
      </trkpt>
      <trkpt lat="45.105490023270249" lon="3.216499015688896">
        <ele>1059.99</ele>
        <time>2025-04-25T07:24:01Z</time>
      </trkpt>
      <trkpt lat="45.105390027165413" lon="3.216305980458856">
        <ele>1059.51</ele>
        <time>2025-04-25T07:24:02Z</time>
      </trkpt>
      <trkpt lat="45.105315009132028" lon="3.216161979362369">
        <ele>1059.03</ele>
        <time>2025-04-25T07:24:03Z</time>
      </trkpt>
      <trkpt lat="45.105283996090293" lon="3.215957041829824">
        <ele>1059.03</ele>
        <time>2025-04-25T07:24:04Z</time>
      </trkpt>
      <trkpt lat="45.105262035503983" lon="3.215809017419815">
        <ele>1059.03</ele>
        <time>2025-04-25T07:24:05Z</time>
      </trkpt>
      <trkpt lat="45.105261029675603" lon="3.215683959424496">
        <ele>1059.51</ele>
        <time>2025-04-25T07:24:06Z</time>
      </trkpt>
      <trkpt lat="45.105289025232196" lon="3.215543981641531">
        <ele>1060.47</ele>
        <time>2025-04-25T07:24:07Z</time>
      </trkpt>
      <trkpt lat="45.10531903244555" lon="3.215401992201805">
        <ele>1060.95</ele>
        <time>2025-04-25T07:24:08Z</time>
      </trkpt>
      <trkpt lat="45.105348033830523" lon="3.215263020247221">
        <ele>1060.95</ele>
        <time>2025-04-25T07:24:09Z</time>
      </trkpt>
      <trkpt lat="45.105378963053226" lon="3.215109966695309">
        <ele>1060.95</ele>
        <time>2025-04-25T07:24:10Z</time>
      </trkpt>
      <trkpt lat="45.105373011901975" lon="3.215007036924362">
        <ele>1060.47</ele>
        <time>2025-04-25T07:24:11Z</time>
      </trkpt>
      <trkpt lat="45.105365971103311" lon="3.214892959222198">
        <ele>1059.99</ele>
        <time>2025-04-25T07:24:12Z</time>
      </trkpt>
      <trkpt lat="45.105358008295298" lon="3.214766979217529">
        <ele>1059.99</ele>
        <time>2025-04-25T07:24:13Z</time>
      </trkpt>
      <trkpt lat="45.105330012738705" lon="3.214704031124711">
        <ele>1059.51</ele>
        <time>2025-04-25T07:24:14Z</time>
      </trkpt>
      <trkpt lat="45.105287013575435" lon="3.214607974514365">
        <ele>1059.51</ele>
        <time>2025-04-25T07:24:15Z</time>
      </trkpt>
      <trkpt lat="45.105230016633868" lon="3.214510995894671">
        <ele>1059.03</ele>
        <time>2025-04-25T07:24:16Z</time>
      </trkpt>
      <trkpt lat="45.105160027742386" lon="3.214405970647931">
        <ele>1058.55</ele>
        <time>2025-04-25T07:24:17Z</time>
      </trkpt>
      <trkpt lat="45.104728024452925" lon="3.213785039260984">
        <ele>1055.6700000000001</ele>
        <time>2025-04-25T07:24:22Z</time>
      </trkpt>
      <trkpt lat="45.104644037783146" lon="3.213739022612572">
        <ele>1055.1800000000001</ele>
        <time>2025-04-25T07:24:23Z</time>
      </trkpt>
      <trkpt lat="45.104559967294335" lon="3.213696023449302">
        <ele>1054.22</ele>
        <time>2025-04-25T07:24:24Z</time>
      </trkpt>
      <trkpt lat="45.104466006159782" lon="3.213741034269333">
        <ele>1053.74</ele>
        <time>2025-04-25T07:24:25Z</time>
      </trkpt>
      <trkpt lat="45.104357963427901" lon="3.213794007897377">
        <ele>1052.78</ele>
        <time>2025-04-25T07:24:26Z</time>
      </trkpt>
      <trkpt lat="45.104238018393517" lon="3.213852010667324">
        <ele>1051.8199999999999</ele>
        <time>2025-04-25T07:24:27Z</time>
      </trkpt>
      <trkpt lat="45.102931028231978" lon="3.214405970647931">
        <ele>1043.1700000000001</ele>
        <time>2025-04-25T07:24:36Z</time>
      </trkpt>
      <trkpt lat="45.101693021133542" lon="3.214763039723039">
        <ele>1035</ele>
        <time>2025-04-25T07:24:44Z</time>
      </trkpt>
      <trkpt lat="45.101592019200325" lon="3.214751975610852">
        <ele>1034.04</ele>
        <time>2025-04-25T07:24:45Z</time>
      </trkpt>
      <trkpt lat="45.101503003388643" lon="3.214697996154428">
        <ele>1033.0699999999999</ele>
        <time>2025-04-25T07:24:46Z</time>
      </trkpt>
      <trkpt lat="45.101423962041736" lon="3.214593976736069">
        <ele>1032.5899999999999</ele>
        <time>2025-04-25T07:24:47Z</time>
      </trkpt>
      <trkpt lat="45.101334024220705" lon="3.214474031701684">
        <ele>1031.6300000000001</ele>
        <time>2025-04-25T07:24:48Z</time>
      </trkpt>
      <trkpt lat="45.101255988702178" lon="3.214335981756449">
        <ele>1030.1900000000001</ele>
        <time>2025-04-25T07:24:49Z</time>
      </trkpt>
      <trkpt lat="45.101199997588992" lon="3.214182006195188">
        <ele>1029.23</ele>
        <time>2025-04-25T07:24:50Z</time>
      </trkpt>
      <trkpt lat="45.101145012304187" lon="3.214033981785178">
        <ele>1028.75</ele>
        <time>2025-04-25T07:24:51Z</time>
      </trkpt>
      <trkpt lat="45.101143000647426" lon="3.213858967646956">
        <ele>1028.27</ele>
        <time>2025-04-25T07:24:52Z</time>
      </trkpt>
      <trkpt lat="45.101161021739244" lon="3.213678002357483">
        <ele>1027.3099999999999</ele>
        <time>2025-04-25T07:24:53Z</time>
      </trkpt>
      <trkpt lat="45.101178959012032" lon="3.213486978784204">
        <ele>1026.3399999999999</ele>
        <time>2025-04-25T07:24:54Z</time>
      </trkpt>
      <trkpt lat="45.101357996463776" lon="3.211697023361921">
        <ele>1017.21</ele>
        <time>2025-04-25T07:25:02Z</time>
      </trkpt>
      <trkpt lat="45.101678017526865" lon="3.210497992113233">
        <ele>1011.9299999999999</ele>
        <time>2025-04-25T07:25:08Z</time>
      </trkpt>
      <trkpt lat="45.101696960628033" lon="3.210345022380352">
        <ele>1010.96</ele>
        <time>2025-04-25T07:25:09Z</time>
      </trkpt>
      <trkpt lat="45.101696038618684" lon="3.210206972435117">
        <ele>1010</ele>
        <time>2025-04-25T07:25:10Z</time>
      </trkpt>
      <trkpt lat="45.101652033627033" lon="3.210101025179029">
        <ele>1009.04</ele>
        <time>2025-04-25T07:25:11Z</time>
      </trkpt>
      <trkpt lat="45.10160299949348" lon="3.209982002153993">
        <ele>1008.5599999999999</ele>
        <time>2025-04-25T07:25:12Z</time>
      </trkpt>
      <trkpt lat="45.101533010601997" lon="3.209892986342311">
        <ele>1008.5599999999999</ele>
        <time>2025-04-25T07:25:13Z</time>
      </trkpt>
      <trkpt lat="45.10145103558898" lon="3.209788966923952">
        <ele>1007.6</ele>
        <time>2025-04-25T07:25:14Z</time>
      </trkpt>
      <trkpt lat="45.10136797092855" lon="3.209684025496244">
        <ele>1007.6</ele>
        <time>2025-04-25T07:25:15Z</time>
      </trkpt>
      <trkpt lat="45.101300999522209" lon="3.209571959450841">
        <ele>1007.12</ele>
        <time>2025-04-25T07:25:16Z</time>
      </trkpt>
      <trkpt lat="45.10117300786078" lon="3.209359981119633">
        <ele>1006.64</ele>
        <time>2025-04-25T07:25:18Z</time>
      </trkpt>
      <trkpt lat="45.101079968735576" lon="3.209290998056531">
        <ele>1006.16</ele>
        <time>2025-04-25T07:25:19Z</time>
      </trkpt>
      <trkpt lat="45.100974021479487" lon="3.209212962538004">
        <ele>1006.16</ele>
        <time>2025-04-25T07:25:20Z</time>
      </trkpt>
      <trkpt lat="45.100864972919226" lon="3.209132999181747">
        <ele>1006.16</ele>
        <time>2025-04-25T07:25:21Z</time>
      </trkpt>
      <trkpt lat="45.100791966542602" lon="3.209020011126995">
        <ele>1006.16</ele>
        <time>2025-04-25T07:25:22Z</time>
      </trkpt>
      <trkpt lat="45.100760031491518" lon="3.20890299975872">
        <ele>1006.16</ele>
        <time>2025-04-25T07:25:23Z</time>
      </trkpt>
      <trkpt lat="45.100748967379332" lon="3.208760004490614">
        <ele>1006.64</ele>
        <time>2025-04-25T07:25:24Z</time>
      </trkpt>
      <trkpt lat="45.100760031491518" lon="3.208599993959069">
        <ele>1007.6</ele>
        <time>2025-04-25T07:25:25Z</time>
      </trkpt>
      <trkpt lat="45.100790960714221" lon="3.208412993699312">
        <ele>1008.5599999999999</ele>
        <time>2025-04-25T07:25:26Z</time>
      </trkpt>
      <trkpt lat="45.100880982354283" lon="3.207874037325382">
        <ele>1011.4400000000001</ele>
        <time>2025-04-25T07:25:29Z</time>
      </trkpt>
      <trkpt lat="45.100881988182664" lon="3.207734981551766">
        <ele>1012.41</ele>
        <time>2025-04-25T07:25:30Z</time>
      </trkpt>
      <trkpt lat="45.100858015939593" lon="3.207628028467298">
        <ele>1012.89</ele>
        <time>2025-04-25T07:25:31Z</time>
      </trkpt>
      <trkpt lat="45.100790038704872" lon="3.207554016262293">
        <ele>1013.37</ele>
        <time>2025-04-25T07:25:32Z</time>
      </trkpt>
      <trkpt lat="45.100715020671487" lon="3.207578994333744">
        <ele>1013.37</ele>
        <time>2025-04-25T07:25:33Z</time>
      </trkpt>
      <trkpt lat="45.100641008466482" lon="3.207642026245594">
        <ele>1013.85</ele>
        <time>2025-04-25T07:25:34Z</time>
      </trkpt>
      <trkpt lat="45.100592980161309" lon="3.207734981551766">
        <ele>1014.8099999999999</ele>
        <time>2025-04-25T07:25:35Z</time>
      </trkpt>
      <trkpt lat="45.100545035675168" lon="3.207883005961776">
        <ele>1015.29</ele>
        <time>2025-04-25T07:25:36Z</time>
      </trkpt>
      <trkpt lat="45.100490972399712" lon="3.208049973472953">
        <ele>1015.77</ele>
        <time>2025-04-25T07:25:37Z</time>
      </trkpt>
      <trkpt lat="45.100435987114906" lon="3.208221970126033">
        <ele>1016.73</ele>
        <time>2025-04-25T07:25:38Z</time>
      </trkpt>
      <trkpt lat="45.100361974909902" lon="3.208392038941383">
        <ele>1017.21</ele>
        <time>2025-04-25T07:25:39Z</time>
      </trkpt>
      <trkpt lat="45.1002739649266" lon="3.208533022552729">
        <ele>1017.6900000000001</ele>
        <time>2025-04-25T07:25:40Z</time>
      </trkpt>
      <trkpt lat="45.099987974390388" lon="3.208936024457216">
        <ele>1020.1</ele>
        <time>2025-04-25T07:25:43Z</time>
      </trkpt>
      <trkpt lat="45.09988596662879" lon="3.20901095867157">
        <ele>1021.0599999999999</ele>
        <time>2025-04-25T07:25:44Z</time>
      </trkpt>
      <trkpt lat="45.099774990230799" lon="3.209053035825491">
        <ele>1021.54</ele>
        <time>2025-04-25T07:25:45Z</time>
      </trkpt>
      <trkpt lat="45.099658984690905" lon="3.20909796282649">
        <ele>1022.5</ele>
        <time>2025-04-25T07:25:46Z</time>
      </trkpt>
      <trkpt lat="45.09953903965652" lon="3.209142973646522">
        <ele>1023.46</ele>
        <time>2025-04-25T07:25:47Z</time>
      </trkpt>
      <trkpt lat="45.099419010803103" lon="3.209226038306952">
        <ele>1023.9400000000001</ele>
        <time>2025-04-25T07:25:48Z</time>
      </trkpt>
      <trkpt lat="45.099313985556364" lon="3.209330979734659">
        <ele>1024.9000000000001</ele>
        <time>2025-04-25T07:25:49Z</time>
      </trkpt>
      <trkpt lat="45.099211977794766" lon="3.209432987496257">
        <ele>1025.3800000000001</ele>
        <time>2025-04-25T07:25:50Z</time>
      </trkpt>
      <trkpt lat="45.099125979468226" lon="3.209544969722629">
        <ele>1026.3399999999999</ele>
        <time>2025-04-25T07:25:51Z</time>
      </trkpt>
      <trkpt lat="45.099049033597112" lon="3.209660975262523">
        <ele>1026.8299999999999</ele>
        <time>2025-04-25T07:25:52Z</time>
      </trkpt>
      <trkpt lat="45.098979966714978" lon="3.209787039086223">
        <ele>1027.3099999999999</ele>
        <time>2025-04-25T07:25:53Z</time>
      </trkpt>
      <trkpt lat="45.098921963945031" lon="3.209929028525949">
        <ele>1027.79</ele>
        <time>2025-04-25T07:25:54Z</time>
      </trkpt>
      <trkpt lat="45.098864967003465" lon="3.210068000480533">
        <ele>1028.27</ele>
        <time>2025-04-25T07:25:55Z</time>
      </trkpt>
      <trkpt lat="45.098662963137031" lon="3.210561024025083">
        <ele>1029.71</ele>
        <time>2025-04-25T07:25:59Z</time>
      </trkpt>
      <trkpt lat="45.098506975919008" lon="3.210763027891517">
        <ele>1029.71</ele>
        <time>2025-04-25T07:26:02Z</time>
      </trkpt>
      <trkpt lat="45.098458025604486" lon="3.210827987641096">
        <ele>1029.71</ele>
        <time>2025-04-25T07:26:03Z</time>
      </trkpt>
      <trkpt lat="45.098220985382795" lon="3.211143985390663">
        <ele>1030.1900000000001</ele>
        <time>2025-04-25T07:26:07Z</time>
      </trkpt>
      <trkpt lat="45.097510032355785" lon="3.212353996932507">
        <ele>1036.9200000000001</ele>
        <time>2025-04-25T07:26:17Z</time>
      </trkpt>
      <trkpt lat="45.097252037376165" lon="3.212687009945512">
        <ele>1040.28</ele>
        <time>2025-04-25T07:26:20Z</time>
      </trkpt>
      <trkpt lat="45.097163021564484" lon="3.212759010493755">
        <ele>1041.25</ele>
        <time>2025-04-25T07:26:21Z</time>
      </trkpt>
      <trkpt lat="45.097072999924421" lon="3.212832016870379">
        <ele>1042.6900000000001</ele>
        <time>2025-04-25T07:26:22Z</time>
      </trkpt>
      <trkpt lat="45.096976021304727" lon="3.212907034903765">
        <ele>1043.6500000000001</ele>
        <time>2025-04-25T07:26:23Z</time>
      </trkpt>
      <trkpt lat="45.096865966916084" lon="3.21296202018857">
        <ele>1045.0899999999999</ele>
        <time>2025-04-25T07:26:24Z</time>
      </trkpt>
      <trkpt lat="45.096749039366841" lon="3.213020022958517">
        <ele>1046.05</ele>
        <time>2025-04-25T07:26:25Z</time>
      </trkpt>
      <trkpt lat="45.09649196639657" lon="3.213149020448327">
        <ele>1047.97</ele>
        <time>2025-04-25T07:26:27Z</time>
      </trkpt>
      <trkpt lat="45.096046971157193" lon="3.213352030143142">
        <ele>1049.9000000000001</ele>
        <time>2025-04-25T07:26:30Z</time>
      </trkpt>
      <trkpt lat="45.094862021505833" lon="3.213713960722089">
        <ele>1053.74</ele>
        <time>2025-04-25T07:26:37Z</time>
      </trkpt>
      <trkpt lat="45.09283703751862" lon="3.214577967301011">
        <ele>1054.22</ele>
        <time>2025-04-25T07:26:48Z</time>
      </trkpt>
      <trkpt lat="45.09114196524024" lon="3.214901005849242">
        <ele>1055.6700000000001</ele>
        <time>2025-04-25T07:26:57Z</time>
      </trkpt>
      <trkpt lat="45.089712012559175" lon="3.214689027518034">
        <ele>1060.95</ele>
        <time>2025-04-25T07:27:05Z</time>
      </trkpt>
      <trkpt lat="45.089150005951524" lon="3.214399013668299">
        <ele>1062.8699999999999</ele>
        <time>2025-04-25T07:27:09Z</time>
      </trkpt>
      <trkpt lat="45.08903400041163" lon="3.214304968714714">
        <ele>1063.3599999999999</ele>
        <time>2025-04-25T07:27:10Z</time>
      </trkpt>
      <trkpt lat="45.08875303901732" lon="3.214035993441939">
        <ele>1065.28</ele>
        <time>2025-04-25T07:27:13Z</time>
      </trkpt>
      <trkpt lat="45.088664023205638" lon="3.213952006772161">
        <ele>1065.28</ele>
        <time>2025-04-25T07:27:14Z</time>
      </trkpt>
      <trkpt lat="45.088579030707479" lon="3.213961981236935">
        <ele>1065.76</ele>
        <time>2025-04-25T07:27:15Z</time>
      </trkpt>
      <trkpt lat="45.088479034602642" lon="3.213982013985515">
        <ele>1066.24</ele>
        <time>2025-04-25T07:27:16Z</time>
      </trkpt>
      <trkpt lat="45.088391024619341" lon="3.214042028412223">
        <ele>1065.76</ele>
        <time>2025-04-25T07:27:17Z</time>
      </trkpt>
      <trkpt lat="45.088295973837376" lon="3.214106988161802">
        <ele>1065.76</ele>
        <time>2025-04-25T07:27:18Z</time>
      </trkpt>
      <trkpt lat="45.087210014462471" lon="3.214824981987476">
        <ele>1064.3199999999999</ele>
        <time>2025-04-25T07:27:27Z</time>
      </trkpt>
      <trkpt lat="45.086561003699899" lon="3.215182973071933">
        <ele>1065.28</ele>
        <time>2025-04-25T07:27:32Z</time>
      </trkpt>
      <trkpt lat="45.086432006210089" lon="3.215168975293636">
        <ele>1065.76</ele>
        <time>2025-04-25T07:27:33Z</time>
      </trkpt>
      <trkpt lat="45.086307032033801" lon="3.215117007493973">
        <ele>1065.76</ele>
        <time>2025-04-25T07:27:34Z</time>
      </trkpt>
      <trkpt lat="45.086175017058849" lon="3.215061016380787">
        <ele>1065.76</ele>
        <time>2025-04-25T07:27:35Z</time>
      </trkpt>
      <trkpt lat="45.086035039275885" lon="3.215002007782459">
        <ele>1065.76</ele>
        <time>2025-04-25T07:27:36Z</time>
      </trkpt>
      <trkpt lat="45.084502995014191" lon="3.214484006166458">
        <ele>1062.8699999999999</ele>
        <time>2025-04-25T07:27:46Z</time>
      </trkpt>
      <trkpt lat="45.084207030013204" lon="3.214335981756449">
        <ele>1061.4300000000001</ele>
        <time>2025-04-25T07:27:48Z</time>
      </trkpt>
      <trkpt lat="45.083893965929747" lon="3.214182006195188">
        <ele>1059.51</ele>
        <time>2025-04-25T07:27:50Z</time>
      </trkpt>
      <trkpt lat="45.083721969276667" lon="3.214131966233254">
        <ele>1058.55</ele>
        <time>2025-04-25T07:27:51Z</time>
      </trkpt>
      <trkpt lat="45.083542009815574" lon="3.214104976505041">
        <ele>1058.0699999999999</ele>
        <time>2025-04-25T07:27:52Z</time>
      </trkpt>
      <trkpt lat="45.082239964976907" lon="3.214287031441927">
        <ele>1050.3800000000001</ele>
        <time>2025-04-25T07:27:59Z</time>
      </trkpt>
      <trkpt lat="45.082066040486097" lon="3.214278984814882">
        <ele>1049.4200000000001</ele>
        <time>2025-04-25T07:28:00Z</time>
      </trkpt>
      <trkpt lat="45.081568993628025" lon="3.214210001751781">
        <ele>1047.01</ele>
        <time>2025-04-25T07:28:03Z</time>
      </trkpt>
      <trkpt lat="45.081418035551906" lon="3.214249983429909">
        <ele>1046.05</ele>
        <time>2025-04-25T07:28:04Z</time>
      </trkpt>
      <trkpt lat="45.081292977556586" lon="3.214370012283325">
        <ele>1045.5699999999999</ele>
        <time>2025-04-25T07:28:05Z</time>
      </trkpt>
      <trkpt lat="45.081162974238396" lon="3.214500015601516">
        <ele>1045.0899999999999</ele>
        <time>2025-04-25T07:28:06Z</time>
      </trkpt>
      <trkpt lat="45.081030037254095" lon="3.214633036404848">
        <ele>1044.6099999999999</ele>
        <time>2025-04-25T07:28:07Z</time>
      </trkpt>
      <trkpt lat="45.080769024789333" lon="3.214862029999495">
        <ele>1044.1300000000001</ele>
        <time>2025-04-25T07:28:09Z</time>
      </trkpt>
      <trkpt lat="45.080630974844098" lon="3.214932018890977">
        <ele>1044.1300000000001</ele>
        <time>2025-04-25T07:28:10Z</time>
      </trkpt>
      <trkpt lat="45.080478005111217" lon="3.21496001444757">
        <ele>1044.1300000000001</ele>
        <time>2025-04-25T07:28:11Z</time>
      </trkpt>
      <trkpt lat="45.080316988751292" lon="3.21496001444757">
        <ele>1044.1300000000001</ele>
        <time>2025-04-25T07:28:12Z</time>
      </trkpt>
      <trkpt lat="45.080134011805058" lon="3.214900000020862">
        <ele>1044.1300000000001</ele>
        <time>2025-04-25T07:28:13Z</time>
      </trkpt>
      <trkpt lat="45.079955980181694" lon="3.214839985594153">
        <ele>1044.1300000000001</ele>
        <time>2025-04-25T07:28:14Z</time>
      </trkpt>
      <trkpt lat="45.079263970255852" lon="3.214653991162777">
        <ele>1045.5699999999999</ele>
        <time>2025-04-25T07:28:18Z</time>
      </trkpt>
      <trkpt lat="45.079114018008113" lon="3.214568998664618">
        <ele>1045.5699999999999</ele>
        <time>2025-04-25T07:28:19Z</time>
      </trkpt>
      <trkpt lat="45.078975968062878" lon="3.214458022266626">
        <ele>1045.0899999999999</ele>
        <time>2025-04-25T07:28:20Z</time>
      </trkpt>
      <trkpt lat="45.078832972794771" lon="3.214376969262958">
        <ele>1045.0899999999999</ele>
        <time>2025-04-25T07:28:21Z</time>
      </trkpt>
      <trkpt lat="45.078683020547032" lon="3.214365988969803">
        <ele>1045.0899999999999</ele>
        <time>2025-04-25T07:28:22Z</time>
      </trkpt>
      <trkpt lat="45.078523010015488" lon="3.214364983141422">
        <ele>1045.0899999999999</ele>
        <time>2025-04-25T07:28:23Z</time>
      </trkpt>
      <trkpt lat="45.078355958685279" lon="3.214376969262958">
        <ele>1045.5699999999999</ele>
        <time>2025-04-25T07:28:24Z</time>
      </trkpt>
      <trkpt lat="45.077234040945768" lon="3.214134983718395">
        <ele>1047.01</ele>
        <time>2025-04-25T07:28:31Z</time>
      </trkpt>
      <trkpt lat="45.076276995241642" lon="3.213518997654319">
        <ele>1043.6500000000001</ele>
        <time>2025-04-25T07:28:37Z</time>
      </trkpt>
      <trkpt lat="45.076130982488394" lon="3.213524026796222">
        <ele>1042.6900000000001</ele>
        <time>2025-04-25T07:28:38Z</time>
      </trkpt>
      <trkpt lat="45.075984969735146" lon="3.213575994595885">
        <ele>1042.6900000000001</ele>
        <time>2025-04-25T07:28:39Z</time>
      </trkpt>
      <trkpt lat="45.075551038607955" lon="3.213657969608903">
        <ele>1041.25</ele>
        <time>2025-04-25T07:28:42Z</time>
      </trkpt>
      <trkpt lat="45.075431009754539" lon="3.213661992922425">
        <ele>1040.76</ele>
        <time>2025-04-25T07:28:43Z</time>
      </trkpt>
      <trkpt lat="45.075312992557883" lon="3.213580017909408">
        <ele>1040.28</ele>
        <time>2025-04-25T07:28:44Z</time>
      </trkpt>
      <trkpt lat="45.075180977582932" lon="3.213488990440965">
        <ele>1039.8</ele>
        <time>2025-04-25T07:28:45Z</time>
      </trkpt>
      <trkpt lat="45.075038988143206" lon="3.213391005992889">
        <ele>1039.3199999999999</ele>
        <time>2025-04-25T07:28:46Z</time>
      </trkpt>
      <trkpt lat="45.074888030067086" lon="3.21328598074615">
        <ele>1038.8399999999999</ele>
        <time>2025-04-25T07:28:47Z</time>
      </trkpt>
      <trkpt lat="45.074713015928864" lon="3.213216997683048">
        <ele>1038.3599999999999</ele>
        <time>2025-04-25T07:28:48Z</time>
      </trkpt>
      <trkpt lat="45.074538001790643" lon="3.213146002963185">
        <ele>1037.8800000000001</ele>
        <time>2025-04-25T07:28:49Z</time>
      </trkpt>
      <trkpt lat="45.074182022362947" lon="3.212994039058685">
        <ele>1038.8399999999999</ele>
        <time>2025-04-25T07:28:51Z</time>
      </trkpt>
      <trkpt lat="45.074015976861119" lon="3.212875016033649">
        <ele>1039.8</ele>
        <time>2025-04-25T07:28:52Z</time>
      </trkpt>
      <trkpt lat="45.073854960501194" lon="3.212756998836994">
        <ele>1040.76</ele>
        <time>2025-04-25T07:28:53Z</time>
      </trkpt>
      <trkpt lat="45.073707019910216" lon="3.212637975811958">
        <ele>1041.73</ele>
        <time>2025-04-25T07:28:54Z</time>
      </trkpt>
      <trkpt lat="45.073593026027083" lon="3.212476037442684">
        <ele>1043.1700000000001</ele>
        <time>2025-04-25T07:28:55Z</time>
      </trkpt>
      <trkpt lat="45.073484983295202" lon="3.21229599416256">
        <ele>1044.1300000000001</ele>
        <time>2025-04-25T07:28:56Z</time>
      </trkpt>
      <trkpt lat="45.073408037424088" lon="3.212072029709816">
        <ele>1045.0899999999999</ele>
        <time>2025-04-25T07:28:57Z</time>
      </trkpt>
      <trkpt lat="45.07333000190556" lon="3.211841024458408">
        <ele>1046.05</ele>
        <time>2025-04-25T07:28:58Z</time>
      </trkpt>
      <trkpt lat="45.072731031104922" lon="3.209814028814435">
        <ele>1052.78</ele>
        <time>2025-04-25T07:29:06Z</time>
      </trkpt>
      <trkpt lat="45.072088977321982" lon="3.208316015079618">
        <ele>1055.1800000000001</ele>
        <time>2025-04-25T07:29:13Z</time>
      </trkpt>
      <trkpt lat="45.071997027844191" lon="3.208178970962763">
        <ele>1055.1800000000001</ele>
        <time>2025-04-25T07:29:14Z</time>
      </trkpt>
      <trkpt lat="45.071898959577084" lon="3.208045028150082">
        <ele>1055.6700000000001</ele>
        <time>2025-04-25T07:29:15Z</time>
      </trkpt>
      <trkpt lat="45.071801980957389" lon="3.207944026216865">
        <ele>1055.6700000000001</ele>
        <time>2025-04-25T07:29:16Z</time>
      </trkpt>
      <trkpt lat="45.071699973195791" lon="3.207887029275298">
        <ele>1056.1500000000001</ele>
        <time>2025-04-25T07:29:17Z</time>
      </trkpt>
      <trkpt lat="45.071606012061238" lon="3.207877976819873">
        <ele>1056.1500000000001</ele>
        <time>2025-04-25T07:29:18Z</time>
      </trkpt>
      <trkpt lat="45.071495035663247" lon="3.207933967933059">
        <ele>1056.6300000000001</ele>
        <time>2025-04-25T07:29:19Z</time>
      </trkpt>
      <trkpt lat="45.071367966011167" lon="3.207996999844909">
        <ele>1057.1099999999999</ele>
        <time>2025-04-25T07:29:20Z</time>
      </trkpt>
      <trkpt lat="45.071232011541724" lon="3.20806497707963">
        <ele>1057.1099999999999</ele>
        <time>2025-04-25T07:29:21Z</time>
      </trkpt>
      <trkpt lat="45.070639997720718" lon="3.208338981494308">
        <ele>1058.0699999999999</ele>
        <time>2025-04-25T07:29:25Z</time>
      </trkpt>
      <trkpt lat="45.069962991401553" lon="3.208501003682613">
        <ele>1060.95</ele>
        <time>2025-04-25T07:29:31Z</time>
      </trkpt>
      <trkpt lat="45.069910017773509" lon="3.208501003682613">
        <ele>1060.95</ele>
        <time>2025-04-25T07:29:32Z</time>
      </trkpt>
      <trkpt lat="45.069851009175181" lon="3.208476025611162">
        <ele>1060.95</ele>
        <time>2025-04-25T07:29:33Z</time>
      </trkpt>
      <trkpt lat="45.069812033325434" lon="3.208460016176105">
        <ele>1061.4300000000001</ele>
        <time>2025-04-25T07:29:34Z</time>
      </trkpt>
      <trkpt lat="45.06978202611208" lon="3.208447024226189">
        <ele>1061.4300000000001</ele>
        <time>2025-04-25T07:29:35Z</time>
      </trkpt>
      <trkpt lat="45.069784037768841" lon="3.208350967615843">
        <ele>1061.4300000000001</ele>
        <time>2025-04-25T07:29:36Z</time>
      </trkpt>
      <trkpt lat="45.069807004183531" lon="3.208272010087967">
        <ele>1062.3900000000001</ele>
        <time>2025-04-25T07:29:37Z</time>
      </trkpt>
      <trkpt lat="45.069838017225266" lon="3.208166984841228">
        <ele>1062.3900000000001</ele>
        <time>2025-04-25T07:29:38Z</time>
      </trkpt>
      <trkpt lat="45.069873975589871" lon="3.20804201066494">
        <ele>1063.3599999999999</ele>
        <time>2025-04-25T07:29:39Z</time>
      </trkpt>
      <trkpt lat="45.070249987766147" lon="3.206683974713087">
        <ele>1071.53</ele>
        <time>2025-04-25T07:29:48Z</time>
      </trkpt>
      <trkpt lat="45.070649972185493" lon="3.20505402982235">
        <ele>1079.22</ele>
        <time>2025-04-25T07:30:00Z</time>
      </trkpt>
      <trkpt lat="45.070676039904356" lon="3.204680029302836">
        <ele>1080.1800000000001</ele>
        <time>2025-04-25T07:30:03Z</time>
      </trkpt>
      <trkpt lat="45.070684002712369" lon="3.20456201210618">
        <ele>1080.1800000000001</ele>
        <time>2025-04-25T07:30:04Z</time>
      </trkpt>
      <trkpt lat="45.070819035172462" lon="3.203492984175682">
        <ele>1083.0599999999999</ele>
        <time>2025-04-25T07:30:14Z</time>
      </trkpt>
      <trkpt lat="45.070862034335732" lon="3.203289974480867">
        <ele>1083.54</ele>
        <time>2025-04-25T07:30:16Z</time>
      </trkpt>
      <trkpt lat="45.070921964943409" lon="3.203003983944655">
        <ele>1085.47</ele>
        <time>2025-04-25T07:30:19Z</time>
      </trkpt>
      <trkpt lat="45.070936968550086" lon="3.202898036688566">
        <ele>1085.95</ele>
        <time>2025-04-25T07:30:20Z</time>
      </trkpt>
      <trkpt lat="45.070925988256931" lon="3.202807009220123">
        <ele>1086.4300000000001</ele>
        <time>2025-04-25T07:30:21Z</time>
      </trkpt>
      <trkpt lat="45.070890029892325" lon="3.202515989542007">
        <ele>1087.8699999999999</ele>
        <time>2025-04-25T07:30:24Z</time>
      </trkpt>
      <trkpt lat="45.070877959951758" lon="3.20241398178041">
        <ele>1088.3499999999999</ele>
        <time>2025-04-25T07:30:25Z</time>
      </trkpt>
      <trkpt lat="45.070825992152095" lon="3.202104019001126">
        <ele>1089.3099999999999</ele>
        <time>2025-04-25T07:30:28Z</time>
      </trkpt>
      <trkpt lat="45.070789027959108" lon="3.201957000419498">
        <ele>1089.79</ele>
        <time>2025-04-25T07:30:29Z</time>
      </trkpt>
      <trkpt lat="45.070759020745754" lon="3.201900003477931">
        <ele>1089.79</ele>
        <time>2025-04-25T07:30:30Z</time>
      </trkpt>
      <trkpt lat="45.070715015754104" lon="3.201817022636533">
        <ele>1090.27</ele>
        <time>2025-04-25T07:30:31Z</time>
      </trkpt>
      <trkpt lat="45.070667993277311" lon="3.201730018481612">
        <ele>1090.75</ele>
        <time>2025-04-25T07:30:32Z</time>
      </trkpt>
      <trkpt lat="45.070618037134409" lon="3.201634967699647">
        <ele>1091.23</ele>
        <time>2025-04-25T07:30:33Z</time>
      </trkpt>
      <trkpt lat="45.070485016331077" lon="3.201345959678292">
        <ele>1092.6800000000001</ele>
        <time>2025-04-25T07:30:36Z</time>
      </trkpt>
      <trkpt lat="45.070436988025904" lon="3.201226014643908">
        <ele>1093.6400000000001</ele>
        <time>2025-04-25T07:30:37Z</time>
      </trkpt>
      <trkpt lat="45.069994004443288" lon="3.200198980048299">
        <ele>1098.9200000000001</ele>
        <time>2025-04-25T07:30:45Z</time>
      </trkpt>
      <trkpt lat="45.069917980581522" lon="3.200067970901728">
        <ele>1099.4000000000001</ele>
        <time>2025-04-25T07:30:46Z</time>
      </trkpt>
      <trkpt lat="45.069841034710407" lon="3.199938973411918">
        <ele>1099.8900000000001</ele>
        <time>2025-04-25T07:30:47Z</time>
      </trkpt>
      <trkpt lat="45.068888012319803" lon="3.198981005698443">
        <ele>1104.6900000000001</ele>
        <time>2025-04-25T07:30:57Z</time>
      </trkpt>
      <trkpt lat="45.068781981244683" lon="3.198937000706792">
        <ele>1105.1700000000001</ele>
        <time>2025-04-25T07:30:58Z</time>
      </trkpt>
      <trkpt lat="45.068672010675073" lon="3.198894001543522">
        <ele>1105.1700000000001</ele>
        <time>2025-04-25T07:30:59Z</time>
      </trkpt>
      <trkpt lat="45.068562040105462" lon="3.198859971016645">
        <ele>1105.6500000000001</ele>
        <time>2025-04-25T07:31:00Z</time>
      </trkpt>
      <trkpt lat="45.06845198571682" lon="3.198840022087097">
        <ele>1106.1300000000001</ele>
        <time>2025-04-25T07:31:01Z</time>
      </trkpt>
      <trkpt lat="45.068364981561899" lon="3.19882401265204">
        <ele>1106.6099999999999</ele>
        <time>2025-04-25T07:31:02Z</time>
      </trkpt>
      <trkpt lat="45.068188039585948" lon="3.198857037350535">
        <ele>1107.0999999999999</ele>
        <time>2025-04-25T07:31:05Z</time>
      </trkpt>
      <trkpt lat="45.06815199740231" lon="3.198863994330168">
        <ele>1107.0999999999999</ele>
        <time>2025-04-25T07:31:06Z</time>
      </trkpt>
      <trkpt lat="45.068118972703815" lon="3.198870029300451">
        <ele>1107.5799999999999</ele>
        <time>2025-04-25T07:31:07Z</time>
      </trkpt>
      <trkpt lat="45.06808603182435" lon="3.198876986280084">
        <ele>1108.0599999999999</ele>
        <time>2025-04-25T07:31:08Z</time>
      </trkpt>
      <trkpt lat="45.068055018782616" lon="3.198882015421987">
        <ele>1108.0599999999999</ele>
        <time>2025-04-25T07:31:09Z</time>
      </trkpt>
      <trkpt lat="45.068026017397642" lon="3.198887966573238">
        <ele>1108.54</ele>
        <time>2025-04-25T07:31:10Z</time>
      </trkpt>
      <trkpt lat="45.06795896217227" lon="3.19858898408711">
        <ele>1108.54</ele>
        <time>2025-04-25T07:31:11Z</time>
      </trkpt>
      <trkpt lat="45.067891990765929" lon="3.19835496135056">
        <ele>1109.5</ele>
        <time>2025-04-25T07:31:21Z</time>
      </trkpt>
      <trkpt lat="45.067946976050735" lon="3.198483036831021">
        <ele>1107.5799999999999</ele>
        <time>2025-04-25T07:34:50Z</time>
      </trkpt>
      <trkpt lat="45.067899031564593" lon="3.198391003534198">
        <ele>1105.6500000000001</ele>
        <time>2025-04-25T07:35:09Z</time>
      </trkpt>
      <trkpt lat="45.067859971895814" lon="3.198509020730853">
        <ele>1106.1300000000001</ele>
        <time>2025-04-25T07:35:16Z</time>
      </trkpt>
      <trkpt lat="45.068019982427359" lon="3.19882401265204">
        <ele>1106.6099999999999</ele>
        <time>2025-04-25T07:35:29Z</time>
      </trkpt>
      <trkpt lat="45.068010007962584" lon="3.198829041793943">
        <ele>1106.1300000000001</ele>
        <time>2025-04-25T07:35:34Z</time>
      </trkpt>
      <trkpt lat="45.068005984649062" lon="3.198891989886761">
        <ele>1106.1300000000001</ele>
        <time>2025-04-25T07:35:36Z</time>
      </trkpt>
      <trkpt lat="45.067991986870766" lon="3.198894001543522">
        <ele>1106.1300000000001</ele>
        <time>2025-04-25T07:35:37Z</time>
      </trkpt>
      <trkpt lat="45.067969020456076" lon="3.198899030685425">
        <ele>1106.6099999999999</ele>
        <time>2025-04-25T07:35:38Z</time>
      </trkpt>
      <trkpt lat="45.067928032949567" lon="3.198905987665057">
        <ele>1106.1300000000001</ele>
        <time>2025-04-25T07:35:39Z</time>
      </trkpt>
      <trkpt lat="45.067876987159252" lon="3.198915962129831">
        <ele>1106.1300000000001</ele>
        <time>2025-04-25T07:35:40Z</time>
      </trkpt>
      <trkpt lat="45.067825019359589" lon="3.198926020413637">
        <ele>1106.1300000000001</ele>
        <time>2025-04-25T07:35:41Z</time>
      </trkpt>
      <trkpt lat="45.067143989726901" lon="3.199047977104783">
        <ele>1105.6500000000001</ele>
        <time>2025-04-25T07:35:52Z</time>
      </trkpt>
      <trkpt lat="45.065955016762018" lon="3.199252998456359">
        <ele>1103.73</ele>
        <time>2025-04-25T07:36:02Z</time>
      </trkpt>
      <trkpt lat="45.064287018030882" lon="3.199541000649333">
        <ele>1098.9200000000001</ele>
        <time>2025-04-25T07:36:13Z</time>
      </trkpt>
      <trkpt lat="45.064027011394501" lon="3.199605960398912">
        <ele>1097.96</ele>
        <time>2025-04-25T07:36:15Z</time>
      </trkpt>
      <trkpt lat="45.063907988369465" lon="3.199660023674369">
        <ele>1097.48</ele>
        <time>2025-04-25T07:36:16Z</time>
      </trkpt>
      <trkpt lat="45.063793994486332" lon="3.199732024222612">
        <ele>1097</ele>
        <time>2025-04-25T07:36:17Z</time>
      </trkpt>
      <trkpt lat="45.06320801563561" lon="3.200133014470339">
        <ele>1093.1600000000001</ele>
        <time>2025-04-25T07:36:24Z</time>
      </trkpt>
      <trkpt lat="45.063153030350804" lon="3.200102001428604">
        <ele>1092.6800000000001</ele>
        <time>2025-04-25T07:36:25Z</time>
      </trkpt>
      <trkpt lat="45.063158981502056" lon="3.200039975345135">
        <ele>1092.2</ele>
        <time>2025-04-25T07:36:26Z</time>
      </trkpt>
      <trkpt lat="45.06316602230072" lon="3.199950037524104">
        <ele>1091.23</ele>
        <time>2025-04-25T07:36:27Z</time>
      </trkpt>
      <trkpt lat="45.063177002593875" lon="3.199832020327449">
        <ele>1090.75</ele>
        <time>2025-04-25T07:36:28Z</time>
      </trkpt>
      <trkpt lat="45.06318898871541" lon="3.199690030887723">
        <ele>1090.27</ele>
        <time>2025-04-25T07:36:29Z</time>
      </trkpt>
      <trkpt lat="45.063174990937114" lon="3.199523985385895">
        <ele>1089.79</ele>
        <time>2025-04-25T07:36:30Z</time>
      </trkpt>
      <trkpt lat="45.063149007037282" lon="3.199356012046337">
        <ele>1089.3099999999999</ele>
        <time>2025-04-25T07:36:31Z</time>
      </trkpt>
      <trkpt lat="45.063110031187534" lon="3.199184015393257">
        <ele>1088.8299999999999</ele>
        <time>2025-04-25T07:36:32Z</time>
      </trkpt>
      <trkpt lat="45.063043981790543" lon="3.19901998154819">
        <ele>1087.8699999999999</ele>
        <time>2025-04-25T07:36:33Z</time>
      </trkpt>
      <trkpt lat="45.062974998727441" lon="3.198845973238349">
        <ele>1087.3900000000001</ele>
        <time>2025-04-25T07:36:34Z</time>
      </trkpt>
      <trkpt lat="45.062873996794224" lon="3.198688980191946">
        <ele>1086.4300000000001</ele>
        <time>2025-04-25T07:36:35Z</time>
      </trkpt>
      <trkpt lat="45.062760002911091" lon="3.198535004630685">
        <ele>1085.47</ele>
        <time>2025-04-25T07:36:36Z</time>
      </trkpt>
      <trkpt lat="45.062633017078042" lon="3.198377005755901">
        <ele>1084.99</ele>
        <time>2025-04-25T07:36:37Z</time>
      </trkpt>
      <trkpt lat="45.062485998496413" lon="3.198271980509162">
        <ele>1084.02</ele>
        <time>2025-04-25T07:36:38Z</time>
      </trkpt>
      <trkpt lat="45.062335962429643" lon="3.198165027424693">
        <ele>1083.54</ele>
        <time>2025-04-25T07:36:39Z</time>
      </trkpt>
      <trkpt lat="45.062205959111452" lon="3.19807299412787">
        <ele>1082.5799999999999</ele>
        <time>2025-04-25T07:36:40Z</time>
      </trkpt>
      <trkpt lat="45.062012001872063" lon="3.198025971651077">
        <ele>1082.0999999999999</ele>
        <time>2025-04-25T07:36:41Z</time>
      </trkpt>
      <trkpt lat="45.061841011047363" lon="3.197983978316188">
        <ele>1081.1400000000001</ele>
        <time>2025-04-25T07:36:42Z</time>
      </trkpt>
      <trkpt lat="45.061667002737522" lon="3.197940979152918">
        <ele>1080.1800000000001</ele>
        <time>2025-04-25T07:36:43Z</time>
      </trkpt>
      <trkpt lat="45.061331978067756" lon="3.197860009968281">
        <ele>1078.74</ele>
        <time>2025-04-25T07:36:45Z</time>
      </trkpt>
      <trkpt lat="45.061184959486127" lon="3.19774903357029">
        <ele>1077.78</ele>
        <time>2025-04-25T07:36:46Z</time>
      </trkpt>
      <trkpt lat="45.061042970046401" lon="3.197637973353267">
        <ele>1076.8099999999999</ele>
        <time>2025-04-25T07:36:47Z</time>
      </trkpt>
      <trkpt lat="45.060928976163268" lon="3.197477962821722">
        <ele>1075.8499999999999</ele>
        <time>2025-04-25T07:36:48Z</time>
      </trkpt>
      <trkpt lat="45.060811964794993" lon="3.197313006967306">
        <ele>1075.3699999999999</ele>
        <time>2025-04-25T07:36:49Z</time>
      </trkpt>
      <trkpt lat="45.060690008103848" lon="3.197141010314226">
        <ele>1074.4100000000001</ele>
        <time>2025-04-25T07:36:50Z</time>
      </trkpt>
      <trkpt lat="45.060306033119559" lon="3.196620997041464">
        <ele>1072.01</ele>
        <time>2025-04-25T07:36:53Z</time>
      </trkpt>
      <trkpt lat="45.060167983174324" lon="3.196475990116596">
        <ele>1070.5699999999999</ele>
        <time>2025-04-25T07:36:54Z</time>
      </trkpt>
      <trkpt lat="45.060032028704882" lon="3.19633400067687">
        <ele>1069.5999999999999</ele>
        <time>2025-04-25T07:36:55Z</time>
      </trkpt>
      <trkpt lat="45.059901019558311" lon="3.196185976266861">
        <ele>1068.6400000000001</ele>
        <time>2025-04-25T07:36:56Z</time>
      </trkpt>
      <trkpt lat="45.059805968776345" lon="3.195984978228807">
        <ele>1067.6800000000001</ele>
        <time>2025-04-25T07:36:57Z</time>
      </trkpt>
      <trkpt lat="45.059712007641792" lon="3.195785991847515">
        <ele>1067.2</ele>
        <time>2025-04-25T07:36:58Z</time>
      </trkpt>
      <trkpt lat="45.05962198600173" lon="3.195595974102616">
        <ele>1066.24</ele>
        <time>2025-04-25T07:36:59Z</time>
      </trkpt>
      <trkpt lat="45.059536993503571" lon="3.195421965792775">
        <ele>1065.28</ele>
        <time>2025-04-25T07:37:00Z</time>
      </trkpt>
      <trkpt lat="45.059422999620438" lon="3.195321969687939">
        <ele>1064.3199999999999</ele>
        <time>2025-04-25T07:37:01Z</time>
      </trkpt>
      <trkpt lat="45.059292996302247" lon="3.195263966917992">
        <ele>1063.3599999999999</ele>
        <time>2025-04-25T07:37:02Z</time>
      </trkpt>
      <trkpt lat="45.059157041832805" lon="3.195275031030178">
        <ele>1062.3900000000001</ele>
        <time>2025-04-25T07:37:03Z</time>
      </trkpt>
      <trkpt lat="45.058998959138989" lon="3.195291962474585">
        <ele>1061.4300000000001</ele>
        <time>2025-04-25T07:37:04Z</time>
      </trkpt>
      <trkpt lat="45.058836014941335" lon="3.195308977738023">
        <ele>1060.47</ele>
        <time>2025-04-25T07:37:05Z</time>
      </trkpt>
      <trkpt lat="45.058679021894932" lon="3.19532498717308">
        <ele>1059.51</ele>
        <time>2025-04-25T07:37:06Z</time>
      </trkpt>
      <trkpt lat="45.058520017191768" lon="3.195277964696288">
        <ele>1058.55</ele>
        <time>2025-04-25T07:37:07Z</time>
      </trkpt>
      <trkpt lat="45.058360006660223" lon="3.195223985239863">
        <ele>1057.1099999999999</ele>
        <time>2025-04-25T07:37:08Z</time>
      </trkpt>
      <trkpt lat="45.058197984471917" lon="3.195161959156394">
        <ele>1056.1500000000001</ele>
        <time>2025-04-25T07:37:09Z</time>
      </trkpt>
      <trkpt lat="45.058049038052559" lon="3.195032039657235">
        <ele>1055.1800000000001</ele>
        <time>2025-04-25T07:37:10Z</time>
      </trkpt>
      <trkpt lat="45.057893972843885" lon="3.194898013025522">
        <ele>1054.22</ele>
        <time>2025-04-25T07:37:11Z</time>
      </trkpt>
      <trkpt lat="45.05777302198112" lon="3.194697014987469">
        <ele>1053.26</ele>
        <time>2025-04-25T07:37:12Z</time>
      </trkpt>
      <trkpt lat="45.057656010612845" lon="3.194487970322371">
        <ele>1052.3</ele>
        <time>2025-04-25T07:37:13Z</time>
      </trkpt>
      <trkpt lat="45.057544028386474" lon="3.194267023354769">
        <ele>1051.3399999999999</ele>
        <time>2025-04-25T07:37:14Z</time>
      </trkpt>
      <trkpt lat="45.056881019845605" lon="3.192975036799908">
        <ele>1044.1300000000001</ele>
        <time>2025-04-25T07:37:20Z</time>
      </trkpt>
      <trkpt lat="45.056752022355795" lon="3.192803962156177">
        <ele>1042.6900000000001</ele>
        <time>2025-04-25T07:37:21Z</time>
      </trkpt>
      <trkpt lat="45.056608021259308" lon="3.192687034606934">
        <ele>1041.73</ele>
        <time>2025-04-25T07:37:22Z</time>
      </trkpt>
      <trkpt lat="45.056440969929099" lon="3.192586032673717">
        <ele>1040.28</ele>
        <time>2025-04-25T07:37:23Z</time>
      </trkpt>
      <trkpt lat="45.056277019903064" lon="3.19248603656888">
        <ele>1039.3199999999999</ele>
        <time>2025-04-25T07:37:24Z</time>
      </trkpt>
      <trkpt lat="45.056112986057997" lon="3.192438008263707">
        <ele>1038.3599999999999</ele>
        <time>2025-04-25T07:37:25Z</time>
      </trkpt>
      <trkpt lat="45.055940989404917" lon="3.192417975515127">
        <ele>1037.4000000000001</ele>
        <time>2025-04-25T07:37:26Z</time>
      </trkpt>
      <trkpt lat="45.05577796138823" lon="3.192398026585579">
        <ele>1036.4400000000001</ele>
        <time>2025-04-25T07:37:27Z</time>
      </trkpt>
      <trkpt lat="45.055467998608947" lon="3.192361984401941">
        <ele>1034.04</ele>
        <time>2025-04-25T07:37:29Z</time>
      </trkpt>
      <trkpt lat="45.055311005562544" lon="3.192338012158871">
        <ele>1032.5899999999999</ele>
        <time>2025-04-25T07:37:30Z</time>
      </trkpt>
      <trkpt lat="45.055158035829663" lon="3.192233992740512">
        <ele>1031.6300000000001</ele>
        <time>2025-04-25T07:37:31Z</time>
      </trkpt>
      <trkpt lat="45.054655037820339" lon="3.19192604161799">
        <ele>1028.75</ele>
        <time>2025-04-25T07:37:34Z</time>
      </trkpt>
      <trkpt lat="45.054476000368595" lon="3.191828979179263">
        <ele>1027.79</ele>
        <time>2025-04-25T07:37:35Z</time>
      </trkpt>
      <trkpt lat="45.054296040907502" lon="3.191755972802639">
        <ele>1026.8299999999999</ele>
        <time>2025-04-25T07:37:36Z</time>
      </trkpt>
      <trkpt lat="45.053792959079146" lon="3.19160501472652">
        <ele>1023.9400000000001</ele>
        <time>2025-04-25T07:37:39Z</time>
      </trkpt>
      <trkpt lat="45.053680976852775" lon="3.191531002521515">
        <ele>1022.5</ele>
        <time>2025-04-25T07:37:40Z</time>
      </trkpt>
      <trkpt lat="45.053600007668138" lon="3.191460007801652">
        <ele>1021.0599999999999</ele>
        <time>2025-04-25T07:37:41Z</time>
      </trkpt>
      <trkpt lat="45.053562959656119" lon="3.191322041675448">
        <ele>1020.1</ele>
        <time>2025-04-25T07:37:42Z</time>
      </trkpt>
      <trkpt lat="45.053537981584668" lon="3.191140992566943">
        <ele>1018.65</ele>
        <time>2025-04-25T07:37:43Z</time>
      </trkpt>
      <trkpt lat="45.053565977141261" lon="3.190959021449089">
        <ele>1017.6900000000001</ele>
        <time>2025-04-25T07:37:44Z</time>
      </trkpt>
      <trkpt lat="45.053595984354615" lon="3.190758023411036">
        <ele>1016.73</ele>
        <time>2025-04-25T07:37:45Z</time>
      </trkpt>
      <trkpt lat="45.053622974082828" lon="3.190559037029743">
        <ele>1016.25</ele>
        <time>2025-04-25T07:37:46Z</time>
      </trkpt>
      <trkpt lat="45.053622974082828" lon="3.190337000414729">
        <ele>1015.29</ele>
        <time>2025-04-25T07:37:47Z</time>
      </trkpt>
      <trkpt lat="45.053599001839757" lon="3.190127033740282">
        <ele>1014.33</ele>
        <time>2025-04-25T07:37:48Z</time>
      </trkpt>
      <trkpt lat="45.053523983806372" lon="3.189907008782029">
        <ele>1013.85</ele>
        <time>2025-04-25T07:37:49Z</time>
      </trkpt>
      <trkpt lat="45.053446032106876" lon="3.189679021015763">
        <ele>1012.89</ele>
        <time>2025-04-25T07:37:50Z</time>
      </trkpt>
      <trkpt lat="45.053284009918571" lon="3.18922396749258">
        <ele>1011.4400000000001</ele>
        <time>2025-04-25T07:37:52Z</time>
      </trkpt>
      <trkpt lat="45.053173033520579" lon="3.189035039395094">
        <ele>1010.96</ele>
        <time>2025-04-25T07:37:53Z</time>
      </trkpt>
      <trkpt lat="45.053059039637446" lon="3.188859019428492">
        <ele>1010</ele>
        <time>2025-04-25T07:37:54Z</time>
      </trkpt>
      <trkpt lat="45.052926018834114" lon="3.188715018332005">
        <ele>1009.04</ele>
        <time>2025-04-25T07:37:55Z</time>
      </trkpt>
      <trkpt lat="45.052770031616092" lon="3.188589960336685">
        <ele>1008.08</ele>
        <time>2025-04-25T07:37:56Z</time>
      </trkpt>
      <trkpt lat="45.05259501747787" lon="3.188529023900628">
        <ele>1007.12</ele>
        <time>2025-04-25T07:37:57Z</time>
      </trkpt>
      <trkpt lat="45.052417991682887" lon="3.188468003645539">
        <ele>1006.64</ele>
        <time>2025-04-25T07:37:58Z</time>
      </trkpt>
      <trkpt lat="45.05160796456039" lon="3.18810498341918">
        <ele>1001.83</ele>
        <time>2025-04-25T07:38:03Z</time>
      </trkpt>
      <trkpt lat="45.051497993990779" lon="3.187946984544396">
        <ele>1000.87</ele>
        <time>2025-04-25T07:38:04Z</time>
      </trkpt>
      <trkpt lat="45.050845965743065" lon="3.18640798330307">
        <ele>996.05999999999995</ele>
        <time>2025-04-25T07:38:11Z</time>
      </trkpt>
      <trkpt lat="45.05076901987195" lon="3.186163986101747">
        <ele>995.10000000000002</ele>
        <time>2025-04-25T07:38:12Z</time>
      </trkpt>
      <trkpt lat="45.050735995173454" lon="3.185943961143494">
        <ele>994.62</ele>
        <time>2025-04-25T07:38:13Z</time>
      </trkpt>
      <trkpt lat="45.050758039578795" lon="3.185708010569215">
        <ele>994.13999999999999</ele>
        <time>2025-04-25T07:38:14Z</time>
      </trkpt>
      <trkpt lat="45.050804978236556" lon="3.185479016974568">
        <ele>993.65999999999997</ele>
        <time>2025-04-25T07:38:15Z</time>
      </trkpt>
      <trkpt lat="45.050884019583464" lon="3.185251029208303">
        <ele>993.17999999999995</ele>
        <time>2025-04-25T07:38:16Z</time>
      </trkpt>
      <trkpt lat="45.05096398293972" lon="3.185019018128514">
        <ele>992.70000000000005</ele>
        <time>2025-04-25T07:38:17Z</time>
      </trkpt>
      <trkpt lat="45.051079988479614" lon="3.184821959584951">
        <ele>992.22000000000003</ele>
        <time>2025-04-25T07:38:18Z</time>
      </trkpt>
      <trkpt lat="45.051201023161411" lon="3.184645017609">
        <ele>991.25999999999999</ele>
        <time>2025-04-25T07:38:19Z</time>
      </trkpt>
      <trkpt lat="45.051338989287615" lon="3.184510990977287">
        <ele>990.77999999999997</ele>
        <time>2025-04-25T07:38:20Z</time>
      </trkpt>
      <trkpt lat="45.051483996212482" lon="3.184427004307509">
        <ele>990.29999999999995</ele>
        <time>2025-04-25T07:38:21Z</time>
      </trkpt>
      <trkpt lat="45.051631014794111" lon="3.184341005980969">
        <ele>989.80999999999995</ele>
        <time>2025-04-25T07:38:22Z</time>
      </trkpt>
      <trkpt lat="45.051747020334005" lon="3.184231035411358">
        <ele>989.33000000000004</ele>
        <time>2025-04-25T07:38:23Z</time>
      </trkpt>
      <trkpt lat="45.051838969811797" lon="3.184061972424388">
        <ele>988.85000000000002</ele>
        <time>2025-04-25T07:38:24Z</time>
      </trkpt>
      <trkpt lat="45.051880963146687" lon="3.183857034891844">
        <ele>987.88999999999999</ele>
        <time>2025-04-25T07:38:25Z</time>
      </trkpt>
      <trkpt lat="45.051925973966718" lon="3.183642961084843">
        <ele>986.92999999999995</ele>
        <time>2025-04-25T07:38:26Z</time>
      </trkpt>
      <trkpt lat="45.052023036405444" lon="3.183174999430776">
        <ele>985.49000000000001</ele>
        <time>2025-04-25T07:38:28Z</time>
      </trkpt>
      <trkpt lat="45.052107023075223" lon="3.182961009442806">
        <ele>984.52999999999997</ele>
        <time>2025-04-25T07:38:29Z</time>
      </trkpt>
      <trkpt lat="45.052209030836821" lon="3.182738972827792">
        <ele>983.57000000000005</ele>
        <time>2025-04-25T07:38:30Z</time>
      </trkpt>
      <trkpt lat="45.052320007234812" lon="3.182534035295248">
        <ele>983.09000000000003</ele>
        <time>2025-04-25T07:38:31Z</time>
      </trkpt>
      <trkpt lat="45.052455039694905" lon="3.18234502337873">
        <ele>982.12</ele>
        <time>2025-04-25T07:38:32Z</time>
      </trkpt>
      <trkpt lat="45.052584037184715" lon="3.182163974270225">
        <ele>981.63999999999999</ele>
        <time>2025-04-25T07:38:33Z</time>
      </trkpt>
      <trkpt lat="45.052712028846145" lon="3.181996000930667">
        <ele>980.67999999999995</ele>
        <time>2025-04-25T07:38:34Z</time>
      </trkpt>
      <trkpt lat="45.052871033549309" lon="3.18191603757441">
        <ele>980.20000000000005</ele>
        <time>2025-04-25T07:38:35Z</time>
      </trkpt>
      <trkpt lat="45.053029032424092" lon="3.181836996227503">
        <ele>979.24000000000001</ele>
        <time>2025-04-25T07:38:36Z</time>
      </trkpt>
      <trkpt lat="45.053195999935269" lon="3.181826015934348">
        <ele>978.27999999999997</ele>
        <time>2025-04-25T07:38:37Z</time>
      </trkpt>
      <trkpt lat="45.053360033780336" lon="3.181863985955715">
        <ele>977.32000000000005</ele>
        <time>2025-04-25T07:38:38Z</time>
      </trkpt>
      <trkpt lat="45.05349799990654" lon="3.181974040344358">
        <ele>976.84000000000003</ele>
        <time>2025-04-25T07:38:39Z</time>
      </trkpt>
      <trkpt lat="45.053638983517885" lon="3.18208702839911">
        <ele>975.88</ele>
        <time>2025-04-25T07:38:40Z</time>
      </trkpt>
      <trkpt lat="45.053794970735908" lon="3.182221977040172">
        <ele>974.90999999999997</ele>
        <time>2025-04-25T07:38:41Z</time>
      </trkpt>
      <trkpt lat="45.053926985710859" lon="3.182393973693252">
        <ele>973.95000000000005</ele>
        <time>2025-04-25T07:38:42Z</time>
      </trkpt>
      <trkpt lat="45.054052965715528" lon="3.182584997266531">
        <ele>972.99000000000001</ele>
        <time>2025-04-25T07:38:43Z</time>
      </trkpt>
      <trkpt lat="45.054251030087471" lon="3.182923961430788">
        <ele>970.59000000000003</ele>
        <time>2025-04-25T07:38:45Z</time>
      </trkpt>
      <trkpt lat="45.054322024807334" lon="3.183000991120935">
        <ele>969.63</ele>
        <time>2025-04-25T07:38:46Z</time>
      </trkpt>
      <trkpt lat="45.054425960406661" lon="3.183039966970682">
        <ele>968.66999999999996</ele>
        <time>2025-04-25T07:38:47Z</time>
      </trkpt>
      <trkpt lat="45.054511958733201" lon="3.183000991120935">
        <ele>967.22000000000003</ele>
        <time>2025-04-25T07:38:48Z</time>
      </trkpt>
      <trkpt lat="45.054612960666418" lon="3.182899989187717">
        <ele>966.25999999999999</ele>
        <time>2025-04-25T07:38:49Z</time>
      </trkpt>
      <trkpt lat="45.054657971486449" lon="3.182756993919611">
        <ele>965.29999999999995</ele>
        <time>2025-04-25T07:38:50Z</time>
      </trkpt>
      <trkpt lat="45.054696025326848" lon="3.182578040286899">
        <ele>964.82000000000005</ele>
        <time>2025-04-25T07:38:51Z</time>
      </trkpt>
      <trkpt lat="45.054696025326848" lon="3.18236798979342">
        <ele>963.86000000000001</ele>
        <time>2025-04-25T07:38:52Z</time>
      </trkpt>
      <trkpt lat="45.054678004235029" lon="3.182142013683915">
        <ele>962.89999999999998</ele>
        <time>2025-04-25T07:38:53Z</time>
      </trkpt>
      <trkpt lat="45.054645985364914" lon="3.181898016482592">
        <ele>961.94000000000005</ele>
        <time>2025-04-25T07:38:54Z</time>
      </trkpt>
      <trkpt lat="45.054596029222012" lon="3.181660976260901">
        <ele>961.46000000000004</ele>
        <time>2025-04-25T07:38:55Z</time>
      </trkpt>
      <trkpt lat="45.0545309856534" lon="3.181428965181112">
        <ele>960.49000000000001</ele>
        <time>2025-04-25T07:38:56Z</time>
      </trkpt>
      <trkpt lat="45.05446401424706" lon="3.181191002950072">
        <ele>960.00999999999999</ele>
        <time>2025-04-25T07:38:57Z</time>
      </trkpt>
      <trkpt lat="45.054262010380626" lon="3.180780960246921">
        <ele>958.57000000000005</ele>
        <time>2025-04-25T07:38:59Z</time>
      </trkpt>
      <trkpt lat="45.054137036204338" lon="3.180614998564124">
        <ele>957.61000000000001</ele>
        <time>2025-04-25T07:39:00Z</time>
      </trkpt>
      <trkpt lat="45.053758006542921" lon="3.180186012759805">
        <ele>955.69000000000005</ele>
        <time>2025-04-25T07:39:03Z</time>
      </trkpt>
      <trkpt lat="45.053533958271146" lon="3.179932963103056">
        <ele>954.25</ele>
        <time>2025-04-25T07:39:05Z</time>
      </trkpt>
      <trkpt lat="45.053444020450115" lon="3.17983003333211">
        <ele>953.76999999999998</ele>
        <time>2025-04-25T07:39:06Z</time>
      </trkpt>
      <trkpt lat="45.053374031558633" lon="3.179720984771848">
        <ele>952.79999999999995</ele>
        <time>2025-04-25T07:39:07Z</time>
      </trkpt>
      <trkpt lat="45.053332038223743" lon="3.179586958140135">
        <ele>951.36000000000001</ele>
        <time>2025-04-25T07:39:08Z</time>
      </trkpt>
      <trkpt lat="45.053301025182009" lon="3.179404987022281">
        <ele>949.91999999999996</ele>
        <time>2025-04-25T07:39:09Z</time>
      </trkpt>
      <trkpt lat="45.05334704183042" lon="3.179236007854343">
        <ele>948.48000000000002</ele>
        <time>2025-04-25T07:39:10Z</time>
      </trkpt>
      <trkpt lat="45.053401021286845" lon="3.179038027301431">
        <ele>947.51999999999998</ele>
        <time>2025-04-25T07:39:11Z</time>
      </trkpt>
      <trkpt lat="45.053473021835089" lon="3.178829988464713">
        <ele>946.55999999999995</ele>
        <time>2025-04-25T07:39:12Z</time>
      </trkpt>
      <trkpt lat="45.053556002676487" lon="3.178627984598279">
        <ele>945.59000000000003</ele>
        <time>2025-04-25T07:39:13Z</time>
      </trkpt>
      <trkpt lat="45.054248012602329" lon="3.177110021933913">
        <ele>941.75</ele>
        <time>2025-04-25T07:39:20Z</time>
      </trkpt>
      <trkpt lat="45.054995007812977" lon="3.175674034282565">
        <ele>938.38</ele>
        <time>2025-04-25T07:39:27Z</time>
      </trkpt>
      <trkpt lat="45.055052004754543" lon="3.175467001274228">
        <ele>937.41999999999996</ele>
        <time>2025-04-25T07:39:28Z</time>
      </trkpt>
      <trkpt lat="45.055043958127499" lon="3.175254017114639">
        <ele>936.46000000000004</ele>
        <time>2025-04-25T07:39:29Z</time>
      </trkpt>
      <trkpt lat="45.05502300336957" lon="3.175022006034851">
        <ele>935.98000000000002</ele>
        <time>2025-04-25T07:39:30Z</time>
      </trkpt>
      <trkpt lat="45.054948991164565" lon="3.174806004390121">
        <ele>935.01999999999998</ele>
        <time>2025-04-25T07:39:31Z</time>
      </trkpt>
      <trkpt lat="45.054859975352883" lon="3.174604000523686">
        <ele>934.05999999999995</ele>
        <time>2025-04-25T07:39:32Z</time>
      </trkpt>
      <trkpt lat="45.054782023653388" lon="3.174426974728704">
        <ele>933.58000000000004</ele>
        <time>2025-04-25T07:39:33Z</time>
      </trkpt>
      <trkpt lat="45.054631987586617" lon="3.174318009987474">
        <ele>932.62</ele>
        <time>2025-04-25T07:39:34Z</time>
      </trkpt>
      <trkpt lat="45.054501984268427" lon="3.174251038581133">
        <ele>932.13999999999999</ele>
        <time>2025-04-25T07:39:35Z</time>
      </trkpt>
      <trkpt lat="45.054345997050405" lon="3.174237962812185">
        <ele>931.16999999999996</ele>
        <time>2025-04-25T07:39:36Z</time>
      </trkpt>
      <trkpt lat="45.054179029539227" lon="3.174262018874288">
        <ele>930.21000000000004</ele>
        <time>2025-04-25T07:39:37Z</time>
      </trkpt>
      <trkpt lat="45.053999992087483" lon="3.174312980845571">
        <ele>929.25</ele>
        <time>2025-04-25T07:39:38Z</time>
      </trkpt>
      <trkpt lat="45.053630014881492" lon="3.174396967515349">
        <ele>926.85000000000002</ele>
        <time>2025-04-25T07:39:40Z</time>
      </trkpt>
      <trkpt lat="45.053441002964973" lon="3.17441800609231">
        <ele>925.88999999999999</ele>
        <time>2025-04-25T07:39:41Z</time>
      </trkpt>
      <trkpt lat="45.053246961906552" lon="3.174409959465265">
        <ele>924.92999999999995</ele>
        <time>2025-04-25T07:39:42Z</time>
      </trkpt>
      <trkpt lat="45.053072031587362" lon="3.174313986673951">
        <ele>923.48000000000002</ele>
        <time>2025-04-25T07:39:43Z</time>
      </trkpt>
      <trkpt lat="45.052912021055818" lon="3.174213990569115">
        <ele>922.51999999999998</ele>
        <time>2025-04-25T07:39:44Z</time>
      </trkpt>
      <trkpt lat="45.052747987210751" lon="3.174137966707349">
        <ele>921.08000000000004</ele>
        <time>2025-04-25T07:39:45Z</time>
      </trkpt>
      <trkpt lat="45.052570961415768" lon="3.174110976979137">
        <ele>919.63999999999999</ele>
        <time>2025-04-25T07:39:46Z</time>
      </trkpt>
      <trkpt lat="45.052392007783055" lon="3.174134027212858">
        <ele>918.20000000000005</ele>
        <time>2025-04-25T07:39:47Z</time>
      </trkpt>
      <trkpt lat="45.05221095867455" lon="3.174177026376128">
        <ele>916.75</ele>
        <time>2025-04-25T07:39:48Z</time>
      </trkpt>
      <trkpt lat="45.05203896202147" lon="3.174251038581133">
        <ele>914.83000000000004</ele>
        <time>2025-04-25T07:39:49Z</time>
      </trkpt>
      <trkpt lat="45.051563959568739" lon="3.174455976113677">
        <ele>910.99000000000001</ele>
        <time>2025-04-25T07:39:52Z</time>
      </trkpt>
      <trkpt lat="45.051425993442535" lon="3.174509033560753">
        <ele>910.02999999999997</ele>
        <time>2025-04-25T07:39:53Z</time>
      </trkpt>
      <trkpt lat="45.051314011216164" lon="3.174467040225864">
        <ele>909.05999999999995</ele>
        <time>2025-04-25T07:39:54Z</time>
      </trkpt>
      <trkpt lat="45.051214015111327" lon="3.17437500692904">
        <ele>908.10000000000002</ele>
        <time>2025-04-25T07:39:55Z</time>
      </trkpt>
      <trkpt lat="45.051143020391464" lon="3.17422597669065">
        <ele>907.62</ele>
        <time>2025-04-25T07:39:56Z</time>
      </trkpt>
      <trkpt lat="45.051078982651234" lon="3.174047023057938">
        <ele>907.13999999999999</ele>
        <time>2025-04-25T07:39:57Z</time>
      </trkpt>
      <trkpt lat="45.051008993759751" lon="3.173850970342755">
        <ele>906.17999999999995</ele>
        <time>2025-04-25T07:39:58Z</time>
      </trkpt>
      <trkpt lat="45.050921989604831" lon="3.173393988981843">
        <ele>905.22000000000003</ele>
        <time>2025-04-25T07:40:00Z</time>
      </trkpt>
      <trkpt lat="45.050904974341393" lon="3.173144962638617">
        <ele>904.25999999999999</ele>
        <time>2025-04-25T07:40:01Z</time>
      </trkpt>
      <trkpt lat="45.05092098377645" lon="3.172894008457661">
        <ele>903.77999999999997</ele>
        <time>2025-04-25T07:40:02Z</time>
      </trkpt>
      <trkpt lat="45.050936993211508" lon="3.172644982114434">
        <ele>903.29999999999995</ele>
        <time>2025-04-25T07:40:03Z</time>
      </trkpt>
      <trkpt lat="45.050973035395145" lon="3.17239897325635">
        <ele>902.82000000000005</ele>
        <time>2025-04-25T07:40:04Z</time>
      </trkpt>
      <trkpt lat="45.051016034558415" lon="3.17216201685369">
        <ele>901.85000000000002</ele>
        <time>2025-04-25T07:40:05Z</time>
      </trkpt>
      <trkpt lat="45.051050987094641" lon="3.171934029087424">
        <ele>900.40999999999997</ele>
        <time>2025-04-25T07:40:06Z</time>
      </trkpt>
      <trkpt lat="45.051063979044557" lon="3.171706041321158">
        <ele>899.45000000000005</ele>
        <time>2025-04-25T07:40:07Z</time>
      </trkpt>
      <trkpt lat="45.051036989316344" lon="3.171490961685777">
        <ele>898.49000000000001</ele>
        <time>2025-04-25T07:40:08Z</time>
      </trkpt>
      <trkpt lat="45.050979992374778" lon="3.171272026374936">
        <ele>897.52999999999997</ele>
        <time>2025-04-25T07:40:09Z</time>
      </trkpt>
      <trkpt lat="45.050893994048238" lon="3.171050995588303">
        <ele>897.04999999999995</ele>
        <time>2025-04-25T07:40:10Z</time>
      </trkpt>
      <trkpt lat="45.050767008215189" lon="3.170855026692152">
        <ele>896.09000000000003</ele>
        <time>2025-04-25T07:40:11Z</time>
      </trkpt>
      <trkpt lat="45.050638010725379" lon="3.170657968148589">
        <ele>895.12</ele>
        <time>2025-04-25T07:40:12Z</time>
      </trkpt>
      <trkpt lat="45.049686999991536" lon="3.169200019910932">
        <ele>886.47000000000003</ele>
        <time>2025-04-25T07:40:20Z</time>
      </trkpt>
      <trkpt lat="45.049626985564828" lon="3.169005978852511">
        <ele>885.99000000000001</ele>
        <time>2025-04-25T07:40:21Z</time>
      </trkpt>
      <trkpt lat="45.049589015543461" lon="3.168804980814457">
        <ele>885.02999999999997</ele>
        <time>2025-04-25T07:40:22Z</time>
      </trkpt>
      <trkpt lat="45.049604019150138" lon="3.168602976948023">
        <ele>884.07000000000005</ele>
        <time>2025-04-25T07:40:23Z</time>
      </trkpt>
      <trkpt lat="45.049626985564828" lon="3.168384963646531">
        <ele>883.11000000000001</ele>
        <time>2025-04-25T07:40:24Z</time>
      </trkpt>
      <trkpt lat="45.049655986949801" lon="3.168168039992452">
        <ele>882.63</ele>
        <time>2025-04-25T07:40:25Z</time>
      </trkpt>
      <trkpt lat="45.0497389677912" lon="3.167538978159428">
        <ele>880.71000000000004</ele>
        <time>2025-04-25T07:40:28Z</time>
      </trkpt>
      <trkpt lat="45.049699991941452" lon="3.167339991778135">
        <ele>879.74000000000001</ele>
        <time>2025-04-25T07:40:29Z</time>
      </trkpt>
      <trkpt lat="45.049659004434943" lon="3.167133964598179">
        <ele>879.74000000000001</ele>
        <time>2025-04-25T07:40:30Z</time>
      </trkpt>
      <trkpt lat="45.049599995836616" lon="3.166942019015551">
        <ele>878.77999999999997</ele>
        <time>2025-04-25T07:40:31Z</time>
      </trkpt>
      <trkpt lat="45.049509974196553" lon="3.166774967685342">
        <ele>878.29999999999995</ele>
        <time>2025-04-25T07:40:32Z</time>
      </trkpt>
      <trkpt lat="45.049396986141801" lon="3.166630966588855">
        <ele>877.82000000000005</ele>
        <time>2025-04-25T07:40:33Z</time>
      </trkpt>
      <trkpt lat="45.049275029450655" lon="3.166497023776174">
        <ele>876.86000000000001</ele>
        <time>2025-04-25T07:40:34Z</time>
      </trkpt>
      <trkpt lat="45.048954002559185" lon="3.166068959981203">
        <ele>874.46000000000004</ele>
        <time>2025-04-25T07:40:37Z</time>
      </trkpt>
      <trkpt lat="45.048873033374548" lon="3.165897969156504">
        <ele>873.98000000000002</ele>
        <time>2025-04-25T07:40:38Z</time>
      </trkpt>
      <trkpt lat="45.04879298619926" lon="3.165720021352172">
        <ele>873.00999999999999</ele>
        <time>2025-04-25T07:40:39Z</time>
      </trkpt>
      <trkpt lat="45.048763984814286" lon="3.165509970858693">
        <ele>872.52999999999997</ele>
        <time>2025-04-25T07:40:40Z</time>
      </trkpt>
      <trkpt lat="45.048733977600932" lon="3.165293969213963">
        <ele>872.04999999999995</ele>
        <time>2025-04-25T07:40:41Z</time>
      </trkpt>
      <trkpt lat="45.048702964559197" lon="3.165075033903122">
        <ele>871.09000000000003</ele>
        <time>2025-04-25T07:40:42Z</time>
      </trkpt>
      <trkpt lat="45.048673963174224" lon="3.164860038086772">
        <ele>870.61000000000001</ele>
        <time>2025-04-25T07:40:43Z</time>
      </trkpt>
      <trkpt lat="45.048584025353193" lon="3.164217984303832">
        <ele>868.69000000000005</ele>
        <time>2025-04-25T07:40:46Z</time>
      </trkpt>
      <trkpt lat="45.04851202480495" lon="3.164027966558933">
        <ele>868.21000000000004</ele>
        <time>2025-04-25T07:40:47Z</time>
      </trkpt>
      <trkpt lat="45.048433989286423" lon="3.163843983784318">
        <ele>867.25</ele>
        <time>2025-04-25T07:40:48Z</time>
      </trkpt>
      <trkpt lat="45.048355031758547" lon="3.1636549718678">
        <ele>866.76999999999998</ele>
        <time>2025-04-25T07:40:49Z</time>
      </trkpt>
      <trkpt lat="45.048272972926497" lon="3.16346000880003">
        <ele>865.79999999999995</ele>
        <time>2025-04-25T07:40:50Z</time>
      </trkpt>
      <trkpt lat="45.04816803149879" lon="3.163286000490189">
        <ele>864.84000000000003</ele>
        <time>2025-04-25T07:40:51Z</time>
      </trkpt>
      <trkpt lat="45.048040961846709" lon="3.163120038807392">
        <ele>864.36000000000001</ele>
        <time>2025-04-25T07:40:52Z</time>
      </trkpt>
      <trkpt lat="45.047906013205647" lon="3.16294502466917">
        <ele>863.39999999999998</ele>
        <time>2025-04-25T07:40:53Z</time>
      </trkpt>
      <trkpt lat="45.04776100628078" lon="3.162771016359329">
        <ele>862.44000000000005</ele>
        <time>2025-04-25T07:40:54Z</time>
      </trkpt>
      <trkpt lat="45.047134039923549" lon="3.162143966183066">
        <ele>858.59000000000003</ele>
        <time>2025-04-25T07:40:58Z</time>
      </trkpt>
      <trkpt lat="45.046366006135941" lon="3.161016013473272">
        <ele>852.83000000000004</ele>
        <time>2025-04-25T07:41:05Z</time>
      </trkpt>
      <trkpt lat="45.046176994219422" lon="3.16062499769032">
        <ele>850.41999999999996</ele>
        <time>2025-04-25T07:41:09Z</time>
      </trkpt>
      <trkpt lat="45.046158973127604" lon="3.160580992698669">
        <ele>849.94000000000005</ele>
        <time>2025-04-25T07:41:10Z</time>
      </trkpt>
      <trkpt lat="45.046109016984701" lon="3.160623991861939">
        <ele>849.94000000000005</ele>
        <time>2025-04-25T07:41:11Z</time>
      </trkpt>
      <trkpt lat="45.046098958700895" lon="3.160665985196829">
        <ele>849.46000000000004</ele>
        <time>2025-04-25T07:41:12Z</time>
      </trkpt>
      <trkpt lat="45.046082027256489" lon="3.160730022937059">
        <ele>848.98000000000002</ele>
        <time>2025-04-25T07:41:13Z</time>
      </trkpt>
      <trkpt lat="45.046067023649812" lon="3.160808980464935">
        <ele>848.5</ele>
        <time>2025-04-25T07:41:14Z</time>
      </trkpt>
      <trkpt lat="45.046054031699896" lon="3.160923980176449">
        <ele>848.01999999999998</ele>
        <time>2025-04-25T07:41:15Z</time>
      </trkpt>
      <trkpt lat="45.045961998403072" lon="3.161595035344362">
        <ele>847.05999999999995</ele>
        <time>2025-04-25T07:41:19Z</time>
      </trkpt>
      <trkpt lat="45.045900978147984" lon="3.161766026169062">
        <ele>846.58000000000004</ele>
        <time>2025-04-25T07:41:20Z</time>
      </trkpt>
      <trkpt lat="45.045821014791727" lon="3.161931987851858">
        <ele>847.05999999999995</ele>
        <time>2025-04-25T07:41:21Z</time>
      </trkpt>
      <trkpt lat="45.045707020908594" lon="3.162053022533655">
        <ele>847.53999999999996</ele>
        <time>2025-04-25T07:41:22Z</time>
      </trkpt>
      <trkpt lat="45.045587997883558" lon="3.162177996709943">
        <ele>848.5</ele>
        <time>2025-04-25T07:41:23Z</time>
      </trkpt>
      <trkpt lat="45.045456988736987" lon="3.162303976714611">
        <ele>849.46000000000004</ele>
        <time>2025-04-25T07:41:24Z</time>
      </trkpt>
      <trkpt lat="45.045308964326978" lon="3.162402966991067">
        <ele>850.41999999999996</ele>
        <time>2025-04-25T07:41:25Z</time>
      </trkpt>
      <trkpt lat="45.044147986918688" lon="3.163177035748959">
        <ele>860.03999999999996</ele>
        <time>2025-04-25T07:41:32Z</time>
      </trkpt>
      <trkpt lat="45.043825032189488" lon="3.163351966068149">
        <ele>861.96000000000004</ele>
        <time>2025-04-25T07:41:34Z</time>
      </trkpt>
      <trkpt lat="45.042542014271021" lon="3.164010029286146">
        <ele>862.91999999999996</ele>
        <time>2025-04-25T07:41:41Z</time>
      </trkpt>
      <trkpt lat="45.041021034121513" lon="3.165061958134174">
        <ele>859.55999999999995</ele>
        <time>2025-04-25T07:41:49Z</time>
      </trkpt>
      <trkpt lat="45.039978995919228" lon="3.166365008801222">
        <ele>854.75</ele>
        <time>2025-04-25T07:41:56Z</time>
      </trkpt>
      <trkpt lat="45.038514006882906" lon="3.168283039703965">
        <ele>843.21000000000004</ele>
        <time>2025-04-25T07:42:05Z</time>
      </trkpt>
      <trkpt lat="45.037685036659241" lon="3.169216029345989">
        <ele>836</ele>
        <time>2025-04-25T07:42:10Z</time>
      </trkpt>
      <trkpt lat="45.03755402751267" lon="3.16941199824214">
        <ele>834.55999999999995</ele>
        <time>2025-04-25T07:42:11Z</time>
      </trkpt>
      <trkpt lat="45.037446990609169" lon="3.16962699405849">
        <ele>833.60000000000002</ele>
        <time>2025-04-25T07:42:12Z</time>
      </trkpt>
      <trkpt lat="45.037364009767771" lon="3.169861016795039">
        <ele>832.63999999999999</ele>
        <time>2025-04-25T07:42:13Z</time>
      </trkpt>
      <trkpt lat="45.037323022261262" lon="3.170133009552956">
        <ele>831.67999999999995</ele>
        <time>2025-04-25T07:42:14Z</time>
      </trkpt>
      <trkpt lat="45.037284968420863" lon="3.170409025624394">
        <ele>831.67999999999995</ele>
        <time>2025-04-25T07:42:15Z</time>
      </trkpt>
      <trkpt lat="45.037159994244576" lon="3.171163983643055">
        <ele>831.20000000000005</ele>
        <time>2025-04-25T07:42:18Z</time>
      </trkpt>
      <trkpt lat="45.037072990089655" lon="3.171383002772927">
        <ele>831.20000000000005</ele>
        <time>2025-04-25T07:42:19Z</time>
      </trkpt>
      <trkpt lat="45.036951033398509" lon="3.171550976112485">
        <ele>831.20000000000005</ele>
        <time>2025-04-25T07:42:20Z</time>
      </trkpt>
      <trkpt lat="45.036802003160119" lon="3.171675028279424">
        <ele>831.20000000000005</ele>
        <time>2025-04-25T07:42:21Z</time>
      </trkpt>
      <trkpt lat="45.03665397875011" lon="3.171798996627331">
        <ele>831.20000000000005</ele>
        <time>2025-04-25T07:42:22Z</time>
      </trkpt>
      <trkpt lat="45.036233039572835" lon="3.172241980209947">
        <ele>830.72000000000003</ele>
        <time>2025-04-25T07:42:25Z</time>
      </trkpt>
      <trkpt lat="45.036150980740786" lon="3.172460999339819">
        <ele>830.24000000000001</ele>
        <time>2025-04-25T07:42:26Z</time>
      </trkpt>
      <trkpt lat="45.03581796772778" lon="3.173348978161812">
        <ele>830.72000000000003</ele>
        <time>2025-04-25T07:42:30Z</time>
      </trkpt>
      <trkpt lat="45.035716965794563" lon="3.173534972593188">
        <ele>830.72000000000003</ele>
        <time>2025-04-25T07:42:31Z</time>
      </trkpt>
      <trkpt lat="45.035588974133134" lon="3.173676962032914">
        <ele>831.20000000000005</ele>
        <time>2025-04-25T07:42:32Z</time>
      </trkpt>
      <trkpt lat="45.035439021885395" lon="3.173743011429906">
        <ele>831.67999999999995</ele>
        <time>2025-04-25T07:42:33Z</time>
      </trkpt>
      <trkpt lat="45.035288985818624" lon="3.173802020028234">
        <ele>832.15999999999997</ele>
        <time>2025-04-25T07:42:34Z</time>
      </trkpt>
      <trkpt lat="45.035126963630319" lon="3.173754997551441">
        <ele>833.12</ele>
        <time>2025-04-25T07:42:35Z</time>
      </trkpt>
      <trkpt lat="45.03495798446238" lon="3.173706969246268">
        <ele>834.08000000000004</ele>
        <time>2025-04-25T07:42:36Z</time>
      </trkpt>
      <trkpt lat="45.034797973930836" lon="3.173661036416888">
        <ele>835.03999999999996</ele>
        <time>2025-04-25T07:42:37Z</time>
      </trkpt>
      <trkpt lat="45.034640980884433" lon="3.173635974526405">
        <ele>836</ele>
        <time>2025-04-25T07:42:38Z</time>
      </trkpt>
      <trkpt lat="45.034482982009649" lon="3.173646032810211">
        <ele>836.96000000000004</ele>
        <time>2025-04-25T07:42:39Z</time>
      </trkpt>
      <trkpt lat="45.034308973699808" lon="3.173676040023565">
        <ele>837.92999999999995</ele>
        <time>2025-04-25T07:42:40Z</time>
      </trkpt>
      <trkpt lat="45.03413999453187" lon="3.173761032521725">
        <ele>838.88999999999999</ele>
        <time>2025-04-25T07:42:41Z</time>
      </trkpt>
      <trkpt lat="45.033995993435383" lon="3.173905033618212">
        <ele>840.33000000000004</ele>
        <time>2025-04-25T07:42:42Z</time>
      </trkpt>
      <trkpt lat="45.033866995945573" lon="3.174078958109021">
        <ele>841.28999999999996</ele>
        <time>2025-04-25T07:42:43Z</time>
      </trkpt>
      <trkpt lat="45.033759037032723" lon="3.174250032752752">
        <ele>842.73000000000002</ele>
        <time>2025-04-25T07:42:44Z</time>
      </trkpt>
      <trkpt lat="45.033660968765616" lon="3.174403002485633">
        <ele>843.69000000000005</ele>
        <time>2025-04-25T07:42:45Z</time>
      </trkpt>
      <trkpt lat="45.033578993752599" lon="3.174571981653571">
        <ele>844.65999999999997</ele>
        <time>2025-04-25T07:42:46Z</time>
      </trkpt>
      <trkpt lat="45.033399034291506" lon="3.174964003264904">
        <ele>846.10000000000002</ele>
        <time>2025-04-25T07:42:48Z</time>
      </trkpt>
      <trkpt lat="45.033297026529908" lon="3.175186039879918">
        <ele>846.58000000000004</ele>
        <time>2025-04-25T07:42:49Z</time>
      </trkpt>
      <trkpt lat="45.033149002119899" lon="3.175369016826153">
        <ele>846.58000000000004</ele>
        <time>2025-04-25T07:42:50Z</time>
      </trkpt>
      <trkpt lat="45.032732002437115" lon="3.175853993743658">
        <ele>846.58000000000004</ele>
        <time>2025-04-25T07:42:53Z</time>
      </trkpt>
      <trkpt lat="45.032633012160659" lon="3.176014004275203">
        <ele>846.10000000000002</ele>
        <time>2025-04-25T07:42:54Z</time>
      </trkpt>
      <trkpt lat="45.032538967207074" lon="3.176179965957999">
        <ele>846.10000000000002</ele>
        <time>2025-04-25T07:42:55Z</time>
      </trkpt>
      <trkpt lat="45.032470989972353" lon="3.176384987309575">
        <ele>845.62</ele>
        <time>2025-04-25T07:42:56Z</time>
      </trkpt>
      <trkpt lat="45.032388009130955" lon="3.176606018096209">
        <ele>845.13999999999999</ele>
        <time>2025-04-25T07:42:57Z</time>
      </trkpt>
      <trkpt lat="45.03190697170794" lon="3.177935974672437">
        <ele>840.33000000000004</ele>
        <time>2025-04-25T07:43:03Z</time>
      </trkpt>
      <trkpt lat="45.031881993636489" lon="3.17813596688211">
        <ele>839.37</ele>
        <time>2025-04-25T07:43:04Z</time>
      </trkpt>
      <trkpt lat="45.031892973929644" lon="3.178325984627008">
        <ele>838.88999999999999</ele>
        <time>2025-04-25T07:43:05Z</time>
      </trkpt>
      <trkpt lat="45.031962962821126" lon="3.17847702652216">
        <ele>837.92999999999995</ele>
        <time>2025-04-25T07:43:06Z</time>
      </trkpt>
      <trkpt lat="45.032043009996414" lon="3.178623961284757">
        <ele>837.45000000000005</ele>
        <time>2025-04-25T07:43:07Z</time>
      </trkpt>
      <trkpt lat="45.032157003879547" lon="3.178766034543514">
        <ele>837.45000000000005</ele>
        <time>2025-04-25T07:43:08Z</time>
      </trkpt>
      <trkpt lat="45.032413993030787" lon="3.179086977615953">
        <ele>836.96000000000004</ele>
        <time>2025-04-25T07:43:10Z</time>
      </trkpt>
      <trkpt lat="45.032520024105906" lon="3.179298033937812">
        <ele>836.48000000000002</ele>
        <time>2025-04-25T07:43:11Z</time>
      </trkpt>
      <trkpt lat="45.032608034089208" lon="3.179543036967516">
        <ele>836.48000000000002</ele>
        <time>2025-04-25T07:43:12Z</time>
      </trkpt>
      <trkpt lat="45.032655978575349" lon="3.179814023897052">
        <ele>836.48000000000002</ele>
        <time>2025-04-25T07:43:13Z</time>
      </trkpt>
      <trkpt lat="45.032703001052141" lon="3.180082999169827">
        <ele>836.48000000000002</ele>
        <time>2025-04-25T07:43:14Z</time>
      </trkpt>
      <trkpt lat="45.033043976873159" lon="3.182014022022486">
        <ele>842.25</ele>
        <time>2025-04-25T07:43:21Z</time>
      </trkpt>
      <trkpt lat="45.033057974651456" lon="3.182249972596765">
        <ele>843.21000000000004</ele>
        <time>2025-04-25T07:43:22Z</time>
      </trkpt>
      <trkpt lat="45.033058980479836" lon="3.182476032525301">
        <ele>844.65999999999997</ele>
        <time>2025-04-25T07:43:23Z</time>
      </trkpt>
      <trkpt lat="45.033037019893527" lon="3.182679964229465">
        <ele>845.62</ele>
        <time>2025-04-25T07:43:24Z</time>
      </trkpt>
      <trkpt lat="45.033024027943611" lon="3.182794963940978">
        <ele>847.05999999999995</ele>
        <time>2025-04-25T07:43:25Z</time>
      </trkpt>
      <trkpt lat="45.032942974939942" lon="3.183023035526276">
        <ele>848.01999999999998</ele>
        <time>2025-04-25T07:43:26Z</time>
      </trkpt>
      <trkpt lat="45.032874997705221" lon="3.183167036622763">
        <ele>848.98000000000002</ele>
        <time>2025-04-25T07:43:27Z</time>
      </trkpt>
      <trkpt lat="45.032795034348965" lon="3.183309026062489">
        <ele>849.94000000000005</ele>
        <time>2025-04-25T07:43:28Z</time>
      </trkpt>
      <trkpt lat="45.032711969688535" lon="3.183453027158976">
        <ele>850.89999999999998</ele>
        <time>2025-04-25T07:43:29Z</time>
      </trkpt>
      <trkpt lat="45.032612979412079" lon="3.183580012992024">
        <ele>851.87</ele>
        <time>2025-04-25T07:43:30Z</time>
      </trkpt>
      <trkpt lat="45.032504014670849" lon="3.1836589705199">
        <ele>851.87</ele>
        <time>2025-04-25T07:43:31Z</time>
      </trkpt>
      <trkpt lat="45.032387003302574" lon="3.18374396301806">
        <ele>852.35000000000002</ele>
        <time>2025-04-25T07:43:32Z</time>
      </trkpt>
      <trkpt lat="45.032187011092901" lon="3.183888969942927">
        <ele>851.87</ele>
        <time>2025-04-25T07:43:33Z</time>
      </trkpt>
      <trkpt lat="45.032091960310936" lon="3.183903973549604">
        <ele>851.38</ele>
        <time>2025-04-25T07:43:34Z</time>
      </trkpt>
      <trkpt lat="45.030597969889641" lon="3.184127015992999">
        <ele>845.13999999999999</ele>
        <time>2025-04-25T07:43:43Z</time>
      </trkpt>
      <trkpt lat="45.030266968533397" lon="3.184175966307521">
        <ele>843.21000000000004</ele>
        <time>2025-04-25T07:43:45Z</time>
      </trkpt>
      <trkpt lat="45.030105030164123" lon="3.184200022369623">
        <ele>841.76999999999998</ele>
        <time>2025-04-25T07:43:46Z</time>
      </trkpt>
      <trkpt lat="45.029506981372833" lon="3.184353997930884">
        <ele>836.96000000000004</ele>
        <time>2025-04-25T07:43:50Z</time>
      </trkpt>
      <trkpt lat="45.02937002107501" lon="3.184435972943902">
        <ele>836</ele>
        <time>2025-04-25T07:43:51Z</time>
      </trkpt>
      <trkpt lat="45.028611961752176" lon="3.18490301258862">
        <ele>831.67999999999995</ele>
        <time>2025-04-25T07:43:56Z</time>
      </trkpt>
      <trkpt lat="45.028436025604606" lon="3.184973001480103">
        <ele>830.72000000000003</ele>
        <time>2025-04-25T07:43:57Z</time>
      </trkpt>
      <trkpt lat="45.028250031173229" lon="3.185009965673089">
        <ele>830.24000000000001</ele>
        <time>2025-04-25T07:43:58Z</time>
      </trkpt>
      <trkpt lat="45.028064036741853" lon="3.185040978714824">
        <ele>829.75999999999999</ele>
        <time>2025-04-25T07:43:59Z</time>
      </trkpt>
      <trkpt lat="45.027878964319825" lon="3.185046007856727">
        <ele>829.75999999999999</ele>
        <time>2025-04-25T07:44:00Z</time>
      </trkpt>
      <trkpt lat="45.027696993201971" lon="3.185042990371585">
        <ele>829.26999999999998</ele>
        <time>2025-04-25T07:44:01Z</time>
      </trkpt>
      <trkpt lat="45.026352033019066" lon="3.185123037546873">
        <ele>834.55999999999995</ele>
        <time>2025-04-25T07:44:09Z</time>
      </trkpt>
      <trkpt lat="45.026198979467154" lon="3.18516100756824">
        <ele>835.03999999999996</ele>
        <time>2025-04-25T07:44:10Z</time>
      </trkpt>
      <trkpt lat="45.026050033047795" lon="3.1852460000664">
        <ele>836</ele>
        <time>2025-04-25T07:44:11Z</time>
      </trkpt>
      <trkpt lat="45.025913994759321" lon="3.185356976464391">
        <ele>836.48000000000002</ele>
        <time>2025-04-25T07:44:12Z</time>
      </trkpt>
      <trkpt lat="45.025772005319595" lon="3.18548203445971">
        <ele>837.92999999999995</ele>
        <time>2025-04-25T07:44:13Z</time>
      </trkpt>
      <trkpt lat="45.025125006213784" lon="3.18629801273346">
        <ele>843.21000000000004</ele>
        <time>2025-04-25T07:44:18Z</time>
      </trkpt>
      <trkpt lat="45.024717980995774" lon="3.186978036537767">
        <ele>846.58000000000004</ele>
        <time>2025-04-25T07:44:22Z</time>
      </trkpt>
      <trkpt lat="45.024661989882588" lon="3.187178028747439">
        <ele>847.05999999999995</ele>
        <time>2025-04-25T07:44:23Z</time>
      </trkpt>
      <trkpt lat="45.024613039568067" lon="3.187384977936745">
        <ele>848.01999999999998</ele>
        <time>2025-04-25T07:44:24Z</time>
      </trkpt>
      <trkpt lat="45.02457800321281" lon="3.187592010945082">
        <ele>848.98000000000002</ele>
        <time>2025-04-25T07:44:25Z</time>
      </trkpt>
      <trkpt lat="45.024543972685933" lon="3.187796026468277">
        <ele>849.94000000000005</ele>
        <time>2025-04-25T07:44:26Z</time>
      </trkpt>
      <trkpt lat="45.024518994614482" lon="3.188005993142724">
        <ele>850.89999999999998</ele>
        <time>2025-04-25T07:44:27Z</time>
      </trkpt>
      <trkpt lat="45.024512959644198" lon="3.188682999461889">
        <ele>853.30999999999995</ele>
        <time>2025-04-25T07:44:30Z</time>
      </trkpt>
      <trkpt lat="45.02464396879077" lon="3.189369980245829">
        <ele>853.78999999999996</ele>
        <time>2025-04-25T07:44:33Z</time>
      </trkpt>
      <trkpt lat="45.024716975167394" lon="3.189590005204082">
        <ele>853.78999999999996</ele>
        <time>2025-04-25T07:44:34Z</time>
      </trkpt>
      <trkpt lat="45.024867011234164" lon="3.1900380179286">
        <ele>854.26999999999998</ele>
        <time>2025-04-25T07:44:36Z</time>
      </trkpt>
      <trkpt lat="45.025019980967045" lon="3.190669007599354">
        <ele>854.75</ele>
        <time>2025-04-25T07:44:39Z</time>
      </trkpt>
      <trkpt lat="45.025040013715625" lon="3.190886015072465">
        <ele>855.71000000000004</ele>
        <time>2025-04-25T07:44:40Z</time>
      </trkpt>
      <trkpt lat="45.025001959875226" lon="3.19113302975893">
        <ele>856.19000000000005</ele>
        <time>2025-04-25T07:44:41Z</time>
      </trkpt>
      <trkpt lat="45.024962984025478" lon="3.191360011696816">
        <ele>856.66999999999996</ele>
        <time>2025-04-25T07:44:42Z</time>
      </trkpt>
      <trkpt lat="45.024885032325983" lon="3.191575007513166">
        <ele>857.14999999999998</ele>
        <time>2025-04-25T07:44:43Z</time>
      </trkpt>
      <trkpt lat="45.024800961837173" lon="3.191786985844374">
        <ele>857.63</ele>
        <time>2025-04-25T07:44:44Z</time>
      </trkpt>
      <trkpt lat="45.024714963510633" lon="3.191999970003963">
        <ele>858.11000000000001</ele>
        <time>2025-04-25T07:44:45Z</time>
      </trkpt>
      <trkpt lat="45.023802006617188" lon="3.193359011784196">
        <ele>862.91999999999996</ele>
        <time>2025-04-25T07:44:53Z</time>
      </trkpt>
      <trkpt lat="45.023428006097674" lon="3.193683978170157">
        <ele>864.36000000000001</ele>
        <time>2025-04-25T07:44:56Z</time>
      </trkpt>
      <trkpt lat="45.023151990026236" lon="3.193840971216559">
        <ele>864.84000000000003</ele>
        <time>2025-04-25T07:44:58Z</time>
      </trkpt>
      <trkpt lat="45.022988962009549" lon="3.193881036713719">
        <ele>864.36000000000001</ele>
        <time>2025-04-25T07:44:59Z</time>
      </trkpt>
      <trkpt lat="45.021641990169883" lon="3.193961000069976">
        <ele>861</ele>
        <time>2025-04-25T07:45:06Z</time>
      </trkpt>
      <trkpt lat="45.019968040287495" lon="3.194186976179481">
        <ele>858.11000000000001</ele>
        <time>2025-04-25T07:45:14Z</time>
      </trkpt>
      <trkpt lat="45.019766036421061" lon="3.194170966744423">
        <ele>857.63</ele>
        <time>2025-04-25T07:45:15Z</time>
      </trkpt>
      <trkpt lat="45.019564032554626" lon="3.194152023643255">
        <ele>857.14999999999998</ele>
        <time>2025-04-25T07:45:16Z</time>
      </trkpt>
      <trkpt lat="45.019172010943294" lon="3.19409997202456">
        <ele>856.19000000000005</ele>
        <time>2025-04-25T07:45:18Z</time>
      </trkpt>
      <trkpt lat="45.01847698353231" lon="3.194021014496684">
        <ele>854.26999999999998</ele>
        <time>2025-04-25T07:45:22Z</time>
      </trkpt>
      <trkpt lat="45.01828202046454" lon="3.194039035588503">
        <ele>854.26999999999998</ele>
        <time>2025-04-25T07:45:23Z</time>
      </trkpt>
      <trkpt lat="45.016729021444917" lon="3.194541027769446">
        <ele>851.87</ele>
        <time>2025-04-25T07:45:31Z</time>
      </trkpt>
      <trkpt lat="45.016525005921721" lon="3.19454999640584">
        <ele>851.38</ele>
        <time>2025-04-25T07:45:32Z</time>
      </trkpt>
      <trkpt lat="45.016321996226907" lon="3.194509008899331">
        <ele>850.89999999999998</ele>
        <time>2025-04-25T07:45:33Z</time>
      </trkpt>
      <trkpt lat="45.015696035698056" lon="3.194408006966114">
        <ele>850.41999999999996</ele>
        <time>2025-04-25T07:45:36Z</time>
      </trkpt>
      <trkpt lat="45.014666989445686" lon="3.19440096616745">
        <ele>848.98000000000002</ele>
        <time>2025-04-25T07:45:41Z</time>
      </trkpt>
      <trkpt lat="45.014484012499452" lon="3.194360984489322">
        <ele>848.5</ele>
        <time>2025-04-25T07:45:42Z</time>
      </trkpt>
      <trkpt lat="45.014293994754553" lon="3.194229975342751">
        <ele>848.5</ele>
        <time>2025-04-25T07:45:43Z</time>
      </trkpt>
      <trkpt lat="45.014110011979938" lon="3.194094020873308">
        <ele>848.5</ele>
        <time>2025-04-25T07:45:44Z</time>
      </trkpt>
      <trkpt lat="45.013933992013335" lon="3.193918000906706">
        <ele>848.01999999999998</ele>
        <time>2025-04-25T07:45:45Z</time>
      </trkpt>
      <trkpt lat="45.012950040400028" lon="3.193259015679359">
        <ele>847.05999999999995</ele>
        <time>2025-04-25T07:45:50Z</time>
      </trkpt>
      <trkpt lat="45.012748036533594" lon="3.193206964060664">
        <ele>846.58000000000004</ele>
        <time>2025-04-25T07:45:51Z</time>
      </trkpt>
      <trkpt lat="45.012544021010399" lon="3.193219034001231">
        <ele>846.10000000000002</ele>
        <time>2025-04-25T07:45:52Z</time>
      </trkpt>
      <trkpt lat="45.012330031022429" lon="3.193272007629275">
        <ele>845.62</ele>
        <time>2025-04-25T07:45:53Z</time>
      </trkpt>
      <trkpt lat="45.012116963043809" lon="3.193348031491041">
        <ele>845.13999999999999</ele>
        <time>2025-04-25T07:45:54Z</time>
      </trkpt>
      <trkpt lat="45.011485973373055" lon="3.193496977910399">
        <ele>843.69000000000005</ele>
        <time>2025-04-25T07:45:57Z</time>
      </trkpt>
      <trkpt lat="45.011288998648524" lon="3.193452972918749">
        <ele>843.21000000000004</ele>
        <time>2025-04-25T07:45:58Z</time>
      </trkpt>
      <trkpt lat="45.011115996167064" lon="3.193394970148802">
        <ele>842.73000000000002</ele>
        <time>2025-04-25T07:45:59Z</time>
      </trkpt>
      <trkpt lat="45.010930001735687" lon="3.193248035386205">
        <ele>842.25</ele>
        <time>2025-04-25T07:46:00Z</time>
      </trkpt>
      <trkpt lat="45.010755993425846" lon="3.19310998544097">
        <ele>841.76999999999998</ele>
        <time>2025-04-25T07:46:01Z</time>
      </trkpt>
      <trkpt lat="45.010583996772766" lon="3.192974030971527">
        <ele>841.28999999999996</ele>
        <time>2025-04-25T07:46:02Z</time>
      </trkpt>
      <trkpt lat="45.010410994291306" lon="3.192865988239646">
        <ele>840.80999999999995</ele>
        <time>2025-04-25T07:46:03Z</time>
      </trkpt>
      <trkpt lat="45.010241009294987" lon="3.192791976034641">
        <ele>840.33000000000004</ele>
        <time>2025-04-25T07:46:04Z</time>
      </trkpt>
      <trkpt lat="45.009634997695684" lon="3.192622996866703">
        <ele>838.88999999999999</ele>
        <time>2025-04-25T07:46:08Z</time>
      </trkpt>
      <trkpt lat="45.009456966072321" lon="3.192664990201592">
        <ele>838.40999999999997</ele>
        <time>2025-04-25T07:46:09Z</time>
      </trkpt>
      <trkpt lat="45.009293016046286" lon="3.19270396605134">
        <ele>837.92999999999995</ele>
        <time>2025-04-25T07:46:10Z</time>
      </trkpt>
      <trkpt lat="45.009134011343122" lon="3.192748976871371">
        <ele>837.45000000000005</ele>
        <time>2025-04-25T07:46:11Z</time>
      </trkpt>
      <trkpt lat="45.008984981104732" lon="3.192807985469699">
        <ele>836.96000000000004</ele>
        <time>2025-04-25T07:46:12Z</time>
      </trkpt>
      <trkpt lat="45.008524982258677" lon="3.192986017093062">
        <ele>834.55999999999995</ele>
        <time>2025-04-25T07:46:17Z</time>
      </trkpt>
      <trkpt lat="45.008483994752169" lon="3.19300202652812">
        <ele>834.55999999999995</ele>
        <time>2025-04-25T07:46:18Z</time>
      </trkpt>
      <trkpt lat="45.008409982547164" lon="3.19304401986301">
        <ele>834.55999999999995</ele>
        <time>2025-04-25T07:46:19Z</time>
      </trkpt>
      <trkpt lat="45.008396990597248" lon="3.193128006532788">
        <ele>834.55999999999995</ele>
        <time>2025-04-25T07:46:20Z</time>
      </trkpt>
      <trkpt lat="45.008378969505429" lon="3.193242000415921">
        <ele>834.55999999999995</ele>
        <time>2025-04-25T07:46:21Z</time>
      </trkpt>
      <trkpt lat="45.008359020575881" lon="3.193377032876015">
        <ele>834.55999999999995</ele>
        <time>2025-04-25T07:46:22Z</time>
      </trkpt>
      <trkpt lat="45.008232034742832" lon="3.194200973957777">
        <ele>834.08000000000004</ele>
        <time>2025-04-25T07:46:27Z</time>
      </trkpt>
      <trkpt lat="45.008217031136155" lon="3.194298958405852">
        <ele>833.60000000000002</ele>
        <time>2025-04-25T07:46:28Z</time>
      </trkpt>
      <trkpt lat="45.008063977584243" lon="3.194361990317702">
        <ele>833.60000000000002</ele>
        <time>2025-04-25T07:46:29Z</time>
      </trkpt>
      <trkpt lat="45.007985020056367" lon="3.194324020296335">
        <ele>833.60000000000002</ele>
        <time>2025-04-25T07:46:30Z</time>
      </trkpt>
      <trkpt lat="45.007888963446021" lon="3.194279009476304">
        <ele>834.08000000000004</ele>
        <time>2025-04-25T07:46:31Z</time>
      </trkpt>
      <trkpt lat="45.007775975391269" lon="3.194225030019879">
        <ele>834.08000000000004</ele>
        <time>2025-04-25T07:46:32Z</time>
      </trkpt>
      <trkpt lat="45.007647983729839" lon="3.194164009764791">
        <ele>834.55999999999995</ele>
        <time>2025-04-25T07:46:33Z</time>
      </trkpt>
      <trkpt lat="45.006892019882798" lon="3.193824039772153">
        <ele>835.03999999999996</ele>
        <time>2025-04-25T07:46:38Z</time>
      </trkpt>
      <trkpt lat="45.006721029058099" lon="3.193824039772153">
        <ele>835.51999999999998</ele>
        <time>2025-04-25T07:46:39Z</time>
      </trkpt>
      <trkpt lat="45.006554983556271" lon="3.193838959559798">
        <ele>835.51999999999998</ele>
        <time>2025-04-25T07:46:40Z</time>
      </trkpt>
      <trkpt lat="45.006387010216713" lon="3.193870978429914">
        <ele>836</ele>
        <time>2025-04-25T07:46:41Z</time>
      </trkpt>
      <trkpt lat="45.006215013563633" lon="3.193904003128409">
        <ele>836.96000000000004</ele>
        <time>2025-04-25T07:46:42Z</time>
      </trkpt>
      <trkpt lat="45.005695000290871" lon="3.194003999233246">
        <ele>839.37</ele>
        <time>2025-04-25T07:46:45Z</time>
      </trkpt>
      <trkpt lat="45.005530966445804" lon="3.193983966484666">
        <ele>840.33000000000004</ele>
        <time>2025-04-25T07:46:46Z</time>
      </trkpt>
      <trkpt lat="45.00537296757102" lon="3.193925963714719">
        <ele>841.28999999999996</ele>
        <time>2025-04-25T07:46:47Z</time>
      </trkpt>
      <trkpt lat="45.00474700704217" lon="3.193696970120072">
        <ele>844.17999999999995</ele>
        <time>2025-04-25T07:46:51Z</time>
      </trkpt>
      <trkpt lat="45.00459898263216" lon="3.193680960685015">
        <ele>845.13999999999999</ele>
        <time>2025-04-25T07:46:52Z</time>
      </trkpt>
      <trkpt lat="45.004455987364054" lon="3.193700993433595">
        <ele>845.62</ele>
        <time>2025-04-25T07:46:53Z</time>
      </trkpt>
      <trkpt lat="45.004306035116315" lon="3.193756984546781">
        <ele>846.10000000000002</ele>
        <time>2025-04-25T07:46:54Z</time>
      </trkpt>
      <trkpt lat="45.004148036241531" lon="3.193827979266644">
        <ele>846.58000000000004</ele>
        <time>2025-04-25T07:46:55Z</time>
      </trkpt>
      <trkpt lat="45.003987019881606" lon="3.193937027826905">
        <ele>846.58000000000004</ele>
        <time>2025-04-25T07:46:56Z</time>
      </trkpt>
      <trkpt lat="45.00275001861155" lon="3.194778990000486">
        <ele>844.17999999999995</ele>
        <time>2025-04-25T07:47:03Z</time>
      </trkpt>
      <trkpt lat="45.002447012811899" lon="3.195026004686952">
        <ele>842.73000000000002</ele>
        <time>2025-04-25T07:47:05Z</time>
      </trkpt>
      <trkpt lat="45.002345005050302" lon="3.195204036310315">
        <ele>841.76999999999998</ele>
        <time>2025-04-25T07:47:06Z</time>
      </trkpt>
      <trkpt lat="45.001821974292397" lon="3.196283960714936">
        <ele>838.88999999999999</ele>
        <time>2025-04-25T07:47:11Z</time>
      </trkpt>
      <trkpt lat="45.001609995961189" lon="3.196785030886531">
        <ele>835.03999999999996</ele>
        <time>2025-04-25T07:47:14Z</time>
      </trkpt>
      <trkpt lat="45.00152600929141" lon="3.196821995079517">
        <ele>834.08000000000004</ele>
        <time>2025-04-25T07:47:15Z</time>
      </trkpt>
      <trkpt lat="45.001456020399928" lon="3.196854013949633">
        <ele>833.12</ele>
        <time>2025-04-25T07:47:16Z</time>
      </trkpt>
      <trkpt lat="45.001416960731149" lon="3.196871029213071">
        <ele>832.15999999999997</ele>
        <time>2025-04-25T07:47:17Z</time>
      </trkpt>
      <trkpt lat="45.001386031508446" lon="3.196838004514575">
        <ele>831.20000000000005</ele>
        <time>2025-04-25T07:47:18Z</time>
      </trkpt>
      <trkpt lat="45.001356024295092" lon="3.19680598564446">
        <ele>830.24000000000001</ele>
        <time>2025-04-25T07:47:19Z</time>
      </trkpt>
      <trkpt lat="45.001307995989919" lon="3.196753012016416">
        <ele>828.78999999999996</ele>
        <time>2025-04-25T07:47:20Z</time>
      </trkpt>
      <trkpt lat="45.001240018755198" lon="3.196680005639792">
        <ele>827.35000000000002</ele>
        <time>2025-04-25T07:47:21Z</time>
      </trkpt>
      <trkpt lat="45.001158965751529" lon="3.19659199565649">
        <ele>826.87</ele>
        <time>2025-04-25T07:47:22Z</time>
      </trkpt>
      <trkpt lat="45.001040026545525" lon="3.196579003706574">
        <ele>826.38999999999999</ele>
        <time>2025-04-25T07:47:23Z</time>
      </trkpt>
      <trkpt lat="45.000905999913812" lon="3.196602975949645">
        <ele>826.38999999999999</ele>
        <time>2025-04-25T07:47:24Z</time>
      </trkpt>
      <trkpt lat="45.000782031565905" lon="3.196671037003398">
        <ele>825.90999999999997</ele>
        <time>2025-04-25T07:47:25Z</time>
      </trkpt>
      <trkpt lat="45.000502998009324" lon="3.196823000907898">
        <ele>824.95000000000005</ele>
        <time>2025-04-25T07:47:27Z</time>
      </trkpt>
      <trkpt lat="45.000348016619682" lon="3.196859965100884">
        <ele>824.47000000000003</ele>
        <time>2025-04-25T07:47:28Z</time>
      </trkpt>
      <trkpt lat="44.999840995296836" lon="3.19693598896265">
        <ele>821.58000000000004</ele>
        <time>2025-04-25T07:47:31Z</time>
      </trkpt>
      <trkpt lat="44.999650977551937" lon="3.19693598896265">
        <ele>821.10000000000002</ele>
        <time>2025-04-25T07:47:32Z</time>
      </trkpt>
      <trkpt lat="44.999462971463799" lon="3.196921991184354">
        <ele>820.62</ele>
        <time>2025-04-25T07:47:33Z</time>
      </trkpt>
      <trkpt lat="44.998399978503585" lon="3.196690985932946">
        <ele>819.17999999999995</ele>
        <time>2025-04-25T07:47:40Z</time>
      </trkpt>
      <trkpt lat="44.998240973800421" lon="3.196657039225102">
        <ele>819.17999999999995</ele>
        <time>2025-04-25T07:47:41Z</time>
      </trkpt>
      <trkpt lat="44.997955989092588" lon="3.196691991761327">
        <ele>819.17999999999995</ele>
        <time>2025-04-25T07:47:43Z</time>
      </trkpt>
      <trkpt lat="44.997820034623146" lon="3.196709007024765">
        <ele>819.17999999999995</ele>
        <time>2025-04-25T07:47:44Z</time>
      </trkpt>
      <trkpt lat="44.997694976627827" lon="3.196705989539623">
        <ele>819.17999999999995</ele>
        <time>2025-04-25T07:47:45Z</time>
      </trkpt>
      <trkpt lat="44.997591963037848" lon="3.19665402173996">
        <ele>818.70000000000005</ele>
        <time>2025-04-25T07:47:46Z</time>
      </trkpt>
      <trkpt lat="44.997490961104631" lon="3.196603981778026">
        <ele>818.70000000000005</ele>
        <time>2025-04-25T07:47:47Z</time>
      </trkpt>
      <trkpt lat="44.997402029111981" lon="3.196558970957995">
        <ele>819.17999999999995</ele>
        <time>2025-04-25T07:47:48Z</time>
      </trkpt>
      <trkpt lat="44.997323993593454" lon="3.196530975401402">
        <ele>819.17999999999995</ele>
        <time>2025-04-25T07:47:49Z</time>
      </trkpt>
      <trkpt lat="44.997260961681604" lon="3.196542039513588">
        <ele>819.65999999999997</ele>
        <time>2025-04-25T07:47:50Z</time>
      </trkpt>
      <trkpt lat="44.997199019417167" lon="3.196554025635123">
        <ele>819.65999999999997</ele>
        <time>2025-04-25T07:47:51Z</time>
      </trkpt>
      <trkpt lat="44.9971420224756" lon="3.196564000099897">
        <ele>820.13999999999999</ele>
        <time>2025-04-25T07:47:52Z</time>
      </trkpt>
      <trkpt lat="44.997071027755737" lon="3.196553019806743">
        <ele>820.62</ele>
        <time>2025-04-25T07:47:53Z</time>
      </trkpt>
      <trkpt lat="44.996911017224193" lon="3.196464003995061">
        <ele>822.05999999999995</ele>
        <time>2025-04-25T07:47:55Z</time>
      </trkpt>
      <trkpt lat="44.996855026111007" lon="3.196464003995061">
        <ele>822.54999999999995</ele>
        <time>2025-04-25T07:47:56Z</time>
      </trkpt>
      <trkpt lat="44.995908038690686" lon="3.196428967639804">
        <ele>824.47000000000003</ele>
        <time>2025-04-25T07:48:04Z</time>
      </trkpt>
      <trkpt lat="44.994529969990253" lon="3.195940973237157">
        <ele>829.26999999999998</ele>
        <time>2025-04-25T07:48:14Z</time>
      </trkpt>
      <trkpt lat="44.99321099370718" lon="3.195422971621156">
        <ele>831.20000000000005</ele>
        <time>2025-04-25T07:48:24Z</time>
      </trkpt>
      <trkpt lat="44.992581009864807" lon="3.195148967206478">
        <ele>828.30999999999995</ele>
        <time>2025-04-25T07:48:29Z</time>
      </trkpt>
      <trkpt lat="44.992453018203378" lon="3.195156008005142">
        <ele>827.83000000000004</ele>
        <time>2025-04-25T07:48:30Z</time>
      </trkpt>
      <trkpt lat="44.992316979914904" lon="3.195208981633186">
        <ele>827.83000000000004</ele>
        <time>2025-04-25T07:48:31Z</time>
      </trkpt>
      <trkpt lat="44.99187801964581" lon="3.195379972457886">
        <ele>829.26999999999998</ele>
        <time>2025-04-25T07:48:34Z</time>
      </trkpt>
      <trkpt lat="44.99067303724587" lon="3.195444010198116">
        <ele>833.12</ele>
        <time>2025-04-25T07:48:41Z</time>
      </trkpt>
      <trkpt lat="44.989015012979507" lon="3.195160031318665">
        <ele>831.67999999999995</ele>
        <time>2025-04-25T07:48:50Z</time>
      </trkpt>
      <trkpt lat="44.987916983664036" lon="3.194531975314021">
        <ele>833.12</ele>
        <time>2025-04-25T07:48:57Z</time>
      </trkpt>
      <trkpt lat="44.986599013209343" lon="3.193476023152471">
        <ele>834.08000000000004</ele>
        <time>2025-04-25T07:49:06Z</time>
      </trkpt>
      <trkpt lat="44.986344035714865" lon="3.193215010687709">
        <ele>834.08000000000004</ele>
        <time>2025-04-25T07:49:09Z</time>
      </trkpt>
      <trkpt lat="44.986281003803015" lon="3.193189026787877">
        <ele>834.55999999999995</ele>
        <time>2025-04-25T07:49:10Z</time>
      </trkpt>
      <trkpt lat="44.986228030174971" lon="3.193204030394554">
        <ele>834.55999999999995</ele>
        <time>2025-04-25T07:49:11Z</time>
      </trkpt>
      <trkpt lat="44.986171033233404" lon="3.193220039829612">
        <ele>834.55999999999995</ele>
        <time>2025-04-25T07:49:12Z</time>
      </trkpt>
      <trkpt lat="44.98612099327147" lon="3.193267984315753">
        <ele>834.55999999999995</ele>
        <time>2025-04-25T07:49:13Z</time>
      </trkpt>
      <trkpt lat="44.986072964966297" lon="3.193322969600558">
        <ele>834.55999999999995</ele>
        <time>2025-04-25T07:49:14Z</time>
      </trkpt>
      <trkpt lat="44.986020997166634" lon="3.193382984027267">
        <ele>834.55999999999995</ele>
        <time>2025-04-25T07:49:15Z</time>
      </trkpt>
      <trkpt lat="44.985971041023731" lon="3.193460013717413">
        <ele>834.08000000000004</ele>
        <time>2025-04-25T07:49:16Z</time>
      </trkpt>
      <trkpt lat="44.985870961099863" lon="3.193592028692365">
        <ele>833.60000000000002</ele>
        <time>2025-04-25T07:49:18Z</time>
      </trkpt>
      <trkpt lat="44.985821004956961" lon="3.193655982613564">
        <ele>833.60000000000002</ele>
        <time>2025-04-25T07:49:19Z</time>
      </trkpt>
      <trkpt lat="44.98577699996531" lon="3.193718008697033">
        <ele>833.60000000000002</ele>
        <time>2025-04-25T07:49:20Z</time>
      </trkpt>
      <trkpt lat="44.985741041600704" lon="3.193769976496697">
        <ele>833.60000000000002</ele>
        <time>2025-04-25T07:49:21Z</time>
      </trkpt>
      <trkpt lat="44.98571103438735" lon="3.193812975659967">
        <ele>834.08000000000004</ele>
        <time>2025-04-25T07:49:22Z</time>
      </trkpt>
      <trkpt lat="44.985619001090527" lon="3.193809036165476">
        <ele>834.55999999999995</ele>
        <time>2025-04-25T07:49:23Z</time>
      </trkpt>
      <trkpt lat="44.98556200414896" lon="3.193780034780502">
        <ele>834.55999999999995</ele>
        <time>2025-04-25T07:49:24Z</time>
      </trkpt>
      <trkpt lat="44.985490003600717" lon="3.193741980940104">
        <ele>835.03999999999996</ele>
        <time>2025-04-25T07:49:25Z</time>
      </trkpt>
      <trkpt lat="44.98470101505518" lon="3.193331016227603">
        <ele>836</ele>
        <time>2025-04-25T07:49:32Z</time>
      </trkpt>
      <trkpt lat="44.983312971889973" lon="3.192597012966871">
        <ele>838.40999999999997</ele>
        <time>2025-04-25T07:49:40Z</time>
      </trkpt>
      <trkpt lat="44.9813739862293" lon="3.191550029441714">
        <ele>848.5</ele>
        <time>2025-04-25T07:49:50Z</time>
      </trkpt>
      <trkpt lat="44.981036027893424" lon="3.191310977563262">
        <ele>850.41999999999996</ele>
        <time>2025-04-25T07:49:52Z</time>
      </trkpt>
      <trkpt lat="44.980893032625318" lon="3.191157002002001">
        <ele>851.38</ele>
        <time>2025-04-25T07:49:53Z</time>
      </trkpt>
      <trkpt lat="44.980768980458379" lon="3.190950974822044">
        <ele>852.35000000000002</ele>
        <time>2025-04-25T07:49:54Z</time>
      </trkpt>
      <trkpt lat="44.980177972465754" lon="3.189665023237467">
        <ele>855.71000000000004</ele>
        <time>2025-04-25T07:49:59Z</time>
      </trkpt>
      <trkpt lat="44.980094991624355" lon="3.189380038529635">
        <ele>856.66999999999996</ele>
        <time>2025-04-25T07:50:00Z</time>
      </trkpt>
      <trkpt lat="44.979504989460111" lon="3.187152966856957">
        <ele>861.96000000000004</ele>
        <time>2025-04-25T07:50:08Z</time>
      </trkpt>
      <trkpt lat="44.979488980025053" lon="3.186868987977505">
        <ele>862.44000000000005</ele>
        <time>2025-04-25T07:50:09Z</time>
      </trkpt>
      <trkpt lat="44.979349002242088" lon="3.18479597568512">
        <ele>866.28999999999996</ele>
        <time>2025-04-25T07:50:17Z</time>
      </trkpt>
      <trkpt lat="44.979314971715212" lon="3.184595983475447">
        <ele>866.76999999999998</ele>
        <time>2025-04-25T07:50:18Z</time>
      </trkpt>
      <trkpt lat="44.979274990037084" lon="3.184416024014354">
        <ele>866.76999999999998</ele>
        <time>2025-04-25T07:50:19Z</time>
      </trkpt>
      <trkpt lat="44.979210030287504" lon="3.184233969077468">
        <ele>866.76999999999998</ele>
        <time>2025-04-25T07:50:20Z</time>
      </trkpt>
      <trkpt lat="44.979125037789345" lon="3.184056021273136">
        <ele>866.28999999999996</ele>
        <time>2025-04-25T07:50:21Z</time>
      </trkpt>
      <trkpt lat="44.97902998700738" lon="3.183882012963295">
        <ele>865.79999999999995</ele>
        <time>2025-04-25T07:50:22Z</time>
      </trkpt>
      <trkpt lat="44.978938037529588" lon="3.183713033795357">
        <ele>864.84000000000003</ele>
        <time>2025-04-25T07:50:23Z</time>
      </trkpt>
      <trkpt lat="44.978870982304215" lon="3.183538019657135">
        <ele>863.88</ele>
        <time>2025-04-25T07:50:24Z</time>
      </trkpt>
      <trkpt lat="44.978809962049127" lon="3.183368034660816">
        <ele>863.39999999999998</ele>
        <time>2025-04-25T07:50:25Z</time>
      </trkpt>
      <trkpt lat="44.978757994249463" lon="3.183187991380692">
        <ele>862.44000000000005</ele>
        <time>2025-04-25T07:50:26Z</time>
      </trkpt>
      <trkpt lat="44.978763023391366" lon="3.183001996949315">
        <ele>861.48000000000002</ele>
        <time>2025-04-25T07:50:27Z</time>
      </trkpt>
      <trkpt lat="44.978767968714237" lon="3.182814996689558">
        <ele>861</ele>
        <time>2025-04-25T07:50:28Z</time>
      </trkpt>
      <trkpt lat="44.978776015341282" lon="3.182468991726637">
        <ele>859.55999999999995</ele>
        <time>2025-04-25T07:50:30Z</time>
      </trkpt>
      <trkpt lat="44.978759000077844" lon="3.182323984801769">
        <ele>859.08000000000004</ele>
        <time>2025-04-25T07:50:31Z</time>
      </trkpt>
      <trkpt lat="44.978695968165994" lon="3.182189958170056">
        <ele>858.59000000000003</ele>
        <time>2025-04-25T07:50:32Z</time>
      </trkpt>
      <trkpt lat="44.978627990931273" lon="3.18204503506422">
        <ele>858.11000000000001</ele>
        <time>2025-04-25T07:50:33Z</time>
      </trkpt>
      <trkpt lat="44.978540986776352" lon="3.181916959583759">
        <ele>857.63</ele>
        <time>2025-04-25T07:50:34Z</time>
      </trkpt>
      <trkpt lat="44.978444008156657" lon="3.181792991235852">
        <ele>857.14999999999998</ele>
        <time>2025-04-25T07:50:35Z</time>
      </trkpt>
      <trkpt lat="44.978333031758666" lon="3.1816800031811">
        <ele>856.66999999999996</ele>
        <time>2025-04-25T07:50:36Z</time>
      </trkpt>
      <trkpt lat="44.978208979591727" lon="3.181612025946379">
        <ele>856.19000000000005</ele>
        <time>2025-04-25T07:50:37Z</time>
      </trkpt>
      <trkpt lat="44.97808501124382" lon="3.181575983762741">
        <ele>855.23000000000002</ele>
        <time>2025-04-25T07:50:38Z</time>
      </trkpt>
      <trkpt lat="44.977965988218784" lon="3.181585958227515">
        <ele>854.26999999999998</ele>
        <time>2025-04-25T07:50:39Z</time>
      </trkpt>
      <trkpt lat="44.977865992113948" lon="3.181608002632856">
        <ele>853.30999999999995</ele>
        <time>2025-04-25T07:50:40Z</time>
      </trkpt>
      <trkpt lat="44.977768007665873" lon="3.181720990687609">
        <ele>852.35000000000002</ele>
        <time>2025-04-25T07:50:41Z</time>
      </trkpt>
      <trkpt lat="44.977659964933991" lon="3.181847976520658">
        <ele>851.38</ele>
        <time>2025-04-25T07:50:42Z</time>
      </trkpt>
      <trkpt lat="44.977554017677903" lon="3.181971022859216">
        <ele>850.41999999999996</ele>
        <time>2025-04-25T07:50:43Z</time>
      </trkpt>
      <trkpt lat="44.977449998259544" lon="3.182091973721981">
        <ele>849.46000000000004</ele>
        <time>2025-04-25T07:50:44Z</time>
      </trkpt>
      <trkpt lat="44.977362994104624" lon="3.182193981483579">
        <ele>848.5</ele>
        <time>2025-04-25T07:50:45Z</time>
      </trkpt>
      <trkpt lat="44.9771380238235" lon="3.182294983416796">
        <ele>846.58000000000004</ele>
        <time>2025-04-25T07:50:47Z</time>
      </trkpt>
      <trkpt lat="44.977039033547044" lon="3.182275034487248">
        <ele>845.13999999999999</ele>
        <time>2025-04-25T07:50:48Z</time>
      </trkpt>
      <trkpt lat="44.976943982765079" lon="3.18223999813199">
        <ele>843.69000000000005</ele>
        <time>2025-04-25T07:50:49Z</time>
      </trkpt>
      <trkpt lat="44.976886985823512" lon="3.18213296122849">
        <ele>841.76999999999998</ele>
        <time>2025-04-25T07:50:50Z</time>
      </trkpt>
      <trkpt lat="44.976869970560074" lon="3.182036988437176">
        <ele>840.33000000000004</ele>
        <time>2025-04-25T07:50:51Z</time>
      </trkpt>
      <trkpt lat="44.976848009973764" lon="3.18191503174603">
        <ele>838.40999999999997</ele>
        <time>2025-04-25T07:50:52Z</time>
      </trkpt>
      <trkpt lat="44.976853039115667" lon="3.181867003440857">
        <ele>836.96000000000004</ele>
        <time>2025-04-25T07:50:53Z</time>
      </trkpt>
      <trkpt lat="44.976858990266919" lon="3.181806989014149">
        <ele>836</ele>
        <time>2025-04-25T07:50:54Z</time>
      </trkpt>
      <trkpt lat="44.976876005530357" lon="3.181630969047546">
        <ele>830.72000000000003</ele>
        <time>2025-04-25T07:50:59Z</time>
      </trkpt>
      <trkpt lat="44.976878017187119" lon="3.181610014289618">
        <ele>829.75999999999999</ele>
        <time>2025-04-25T07:51:00Z</time>
      </trkpt>
      <trkpt lat="44.97688103467226" lon="3.181585958227515">
        <ele>828.78999999999996</ele>
        <time>2025-04-25T07:51:01Z</time>
      </trkpt>
      <trkpt lat="44.97688396833837" lon="3.181552011519671">
        <ele>828.30999999999995</ele>
        <time>2025-04-25T07:51:02Z</time>
      </trkpt>
      <trkpt lat="44.976887991651893" lon="3.181511024013162">
        <ele>827.35000000000002</ele>
        <time>2025-04-25T07:51:03Z</time>
      </trkpt>
      <trkpt lat="44.976893020793796" lon="3.181460984051228">
        <ele>826.87</ele>
        <time>2025-04-25T07:51:04Z</time>
      </trkpt>
      <trkpt lat="44.976897966116667" lon="3.181407004594803">
        <ele>825.90999999999997</ele>
        <time>2025-04-25T07:51:05Z</time>
      </trkpt>
      <trkpt lat="44.976930990815163" lon="3.181082038208842">
        <ele>823.50999999999999</ele>
        <time>2025-04-25T07:51:13Z</time>
      </trkpt>
      <trkpt lat="44.976930990815163" lon="3.181082038208842">
        <ele>823.50999999999999</ele>
        <time>2025-04-25T07:51:14Z</time>
      </trkpt>
      <trkpt lat="44.976930990815163" lon="3.181082038208842">
        <ele>823.50999999999999</ele>
        <time>2025-04-25T07:51:29Z</time>
      </trkpt>
      <trkpt lat="44.976938031613827" lon="3.180981958284974">
        <ele>841.28999999999996</ele>
        <time>2025-04-25T07:54:38Z</time>
      </trkpt>
      <trkpt lat="44.976993016898632" lon="3.180720023810864">
        <ele>836.96000000000004</ele>
        <time>2025-04-25T07:54:58Z</time>
      </trkpt>
      <trkpt lat="44.977072980254889" lon="3.180464040488005">
        <ele>835.51999999999998</ele>
        <time>2025-04-25T07:55:02Z</time>
      </trkpt>
      <trkpt lat="44.977128971368074" lon="3.18028399720788">
        <ele>833.60000000000002</ele>
        <time>2025-04-25T07:55:04Z</time>
      </trkpt>
      <trkpt lat="44.977210024371743" lon="3.18006900139153">
        <ele>832.15999999999997</ele>
        <time>2025-04-25T07:55:06Z</time>
      </trkpt>
      <trkpt lat="44.977314965799451" lon="3.179844031110406">
        <ele>830.24000000000001</ele>
        <time>2025-04-25T07:55:08Z</time>
      </trkpt>
      <trkpt lat="44.977313037961721" lon="3.17970396950841">
        <ele>829.75999999999999</ele>
        <time>2025-04-25T07:55:09Z</time>
      </trkpt>
      <trkpt lat="44.977305997163057" lon="3.179560974240303">
        <ele>828.78999999999996</ele>
        <time>2025-04-25T07:55:10Z</time>
      </trkpt>
      <trkpt lat="44.977299040183425" lon="3.179413033649325">
        <ele>827.83000000000004</ele>
        <time>2025-04-25T07:55:11Z</time>
      </trkpt>
      <trkpt lat="44.977324018254876" lon="3.179258974269033">
        <ele>827.35000000000002</ele>
        <time>2025-04-25T07:55:12Z</time>
      </trkpt>
      <trkpt lat="44.977346984669566" lon="3.179126037284732">
        <ele>826.38999999999999</ele>
        <time>2025-04-25T07:55:13Z</time>
      </trkpt>
      <trkpt lat="44.977369029074907" lon="3.178996033966541">
        <ele>825.90999999999997</ele>
        <time>2025-04-25T07:55:14Z</time>
      </trkpt>
      <trkpt lat="44.977372968569398" lon="3.178870975971222">
        <ele>824.95000000000005</ele>
        <time>2025-04-25T07:55:15Z</time>
      </trkpt>
      <trkpt lat="44.977341033518314" lon="3.178761005401611">
        <ele>824.47000000000003</ele>
        <time>2025-04-25T07:55:16Z</time>
      </trkpt>
      <trkpt lat="44.977276995778084" lon="3.178642988204956">
        <ele>823.50999999999999</ele>
        <time>2025-04-25T07:55:17Z</time>
      </trkpt>
      <trkpt lat="44.977216981351376" lon="3.178532011806965">
        <ele>822.05999999999995</ele>
        <time>2025-04-25T07:55:18Z</time>
      </trkpt>
      <trkpt lat="44.977155039086938" lon="3.178418017923832">
        <ele>821.10000000000002</ele>
        <time>2025-04-25T07:55:19Z</time>
      </trkpt>
      <trkpt lat="44.97709795832634" lon="3.178311986848712">
        <ele>820.13999999999999</ele>
        <time>2025-04-25T07:55:20Z</time>
      </trkpt>
      <trkpt lat="44.97705596499145" lon="3.178193969652057">
        <ele>819.17999999999995</ele>
        <time>2025-04-25T07:55:21Z</time>
      </trkpt>
      <trkpt lat="44.977040961384773" lon="3.178052986040711">
        <ele>818.22000000000003</ele>
        <time>2025-04-25T07:55:22Z</time>
      </trkpt>
      <trkpt lat="44.977040961384773" lon="3.177893981337547">
        <ele>817.25999999999999</ele>
        <time>2025-04-25T07:55:23Z</time>
      </trkpt>
      <trkpt lat="44.977040961384773" lon="3.177731959149241">
        <ele>816.77999999999997</ele>
        <time>2025-04-25T07:55:24Z</time>
      </trkpt>
      <trkpt lat="44.977023024111986" lon="3.177418978884816">
        <ele>815.34000000000003</ele>
        <time>2025-04-25T07:55:26Z</time>
      </trkpt>
      <trkpt lat="44.9769670329988" lon="3.177268020808697">
        <ele>814.85000000000002</ele>
        <time>2025-04-25T07:55:27Z</time>
      </trkpt>
      <trkpt lat="44.976905006915331" lon="3.177127037197352">
        <ele>813.88999999999999</ele>
        <time>2025-04-25T07:55:28Z</time>
      </trkpt>
      <trkpt lat="44.97675103135407" lon="3.176897037774324">
        <ele>812.92999999999995</ele>
        <time>2025-04-25T07:55:30Z</time>
      </trkpt>
      <trkpt lat="44.97666603885591" lon="3.176808021962643">
        <ele>812.45000000000005</ele>
        <time>2025-04-25T07:55:31Z</time>
      </trkpt>
      <trkpt lat="44.976585991680622" lon="3.176750019192696">
        <ele>811.97000000000003</ele>
        <time>2025-04-25T07:55:32Z</time>
      </trkpt>
      <trkpt lat="44.976498987525702" lon="3.176590008661151">
        <ele>810.04999999999995</ele>
        <time>2025-04-25T07:55:34Z</time>
      </trkpt>
      <trkpt lat="44.976490018889308" lon="3.17650300450623">
        <ele>809.57000000000005</ele>
        <time>2025-04-25T07:55:35Z</time>
      </trkpt>
      <trkpt lat="44.976466968655586" lon="3.176298988983035">
        <ele>808.13</ele>
        <time>2025-04-25T07:55:37Z</time>
      </trkpt>
      <trkpt lat="44.976447019726038" lon="3.176192035898566">
        <ele>807.15999999999997</ele>
        <time>2025-04-25T07:55:38Z</time>
      </trkpt>
      <trkpt lat="44.976418018341064" lon="3.176077036187053">
        <ele>806.67999999999995</ele>
        <time>2025-04-25T07:55:39Z</time>
      </trkpt>
      <trkpt lat="44.976321961730719" lon="3.175691971555352">
        <ele>804.27999999999997</ele>
        <time>2025-04-25T07:55:42Z</time>
      </trkpt>
      <trkpt lat="44.976250967010856" lon="3.175407992675901">
        <ele>802.36000000000001</ele>
        <time>2025-04-25T07:55:44Z</time>
      </trkpt>
      <trkpt lat="44.976212996989489" lon="3.175258040428162">
        <ele>801.39999999999998</ele>
        <time>2025-04-25T07:55:45Z</time>
      </trkpt>
      <trkpt lat="44.976136973127723" lon="3.174951011314988">
        <ele>799.47000000000003</ele>
        <time>2025-04-25T07:55:47Z</time>
      </trkpt>
      <trkpt lat="44.976118030026555" lon="3.174778008833528">
        <ele>798.50999999999999</ele>
        <time>2025-04-25T07:55:48Z</time>
      </trkpt>
      <trkpt lat="44.976118030026555" lon="3.174599977210164">
        <ele>797.54999999999995</ele>
        <time>2025-04-25T07:55:49Z</time>
      </trkpt>
      <trkpt lat="44.976118030026555" lon="3.17441800609231">
        <ele>796.59000000000003</ele>
        <time>2025-04-25T07:55:50Z</time>
      </trkpt>
      <trkpt lat="44.976125992834568" lon="3.174241986125708">
        <ele>795.63</ele>
        <time>2025-04-25T07:55:51Z</time>
      </trkpt>
      <trkpt lat="44.976161029189825" lon="3.174090022221208">
        <ele>795.14999999999998</ele>
        <time>2025-04-25T07:55:52Z</time>
      </trkpt>
      <trkpt lat="44.976206962019205" lon="3.173963036388159">
        <ele>794.66999999999996</ele>
        <time>2025-04-25T07:55:53Z</time>
      </trkpt>
      <trkpt lat="44.976275023072958" lon="3.173867985606194">
        <ele>793.71000000000004</ele>
        <time>2025-04-25T07:55:54Z</time>
      </trkpt>
      <trkpt lat="44.976364960893989" lon="3.173829009756446">
        <ele>793.22000000000003</ele>
        <time>2025-04-25T07:55:55Z</time>
      </trkpt>
      <trkpt lat="44.976469986140728" lon="3.173809982836247">
        <ele>792.74000000000001</ele>
        <time>2025-04-25T07:55:56Z</time>
      </trkpt>
      <trkpt lat="44.976562019437551" lon="3.173890030011535">
        <ele>792.25999999999999</ele>
        <time>2025-04-25T07:55:57Z</time>
      </trkpt>
      <trkpt lat="44.976639971137047" lon="3.174002012237907">
        <ele>791.77999999999997</ele>
        <time>2025-04-25T07:55:58Z</time>
      </trkpt>
      <trkpt lat="44.976722029969096" lon="3.174120029434562">
        <ele>790.82000000000005</ele>
        <time>2025-04-25T07:55:59Z</time>
      </trkpt>
      <trkpt lat="44.976805010810494" lon="3.174239974468947">
        <ele>790.34000000000003</ele>
        <time>2025-04-25T07:56:00Z</time>
      </trkpt>
      <trkpt lat="44.976886985823512" lon="3.174357991665602">
        <ele>789.38</ele>
        <time>2025-04-25T07:56:01Z</time>
      </trkpt>
      <trkpt lat="44.976976001635194" lon="3.174417000263929">
        <ele>788.89999999999998</ele>
        <time>2025-04-25T07:56:02Z</time>
      </trkpt>
      <trkpt lat="44.977069040760398" lon="3.174477014690638">
        <ele>787.94000000000005</ele>
        <time>2025-04-25T07:56:03Z</time>
      </trkpt>
      <trkpt lat="44.977190997451544" lon="3.174554966390133">
        <ele>787.94000000000005</ele>
        <time>2025-04-25T07:56:04Z</time>
      </trkpt>
      <trkpt lat="44.977278001606464" lon="3.174541974440217">
        <ele>787.46000000000004</ele>
        <time>2025-04-25T07:56:05Z</time>
      </trkpt>
      <trkpt lat="44.977402975782752" lon="3.174522025510669">
        <ele>786.98000000000002</ele>
        <time>2025-04-25T07:56:06Z</time>
      </trkpt>
      <trkpt lat="44.977527027949691" lon="3.174501992762089">
        <ele>786.01999999999998</ele>
        <time>2025-04-25T07:56:07Z</time>
      </trkpt>
      <trkpt lat="44.977652002125978" lon="3.174464022740722">
        <ele>785.04999999999995</ele>
        <time>2025-04-25T07:56:08Z</time>
      </trkpt>
      <trkpt lat="44.978286009281874" lon="3.174137966707349">
        <ele>779.28999999999996</ele>
        <time>2025-04-25T07:56:14Z</time>
      </trkpt>
      <trkpt lat="44.97838499955833" lon="3.174124974757433">
        <ele>778.32000000000005</ele>
        <time>2025-04-25T07:56:15Z</time>
      </trkpt>
      <trkpt lat="44.978479966521263" lon="3.174177026376128">
        <ele>777.36000000000001</ele>
        <time>2025-04-25T07:56:16Z</time>
      </trkpt>
      <trkpt lat="44.978562025353312" lon="3.174240980297327">
        <ele>776.39999999999998</ele>
        <time>2025-04-25T07:56:17Z</time>
      </trkpt>
      <trkpt lat="44.978626985102892" lon="3.174341982230544">
        <ele>775.44000000000005</ele>
        <time>2025-04-25T07:56:18Z</time>
      </trkpt>
      <trkpt lat="44.978694962337613" lon="3.174446001648903">
        <ele>774.48000000000002</ele>
        <time>2025-04-25T07:56:19Z</time>
      </trkpt>
      <trkpt lat="44.978846004232764" lon="3.174648005515337">
        <ele>772.08000000000004</ele>
        <time>2025-04-25T07:56:21Z</time>
      </trkpt>
      <trkpt lat="44.978930996730924" lon="3.174672983586788">
        <ele>770.63</ele>
        <time>2025-04-25T07:56:22Z</time>
      </trkpt>
      <trkpt lat="44.979014983400702" lon="3.174697039648891">
        <ele>769.66999999999996</ele>
        <time>2025-04-25T07:56:23Z</time>
      </trkpt>
      <trkpt lat="44.979294016957283" lon="3.174779014661908">
        <ele>766.78999999999996</ele>
        <time>2025-04-25T07:56:26Z</time>
      </trkpt>
      <trkpt lat="44.979378003627062" lon="3.174766022711992">
        <ele>765.83000000000004</ele>
        <time>2025-04-25T07:56:27Z</time>
      </trkpt>
      <trkpt lat="44.979467019438744" lon="3.174711037427187">
        <ele>764.87</ele>
        <time>2025-04-25T07:56:28Z</time>
      </trkpt>
      <trkpt lat="44.979557963088155" lon="3.174654962494969">
        <ele>763.41999999999996</ele>
        <time>2025-04-25T07:56:29Z</time>
      </trkpt>
      <trkpt lat="44.979639016091824" lon="3.174561001360416">
        <ele>761.98000000000002</ele>
        <time>2025-04-25T07:56:30Z</time>
      </trkpt>
      <trkpt lat="44.979689978063107" lon="3.174433009698987">
        <ele>760.53999999999996</ele>
        <time>2025-04-25T07:56:31Z</time>
      </trkpt>
      <trkpt lat="44.979741023853421" lon="3.174307029694319">
        <ele>759.10000000000002</ele>
        <time>2025-04-25T07:56:32Z</time>
      </trkpt>
      <trkpt lat="44.979790979996324" lon="3.174184989184141">
        <ele>757.65999999999997</ele>
        <time>2025-04-25T07:56:33Z</time>
      </trkpt>
      <trkpt lat="44.979862980544567" lon="3.174093039706349">
        <ele>756.69000000000005</ele>
        <time>2025-04-25T07:56:34Z</time>
      </trkpt>
      <trkpt lat="44.979949984699488" lon="3.173995977267623">
        <ele>756.21000000000004</ele>
        <time>2025-04-25T07:56:35Z</time>
      </trkpt>
      <trkpt lat="44.980056015774608" lon="3.173981979489327">
        <ele>755.25</ele>
        <time>2025-04-25T07:56:36Z</time>
      </trkpt>
      <trkpt lat="44.980160035192966" lon="3.173968987539411">
        <ele>754.76999999999998</ele>
        <time>2025-04-25T07:56:37Z</time>
      </trkpt>
      <trkpt lat="44.980603018775582" lon="3.173911990597844">
        <ele>751.88999999999999</ele>
        <time>2025-04-25T07:56:41Z</time>
      </trkpt>
      <trkpt lat="44.980625985190272" lon="3.173888018354774">
        <ele>751.40999999999997</ele>
        <time>2025-04-25T07:56:42Z</time>
      </trkpt>
      <trkpt lat="44.98066496104002" lon="3.173774024471641">
        <ele>750.92999999999995</ele>
        <time>2025-04-25T07:56:43Z</time>
      </trkpt>
      <trkpt lat="44.980638977140188" lon="3.173663970082998">
        <ele>750.45000000000005</ele>
        <time>2025-04-25T07:56:44Z</time>
      </trkpt>
      <trkpt lat="44.980586003512144" lon="3.173595992848277">
        <ele>749.97000000000003</ele>
        <time>2025-04-25T07:56:45Z</time>
      </trkpt>
      <trkpt lat="44.980521965771914" lon="3.173570008948445">
        <ele>749.49000000000001</ele>
        <time>2025-04-25T07:56:46Z</time>
      </trkpt>
      <trkpt lat="44.98044703155756" lon="3.173561962321401">
        <ele>749</ele>
        <time>2025-04-25T07:56:47Z</time>
      </trkpt>
      <trkpt lat="44.980360027402639" lon="3.173553999513388">
        <ele>749</ele>
        <time>2025-04-25T07:56:48Z</time>
      </trkpt>
      <trkpt lat="44.980271011590958" lon="3.173546036705375">
        <ele>749</ele>
        <time>2025-04-25T07:56:49Z</time>
      </trkpt>
      <trkpt lat="44.980185013264418" lon="3.173538995906711">
        <ele>748.51999999999998</ele>
        <time>2025-04-25T07:56:51Z</time>
      </trkpt>
      <trkpt lat="44.979324024170637" lon="3.173461966216564">
        <ele>747.08000000000004</ele>
        <time>2025-04-25T07:56:59Z</time>
      </trkpt>
      <trkpt lat="44.979239031672478" lon="3.173394994810224">
        <ele>747.08000000000004</ele>
        <time>2025-04-25T07:57:00Z</time>
      </trkpt>
      <trkpt lat="44.979143980890512" lon="3.173311008140445">
        <ele>747.08000000000004</ele>
        <time>2025-04-25T07:57:01Z</time>
      </trkpt>
      <trkpt lat="44.979082038626075" lon="3.173221992328763">
        <ele>747.08000000000004</ele>
        <time>2025-04-25T07:57:02Z</time>
      </trkpt>
      <trkpt lat="44.97901096008718" lon="3.173118978738785">
        <ele>747.08000000000004</ele>
        <time>2025-04-25T07:57:03Z</time>
      </trkpt>
      <trkpt lat="44.978683982044458" lon="3.172685969620943">
        <ele>747.08000000000004</ele>
        <time>2025-04-25T07:57:07Z</time>
      </trkpt>
      <trkpt lat="44.978590020909905" lon="3.172600977122784">
        <ele>747.08000000000004</ele>
        <time>2025-04-25T07:57:08Z</time>
      </trkpt>
      <trkpt lat="44.978395979851484" lon="3.172480026260018">
        <ele>746.60000000000002</ele>
        <time>2025-04-25T07:57:10Z</time>
      </trkpt>
      <trkpt lat="44.978293972089887" lon="3.172433003783226">
        <ele>746.60000000000002</ele>
        <time>2025-04-25T07:57:11Z</time>
      </trkpt>
      <trkpt lat="44.978191964328289" lon="3.172407019883394">
        <ele>746.12</ele>
        <time>2025-04-25T07:57:12Z</time>
      </trkpt>
      <trkpt lat="44.978086017072201" lon="3.172401990741491">
        <ele>746.12</ele>
        <time>2025-04-25T07:57:13Z</time>
      </trkpt>
      <trkpt lat="44.977980991825461" lon="3.172396961599588">
        <ele>745.63999999999999</ele>
        <time>2025-04-25T07:57:14Z</time>
      </trkpt>
      <trkpt lat="44.977796003222466" lon="3.172387992963195">
        <ele>745.15999999999997</ele>
        <time>2025-04-25T07:57:16Z</time>
      </trkpt>
      <trkpt lat="44.97774001210928" lon="3.172304006293416">
        <ele>744.67999999999995</ele>
        <time>2025-04-25T07:57:17Z</time>
      </trkpt>
      <trkpt lat="44.977685026824474" lon="3.172214990481734">
        <ele>744.67999999999995</ele>
        <time>2025-04-25T07:57:18Z</time>
      </trkpt>
      <trkpt lat="44.977625012397766" lon="3.17211901769042">
        <ele>744.20000000000005</ele>
        <time>2025-04-25T07:57:19Z</time>
      </trkpt>
      <trkpt lat="44.977564997971058" lon="3.172021033242345">
        <ele>744.20000000000005</ele>
        <time>2025-04-25T07:57:20Z</time>
      </trkpt>
      <trkpt lat="44.977502971887589" lon="3.171931011602283">
        <ele>743.72000000000003</ele>
        <time>2025-04-25T07:57:21Z</time>
      </trkpt>
      <trkpt lat="44.977414039894938" lon="3.171874014660716">
        <ele>743.24000000000001</ele>
        <time>2025-04-25T07:57:22Z</time>
      </trkpt>
      <trkpt lat="44.977215975522995" lon="3.171748034656048">
        <ele>742.27999999999997</ele>
        <time>2025-04-25T07:57:24Z</time>
      </trkpt>
      <trkpt lat="44.977114973589778" lon="3.171685002744198">
        <ele>741.78999999999996</ele>
        <time>2025-04-25T07:57:25Z</time>
      </trkpt>
      <trkpt lat="44.977006008848548" lon="3.171640997752547">
        <ele>741.78999999999996</ele>
        <time>2025-04-25T07:57:26Z</time>
      </trkpt>
      <trkpt lat="44.976868964731693" lon="3.171659018844366">
        <ele>741.78999999999996</ele>
        <time>2025-04-25T07:57:27Z</time>
      </trkpt>
      <trkpt lat="44.976798975840211" lon="3.171699000522494">
        <ele>741.30999999999995</ele>
        <time>2025-04-25T07:57:28Z</time>
      </trkpt>
      <trkpt lat="44.976705014705658" lon="3.171752979978919">
        <ele>741.30999999999995</ele>
        <time>2025-04-25T07:57:29Z</time>
      </trkpt>
      <trkpt lat="44.976510973647237" lon="3.171864962205291">
        <ele>740.35000000000002</ele>
        <time>2025-04-25T07:57:31Z</time>
      </trkpt>
      <trkpt lat="44.976411983370781" lon="3.171921959146857">
        <ele>740.35000000000002</ele>
        <time>2025-04-25T07:57:32Z</time>
      </trkpt>
      <trkpt lat="44.976316010579467" lon="3.171978034079075">
        <ele>740.35000000000002</ele>
        <time>2025-04-25T07:57:33Z</time>
      </trkpt>
      <trkpt lat="44.976208973675966" lon="3.171970993280411">
        <ele>740.35000000000002</ele>
        <time>2025-04-25T07:57:34Z</time>
      </trkpt>
      <trkpt lat="44.97610897757113" lon="3.171962024644017">
        <ele>740.35000000000002</ele>
        <time>2025-04-25T07:57:35Z</time>
      </trkpt>
      <trkpt lat="44.976005963981152" lon="3.171952972188592">
        <ele>740.35000000000002</ele>
        <time>2025-04-25T07:57:36Z</time>
      </trkpt>
      <trkpt lat="44.975902028381824" lon="3.171942997723818">
        <ele>740.83000000000004</ele>
        <time>2025-04-25T07:57:37Z</time>
      </trkpt>
      <trkpt lat="44.975795997306705" lon="3.171948026865721">
        <ele>740.83000000000004</ele>
        <time>2025-04-25T07:57:38Z</time>
      </trkpt>
      <trkpt lat="44.975688960403204" lon="3.171975016593933">
        <ele>741.78999999999996</ele>
        <time>2025-04-25T07:57:39Z</time>
      </trkpt>
      <trkpt lat="44.975585024803877" lon="3.172001000493765">
        <ele>742.27999999999997</ele>
        <time>2025-04-25T07:57:40Z</time>
      </trkpt>
      <trkpt lat="44.975479999557137" lon="3.172031007707119">
        <ele>742.75999999999999</ele>
        <time>2025-04-25T07:57:41Z</time>
      </trkpt>
      <trkpt lat="44.975374974310398" lon="3.172080041840673">
        <ele>743.24000000000001</ele>
        <time>2025-04-25T07:57:42Z</time>
      </trkpt>
      <trkpt lat="44.975173976272345" lon="3.172175008803606">
        <ele>744.20000000000005</ele>
        <time>2025-04-25T07:57:44Z</time>
      </trkpt>
      <trkpt lat="44.975090995430946" lon="3.172238962724805">
        <ele>744.67999999999995</ele>
        <time>2025-04-25T07:57:45Z</time>
      </trkpt>
      <trkpt lat="44.974680030718446" lon="3.172710025683045">
        <ele>747.08000000000004</ele>
        <time>2025-04-25T07:57:51Z</time>
      </trkpt>
      <trkpt lat="44.974595960229635" lon="3.172710025683045">
        <ele>747.55999999999995</ele>
        <time>2025-04-25T07:57:52Z</time>
      </trkpt>
      <trkpt lat="44.974529994651675" lon="3.172710025683045">
        <ele>747.55999999999995</ele>
        <time>2025-04-25T07:57:53Z</time>
      </trkpt>
      <trkpt lat="44.974498981609941" lon="3.172688987106085">
        <ele>747.55999999999995</ele>
        <time>2025-04-25T07:57:54Z</time>
      </trkpt>
      <trkpt lat="44.974456988275051" lon="3.172660991549492">
        <ele>747.55999999999995</ele>
        <time>2025-04-25T07:57:55Z</time>
      </trkpt>
      <trkpt lat="44.974402002990246" lon="3.172624027356505">
        <ele>748.03999999999996</ele>
        <time>2025-04-25T07:57:56Z</time>
      </trkpt>
      <trkpt lat="44.974379958584905" lon="3.172606006264687">
        <ele>748.03999999999996</ele>
        <time>2025-04-25T07:57:57Z</time>
      </trkpt>
      <trkpt lat="44.974351041018963" lon="3.172582034021616">
        <ele>748.03999999999996</ele>
        <time>2025-04-25T07:57:58Z</time>
      </trkpt>
      <trkpt lat="44.974331008270383" lon="3.172566024586558">
        <ele>748.03999999999996</ele>
        <time>2025-04-25T07:57:59Z</time>
      </trkpt>
      <trkpt lat="44.974310975521803" lon="3.17254900932312">
        <ele>747.55999999999995</ele>
        <time>2025-04-25T07:58:00Z</time>
      </trkpt>
      <trkpt lat="44.974310975521803" lon="3.17254900932312">
        <ele>747.55999999999995</ele>
        <time>2025-04-25T07:58:09Z</time>
      </trkpt>
      <trkpt lat="44.974310975521803" lon="3.17254900932312">
        <ele>747.55999999999995</ele>
        <time>2025-04-25T07:58:41Z</time>
      </trkpt>
      <trkpt lat="44.974310975521803" lon="3.17254900932312">
        <ele>748.03999999999996</ele>
        <time>2025-04-25T07:59:45Z</time>
      </trkpt>
      <trkpt lat="44.974310975521803" lon="3.17254900932312">
        <ele>749.49000000000001</ele>
        <time>2025-04-25T08:00:08Z</time>
      </trkpt>
      <trkpt lat="44.97428297996521" lon="3.172525959089398">
        <ele>749.49000000000001</ele>
        <time>2025-04-25T08:00:16Z</time>
      </trkpt>
      <trkpt lat="44.974273005500436" lon="3.172516990453005">
        <ele>749.49000000000001</ele>
        <time>2025-04-25T08:00:17Z</time>
      </trkpt>
      <trkpt lat="44.974250039085746" lon="3.172559989616275">
        <ele>749.97000000000003</ele>
        <time>2025-04-25T08:00:18Z</time>
      </trkpt>
      <trkpt lat="44.973710998892784" lon="3.17336599342525">
        <ele>749.97000000000003</ele>
        <time>2025-04-25T08:00:28Z</time>
      </trkpt>
      <trkpt lat="44.973022006452084" lon="3.174300994724035">
        <ele>750.45000000000005</ele>
        <time>2025-04-25T08:00:37Z</time>
      </trkpt>
      <trkpt lat="44.97297003865242" lon="3.174371989443898">
        <ele>750.45000000000005</ele>
        <time>2025-04-25T08:00:38Z</time>
      </trkpt>
      <trkpt lat="44.972932990640402" lon="3.174424041062594">
        <ele>750.45000000000005</ele>
        <time>2025-04-25T08:00:39Z</time>
      </trkpt>
      <trkpt lat="44.972841963171959" lon="3.174367966130376">
        <ele>750.45000000000005</ele>
        <time>2025-04-25T08:00:40Z</time>
      </trkpt>
      <trkpt lat="44.972804998978972" lon="3.174305018037558">
        <ele>750.92999999999995</ele>
        <time>2025-04-25T08:00:41Z</time>
      </trkpt>
      <trkpt lat="44.972769962623715" lon="3.174242991954088">
        <ele>750.92999999999995</ele>
        <time>2025-04-25T08:00:42Z</time>
      </trkpt>
      <trkpt lat="44.972723023965955" lon="3.174161016941071">
        <ele>751.40999999999997</ele>
        <time>2025-04-25T08:00:43Z</time>
      </trkpt>
      <trkpt lat="44.972516996785998" lon="3.173874020576477">
        <ele>750.92999999999995</ele>
        <time>2025-04-25T08:00:46Z</time>
      </trkpt>
      <trkpt lat="44.972441978752613" lon="3.173788022249937">
        <ele>750.45000000000005</ele>
        <time>2025-04-25T08:00:47Z</time>
      </trkpt>
      <trkpt lat="44.972363021224737" lon="3.173696994781494">
        <ele>749.97000000000003</ele>
        <time>2025-04-25T08:00:48Z</time>
      </trkpt>
      <trkpt lat="44.972249027341604" lon="3.173634968698025">
        <ele>749.49000000000001</ele>
        <time>2025-04-25T08:00:49Z</time>
      </trkpt>
      <trkpt lat="44.972139978781343" lon="3.173570008948445">
        <ele>749</ele>
        <time>2025-04-25T08:00:50Z</time>
      </trkpt>
      <trkpt lat="44.972024979069829" lon="3.173503959551454">
        <ele>748.03999999999996</ele>
        <time>2025-04-25T08:00:51Z</time>
      </trkpt>
      <trkpt lat="44.971911991015077" lon="3.173440005630255">
        <ele>747.55999999999995</ele>
        <time>2025-04-25T08:00:52Z</time>
      </trkpt>
      <trkpt lat="44.971830016002059" lon="3.173368005082011">
        <ele>747.08000000000004</ele>
        <time>2025-04-25T08:00:53Z</time>
      </trkpt>
      <trkpt lat="44.971743011847138" lon="3.173290975391865">
        <ele>746.60000000000002</ele>
        <time>2025-04-25T08:00:54Z</time>
      </trkpt>
      <trkpt lat="44.97127203270793" lon="3.17274103872478">
        <ele>745.63999999999999</ele>
        <time>2025-04-25T08:01:00Z</time>
      </trkpt>
      <trkpt lat="44.971269015222788" lon="3.17265403456986">
        <ele>744.67999999999995</ele>
        <time>2025-04-25T08:01:01Z</time>
      </trkpt>
      <trkpt lat="44.971279995515943" lon="3.172554960474372">
        <ele>744.67999999999995</ele>
        <time>2025-04-25T08:01:02Z</time>
      </trkpt>
      <trkpt lat="44.97133900411427" lon="3.172424035146833">
        <ele>744.67999999999995</ele>
        <time>2025-04-25T08:01:03Z</time>
      </trkpt>
      <trkpt lat="44.971409998834133" lon="3.172262012958527">
        <ele>745.15999999999997</ele>
        <time>2025-04-25T08:01:04Z</time>
      </trkpt>
      <trkpt lat="44.971564980223775" lon="3.171915002167225">
        <ele>745.63999999999999</ele>
        <time>2025-04-25T08:01:06Z</time>
      </trkpt>
      <trkpt lat="44.971630023792386" lon="3.171719033271074">
        <ele>745.63999999999999</ele>
        <time>2025-04-25T08:01:07Z</time>
      </trkpt>
      <trkpt lat="44.971714010462165" lon="3.171298010274768">
        <ele>746.12</ele>
        <time>2025-04-25T08:01:09Z</time>
      </trkpt>
      <trkpt lat="44.9718969874084" lon="3.169324994087219">
        <ele>748.51999999999998</ele>
        <time>2025-04-25T08:01:17Z</time>
      </trkpt>
      <trkpt lat="44.971910985186696" lon="3.169097006320953">
        <ele>749</ele>
        <time>2025-04-25T08:01:18Z</time>
      </trkpt>
      <trkpt lat="44.971905034035444" lon="3.168867006897926">
        <ele>749.49000000000001</ele>
        <time>2025-04-25T08:01:19Z</time>
      </trkpt>
      <trkpt lat="44.971893969923258" lon="3.168431986123323">
        <ele>749.97000000000003</ele>
        <time>2025-04-25T08:01:21Z</time>
      </trkpt>
      <trkpt lat="44.971908973529935" lon="3.168238028883934">
        <ele>749.97000000000003</ele>
        <time>2025-04-25T08:01:22Z</time>
      </trkpt>
      <trkpt lat="44.971980974078178" lon="3.168071983382106">
        <ele>749.97000000000003</ele>
        <time>2025-04-25T08:01:23Z</time>
      </trkpt>
      <trkpt lat="44.972088010981679" lon="3.167921025305986">
        <ele>749.97000000000003</ele>
        <time>2025-04-25T08:01:24Z</time>
      </trkpt>
      <trkpt lat="44.97219798155129" lon="3.167764032259584">
        <ele>749.97000000000003</ele>
        <time>2025-04-25T08:01:25Z</time>
      </trkpt>
      <trkpt lat="44.972299989312887" lon="3.167619025334716">
        <ele>749.97000000000003</ele>
        <time>2025-04-25T08:01:26Z</time>
      </trkpt>
      <trkpt lat="44.972371989861131" lon="3.167440993711352">
        <ele>749.97000000000003</ele>
        <time>2025-04-25T08:01:27Z</time>
      </trkpt>
      <trkpt lat="44.972432004287839" lon="3.167210994288325">
        <ele>750.45000000000005</ele>
        <time>2025-04-25T08:01:28Z</time>
      </trkpt>
      <trkpt lat="44.973012031987309" lon="3.165092971175909">
        <ele>751.40999999999997</ele>
        <time>2025-04-25T08:01:36Z</time>
      </trkpt>
      <trkpt lat="44.973180005326867" lon="3.164653005078435">
        <ele>751.88999999999999</ele>
        <time>2025-04-25T08:01:38Z</time>
      </trkpt>
      <trkpt lat="44.973278995603323" lon="3.1644700281322">
        <ele>751.88999999999999</ele>
        <time>2025-04-25T08:01:39Z</time>
      </trkpt>
      <trkpt lat="44.973373040556908" lon="3.16429803147912">
        <ele>751.88999999999999</ele>
        <time>2025-04-25T08:01:40Z</time>
      </trkpt>
      <trkpt lat="44.973456021398306" lon="3.164143972098827">
        <ele>751.40999999999997</ele>
        <time>2025-04-25T08:01:41Z</time>
      </trkpt>
      <trkpt lat="44.973505977541208" lon="3.164000976830721">
        <ele>751.40999999999997</ele>
        <time>2025-04-25T08:01:42Z</time>
      </trkpt>
      <trkpt lat="44.973517041653395" lon="3.163879020139575">
        <ele>751.40999999999997</ele>
        <time>2025-04-25T08:01:43Z</time>
      </trkpt>
      <trkpt lat="44.973478987812996" lon="3.163782963529229">
        <ele>751.40999999999997</ele>
        <time>2025-04-25T08:01:44Z</time>
      </trkpt>
      <trkpt lat="44.973424002528191" lon="3.163727978244424">
        <ele>751.40999999999997</ele>
        <time>2025-04-25T08:01:45Z</time>
      </trkpt>
      <trkpt lat="44.973367005586624" lon="3.163678022101522">
        <ele>751.40999999999997</ele>
        <time>2025-04-25T08:01:46Z</time>
      </trkpt>
      <trkpt lat="44.973282013088465" lon="3.163704006001353">
        <ele>751.40999999999997</ele>
        <time>2025-04-25T08:01:47Z</time>
      </trkpt>
      <trkpt lat="44.973169025033712" lon="3.163738958537579">
        <ele>751.40999999999997</ele>
        <time>2025-04-25T08:01:48Z</time>
      </trkpt>
      <trkpt lat="44.973037010058761" lon="3.1637810356915">
        <ele>751.40999999999997</ele>
        <time>2025-04-25T08:01:49Z</time>
      </trkpt>
      <trkpt lat="44.9725859798491" lon="3.164097033441067">
        <ele>750.92999999999995</ele>
        <time>2025-04-25T08:01:52Z</time>
      </trkpt>
      <trkpt lat="44.972120029851794" lon="3.164506992325187">
        <ele>749.49000000000001</ele>
        <time>2025-04-25T08:01:55Z</time>
      </trkpt>
      <trkpt lat="44.971984997391701" lon="3.164560971781611">
        <ele>749</ele>
        <time>2025-04-25T08:01:56Z</time>
      </trkpt>
      <trkpt lat="44.971836972981691" lon="3.164576981216669">
        <ele>749</ele>
        <time>2025-04-25T08:01:57Z</time>
      </trkpt>
      <trkpt lat="44.971689032390714" lon="3.164515038952231">
        <ele>748.51999999999998</ele>
        <time>2025-04-25T08:01:58Z</time>
      </trkpt>
      <trkpt lat="44.971527010202408" lon="3.16440599039197">
        <ele>748.51999999999998</ele>
        <time>2025-04-25T08:01:59Z</time>
      </trkpt>
      <trkpt lat="44.971362976357341" lon="3.164275987073779">
        <ele>748.03999999999996</ele>
        <time>2025-04-25T08:02:00Z</time>
      </trkpt>
      <trkpt lat="44.971058964729309" lon="3.164031989872456">
        <ele>748.03999999999996</ele>
        <time>2025-04-25T08:02:02Z</time>
      </trkpt>
      <trkpt lat="44.970925021916628" lon="3.163970969617367">
        <ele>748.03999999999996</ele>
        <time>2025-04-25T08:02:03Z</time>
      </trkpt>
      <trkpt lat="44.970784038305283" lon="3.163957977667451">
        <ele>747.55999999999995</ele>
        <time>2025-04-25T08:02:04Z</time>
      </trkpt>
      <trkpt lat="44.970628973096609" lon="3.16399703733623">
        <ele>747.55999999999995</ele>
        <time>2025-04-25T08:02:05Z</time>
      </trkpt>
      <trkpt lat="44.970481032505631" lon="3.164079012349248">
        <ele>747.08000000000004</ele>
        <time>2025-04-25T08:02:06Z</time>
      </trkpt>
      <trkpt lat="44.970343988388777" lon="3.164182025939226">
        <ele>747.08000000000004</ele>
        <time>2025-04-25T08:02:07Z</time>
      </trkpt>
      <trkpt lat="44.970233011990786" lon="3.164310017600656">
        <ele>747.08000000000004</ele>
        <time>2025-04-25T08:02:08Z</time>
      </trkpt>
      <trkpt lat="44.970172997564077" lon="3.164468016475439">
        <ele>747.08000000000004</ele>
        <time>2025-04-25T08:02:09Z</time>
      </trkpt>
      <trkpt lat="44.970136033371091" lon="3.164643030613661">
        <ele>746.60000000000002</ele>
        <time>2025-04-25T08:02:10Z</time>
      </trkpt>
      <trkpt lat="44.970109965652227" lon="3.164820978417993">
        <ele>746.60000000000002</ele>
        <time>2025-04-25T08:02:11Z</time>
      </trkpt>
      <trkpt lat="44.970034025609493" lon="3.1653300113976">
        <ele>746.12</ele>
        <time>2025-04-25T08:02:14Z</time>
      </trkpt>
      <trkpt lat="44.969980968162417" lon="3.165435958653688">
        <ele>745.63999999999999</ele>
        <time>2025-04-25T08:02:15Z</time>
      </trkpt>
      <trkpt lat="44.969884995371103" lon="3.165493961423636">
        <ele>745.63999999999999</ele>
        <time>2025-04-25T08:02:16Z</time>
      </trkpt>
      <trkpt lat="44.969804026186466" lon="3.16548096947372">
        <ele>745.63999999999999</ele>
        <time>2025-04-25T08:02:17Z</time>
      </trkpt>
      <trkpt lat="44.96970796957612" lon="3.165454985573888">
        <ele>746.12</ele>
        <time>2025-04-25T08:02:18Z</time>
      </trkpt>
      <trkpt lat="44.969601016491652" lon="3.165405029430986">
        <ele>746.60000000000002</ele>
        <time>2025-04-25T08:02:19Z</time>
      </trkpt>
      <trkpt lat="44.968798030167818" lon="3.16466398537159">
        <ele>747.55999999999995</ele>
        <time>2025-04-25T08:02:25Z</time>
      </trkpt>
      <trkpt lat="44.968173997476697" lon="3.164184959605336">
        <ele>749</ele>
        <time>2025-04-25T08:02:29Z</time>
      </trkpt>
      <trkpt lat="44.967985991388559" lon="3.16410499624908">
        <ele>749</ele>
        <time>2025-04-25T08:02:30Z</time>
      </trkpt>
      <trkpt lat="44.96781500056386" lon="3.164098961278796">
        <ele>749.49000000000001</ele>
        <time>2025-04-25T08:02:31Z</time>
      </trkpt>
      <trkpt lat="44.966170974075794" lon="3.164031989872456">
        <ele>752.37</ele>
        <time>2025-04-25T08:02:39Z</time>
      </trkpt>
      <trkpt lat="44.965779036283493" lon="3.164043975993991">
        <ele>752.85000000000002</ele>
        <time>2025-04-25T08:02:41Z</time>
      </trkpt>
      <trkpt lat="44.965589018538594" lon="3.164100972935557">
        <ele>753.33000000000004</ele>
        <time>2025-04-25T08:02:42Z</time>
      </trkpt>
      <trkpt lat="44.965391959995031" lon="3.164159981533885">
        <ele>753.80999999999995</ele>
        <time>2025-04-25T08:02:43Z</time>
      </trkpt>
      <trkpt lat="44.964821990579367" lon="3.164329966530204">
        <ele>754.76999999999998</ele>
        <time>2025-04-25T08:02:46Z</time>
      </trkpt>
      <trkpt lat="44.964638007804751" lon="3.16438402980566">
        <ele>755.25</ele>
        <time>2025-04-25T08:02:47Z</time>
      </trkpt>
      <trkpt lat="44.964528037235141" lon="3.164325021207333">
        <ele>755.73000000000002</ele>
        <time>2025-04-25T08:02:48Z</time>
      </trkpt>
      <trkpt lat="44.964358974248171" lon="3.16423399373889">
        <ele>755.73000000000002</ele>
        <time>2025-04-25T08:02:49Z</time>
      </trkpt>
      <trkpt lat="44.964281022548676" lon="3.16410499624908">
        <ele>756.21000000000004</ele>
        <time>2025-04-25T08:02:50Z</time>
      </trkpt>
      <trkpt lat="44.964179014787078" lon="3.163937022909522">
        <ele>756.69000000000005</ele>
        <time>2025-04-25T08:02:51Z</time>
      </trkpt>
      <trkpt lat="44.964073989540339" lon="3.163763014599681">
        <ele>757.17999999999995</ele>
        <time>2025-04-25T08:02:52Z</time>
      </trkpt>
      <trkpt lat="44.96396997012198" lon="3.163592023774982">
        <ele>757.17999999999995</ele>
        <time>2025-04-25T08:02:53Z</time>
      </trkpt>
      <trkpt lat="44.963833009824157" lon="3.163467971608043">
        <ele>757.17999999999995</ele>
        <time>2025-04-25T08:02:54Z</time>
      </trkpt>
      <trkpt lat="44.963678028434515" lon="3.16337501630187">
        <ele>757.65999999999997</ele>
        <time>2025-04-25T08:02:55Z</time>
      </trkpt>
      <trkpt lat="44.963493961840868" lon="3.163355989381671">
        <ele>757.65999999999997</ele>
        <time>2025-04-25T08:02:56Z</time>
      </trkpt>
      <trkpt lat="44.963311990723014" lon="3.163393037393689">
        <ele>758.13999999999999</ele>
        <time>2025-04-25T08:02:57Z</time>
      </trkpt>
      <trkpt lat="44.963111998513341" lon="3.163433019071817">
        <ele>758.13999999999999</ele>
        <time>2025-04-25T08:02:58Z</time>
      </trkpt>
      <trkpt lat="44.961656983941793" lon="3.163716997951269">
        <ele>759.58000000000004</ele>
        <time>2025-04-25T08:03:05Z</time>
      </trkpt>
      <trkpt lat="44.961500996723771" lon="3.163707023486495">
        <ele>760.05999999999995</ele>
        <time>2025-04-25T08:03:06Z</time>
      </trkpt>
      <trkpt lat="44.961331011727452" lon="3.163673998787999">
        <ele>761.01999999999998</ele>
        <time>2025-04-25T08:03:07Z</time>
      </trkpt>
      <trkpt lat="44.961225986480713" lon="3.163541983813047">
        <ele>761.98000000000002</ele>
        <time>2025-04-25T08:03:08Z</time>
      </trkpt>
      <trkpt lat="44.961172007024288" lon="3.163426984101534">
        <ele>762.94000000000005</ele>
        <time>2025-04-25T08:03:09Z</time>
      </trkpt>
      <trkpt lat="44.961110986769199" lon="3.163235038518906">
        <ele>763.89999999999998</ele>
        <time>2025-04-25T08:03:10Z</time>
      </trkpt>
      <trkpt lat="44.961092965677381" lon="3.163082990795374">
        <ele>764.87</ele>
        <time>2025-04-25T08:03:11Z</time>
      </trkpt>
      <trkpt lat="44.961074022576213" lon="3.162910994142294">
        <ele>766.30999999999995</ele>
        <time>2025-04-25T08:03:12Z</time>
      </trkpt>
      <trkpt lat="44.96091702952981" lon="3.161551030352712">
        <ele>780.25</ele>
        <time>2025-04-25T08:03:18Z</time>
      </trkpt>
      <trkpt lat="44.960882999002934" lon="3.161273002624512">
        <ele>782.16999999999996</ele>
        <time>2025-04-25T08:03:19Z</time>
      </trkpt>
      <trkpt lat="44.96083396486938" lon="3.161162026226521">
        <ele>784.57000000000005</ele>
        <time>2025-04-25T08:03:20Z</time>
      </trkpt>
      <trkpt lat="44.960731035098433" lon="3.161003021523356">
        <ele>786.98000000000002</ele>
        <time>2025-04-25T08:03:21Z</time>
      </trkpt>
      <trkpt lat="44.960594996809959" lon="3.160892967134714">
        <ele>788.89999999999998</ele>
        <time>2025-04-25T08:03:22Z</time>
      </trkpt>
      <trkpt lat="44.960440015420318" lon="3.160848040133715">
        <ele>790.82000000000005</ele>
        <time>2025-04-25T08:03:23Z</time>
      </trkpt>
      <trkpt lat="44.960283022373915" lon="3.160859020426869">
        <ele>792.74000000000001</ele>
        <time>2025-04-25T08:03:24Z</time>
      </trkpt>
      <trkpt lat="44.960107002407312" lon="3.160872012376785">
        <ele>795.14999999999998</ele>
        <time>2025-04-25T08:03:25Z</time>
      </trkpt>
      <trkpt lat="44.959935005754232" lon="3.160883998498321">
        <ele>796.59000000000003</ele>
        <time>2025-04-25T08:03:26Z</time>
      </trkpt>
      <trkpt lat="44.959777006879449" lon="3.160850973799825">
        <ele>798.02999999999997</ele>
        <time>2025-04-25T08:03:27Z</time>
      </trkpt>
      <trkpt lat="44.959627976641059" lon="3.160772016271949">
        <ele>799.47000000000003</ele>
        <time>2025-04-25T08:03:28Z</time>
      </trkpt>
      <trkpt lat="44.959484981372952" lon="3.160640001296997">
        <ele>800.91999999999996</ele>
        <time>2025-04-25T08:03:29Z</time>
      </trkpt>
      <trkpt lat="44.959350032731891" lon="3.160489965230227">
        <ele>802.36000000000001</ele>
        <time>2025-04-25T08:03:30Z</time>
      </trkpt>
      <trkpt lat="44.959237966686487" lon="3.160291984677315">
        <ele>804.75999999999999</ele>
        <time>2025-04-25T08:03:31Z</time>
      </trkpt>
      <trkpt lat="44.959125984460115" lon="3.160096015781164">
        <ele>806.67999999999995</ele>
        <time>2025-04-25T08:03:32Z</time>
      </trkpt>
      <trkpt lat="44.959009978920221" lon="3.159914966672659">
        <ele>808.61000000000001</ele>
        <time>2025-04-25T08:03:33Z</time>
      </trkpt>
      <trkpt lat="44.958862038329244" lon="3.159769037738442">
        <ele>810.52999999999997</ele>
        <time>2025-04-25T08:03:34Z</time>
      </trkpt>
      <trkpt lat="44.958696998655796" lon="3.159677004441619">
        <ele>811.97000000000003</ele>
        <time>2025-04-25T08:03:35Z</time>
      </trkpt>
      <trkpt lat="44.958509998396039" lon="3.159619001671672">
        <ele>813.40999999999997</ele>
        <time>2025-04-25T08:03:36Z</time>
      </trkpt>
      <trkpt lat="44.958316963165998" lon="3.159566028043628">
        <ele>814.85000000000002</ele>
        <time>2025-04-25T08:03:37Z</time>
      </trkpt>
      <trkpt lat="44.957203008234501" lon="3.15927199088037">
        <ele>824.95000000000005</ele>
        <time>2025-04-25T08:03:44Z</time>
      </trkpt>
      <trkpt lat="44.955908004194498" lon="3.158910982310772">
        <ele>832.63999999999999</ele>
        <time>2025-04-25T08:03:52Z</time>
      </trkpt>
      <trkpt lat="44.954492971301079" lon="3.158101039007306">
        <ele>841.76999999999998</ele>
        <time>2025-04-25T08:03:59Z</time>
      </trkpt>
      <trkpt lat="44.952593967318535" lon="3.157061012461782">
        <ele>848.5</ele>
        <time>2025-04-25T08:04:08Z</time>
      </trkpt>
      <trkpt lat="44.952384000644088" lon="3.156951041892171">
        <ele>848.98000000000002</ele>
        <time>2025-04-25T08:04:09Z</time>
      </trkpt>
      <trkpt lat="44.952175039798021" lon="3.1568200327456">
        <ele>849.94000000000005</ele>
        <time>2025-04-25T08:04:10Z</time>
      </trkpt>
      <trkpt lat="44.951974041759968" lon="3.156642001122236">
        <ele>850.41999999999996</ele>
        <time>2025-04-25T08:04:11Z</time>
      </trkpt>
      <trkpt lat="44.949993984773755" lon="3.155025970190764">
        <ele>859.08000000000004</ele>
        <time>2025-04-25T08:04:20Z</time>
      </trkpt>
      <trkpt lat="44.947391990572214" lon="3.153120009228587">
        <ele>878.29999999999995</ele>
        <time>2025-04-25T08:04:32Z</time>
      </trkpt>
      <trkpt lat="44.944421024993062" lon="3.150758994743228">
        <ele>898.00999999999999</ele>
        <time>2025-04-25T08:04:46Z</time>
      </trkpt>
      <trkpt lat="44.944240981712937" lon="3.150521032512188">
        <ele>898.97000000000003</ele>
        <time>2025-04-25T08:04:47Z</time>
      </trkpt>
      <trkpt lat="44.943376975134015" lon="3.149268021807075">
        <ele>906.17999999999995</ele>
        <time>2025-04-25T08:04:53Z</time>
      </trkpt>
      <trkpt lat="44.94291203096509" lon="3.148547010496259">
        <ele>913.38999999999999</ele>
        <time>2025-04-25T08:05:00Z</time>
      </trkpt>
      <trkpt lat="44.942616987973452" lon="3.148116013035178">
        <ele>915.30999999999995</ele>
        <time>2025-04-25T08:05:05Z</time>
      </trkpt>
      <trkpt lat="44.942531995475292" lon="3.148059016093612">
        <ele>915.78999999999996</ele>
        <time>2025-04-25T08:05:06Z</time>
      </trkpt>
      <trkpt lat="44.942452032119036" lon="3.148030014708638">
        <ele>915.78999999999996</ele>
        <time>2025-04-25T08:05:07Z</time>
      </trkpt>
      <trkpt lat="44.942253967747092" lon="3.148017022758722">
        <ele>917.24000000000001</ele>
        <time>2025-04-25T08:05:09Z</time>
      </trkpt>
      <trkpt lat="44.941489035263658" lon="3.148049963638187">
        <ele>923</ele>
        <time>2025-04-25T08:05:16Z</time>
      </trkpt>
      <trkpt lat="44.941390966996551" lon="3.148037977516651">
        <ele>923.48000000000002</ele>
        <time>2025-04-25T08:05:17Z</time>
      </trkpt>
      <trkpt lat="44.941288037225604" lon="3.148030014708638">
        <ele>923.96000000000004</ele>
        <time>2025-04-25T08:05:18Z</time>
      </trkpt>
      <trkpt lat="44.941181000322104" lon="3.148023979738355">
        <ele>924.45000000000005</ele>
        <time>2025-04-25T08:05:19Z</time>
      </trkpt>
      <trkpt lat="44.941075975075364" lon="3.148018028587103">
        <ele>924.92999999999995</ele>
        <time>2025-04-25T08:05:20Z</time>
      </trkpt>
      <trkpt lat="44.940970027819276" lon="3.148011993616819">
        <ele>925.88999999999999</ele>
        <time>2025-04-25T08:05:21Z</time>
      </trkpt>
      <trkpt lat="44.940882017835975" lon="3.148049041628838">
        <ele>926.37</ele>
        <time>2025-04-25T08:05:22Z</time>
      </trkpt>
      <trkpt lat="44.940784033387899" lon="3.148090029135346">
        <ele>927.33000000000004</ele>
        <time>2025-04-25T08:05:23Z</time>
      </trkpt>
      <trkpt lat="44.940425958484411" lon="3.148239981383085">
        <ele>931.16999999999996</ele>
        <time>2025-04-25T08:05:27Z</time>
      </trkpt>
      <trkpt lat="44.940341971814632" lon="3.148275017738342">
        <ele>932.13999999999999</ele>
        <time>2025-04-25T08:05:28Z</time>
      </trkpt>
      <trkpt lat="44.940048018470407" lon="3.148397980257869">
        <ele>935.98000000000002</ele>
        <time>2025-04-25T08:05:32Z</time>
      </trkpt>
      <trkpt lat="44.940007030963898" lon="3.148365039378405">
        <ele>936.94000000000005</ele>
        <time>2025-04-25T08:05:33Z</time>
      </trkpt>
      <trkpt lat="44.939961014315486" lon="3.148326985538006">
        <ele>937.89999999999998</ele>
        <time>2025-04-25T08:05:34Z</time>
      </trkpt>
      <trkpt lat="44.939919020980597" lon="3.1482910271734">
        <ele>938.86000000000001</ele>
        <time>2025-04-25T08:05:35Z</time>
      </trkpt>
      <trkpt lat="44.939919020980597" lon="3.14824802801013">
        <ele>939.83000000000004</ele>
        <time>2025-04-25T08:05:36Z</time>
      </trkpt>
      <trkpt lat="44.939919020980597" lon="3.148140991106629">
        <ele>940.78999999999996</ele>
        <time>2025-04-25T08:05:37Z</time>
      </trkpt>
      <trkpt lat="44.939956991001964" lon="3.148083994165063">
        <ele>941.75</ele>
        <time>2025-04-25T08:05:38Z</time>
      </trkpt>
      <trkpt lat="44.940017005428672" lon="3.147993972525001">
        <ele>942.23000000000002</ele>
        <time>2025-04-25T08:05:39Z</time>
      </trkpt>
      <trkpt lat="44.940304001793265" lon="3.147531962022185">
        <ele>944.63</ele>
        <time>2025-04-25T08:05:44Z</time>
      </trkpt>
      <trkpt lat="44.940355969592929" lon="3.147446969524026">
        <ele>945.11000000000001</ele>
        <time>2025-04-25T08:05:45Z</time>
      </trkpt>
      <trkpt lat="44.940402992069721" lon="3.147344039753079">
        <ele>946.07000000000005</ele>
        <time>2025-04-25T08:05:46Z</time>
      </trkpt>
      <trkpt lat="44.940497959032655" lon="3.146949000656605">
        <ele>948</ele>
        <time>2025-04-25T08:05:50Z</time>
      </trkpt>
      <trkpt lat="44.940496031194925" lon="3.146714977920055">
        <ele>949.91999999999996</ele>
        <time>2025-04-25T08:05:54Z</time>
      </trkpt>
      <trkpt lat="44.940454959869385" lon="3.146532000973821">
        <ele>951.84000000000003</ele>
        <time>2025-04-25T08:05:59Z</time>
      </trkpt>
      <trkpt lat="44.940397040918469" lon="3.146436028182507">
        <ele>952.32000000000005</ele>
        <time>2025-04-25T08:06:01Z</time>
      </trkpt>
      <trkpt lat="44.940366027876735" lon="3.146384982392192">
        <ele>952.79999999999995</ele>
        <time>2025-04-25T08:06:02Z</time>
      </trkpt>
      <trkpt lat="44.940075008198619" lon="3.146041994914413">
        <ele>953.27999999999997</ele>
        <time>2025-04-25T08:06:08Z</time>
      </trkpt>
      <trkpt lat="44.940003007650375" lon="3.145989021286368">
        <ele>952.79999999999995</ele>
        <time>2025-04-25T08:06:09Z</time>
      </trkpt>
      <trkpt lat="44.939922038465738" lon="3.145932024344802">
        <ele>951.84000000000003</ele>
        <time>2025-04-25T08:06:10Z</time>
      </trkpt>
      <trkpt lat="44.939838973805308" lon="3.145872009918094">
        <ele>950.88</ele>
        <time>2025-04-25T08:06:11Z</time>
      </trkpt>
      <trkpt lat="44.93975599296391" lon="3.145811995491386">
        <ele>949.91999999999996</ele>
        <time>2025-04-25T08:06:12Z</time>
      </trkpt>
      <trkpt lat="44.939682986587286" lon="3.145759021863341">
        <ele>948.96000000000004</ele>
        <time>2025-04-25T08:06:13Z</time>
      </trkpt>
      <trkpt lat="44.939575027674437" lon="3.14571401104331">
        <ele>948.48000000000002</ele>
        <time>2025-04-25T08:06:14Z</time>
      </trkpt>
      <trkpt lat="44.939466984942555" lon="3.145667994394898">
        <ele>948</ele>
        <time>2025-04-25T08:06:15Z</time>
      </trkpt>
      <trkpt lat="44.939356008544564" lon="3.145621977746487">
        <ele>947.51999999999998</ele>
        <time>2025-04-25T08:06:16Z</time>
      </trkpt>
      <trkpt lat="44.938993994146585" lon="3.145512007176876">
        <ele>946.55999999999995</ele>
        <time>2025-04-25T08:06:19Z</time>
      </trkpt>
      <trkpt lat="44.938877988606691" lon="3.145463978871703">
        <ele>946.55999999999995</ele>
        <time>2025-04-25T08:06:20Z</time>
      </trkpt>
      <trkpt lat="44.938768018037081" lon="3.145408993586898">
        <ele>946.55999999999995</ele>
        <time>2025-04-25T08:06:21Z</time>
      </trkpt>
      <trkpt lat="44.93868000805378" lon="3.145325006917119">
        <ele>946.55999999999995</ele>
        <time>2025-04-25T08:06:22Z</time>
      </trkpt>
      <trkpt lat="44.938601972535253" lon="3.145234985277057">
        <ele>946.55999999999995</ele>
        <time>2025-04-25T08:06:23Z</time>
      </trkpt>
      <trkpt lat="44.938527038320899" lon="3.145146975293756">
        <ele>947.03999999999996</ele>
        <time>2025-04-25T08:06:24Z</time>
      </trkpt>
      <trkpt lat="44.938318999484181" lon="3.144769035279751">
        <ele>948</ele>
        <time>2025-04-25T08:06:27Z</time>
      </trkpt>
      <trkpt lat="44.938285974785686" lon="3.144624028354883">
        <ele>948</ele>
        <time>2025-04-25T08:06:28Z</time>
      </trkpt>
      <trkpt lat="44.938260996714234" lon="3.144491007551551">
        <ele>948.48000000000002</ele>
        <time>2025-04-25T08:06:29Z</time>
      </trkpt>
      <trkpt lat="44.938254961743951" lon="3.144358992576599">
        <ele>948.48000000000002</ele>
        <time>2025-04-25T08:06:30Z</time>
      </trkpt>
      <trkpt lat="44.938283041119576" lon="3.144220020622015">
        <ele>948.96000000000004</ele>
        <time>2025-04-25T08:06:31Z</time>
      </trkpt>
      <trkpt lat="44.938322016969323" lon="3.144062021747232">
        <ele>949.44000000000005</ele>
        <time>2025-04-25T08:06:32Z</time>
      </trkpt>
      <trkpt lat="44.938395023345947" lon="3.143921960145235">
        <ele>950.39999999999998</ele>
        <time>2025-04-25T08:06:33Z</time>
      </trkpt>
      <trkpt lat="44.938473980873823" lon="3.143769996240735">
        <ele>950.88</ele>
        <time>2025-04-25T08:06:34Z</time>
      </trkpt>
      <trkpt lat="44.938554028049111" lon="3.143615014851093">
        <ele>951.36000000000001</ele>
        <time>2025-04-25T08:06:35Z</time>
      </trkpt>
      <trkpt lat="44.938613958656788" lon="3.143461961299181">
        <ele>951.84000000000003</ele>
        <time>2025-04-25T08:06:36Z</time>
      </trkpt>
      <trkpt lat="44.938662992790341" lon="3.14328895881772">
        <ele>951.84000000000003</ele>
        <time>2025-04-25T08:06:37Z</time>
      </trkpt>
      <trkpt lat="44.938686965033412" lon="3.143107993528247">
        <ele>952.32000000000005</ele>
        <time>2025-04-25T08:06:38Z</time>
      </trkpt>
      <trkpt lat="44.938712026923895" lon="3.14290196634829">
        <ele>952.32000000000005</ele>
        <time>2025-04-25T08:06:39Z</time>
      </trkpt>
      <trkpt lat="44.938739016652107" lon="3.142712032422423">
        <ele>952.32000000000005</ele>
        <time>2025-04-25T08:06:40Z</time>
      </trkpt>
      <trkpt lat="44.938800958916545" lon="3.142480021342635">
        <ele>952.32000000000005</ele>
        <time>2025-04-25T08:06:41Z</time>
      </trkpt>
      <trkpt lat="44.938858961686492" lon="3.142265025526285">
        <ele>952.79999999999995</ele>
        <time>2025-04-25T08:06:42Z</time>
      </trkpt>
      <trkpt lat="44.938915958628058" lon="3.142052041366696">
        <ele>952.79999999999995</ele>
        <time>2025-04-25T08:06:43Z</time>
      </trkpt>
      <trkpt lat="44.939256012439728" lon="3.141013020649552">
        <ele>955.21000000000004</ele>
        <time>2025-04-25T08:06:49Z</time>
      </trkpt>
      <trkpt lat="44.939320972189307" lon="3.140883017331362">
        <ele>955.69000000000005</ele>
        <time>2025-04-25T08:06:50Z</time>
      </trkpt>
      <trkpt lat="44.939381992444396" lon="3.140759970992804">
        <ele>956.16999999999996</ele>
        <time>2025-04-25T08:06:51Z</time>
      </trkpt>
      <trkpt lat="44.939466984942555" lon="3.140646982938051">
        <ele>956.16999999999996</ele>
        <time>2025-04-25T08:06:52Z</time>
      </trkpt>
      <trkpt lat="44.939554994925857" lon="3.140548998489976">
        <ele>957.13</ele>
        <time>2025-04-25T08:06:53Z</time>
      </trkpt>
      <trkpt lat="44.940157989040017" lon="3.139746012166143">
        <ele>960.00999999999999</ele>
        <time>2025-04-25T08:07:00Z</time>
      </trkpt>
      <trkpt lat="44.940235018730164" lon="3.139591030776501">
        <ele>960.98000000000002</ele>
        <time>2025-04-25T08:07:01Z</time>
      </trkpt>
      <trkpt lat="44.940822003409266" lon="3.137910962104797">
        <ele>963.86000000000001</ele>
        <time>2025-04-25T08:07:09Z</time>
      </trkpt>
      <trkpt lat="44.940849998965859" lon="3.137665959075093">
        <ele>963.86000000000001</ele>
        <time>2025-04-25T08:07:10Z</time>
      </trkpt>
      <trkpt lat="44.940860979259014" lon="3.137434031814337">
        <ele>963.38</ele>
        <time>2025-04-25T08:07:11Z</time>
      </trkpt>
      <trkpt lat="44.940839018672705" lon="3.137220041826367">
        <ele>962.41999999999996</ele>
        <time>2025-04-25T08:07:12Z</time>
      </trkpt>
      <trkpt lat="44.940803982317448" lon="3.136976966634393">
        <ele>961.94000000000005</ele>
        <time>2025-04-25T08:07:13Z</time>
      </trkpt>
      <trkpt lat="44.940727958455682" lon="3.136762976646423">
        <ele>960.98000000000002</ele>
        <time>2025-04-25T08:07:14Z</time>
      </trkpt>
      <trkpt lat="44.940623017027974" lon="3.136544041335583">
        <ele>960.00999999999999</ele>
        <time>2025-04-25T08:07:15Z</time>
      </trkpt>
      <trkpt lat="44.940508017316461" lon="3.136311024427414">
        <ele>958.57000000000005</ele>
        <time>2025-04-25T08:07:16Z</time>
      </trkpt>
      <trkpt lat="44.940387988463044" lon="3.136068033054471">
        <ele>957.61000000000001</ele>
        <time>2025-04-25T08:07:17Z</time>
      </trkpt>
      <trkpt lat="44.939791029319167" lon="3.134861961007118">
        <ele>950.88</ele>
        <time>2025-04-25T08:07:22Z</time>
      </trkpt>
      <trkpt lat="44.939661026000977" lon="3.134687030687928">
        <ele>948.96000000000004</ele>
        <time>2025-04-25T08:07:23Z</time>
      </trkpt>
      <trkpt lat="44.939513001590967" lon="3.134538000449538">
        <ele>947.51999999999998</ele>
        <time>2025-04-25T08:07:24Z</time>
      </trkpt>
      <trkpt lat="44.939360031858087" lon="3.13441202044487">
        <ele>946.07000000000005</ele>
        <time>2025-04-25T08:07:25Z</time>
      </trkpt>
      <trkpt lat="44.939183006063104" lon="3.134343959391117">
        <ele>944.14999999999998</ele>
        <time>2025-04-25T08:07:26Z</time>
      </trkpt>
      <trkpt lat="44.938992988318205" lon="3.134321998804808">
        <ele>941.75</ele>
        <time>2025-04-25T08:07:27Z</time>
      </trkpt>
      <trkpt lat="44.938780004158616" lon="3.134321998804808">
        <ele>940.30999999999995</ele>
        <time>2025-04-25T08:07:28Z</time>
      </trkpt>
      <trkpt lat="44.938557967543602" lon="3.134321998804808">
        <ele>938.38</ele>
        <time>2025-04-25T08:07:29Z</time>
      </trkpt>
      <trkpt lat="44.938136022537947" lon="3.134263996034861">
        <ele>935.01999999999998</ele>
        <time>2025-04-25T08:07:31Z</time>
      </trkpt>
      <trkpt lat="44.93794902227819" lon="3.134179003536701">
        <ele>933.58000000000004</ele>
        <time>2025-04-25T08:07:32Z</time>
      </trkpt>
      <trkpt lat="44.937779037281871" lon="3.134022010490298">
        <ele>931.64999999999998</ele>
        <time>2025-04-25T08:07:33Z</time>
      </trkpt>
      <trkpt lat="44.937618020921946" lon="3.133838027715683">
        <ele>930.21000000000004</ele>
        <time>2025-04-25T08:07:34Z</time>
      </trkpt>
      <trkpt lat="44.93745599873364" lon="3.133625965565443">
        <ele>928.76999999999998</ele>
        <time>2025-04-25T08:07:35Z</time>
      </trkpt>
      <trkpt lat="44.937290037050843" lon="3.133409963920713">
        <ele>926.85000000000002</ele>
        <time>2025-04-25T08:07:36Z</time>
      </trkpt>
      <trkpt lat="44.936634991317987" lon="3.132606977596879">
        <ele>920.60000000000002</ele>
        <time>2025-04-25T08:07:40Z</time>
      </trkpt>
      <trkpt lat="44.936437010765076" lon="3.13245995901525">
        <ele>919.15999999999997</ele>
        <time>2025-04-25T08:07:41Z</time>
      </trkpt>
      <trkpt lat="44.935034969821572" lon="3.131564017385244">
        <ele>908.10000000000002</ele>
        <time>2025-04-25T08:07:48Z</time>
      </trkpt>
      <trkpt lat="44.934841012582183" lon="3.131522024050355">
        <ele>906.65999999999997</ele>
        <time>2025-04-25T08:07:49Z</time>
      </trkpt>
      <trkpt lat="44.934661975130439" lon="3.131548007950187">
        <ele>905.22000000000003</ele>
        <time>2025-04-25T08:07:50Z</time>
      </trkpt>
      <trkpt lat="44.934489978477359" lon="3.131596958264709">
        <ele>903.29999999999995</ele>
        <time>2025-04-25T08:07:51Z</time>
      </trkpt>
      <trkpt lat="44.934316975995898" lon="3.131745988503099">
        <ele>901.85000000000002</ele>
        <time>2025-04-25T08:07:52Z</time>
      </trkpt>
      <trkpt lat="44.934140034019947" lon="3.13189803622663">
        <ele>900.40999999999997</ele>
        <time>2025-04-25T08:07:53Z</time>
      </trkpt>
      <trkpt lat="44.933780031278729" lon="3.132206993177533">
        <ele>897.52999999999997</ele>
        <time>2025-04-25T08:07:55Z</time>
      </trkpt>
      <trkpt lat="44.932904960587621" lon="3.132847035303712">
        <ele>890.79999999999995</ele>
        <time>2025-04-25T08:08:00Z</time>
      </trkpt>
      <trkpt lat="44.932713015004992" lon="3.132906965911388">
        <ele>889.36000000000001</ele>
        <time>2025-04-25T08:08:01Z</time>
      </trkpt>
      <trkpt lat="44.932518973946571" lon="3.132956000044942">
        <ele>887.90999999999997</ele>
        <time>2025-04-25T08:08:02Z</time>
      </trkpt>
      <trkpt lat="44.932331973686814" lon="3.132960023358464">
        <ele>886.95000000000005</ele>
        <time>2025-04-25T08:08:03Z</time>
      </trkpt>
      <trkpt lat="44.932165006175637" lon="3.13292901031673">
        <ele>885.50999999999999</ele>
        <time>2025-04-25T08:08:04Z</time>
      </trkpt>
      <trkpt lat="44.932027962058783" lon="3.132891962304711">
        <ele>884.07000000000005</ele>
        <time>2025-04-25T08:08:05Z</time>
      </trkpt>
      <trkpt lat="44.931909022852778" lon="3.132790038362145">
        <ele>883.11000000000001</ele>
        <time>2025-04-25T08:08:06Z</time>
      </trkpt>
      <trkpt lat="44.931832998991013" lon="3.132655005902052">
        <ele>882.63</ele>
        <time>2025-04-25T08:08:07Z</time>
      </trkpt>
      <trkpt lat="44.931753035634756" lon="3.132496001198888">
        <ele>882.14999999999998</ele>
        <time>2025-04-25T08:08:08Z</time>
      </trkpt>
      <trkpt lat="44.931722022593021" lon="3.132315035909414">
        <ele>881.66999999999996</ele>
        <time>2025-04-25T08:08:09Z</time>
      </trkpt>
      <trkpt lat="44.931722022593021" lon="3.132100962102413">
        <ele>881.66999999999996</ele>
        <time>2025-04-25T08:08:10Z</time>
      </trkpt>
      <trkpt lat="44.931744989007711" lon="3.131896024569869">
        <ele>881.66999999999996</ele>
        <time>2025-04-25T08:08:11Z</time>
      </trkpt>
      <trkpt lat="44.931820007041097" lon="3.1316820345819">
        <ele>881.66999999999996</ele>
        <time>2025-04-25T08:08:12Z</time>
      </trkpt>
      <trkpt lat="44.931900976225734" lon="3.131450023502111">
        <ele>881.66999999999996</ele>
        <time>2025-04-25T08:08:13Z</time>
      </trkpt>
      <trkpt lat="44.932208005338907" lon="3.130467999726534">
        <ele>880.22000000000003</ele>
        <time>2025-04-25T08:08:17Z</time>
      </trkpt>
      <trkpt lat="44.932237006723881" lon="3.13018100336194">
        <ele>880.22000000000003</ele>
        <time>2025-04-25T08:08:18Z</time>
      </trkpt>
      <trkpt lat="44.932201970368624" lon="3.12990297563374">
        <ele>879.74000000000001</ele>
        <time>2025-04-25T08:08:19Z</time>
      </trkpt>
      <trkpt lat="44.93193400092423" lon="3.127355966717005">
        <ele>880.71000000000004</ele>
        <time>2025-04-25T08:08:27Z</time>
      </trkpt>
      <trkpt lat="44.931774996221066" lon="3.125491999089718">
        <ele>884.07000000000005</ele>
        <time>2025-04-25T08:08:33Z</time>
      </trkpt>
      <trkpt lat="44.931710036471486" lon="3.125255964696407">
        <ele>884.54999999999995</ele>
        <time>2025-04-25T08:08:34Z</time>
      </trkpt>
      <trkpt lat="44.931593025103211" lon="3.124837959185243">
        <ele>885.50999999999999</ele>
        <time>2025-04-25T08:08:36Z</time>
      </trkpt>
      <trkpt lat="44.931580033153296" lon="3.124630004167557">
        <ele>885.50999999999999</ele>
        <time>2025-04-25T08:08:37Z</time>
      </trkpt>
      <trkpt lat="44.931599982082844" lon="3.124426994472742">
        <ele>885.99000000000001</ele>
        <time>2025-04-25T08:08:38Z</time>
      </trkpt>
      <trkpt lat="44.931665025651455" lon="3.124219039455056">
        <ele>886.47000000000003</ele>
        <time>2025-04-25T08:08:39Z</time>
      </trkpt>
      <trkpt lat="44.931737026199698" lon="3.123989962041378">
        <ele>887.42999999999995</ele>
        <time>2025-04-25T08:08:40Z</time>
      </trkpt>
      <trkpt lat="44.932259973138571" lon="3.122628992423415">
        <ele>894.15999999999997</ele>
        <time>2025-04-25T08:08:46Z</time>
      </trkpt>
      <trkpt lat="44.932860033586621" lon="3.121147993952036">
        <ele>895.61000000000001</ele>
        <time>2025-04-25T08:08:53Z</time>
      </trkpt>
      <trkpt lat="44.93296698667109" lon="3.120868038386107">
        <ele>896.57000000000005</ele>
        <time>2025-04-25T08:08:55Z</time>
      </trkpt>
      <trkpt lat="44.93296698667109" lon="3.12066201120615">
        <ele>896.57000000000005</ele>
        <time>2025-04-25T08:08:56Z</time>
      </trkpt>
      <trkpt lat="44.93296698667109" lon="3.120508035644889">
        <ele>896.57000000000005</ele>
        <time>2025-04-25T08:08:57Z</time>
      </trkpt>
      <trkpt lat="44.932918036356568" lon="3.120379960164428">
        <ele>896.09000000000003</ele>
        <time>2025-04-25T08:08:58Z</time>
      </trkpt>
      <trkpt lat="44.932840000838041" lon="3.120249034836888">
        <ele>896.09000000000003</ele>
        <time>2025-04-25T08:08:59Z</time>
      </trkpt>
      <trkpt lat="44.932738998904824" lon="3.120123976841569">
        <ele>895.61000000000001</ele>
        <time>2025-04-25T08:09:00Z</time>
      </trkpt>
      <trkpt lat="44.932238012552261" lon="3.119463985785842">
        <ele>891.75999999999999</ele>
        <time>2025-04-25T08:09:05Z</time>
      </trkpt>
      <trkpt lat="44.932053023949265" lon="3.119120998308063">
        <ele>889.36000000000001</ele>
        <time>2025-04-25T08:09:08Z</time>
      </trkpt>
      <trkpt lat="44.932037014514208" lon="3.119022008031607">
        <ele>888.39999999999998</ele>
        <time>2025-04-25T08:09:09Z</time>
      </trkpt>
      <trkpt lat="44.932069033384323" lon="3.118927963078022">
        <ele>887.90999999999997</ele>
        <time>2025-04-25T08:09:10Z</time>
      </trkpt>
      <trkpt lat="44.932102980092168" lon="3.118826039135456">
        <ele>886.95000000000005</ele>
        <time>2025-04-25T08:09:11Z</time>
      </trkpt>
      <trkpt lat="44.932137010619044" lon="3.118722019717097">
        <ele>886.47000000000003</ele>
        <time>2025-04-25T08:09:12Z</time>
      </trkpt>
      <trkpt lat="44.93217003531754" lon="3.118625041097403">
        <ele>885.50999999999999</ele>
        <time>2025-04-25T08:09:13Z</time>
      </trkpt>
      <trkpt lat="44.932182021439075" lon="3.118510963395238">
        <ele>884.54999999999995</ele>
        <time>2025-04-25T08:09:14Z</time>
      </trkpt>
      <trkpt lat="44.93214899674058" lon="3.118397975340486">
        <ele>883.59000000000003</ele>
        <time>2025-04-25T08:09:15Z</time>
      </trkpt>
      <trkpt lat="44.932038020342588" lon="3.118134029209614">
        <ele>882.63</ele>
        <time>2025-04-25T08:09:17Z</time>
      </trkpt>
      <trkpt lat="44.931959984824061" lon="3.118006959557533">
        <ele>881.66999999999996</ele>
        <time>2025-04-25T08:09:18Z</time>
      </trkpt>
      <trkpt lat="44.93187096901238" lon="3.117872010916472">
        <ele>880.71000000000004</ele>
        <time>2025-04-25T08:09:19Z</time>
      </trkpt>
      <trkpt lat="44.931753035634756" lon="3.117759022861719">
        <ele>880.22000000000003</ele>
        <time>2025-04-25T08:09:20Z</time>
      </trkpt>
      <trkpt lat="44.931620014831424" lon="3.117646034806967">
        <ele>878.77999999999997</ele>
        <time>2025-04-25T08:09:21Z</time>
      </trkpt>
      <trkpt lat="44.931342992931604" lon="3.117410000413656">
        <ele>876.86000000000001</ele>
        <time>2025-04-25T08:09:23Z</time>
      </trkpt>
      <trkpt lat="44.931189017370343" lon="3.1173110101372">
        <ele>875.41999999999996</ele>
        <time>2025-04-25T08:09:24Z</time>
      </trkpt>
      <trkpt lat="44.931023977696896" lon="3.117234986275435">
        <ele>874.46000000000004</ele>
        <time>2025-04-25T08:09:25Z</time>
      </trkpt>
      <trkpt lat="44.930857010185719" lon="3.11715804040432">
        <ele>873.00999999999999</ele>
        <time>2025-04-25T08:09:26Z</time>
      </trkpt>
      <trkpt lat="44.930695993825793" lon="3.117065001279116">
        <ele>871.09000000000003</ele>
        <time>2025-04-25T08:09:27Z</time>
      </trkpt>
      <trkpt lat="44.93058199994266" lon="3.116886969655752">
        <ele>869.64999999999998</ele>
        <time>2025-04-25T08:09:28Z</time>
      </trkpt>
      <trkpt lat="44.930483009666204" lon="3.116693012416363">
        <ele>868.69000000000005</ele>
        <time>2025-04-25T08:09:29Z</time>
      </trkpt>
      <trkpt lat="44.930397011339664" lon="3.116467958316207">
        <ele>867.73000000000002</ele>
        <time>2025-04-25T08:09:30Z</time>
      </trkpt>
      <trkpt lat="44.930310007184744" lon="3.11623795889318">
        <ele>866.28999999999996</ele>
        <time>2025-04-25T08:09:31Z</time>
      </trkpt>
      <trkpt lat="44.930112026631832" lon="3.115772008895874">
        <ele>864.84000000000003</ele>
        <time>2025-04-25T08:09:33Z</time>
      </trkpt>
      <trkpt lat="44.929784964770079" lon="3.115145964547992">
        <ele>862.91999999999996</ele>
        <time>2025-04-25T08:09:36Z</time>
      </trkpt>
      <trkpt lat="44.92972201667726" lon="3.114961981773377">
        <ele>862.91999999999996</ele>
        <time>2025-04-25T08:09:37Z</time>
      </trkpt>
      <trkpt lat="44.929557982832193" lon="3.114482033997774">
        <ele>861.48000000000002</ele>
        <time>2025-04-25T08:09:40Z</time>
      </trkpt>
      <trkpt lat="44.929478019475937" lon="3.114357981830835">
        <ele>860.51999999999998</ele>
        <time>2025-04-25T08:09:41Z</time>
      </trkpt>
      <trkpt lat="44.929394032806158" lon="3.114232001826167">
        <ele>859.55999999999995</ele>
        <time>2025-04-25T08:09:42Z</time>
      </trkpt>
      <trkpt lat="44.929232010617852" lon="3.113989010453224">
        <ele>858.11000000000001</ele>
        <time>2025-04-25T08:09:44Z</time>
      </trkpt>
      <trkpt lat="44.929140983149409" lon="3.1139350309968">
        <ele>857.14999999999998</ele>
        <time>2025-04-25T08:09:45Z</time>
      </trkpt>
      <trkpt lat="44.929045010358095" lon="3.113903012126684">
        <ele>856.19000000000005</ele>
        <time>2025-04-25T08:09:46Z</time>
      </trkpt>
      <trkpt lat="44.92894995957613" lon="3.11387199908495">
        <ele>855.23000000000002</ele>
        <time>2025-04-25T08:09:47Z</time>
      </trkpt>
      <trkpt lat="44.928851975128055" lon="3.113838974386454">
        <ele>854.75</ele>
        <time>2025-04-25T08:09:48Z</time>
      </trkpt>
      <trkpt lat="44.928245963528752" lon="3.11363697052002">
        <ele>851.38</ele>
        <time>2025-04-25T08:09:53Z</time>
      </trkpt>
      <trkpt lat="44.928128030151129" lon="3.113549966365099">
        <ele>850.89999999999998</ele>
        <time>2025-04-25T08:09:54Z</time>
      </trkpt>
      <trkpt lat="44.928006995469332" lon="3.113460028544068">
        <ele>850.41999999999996</ele>
        <time>2025-04-25T08:09:55Z</time>
      </trkpt>
      <trkpt lat="44.927579015493393" lon="3.113088961690664">
        <ele>848.5</ele>
        <time>2025-04-25T08:09:59Z</time>
      </trkpt>
      <trkpt lat="44.927493017166853" lon="3.112972034141421">
        <ele>847.53999999999996</ele>
        <time>2025-04-25T08:10:00Z</time>
      </trkpt>
      <trkpt lat="44.926961017772555" lon="3.112254962325096">
        <ele>842.25</ele>
        <time>2025-04-25T08:10:07Z</time>
      </trkpt>
      <trkpt lat="44.926873007789254" lon="3.11219897121191">
        <ele>841.76999999999998</ele>
        <time>2025-04-25T08:10:08Z</time>
      </trkpt>
      <trkpt lat="44.92677703499794" lon="3.112226966768503">
        <ele>840.80999999999995</ele>
        <time>2025-04-25T08:10:09Z</time>
      </trkpt>
      <trkpt lat="44.926678966730833" lon="3.112274995073676">
        <ele>840.33000000000004</ele>
        <time>2025-04-25T08:10:10Z</time>
      </trkpt>
      <trkpt lat="44.926576958969235" lon="3.112351018935442">
        <ele>839.37</ele>
        <time>2025-04-25T08:10:11Z</time>
      </trkpt>
      <trkpt lat="44.926491966471076" lon="3.112461995333433">
        <ele>838.88999999999999</ele>
        <time>2025-04-25T08:10:12Z</time>
      </trkpt>
      <trkpt lat="44.926410997286439" lon="3.112587975338101">
        <ele>837.92999999999995</ele>
        <time>2025-04-25T08:10:13Z</time>
      </trkpt>
      <trkpt lat="44.926329022273421" lon="3.112714039161801">
        <ele>836.96000000000004</ele>
        <time>2025-04-25T08:10:14Z</time>
      </trkpt>
      <trkpt lat="44.926271019503474" lon="3.112852005288005">
        <ele>836</ele>
        <time>2025-04-25T08:10:15Z</time>
      </trkpt>
      <trkpt lat="44.926250986754894" lon="3.112987037748098">
        <ele>834.55999999999995</ele>
        <time>2025-04-25T08:10:16Z</time>
      </trkpt>
      <trkpt lat="44.926250986754894" lon="3.113130033016205">
        <ele>833.12</ele>
        <time>2025-04-25T08:10:17Z</time>
      </trkpt>
      <trkpt lat="44.926292980089784" lon="3.113243021070957">
        <ele>832.15999999999997</ele>
        <time>2025-04-25T08:10:18Z</time>
      </trkpt>
      <trkpt lat="44.926351988688111" lon="3.113381993025541">
        <ele>830.72000000000003</ele>
        <time>2025-04-25T08:10:19Z</time>
      </trkpt>
      <trkpt lat="44.9264130089432" lon="3.113525994122028">
        <ele>829.26999999999998</ele>
        <time>2025-04-25T08:10:20Z</time>
      </trkpt>
      <trkpt lat="44.926473023369908" lon="3.113667983561754">
        <ele>827.83000000000004</ele>
        <time>2025-04-25T08:10:21Z</time>
      </trkpt>
      <trkpt lat="44.926530020311475" lon="3.113802010193467">
        <ele>826.87</ele>
        <time>2025-04-25T08:10:22Z</time>
      </trkpt>
      <trkpt lat="44.926547035574913" lon="3.113977024331689">
        <ele>825.90999999999997</ele>
        <time>2025-04-25T08:10:23Z</time>
      </trkpt>
      <trkpt lat="44.92654200643301" lon="3.114133011549711">
        <ele>824.95000000000005</ele>
        <time>2025-04-25T08:10:24Z</time>
      </trkpt>
      <trkpt lat="44.926536977291107" lon="3.114292016252875">
        <ele>823.99000000000001</ele>
        <time>2025-04-25T08:10:25Z</time>
      </trkpt>
      <trkpt lat="44.926533037796617" lon="3.114448003470898">
        <ele>823.02999999999997</ele>
        <time>2025-04-25T08:10:26Z</time>
      </trkpt>
      <trkpt lat="44.926509987562895" lon="3.115189969539642">
        <ele>818.70000000000005</ele>
        <time>2025-04-25T08:10:31Z</time>
      </trkpt>
      <trkpt lat="44.926525996997952" lon="3.115316033363342">
        <ele>818.22000000000003</ele>
        <time>2025-04-25T08:10:32Z</time>
      </trkpt>
      <trkpt lat="44.926560027524829" lon="3.115446958690882">
        <ele>817.74000000000001</ele>
        <time>2025-04-25T08:10:33Z</time>
      </trkpt>
      <trkpt lat="44.926593974232674" lon="3.115578973665834">
        <ele>816.77999999999997</ele>
        <time>2025-04-25T08:10:34Z</time>
      </trkpt>
      <trkpt lat="44.926633033901453" lon="3.115728003904223">
        <ele>815.82000000000005</ele>
        <time>2025-04-25T08:10:35Z</time>
      </trkpt>
      <trkpt lat="44.926663963124156" lon="3.115888014435768">
        <ele>814.37</ele>
        <time>2025-04-25T08:10:36Z</time>
      </trkpt>
      <trkpt lat="44.926679972559214" lon="3.116039978340268">
        <ele>813.40999999999997</ele>
        <time>2025-04-25T08:10:37Z</time>
      </trkpt>
      <trkpt lat="44.926421977579594" lon="3.117316039279103">
        <ele>806.20000000000005</ele>
        <time>2025-04-25T08:10:44Z</time>
      </trkpt>
      <trkpt lat="44.926250986754894" lon="3.118185997009277">
        <ele>800.44000000000005</ele>
        <time>2025-04-25T08:10:49Z</time>
      </trkpt>
      <trkpt lat="44.926164988428354" lon="3.118271995335817">
        <ele>799.47000000000003</ele>
        <time>2025-04-25T08:10:50Z</time>
      </trkpt>
      <trkpt lat="44.926164988428354" lon="3.118271995335817">
        <ele>798.02999999999997</ele>
        <time>2025-04-25T08:10:51Z</time>
      </trkpt>
      <trkpt lat="44.926001960411668" lon="3.118290016427636">
        <ele>797.07000000000005</ele>
        <time>2025-04-25T08:10:52Z</time>
      </trkpt>
      <trkpt lat="44.925972037017345" lon="3.118293033912778">
        <ele>795.63</ele>
        <time>2025-04-25T08:10:53Z</time>
      </trkpt>
      <trkpt lat="44.925972037017345" lon="3.118293033912778">
        <ele>794.66999999999996</ele>
        <time>2025-04-25T08:10:54Z</time>
      </trkpt>
      <trkpt lat="44.925890984013677" lon="3.11819395981729">
        <ele>793.71000000000004</ele>
        <time>2025-04-25T08:10:55Z</time>
      </trkpt>
      <trkpt lat="44.925785036757588" lon="3.11806496232748">
        <ele>792.74000000000001</ele>
        <time>2025-04-25T08:10:56Z</time>
      </trkpt>
      <trkpt lat="44.925514971837401" lon="3.117746030911803">
        <ele>790.34000000000003</ele>
        <time>2025-04-25T08:10:58Z</time>
      </trkpt>
      <trkpt lat="44.925358984619379" lon="3.117580991238356">
        <ele>788.41999999999996</ele>
        <time>2025-04-25T08:10:59Z</time>
      </trkpt>
      <trkpt lat="44.925129991024733" lon="3.117402037605643">
        <ele>786.5</ele>
        <time>2025-04-25T08:11:00Z</time>
      </trkpt>
      <trkpt lat="44.92495296522975" lon="3.117336994037032">
        <ele>784.09000000000003</ele>
        <time>2025-04-25T08:11:01Z</time>
      </trkpt>
      <trkpt lat="44.924782980233431" lon="3.117274967953563">
        <ele>782.16999999999996</ele>
        <time>2025-04-25T08:11:02Z</time>
      </trkpt>
      <trkpt lat="44.924486009404063" lon="3.117135995998979">
        <ele>777.84000000000003</ele>
        <time>2025-04-25T08:11:04Z</time>
      </trkpt>
      <trkpt lat="44.924338990822434" lon="3.117033988237381">
        <ele>775.44000000000005</ele>
        <time>2025-04-25T08:11:05Z</time>
      </trkpt>
      <trkpt lat="44.92422298528254" lon="3.116915971040726">
        <ele>773.03999999999996</ele>
        <time>2025-04-25T08:11:06Z</time>
      </trkpt>
      <trkpt lat="44.92409398779273" lon="3.116760989651084">
        <ele>770.63</ele>
        <time>2025-04-25T08:11:07Z</time>
      </trkpt>
      <trkpt lat="44.924005977809429" lon="3.116573989391327">
        <ele>768.23000000000002</ele>
        <time>2025-04-25T08:11:08Z</time>
      </trkpt>
      <trkpt lat="44.923912016674876" lon="3.116362011060119">
        <ele>765.35000000000002</ele>
        <time>2025-04-25T08:11:09Z</time>
      </trkpt>
      <trkpt lat="44.923826018348336" lon="3.116168975830078">
        <ele>762.94000000000005</ele>
        <time>2025-04-25T08:11:10Z</time>
      </trkpt>
      <trkpt lat="44.923460986465216" lon="3.11550403945148">
        <ele>750.45000000000005</ele>
        <time>2025-04-25T08:11:16Z</time>
      </trkpt>
      <trkpt lat="44.923311034217477" lon="3.11546104028821">
        <ele>748.51999999999998</ele>
        <time>2025-04-25T08:11:17Z</time>
      </trkpt>
      <trkpt lat="44.923311034217477" lon="3.11546104028821">
        <ele>747.08000000000004</ele>
        <time>2025-04-25T08:11:18Z</time>
      </trkpt>
      <trkpt lat="44.923311034217477" lon="3.11546104028821">
        <ele>744.67999999999995</ele>
        <time>2025-04-25T08:11:26Z</time>
      </trkpt>
      <trkpt lat="44.923311034217477" lon="3.11546104028821">
        <ele>744.67999999999995</ele>
        <time>2025-04-25T08:11:59Z</time>
      </trkpt>
      <trkpt lat="44.923311034217477" lon="3.11546104028821">
        <ele>745.15999999999997</ele>
        <time>2025-04-25T08:13:01Z</time>
      </trkpt>
      <trkpt lat="44.923311034217477" lon="3.11546104028821">
        <ele>746.60000000000002</ele>
        <time>2025-04-25T08:13:40Z</time>
      </trkpt>
      <trkpt lat="44.923311034217477" lon="3.11546104028821">
        <ele>746.60000000000002</ele>
        <time>2025-04-25T08:13:57Z</time>
      </trkpt>
      <trkpt lat="44.923311034217477" lon="3.11546104028821">
        <ele>747.08000000000004</ele>
        <time>2025-04-25T08:13:58Z</time>
      </trkpt>
      <trkpt lat="44.923311034217477" lon="3.11546104028821">
        <ele>747.55999999999995</ele>
        <time>2025-04-25T08:13:59Z</time>
      </trkpt>
      <trkpt lat="44.923311034217477" lon="3.11546104028821">
        <ele>748.03999999999996</ele>
        <time>2025-04-25T08:14:00Z</time>
      </trkpt>
      <trkpt lat="44.923182036727667" lon="3.115524994209409">
        <ele>748.03999999999996</ele>
        <time>2025-04-25T08:14:01Z</time>
      </trkpt>
      <trkpt lat="44.923182036727667" lon="3.115524994209409">
        <ele>748.51999999999998</ele>
        <time>2025-04-25T08:14:02Z</time>
      </trkpt>
      <trkpt lat="44.923182036727667" lon="3.115524994209409">
        <ele>749</ele>
        <time>2025-04-25T08:14:03Z</time>
      </trkpt>
      <trkpt lat="44.923182036727667" lon="3.115524994209409">
        <ele>749</ele>
        <time>2025-04-25T08:14:04Z</time>
      </trkpt>
      <trkpt lat="44.923182036727667" lon="3.115524994209409">
        <ele>749</ele>
        <time>2025-04-25T08:14:05Z</time>
      </trkpt>
      <trkpt lat="44.923182036727667" lon="3.115524994209409">
        <ele>749.49000000000001</ele>
        <time>2025-04-25T08:14:15Z</time>
      </trkpt>
      <trkpt lat="44.923110958188772" lon="3.116015000268817">
        <ele>748.51999999999998</ele>
        <time>2025-04-25T08:14:20Z</time>
      </trkpt>
      <trkpt lat="44.922981960698962" lon="3.117447970435023">
        <ele>745.15999999999997</ele>
        <time>2025-04-25T08:14:27Z</time>
      </trkpt>
      <trkpt lat="44.922953965142369" lon="3.117652991786599">
        <ele>744.67999999999995</ele>
        <time>2025-04-25T08:14:28Z</time>
      </trkpt>
      <trkpt lat="44.922903003171086" lon="3.117831023409963">
        <ele>744.20000000000005</ele>
        <time>2025-04-25T08:14:29Z</time>
      </trkpt>
      <trkpt lat="44.922845000401139" lon="3.11797896400094">
        <ele>743.72000000000003</ele>
        <time>2025-04-25T08:14:30Z</time>
      </trkpt>
      <trkpt lat="44.922768976539373" lon="3.118133023381233">
        <ele>743.24000000000001</ele>
        <time>2025-04-25T08:14:31Z</time>
      </trkpt>
      <trkpt lat="44.922685995697975" lon="3.11829898506403">
        <ele>743.24000000000001</ele>
        <time>2025-04-25T08:14:32Z</time>
      </trkpt>
      <trkpt lat="44.922595974057913" lon="3.118478022515774">
        <ele>743.72000000000003</ele>
        <time>2025-04-25T08:14:33Z</time>
      </trkpt>
      <trkpt lat="44.922408973798156" lon="3.118823021650314">
        <ele>743.72000000000003</ele>
        <time>2025-04-25T08:14:35Z</time>
      </trkpt>
      <trkpt lat="44.922293974086642" lon="3.118975991383195">
        <ele>744.20000000000005</ele>
        <time>2025-04-25T08:14:36Z</time>
      </trkpt>
      <trkpt lat="44.922179980203509" lon="3.119128961116076">
        <ele>744.20000000000005</ele>
        <time>2025-04-25T08:14:37Z</time>
      </trkpt>
      <trkpt lat="44.922075960785151" lon="3.119299029931426">
        <ele>744.20000000000005</ele>
        <time>2025-04-25T08:14:38Z</time>
      </trkpt>
      <trkpt lat="44.921984011307359" lon="3.119475971907377">
        <ele>744.20000000000005</ele>
        <time>2025-04-25T08:14:39Z</time>
      </trkpt>
      <trkpt lat="44.921902036294341" lon="3.119633970782161">
        <ele>744.67999999999995</ele>
        <time>2025-04-25T08:14:40Z</time>
      </trkpt>
      <trkpt lat="44.921829029917717" lon="3.119747964665294">
        <ele>744.67999999999995</ele>
        <time>2025-04-25T08:14:41Z</time>
      </trkpt>
      <trkpt lat="44.9217280279845" lon="3.119794987142086">
        <ele>744.67999999999995</ele>
        <time>2025-04-25T08:14:42Z</time>
      </trkpt>
      <trkpt lat="44.921604981645942" lon="3.119794987142086">
        <ele>745.15999999999997</ele>
        <time>2025-04-25T08:14:43Z</time>
      </trkpt>
      <trkpt lat="44.921469027176499" lon="3.119794987142086">
        <ele>745.15999999999997</ele>
        <time>2025-04-25T08:14:44Z</time>
      </trkpt>
      <trkpt lat="44.921326031908393" lon="3.119794987142086">
        <ele>745.15999999999997</ele>
        <time>2025-04-25T08:14:45Z</time>
      </trkpt>
      <trkpt lat="44.921177001670003" lon="3.119848966598511">
        <ele>745.15999999999997</ele>
        <time>2025-04-25T08:14:46Z</time>
      </trkpt>
      <trkpt lat="44.92104297503829" lon="3.119942005723715">
        <ele>744.67999999999995</ele>
        <time>2025-04-25T08:14:47Z</time>
      </trkpt>
      <trkpt lat="44.920942978933454" lon="3.120052982121706">
        <ele>744.67999999999995</ele>
        <time>2025-04-25T08:14:48Z</time>
      </trkpt>
      <trkpt lat="44.920867960900068" lon="3.120219027623534">
        <ele>744.20000000000005</ele>
        <time>2025-04-25T08:14:49Z</time>
      </trkpt>
      <trkpt lat="44.920834014192224" lon="3.120413990691304">
        <ele>744.20000000000005</ele>
        <time>2025-04-25T08:14:50Z</time>
      </trkpt>
      <trkpt lat="44.920796966180205" lon="3.120625969022512">
        <ele>744.20000000000005</ele>
        <time>2025-04-25T08:14:51Z</time>
      </trkpt>
      <trkpt lat="44.920712979510427" lon="3.121025031432509">
        <ele>743.72000000000003</ele>
        <time>2025-04-25T08:14:53Z</time>
      </trkpt>
      <trkpt lat="44.920643996447325" lon="3.121171966195107">
        <ele>743.72000000000003</ele>
        <time>2025-04-25T08:14:54Z</time>
      </trkpt>
      <trkpt lat="44.920585993677378" lon="3.121297024190426">
        <ele>743.72000000000003</ele>
        <time>2025-04-25T08:14:55Z</time>
      </trkpt>
      <trkpt lat="44.920512987300754" lon="3.121305992826819">
        <ele>743.72000000000003</ele>
        <time>2025-04-25T08:14:56Z</time>
      </trkpt>
      <trkpt lat="44.920407040044665" lon="3.121312027797103">
        <ele>743.72000000000003</ele>
        <time>2025-04-25T08:14:57Z</time>
      </trkpt>
      <trkpt lat="44.920326992869377" lon="3.121181018650532">
        <ele>743.72000000000003</ele>
        <time>2025-04-25T08:14:58Z</time>
      </trkpt>
      <trkpt lat="44.920251974835992" lon="3.121022013947368">
        <ele>744.20000000000005</ele>
        <time>2025-04-25T08:14:59Z</time>
      </trkpt>
      <trkpt lat="44.920173017308116" lon="3.12085404060781">
        <ele>744.67999999999995</ele>
        <time>2025-04-25T08:15:00Z</time>
      </trkpt>
      <trkpt lat="44.920100010931492" lon="3.120696963742375">
        <ele>745.15999999999997</ele>
        <time>2025-04-25T08:15:01Z</time>
      </trkpt>
      <trkpt lat="44.920012000948191" lon="3.120563020929694">
        <ele>746.12</ele>
        <time>2025-04-25T08:15:02Z</time>
      </trkpt>
      <trkpt lat="44.919886020943522" lon="3.12046998180449">
        <ele>746.60000000000002</ele>
        <time>2025-04-25T08:15:03Z</time>
      </trkpt>
      <trkpt lat="44.919743025675416" lon="3.120396975427866">
        <ele>747.08000000000004</ele>
        <time>2025-04-25T08:15:04Z</time>
      </trkpt>
      <trkpt lat="44.919587038457394" lon="3.120350958779454">
        <ele>747.08000000000004</ele>
        <time>2025-04-25T08:15:05Z</time>
      </trkpt>
      <trkpt lat="44.919426022097468" lon="3.120304020121694">
        <ele>747.55999999999995</ele>
        <time>2025-04-25T08:15:06Z</time>
      </trkpt>
      <trkpt lat="44.919098038226366" lon="3.120207041501999">
        <ele>748.51999999999998</ele>
        <time>2025-04-25T08:15:08Z</time>
      </trkpt>
      <trkpt lat="44.918791009113193" lon="3.120046025142074">
        <ele>748.51999999999998</ele>
        <time>2025-04-25T08:15:10Z</time>
      </trkpt>
      <trkpt lat="44.918510969728231" lon="3.119901018217206">
        <ele>748.51999999999998</ele>
        <time>2025-04-25T08:15:12Z</time>
      </trkpt>
      <trkpt lat="44.91837602108717" lon="3.11988802626729">
        <ele>748.51999999999998</ele>
        <time>2025-04-25T08:15:13Z</time>
      </trkpt>
      <trkpt lat="44.918245011940598" lon="3.119914010167122">
        <ele>748.51999999999998</ele>
        <time>2025-04-25T08:15:14Z</time>
      </trkpt>
      <trkpt lat="44.918133029714227" lon="3.119970001280308">
        <ele>748.51999999999998</ele>
        <time>2025-04-25T08:15:15Z</time>
      </trkpt>
      <trkpt lat="44.918037978932261" lon="3.120078966021538">
        <ele>748.03999999999996</ele>
        <time>2025-04-25T08:15:16Z</time>
      </trkpt>
      <trkpt lat="44.91794896312058" lon="3.120216010138392">
        <ele>748.03999999999996</ele>
        <time>2025-04-25T08:15:17Z</time>
      </trkpt>
      <trkpt lat="44.917851984500885" lon="3.120364034548402">
        <ele>748.03999999999996</ele>
        <time>2025-04-25T08:15:18Z</time>
      </trkpt>
      <trkpt lat="44.917743019759655" lon="3.120513986796141">
        <ele>747.55999999999995</ele>
        <time>2025-04-25T08:15:19Z</time>
      </trkpt>
      <trkpt lat="44.916753033176064" lon="3.121794993057847">
        <ele>747.55999999999995</ele>
        <time>2025-04-25T08:15:27Z</time>
      </trkpt>
      <trkpt lat="44.916655970737338" lon="3.121980987489224">
        <ele>747.55999999999995</ele>
        <time>2025-04-25T08:15:28Z</time>
      </trkpt>
      <trkpt lat="44.916237965226173" lon="3.122783973813057">
        <ele>747.55999999999995</ele>
        <time>2025-04-25T08:15:33Z</time>
      </trkpt>
      <trkpt lat="44.916139980778098" lon="3.122828984633088">
        <ele>747.55999999999995</ele>
        <time>2025-04-25T08:15:34Z</time>
      </trkpt>
      <trkpt lat="44.916070997714996" lon="3.12285203486681">
        <ele>747.55999999999995</ele>
        <time>2025-04-25T08:15:35Z</time>
      </trkpt>
      <trkpt lat="44.91599396802485" lon="3.122821021825075">
        <ele>747.55999999999995</ele>
        <time>2025-04-25T08:15:36Z</time>
      </trkpt>
      <trkpt lat="44.915930014103651" lon="3.122780034318566">
        <ele>749</ele>
        <time>2025-04-25T08:15:37Z</time>
      </trkpt>
      <trkpt lat="44.915851978585124" lon="3.122705016285181">
        <ele>749.49000000000001</ele>
        <time>2025-04-25T08:15:38Z</time>
      </trkpt>
      <trkpt lat="44.915074976161122" lon="3.121956009417772">
        <ele>752.37</ele>
        <time>2025-04-25T08:15:45Z</time>
      </trkpt>
      <trkpt lat="44.913859013468027" lon="3.120780028402805">
        <ele>754.28999999999996</ele>
        <time>2025-04-25T08:15:54Z</time>
      </trkpt>
      <trkpt lat="44.913331037387252" lon="3.120193965733051">
        <ele>753.80999999999995</ele>
        <time>2025-04-25T08:15:58Z</time>
      </trkpt>
      <trkpt lat="44.913172032684088" lon="3.120085000991821">
        <ele>753.80999999999995</ele>
        <time>2025-04-25T08:15:59Z</time>
      </trkpt>
      <trkpt lat="44.912379020825028" lon="3.119512014091015">
        <ele>752.85000000000002</ele>
        <time>2025-04-25T08:16:04Z</time>
      </trkpt>
      <trkpt lat="44.911919021978974" lon="3.119033994153142">
        <ele>752.37</ele>
        <time>2025-04-25T08:16:07Z</time>
      </trkpt>
      <trkpt lat="44.911384005099535" lon="3.118247017264366">
        <ele>751.40999999999997</ele>
        <time>2025-04-25T08:16:11Z</time>
      </trkpt>
      <trkpt lat="44.911270011216402" lon="3.118034033104777">
        <ele>751.40999999999997</ele>
        <time>2025-04-25T08:16:12Z</time>
      </trkpt>
      <trkpt lat="44.911045962944627" lon="3.11761200428009">
        <ele>750.92999999999995</ele>
        <time>2025-04-25T08:16:14Z</time>
      </trkpt>
      <trkpt lat="44.910917971283197" lon="3.117394996806979">
        <ele>750.92999999999995</ele>
        <time>2025-04-25T08:16:15Z</time>
      </trkpt>
      <trkpt lat="44.910768019035459" lon="3.117209002375603">
        <ele>750.45000000000005</ele>
        <time>2025-04-25T08:16:16Z</time>
      </trkpt>
      <trkpt lat="44.910599961876869" lon="3.117033988237381">
        <ele>750.45000000000005</ele>
        <time>2025-04-25T08:16:17Z</time>
      </trkpt>
      <trkpt lat="44.910427965223789" lon="3.116896022111177">
        <ele>750.92999999999995</ele>
        <time>2025-04-25T08:16:18Z</time>
      </trkpt>
      <trkpt lat="44.910266026854515" lon="3.116767024621368">
        <ele>750.92999999999995</ele>
        <time>2025-04-25T08:16:19Z</time>
      </trkpt>
      <trkpt lat="44.910086989402771" lon="3.116691000759602">
        <ele>751.40999999999997</ele>
        <time>2025-04-25T08:16:20Z</time>
      </trkpt>
      <trkpt lat="44.909911975264549" lon="3.116626041010022">
        <ele>751.40999999999997</ele>
        <time>2025-04-25T08:16:21Z</time>
      </trkpt>
      <trkpt lat="44.909233041107655" lon="3.116373997181654">
        <ele>753.33000000000004</ele>
        <time>2025-04-25T08:16:25Z</time>
      </trkpt>
      <trkpt lat="44.909078981727362" lon="3.116313982754946">
        <ele>753.80999999999995</ele>
        <time>2025-04-25T08:16:26Z</time>
      </trkpt>
      <trkpt lat="44.908936992287636" lon="3.116165958344936">
        <ele>754.28999999999996</ele>
        <time>2025-04-25T08:16:27Z</time>
      </trkpt>
      <trkpt lat="44.908792991191149" lon="3.116016006097198">
        <ele>755.25</ele>
        <time>2025-04-25T08:16:28Z</time>
      </trkpt>
      <trkpt lat="44.908657036721706" lon="3.115876028314233">
        <ele>755.73000000000002</ele>
        <time>2025-04-25T08:16:29Z</time>
      </trkpt>
      <trkpt lat="44.908526027575135" lon="3.115739990025759">
        <ele>756.21000000000004</ele>
        <time>2025-04-25T08:16:30Z</time>
      </trkpt>
      <trkpt lat="44.908446986228228" lon="3.115615015849471">
        <ele>757.17999999999995</ele>
        <time>2025-04-25T08:16:31Z</time>
      </trkpt>
      <trkpt lat="44.908370040357113" lon="3.1154840067029">
        <ele>757.65999999999997</ele>
        <time>2025-04-25T08:16:32Z</time>
      </trkpt>
      <trkpt lat="44.908324023708701" lon="3.115330031141639">
        <ele>758.13999999999999</ele>
        <time>2025-04-25T08:16:33Z</time>
      </trkpt>
      <trkpt lat="44.908333998173475" lon="3.115154011175036">
        <ele>758.62</ele>
        <time>2025-04-25T08:16:34Z</time>
      </trkpt>
      <trkpt lat="44.908361993730068" lon="3.114988971501589">
        <ele>759.10000000000002</ele>
        <time>2025-04-25T08:16:35Z</time>
      </trkpt>
      <trkpt lat="44.908438017591834" lon="3.114832984283567">
        <ele>760.53999999999996</ele>
        <time>2025-04-25T08:16:36Z</time>
      </trkpt>
      <trkpt lat="44.908547988161445" lon="3.11471002176404">
        <ele>761.5</ele>
        <time>2025-04-25T08:16:37Z</time>
      </trkpt>
      <trkpt lat="44.908656030893326" lon="3.114669034257531">
        <ele>762.94000000000005</ele>
        <time>2025-04-25T08:16:38Z</time>
      </trkpt>
      <trkpt lat="44.908772958442569" lon="3.114665010944009">
        <ele>763.89999999999998</ele>
        <time>2025-04-25T08:16:39Z</time>
      </trkpt>
      <trkpt lat="44.908898016437888" lon="3.114714967086911">
        <ele>765.35000000000002</ele>
        <time>2025-04-25T08:16:40Z</time>
      </trkpt>
      <trkpt lat="44.909018967300653" lon="3.114815969020128">
        <ele>766.30999999999995</ele>
        <time>2025-04-25T08:16:41Z</time>
      </trkpt>
      <trkpt lat="44.909137990325689" lon="3.114915965124965">
        <ele>768.23000000000002</ele>
        <time>2025-04-25T08:16:42Z</time>
      </trkpt>
      <trkpt lat="44.909276962280273" lon="3.115031970664859">
        <ele>769.19000000000005</ele>
        <time>2025-04-25T08:16:43Z</time>
      </trkpt>
      <trkpt lat="44.909390034154058" lon="3.115020990371704">
        <ele>770.63</ele>
        <time>2025-04-25T08:16:44Z</time>
      </trkpt>
      <trkpt lat="44.909535963088274" lon="3.114992994815111">
        <ele>772.08000000000004</ele>
        <time>2025-04-25T08:16:45Z</time>
      </trkpt>
      <trkpt lat="44.909689016640186" lon="3.114932980388403">
        <ele>773.51999999999998</ele>
        <time>2025-04-25T08:16:46Z</time>
      </trkpt>
      <trkpt lat="44.90997701883316" lon="3.114819992333651">
        <ele>775.91999999999996</ele>
        <time>2025-04-25T08:16:48Z</time>
      </trkpt>
      <trkpt lat="44.910083971917629" lon="3.114777998998761">
        <ele>776.88</ele>
        <time>2025-04-25T08:16:49Z</time>
      </trkpt>
      <trkpt lat="44.910124959424138" lon="3.114627962931991">
        <ele>778.32000000000005</ele>
        <time>2025-04-25T08:16:50Z</time>
      </trkpt>
      <trkpt lat="44.910155972465873" lon="3.114489996805787">
        <ele>780.25</ele>
        <time>2025-04-25T08:16:51Z</time>
      </trkpt>
      <trkpt lat="44.91019100882113" lon="3.114331997931004">
        <ele>781.69000000000005</ele>
        <time>2025-04-25T08:16:52Z</time>
      </trkpt>
      <trkpt lat="44.910268960520625" lon="3.113990016281605">
        <ele>785.04999999999995</ele>
        <time>2025-04-25T08:16:54Z</time>
      </trkpt>
      <trkpt lat="44.91034003905952" lon="3.113807961344719">
        <ele>786.98000000000002</ele>
        <time>2025-04-25T08:16:55Z</time>
      </trkpt>
      <trkpt lat="44.910412961617112" lon="3.113622972741723">
        <ele>788.41999999999996</ele>
        <time>2025-04-25T08:16:56Z</time>
      </trkpt>
      <trkpt lat="44.910486973822117" lon="3.113433960825205">
        <ele>789.86000000000001</ele>
        <time>2025-04-25T08:16:57Z</time>
      </trkpt>
      <trkpt lat="44.910521004348993" lon="3.113192981109023">
        <ele>791.77999999999997</ele>
        <time>2025-04-25T08:16:58Z</time>
      </trkpt>
      <trkpt lat="44.910542964935303" lon="3.112958958372474">
        <ele>793.22000000000003</ele>
        <time>2025-04-25T08:16:59Z</time>
      </trkpt>
      <trkpt lat="44.910565009340644" lon="3.112735999748111">
        <ele>794.66999999999996</ele>
        <time>2025-04-25T08:17:00Z</time>
      </trkpt>
      <trkpt lat="44.910642961040139" lon="3.112556040287018">
        <ele>796.11000000000001</ele>
        <time>2025-04-25T08:17:01Z</time>
      </trkpt>
      <trkpt lat="44.910718984901905" lon="3.112381026148796">
        <ele>797.54999999999995</ele>
        <time>2025-04-25T08:17:02Z</time>
      </trkpt>
      <trkpt lat="44.91079400293529" lon="3.112228978425264">
        <ele>798.99000000000001</ele>
        <time>2025-04-25T08:17:03Z</time>
      </trkpt>
      <trkpt lat="44.910920988768339" lon="3.112119007855654">
        <ele>800.44000000000005</ele>
        <time>2025-04-25T08:17:04Z</time>
      </trkpt>
      <trkpt lat="44.911059960722923" lon="3.111997973173857">
        <ele>801.88</ele>
        <time>2025-04-25T08:17:05Z</time>
      </trkpt>
      <trkpt lat="44.911204967647791" lon="3.111871993169189">
        <ele>803.32000000000005</ele>
        <time>2025-04-25T08:17:06Z</time>
      </trkpt>
      <trkpt lat="44.911491964012384" lon="3.111601006239653">
        <ele>806.20000000000005</ele>
        <time>2025-04-25T08:17:08Z</time>
      </trkpt>
      <trkpt lat="44.91161098703742" lon="3.11144501902163">
        <ele>808.13</ele>
        <time>2025-04-25T08:17:09Z</time>
      </trkpt>
      <trkpt lat="44.911721041426063" lon="3.111302023753524">
        <ele>809.57000000000005</ele>
        <time>2025-04-25T08:17:10Z</time>
      </trkpt>
      <trkpt lat="44.911841992288828" lon="3.111260030418634">
        <ele>811.00999999999999</ele>
        <time>2025-04-25T08:17:11Z</time>
      </trkpt>
      <trkpt lat="44.911976018920541" lon="3.111218037083745">
        <ele>812.45000000000005</ele>
        <time>2025-04-25T08:17:12Z</time>
      </trkpt>
      <trkpt lat="44.912114990875125" lon="3.111174032092094">
        <ele>813.88999999999999</ele>
        <time>2025-04-25T08:17:13Z</time>
      </trkpt>
      <trkpt lat="44.91225203499198" lon="3.111095996573567">
        <ele>814.85000000000002</ele>
        <time>2025-04-25T08:17:14Z</time>
      </trkpt>
      <trkpt lat="44.912380026653409" lon="3.110977979376912">
        <ele>816.29999999999995</ele>
        <time>2025-04-25T08:17:15Z</time>
      </trkpt>
      <trkpt lat="44.91251103579998" lon="3.110856022685766">
        <ele>817.25999999999999</ele>
        <time>2025-04-25T08:17:16Z</time>
      </trkpt>
      <trkpt lat="44.912754027172923" lon="3.110632980242372">
        <ele>820.13999999999999</ele>
        <time>2025-04-25T08:17:18Z</time>
      </trkpt>
      <trkpt lat="44.912910014390945" lon="3.110586041584611">
        <ele>821.10000000000002</ele>
        <time>2025-04-25T08:17:19Z</time>
      </trkpt>
      <trkpt lat="44.913030965253711" lon="3.110553016886115">
        <ele>822.54999999999995</ele>
        <time>2025-04-25T08:17:20Z</time>
      </trkpt>
      <trkpt lat="44.913243027403951" lon="3.110499959439039">
        <ele>824.95000000000005</ele>
        <time>2025-04-25T08:17:22Z</time>
      </trkpt>
      <trkpt lat="44.913318967446685" lon="3.110464001074433">
        <ele>825.90999999999997</ele>
        <time>2025-04-25T08:17:23Z</time>
      </trkpt>
      <trkpt lat="44.913354003801942" lon="3.110374985262752">
        <ele>826.87</ele>
        <time>2025-04-25T08:17:24Z</time>
      </trkpt>
      <trkpt lat="44.913339000195265" lon="3.110280018299818">
        <ele>827.83000000000004</ele>
        <time>2025-04-25T08:17:25Z</time>
      </trkpt>
      <trkpt lat="44.91330798715353" lon="3.11022100970149">
        <ele>828.78999999999996</ele>
        <time>2025-04-25T08:17:26Z</time>
      </trkpt>
      <trkpt lat="44.913246966898441" lon="3.110160995274782">
        <ele>829.26999999999998</ele>
        <time>2025-04-25T08:17:27Z</time>
      </trkpt>
      <trkpt lat="44.913159040734172" lon="3.110148003324866">
        <ele>830.24000000000001</ele>
        <time>2025-04-25T08:17:28Z</time>
      </trkpt>
      <trkpt lat="44.913056027144194" lon="3.110132999718189">
        <ele>830.24000000000001</ele>
        <time>2025-04-25T08:17:29Z</time>
      </trkpt>
      <trkpt lat="44.912946978583932" lon="3.110115984454751">
        <ele>830.72000000000003</ele>
        <time>2025-04-25T08:17:30Z</time>
      </trkpt>
      <trkpt lat="44.912832984700799" lon="3.110099975019693">
        <ele>831.67999999999995</ele>
        <time>2025-04-25T08:17:31Z</time>
      </trkpt>
      <trkpt lat="44.912589993327856" lon="3.110036021098495">
        <ele>832.63999999999999</ele>
        <time>2025-04-25T08:17:33Z</time>
      </trkpt>
      <trkpt lat="44.912466024979949" lon="3.109973995015025">
        <ele>833.60000000000002</ele>
        <time>2025-04-25T08:17:34Z</time>
      </trkpt>
      <trkpt lat="44.912337027490139" lon="3.109910041093826">
        <ele>834.08000000000004</ele>
        <time>2025-04-25T08:17:35Z</time>
      </trkpt>
      <trkpt lat="44.912204006686807" lon="3.109821025282145">
        <ele>835.03999999999996</ele>
        <time>2025-04-25T08:17:36Z</time>
      </trkpt>
      <trkpt lat="44.912090012803674" lon="3.109690016135573">
        <ele>836</ele>
        <time>2025-04-25T08:17:37Z</time>
      </trkpt>
      <trkpt lat="44.911971995607018" lon="3.10955498367548">
        <ele>836.48000000000002</ele>
        <time>2025-04-25T08:17:38Z</time>
      </trkpt>
      <trkpt lat="44.911850038915873" lon="3.109417017549276">
        <ele>837.45000000000005</ele>
        <time>2025-04-25T08:17:39Z</time>
      </trkpt>
      <trkpt lat="44.91171701811254" lon="3.109305035322905">
        <ele>838.40999999999997</ele>
        <time>2025-04-25T08:17:40Z</time>
      </trkpt>
      <trkpt lat="44.91156698204577" lon="3.109218031167984">
        <ele>839.85000000000002</ele>
        <time>2025-04-25T08:17:41Z</time>
      </trkpt>
      <trkpt lat="44.911425998434424" lon="3.109136978164315">
        <ele>840.80999999999995</ele>
        <time>2025-04-25T08:17:42Z</time>
      </trkpt>
      <trkpt lat="44.911304963752627" lon="3.109066989272833">
        <ele>841.28999999999996</ele>
        <time>2025-04-25T08:17:43Z</time>
      </trkpt>
      <trkpt lat="44.911207985132933" lon="3.108957018703222">
        <ele>842.25</ele>
        <time>2025-04-25T08:17:44Z</time>
      </trkpt>
      <trkpt lat="44.911159034818411" lon="3.108811005949974">
        <ele>843.21000000000004</ele>
        <time>2025-04-25T08:17:45Z</time>
      </trkpt>
      <trkpt lat="44.911141013726592" lon="3.108628029003739">
        <ele>844.17999999999995</ele>
        <time>2025-04-25T08:17:46Z</time>
      </trkpt>
      <trkpt lat="44.91118099540472" lon="3.108468018472195">
        <ele>845.62</ele>
        <time>2025-04-25T08:17:47Z</time>
      </trkpt>
      <trkpt lat="44.911289038136601" lon="3.108338015154004">
        <ele>846.58000000000004</ele>
        <time>2025-04-25T08:17:48Z</time>
      </trkpt>
      <trkpt lat="44.911404037848115" lon="3.108216980472207">
        <ele>847.53999999999996</ele>
        <time>2025-04-25T08:17:49Z</time>
      </trkpt>
      <trkpt lat="44.911529012024403" lon="3.108086977154017">
        <ele>848.5</ele>
        <time>2025-04-25T08:17:50Z</time>
      </trkpt>
      <trkpt lat="44.91165398620069" lon="3.107956973835826">
        <ele>849.46000000000004</ele>
        <time>2025-04-25T08:17:51Z</time>
      </trkpt>
      <trkpt lat="44.911736967042089" lon="3.107781037688255">
        <ele>851.38</ele>
        <time>2025-04-25T08:17:52Z</time>
      </trkpt>
      <trkpt lat="44.911792958155274" lon="3.107589008286595">
        <ele>852.83000000000004</ele>
        <time>2025-04-25T08:17:53Z</time>
      </trkpt>
      <trkpt lat="44.911807961761951" lon="3.107355991378427">
        <ele>854.75</ele>
        <time>2025-04-25T08:17:54Z</time>
      </trkpt>
      <trkpt lat="44.911822965368629" lon="3.107107970863581">
        <ele>856.19000000000005</ele>
        <time>2025-04-25T08:17:55Z</time>
      </trkpt>
      <trkpt lat="44.91188901476562" lon="3.106056964024901">
        <ele>863.39999999999998</ele>
        <time>2025-04-25T08:17:59Z</time>
      </trkpt>
      <trkpt lat="44.911957997828722" lon="3.105825036764145">
        <ele>864.84000000000003</ele>
        <time>2025-04-25T08:18:00Z</time>
      </trkpt>
      <trkpt lat="44.912058999761939" lon="3.105613980442286">
        <ele>865.79999999999995</ele>
        <time>2025-04-25T08:18:01Z</time>
      </trkpt>
      <trkpt lat="44.912536013871431" lon="3.104503965005279">
        <ele>873.98000000000002</ele>
        <time>2025-04-25T08:18:06Z</time>
      </trkpt>
      <trkpt lat="44.912552023306489" lon="3.104268014431">
        <ele>875.41999999999996</ele>
        <time>2025-04-25T08:18:07Z</time>
      </trkpt>
      <trkpt lat="44.912537019699812" lon="3.104050001129508">
        <ele>876.86000000000001</ele>
        <time>2025-04-25T08:18:08Z</time>
      </trkpt>
      <trkpt lat="44.912473987787962" lon="3.1038380227983">
        <ele>878.29999999999995</ele>
        <time>2025-04-25T08:18:09Z</time>
      </trkpt>
      <trkpt lat="44.912392012774944" lon="3.103655967861414">
        <ele>880.22000000000003</ele>
        <time>2025-04-25T08:18:10Z</time>
      </trkpt>
      <trkpt lat="44.912278018891811" lon="3.10351699590683">
        <ele>881.66999999999996</ele>
        <time>2025-04-25T08:18:11Z</time>
      </trkpt>
      <trkpt lat="44.912128988653421" lon="3.103393027558923">
        <ele>883.11000000000001</ele>
        <time>2025-04-25T08:18:12Z</time>
      </trkpt>
      <trkpt lat="44.911960009485483" lon="3.10332303866744">
        <ele>884.54999999999995</ele>
        <time>2025-04-25T08:18:13Z</time>
      </trkpt>
      <trkpt lat="44.911768985912204" lon="3.103268975391984">
        <ele>885.99000000000001</ele>
        <time>2025-04-25T08:18:14Z</time>
      </trkpt>
      <trkpt lat="44.910574983805418" lon="3.102864967659116">
        <ele>893.20000000000005</ele>
        <time>2025-04-25T08:18:20Z</time>
      </trkpt>
      <trkpt lat="44.910370968282223" lon="3.102864967659116">
        <ele>894.15999999999997</ele>
        <time>2025-04-25T08:18:21Z</time>
      </trkpt>
      <trkpt lat="44.910167036578059" lon="3.102906038984656">
        <ele>895.61000000000001</ele>
        <time>2025-04-25T08:18:22Z</time>
      </trkpt>
      <trkpt lat="44.909966960549355" lon="3.102975022047758">
        <ele>896.57000000000005</ele>
        <time>2025-04-25T08:18:23Z</time>
      </trkpt>
      <trkpt lat="44.909763028845191" lon="3.103046016767621">
        <ele>898.00999999999999</ele>
        <time>2025-04-25T08:18:24Z</time>
      </trkpt>
      <trkpt lat="44.908811012282968" lon="3.10332303866744">
        <ele>901.37</ele>
        <time>2025-04-25T08:18:29Z</time>
      </trkpt>
      <trkpt lat="44.908653013408184" lon="3.103317003697157">
        <ele>901.85000000000002</ele>
        <time>2025-04-25T08:18:30Z</time>
      </trkpt>
      <trkpt lat="44.908499037846923" lon="3.103248020634055">
        <ele>903.77999999999997</ele>
        <time>2025-04-25T08:18:31Z</time>
      </trkpt>
      <trkpt lat="44.908336009830236" lon="3.103175014257431">
        <ele>904.25999999999999</ele>
        <time>2025-04-25T08:18:32Z</time>
      </trkpt>
      <trkpt lat="44.908192008733749" lon="3.103038975968957">
        <ele>905.22000000000003</ele>
        <time>2025-04-25T08:18:33Z</time>
      </trkpt>
      <trkpt lat="44.908065022900701" lon="3.102865973487496">
        <ele>905.70000000000005</ele>
        <time>2025-04-25T08:18:34Z</time>
      </trkpt>
      <trkpt lat="44.907966032624245" lon="3.102660030126572">
        <ele>906.65999999999997</ele>
        <time>2025-04-25T08:18:35Z</time>
      </trkpt>
      <trkpt lat="44.907872993499041" lon="3.102431958541274">
        <ele>908.10000000000002</ele>
        <time>2025-04-25T08:18:36Z</time>
      </trkpt>
      <trkpt lat="44.907776014879346" lon="3.102196007966995">
        <ele>909.05999999999995</ele>
        <time>2025-04-25T08:18:37Z</time>
      </trkpt>
      <trkpt lat="44.907366978004575" lon="3.10123804025352">
        <ele>913.38999999999999</ele>
        <time>2025-04-25T08:18:41Z</time>
      </trkpt>
      <trkpt lat="44.907246027141809" lon="3.101040981709957">
        <ele>914.35000000000002</ele>
        <time>2025-04-25T08:18:42Z</time>
      </trkpt>
      <trkpt lat="44.907096996903419" lon="3.100869990885258">
        <ele>915.30999999999995</ele>
        <time>2025-04-25T08:18:43Z</time>
      </trkpt>
      <trkpt lat="44.906923994421959" lon="3.100728001445532">
        <ele>915.78999999999996</ele>
        <time>2025-04-25T08:18:44Z</time>
      </trkpt>
      <trkpt lat="44.906736994162202" lon="3.1005949806422">
        <ele>916.26999999999998</ele>
        <time>2025-04-25T08:18:45Z</time>
      </trkpt>
      <trkpt lat="44.90653800778091" lon="3.100490961223841">
        <ele>917.24000000000001</ele>
        <time>2025-04-25T08:18:46Z</time>
      </trkpt>
      <trkpt lat="44.905834011733532" lon="3.100044038146734">
        <ele>918.67999999999995</ele>
        <time>2025-04-25T08:18:50Z</time>
      </trkpt>
      <trkpt lat="44.905683975666761" lon="3.099894002079964">
        <ele>919.15999999999997</ele>
        <time>2025-04-25T08:18:51Z</time>
      </trkpt>
      <trkpt lat="44.905574005097151" lon="3.099685041233897">
        <ele>919.63999999999999</ele>
        <time>2025-04-25T08:18:52Z</time>
      </trkpt>
      <trkpt lat="44.90546696819365" lon="3.099471973255277">
        <ele>920.12</ele>
        <time>2025-04-25T08:18:53Z</time>
      </trkpt>
      <trkpt lat="44.905383987352252" lon="3.099235016852617">
        <ele>920.60000000000002</ele>
        <time>2025-04-25T08:18:54Z</time>
      </trkpt>
      <trkpt lat="44.905355991795659" lon="3.098982973024249">
        <ele>921.08000000000004</ele>
        <time>2025-04-25T08:18:55Z</time>
      </trkpt>
      <trkpt lat="44.90533403120935" lon="3.098720032721758">
        <ele>922.03999999999996</ele>
        <time>2025-04-25T08:18:56Z</time>
      </trkpt>
      <trkpt lat="44.905378036201" lon="3.098472012206912">
        <ele>923</ele>
        <time>2025-04-25T08:18:57Z</time>
      </trkpt>
      <trkpt lat="44.905422963202" lon="3.098218040540814">
        <ele>923.96000000000004</ele>
        <time>2025-04-25T08:18:58Z</time>
      </trkpt>
      <trkpt lat="44.905494041740894" lon="3.097968008369207">
        <ele>924.92999999999995</ele>
        <time>2025-04-25T08:18:59Z</time>
      </trkpt>
      <trkpt lat="44.90557199344039" lon="3.097725016996265">
        <ele>925.88999999999999</ele>
        <time>2025-04-25T08:19:00Z</time>
      </trkpt>
      <trkpt lat="44.905650028958917" lon="3.097484959289432">
        <ele>926.85000000000002</ele>
        <time>2025-04-25T08:19:01Z</time>
      </trkpt>
      <trkpt lat="44.905696967616677" lon="3.097240962088108">
        <ele>927.80999999999995</ele>
        <time>2025-04-25T08:19:02Z</time>
      </trkpt>
      <trkpt lat="44.905705014243722" lon="3.096981039270759">
        <ele>928.76999999999998</ele>
        <time>2025-04-25T08:19:03Z</time>
      </trkpt>
      <trkpt lat="44.905712977051735" lon="3.096718015149236">
        <ele>929.25</ele>
        <time>2025-04-25T08:19:04Z</time>
      </trkpt>
      <trkpt lat="44.905699985101819" lon="3.096454991027713">
        <ele>930.21000000000004</ele>
        <time>2025-04-25T08:19:05Z</time>
      </trkpt>
      <trkpt lat="44.905522037297487" lon="3.095161998644471">
        <ele>932.62</ele>
        <time>2025-04-25T08:19:10Z</time>
      </trkpt>
      <trkpt lat="44.905431009829044" lon="3.094978015869856">
        <ele>933.10000000000002</ele>
        <time>2025-04-25T08:19:11Z</time>
      </trkpt>
      <trkpt lat="44.905321039259434" lon="3.094808030873537">
        <ele>933.58000000000004</ele>
        <time>2025-04-25T08:19:12Z</time>
      </trkpt>
      <trkpt lat="44.905177960172296" lon="3.094657994806767">
        <ele>934.05999999999995</ele>
        <time>2025-04-25T08:19:13Z</time>
      </trkpt>
      <trkpt lat="44.905029013752937" lon="3.094501001760364">
        <ele>934.53999999999996</ele>
        <time>2025-04-25T08:19:14Z</time>
      </trkpt>
      <trkpt lat="44.904425013810396" lon="3.093802034854889">
        <ele>935.01999999999998</ele>
        <time>2025-04-25T08:19:18Z</time>
      </trkpt>
      <trkpt lat="44.904308002442122" lon="3.093582009896636">
        <ele>934.53999999999996</ele>
        <time>2025-04-25T08:19:19Z</time>
      </trkpt>
      <trkpt lat="44.904216974973679" lon="3.093336001038551">
        <ele>934.53999999999996</ele>
        <time>2025-04-25T08:19:20Z</time>
      </trkpt>
      <trkpt lat="44.904142040759325" lon="3.093079011887312">
        <ele>934.53999999999996</ele>
        <time>2025-04-25T08:19:21Z</time>
      </trkpt>
      <trkpt lat="44.904083032160997" lon="3.092814981937408">
        <ele>934.53999999999996</ele>
        <time>2025-04-25T08:19:22Z</time>
      </trkpt>
      <trkpt lat="44.903851021081209" lon="3.091810997575522">
        <ele>935.98000000000002</ele>
        <time>2025-04-25T08:19:26Z</time>
      </trkpt>
      <trkpt lat="44.903768040239811" lon="3.091609999537468">
        <ele>936.46000000000004</ele>
        <time>2025-04-25T08:19:27Z</time>
      </trkpt>
      <trkpt lat="44.903667038306594" lon="3.091424005106092">
        <ele>936.46000000000004</ele>
        <time>2025-04-25T08:19:28Z</time>
      </trkpt>
      <trkpt lat="44.903547009453177" lon="3.091267012059689">
        <ele>936.46000000000004</ele>
        <time>2025-04-25T08:19:29Z</time>
      </trkpt>
      <trkpt lat="44.903410971164703" lon="3.091125022619963">
        <ele>936.46000000000004</ele>
        <time>2025-04-25T08:19:30Z</time>
      </trkpt>
      <trkpt lat="44.903263030573726" lon="3.090986972674727">
        <ele>936.46000000000004</ele>
        <time>2025-04-25T08:19:31Z</time>
      </trkpt>
      <trkpt lat="44.902331968769431" lon="3.089920040220022">
        <ele>936.46000000000004</ele>
        <time>2025-04-25T08:19:38Z</time>
      </trkpt>
      <trkpt lat="44.901439966633916" lon="3.089008005335927">
        <ele>941.26999999999998</ele>
        <time>2025-04-25T08:19:45Z</time>
      </trkpt>
      <trkpt lat="44.900397006422281" lon="3.087934032082558">
        <ele>944.14999999999998</ele>
        <time>2025-04-25T08:19:56Z</time>
      </trkpt>
      <trkpt lat="44.900095006451011" lon="3.087693974375725">
        <ele>943.66999999999996</ele>
        <time>2025-04-25T08:19:59Z</time>
      </trkpt>
      <trkpt lat="44.899979000911117" lon="3.08766296133399">
        <ele>943.66999999999996</ele>
        <time>2025-04-25T08:20:00Z</time>
      </trkpt>
      <trkpt lat="44.89985796622932" lon="3.087630020454526">
        <ele>944.14999999999998</ele>
        <time>2025-04-25T08:20:01Z</time>
      </trkpt>
      <trkpt lat="44.89972997456789" lon="3.087667990475893">
        <ele>944.14999999999998</ele>
        <time>2025-04-25T08:20:02Z</time>
      </trkpt>
      <trkpt lat="44.899589996784925" lon="3.087710989639163">
        <ele>944.14999999999998</ele>
        <time>2025-04-25T08:20:03Z</time>
      </trkpt>
      <trkpt lat="44.899443984031677" lon="3.087753988802433">
        <ele>944.14999999999998</ele>
        <time>2025-04-25T08:20:04Z</time>
      </trkpt>
      <trkpt lat="44.899303000420332" lon="3.087860019877553">
        <ele>944.63</ele>
        <time>2025-04-25T08:20:05Z</time>
      </trkpt>
      <trkpt lat="44.899160005152225" lon="3.087974013760686">
        <ele>945.11000000000001</ele>
        <time>2025-04-25T08:20:06Z</time>
      </trkpt>
      <trkpt lat="44.898240007460117" lon="3.088777000084519">
        <ele>947.51999999999998</ele>
        <time>2025-04-25T08:20:12Z</time>
      </trkpt>
      <trkpt lat="44.898057030513883" lon="3.088865010067821">
        <ele>948</ele>
        <time>2025-04-25T08:20:13Z</time>
      </trkpt>
      <trkpt lat="44.896482992917299" lon="3.089421987533569">
        <ele>949.44000000000005</ele>
        <time>2025-04-25T08:20:21Z</time>
      </trkpt>
      <trkpt lat="44.896109998226166" lon="3.089472027495503">
        <ele>948.96000000000004</ele>
        <time>2025-04-25T08:20:23Z</time>
      </trkpt>
      <trkpt lat="44.895913023501635" lon="3.089542016386986">
        <ele>948.96000000000004</ele>
        <time>2025-04-25T08:20:24Z</time>
      </trkpt>
      <trkpt lat="44.895272981375456" lon="3.089735973626375">
        <ele>947.03999999999996</ele>
        <time>2025-04-25T08:20:27Z</time>
      </trkpt>
      <trkpt lat="44.895048011094332" lon="3.08974402025342">
        <ele>946.07000000000005</ele>
        <time>2025-04-25T08:20:28Z</time>
      </trkpt>
      <trkpt lat="44.894817005842924" lon="3.089707978069782">
        <ele>945.59000000000003</ele>
        <time>2025-04-25T08:20:29Z</time>
      </trkpt>
      <trkpt lat="44.893251014873385" lon="3.089457023888826">
        <ele>946.07000000000005</ele>
        <time>2025-04-25T08:20:36Z</time>
      </trkpt>
      <trkpt lat="44.893064014613628" lon="3.089477978646755">
        <ele>946.55999999999995</ele>
        <time>2025-04-25T08:20:37Z</time>
      </trkpt>
      <trkpt lat="44.892711974680424" lon="3.089518966153264">
        <ele>946.55999999999995</ele>
        <time>2025-04-25T08:20:39Z</time>
      </trkpt>
      <trkpt lat="44.892541989684105" lon="3.089480996131897">
        <ele>946.55999999999995</ele>
        <time>2025-04-25T08:20:40Z</time>
      </trkpt>
      <trkpt lat="44.892362030223012" lon="3.089376976713538">
        <ele>946.07000000000005</ele>
        <time>2025-04-25T08:20:41Z</time>
      </trkpt>
      <trkpt lat="44.892173018306494" lon="3.089258037507534">
        <ele>945.59000000000003</ele>
        <time>2025-04-25T08:20:42Z</time>
      </trkpt>
      <trkpt lat="44.891975037753582" lon="3.089132979512215">
        <ele>944.63</ele>
        <time>2025-04-25T08:20:43Z</time>
      </trkpt>
      <trkpt lat="44.890283988788724" lon="3.088239971548319">
        <ele>939.83000000000004</ele>
        <time>2025-04-25T08:20:51Z</time>
      </trkpt>
      <trkpt lat="44.888802990317345" lon="3.087754994630814">
        <ele>942.23000000000002</ele>
        <time>2025-04-25T08:20:58Z</time>
      </trkpt>
      <trkpt lat="44.888277025893331" lon="3.087648041546345">
        <ele>945.11000000000001</ele>
        <time>2025-04-25T08:21:01Z</time>
      </trkpt>
      <trkpt lat="44.888119027018547" lon="3.087685005739331">
        <ele>946.55999999999995</ele>
        <time>2025-04-25T08:21:02Z</time>
      </trkpt>
      <trkpt lat="44.887952981516719" lon="3.087771004065871">
        <ele>947.51999999999998</ele>
        <time>2025-04-25T08:21:03Z</time>
      </trkpt>
      <trkpt lat="44.88741603679955" lon="3.087993962690234">
        <ele>951.84000000000003</ele>
        <time>2025-04-25T08:21:06Z</time>
      </trkpt>
      <trkpt lat="44.887227024883032" lon="3.088021036237478">
        <ele>952.79999999999995</ele>
        <time>2025-04-25T08:21:07Z</time>
      </trkpt>
      <trkpt lat="44.887028960511088" lon="3.088021036237478">
        <ele>954.25</ele>
        <time>2025-04-25T08:21:08Z</time>
      </trkpt>
      <trkpt lat="44.885481996461749" lon="3.087603030726314">
        <ele>960.00999999999999</ele>
        <time>2025-04-25T08:21:15Z</time>
      </trkpt>
      <trkpt lat="44.883802011609077" lon="3.087021997198463">
        <ele>963.38</ele>
        <time>2025-04-25T08:21:23Z</time>
      </trkpt>
      <trkpt lat="44.882641034200788" lon="3.086858969181776">
        <ele>960.98000000000002</ele>
        <time>2025-04-25T08:21:29Z</time>
      </trkpt>
      <trkpt lat="44.88245596177876" lon="3.086889982223511">
        <ele>960.49000000000001</ele>
        <time>2025-04-25T08:21:30Z</time>
      </trkpt>
      <trkpt lat="44.881876017898321" lon="3.087032977491617">
        <ele>959.52999999999997</ele>
        <time>2025-04-25T08:21:33Z</time>
      </trkpt>
      <trkpt lat="44.881674014031887" lon="3.087045969441533">
        <ele>959.52999999999997</ele>
        <time>2025-04-25T08:21:34Z</time>
      </trkpt>
      <trkpt lat="44.881472010165453" lon="3.087020991370082">
        <ele>959.52999999999997</ele>
        <time>2025-04-25T08:21:35Z</time>
      </trkpt>
      <trkpt lat="44.88127201795578" lon="3.08697396889329">
        <ele>959.04999999999995</ele>
        <time>2025-04-25T08:21:36Z</time>
      </trkpt>
      <trkpt lat="44.881071019917727" lon="3.086927030235529">
        <ele>959.52999999999997</ele>
        <time>2025-04-25T08:21:37Z</time>
      </trkpt>
      <trkpt lat="44.880314972251654" lon="3.086724020540714">
        <ele>960.98000000000002</ele>
        <time>2025-04-25T08:21:41Z</time>
      </trkpt>
      <trkpt lat="44.87908199429512" lon="3.085759012028575">
        <ele>965.77999999999997</ele>
        <time>2025-04-25T08:21:48Z</time>
      </trkpt>
      <trkpt lat="44.877862008288503" lon="3.084736000746489">
        <ele>964.34000000000003</ele>
        <time>2025-04-25T08:21:55Z</time>
      </trkpt>
      <trkpt lat="44.877711972221732" lon="3.084587976336479">
        <ele>964.82000000000005</ele>
        <time>2025-04-25T08:21:56Z</time>
      </trkpt>
      <trkpt lat="44.87757601775229" lon="3.084426037967205">
        <ele>964.82000000000005</ele>
        <time>2025-04-25T08:21:57Z</time>
      </trkpt>
      <trkpt lat="44.877445008605719" lon="3.08426602743566">
        <ele>964.82000000000005</ele>
        <time>2025-04-25T08:21:58Z</time>
      </trkpt>
      <trkpt lat="44.877345012500882" lon="3.084066035225987">
        <ele>965.29999999999995</ele>
        <time>2025-04-25T08:21:59Z</time>
      </trkpt>
      <trkpt lat="44.8772559966892" lon="3.083862019702792">
        <ele>965.29999999999995</ele>
        <time>2025-04-25T08:22:00Z</time>
      </trkpt>
      <trkpt lat="44.877165975049138" lon="3.083659010007978">
        <ele>965.77999999999997</ele>
        <time>2025-04-25T08:22:01Z</time>
      </trkpt>
      <trkpt lat="44.87706002779305" lon="3.083452982828021">
        <ele>966.25999999999999</ele>
        <time>2025-04-25T08:22:02Z</time>
      </trkpt>
      <trkpt lat="44.876904962584376" lon="3.083270005881786">
        <ele>966.74000000000001</ele>
        <time>2025-04-25T08:22:03Z</time>
      </trkpt>
      <trkpt lat="44.875684976577759" lon="3.08177400380373">
        <ele>972.50999999999999</ele>
        <time>2025-04-25T08:22:10Z</time>
      </trkpt>
      <trkpt lat="44.874329958111048" lon="3.079931996762753">
        <ele>981.15999999999997</ele>
        <time>2025-04-25T08:22:19Z</time>
      </trkpt>
      <trkpt lat="44.874205989763141" lon="3.079664027318358">
        <ele>982.12</ele>
        <time>2025-04-25T08:22:23Z</time>
      </trkpt>
      <trkpt lat="44.874172965064645" lon="3.07958398014307">
        <ele>983.09000000000003</ele>
        <time>2025-04-25T08:22:32Z</time>
      </trkpt>
      <trkpt lat="44.874159973114729" lon="3.079537963494659">
        <ele>983.09000000000003</ele>
        <time>2025-04-25T08:22:34Z</time>
      </trkpt>
      <trkpt lat="44.874130971729755" lon="3.079436961561441">
        <ele>983.57000000000005</ele>
        <time>2025-04-25T08:22:35Z</time>
      </trkpt>
      <trkpt lat="44.873886974528432" lon="3.07857203297317">
        <ele>982.60000000000002</ele>
        <time>2025-04-25T08:22:40Z</time>
      </trkpt>
      <trkpt lat="44.873325973749161" lon="3.07683203369379">
        <ele>981.63999999999999</ele>
        <time>2025-04-25T08:22:47Z</time>
      </trkpt>
      <trkpt lat="44.872902017086744" lon="3.075217008590698">
        <ele>981.15999999999997</ele>
        <time>2025-04-25T08:22:53Z</time>
      </trkpt>
      <trkpt lat="44.872781988233328" lon="3.07472599670291">
        <ele>981.63999999999999</ele>
        <time>2025-04-25T08:22:55Z</time>
      </trkpt>
      <trkpt lat="44.87271904014051" lon="3.07449197396636">
        <ele>982.12</ele>
        <time>2025-04-25T08:22:56Z</time>
      </trkpt>
      <trkpt lat="44.872627006843686" lon="3.074282007291913">
        <ele>982.12</ele>
        <time>2025-04-25T08:22:57Z</time>
      </trkpt>
      <trkpt lat="44.872509995475411" lon="3.074085032567382">
        <ele>982.60000000000002</ele>
        <time>2025-04-25T08:22:58Z</time>
      </trkpt>
      <trkpt lat="44.872388038784266" lon="3.073882022872567">
        <ele>982.60000000000002</ele>
        <time>2025-04-25T08:22:59Z</time>
      </trkpt>
      <trkpt lat="44.872006997466087" lon="3.073240974918008">
        <ele>982.60000000000002</ele>
        <time>2025-04-25T08:23:02Z</time>
      </trkpt>
      <trkpt lat="44.871893003582954" lon="3.072993038222194">
        <ele>982.60000000000002</ele>
        <time>2025-04-25T08:23:03Z</time>
      </trkpt>
      <trkpt lat="44.871410960331559" lon="3.07169602252543">
        <ele>983.09000000000003</ele>
        <time>2025-04-25T08:23:08Z</time>
      </trkpt>
      <trkpt lat="44.871351029723883" lon="3.071406008675695">
        <ele>983.09000000000003</ele>
        <time>2025-04-25T08:23:09Z</time>
      </trkpt>
      <trkpt lat="44.871322028338909" lon="3.071111971512437">
        <ele>982.60000000000002</ele>
        <time>2025-04-25T08:23:10Z</time>
      </trkpt>
      <trkpt lat="44.871295038610697" lon="3.070837967097759">
        <ele>982.60000000000002</ele>
        <time>2025-04-25T08:23:11Z</time>
      </trkpt>
      <trkpt lat="44.871269976720214" lon="3.070579972118139">
        <ele>982.60000000000002</ele>
        <time>2025-04-25T08:23:12Z</time>
      </trkpt>
      <trkpt lat="44.871225971728563" lon="3.070342009887099">
        <ele>983.09000000000003</ele>
        <time>2025-04-25T08:23:13Z</time>
      </trkpt>
      <trkpt lat="44.871147014200687" lon="3.070127014070749">
        <ele>983.09000000000003</ele>
        <time>2025-04-25T08:23:14Z</time>
      </trkpt>
      <trkpt lat="44.87106897868216" lon="3.069919981062412">
        <ele>983.09000000000003</ele>
        <time>2025-04-25T08:23:15Z</time>
      </trkpt>
      <trkpt lat="44.870973005890846" lon="3.069715965539217">
        <ele>983.09000000000003</ele>
        <time>2025-04-25T08:23:16Z</time>
      </trkpt>
      <trkpt lat="44.870292982086539" lon="3.067952999845147">
        <ele>975.88</ele>
        <time>2025-04-25T08:23:23Z</time>
      </trkpt>
      <trkpt lat="44.870020989328623" lon="3.067173985764384">
        <ele>972.02999999999997</ele>
        <time>2025-04-25T08:23:26Z</time>
      </trkpt>
      <trkpt lat="44.86990800127387" lon="3.066919008269906">
        <ele>970.59000000000003</ele>
        <time>2025-04-25T08:23:27Z</time>
      </trkpt>
      <trkpt lat="44.869312969967723" lon="3.065631967037916">
        <ele>963.86000000000001</ele>
        <time>2025-04-25T08:23:33Z</time>
      </trkpt>
      <trkpt lat="44.86921900883317" lon="3.06548997759819">
        <ele>962.89999999999998</ele>
        <time>2025-04-25T08:23:34Z</time>
      </trkpt>
      <trkpt lat="44.869092023000121" lon="3.065444966778159">
        <ele>961.46000000000004</ele>
        <time>2025-04-25T08:23:35Z</time>
      </trkpt>
      <trkpt lat="44.868955984711647" lon="3.065400961786509">
        <ele>960.49000000000001</ele>
        <time>2025-04-25T08:23:36Z</time>
      </trkpt>
      <trkpt lat="44.868801003322005" lon="3.065444966778159">
        <ele>959.52999999999997</ele>
        <time>2025-04-25T08:23:37Z</time>
      </trkpt>
      <trkpt lat="44.868635041639209" lon="3.065491989254952">
        <ele>958.57000000000005</ele>
        <time>2025-04-25T08:23:38Z</time>
      </trkpt>
      <trkpt lat="44.868507971987128" lon="3.06552903726697">
        <ele>957.13</ele>
        <time>2025-04-25T08:23:39Z</time>
      </trkpt>
      <trkpt lat="44.868350978940725" lon="3.065685024484992">
        <ele>956.16999999999996</ele>
        <time>2025-04-25T08:23:40Z</time>
      </trkpt>
      <trkpt lat="44.868217036128044" lon="3.065818967297673">
        <ele>955.21000000000004</ele>
        <time>2025-04-25T08:23:41Z</time>
      </trkpt>
      <trkpt lat="44.868098013103008" lon="3.065976966172457">
        <ele>953.76999999999998</ele>
        <time>2025-04-25T08:23:42Z</time>
      </trkpt>
      <trkpt lat="44.868013020604849" lon="3.06619799695909">
        <ele>952.79999999999995</ele>
        <time>2025-04-25T08:23:43Z</time>
      </trkpt>
      <trkpt lat="44.867930039763451" lon="3.06641299277544">
        <ele>951.36000000000001</ele>
        <time>2025-04-25T08:23:44Z</time>
      </trkpt>
      <trkpt lat="44.867891985923052" lon="3.066622959449887">
        <ele>950.39999999999998</ele>
        <time>2025-04-25T08:23:45Z</time>
      </trkpt>
      <trkpt lat="44.867868013679981" lon="3.066852036863565">
        <ele>949.44000000000005</ele>
        <time>2025-04-25T08:23:46Z</time>
      </trkpt>
      <trkpt lat="44.86784596927464" lon="3.067064015194774">
        <ele>948.48000000000002</ele>
        <time>2025-04-25T08:23:47Z</time>
      </trkpt>
      <trkpt lat="44.867791989818215" lon="3.067234000191093">
        <ele>947.51999999999998</ele>
        <time>2025-04-25T08:23:48Z</time>
      </trkpt>
      <trkpt lat="44.86775703728199" lon="3.067330978810787">
        <ele>946.55999999999995</ele>
        <time>2025-04-25T08:23:49Z</time>
      </trkpt>
      <trkpt lat="44.867641031742096" lon="3.067370038479567">
        <ele>946.07000000000005</ele>
        <time>2025-04-25T08:23:50Z</time>
      </trkpt>
      <trkpt lat="44.86754396930337" lon="3.067351011559367">
        <ele>945.11000000000001</ele>
        <time>2025-04-25T08:23:51Z</time>
      </trkpt>
      <trkpt lat="44.867423018440604" lon="3.067316981032491">
        <ele>944.14999999999998</ele>
        <time>2025-04-25T08:23:52Z</time>
      </trkpt>
      <trkpt lat="44.867303995415568" lon="3.067284040153027">
        <ele>943.19000000000005</ele>
        <time>2025-04-25T08:23:53Z</time>
      </trkpt>
      <trkpt lat="44.867173992097378" lon="3.067289991304278">
        <ele>942.23000000000002</ele>
        <time>2025-04-25T08:23:54Z</time>
      </trkpt>
      <trkpt lat="44.867059998214245" lon="3.067371966317296">
        <ele>941.26999999999998</ele>
        <time>2025-04-25T08:23:55Z</time>
      </trkpt>
      <trkpt lat="44.866956984624267" lon="3.067491995170713">
        <ele>940.30999999999995</ele>
        <time>2025-04-25T08:23:56Z</time>
      </trkpt>
      <trkpt lat="44.866842990741134" lon="3.067625015974045">
        <ele>939.35000000000002</ele>
        <time>2025-04-25T08:23:57Z</time>
      </trkpt>
      <trkpt lat="44.866722039878368" lon="3.067767005413771">
        <ele>937.89999999999998</ele>
        <time>2025-04-25T08:23:58Z</time>
      </trkpt>
      <trkpt lat="44.866593964397907" lon="3.067916035652161">
        <ele>936.94000000000005</ele>
        <time>2025-04-25T08:23:59Z</time>
      </trkpt>
      <trkpt lat="44.866459015756845" lon="3.06806699372828">
        <ele>936.46000000000004</ele>
        <time>2025-04-25T08:24:00Z</time>
      </trkpt>
      <trkpt lat="44.866290036588907" lon="3.06817201897502">
        <ele>935.5</ele>
        <time>2025-04-25T08:24:01Z</time>
      </trkpt>
      <trkpt lat="44.865604983642697" lon="3.068574015051127">
        <ele>931.64999999999998</ele>
        <time>2025-04-25T08:24:05Z</time>
      </trkpt>
      <trkpt lat="44.865429969504476" lon="3.068623971194029">
        <ele>930.21000000000004</ele>
        <time>2025-04-25T08:24:06Z</time>
      </trkpt>
      <trkpt lat="44.86475296318531" lon="3.068682979792357">
        <ele>925.40999999999997</ele>
        <time>2025-04-25T08:24:11Z</time>
      </trkpt>
      <trkpt lat="44.864684985950589" lon="3.068597987294197">
        <ele>924.45000000000005</ele>
        <time>2025-04-25T08:24:12Z</time>
      </trkpt>
      <trkpt lat="44.864651039242744" lon="3.068494973704219">
        <ele>923.96000000000004</ele>
        <time>2025-04-25T08:24:13Z</time>
      </trkpt>
      <trkpt lat="44.8646239656955" lon="3.068361030891538">
        <ele>923.48000000000002</ele>
        <time>2025-04-25T08:24:14Z</time>
      </trkpt>
      <trkpt lat="44.86466595903039" lon="3.068249970674515">
        <ele>922.51999999999998</ele>
        <time>2025-04-25T08:24:15Z</time>
      </trkpt>
      <trkpt lat="44.864739971235394" lon="3.068150980398059">
        <ele>922.03999999999996</ele>
        <time>2025-04-25T08:24:16Z</time>
      </trkpt>
      <trkpt lat="44.864860000088811" lon="3.068060958757997">
        <ele>921.55999999999995</ele>
        <time>2025-04-25T08:24:17Z</time>
      </trkpt>
      <trkpt lat="44.864984974265099" lon="3.067985018715262">
        <ele>921.55999999999995</ele>
        <time>2025-04-25T08:24:18Z</time>
      </trkpt>
      <trkpt lat="44.865263001993299" lon="3.067805981263518">
        <ele>921.55999999999995</ele>
        <time>2025-04-25T08:24:20Z</time>
      </trkpt>
      <trkpt lat="44.865380013361573" lon="3.067671032622457">
        <ele>922.03999999999996</ele>
        <time>2025-04-25T08:24:21Z</time>
      </trkpt>
      <trkpt lat="44.865499958395958" lon="3.067531976848841">
        <ele>922.51999999999998</ele>
        <time>2025-04-25T08:24:22Z</time>
      </trkpt>
      <trkpt lat="44.865788966417313" lon="3.067042976617813">
        <ele>923.96000000000004</ele>
        <time>2025-04-25T08:24:25Z</time>
      </trkpt>
      <trkpt lat="44.865848980844021" lon="3.066871985793114">
        <ele>924.45000000000005</ele>
        <time>2025-04-25T08:24:26Z</time>
      </trkpt>
      <trkpt lat="44.865892985835671" lon="3.066659001633525">
        <ele>925.40999999999997</ele>
        <time>2025-04-25T08:24:27Z</time>
      </trkpt>
      <trkpt lat="44.865963980555534" lon="3.066199002787471">
        <ele>926.85000000000002</ele>
        <time>2025-04-25T08:24:29Z</time>
      </trkpt>
      <trkpt lat="44.866032963618636" lon="3.065754007548094">
        <ele>928.28999999999996</ele>
        <time>2025-04-25T08:24:31Z</time>
      </trkpt>
      <trkpt lat="44.866041010245681" lon="3.065523002296686">
        <ele>929.25</ele>
        <time>2025-04-25T08:24:32Z</time>
      </trkpt>
      <trkpt lat="44.865978984162211" lon="3.065376989543438">
        <ele>929.73000000000002</ele>
        <time>2025-04-25T08:24:33Z</time>
      </trkpt>
      <trkpt lat="44.865908995270729" lon="3.065214967355132">
        <ele>930.21000000000004</ele>
        <time>2025-04-25T08:24:34Z</time>
      </trkpt>
      <trkpt lat="44.865869013592601" lon="3.065121006220579">
        <ele>931.16999999999996</ele>
        <time>2025-04-25T08:24:35Z</time>
      </trkpt>
      <trkpt lat="44.865855015814304" lon="3.064910033717752">
        <ele>931.16999999999996</ele>
        <time>2025-04-25T08:24:36Z</time>
      </trkpt>
      <trkpt lat="44.86584696918726" lon="3.064798973500729">
        <ele>931.64999999999998</ele>
        <time>2025-04-25T08:24:37Z</time>
      </trkpt>
      <trkpt lat="44.865900026634336" lon="3.064627982676029">
        <ele>932.13999999999999</ele>
        <time>2025-04-25T08:24:38Z</time>
      </trkpt>
      <trkpt lat="44.8659329675138" lon="3.06452002376318">
        <ele>932.62</ele>
        <time>2025-04-25T08:24:39Z</time>
      </trkpt>
      <trkpt lat="44.866020977497101" lon="3.06441499851644">
        <ele>933.10000000000002</ele>
        <time>2025-04-25T08:24:40Z</time>
      </trkpt>
      <trkpt lat="44.866107981652021" lon="3.064310979098082">
        <ele>933.58000000000004</ele>
        <time>2025-04-25T08:24:41Z</time>
      </trkpt>
      <trkpt lat="44.866256006062031" lon="3.064124984666705">
        <ele>934.53999999999996</ele>
        <time>2025-04-25T08:24:42Z</time>
      </trkpt>
      <trkpt lat="44.866252988576889" lon="3.063865983858705">
        <ele>934.53999999999996</ele>
        <time>2025-04-25T08:24:43Z</time>
      </trkpt>
      <trkpt lat="44.866224993020296" lon="3.063707984983921">
        <ele>934.53999999999996</ele>
        <time>2025-04-25T08:24:44Z</time>
      </trkpt>
      <trkpt lat="44.866202026605606" lon="3.063540011644363">
        <ele>934.53999999999996</ele>
        <time>2025-04-25T08:24:45Z</time>
      </trkpt>
      <trkpt lat="44.866179982200265" lon="3.063380001112819">
        <ele>934.53999999999996</ele>
        <time>2025-04-25T08:24:46Z</time>
      </trkpt>
      <trkpt lat="44.86616900190711" lon="3.063297020271421">
        <ele>935.01999999999998</ele>
        <time>2025-04-25T08:24:47Z</time>
      </trkpt>
      <trkpt lat="44.866208983585238" lon="3.063177997246385">
        <ele>935.01999999999998</ele>
        <time>2025-04-25T08:24:48Z</time>
      </trkpt>
      <trkpt lat="44.86625500023365" lon="3.063040031120181">
        <ele>935.01999999999998</ele>
        <time>2025-04-25T08:24:49Z</time>
      </trkpt>
      <trkpt lat="44.866350973024964" lon="3.062984040006995">
        <ele>935.5</ele>
        <time>2025-04-25T08:24:50Z</time>
      </trkpt>
      <trkpt lat="44.866493968293071" lon="3.062899969518185">
        <ele>935.5</ele>
        <time>2025-04-25T08:24:51Z</time>
      </trkpt>
      <trkpt lat="44.866652972996235" lon="3.062807014212012">
        <ele>935.98000000000002</ele>
        <time>2025-04-25T08:24:52Z</time>
      </trkpt>
      <trkpt lat="44.866811977699399" lon="3.062665024772286">
        <ele>936.94000000000005</ele>
        <time>2025-04-25T08:24:53Z</time>
      </trkpt>
      <trkpt lat="44.866918008774519" lon="3.062477018684149">
        <ele>937.89999999999998</ele>
        <time>2025-04-25T08:24:54Z</time>
      </trkpt>
      <trkpt lat="44.867011969909072" lon="3.062310973182321">
        <ele>938.38</ele>
        <time>2025-04-25T08:24:55Z</time>
      </trkpt>
      <trkpt lat="44.867073995992541" lon="3.062144005671144">
        <ele>939.83000000000004</ele>
        <time>2025-04-25T08:24:56Z</time>
      </trkpt>
      <trkpt lat="44.867078019306064" lon="3.061951976269484">
        <ele>940.78999999999996</ele>
        <time>2025-04-25T08:24:57Z</time>
      </trkpt>
      <trkpt lat="44.867020016536117" lon="3.061790037900209">
        <ele>941.75</ele>
        <time>2025-04-25T08:24:58Z</time>
      </trkpt>
      <trkpt lat="44.866940975189209" lon="3.061646036803722">
        <ele>942.71000000000004</ele>
        <time>2025-04-25T08:24:59Z</time>
      </trkpt>
      <trkpt lat="44.866849025711417" lon="3.061478985473514">
        <ele>944.14999999999998</ele>
        <time>2025-04-25T08:25:00Z</time>
      </trkpt>
      <trkpt lat="44.866699995473027" lon="3.061342025175691">
        <ele>945.11000000000001</ele>
        <time>2025-04-25T08:25:01Z</time>
      </trkpt>
      <trkpt lat="44.866548031568527" lon="3.061217973008752">
        <ele>946.07000000000005</ele>
        <time>2025-04-25T08:25:02Z</time>
      </trkpt>
      <trkpt lat="44.866393972188234" lon="3.061091993004084">
        <ele>947.51999999999998</ele>
        <time>2025-04-25T08:25:03Z</time>
      </trkpt>
      <trkpt lat="44.86610596999526" lon="3.060872973874211">
        <ele>949.91999999999996</ele>
        <time>2025-04-25T08:25:05Z</time>
      </trkpt>
      <trkpt lat="44.866004968062043" lon="3.060764009132981">
        <ele>950.88</ele>
        <time>2025-04-25T08:25:06Z</time>
      </trkpt>
      <trkpt lat="44.865958029404283" lon="3.060617996379733">
        <ele>951.84000000000003</ele>
        <time>2025-04-25T08:25:07Z</time>
      </trkpt>
      <trkpt lat="44.865858033299446" lon="3.06031096726656">
        <ele>955.21000000000004</ele>
        <time>2025-04-25T08:25:09Z</time>
      </trkpt>
      <trkpt lat="44.865796007215977" lon="3.060133019462228">
        <ele>956.64999999999998</ele>
        <time>2025-04-25T08:25:10Z</time>
      </trkpt>
      <trkpt lat="44.86567203886807" lon="3.059974014759064">
        <ele>958.57000000000005</ele>
        <time>2025-04-25T08:25:11Z</time>
      </trkpt>
      <trkpt lat="44.864742988720536" lon="3.058745982125402">
        <ele>968.66999999999996</ele>
        <time>2025-04-25T08:25:18Z</time>
      </trkpt>
      <trkpt lat="44.8646239656955" lon="3.058577002957463">
        <ele>969.14999999999998</ele>
        <time>2025-04-25T08:25:19Z</time>
      </trkpt>
      <trkpt lat="44.86453796736896" lon="3.058340968564153">
        <ele>969.63</ele>
        <time>2025-04-25T08:25:20Z</time>
      </trkpt>
      <trkpt lat="44.864519024267793" lon="3.058146005496383">
        <ele>970.59000000000003</ele>
        <time>2025-04-25T08:25:21Z</time>
      </trkpt>
      <trkpt lat="44.864496979862452" lon="3.057892033830285">
        <ele>971.07000000000005</ele>
        <time>2025-04-25T08:25:22Z</time>
      </trkpt>
      <trkpt lat="44.864512989297509" lon="3.05766798555851">
        <ele>972.02999999999997</ele>
        <time>2025-04-25T08:25:23Z</time>
      </trkpt>
      <trkpt lat="44.864594964310527" lon="3.057419965043664">
        <ele>972.50999999999999</ele>
        <time>2025-04-25T08:25:24Z</time>
      </trkpt>
      <trkpt lat="44.864678028970957" lon="3.057217039167881">
        <ele>972.99000000000001</ele>
        <time>2025-04-25T08:25:25Z</time>
      </trkpt>
      <trkpt lat="44.864832004532218" lon="3.057003971189261">
        <ele>973.47000000000003</ele>
        <time>2025-04-25T08:25:26Z</time>
      </trkpt>
      <trkpt lat="44.86498698592186" lon="3.056831974536181">
        <ele>973.47000000000003</ele>
        <time>2025-04-25T08:25:27Z</time>
      </trkpt>
      <trkpt lat="44.865140039473772" lon="3.056662995368242">
        <ele>973.95000000000005</ele>
        <time>2025-04-25T08:25:28Z</time>
      </trkpt>
      <trkpt lat="44.865284962579608" lon="3.056503990665078">
        <ele>973.95000000000005</ele>
        <time>2025-04-25T08:25:29Z</time>
      </trkpt>
      <trkpt lat="44.865419995039701" lon="3.056354038417339">
        <ele>973.95000000000005</ele>
        <time>2025-04-25T08:25:30Z</time>
      </trkpt>
      <trkpt lat="44.865525020286441" lon="3.056238032877445">
        <ele>973.95000000000005</ele>
        <time>2025-04-25T08:25:31Z</time>
      </trkpt>
      <trkpt lat="44.865587968379259" lon="3.056048015132546">
        <ele>973.95000000000005</ele>
        <time>2025-04-25T08:25:32Z</time>
      </trkpt>
      <trkpt lat="44.865654017776251" lon="3.055851040408015">
        <ele>973.95000000000005</ele>
        <time>2025-04-25T08:25:33Z</time>
      </trkpt>
      <trkpt lat="44.865673966705799" lon="3.055616011843085">
        <ele>973.95000000000005</ele>
        <time>2025-04-25T08:25:34Z</time>
      </trkpt>
      <trkpt lat="44.865697016939521" lon="3.055356005206704">
        <ele>973.95000000000005</ele>
        <time>2025-04-25T08:25:35Z</time>
      </trkpt>
      <trkpt lat="44.86584696918726" lon="3.054314972832799">
        <ele>973.95000000000005</ele>
        <time>2025-04-25T08:25:39Z</time>
      </trkpt>
      <trkpt lat="44.865919975563884" lon="3.054067036136985">
        <ele>973.47000000000003</ele>
        <time>2025-04-25T08:25:40Z</time>
      </trkpt>
      <trkpt lat="44.866013014689088" lon="3.0538210272789">
        <ele>972.99000000000001</ele>
        <time>2025-04-25T08:25:41Z</time>
      </trkpt>
      <trkpt lat="44.866132037714124" lon="3.053642995655537">
        <ele>972.50999999999999</ele>
        <time>2025-04-25T08:25:42Z</time>
      </trkpt>
      <trkpt lat="44.866256006062031" lon="3.053469993174076">
        <ele>972.02999999999997</ele>
        <time>2025-04-25T08:25:43Z</time>
      </trkpt>
      <trkpt lat="44.866386009380221" lon="3.053348958492279">
        <ele>972.02999999999997</ele>
        <time>2025-04-25T08:25:44Z</time>
      </trkpt>
      <trkpt lat="44.866514001041651" lon="3.053230019286275">
        <ele>971.54999999999995</ele>
        <time>2025-04-25T08:25:45Z</time>
      </trkpt>
      <trkpt lat="44.866673005744815" lon="3.05315600708127">
        <ele>971.07000000000005</ele>
        <time>2025-04-25T08:25:46Z</time>
      </trkpt>
      <trkpt lat="44.866838967427611" lon="3.05309004150331">
        <ele>970.59000000000003</ele>
        <time>2025-04-25T08:25:47Z</time>
      </trkpt>
      <trkpt lat="44.867009036242962" lon="3.053021980449557">
        <ele>970.59000000000003</ele>
        <time>2025-04-25T08:25:48Z</time>
      </trkpt>
      <trkpt lat="44.867806993424892" lon="3.052668012678623">
        <ele>968.17999999999995</ele>
        <time>2025-04-25T08:25:53Z</time>
      </trkpt>
      <trkpt lat="44.867953006178141" lon="3.052555024623871">
        <ele>967.70000000000005</ele>
        <time>2025-04-25T08:25:54Z</time>
      </trkpt>
      <trkpt lat="44.868679968640208" lon="3.051988994702697">
        <ele>965.29999999999995</ele>
        <time>2025-04-25T08:25:59Z</time>
      </trkpt>
      <trkpt lat="44.868807038292289" lon="3.051805011928082">
        <ele>964.82000000000005</ele>
        <time>2025-04-25T08:26:00Z</time>
      </trkpt>
      <trkpt lat="44.868900999426842" lon="3.051649024710059">
        <ele>964.34000000000003</ele>
        <time>2025-04-25T08:26:01Z</time>
      </trkpt>
      <trkpt lat="44.868980040773749" lon="3.051474010571837">
        <ele>964.34000000000003</ele>
        <time>2025-04-25T08:26:02Z</time>
      </trkpt>
      <trkpt lat="44.869018010795116" lon="3.051253985613585">
        <ele>963.86000000000001</ele>
        <time>2025-04-25T08:26:03Z</time>
      </trkpt>
      <trkpt lat="44.869057992473245" lon="3.051016023382545">
        <ele>963.38</ele>
        <time>2025-04-25T08:26:04Z</time>
      </trkpt>
      <trkpt lat="44.869099985808134" lon="3.05077102035284">
        <ele>963.38</ele>
        <time>2025-04-25T08:26:05Z</time>
      </trkpt>
      <trkpt lat="44.869095040485263" lon="3.0484280269593">
        <ele>959.52999999999997</ele>
        <time>2025-04-25T08:26:14Z</time>
      </trkpt>
      <trkpt lat="44.869048018008471" lon="3.04630296304822">
        <ele>954.25</ele>
        <time>2025-04-25T08:26:22Z</time>
      </trkpt>
      <trkpt lat="44.869107026606798" lon="3.044963032007217">
        <ele>950.88</ele>
        <time>2025-04-25T08:26:27Z</time>
      </trkpt>
      <trkpt lat="44.869072996079922" lon="3.044718028977513">
        <ele>950.39999999999998</ele>
        <time>2025-04-25T08:26:28Z</time>
      </trkpt>
      <trkpt lat="44.869028991088271" lon="3.04445500485599">
        <ele>949.91999999999996</ele>
        <time>2025-04-25T08:26:29Z</time>
      </trkpt>
      <trkpt lat="44.868845008313656" lon="3.042999990284443">
        <ele>946.07000000000005</ele>
        <time>2025-04-25T08:26:34Z</time>
      </trkpt>
      <trkpt lat="44.868863029405475" lon="3.042694972828031">
        <ele>945.11000000000001</ele>
        <time>2025-04-25T08:26:35Z</time>
      </trkpt>
      <trkpt lat="44.868879960849881" lon="3.042388027533889">
        <ele>944.63</ele>
        <time>2025-04-25T08:26:36Z</time>
      </trkpt>
      <trkpt lat="44.869120018556714" lon="3.040378969162703">
        <ele>939.83000000000004</ele>
        <time>2025-04-25T08:26:43Z</time>
      </trkpt>
      <trkpt lat="44.869106020778418" lon="3.04011301137507">
        <ele>939.35000000000002</ele>
        <time>2025-04-25T08:26:44Z</time>
      </trkpt>
      <trkpt lat="44.869066961109638" lon="3.039827020838857">
        <ele>938.86000000000001</ele>
        <time>2025-04-25T08:26:45Z</time>
      </trkpt>
      <trkpt lat="44.868955984711647" lon="3.038999978452921">
        <ele>937.41999999999996</ele>
        <time>2025-04-25T08:26:48Z</time>
      </trkpt>
      <trkpt lat="44.868954978883266" lon="3.038731003180146">
        <ele>936.94000000000005</ele>
        <time>2025-04-25T08:26:49Z</time>
      </trkpt>
      <trkpt lat="44.869003007188439" lon="3.038468984887004">
        <ele>936.46000000000004</ele>
        <time>2025-04-25T08:26:50Z</time>
      </trkpt>
      <trkpt lat="44.869068972766399" lon="3.038218030706048">
        <ele>935.98000000000002</ele>
        <time>2025-04-25T08:26:51Z</time>
      </trkpt>
      <trkpt lat="44.869152959436178" lon="3.037978978827596">
        <ele>935.01999999999998</ele>
        <time>2025-04-25T08:26:52Z</time>
      </trkpt>
      <trkpt lat="44.869258990511298" lon="3.037762977182865">
        <ele>934.05999999999995</ele>
        <time>2025-04-25T08:26:53Z</time>
      </trkpt>
      <trkpt lat="44.869379019364715" lon="3.037562984973192">
        <ele>933.10000000000002</ele>
        <time>2025-04-25T08:26:54Z</time>
      </trkpt>
      <trkpt lat="44.86954003572464" lon="3.037426024675369">
        <ele>931.64999999999998</ele>
        <time>2025-04-25T08:26:55Z</time>
      </trkpt>
      <trkpt lat="44.869710020720959" lon="3.037290992215276">
        <ele>930.69000000000005</ele>
        <time>2025-04-25T08:26:56Z</time>
      </trkpt>
      <trkpt lat="44.86988696269691" lon="3.037188984453678">
        <ele>929.73000000000002</ele>
        <time>2025-04-25T08:26:57Z</time>
      </trkpt>
      <trkpt lat="44.870402030646801" lon="3.036845996975899">
        <ele>927.80999999999995</ele>
        <time>2025-04-25T08:27:00Z</time>
      </trkpt>
      <trkpt lat="44.870545025914907" lon="3.036690009757876">
        <ele>927.80999999999995</ele>
        <time>2025-04-25T08:27:01Z</time>
      </trkpt>
      <trkpt lat="44.87068098038435" lon="3.036539973691106">
        <ele>927.33000000000004</ele>
        <time>2025-04-25T08:27:02Z</time>
      </trkpt>
      <trkpt lat="44.870783993974328" lon="3.036333024501801">
        <ele>926.85000000000002</ele>
        <time>2025-04-25T08:27:03Z</time>
      </trkpt>
      <trkpt lat="44.870857000350952" lon="3.036103025078774">
        <ele>926.85000000000002</ele>
        <time>2025-04-25T08:27:04Z</time>
      </trkpt>
      <trkpt lat="44.870912991464138" lon="3.035847963765264">
        <ele>926.37</ele>
        <time>2025-04-25T08:27:05Z</time>
      </trkpt>
      <trkpt lat="44.870967976748943" lon="3.03558100014925">
        <ele>926.37</ele>
        <time>2025-04-25T08:27:06Z</time>
      </trkpt>
      <trkpt lat="44.8711740039289" lon="3.033229960128665">
        <ele>924.45000000000005</ele>
        <time>2025-04-25T08:27:14Z</time>
      </trkpt>
      <trkpt lat="44.87115397118032" lon="3.031715014949441">
        <ele>921.08000000000004</ele>
        <time>2025-04-25T08:27:19Z</time>
      </trkpt>
      <trkpt lat="44.871100997552276" lon="3.031409997493029">
        <ele>919.63999999999999</ele>
        <time>2025-04-25T08:27:20Z</time>
      </trkpt>
      <trkpt lat="44.870690032839775" lon="3.029232965782285">
        <ele>911.95000000000005</ele>
        <time>2025-04-25T08:27:27Z</time>
      </trkpt>
      <trkpt lat="44.870605040341616" lon="3.028946975246072">
        <ele>911.47000000000003</ele>
        <time>2025-04-25T08:27:28Z</time>
      </trkpt>
      <trkpt lat="44.869396034628153" lon="3.026189999654889">
        <ele>906.65999999999997</ele>
        <time>2025-04-25T08:27:38Z</time>
      </trkpt>
      <trkpt lat="44.868170013651252" lon="3.023569984361529">
        <ele>902.33000000000004</ele>
        <time>2025-04-25T08:27:48Z</time>
      </trkpt>
      <trkpt lat="44.867744967341423" lon="3.022316973656416">
        <ele>897.52999999999997</ele>
        <time>2025-04-25T08:27:53Z</time>
      </trkpt>
      <trkpt lat="44.867655029520392" lon="3.022101977840066">
        <ele>896.09000000000003</ele>
        <time>2025-04-25T08:27:54Z</time>
      </trkpt>
      <trkpt lat="44.867542963474989" lon="3.021922018378973">
        <ele>894.63999999999999</ele>
        <time>2025-04-25T08:27:55Z</time>
      </trkpt>
      <trkpt lat="44.86743601039052" lon="3.021749015897512">
        <ele>893.20000000000005</ele>
        <time>2025-04-25T08:27:56Z</time>
      </trkpt>
      <trkpt lat="44.867309024557471" lon="3.021617000922561">
        <ele>891.75999999999999</ele>
        <time>2025-04-25T08:27:57Z</time>
      </trkpt>
      <trkpt lat="44.867162005975842" lon="3.021482974290848">
        <ele>890.32000000000005</ele>
        <time>2025-04-25T08:27:58Z</time>
      </trkpt>
      <trkpt lat="44.867000989615917" lon="3.0213369615376">
        <ele>888.88</ele>
        <time>2025-04-25T08:27:59Z</time>
      </trkpt>
      <trkpt lat="44.866090966388583" lon="3.020456023514271">
        <ele>879.74000000000001</ele>
        <time>2025-04-25T08:28:05Z</time>
      </trkpt>
      <trkpt lat="44.866034975275397" lon="3.020317973569036">
        <ele>878.77999999999997</ele>
        <time>2025-04-25T08:28:06Z</time>
      </trkpt>
      <trkpt lat="44.866025000810623" lon="3.020198028534651">
        <ele>877.34000000000003</ele>
        <time>2025-04-25T08:28:07Z</time>
      </trkpt>
      <trkpt lat="44.866035981103778" lon="3.02006802521646">
        <ele>876.38</ele>
        <time>2025-04-25T08:28:08Z</time>
      </trkpt>
      <trkpt lat="44.866072023287416" lon="3.019942967221141">
        <ele>875.89999999999998</ele>
        <time>2025-04-25T08:28:09Z</time>
      </trkpt>
      <trkpt lat="44.866158021613955" lon="3.019840037450194">
        <ele>874.94000000000005</ele>
        <time>2025-04-25T08:28:10Z</time>
      </trkpt>
      <trkpt lat="44.866271009668708" lon="3.019783962517977">
        <ele>873.98000000000002</ele>
        <time>2025-04-25T08:28:11Z</time>
      </trkpt>
      <trkpt lat="44.866397995501757" lon="3.019738029688597">
        <ele>873.00999999999999</ele>
        <time>2025-04-25T08:28:12Z</time>
      </trkpt>
      <trkpt lat="44.86683402210474" lon="3.019615989178419">
        <ele>869.64999999999998</ele>
        <time>2025-04-25T08:28:15Z</time>
      </trkpt>
      <trkpt lat="44.866952039301395" lon="3.019513981416822">
        <ele>868.21000000000004</ele>
        <time>2025-04-25T08:28:16Z</time>
      </trkpt>
      <trkpt lat="44.867022028192878" lon="3.019376015290618">
        <ele>867.25</ele>
        <time>2025-04-25T08:28:17Z</time>
      </trkpt>
      <trkpt lat="44.86709201708436" lon="3.019179962575436">
        <ele>866.28999999999996</ele>
        <time>2025-04-25T08:28:18Z</time>
      </trkpt>
      <trkpt lat="44.867125041782856" lon="3.019032021984458">
        <ele>865.32000000000005</ele>
        <time>2025-04-25T08:28:19Z</time>
      </trkpt>
      <trkpt lat="44.867166029289365" lon="3.018848039209843">
        <ele>863.88</ele>
        <time>2025-04-25T08:28:20Z</time>
      </trkpt>
      <trkpt lat="44.867205005139112" lon="3.018670007586479">
        <ele>862.91999999999996</ele>
        <time>2025-04-25T08:28:21Z</time>
      </trkpt>
      <trkpt lat="44.867279017344117" lon="3.018528018146753">
        <ele>861.48000000000002</ele>
        <time>2025-04-25T08:28:22Z</time>
      </trkpt>
      <trkpt lat="44.867367027327418" lon="3.018417041748762">
        <ele>860.03999999999996</ele>
        <time>2025-04-25T08:28:23Z</time>
      </trkpt>
      <trkpt lat="44.867471968755126" lon="3.018360966816545">
        <ele>858.59000000000003</ele>
        <time>2025-04-25T08:28:24Z</time>
      </trkpt>
      <trkpt lat="44.867595015093684" lon="3.018321990966797">
        <ele>857.63</ele>
        <time>2025-04-25T08:28:25Z</time>
      </trkpt>
      <trkpt lat="44.867735998705029" lon="3.018277985975146">
        <ele>856.66999999999996</ele>
        <time>2025-04-25T08:28:26Z</time>
      </trkpt>
      <trkpt lat="44.867890980094671" lon="3.018258037045598">
        <ele>855.23000000000002</ele>
        <time>2025-04-25T08:28:27Z</time>
      </trkpt>
      <trkpt lat="44.868056019768119" lon="3.018258037045598">
        <ele>854.26999999999998</ele>
        <time>2025-04-25T08:28:28Z</time>
      </trkpt>
      <trkpt lat="44.868384003639221" lon="3.018258037045598">
        <ele>850.89999999999998</ele>
        <time>2025-04-25T08:28:30Z</time>
      </trkpt>
      <trkpt lat="44.868543008342385" lon="3.018258037045598">
        <ele>849.46000000000004</ele>
        <time>2025-04-25T08:28:31Z</time>
      </trkpt>
      <trkpt lat="44.868706036359072" lon="3.018213026225567">
        <ele>848.01999999999998</ele>
        <time>2025-04-25T08:28:32Z</time>
      </trkpt>
      <trkpt lat="44.86883201636374" lon="3.018097020685673">
        <ele>846.58000000000004</ele>
        <time>2025-04-25T08:28:33Z</time>
      </trkpt>
      <trkpt lat="44.86896101385355" lon="3.017925024032593">
        <ele>845.62</ele>
        <time>2025-04-25T08:28:34Z</time>
      </trkpt>
      <trkpt lat="44.869023961946368" lon="3.0177260376513">
        <ele>844.17999999999995</ele>
        <time>2025-04-25T08:28:35Z</time>
      </trkpt>
      <trkpt lat="44.869085988029838" lon="3.01749000325799">
        <ele>842.73000000000002</ele>
        <time>2025-04-25T08:28:36Z</time>
      </trkpt>
      <trkpt lat="44.869075007736683" lon="3.017266960814595">
        <ele>841.28999999999996</ele>
        <time>2025-04-25T08:28:37Z</time>
      </trkpt>
      <trkpt lat="44.869064027443528" lon="3.017032016068697">
        <ele>839.85000000000002</ele>
        <time>2025-04-25T08:28:38Z</time>
      </trkpt>
      <trkpt lat="44.869052041321993" lon="3.016780978068709">
        <ele>838.40999999999997</ele>
        <time>2025-04-25T08:28:39Z</time>
      </trkpt>
      <trkpt lat="44.86902697943151" lon="3.016270017251372">
        <ele>835.03999999999996</ele>
        <time>2025-04-25T08:28:41Z</time>
      </trkpt>
      <trkpt lat="44.869054974988103" lon="3.016041023656726">
        <ele>833.60000000000002</ele>
        <time>2025-04-25T08:28:42Z</time>
      </trkpt>
      <trkpt lat="44.869109960272908" lon="3.015811024233699">
        <ele>832.15999999999997</ele>
        <time>2025-04-25T08:28:43Z</time>
      </trkpt>
      <trkpt lat="44.869175003841519" lon="3.015589993447065">
        <ele>830.72000000000003</ele>
        <time>2025-04-25T08:28:44Z</time>
      </trkpt>
      <trkpt lat="44.869279023259878" lon="3.015368040651083">
        <ele>829.26999999999998</ele>
        <time>2025-04-25T08:28:45Z</time>
      </trkpt>
      <trkpt lat="44.870283007621765" lon="3.013567021116614">
        <ele>815.82000000000005</ele>
        <time>2025-04-25T08:28:53Z</time>
      </trkpt>
      <trkpt lat="44.870412005111575" lon="3.013395024463534">
        <ele>813.88999999999999</ele>
        <time>2025-04-25T08:28:54Z</time>
      </trkpt>
      <trkpt lat="44.870543014258146" lon="3.013259992003441">
        <ele>812.45000000000005</ele>
        <time>2025-04-25T08:28:55Z</time>
      </trkpt>
      <trkpt lat="44.87068098038435" lon="3.013167958706617">
        <ele>811.00999999999999</ele>
        <time>2025-04-25T08:28:56Z</time>
      </trkpt>
      <trkpt lat="44.870894970372319" lon="3.013007026165724">
        <ele>808.61000000000001</ele>
        <time>2025-04-25T08:28:58Z</time>
      </trkpt>
      <trkpt lat="44.870952973142266" lon="3.012924967333674">
        <ele>807.63999999999999</ele>
        <time>2025-04-25T08:28:59Z</time>
      </trkpt>
      <trkpt lat="44.870963031426072" lon="3.012836035341024">
        <ele>806.67999999999995</ele>
        <time>2025-04-25T08:29:00Z</time>
      </trkpt>
      <trkpt lat="44.87093998119235" lon="3.012731010094285">
        <ele>806.20000000000005</ele>
        <time>2025-04-25T08:29:01Z</time>
      </trkpt>
      <trkpt lat="44.870865968987346" lon="3.012678036466241">
        <ele>805.72000000000003</ele>
        <time>2025-04-25T08:29:02Z</time>
      </trkpt>
      <trkpt lat="44.870784999802709" lon="3.012674013152719">
        <ele>805.24000000000001</ele>
        <time>2025-04-25T08:29:03Z</time>
      </trkpt>
      <trkpt lat="44.870692966505885" lon="3.012754982337356">
        <ele>804.27999999999997</ele>
        <time>2025-04-25T08:29:04Z</time>
      </trkpt>
      <trkpt lat="44.870581990107894" lon="3.012853972613812">
        <ele>803.79999999999995</ele>
        <time>2025-04-25T08:29:05Z</time>
      </trkpt>
      <trkpt lat="44.870455004274845" lon="3.012966960668564">
        <ele>802.84000000000003</ele>
        <time>2025-04-25T08:29:06Z</time>
      </trkpt>
      <trkpt lat="44.869515979662538" lon="3.01366601139307">
        <ele>797.54999999999995</ele>
        <time>2025-04-25T08:29:12Z</time>
      </trkpt>
      <trkpt lat="44.869366027414799" lon="3.013815963640809">
        <ele>796.59000000000003</ele>
        <time>2025-04-25T08:29:13Z</time>
      </trkpt>
      <trkpt lat="44.869236024096608" lon="3.013993995264173">
        <ele>795.14999999999998</ele>
        <time>2025-04-25T08:29:14Z</time>
      </trkpt>
      <trkpt lat="44.868449969217181" lon="3.015246000140905">
        <ele>787.46000000000004</ele>
        <time>2025-04-25T08:29:20Z</time>
      </trkpt>
      <trkpt lat="44.868267998099327" lon="3.015697030350566">
        <ele>784.57000000000005</ele>
        <time>2025-04-25T08:29:22Z</time>
      </trkpt>
      <trkpt lat="44.868203960359097" lon="3.015920994803309">
        <ele>783.13</ele>
        <time>2025-04-25T08:29:23Z</time>
      </trkpt>
      <trkpt lat="44.868145035579801" lon="3.016125010326505">
        <ele>781.69000000000005</ele>
        <time>2025-04-25T08:29:24Z</time>
      </trkpt>
      <trkpt lat="44.868074962869287" lon="3.016316033899784">
        <ele>780.25</ele>
        <time>2025-04-25T08:29:25Z</time>
      </trkpt>
      <trkpt lat="44.867973038926721" lon="3.016446959227324">
        <ele>778.80999999999995</ele>
        <time>2025-04-25T08:29:26Z</time>
      </trkpt>
      <trkpt lat="44.867850998416543" lon="3.016526000574231">
        <ele>777.36000000000001</ele>
        <time>2025-04-25T08:29:27Z</time>
      </trkpt>
      <trkpt lat="44.867729041725397" lon="3.016551984474063">
        <ele>775.44000000000005</ele>
        <time>2025-04-25T08:29:28Z</time>
      </trkpt>
      <trkpt lat="44.867590991780162" lon="3.016521977260709">
        <ele>773.51999999999998</ele>
        <time>2025-04-25T08:29:29Z</time>
      </trkpt>
      <trkpt lat="44.867452019825578" lon="3.016483001410961">
        <ele>772.08000000000004</ele>
        <time>2025-04-25T08:29:30Z</time>
      </trkpt>
      <trkpt lat="44.867303995415568" lon="3.016398008912802">
        <ele>770.14999999999998</ele>
        <time>2025-04-25T08:29:31Z</time>
      </trkpt>
      <trkpt lat="44.86715697683394" lon="3.016315028071404">
        <ele>768.23000000000002</ele>
        <time>2025-04-25T08:29:32Z</time>
      </trkpt>
      <trkpt lat="44.867000989615917" lon="3.01624302752316">
        <ele>766.78999999999996</ele>
        <time>2025-04-25T08:29:33Z</time>
      </trkpt>
      <trkpt lat="44.866845002397895" lon="3.016259036958218">
        <ele>764.87</ele>
        <time>2025-04-25T08:29:34Z</time>
      </trkpt>
      <trkpt lat="44.866688009351492" lon="3.016274040564895">
        <ele>762.94000000000005</ele>
        <time>2025-04-25T08:29:35Z</time>
      </trkpt>
      <trkpt lat="44.866549959406257" lon="3.016249984502792">
        <ele>761.5</ele>
        <time>2025-04-25T08:29:36Z</time>
      </trkpt>
      <trkpt lat="44.866437977179885" lon="3.016172032803297">
        <ele>759.58000000000004</ele>
        <time>2025-04-25T08:29:37Z</time>
      </trkpt>
      <trkpt lat="44.866357007995248" lon="3.016061978414655">
        <ele>757.65999999999997</ele>
        <time>2025-04-25T08:29:38Z</time>
      </trkpt>
      <trkpt lat="44.866290036588907" lon="3.015883024781942">
        <ele>756.21000000000004</ele>
        <time>2025-04-25T08:29:39Z</time>
      </trkpt>
      <trkpt lat="44.866227004677057" lon="3.015670040622354">
        <ele>755.25</ele>
        <time>2025-04-25T08:29:40Z</time>
      </trkpt>
      <trkpt lat="44.866173025220633" lon="3.015434006229043">
        <ele>753.33000000000004</ele>
        <time>2025-04-25T08:29:41Z</time>
      </trkpt>
      <trkpt lat="44.866114016622305" lon="3.015179028734565">
        <ele>751.88999999999999</ele>
        <time>2025-04-25T08:29:42Z</time>
      </trkpt>
      <trkpt lat="44.866045033559203" lon="3.014913992956281">
        <ele>750.45000000000005</ele>
        <time>2025-04-25T08:29:43Z</time>
      </trkpt>
      <trkpt lat="44.865935984998941" lon="3.014662032946944">
        <ele>748.51999999999998</ele>
        <time>2025-04-25T08:29:44Z</time>
      </trkpt>
      <trkpt lat="44.865280017256737" lon="3.013226967304945">
        <ele>737.47000000000003</ele>
        <time>2025-04-25T08:29:50Z</time>
      </trkpt>
      <trkpt lat="44.865155965089798" lon="3.013102998957038">
        <ele>735.54999999999995</ele>
        <time>2025-04-25T08:29:51Z</time>
      </trkpt>
      <trkpt lat="44.864997966215014" lon="3.013046002015472">
        <ele>733.62</ele>
        <time>2025-04-25T08:29:52Z</time>
      </trkpt>
      <trkpt lat="44.864828987047076" lon="3.013019012287259">
        <ele>731.70000000000005</ele>
        <time>2025-04-25T08:29:53Z</time>
      </trkpt>
      <trkpt lat="44.864659002050757" lon="3.01302001811564">
        <ele>729.77999999999997</ele>
        <time>2025-04-25T08:29:54Z</time>
      </trkpt>
      <trkpt lat="44.864507038146257" lon="3.013078020885587">
        <ele>727.86000000000001</ele>
        <time>2025-04-25T08:29:55Z</time>
      </trkpt>
      <trkpt lat="44.864392960444093" lon="3.013163013383746">
        <ele>725.92999999999995</ele>
        <time>2025-04-25T08:29:56Z</time>
      </trkpt>
      <trkpt lat="44.864280978217721" lon="3.01332201808691">
        <ele>724.49000000000001</ele>
        <time>2025-04-25T08:29:57Z</time>
      </trkpt>
      <trkpt lat="44.86423303373158" lon="3.013474987819791">
        <ele>722.57000000000005</ele>
        <time>2025-04-25T08:29:58Z</time>
      </trkpt>
      <trkpt lat="44.864173019304872" lon="3.01366601139307">
        <ele>721.13</ele>
        <time>2025-04-25T08:29:59Z</time>
      </trkpt>
      <trkpt lat="44.864066988229752" lon="3.013867009431124">
        <ele>720.15999999999997</ele>
        <time>2025-04-25T08:30:00Z</time>
      </trkpt>
      <trkpt lat="44.863958023488522" lon="3.01407496444881">
        <ele>718.72000000000003</ele>
        <time>2025-04-25T08:30:01Z</time>
      </trkpt>
      <trkpt lat="44.863818967714906" lon="3.01424796693027">
        <ele>717.75999999999999</ele>
        <time>2025-04-25T08:30:02Z</time>
      </trkpt>
      <trkpt lat="44.863682007417083" lon="3.014410994946957">
        <ele>716.32000000000005</ele>
        <time>2025-04-25T08:30:03Z</time>
      </trkpt>
      <trkpt lat="44.863545969128609" lon="3.014523983001709">
        <ele>714.88</ele>
        <time>2025-04-25T08:30:04Z</time>
      </trkpt>
      <trkpt lat="44.863430969417095" lon="3.01461098715663">
        <ele>713.91999999999996</ele>
        <time>2025-04-25T08:30:05Z</time>
      </trkpt>
      <trkpt lat="44.86331001855433" lon="3.014620039612055">
        <ele>712.47000000000003</ele>
        <time>2025-04-25T08:30:06Z</time>
      </trkpt>
      <trkpt lat="44.863165011629462" lon="3.01463101990521">
        <ele>711.02999999999997</ele>
        <time>2025-04-25T08:30:07Z</time>
      </trkpt>
      <trkpt lat="44.863054035231471" lon="3.014599001035094">
        <ele>710.07000000000005</ele>
        <time>2025-04-25T08:30:08Z</time>
      </trkpt>
      <trkpt lat="44.862915985286236" lon="3.014558013528585">
        <ele>709.59000000000003</ele>
        <time>2025-04-25T08:30:09Z</time>
      </trkpt>
      <trkpt lat="44.862016020342708" lon="3.01426699385047">
        <ele>708.14999999999998</ele>
        <time>2025-04-25T08:30:16Z</time>
      </trkpt>
      <trkpt lat="44.861919963732362" lon="3.014179989695549">
        <ele>708.14999999999998</ele>
        <time>2025-04-25T08:30:17Z</time>
      </trkpt>
      <trkpt lat="44.861845029518008" lon="3.014067001640797">
        <ele>708.14999999999998</ele>
        <time>2025-04-25T08:30:18Z</time>
      </trkpt>
      <trkpt lat="44.861775962635875" lon="3.013938004150987">
        <ele>708.14999999999998</ele>
        <time>2025-04-25T08:30:19Z</time>
      </trkpt>
      <trkpt lat="44.861729023978114" lon="3.013784028589726">
        <ele>708.14999999999998</ele>
        <time>2025-04-25T08:30:20Z</time>
      </trkpt>
      <trkpt lat="44.861701028421521" lon="3.013605996966362">
        <ele>708.14999999999998</ele>
        <time>2025-04-25T08:30:21Z</time>
      </trkpt>
      <trkpt lat="44.861691975966096" lon="3.013434000313282">
        <ele>708.14999999999998</ele>
        <time>2025-04-25T08:30:22Z</time>
      </trkpt>
      <trkpt lat="44.861684013158083" lon="3.013254962861538">
        <ele>708.63</ele>
        <time>2025-04-25T08:30:23Z</time>
      </trkpt>
      <trkpt lat="44.861665992066264" lon="3.012888003140688">
        <ele>709.59000000000003</ele>
        <time>2025-04-25T08:30:25Z</time>
      </trkpt>
      <trkpt lat="44.861630033701658" lon="3.012737967073917">
        <ele>710.07000000000005</ele>
        <time>2025-04-25T08:30:26Z</time>
      </trkpt>
      <trkpt lat="44.861576976254582" lon="3.012592038139701">
        <ele>710.54999999999995</ele>
        <time>2025-04-25T08:30:27Z</time>
      </trkpt>
      <trkpt lat="44.861498018726707" lon="3.01246102899313">
        <ele>711.02999999999997</ele>
        <time>2025-04-25T08:30:28Z</time>
      </trkpt>
      <trkpt lat="44.861413026228547" lon="3.012357009574771">
        <ele>711.50999999999999</ele>
        <time>2025-04-25T08:30:29Z</time>
      </trkpt>
      <trkpt lat="44.861304983496666" lon="3.01229003816843">
        <ele>711.99000000000001</ele>
        <time>2025-04-25T08:30:30Z</time>
      </trkpt>
      <trkpt lat="44.861196018755436" lon="3.012222982943058">
        <ele>712.47000000000003</ele>
        <time>2025-04-25T08:30:31Z</time>
      </trkpt>
      <trkpt lat="44.861085964366794" lon="3.01218300126493">
        <ele>712.95000000000005</ele>
        <time>2025-04-25T08:30:32Z</time>
      </trkpt>
      <trkpt lat="44.86097096465528" lon="3.012150982394815">
        <ele>713.44000000000005</ele>
        <time>2025-04-25T08:30:33Z</time>
      </trkpt>
      <trkpt lat="44.860854037106037" lon="3.01211804151535">
        <ele>713.91999999999996</ele>
        <time>2025-04-25T08:30:34Z</time>
      </trkpt>
      <trkpt lat="44.859899003058672" lon="3.011844959110022">
        <ele>719.67999999999995</ele>
        <time>2025-04-25T08:30:42Z</time>
      </trkpt>
      <trkpt lat="44.859782997518778" lon="3.01179701462388">
        <ele>720.64999999999998</ele>
        <time>2025-04-25T08:30:43Z</time>
      </trkpt>
      <trkpt lat="44.859671015292406" lon="3.011721996590495">
        <ele>721.61000000000001</ele>
        <time>2025-04-25T08:30:44Z</time>
      </trkpt>
      <trkpt lat="44.85957495868206" lon="3.011614959686995">
        <ele>722.57000000000005</ele>
        <time>2025-04-25T08:30:45Z</time>
      </trkpt>
      <trkpt lat="44.85948896035552" lon="3.011480011045933">
        <ele>723.52999999999997</ele>
        <time>2025-04-25T08:30:46Z</time>
      </trkpt>
      <trkpt lat="44.859414026141167" lon="3.011330980807543">
        <ele>724.49000000000001</ele>
        <time>2025-04-25T08:30:47Z</time>
      </trkpt>
      <trkpt lat="44.859360968694091" lon="3.01115202717483">
        <ele>725.45000000000005</ele>
        <time>2025-04-25T08:30:48Z</time>
      </trkpt>
      <trkpt lat="44.859317969530821" lon="3.010962009429932">
        <ele>725.92999999999995</ele>
        <time>2025-04-25T08:30:49Z</time>
      </trkpt>
      <trkpt lat="44.859298020601273" lon="3.010761011391878">
        <ele>726.88999999999999</ele>
        <time>2025-04-25T08:30:50Z</time>
      </trkpt>
      <trkpt lat="44.85922702588141" lon="3.010139996185899">
        <ele>729.77999999999997</ele>
        <time>2025-04-25T08:30:53Z</time>
      </trkpt>
      <trkpt lat="44.859155025333166" lon="3.009960036724806">
        <ele>730.74000000000001</ele>
        <time>2025-04-25T08:30:54Z</time>
      </trkpt>
      <trkpt lat="44.859050000086427" lon="3.009811006486416">
        <ele>731.22000000000003</ele>
        <time>2025-04-25T08:30:55Z</time>
      </trkpt>
      <trkpt lat="44.858827963471413" lon="3.009526021778584">
        <ele>731.70000000000005</ele>
        <time>2025-04-25T08:30:57Z</time>
      </trkpt>
      <trkpt lat="44.858709024265409" lon="3.009417979046702">
        <ele>732.65999999999997</ele>
        <time>2025-04-25T08:30:58Z</time>
      </trkpt>
      <trkpt lat="44.858588995411992" lon="3.009333992376924">
        <ele>733.13999999999999</ele>
        <time>2025-04-25T08:30:59Z</time>
      </trkpt>
      <trkpt lat="44.858170989900827" lon="3.009169958531857">
        <ele>736.02999999999997</ele>
        <time>2025-04-25T08:31:02Z</time>
      </trkpt>
      <trkpt lat="44.85804601572454" lon="3.009188985452056">
        <ele>736.50999999999999</ele>
        <time>2025-04-25T08:31:03Z</time>
      </trkpt>
      <trkpt lat="44.857923975214362" lon="3.009226033464074">
        <ele>737.47000000000003</ele>
        <time>2025-04-25T08:31:04Z</time>
      </trkpt>
      <trkpt lat="44.857806041836739" lon="3.0092609860003">
        <ele>738.42999999999995</ele>
        <time>2025-04-25T08:31:05Z</time>
      </trkpt>
      <trkpt lat="44.857691964134574" lon="3.009295016527176">
        <ele>739.38999999999999</ele>
        <time>2025-04-25T08:31:06Z</time>
      </trkpt>
      <trkpt lat="44.857586016878486" lon="3.009327035397291">
        <ele>740.35000000000002</ele>
        <time>2025-04-25T08:31:07Z</time>
      </trkpt>
      <trkpt lat="44.857500018551946" lon="3.009353019297123">
        <ele>741.30999999999995</ele>
        <time>2025-04-25T08:31:08Z</time>
      </trkpt>
      <trkpt lat="44.857394993305206" lon="3.009307002648711">
        <ele>742.75999999999999</ele>
        <time>2025-04-25T08:31:09Z</time>
      </trkpt>
      <trkpt lat="44.856757968664169" lon="3.009013971313834">
        <ele>751.40999999999997</ele>
        <time>2025-04-25T08:31:17Z</time>
      </trkpt>
      <trkpt lat="44.856722010299563" lon="3.008966026827693">
        <ele>752.37</ele>
        <time>2025-04-25T08:31:18Z</time>
      </trkpt>
      <trkpt lat="44.856706000864506" lon="3.008944988250732">
        <ele>752.85000000000002</ele>
        <time>2025-04-25T08:31:19Z</time>
      </trkpt>
      <trkpt lat="44.856717986986041" lon="3.008892014622688">
        <ele>753.80999999999995</ele>
        <time>2025-04-25T08:31:20Z</time>
      </trkpt>
      <trkpt lat="44.856717986986041" lon="3.008892014622688">
        <ele>754.76999999999998</ele>
        <time>2025-04-25T08:31:21Z</time>
      </trkpt>
      <trkpt lat="44.856725027784705" lon="3.008861001580954">
        <ele>755.73000000000002</ele>
        <time>2025-04-25T08:31:24Z</time>
      </trkpt>
      <trkpt lat="44.856730978935957" lon="3.008833006024361">
        <ele>756.21000000000004</ele>
        <time>2025-04-25T08:31:25Z</time>
      </trkpt>
      <trkpt lat="44.856742965057492" lon="3.008780032396317">
        <ele>756.69000000000005</ele>
        <time>2025-04-25T08:31:26Z</time>
      </trkpt>
      <trkpt lat="44.856749000027776" lon="3.008752036839724">
        <ele>756.69000000000005</ele>
        <time>2025-04-25T08:31:27Z</time>
      </trkpt>
      <trkpt lat="44.856727961450815" lon="3.008580040186644">
        <ele>757.17999999999995</ele>
        <time>2025-04-25T08:31:28Z</time>
      </trkpt>
      <trkpt lat="44.856764003634453" lon="3.008356997743249">
        <ele>758.13999999999999</ele>
        <time>2025-04-25T08:31:30Z</time>
      </trkpt>
      <trkpt lat="44.856782024726272" lon="3.008245015516877">
        <ele>758.13999999999999</ele>
        <time>2025-04-25T08:31:31Z</time>
      </trkpt>
      <trkpt lat="44.856833992525935" lon="3.007924994453788">
        <ele>757.65999999999997</ele>
        <time>2025-04-25T08:31:34Z</time>
      </trkpt>
      <trkpt lat="44.856850001960993" lon="3.007823992520571">
        <ele>757.65999999999997</ele>
        <time>2025-04-25T08:31:35Z</time>
      </trkpt>
      <trkpt lat="44.856838015839458" lon="3.007725002244115">
        <ele>757.65999999999997</ele>
        <time>2025-04-25T08:31:36Z</time>
      </trkpt>
      <trkpt lat="44.856810020282865" lon="3.007631963118911">
        <ele>757.65999999999997</ele>
        <time>2025-04-25T08:31:37Z</time>
      </trkpt>
      <trkpt lat="44.85678001306951" lon="3.007535990327597">
        <ele>757.65999999999997</ele>
        <time>2025-04-25T08:31:38Z</time>
      </trkpt>
      <trkpt lat="44.856752017512918" lon="3.007443035021424">
        <ele>757.65999999999997</ele>
        <time>2025-04-25T08:31:39Z</time>
      </trkpt>
      <trkpt lat="44.856689991429448" lon="3.007260980084539">
        <ele>757.17999999999995</ele>
        <time>2025-04-25T08:31:41Z</time>
      </trkpt>
      <trkpt lat="44.856186993420124" lon="3.006357997655869">
        <ele>755.73000000000002</ele>
        <time>2025-04-25T08:31:54Z</time>
      </trkpt>
      <trkpt lat="44.856083979830146" lon="3.006283985450864">
        <ele>756.21000000000004</ele>
        <time>2025-04-25T08:31:57Z</time>
      </trkpt>
      <trkpt lat="44.855995969846845" lon="3.006292032077909">
        <ele>756.21000000000004</ele>
        <time>2025-04-25T08:31:58Z</time>
      </trkpt>
      <trkpt lat="44.855940984562039" lon="3.00629697740078">
        <ele>756.21000000000004</ele>
        <time>2025-04-25T08:31:59Z</time>
      </trkpt>
      <trkpt lat="44.855879964306951" lon="3.006303012371063">
        <ele>756.21000000000004</ele>
        <time>2025-04-25T08:32:00Z</time>
      </trkpt>
      <trkpt lat="44.85581299290061" lon="3.006308963522315">
        <ele>756.69000000000005</ele>
        <time>2025-04-25T08:32:01Z</time>
      </trkpt>
      <trkpt lat="44.8556839954108" lon="3.006321033462882">
        <ele>757.17999999999995</ele>
        <time>2025-04-25T08:32:03Z</time>
      </trkpt>
      <trkpt lat="44.855563966557384" lon="3.006326984614134">
        <ele>757.17999999999995</ele>
        <time>2025-04-25T08:32:05Z</time>
      </trkpt>
      <trkpt lat="44.855517027899623" lon="3.006326984614134">
        <ele>756.69000000000005</ele>
        <time>2025-04-25T08:32:06Z</time>
      </trkpt>
      <trkpt lat="44.855477968230844" lon="3.006308041512966">
        <ele>756.21000000000004</ele>
        <time>2025-04-25T08:32:07Z</time>
      </trkpt>
      <trkpt lat="44.85542600043118" lon="3.006270993500948">
        <ele>756.21000000000004</ele>
        <time>2025-04-25T08:32:08Z</time>
      </trkpt>
      <trkpt lat="44.855370009317994" lon="3.00623101182282">
        <ele>756.21000000000004</ele>
        <time>2025-04-25T08:32:09Z</time>
      </trkpt>
      <trkpt lat="44.855324998497963" lon="3.006170997396112">
        <ele>755.73000000000002</ele>
        <time>2025-04-25T08:32:10Z</time>
      </trkpt>
      <trkpt lat="44.855280993506312" lon="3.006095979362726">
        <ele>755.73000000000002</ele>
        <time>2025-04-25T08:32:11Z</time>
      </trkpt>
      <trkpt lat="44.85523397102952" lon="3.006015010178089">
        <ele>755.73000000000002</ele>
        <time>2025-04-25T08:32:12Z</time>
      </trkpt>
      <trkpt lat="44.855188960209489" lon="3.005937980487943">
        <ele>755.73000000000002</ele>
        <time>2025-04-25T08:32:13Z</time>
      </trkpt>
      <trkpt lat="44.854708006605506" lon="3.00515896640718">
        <ele>759.58000000000004</ele>
        <time>2025-04-25T08:32:24Z</time>
      </trkpt>
      <trkpt lat="44.854380022734404" lon="3.004668960347772">
        <ele>763.89999999999998</ele>
        <time>2025-04-25T08:32:32Z</time>
      </trkpt>
      <trkpt lat="44.854297963902354" lon="3.004570975899696">
        <ele>765.35000000000002</ele>
        <time>2025-04-25T08:32:34Z</time>
      </trkpt>
      <trkpt lat="44.854253958910704" lon="3.004518002271652">
        <ele>765.83000000000004</ele>
        <time>2025-04-25T08:32:35Z</time>
      </trkpt>
      <trkpt lat="44.854209031909704" lon="3.004463016986847">
        <ele>766.30999999999995</ele>
        <time>2025-04-25T08:32:36Z</time>
      </trkpt>
      <trkpt lat="44.854121021926403" lon="3.004357991740108">
        <ele>767.26999999999998</ele>
        <time>2025-04-25T08:32:38Z</time>
      </trkpt>
      <trkpt lat="44.854081962257624" lon="3.004310969263315">
        <ele>767.75</ele>
        <time>2025-04-25T08:32:39Z</time>
      </trkpt>
      <trkpt lat="44.853946007788181" lon="3.004181971773505">
        <ele>769.66999999999996</ele>
        <time>2025-04-25T08:32:47Z</time>
      </trkpt>
      <trkpt lat="44.85381399281323" lon="3.004064038395882">
        <ele>768.23000000000002</ele>
        <time>2025-04-25T08:33:08Z</time>
      </trkpt>
      <trkpt lat="44.853739980608225" lon="3.003994971513748">
        <ele>763.41999999999996</ele>
        <time>2025-04-25T08:33:20Z</time>
      </trkpt>
      <trkpt lat="44.853739980608225" lon="3.003994971513748">
        <ele>763.41999999999996</ele>
        <time>2025-04-25T08:33:34Z</time>
      </trkpt>
      <trkpt lat="44.853695975616574" lon="3.004032019525766">
        <ele>720.64999999999998</ele>
        <time>2025-04-25T08:54:52Z</time>
      </trkpt>
      <trkpt lat="44.85370603390038" lon="3.004011986777186">
        <ele>749.49000000000001</ele>
        <time>2025-04-25T08:55:40Z</time>
      </trkpt>
      <trkpt lat="44.853715002536774" lon="3.004025984555483">
        <ele>767.75</ele>
        <time>2025-04-25T08:56:15Z</time>
      </trkpt>
      <trkpt lat="44.853689018636942" lon="3.003949038684368">
        <ele>763.41999999999996</ele>
        <time>2025-04-25T08:56:43Z</time>
      </trkpt>
      <trkpt lat="44.853680972009897" lon="3.003940992057324">
        <ele>762.94000000000005</ele>
        <time>2025-04-25T08:56:45Z</time>
      </trkpt>
      <trkpt lat="44.853667980059981" lon="3.003929005935788">
        <ele>762.94000000000005</ele>
        <time>2025-04-25T08:56:46Z</time>
      </trkpt>
      <trkpt lat="44.853655993938446" lon="3.003918025642633">
        <ele>763.41999999999996</ele>
        <time>2025-04-25T08:56:47Z</time>
      </trkpt>
      <trkpt lat="44.853596985340118" lon="3.00386899150908">
        <ele>764.38999999999999</ele>
        <time>2025-04-25T08:56:59Z</time>
      </trkpt>
      <trkpt lat="44.853438986465335" lon="3.003774024546146">
        <ele>764.87</ele>
        <time>2025-04-25T08:57:04Z</time>
      </trkpt>
      <trkpt lat="44.853380983695388" lon="3.00373999401927">
        <ele>764.87</ele>
        <time>2025-04-25T08:57:05Z</time>
      </trkpt>
      <trkpt lat="44.852945962920785" lon="3.003546036779881">
        <ele>766.30999999999995</ele>
        <time>2025-04-25T08:57:12Z</time>
      </trkpt>
      <trkpt lat="44.852886032313108" lon="3.003520974889398">
        <ele>766.30999999999995</ele>
        <time>2025-04-25T08:57:13Z</time>
      </trkpt>
      <trkpt lat="44.852823000401258" lon="3.003495996817946">
        <ele>766.78999999999996</ele>
        <time>2025-04-25T08:57:14Z</time>
      </trkpt>
      <trkpt lat="44.852027976885438" lon="3.003193996846676">
        <ele>765.35000000000002</ele>
        <time>2025-04-25T08:57:25Z</time>
      </trkpt>
      <trkpt lat="44.85196896828711" lon="3.003174969926477">
        <ele>764.87</ele>
        <time>2025-04-25T08:57:27Z</time>
      </trkpt>
      <trkpt lat="44.851914988830686" lon="3.003156026825309">
        <ele>764.87</ele>
        <time>2025-04-25T08:57:28Z</time>
      </trkpt>
      <trkpt lat="44.851861009374261" lon="3.003139011561871">
        <ele>764.87</ele>
        <time>2025-04-25T08:57:29Z</time>
      </trkpt>
      <trkpt lat="44.851694963872433" lon="3.003064999356866">
        <ele>764.38999999999999</ele>
        <time>2025-04-25T08:57:32Z</time>
      </trkpt>
      <trkpt lat="44.851637966930866" lon="3.003038009628654">
        <ele>764.38999999999999</ele>
        <time>2025-04-25T08:57:33Z</time>
      </trkpt>
      <trkpt lat="44.851578958332539" lon="3.003011019900441">
        <ele>763.89999999999998</ele>
        <time>2025-04-25T08:57:34Z</time>
      </trkpt>
      <trkpt lat="44.851455995813012" lon="3.002954022958875">
        <ele>763.89999999999998</ele>
        <time>2025-04-25T08:57:36Z</time>
      </trkpt>
      <trkpt lat="44.851321969181299" lon="3.002891996875405">
        <ele>763.89999999999998</ele>
        <time>2025-04-25T08:57:38Z</time>
      </trkpt>
      <trkpt lat="44.851233959197998" lon="3.002851009368897">
        <ele>763.89999999999998</ele>
        <time>2025-04-25T08:57:39Z</time>
      </trkpt>
      <trkpt lat="44.851180985569954" lon="3.00281597301364">
        <ele>763.89999999999998</ele>
        <time>2025-04-25T08:57:40Z</time>
      </trkpt>
      <trkpt lat="44.851067997515202" lon="3.002690998837352">
        <ele>763.89999999999998</ele>
        <time>2025-04-25T08:57:42Z</time>
      </trkpt>
      <trkpt lat="44.850534992292523" lon="3.002335019409657">
        <ele>766.30999999999995</ele>
        <time>2025-04-25T08:57:49Z</time>
      </trkpt>
      <trkpt lat="44.850442036986351" lon="3.002262013033032">
        <ele>767.26999999999998</ele>
        <time>2025-04-25T08:57:50Z</time>
      </trkpt>
      <trkpt lat="44.850374981760979" lon="3.002158999443054">
        <ele>767.75</ele>
        <time>2025-04-25T08:57:51Z</time>
      </trkpt>
      <trkpt lat="44.850302981212735" lon="3.002048023045063">
        <ele>768.71000000000004</ele>
        <time>2025-04-25T08:57:52Z</time>
      </trkpt>
      <trkpt lat="44.85022796317935" lon="3.001931011676788">
        <ele>769.19000000000005</ele>
        <time>2025-04-25T08:57:53Z</time>
      </trkpt>
      <trkpt lat="44.850189993157983" lon="3.001769995316863">
        <ele>770.14999999999998</ele>
        <time>2025-04-25T08:57:54Z</time>
      </trkpt>
      <trkpt lat="44.850159985944629" lon="3.001618031412363">
        <ele>771.11000000000001</ele>
        <time>2025-04-25T08:57:55Z</time>
      </trkpt>
      <trkpt lat="44.850150011479855" lon="3.00146397203207">
        <ele>771.60000000000002</ele>
        <time>2025-04-25T08:57:56Z</time>
      </trkpt>
      <trkpt lat="44.850140959024429" lon="3.001308990642428">
        <ele>772.55999999999995</ele>
        <time>2025-04-25T08:57:57Z</time>
      </trkpt>
      <trkpt lat="44.850131990388036" lon="3.001155015081167">
        <ele>773.51999999999998</ele>
        <time>2025-04-25T08:57:58Z</time>
      </trkpt>
      <trkpt lat="44.850122015923262" lon="3.001000033691526">
        <ele>774.48000000000002</ele>
        <time>2025-04-25T08:57:59Z</time>
      </trkpt>
      <trkpt lat="44.850086979568005" lon="3.000876987352967">
        <ele>775.44000000000005</ele>
        <time>2025-04-25T08:58:00Z</time>
      </trkpt>
      <trkpt lat="44.850016990676522" lon="3.000826025381684">
        <ele>776.88</ele>
        <time>2025-04-25T08:58:01Z</time>
      </trkpt>
      <trkpt lat="44.849965022876859" lon="3.000837005674839">
        <ele>778.32000000000005</ele>
        <time>2025-04-25T08:58:02Z</time>
      </trkpt>
      <trkpt lat="44.849899979308248" lon="3.000901965424418">
        <ele>779.28999999999996</ele>
        <time>2025-04-25T08:58:03Z</time>
      </trkpt>
      <trkpt lat="44.849853040650487" lon="3.000985030084848">
        <ele>780.73000000000002</ele>
        <time>2025-04-25T08:58:04Z</time>
      </trkpt>
      <trkpt lat="44.849827978760004" lon="3.001122996211052">
        <ele>782.16999999999996</ele>
        <time>2025-04-25T08:58:05Z</time>
      </trkpt>
      <trkpt lat="44.849801994860172" lon="3.001263979822397">
        <ele>783.13</ele>
        <time>2025-04-25T08:58:06Z</time>
      </trkpt>
      <trkpt lat="44.849746003746986" lon="3.001563968136907">
        <ele>784.57000000000005</ele>
        <time>2025-04-25T08:58:08Z</time>
      </trkpt>
      <trkpt lat="44.849717002362013" lon="3.001723978668451">
        <ele>785.04999999999995</ele>
        <time>2025-04-25T08:58:09Z</time>
      </trkpt>
      <trkpt lat="44.849618012085557" lon="3.001892035827041">
        <ele>785.52999999999997</ele>
        <time>2025-04-25T08:58:10Z</time>
      </trkpt>
      <trkpt lat="44.849522961303592" lon="3.002028996124864">
        <ele>786.01999999999998</ele>
        <time>2025-04-25T08:58:11Z</time>
      </trkpt>
      <trkpt lat="44.849401004612446" lon="3.002162016928196">
        <ele>786.5</ele>
        <time>2025-04-25T08:58:12Z</time>
      </trkpt>
      <trkpt lat="44.849262032657862" lon="3.002262013033032">
        <ele>787.46000000000004</ele>
        <time>2025-04-25T08:58:13Z</time>
      </trkpt>
      <trkpt lat="44.849127000197768" lon="3.002349017187953">
        <ele>787.94000000000005</ele>
        <time>2025-04-25T08:58:14Z</time>
      </trkpt>
      <trkpt lat="44.848858024924994" lon="3.002525959163904">
        <ele>787.94000000000005</ele>
        <time>2025-04-25T08:58:16Z</time>
      </trkpt>
      <trkpt lat="44.84870002605021" lon="3.002540040761232">
        <ele>788.41999999999996</ele>
        <time>2025-04-25T08:58:17Z</time>
      </trkpt>
      <trkpt lat="44.848546972498298" lon="3.002549009397626">
        <ele>788.89999999999998</ele>
        <time>2025-04-25T08:58:18Z</time>
      </trkpt>
      <trkpt lat="44.848397020250559" lon="3.002511961385608">
        <ele>788.89999999999998</ele>
        <time>2025-04-25T08:58:19Z</time>
      </trkpt>
      <trkpt lat="44.848245978355408" lon="3.002453036606312">
        <ele>788.89999999999998</ele>
        <time>2025-04-25T08:58:20Z</time>
      </trkpt>
      <trkpt lat="44.848090996965766" lon="3.002387993037701">
        <ele>789.38</ele>
        <time>2025-04-25T08:58:21Z</time>
      </trkpt>
      <trkpt lat="44.847600990906358" lon="3.002308029681444">
        <ele>792.25999999999999</ele>
        <time>2025-04-25T08:58:24Z</time>
      </trkpt>
      <trkpt lat="44.847425976768136" lon="3.002322027459741">
        <ele>793.71000000000004</ele>
        <time>2025-04-25T08:58:25Z</time>
      </trkpt>
      <trkpt lat="44.847242999821901" lon="3.002336025238037">
        <ele>794.66999999999996</ele>
        <time>2025-04-25T08:58:26Z</time>
      </trkpt>
      <trkpt lat="44.847087012603879" lon="3.00242998637259">
        <ele>796.11000000000001</ele>
        <time>2025-04-25T08:58:27Z</time>
      </trkpt>
      <trkpt lat="44.846918033435941" lon="3.002530988305807">
        <ele>797.07000000000005</ele>
        <time>2025-04-25T08:58:28Z</time>
      </trkpt>
      <trkpt lat="44.846759028732777" lon="3.002654034644365">
        <ele>798.50999999999999</ele>
        <time>2025-04-25T08:58:29Z</time>
      </trkpt>
      <trkpt lat="44.846612010151148" lon="3.002813961356878">
        <ele>799.47000000000003</ele>
        <time>2025-04-25T08:58:30Z</time>
      </trkpt>
      <trkpt lat="44.845380960032344" lon="3.004160011187196">
        <ele>809.09000000000003</ele>
        <time>2025-04-25T08:58:38Z</time>
      </trkpt>
      <trkpt lat="44.844569005072117" lon="3.004914969205856">
        <ele>819.17999999999995</ele>
        <time>2025-04-25T08:58:43Z</time>
      </trkpt>
      <trkpt lat="44.844411006197333" lon="3.004968026652932">
        <ele>821.10000000000002</ele>
        <time>2025-04-25T08:58:44Z</time>
      </trkpt>
      <trkpt lat="44.844274967908859" lon="3.004952017217875">
        <ele>822.54999999999995</ele>
        <time>2025-04-25T08:58:45Z</time>
      </trkpt>
      <trkpt lat="44.844174971804023" lon="3.004931984469295">
        <ele>823.99000000000001</ele>
        <time>2025-04-25T08:58:46Z</time>
      </trkpt>
      <trkpt lat="44.844057038426399" lon="3.004827965050936">
        <ele>825.42999999999995</ele>
        <time>2025-04-25T08:58:47Z</time>
      </trkpt>
      <trkpt lat="44.843958970159292" lon="3.004741966724396">
        <ele>826.87</ele>
        <time>2025-04-25T08:58:48Z</time>
      </trkpt>
      <trkpt lat="44.843868026509881" lon="3.004660997539759">
        <ele>828.30999999999995</ele>
        <time>2025-04-25T08:58:49Z</time>
      </trkpt>
      <trkpt lat="44.843788985162973" lon="3.004580028355122">
        <ele>830.24000000000001</ele>
        <time>2025-04-25T08:58:50Z</time>
      </trkpt>
      <trkpt lat="44.843723019585013" lon="3.004485983401537">
        <ele>831.67999999999995</ele>
        <time>2025-04-25T08:58:51Z</time>
      </trkpt>
      <trkpt lat="44.843439962714911" lon="3.004096979275346">
        <ele>837.92999999999995</ele>
        <time>2025-04-25T08:58:55Z</time>
      </trkpt>
      <trkpt lat="44.84335103072226" lon="3.004033025354147">
        <ele>839.37</ele>
        <time>2025-04-25T08:58:56Z</time>
      </trkpt>
      <trkpt lat="44.843023968860507" lon="3.003806965425611">
        <ele>842.73000000000002</ele>
        <time>2025-04-25T08:58:59Z</time>
      </trkpt>
      <trkpt lat="44.842296000570059" lon="3.003403963521123">
        <ele>846.58000000000004</ele>
        <time>2025-04-25T08:59:04Z</time>
      </trkpt>
      <trkpt lat="44.842175971716642" lon="3.003264991566539">
        <ele>847.53999999999996</ele>
        <time>2025-04-25T08:59:05Z</time>
      </trkpt>
      <trkpt lat="44.842071030288935" lon="3.003099029883742">
        <ele>848.5</ele>
        <time>2025-04-25T08:59:06Z</time>
      </trkpt>
      <trkpt lat="44.841985031962395" lon="3.002898031845689">
        <ele>849.46000000000004</ele>
        <time>2025-04-25T08:59:07Z</time>
      </trkpt>
      <trkpt lat="44.841938009485602" lon="3.002664009109139">
        <ele>850.41999999999996</ele>
        <time>2025-04-25T08:59:08Z</time>
      </trkpt>
      <trkpt lat="44.841934992000461" lon="3.002415988594294">
        <ele>850.89999999999998</ele>
        <time>2025-04-25T08:59:09Z</time>
      </trkpt>
      <trkpt lat="44.841959970071912" lon="3.002166962251067">
        <ele>851.87</ele>
        <time>2025-04-25T08:59:10Z</time>
      </trkpt>
      <trkpt lat="44.842044962570071" lon="3.001939980313182">
        <ele>852.83000000000004</ele>
        <time>2025-04-25T08:59:11Z</time>
      </trkpt>
      <trkpt lat="44.842140013352036" lon="3.001722972840071">
        <ele>853.78999999999996</ele>
        <time>2025-04-25T08:59:12Z</time>
      </trkpt>
      <trkpt lat="44.842235986143351" lon="3.00150303170085">
        <ele>855.71000000000004</ele>
        <time>2025-04-25T08:59:13Z</time>
      </trkpt>
      <trkpt lat="44.842331036925316" lon="3.0012880358845">
        <ele>857.63</ele>
        <time>2025-04-25T08:59:14Z</time>
      </trkpt>
      <trkpt lat="44.842395996674895" lon="3.001059964299202">
        <ele>860.03999999999996</ele>
        <time>2025-04-25T08:59:15Z</time>
      </trkpt>
      <trkpt lat="44.842457016929984" lon="3.000815967097879">
        <ele>861.96000000000004</ele>
        <time>2025-04-25T08:59:16Z</time>
      </trkpt>
      <trkpt lat="44.842479983344674" lon="3.000575993210077">
        <ele>864.36000000000001</ele>
        <time>2025-04-25T08:59:17Z</time>
      </trkpt>
      <trkpt lat="44.842453999444842" lon="3.000338030979037">
        <ele>866.28999999999996</ele>
        <time>2025-04-25T08:59:18Z</time>
      </trkpt>
      <trkpt lat="44.842389961704612" lon="3.000120017677546">
        <ele>868.21000000000004</ele>
        <time>2025-04-25T08:59:19Z</time>
      </trkpt>
      <trkpt lat="44.842282002791762" lon="2.999926982447505">
        <ele>870.61000000000001</ele>
        <time>2025-04-25T08:59:20Z</time>
      </trkpt>
      <trkpt lat="44.842157028615475" lon="2.999740988016129">
        <ele>872.52999999999997</ele>
        <time>2025-04-25T08:59:21Z</time>
      </trkpt>
      <trkpt lat="44.842030964791775" lon="2.999552981927991">
        <ele>874.46000000000004</ele>
        <time>2025-04-25T08:59:22Z</time>
      </trkpt>
      <trkpt lat="44.841908002272248" lon="2.999370004981756">
        <ele>876.38</ele>
        <time>2025-04-25T08:59:23Z</time>
      </trkpt>
      <trkpt lat="44.841444985941052" lon="2.998670032247901">
        <ele>885.99000000000001</ele>
        <time>2025-04-25T08:59:28Z</time>
      </trkpt>
      <trkpt lat="44.841411961242557" lon="2.998536005616188">
        <ele>887.90999999999997</ele>
        <time>2025-04-25T08:59:29Z</time>
      </trkpt>
      <trkpt lat="44.84143802896142" lon="2.99845403060317">
        <ele>889.36000000000001</ele>
        <time>2025-04-25T08:59:30Z</time>
      </trkpt>
      <trkpt lat="44.841483039781451" lon="2.998365014791489">
        <ele>890.32000000000005</ele>
        <time>2025-04-25T08:59:31Z</time>
      </trkpt>
      <trkpt lat="44.841547999531031" lon="2.998344982042909">
        <ele>891.27999999999997</ele>
        <time>2025-04-25T08:59:32Z</time>
      </trkpt>
      <trkpt lat="44.841633997857571" lon="2.998373983427882">
        <ele>892.24000000000001</ele>
        <time>2025-04-25T08:59:33Z</time>
      </trkpt>
      <trkpt lat="44.841728964820504" lon="2.998452018946409">
        <ele>893.67999999999995</ele>
        <time>2025-04-25T08:59:34Z</time>
      </trkpt>
      <trkpt lat="44.84180498868227" lon="2.99860498867929">
        <ele>894.15999999999997</ele>
        <time>2025-04-25T08:59:35Z</time>
      </trkpt>
      <trkpt lat="44.841892998665571" lon="2.998780002817512">
        <ele>895.12</ele>
        <time>2025-04-25T08:59:36Z</time>
      </trkpt>
      <trkpt lat="44.841986959800124" lon="2.998968008905649">
        <ele>896.09000000000003</ele>
        <time>2025-04-25T08:59:37Z</time>
      </trkpt>
      <trkpt lat="44.842093996703625" lon="2.999152997508645">
        <ele>897.04999999999995</ele>
        <time>2025-04-25T08:59:38Z</time>
      </trkpt>
      <trkpt lat="44.842216959223151" lon="2.999229021370411">
        <ele>898.49000000000001</ele>
        <time>2025-04-25T08:59:39Z</time>
      </trkpt>
      <trkpt lat="44.842340005561709" lon="2.999266991391778">
        <ele>898.97000000000003</ele>
        <time>2025-04-25T08:59:40Z</time>
      </trkpt>
      <trkpt lat="44.842444024980068" lon="2.999290963634849">
        <ele>899.45000000000005</ele>
        <time>2025-04-25T08:59:41Z</time>
      </trkpt>
      <trkpt lat="44.842538991943002" lon="2.999312002211809">
        <ele>899.45000000000005</ele>
        <time>2025-04-25T08:59:42Z</time>
      </trkpt>
      <trkpt lat="44.842619961127639" lon="2.999330023303628">
        <ele>899.92999999999995</ele>
        <time>2025-04-25T08:59:43Z</time>
      </trkpt>
      <trkpt lat="44.842677041888237" lon="2.999261040240526">
        <ele>899.92999999999995</ele>
        <time>2025-04-25T08:59:44Z</time>
      </trkpt>
      <trkpt lat="44.842716017737985" lon="2.999203037470579">
        <ele>899.92999999999995</ele>
        <time>2025-04-25T08:59:45Z</time>
      </trkpt>
      <trkpt lat="44.842683998867869" lon="2.999130031093955">
        <ele>900.40999999999997</ele>
        <time>2025-04-25T08:59:46Z</time>
      </trkpt>
      <trkpt lat="44.842650974169374" lon="2.999053001403809">
        <ele>900.88999999999999</ele>
        <time>2025-04-25T08:59:47Z</time>
      </trkpt>
      <trkpt lat="44.842579979449511" lon="2.999032968655229">
        <ele>901.37</ele>
        <time>2025-04-25T08:59:48Z</time>
      </trkpt>
      <trkpt lat="44.842469003051519" lon="2.999002039432526">
        <ele>901.85000000000002</ele>
        <time>2025-04-25T08:59:49Z</time>
      </trkpt>
      <trkpt lat="44.842343023046851" lon="2.998967003077269">
        <ele>902.33000000000004</ele>
        <time>2025-04-25T08:59:50Z</time>
      </trkpt>
      <trkpt lat="44.842214025557041" lon="2.998901959508658">
        <ele>902.82000000000005</ele>
        <time>2025-04-25T08:59:51Z</time>
      </trkpt>
      <trkpt lat="44.842101037502289" lon="2.99877799116075">
        <ele>903.29999999999995</ele>
        <time>2025-04-25T08:59:52Z</time>
      </trkpt>
      <trkpt lat="44.842033982276917" lon="2.998598031699657">
        <ele>904.25999999999999</ele>
        <time>2025-04-25T08:59:53Z</time>
      </trkpt>
      <trkpt lat="44.841964999213815" lon="2.998409019783139">
        <ele>904.74000000000001</ele>
        <time>2025-04-25T08:59:54Z</time>
      </trkpt>
      <trkpt lat="44.841914037242532" lon="2.99817499704659">
        <ele>905.22000000000003</ele>
        <time>2025-04-25T08:59:55Z</time>
      </trkpt>
      <trkpt lat="44.841818986460567" lon="2.9977220389992">
        <ele>906.65999999999997</ele>
        <time>2025-04-25T08:59:57Z</time>
      </trkpt>
      <trkpt lat="44.841601978987455" lon="2.996580004692078">
        <ele>910.99000000000001</ele>
        <time>2025-04-25T09:00:02Z</time>
      </trkpt>
      <trkpt lat="44.84152696095407" lon="2.996387975290418">
        <ele>911.95000000000005</ele>
        <time>2025-04-25T09:00:03Z</time>
      </trkpt>
      <trkpt lat="44.841419002041221" lon="2.996217990294099">
        <ele>912.90999999999997</ele>
        <time>2025-04-25T09:00:04Z</time>
      </trkpt>
      <trkpt lat="44.841285981237888" lon="2.996067032217979">
        <ele>913.87</ele>
        <time>2025-04-25T09:00:05Z</time>
      </trkpt>
      <trkpt lat="44.841142985969782" lon="2.995911967009306">
        <ele>914.83000000000004</ele>
        <time>2025-04-25T09:00:06Z</time>
      </trkpt>
      <trkpt lat="44.840870993211865" lon="2.995571997016668">
        <ele>916.75</ele>
        <time>2025-04-25T09:00:08Z</time>
      </trkpt>
      <trkpt lat="44.840768985450268" lon="2.995351972058415">
        <ele>918.20000000000005</ele>
        <time>2025-04-25T09:00:09Z</time>
      </trkpt>
      <trkpt lat="44.840663960203528" lon="2.995128007605672">
        <ele>919.15999999999997</ele>
        <time>2025-04-25T09:00:10Z</time>
      </trkpt>
      <trkpt lat="44.839770030230284" lon="2.99280202947557">
        <ele>934.53999999999996</ele>
        <time>2025-04-25T09:00:20Z</time>
      </trkpt>
      <trkpt lat="44.839684031903744" lon="2.992636989802122">
        <ele>936.94000000000005</ele>
        <time>2025-04-25T09:00:21Z</time>
      </trkpt>
      <trkpt lat="44.839519998058677" lon="2.992317974567413">
        <ele>939.83000000000004</ele>
        <time>2025-04-25T09:00:23Z</time>
      </trkpt>
      <trkpt lat="44.839400975033641" lon="2.992209009826183">
        <ele>941.75</ele>
        <time>2025-04-25T09:00:24Z</time>
      </trkpt>
      <trkpt lat="44.839273989200592" lon="2.99209401011467">
        <ele>943.19000000000005</ele>
        <time>2025-04-25T09:00:25Z</time>
      </trkpt>
      <trkpt lat="44.83913803473115" lon="2.991970963776112">
        <ele>946.07000000000005</ele>
        <time>2025-04-25T09:00:26Z</time>
      </trkpt>
      <trkpt lat="44.838982969522476" lon="2.991877002641559">
        <ele>948</ele>
        <time>2025-04-25T09:00:27Z</time>
      </trkpt>
      <trkpt lat="44.838812984526157" lon="2.99181698821485">
        <ele>950.39999999999998</ele>
        <time>2025-04-25T09:00:28Z</time>
      </trkpt>
      <trkpt lat="44.838631013408303" lon="2.991789998486638">
        <ele>952.32000000000005</ele>
        <time>2025-04-25T09:00:29Z</time>
      </trkpt>
      <trkpt lat="44.838439989835024" lon="2.991791004315019">
        <ele>954.25</ele>
        <time>2025-04-25T09:00:30Z</time>
      </trkpt>
      <trkpt lat="44.838243015110493" lon="2.991840038448572">
        <ele>956.16999999999996</ele>
        <time>2025-04-25T09:00:31Z</time>
      </trkpt>
      <trkpt lat="44.838049979880452" lon="2.991916984319687">
        <ele>958.09000000000003</ele>
        <time>2025-04-25T09:00:32Z</time>
      </trkpt>
      <trkpt lat="44.837864991277456" lon="2.992018992081285">
        <ele>960.00999999999999</ele>
        <time>2025-04-25T09:00:33Z</time>
      </trkpt>
      <trkpt lat="44.836951028555632" lon="2.99245803616941">
        <ele>969.14999999999998</ele>
        <time>2025-04-25T09:00:39Z</time>
      </trkpt>
      <trkpt lat="44.836785988882184" lon="2.992516960948706">
        <ele>971.07000000000005</ele>
        <time>2025-04-25T09:00:40Z</time>
      </trkpt>
      <trkpt lat="44.836602006107569" lon="2.992507992312312">
        <ele>972.50999999999999</ele>
        <time>2025-04-25T09:00:41Z</time>
      </trkpt>
      <trkpt lat="44.836408970877528" lon="2.992478990927339">
        <ele>974.42999999999995</ele>
        <time>2025-04-25T09:00:42Z</time>
      </trkpt>
      <trkpt lat="44.836216019466519" lon="2.992450995370746">
        <ele>976.36000000000001</ele>
        <time>2025-04-25T09:00:43Z</time>
      </trkpt>
      <trkpt lat="44.836049973964691" lon="2.992368014529347">
        <ele>977.79999999999995</ele>
        <time>2025-04-25T09:00:44Z</time>
      </trkpt>
      <trkpt lat="44.835894992575049" lon="2.992272041738033">
        <ele>979.24000000000001</ele>
        <time>2025-04-25T09:00:45Z</time>
      </trkpt>
      <trkpt lat="44.83574403449893" lon="2.992176990956068">
        <ele>980.67999999999995</ele>
        <time>2025-04-25T09:00:46Z</time>
      </trkpt>
      <trkpt lat="44.835590980947018" lon="2.992081018164754">
        <ele>982.12</ele>
        <time>2025-04-25T09:00:47Z</time>
      </trkpt>
      <trkpt lat="44.835441028699279" lon="2.991973981261253">
        <ele>983.09000000000003</ele>
        <time>2025-04-25T09:00:48Z</time>
      </trkpt>
      <trkpt lat="44.835297027602792" lon="2.991840960457921">
        <ele>983.57000000000005</ele>
        <time>2025-04-25T09:00:49Z</time>
      </trkpt>
      <trkpt lat="44.833824997767806" lon="2.990244962275028">
        <ele>986.45000000000005</ele>
        <time>2025-04-25T09:00:59Z</time>
      </trkpt>
      <trkpt lat="44.832911035045981" lon="2.98897996544838">
        <ele>985.97000000000003</ele>
        <time>2025-04-25T09:01:04Z</time>
      </trkpt>
      <trkpt lat="44.832722023129463" lon="2.988766981288791">
        <ele>985.49000000000001</ele>
        <time>2025-04-25T09:01:05Z</time>
      </trkpt>
      <trkpt lat="44.832511972635984" lon="2.988605964928865">
        <ele>985.49000000000001</ele>
        <time>2025-04-25T09:01:06Z</time>
      </trkpt>
      <trkpt lat="44.832290019840002" lon="2.98846498131752">
        <ele>985.00999999999999</ele>
        <time>2025-04-25T09:01:07Z</time>
      </trkpt>
      <trkpt lat="44.832052979618311" lon="2.988361967727542">
        <ele>985.00999999999999</ele>
        <time>2025-04-25T09:01:08Z</time>
      </trkpt>
      <trkpt lat="44.831806970760226" lon="2.988283010199666">
        <ele>985.00999999999999</ele>
        <time>2025-04-25T09:01:09Z</time>
      </trkpt>
      <trkpt lat="44.829230038449168" lon="2.987555963918567">
        <ele>988.85000000000002</ele>
        <time>2025-04-25T09:01:20Z</time>
      </trkpt>
      <trkpt lat="44.828812032938004" lon="2.987374998629093">
        <ele>990.77999999999997</ele>
        <time>2025-04-25T09:01:22Z</time>
      </trkpt>
      <trkpt lat="44.828616986051202" lon="2.987244995310903">
        <ele>992.22000000000003</ele>
        <time>2025-04-25T09:01:23Z</time>
      </trkpt>
      <trkpt lat="44.828431997448206" lon="2.9870880022645">
        <ele>993.65999999999997</ele>
        <time>2025-04-25T09:01:24Z</time>
      </trkpt>
      <trkpt lat="44.828257989138365" lon="2.98691600561142">
        <ele>995.10000000000002</ele>
        <time>2025-04-25T09:01:25Z</time>
      </trkpt>
      <trkpt lat="44.828109964728355" lon="2.986703021451831">
        <ele>997.01999999999998</ele>
        <time>2025-04-25T09:01:26Z</time>
      </trkpt>
      <trkpt lat="44.827962024137378" lon="2.986488025635481">
        <ele>998.47000000000003</ele>
        <time>2025-04-25T09:01:27Z</time>
      </trkpt>
      <trkpt lat="44.827829003334045" lon="2.986264983192086">
        <ele>1000.39</ele>
        <time>2025-04-25T09:01:28Z</time>
      </trkpt>
      <trkpt lat="44.827714003622532" lon="2.986004976555705">
        <ele>1002.79</ele>
        <time>2025-04-25T09:01:29Z</time>
      </trkpt>
      <trkpt lat="44.827117966488004" lon="2.984241005033255">
        <ele>1016.25</ele>
        <time>2025-04-25T09:01:36Z</time>
      </trkpt>
      <trkpt lat="44.826337024569511" lon="2.982488013803959">
        <ele>1028.75</ele>
        <time>2025-04-25T09:01:44Z</time>
      </trkpt>
      <trkpt lat="44.825056018307805" lon="2.980366973206401">
        <ele>1038.3599999999999</ele>
        <time>2025-04-25T09:01:52Z</time>
      </trkpt>
      <trkpt lat="44.823645008727908" lon="2.978334026411176">
        <ele>1046.05</ele>
        <time>2025-04-25T09:02:00Z</time>
      </trkpt>
      <trkpt lat="44.822634989395738" lon="2.976989988237619">
        <ele>1051.8199999999999</ele>
        <time>2025-04-25T09:02:06Z</time>
      </trkpt>
      <trkpt lat="44.822463998571038" lon="2.976832995191217">
        <ele>1052.78</ele>
        <time>2025-04-25T09:02:07Z</time>
      </trkpt>
      <trkpt lat="44.822297031059861" lon="2.976681031286717">
        <ele>1053.74</ele>
        <time>2025-04-25T09:02:08Z</time>
      </trkpt>
      <trkpt lat="44.822121011093259" lon="2.976571982726455">
        <ele>1054.22</ele>
        <time>2025-04-25T09:02:09Z</time>
      </trkpt>
      <trkpt lat="44.821937028318644" lon="2.976470980793238">
        <ele>1054.7</ele>
        <time>2025-04-25T09:02:10Z</time>
      </trkpt>
      <trkpt lat="44.821728989481926" lon="2.976407026872039">
        <ele>1054.7</ele>
        <time>2025-04-25T09:02:11Z</time>
      </trkpt>
      <trkpt lat="44.821517011150718" lon="2.976342989131808">
        <ele>1054.7</ele>
        <time>2025-04-25T09:02:12Z</time>
      </trkpt>
      <trkpt lat="44.821308972314" lon="2.97632304020226">
        <ele>1055.1800000000001</ele>
        <time>2025-04-25T09:02:13Z</time>
      </trkpt>
      <trkpt lat="44.821082996204495" lon="2.976314993575215">
        <ele>1055.1800000000001</ele>
        <time>2025-04-25T09:02:14Z</time>
      </trkpt>
      <trkpt lat="44.819078966975212" lon="2.976481039077044">
        <ele>1053.26</ele>
        <time>2025-04-25T09:02:23Z</time>
      </trkpt>
      <trkpt lat="44.818074982613325" lon="2.976769041270018">
        <ele>1052.3</ele>
        <time>2025-04-25T09:02:28Z</time>
      </trkpt>
      <trkpt lat="44.817208964377642" lon="2.976806005463004">
        <ele>1048.9400000000001</ele>
        <time>2025-04-25T09:02:33Z</time>
      </trkpt>
      <trkpt lat="44.817052977159619" lon="2.976759988814592">
        <ele>1047.97</ele>
        <time>2025-04-25T09:02:34Z</time>
      </trkpt>
      <trkpt lat="44.816818032413721" lon="2.976692011579871">
        <ele>1045.0899999999999</ele>
        <time>2025-04-25T09:02:36Z</time>
      </trkpt>
      <trkpt lat="44.816751983016729" lon="2.976672984659672">
        <ele>1043.6500000000001</ele>
        <time>2025-04-25T09:02:37Z</time>
      </trkpt>
      <trkpt lat="44.816690962761641" lon="2.976812962442637">
        <ele>1042.21</ele>
        <time>2025-04-25T09:02:38Z</time>
      </trkpt>
      <trkpt lat="44.816648969426751" lon="2.976908013224602">
        <ele>1040.28</ele>
        <time>2025-04-25T09:02:39Z</time>
      </trkpt>
      <trkpt lat="44.816598007455468" lon="2.977022007107735">
        <ele>1039.3199999999999</ele>
        <time>2025-04-25T09:02:40Z</time>
      </trkpt>
      <trkpt lat="44.816519971936941" lon="2.977144969627261">
        <ele>1037.8800000000001</ele>
        <time>2025-04-25T09:02:41Z</time>
      </trkpt>
      <trkpt lat="44.815871967002749" lon="2.978046024218202">
        <ele>1031.1500000000001</ele>
        <time>2025-04-25T09:02:47Z</time>
      </trkpt>
      <trkpt lat="44.815735006704926" lon="2.978120958432555">
        <ele>1030.6700000000001</ele>
        <time>2025-04-25T09:02:48Z</time>
      </trkpt>
      <trkpt lat="44.815636016428471" lon="2.978175021708012">
        <ele>1030.1900000000001</ele>
        <time>2025-04-25T09:02:49Z</time>
      </trkpt>
      <trkpt lat="44.815477011725307" lon="2.978175021708012">
        <ele>1029.23</ele>
        <time>2025-04-25T09:02:50Z</time>
      </trkpt>
      <trkpt lat="44.815332004800439" lon="2.978175021708012">
        <ele>1028.75</ele>
        <time>2025-04-25T09:02:51Z</time>
      </trkpt>
      <trkpt lat="44.815186997875571" lon="2.978175021708012">
        <ele>1028.27</ele>
        <time>2025-04-25T09:02:52Z</time>
      </trkpt>
      <trkpt lat="44.813757967203856" lon="2.977952985092998">
        <ele>1021.0599999999999</ele>
        <time>2025-04-25T09:03:01Z</time>
      </trkpt>
      <trkpt lat="44.8132289852947" lon="2.977915015071631">
        <ele>1019.62</ele>
        <time>2025-04-25T09:03:04Z</time>
      </trkpt>
      <trkpt lat="44.811555035412312" lon="2.978049041703343">
        <ele>1015.77</ele>
        <time>2025-04-25T09:03:13Z</time>
      </trkpt>
      <trkpt lat="44.809671035036445" lon="2.978148031979799">
        <ele>1013.37</ele>
        <time>2025-04-25T09:03:23Z</time>
      </trkpt>
      <trkpt lat="44.809198966249824" lon="2.978148031979799">
        <ele>1012.41</ele>
        <time>2025-04-25T09:03:26Z</time>
      </trkpt>
      <trkpt lat="44.809049014002085" lon="2.978109978139401">
        <ele>1012.41</ele>
        <time>2025-04-25T09:03:27Z</time>
      </trkpt>
      <trkpt lat="44.808908030390739" lon="2.978030014783144">
        <ele>1012.41</ele>
        <time>2025-04-25T09:03:28Z</time>
      </trkpt>
      <trkpt lat="44.808467980474234" lon="2.977778976783156">
        <ele>1014.33</ele>
        <time>2025-04-25T09:03:31Z</time>
      </trkpt>
      <trkpt lat="44.808305036276579" lon="2.977755004540086">
        <ele>1015.29</ele>
        <time>2025-04-25T09:03:32Z</time>
      </trkpt>
      <trkpt lat="44.808127004653215" lon="2.977756010368466">
        <ele>1015.77</ele>
        <time>2025-04-25T09:03:33Z</time>
      </trkpt>
      <trkpt lat="44.80704003944993" lon="2.977961031720042">
        <ele>1019.13</ele>
        <time>2025-04-25T09:03:39Z</time>
      </trkpt>
      <trkpt lat="44.806308969855309" lon="2.978241993114352">
        <ele>1020.1</ele>
        <time>2025-04-25T09:03:43Z</time>
      </trkpt>
      <trkpt lat="44.80611702427268" lon="2.978248028084636">
        <ele>1020.58</ele>
        <time>2025-04-25T09:03:44Z</time>
      </trkpt>
      <trkpt lat="44.805033998563886" lon="2.978447014465928">
        <ele>1020.58</ele>
        <time>2025-04-25T09:03:50Z</time>
      </trkpt>
      <trkpt lat="44.803787022829056" lon="2.978863008320332">
        <ele>1021.0599999999999</ele>
        <time>2025-04-25T09:03:57Z</time>
      </trkpt>
      <trkpt lat="44.803606979548931" lon="2.978889998048544">
        <ele>1021.0599999999999</ele>
        <time>2025-04-25T09:03:58Z</time>
      </trkpt>
      <trkpt lat="44.80343297123909" lon="2.978900978341699">
        <ele>1021.0599999999999</ele>
        <time>2025-04-25T09:03:59Z</time>
      </trkpt>
      <trkpt lat="44.803274972364306" lon="2.978870971128345">
        <ele>1021.54</ele>
        <time>2025-04-25T09:04:00Z</time>
      </trkpt>
      <trkpt lat="44.803114039823413" lon="2.978821014985442">
        <ele>1022.02</ele>
        <time>2025-04-25T09:04:01Z</time>
      </trkpt>
      <trkpt lat="44.802957968786359" lon="2.978729987516999">
        <ele>1022.5</ele>
        <time>2025-04-25T09:04:02Z</time>
      </trkpt>
      <trkpt lat="44.802798964083195" lon="2.978635020554066">
        <ele>1023.46</ele>
        <time>2025-04-25T09:04:03Z</time>
      </trkpt>
      <trkpt lat="44.802660997956991" lon="2.978512980043888">
        <ele>1024.4200000000001</ele>
        <time>2025-04-25T09:04:04Z</time>
      </trkpt>
      <trkpt lat="44.802386993542314" lon="2.978304019197822">
        <ele>1026.8299999999999</ele>
        <time>2025-04-25T09:04:06Z</time>
      </trkpt>
      <trkpt lat="44.802231006324291" lon="2.978238975629211">
        <ele>1027.79</ele>
        <time>2025-04-25T09:04:07Z</time>
      </trkpt>
      <trkpt lat="44.802063032984734" lon="2.978238975629211">
        <ele>1029.23</ele>
        <time>2025-04-25T09:04:08Z</time>
      </trkpt>
      <trkpt lat="44.801886007189751" lon="2.978238975629211">
        <ele>1030.1900000000001</ele>
        <time>2025-04-25T09:04:09Z</time>
      </trkpt>
      <trkpt lat="44.801704036071897" lon="2.978238975629211">
        <ele>1031.6300000000001</ele>
        <time>2025-04-25T09:04:10Z</time>
      </trkpt>
      <trkpt lat="44.801526004448533" lon="2.978180972859263">
        <ele>1032.5899999999999</ele>
        <time>2025-04-25T09:04:11Z</time>
      </trkpt>
      <trkpt lat="44.801340010017157" lon="2.978114001452923">
        <ele>1034.04</ele>
        <time>2025-04-25T09:04:12Z</time>
      </trkpt>
      <trkpt lat="44.800989981740713" lon="2.977988021448255">
        <ele>1036.9200000000001</ele>
        <time>2025-04-25T09:04:14Z</time>
      </trkpt>
      <trkpt lat="44.800812033936381" lon="2.977945022284985">
        <ele>1038.3599999999999</ele>
        <time>2025-04-25T09:04:15Z</time>
      </trkpt>
      <trkpt lat="44.800628973171115" lon="2.977972012013197">
        <ele>1039.8</ele>
        <time>2025-04-25T09:04:16Z</time>
      </trkpt>
      <trkpt lat="44.800439039245248" lon="2.978001013398171">
        <ele>1041.25</ele>
        <time>2025-04-25T09:04:17Z</time>
      </trkpt>
      <trkpt lat="44.800242986530066" lon="2.978031020611525">
        <ele>1042.6900000000001</ele>
        <time>2025-04-25T09:04:18Z</time>
      </trkpt>
      <trkpt lat="44.79964803904295" lon="2.978298990055919">
        <ele>1047.01</ele>
        <time>2025-04-25T09:04:21Z</time>
      </trkpt>
      <trkpt lat="44.799093995243311" lon="2.978581041097641">
        <ele>1051.3399999999999</ele>
        <time>2025-04-25T09:04:24Z</time>
      </trkpt>
      <trkpt lat="44.798945970833302" lon="2.978593027219176">
        <ele>1052.78</ele>
        <time>2025-04-25T09:04:25Z</time>
      </trkpt>
      <trkpt lat="44.798813033849001" lon="2.978604007512331">
        <ele>1054.22</ele>
        <time>2025-04-25T09:04:26Z</time>
      </trkpt>
      <trkpt lat="44.798671966418624" lon="2.978520020842552">
        <ele>1055.6700000000001</ele>
        <time>2025-04-25T09:04:27Z</time>
      </trkpt>
      <trkpt lat="44.798525031656027" lon="2.978433016687632">
        <ele>1057.5899999999999</ele>
        <time>2025-04-25T09:04:28Z</time>
      </trkpt>
      <trkpt lat="44.798369966447353" lon="2.978340983390808">
        <ele>1059.03</ele>
        <time>2025-04-25T09:04:29Z</time>
      </trkpt>
      <trkpt lat="44.79818900115788" lon="2.978252973407507">
        <ele>1060.95</ele>
        <time>2025-04-25T09:04:30Z</time>
      </trkpt>
      <trkpt lat="44.797999989241362" lon="2.978219026699662">
        <ele>1062.3900000000001</ele>
        <time>2025-04-25T09:04:31Z</time>
      </trkpt>
      <trkpt lat="44.796431986615062" lon="2.977740000933409">
        <ele>1072.49</ele>
        <time>2025-04-25T09:04:39Z</time>
      </trkpt>
      <trkpt lat="44.795602010563016" lon="2.97733498737216">
        <ele>1075.3699999999999</ele>
        <time>2025-04-25T09:04:44Z</time>
      </trkpt>
      <trkpt lat="44.795487010851502" lon="2.977230967953801">
        <ele>1075.8499999999999</ele>
        <time>2025-04-25T09:04:45Z</time>
      </trkpt>
      <trkpt lat="44.795365976169705" lon="2.977079004049301">
        <ele>1075.8499999999999</ele>
        <time>2025-04-25T09:04:46Z</time>
      </trkpt>
      <trkpt lat="44.795134970918298" lon="2.976794019341469">
        <ele>1075.8499999999999</ele>
        <time>2025-04-25T09:04:48Z</time>
      </trkpt>
      <trkpt lat="44.79500899091363" lon="2.976638032123447">
        <ele>1076.3299999999999</ele>
        <time>2025-04-25T09:04:49Z</time>
      </trkpt>
      <trkpt lat="44.794867001473904" lon="2.976525966078043">
        <ele>1076.8099999999999</ele>
        <time>2025-04-25T09:04:50Z</time>
      </trkpt>
      <trkpt lat="44.794711014255881" lon="2.97645203769207">
        <ele>1077.29</ele>
        <time>2025-04-25T09:04:51Z</time>
      </trkpt>
      <trkpt lat="44.794565001502633" lon="2.976397974416614">
        <ele>1077.78</ele>
        <time>2025-04-25T09:04:52Z</time>
      </trkpt>
      <trkpt lat="44.794411025941372" lon="2.976426975801587">
        <ele>1078.74</ele>
        <time>2025-04-25T09:04:53Z</time>
      </trkpt>
      <trkpt lat="44.794242968782783" lon="2.976457988843322">
        <ele>1079.22</ele>
        <time>2025-04-25T09:04:54Z</time>
      </trkpt>
      <trkpt lat="44.794084969907999" lon="2.976537030190229">
        <ele>1080.1800000000001</ele>
        <time>2025-04-25T09:04:55Z</time>
      </trkpt>
      <trkpt lat="44.793109986931086" lon="2.977027958258987">
        <ele>1084.02</ele>
        <time>2025-04-25T09:05:02Z</time>
      </trkpt>
      <trkpt lat="44.792673960328102" lon="2.977261980995536">
        <ele>1085.95</ele>
        <time>2025-04-25T09:05:06Z</time>
      </trkpt>
      <trkpt lat="44.792542029172182" lon="2.977295005694032">
        <ele>1085.95</ele>
        <time>2025-04-25T09:05:07Z</time>
      </trkpt>
      <trkpt lat="44.792411020025611" lon="2.977295005694032">
        <ele>1086.4300000000001</ele>
        <time>2025-04-25T09:05:08Z</time>
      </trkpt>
      <trkpt lat="44.792275987565517" lon="2.977277990430594">
        <ele>1086.4300000000001</ele>
        <time>2025-04-25T09:05:09Z</time>
      </trkpt>
      <trkpt lat="44.792147995904088" lon="2.977258963510394">
        <ele>1086.4300000000001</ele>
        <time>2025-04-25T09:05:10Z</time>
      </trkpt>
      <trkpt lat="44.792028972879052" lon="2.977202972397208">
        <ele>1086.4300000000001</ele>
        <time>2025-04-25T09:05:11Z</time>
      </trkpt>
      <trkpt lat="44.791831998154521" lon="2.977060982957482">
        <ele>1086.4300000000001</ele>
        <time>2025-04-25T09:05:13Z</time>
      </trkpt>
      <trkpt lat="44.791740970686078" lon="2.976995017379522">
        <ele>1085.95</ele>
        <time>2025-04-25T09:05:14Z</time>
      </trkpt>
      <trkpt lat="44.791647009551525" lon="2.976956963539124">
        <ele>1085.47</ele>
        <time>2025-04-25T09:05:15Z</time>
      </trkpt>
      <trkpt lat="44.791555982083082" lon="2.976933997124434">
        <ele>1085.47</ele>
        <time>2025-04-25T09:05:16Z</time>
      </trkpt>
      <trkpt lat="44.791450034826994" lon="2.976911030709744">
        <ele>1084.99</ele>
        <time>2025-04-25T09:05:17Z</time>
      </trkpt>
      <trkpt lat="44.791355989873409" lon="2.976961992681027">
        <ele>1084.02</ele>
        <time>2025-04-25T09:05:18Z</time>
      </trkpt>
      <trkpt lat="44.791252976283431" lon="2.977017983794212">
        <ele>1083.54</ele>
        <time>2025-04-25T09:05:19Z</time>
      </trkpt>
      <trkpt lat="44.791146023198962" lon="2.977094007655978">
        <ele>1083.0599999999999</ele>
        <time>2025-04-25T09:05:20Z</time>
      </trkpt>
      <trkpt lat="44.7910369746387" lon="2.977182017639279">
        <ele>1082.5799999999999</ele>
        <time>2025-04-25T09:05:21Z</time>
      </trkpt>
      <trkpt lat="44.790919041261077" lon="2.977275978773832">
        <ele>1082.0999999999999</ele>
        <time>2025-04-25T09:05:22Z</time>
      </trkpt>
      <trkpt lat="44.790791971608996" lon="2.97737798653543">
        <ele>1081.6199999999999</ele>
        <time>2025-04-25T09:05:23Z</time>
      </trkpt>
      <trkpt lat="44.790651993826032" lon="2.977434983476996">
        <ele>1081.1400000000001</ele>
        <time>2025-04-25T09:05:24Z</time>
      </trkpt>
      <trkpt lat="44.790501035749912" lon="2.977477982640266">
        <ele>1080.6600000000001</ele>
        <time>2025-04-25T09:05:25Z</time>
      </trkpt>
      <trkpt lat="44.790340019389987" lon="2.977502038702369">
        <ele>1080.1800000000001</ele>
        <time>2025-04-25T09:05:26Z</time>
      </trkpt>
      <trkpt lat="44.790170034393668" lon="2.977528022602201">
        <ele>1080.1800000000001</ele>
        <time>2025-04-25T09:05:27Z</time>
      </trkpt>
      <trkpt lat="44.78813398629427" lon="2.97782801091671">
        <ele>1087.8699999999999</ele>
        <time>2025-04-25T09:05:38Z</time>
      </trkpt>
      <trkpt lat="44.786445032805204" lon="2.977698007598519">
        <ele>1097.48</ele>
        <time>2025-04-25T09:05:47Z</time>
      </trkpt>
      <trkpt lat="44.785582032054663" lon="2.977595999836922">
        <ele>1105.1700000000001</ele>
        <time>2025-04-25T09:05:54Z</time>
      </trkpt>
      <trkpt lat="44.785327976569533" lon="2.977485023438931">
        <ele>1108.54</ele>
        <time>2025-04-25T09:05:58Z</time>
      </trkpt>
      <trkpt lat="44.785279026255012" lon="2.977454010397196">
        <ele>1109.02</ele>
        <time>2025-04-25T09:05:59Z</time>
      </trkpt>
      <trkpt lat="44.785223035141826" lon="2.977418974041939">
        <ele>1110.46</ele>
        <time>2025-04-25T09:06:00Z</time>
      </trkpt>
      <trkpt lat="44.785178024321795" lon="2.977390978485346">
        <ele>1111.4200000000001</ele>
        <time>2025-04-25T09:06:01Z</time>
      </trkpt>
      <trkpt lat="44.785149022936821" lon="2.977373041212559">
        <ele>1111.9000000000001</ele>
        <time>2025-04-25T09:06:02Z</time>
      </trkpt>
      <trkpt lat="44.785123961046338" lon="2.977357031777501">
        <ele>1112.8599999999999</ele>
        <time>2025-04-25T09:06:03Z</time>
      </trkpt>
      <trkpt lat="44.785093031823635" lon="2.977338004857302">
        <ele>1113.8199999999999</ele>
        <time>2025-04-25T09:06:04Z</time>
      </trkpt>
      <trkpt lat="44.785060007125139" lon="2.977316966280341">
        <ele>1114.79</ele>
        <time>2025-04-25T09:06:05Z</time>
      </trkpt>
      <trkpt lat="44.785024970769882" lon="2.977284025400877">
        <ele>1116.23</ele>
        <time>2025-04-25T09:06:06Z</time>
      </trkpt>
      <trkpt lat="44.784979037940502" lon="2.977241026237607">
        <ele>1118.1500000000001</ele>
        <time>2025-04-25T09:06:08Z</time>
      </trkpt>
      <trkpt lat="44.784962022677064" lon="2.977224010974169">
        <ele>1118.6300000000001</ele>
        <time>2025-04-25T09:06:09Z</time>
      </trkpt>
      <trkpt lat="44.784947019070387" lon="2.977210013195872">
        <ele>1119.1099999999999</ele>
        <time>2025-04-25T09:06:10Z</time>
      </trkpt>
      <trkpt lat="44.78493302129209" lon="2.977197021245956">
        <ele>1120.0699999999999</ele>
        <time>2025-04-25T09:06:11Z</time>
      </trkpt>
      <trkpt lat="44.78493302129209" lon="2.977197021245956">
        <ele>1120.0699999999999</ele>
        <time>2025-04-25T09:06:12Z</time>
      </trkpt>
      <trkpt lat="44.784922040998936" lon="2.977186962962151">
        <ele>1120.55</ele>
        <time>2025-04-25T09:06:25Z</time>
      </trkpt>
      <trkpt lat="44.785359995439649" lon="2.977346973493695">
        <ele>1124.8800000000001</ele>
        <time>2025-04-25T09:33:25Z</time>
      </trkpt>
      <trkpt lat="44.784874012693763" lon="2.977100964635611">
        <ele>1113.3399999999999</ele>
        <time>2025-04-25T09:33:53Z</time>
      </trkpt>
      <trkpt lat="44.78489002212882" lon="2.977106999605894">
        <ele>1114.79</ele>
        <time>2025-04-25T09:34:16Z</time>
      </trkpt>
      <trkpt lat="44.784747026860714" lon="2.977021001279354">
        <ele>1113.8199999999999</ele>
        <time>2025-04-25T09:34:22Z</time>
      </trkpt>
      <trkpt lat="44.784663040190935" lon="2.976941037923098">
        <ele>1113.3399999999999</ele>
        <time>2025-04-25T09:34:23Z</time>
      </trkpt>
      <trkpt lat="44.784057028591633" lon="2.976084994152188">
        <ele>1113.8199999999999</ele>
        <time>2025-04-25T09:34:29Z</time>
      </trkpt>
      <trkpt lat="44.783972958102822" lon="2.975906040519476">
        <ele>1113.8199999999999</ele>
        <time>2025-04-25T09:34:30Z</time>
      </trkpt>
      <trkpt lat="44.783498039469123" lon="2.974700974300504">
        <ele>1113.3399999999999</ele>
        <time>2025-04-25T09:34:37Z</time>
      </trkpt>
      <trkpt lat="44.783416986465454" lon="2.97458496876061">
        <ele>1113.3399999999999</ele>
        <time>2025-04-25T09:34:38Z</time>
      </trkpt>
      <trkpt lat="44.783298969268799" lon="2.974522020667791">
        <ele>1113.8199999999999</ele>
        <time>2025-04-25T09:34:39Z</time>
      </trkpt>
      <trkpt lat="44.783161003142595" lon="2.974479021504521">
        <ele>1115.27</ele>
        <time>2025-04-25T09:34:40Z</time>
      </trkpt>
      <trkpt lat="44.783014990389347" lon="2.974466029554606">
        <ele>1116.23</ele>
        <time>2025-04-25T09:34:41Z</time>
      </trkpt>
      <trkpt lat="44.782865960150957" lon="2.974452031776309">
        <ele>1117.1900000000001</ele>
        <time>2025-04-25T09:34:42Z</time>
      </trkpt>
      <trkpt lat="44.782584998756647" lon="2.974426969885826">
        <ele>1118.6300000000001</ele>
        <time>2025-04-25T09:34:44Z</time>
      </trkpt>
      <trkpt lat="44.782448038458824" lon="2.974387994036079">
        <ele>1119.5899999999999</ele>
        <time>2025-04-25T09:34:45Z</time>
      </trkpt>
      <trkpt lat="44.781572967767715" lon="2.973862029612064">
        <ele>1123.4400000000001</ele>
        <time>2025-04-25T09:34:51Z</time>
      </trkpt>
      <trkpt lat="44.781422009691596" lon="2.973740994930267">
        <ele>1123.9200000000001</ele>
        <time>2025-04-25T09:34:52Z</time>
      </trkpt>
      <trkpt lat="44.781275996938348" lon="2.973584001883864">
        <ele>1124.4000000000001</ele>
        <time>2025-04-25T09:34:53Z</time>
      </trkpt>
      <trkpt lat="44.780691023916006" lon="2.973021995276213">
        <ele>1123.9200000000001</ele>
        <time>2025-04-25T09:34:57Z</time>
      </trkpt>
      <trkpt lat="44.780555991455913" lon="2.972982013598084">
        <ele>1123.4400000000001</ele>
        <time>2025-04-25T09:34:58Z</time>
      </trkpt>
      <trkpt lat="44.780407967045903" lon="2.972982013598084">
        <ele>1122.96</ele>
        <time>2025-04-25T09:34:59Z</time>
      </trkpt>
      <trkpt lat="44.780251979827881" lon="2.972995005548">
        <ele>1122.96</ele>
        <time>2025-04-25T09:35:00Z</time>
      </trkpt>
      <trkpt lat="44.780088029801846" lon="2.973043033853173">
        <ele>1122</ele>
        <time>2025-04-25T09:35:01Z</time>
      </trkpt>
      <trkpt lat="44.778613988310099" lon="2.973479982465506">
        <ele>1116.71</ele>
        <time>2025-04-25T09:35:09Z</time>
      </trkpt>
      <trkpt lat="44.77846504189074" lon="2.973557012155652">
        <ele>1115.75</ele>
        <time>2025-04-25T09:35:10Z</time>
      </trkpt>
      <trkpt lat="44.778322968631983" lon="2.973649967461824">
        <ele>1114.79</ele>
        <time>2025-04-25T09:35:11Z</time>
      </trkpt>
      <trkpt lat="44.778185002505779" lon="2.973740994930267">
        <ele>1114.3099999999999</ele>
        <time>2025-04-25T09:35:12Z</time>
      </trkpt>
      <trkpt lat="44.778048964217305" lon="2.973830010741949">
        <ele>1113.8199999999999</ele>
        <time>2025-04-25T09:35:13Z</time>
      </trkpt>
      <trkpt lat="44.777906974777579" lon="2.973904022946954">
        <ele>1112.8599999999999</ele>
        <time>2025-04-25T09:35:14Z</time>
      </trkpt>
      <trkpt lat="44.777752999216318" lon="2.973902011290193">
        <ele>1112.3800000000001</ele>
        <time>2025-04-25T09:35:15Z</time>
      </trkpt>
      <trkpt lat="44.77758402004838" lon="2.973899999633431">
        <ele>1111.9000000000001</ele>
        <time>2025-04-25T09:35:16Z</time>
      </trkpt>
      <trkpt lat="44.776085000485182" lon="2.973997984081507">
        <ele>1112.3800000000001</ele>
        <time>2025-04-25T09:35:24Z</time>
      </trkpt>
      <trkpt lat="44.77481497451663" lon="2.974328985437751">
        <ele>1117.6700000000001</ele>
        <time>2025-04-25T09:35:31Z</time>
      </trkpt>
      <trkpt lat="44.774665022268891" lon="2.974292021244764">
        <ele>1117.6700000000001</ele>
        <time>2025-04-25T09:35:32Z</time>
      </trkpt>
      <trkpt lat="44.77451297454536" lon="2.974223960191011">
        <ele>1117.6700000000001</ele>
        <time>2025-04-25T09:35:33Z</time>
      </trkpt>
      <trkpt lat="44.773736977949739" lon="2.973783994093537">
        <ele>1118.1500000000001</ele>
        <time>2025-04-25T09:35:38Z</time>
      </trkpt>
      <trkpt lat="44.773605968803167" lon="2.973670000210404">
        <ele>1118.6300000000001</ele>
        <time>2025-04-25T09:35:39Z</time>
      </trkpt>
      <trkpt lat="44.773486023768783" lon="2.973519964143634">
        <ele>1118.6300000000001</ele>
        <time>2025-04-25T09:35:40Z</time>
      </trkpt>
      <trkpt lat="44.773364989086986" lon="2.973368000239134">
        <ele>1118.6300000000001</ele>
        <time>2025-04-25T09:35:41Z</time>
      </trkpt>
      <trkpt lat="44.773241020739079" lon="2.973168008029461">
        <ele>1118.1500000000001</ele>
        <time>2025-04-25T09:35:42Z</time>
      </trkpt>
      <trkpt lat="44.772533001378179" lon="2.972039971500635">
        <ele>1113.8199999999999</ele>
        <time>2025-04-25T09:35:48Z</time>
      </trkpt>
      <trkpt lat="44.772420013323426" lon="2.971914997324348">
        <ele>1112.8599999999999</ele>
        <time>2025-04-25T09:35:49Z</time>
      </trkpt>
      <trkpt lat="44.772305013611913" lon="2.971837967634201">
        <ele>1111.9000000000001</ele>
        <time>2025-04-25T09:35:50Z</time>
      </trkpt>
      <trkpt lat="44.772161012515426" lon="2.971818018704653">
        <ele>1110.9400000000001</ele>
        <time>2025-04-25T09:35:51Z</time>
      </trkpt>
      <trkpt lat="44.771996978670359" lon="2.971795974299312">
        <ele>1109.5</ele>
        <time>2025-04-25T09:35:52Z</time>
      </trkpt>
      <trkpt lat="44.771818025037646" lon="2.971783988177776">
        <ele>1108.54</ele>
        <time>2025-04-25T09:35:53Z</time>
      </trkpt>
      <trkpt lat="44.770286986604333" lon="2.971861017867923">
        <ele>1099.4000000000001</ele>
        <time>2025-04-25T09:36:01Z</time>
      </trkpt>
      <trkpt lat="44.769773008301854" lon="2.971937963739038">
        <ele>1097.48</ele>
        <time>2025-04-25T09:36:04Z</time>
      </trkpt>
      <trkpt lat="44.76961400359869" lon="2.971993032842875">
        <ele>1097</ele>
        <time>2025-04-25T09:36:05Z</time>
      </trkpt>
      <trkpt lat="44.769459022209048" lon="2.972069978713989">
        <ele>1096.52</ele>
        <time>2025-04-25T09:36:06Z</time>
      </trkpt>
      <trkpt lat="44.769299011677504" lon="2.972150025889278">
        <ele>1096.52</ele>
        <time>2025-04-25T09:36:07Z</time>
      </trkpt>
      <trkpt lat="44.769140006974339" lon="2.972229989245534">
        <ele>1097</ele>
        <time>2025-04-25T09:36:08Z</time>
      </trkpt>
      <trkpt lat="44.768570037558675" lon="2.972514973953366">
        <ele>1097.96</ele>
        <time>2025-04-25T09:36:12Z</time>
      </trkpt>
      <trkpt lat="44.767488017678261" lon="2.97275603748858">
        <ele>1097.96</ele>
        <time>2025-04-25T09:36:20Z</time>
      </trkpt>
      <trkpt lat="44.767284002155066" lon="2.972828038036823">
        <ele>1097</ele>
        <time>2025-04-25T09:36:22Z</time>
      </trkpt>
      <trkpt lat="44.767107982188463" lon="2.972963992506266">
        <ele>1097</ele>
        <time>2025-04-25T09:36:24Z</time>
      </trkpt>
      <trkpt lat="44.767045034095645" lon="2.97303699888289">
        <ele>1097</ele>
        <time>2025-04-25T09:36:25Z</time>
      </trkpt>
      <trkpt lat="44.767005974426866" lon="2.973154010251164">
        <ele>1096.52</ele>
        <time>2025-04-25T09:36:26Z</time>
      </trkpt>
      <trkpt lat="44.766982002183795" lon="2.973285019397736">
        <ele>1096.04</ele>
        <time>2025-04-25T09:36:27Z</time>
      </trkpt>
      <trkpt lat="44.766963981091976" lon="2.973434971645474">
        <ele>1096.04</ele>
        <time>2025-04-25T09:36:28Z</time>
      </trkpt>
      <trkpt lat="44.766946965828538" lon="2.973581990227103">
        <ele>1095.5599999999999</ele>
        <time>2025-04-25T09:36:29Z</time>
      </trkpt>
      <trkpt lat="44.766931040212512" lon="2.973723979666829">
        <ele>1094.5999999999999</ele>
        <time>2025-04-25T09:36:30Z</time>
      </trkpt>
      <trkpt lat="44.766867002472281" lon="2.973824981600046">
        <ele>1094.1199999999999</ele>
        <time>2025-04-25T09:36:31Z</time>
      </trkpt>
      <trkpt lat="44.76679902523756" lon="2.973905028775334">
        <ele>1094.1199999999999</ele>
        <time>2025-04-25T09:36:32Z</time>
      </trkpt>
      <trkpt lat="44.766714032739401" lon="2.973937969654799">
        <ele>1094.1199999999999</ele>
        <time>2025-04-25T09:36:33Z</time>
      </trkpt>
      <trkpt lat="44.766611019149423" lon="2.973979040980339">
        <ele>1094.1199999999999</ele>
        <time>2025-04-25T09:36:34Z</time>
      </trkpt>
      <trkpt lat="44.765664031729102" lon="2.974421018734574">
        <ele>1098.9200000000001</ele>
        <time>2025-04-25T09:36:41Z</time>
      </trkpt>
      <trkpt lat="44.765176037326455" lon="2.974666021764278">
        <ele>1103.25</ele>
        <time>2025-04-25T09:36:44Z</time>
      </trkpt>
      <trkpt lat="44.765028012916446" lon="2.974802982062101">
        <ele>1104.6900000000001</ele>
        <time>2025-04-25T09:36:45Z</time>
      </trkpt>
      <trkpt lat="44.763676011934876" lon="2.975930012762547">
        <ele>1118.1500000000001</ele>
        <time>2025-04-25T09:36:54Z</time>
      </trkpt>
      <trkpt lat="44.76256700232625" lon="2.97675303183496">
        <ele>1124.8800000000001</ele>
        <time>2025-04-25T09:37:02Z</time>
      </trkpt>
      <trkpt lat="44.762314958497882" lon="2.976883035153151">
        <ele>1127.76</ele>
        <time>2025-04-25T09:37:07Z</time>
      </trkpt>
      <trkpt lat="44.762295009568334" lon="2.976894015446305">
        <ele>1128.73</ele>
        <time>2025-04-25T09:37:18Z</time>
      </trkpt>
      <trkpt lat="44.762080013751984" lon="2.977042961865664">
        <ele>1131.1300000000001</ele>
        <time>2025-04-25T09:37:35Z</time>
      </trkpt>
      <trkpt lat="44.762033997103572" lon="2.977095013484359">
        <ele>1131.6099999999999</ele>
        <time>2025-04-25T09:37:36Z</time>
      </trkpt>
      <trkpt lat="44.76198404096067" lon="2.977151004597545">
        <ele>1132.0899999999999</ele>
        <time>2025-04-25T09:37:37Z</time>
      </trkpt>
      <trkpt lat="44.761951016262174" lon="2.977214958518744">
        <ele>1132.5699999999999</ele>
        <time>2025-04-25T09:37:38Z</time>
      </trkpt>
      <trkpt lat="44.761913968250155" lon="2.977306991815567">
        <ele>1133.05</ele>
        <time>2025-04-25T09:37:39Z</time>
      </trkpt>
      <trkpt lat="44.761872980743647" lon="2.977410005405545">
        <ele>1133.05</ele>
        <time>2025-04-25T09:37:40Z</time>
      </trkpt>
      <trkpt lat="44.761832999065518" lon="2.977520981803536">
        <ele>1133.05</ele>
        <time>2025-04-25T09:37:41Z</time>
      </trkpt>
      <trkpt lat="44.761797040700912" lon="2.977659031748772">
        <ele>1133.05</ele>
        <time>2025-04-25T09:37:42Z</time>
      </trkpt>
      <trkpt lat="44.761540973559022" lon="2.97866796143353">
        <ele>1133.05</ele>
        <time>2025-04-25T09:37:49Z</time>
      </trkpt>
      <trkpt lat="44.761450029909611" lon="2.978743985295296">
        <ele>1133.05</ele>
        <time>2025-04-25T09:37:50Z</time>
      </trkpt>
      <trkpt lat="44.761379035189748" lon="2.978782961145043">
        <ele>1133.53</ele>
        <time>2025-04-25T09:37:51Z</time>
      </trkpt>
      <trkpt lat="44.761204021051526" lon="2.978825038298965">
        <ele>1134.97</ele>
        <time>2025-04-25T09:37:53Z</time>
      </trkpt>
      <trkpt lat="44.761109976097941" lon="2.978846998885274">
        <ele>1135.9400000000001</ele>
        <time>2025-04-25T09:37:54Z</time>
      </trkpt>
      <trkpt lat="44.761010985821486" lon="2.978851022198796">
        <ele>1136.4200000000001</ele>
        <time>2025-04-25T09:37:55Z</time>
      </trkpt>
      <trkpt lat="44.76024404168129" lon="2.978593027219176">
        <ele>1138.3399999999999</ele>
        <time>2025-04-25T09:38:03Z</time>
      </trkpt>
      <trkpt lat="44.760082019492984" lon="2.978561008349061">
        <ele>1138.3399999999999</ele>
        <time>2025-04-25T09:38:05Z</time>
      </trkpt>
      <trkpt lat="44.760013036429882" lon="2.97858003526926">
        <ele>1138.8199999999999</ele>
        <time>2025-04-25T09:38:06Z</time>
      </trkpt>
      <trkpt lat="44.759942963719368" lon="2.978598978370428">
        <ele>1139.3</ele>
        <time>2025-04-25T09:38:07Z</time>
      </trkpt>
      <trkpt lat="44.759888984262943" lon="2.978613981977105">
        <ele>1139.3</ele>
        <time>2025-04-25T09:38:08Z</time>
      </trkpt>
      <trkpt lat="44.759841961786151" lon="2.978621022775769">
        <ele>1139.78</ele>
        <time>2025-04-25T09:38:09Z</time>
      </trkpt>
      <trkpt lat="44.759802985936403" lon="2.978578023612499">
        <ele>1139.78</ele>
        <time>2025-04-25T09:38:10Z</time>
      </trkpt>
      <trkpt lat="44.759754035621881" lon="2.978523960337043">
        <ele>1140.26</ele>
        <time>2025-04-25T09:38:11Z</time>
      </trkpt>
      <trkpt lat="44.759697038680315" lon="2.978462018072605">
        <ele>1140.26</ele>
        <time>2025-04-25T09:38:12Z</time>
      </trkpt>
      <trkpt lat="44.759638030081987" lon="2.978397980332375">
        <ele>1140.26</ele>
        <time>2025-04-25T09:38:13Z</time>
      </trkpt>
      <trkpt lat="44.759499980136752" lon="2.978346012532711">
        <ele>1139.78</ele>
        <time>2025-04-25T09:38:15Z</time>
      </trkpt>
      <trkpt lat="44.759421022608876" lon="2.978330003097653">
        <ele>1139.3</ele>
        <time>2025-04-25T09:38:16Z</time>
      </trkpt>
      <trkpt lat="44.75844101049006" lon="2.978196982294321">
        <ele>1132.0899999999999</ele>
        <time>2025-04-25T09:38:25Z</time>
      </trkpt>
      <trkpt lat="44.757018014788628" lon="2.978197988122702">
        <ele>1122.96</ele>
        <time>2025-04-25T09:38:35Z</time>
      </trkpt>
      <trkpt lat="44.756012018769979" lon="2.977975029498339">
        <ele>1111.9000000000001</ele>
        <time>2025-04-25T09:38:43Z</time>
      </trkpt>
      <trkpt lat="44.755932977423072" lon="2.977905040606856">
        <ele>1110.9400000000001</ele>
        <time>2025-04-25T09:38:44Z</time>
      </trkpt>
      <trkpt lat="44.75586399435997" lon="2.977818958461285">
        <ele>1109.5</ele>
        <time>2025-04-25T09:38:45Z</time>
      </trkpt>
      <trkpt lat="44.755723010748625" lon="2.977587031200528">
        <ele>1107.5799999999999</ele>
        <time>2025-04-25T09:38:47Z</time>
      </trkpt>
      <trkpt lat="44.755654027685523" lon="2.977473959326744">
        <ele>1106.1300000000001</ele>
        <time>2025-04-25T09:38:48Z</time>
      </trkpt>
      <trkpt lat="44.755578003823757" lon="2.977375974878669">
        <ele>1105.1700000000001</ele>
        <time>2025-04-25T09:38:49Z</time>
      </trkpt>
      <trkpt lat="44.755471972748637" lon="2.977352002635598">
        <ele>1104.21</ele>
        <time>2025-04-25T09:38:50Z</time>
      </trkpt>
      <trkpt lat="44.755351021885872" lon="2.977325012907386">
        <ele>1103.25</ele>
        <time>2025-04-25T09:38:51Z</time>
      </trkpt>
      <trkpt lat="44.755215989425778" lon="2.977293999865651">
        <ele>1102.29</ele>
        <time>2025-04-25T09:38:52Z</time>
      </trkpt>
      <trkpt lat="44.754779040813446" lon="2.977160979062319">
        <ele>1098.4400000000001</ele>
        <time>2025-04-25T09:38:56Z</time>
      </trkpt>
      <trkpt lat="44.754721038043499" lon="2.977118985727429">
        <ele>1097.48</ele>
        <time>2025-04-25T09:38:57Z</time>
      </trkpt>
      <trkpt lat="44.754695976153016" lon="2.977057965472341">
        <ele>1096.04</ele>
        <time>2025-04-25T09:38:58Z</time>
      </trkpt>
      <trkpt lat="44.754695976153016" lon="2.976974984630942">
        <ele>1095.0799999999999</ele>
        <time>2025-04-25T09:38:59Z</time>
      </trkpt>
      <trkpt lat="44.754717014729977" lon="2.976888986304402">
        <ele>1094.1199999999999</ele>
        <time>2025-04-25T09:39:00Z</time>
      </trkpt>
      <trkpt lat="44.754774011671543" lon="2.976792007684708">
        <ele>1093.1600000000001</ele>
        <time>2025-04-25T09:39:01Z</time>
      </trkpt>
      <trkpt lat="44.754864033311605" lon="2.976725958287716">
        <ele>1092.2</ele>
        <time>2025-04-25T09:39:02Z</time>
      </trkpt>
      <trkpt lat="44.754964029416442" lon="2.976652029901743">
        <ele>1091.23</ele>
        <time>2025-04-25T09:39:03Z</time>
      </trkpt>
      <trkpt lat="44.755633994936943" lon="2.976161018013954">
        <ele>1085.95</ele>
        <time>2025-04-25T09:39:09Z</time>
      </trkpt>
      <trkpt lat="44.75573499687016" lon="2.976082982495427">
        <ele>1084.99</ele>
        <time>2025-04-25T09:39:10Z</time>
      </trkpt>
      <trkpt lat="44.755830969661474" lon="2.975961025804281">
        <ele>1084.02</ele>
        <time>2025-04-25T09:39:11Z</time>
      </trkpt>
      <trkpt lat="44.756458019837737" lon="2.9752710275352">
        <ele>1078.26</ele>
        <time>2025-04-25T09:39:17Z</time>
      </trkpt>
      <trkpt lat="44.757187999784946" lon="2.974646994844079">
        <ele>1072.97</ele>
        <time>2025-04-25T09:39:23Z</time>
      </trkpt>
      <trkpt lat="44.757339963689446" lon="2.974405009299517">
        <ele>1072.01</ele>
        <time>2025-04-25T09:39:25Z</time>
      </trkpt>
      <trkpt lat="44.757375000044703" lon="2.974285986274481">
        <ele>1071.53</ele>
        <time>2025-04-25T09:39:26Z</time>
      </trkpt>
      <trkpt lat="44.75736603140831" lon="2.974143996834755">
        <ele>1070.5699999999999</ele>
        <time>2025-04-25T09:39:27Z</time>
      </trkpt>
      <trkpt lat="44.757354967296124" lon="2.973976023495197">
        <ele>1070.0799999999999</ele>
        <time>2025-04-25T09:39:28Z</time>
      </trkpt>
      <trkpt lat="44.757341975346208" lon="2.97378902323544">
        <ele>1069.1199999999999</ele>
        <time>2025-04-25T09:39:29Z</time>
      </trkpt>
      <trkpt lat="44.75700200535357" lon="2.972055980935693">
        <ele>1068.6400000000001</ele>
        <time>2025-04-25T09:39:37Z</time>
      </trkpt>
      <trkpt lat="44.756778040900826" lon="2.970577999949455">
        <ele>1073.9300000000001</ele>
        <time>2025-04-25T09:39:44Z</time>
      </trkpt>
      <trkpt lat="44.756778040900826" lon="2.970403991639614">
        <ele>1074.4100000000001</ele>
        <time>2025-04-25T09:39:45Z</time>
      </trkpt>
      <trkpt lat="44.756798995658755" lon="2.970256973057985">
        <ele>1074.8900000000001</ele>
        <time>2025-04-25T09:39:46Z</time>
      </trkpt>
      <trkpt lat="44.756835959851742" lon="2.970144990831614">
        <ele>1075.8499999999999</ele>
        <time>2025-04-25T09:39:47Z</time>
      </trkpt>
      <trkpt lat="44.756903015077114" lon="2.970086988061667">
        <ele>1076.3299999999999</ele>
        <time>2025-04-25T09:39:48Z</time>
      </trkpt>
      <trkpt lat="44.756975015625358" lon="2.970041977241635">
        <ele>1076.8099999999999</ele>
        <time>2025-04-25T09:39:49Z</time>
      </trkpt>
      <trkpt lat="44.75706503726542" lon="2.970049018040299">
        <ele>1077.78</ele>
        <time>2025-04-25T09:39:50Z</time>
      </trkpt>
      <trkpt lat="44.757164027541876" lon="2.970055975019932">
        <ele>1078.74</ele>
        <time>2025-04-25T09:39:51Z</time>
      </trkpt>
      <trkpt lat="44.757251031696796" lon="2.970062009990215">
        <ele>1079.22</ele>
        <time>2025-04-25T09:39:52Z</time>
      </trkpt>
      <trkpt lat="44.757293025031686" lon="2.969997972249985">
        <ele>1080.1800000000001</ele>
        <time>2025-04-25T09:39:53Z</time>
      </trkpt>
      <trkpt lat="44.757322026416659" lon="2.969910968095064">
        <ele>1080.6600000000001</ele>
        <time>2025-04-25T09:39:54Z</time>
      </trkpt>
      <trkpt lat="44.757321020588279" lon="2.969837039709091">
        <ele>1081.6199999999999</ele>
        <time>2025-04-25T09:39:55Z</time>
      </trkpt>
      <trkpt lat="44.757270980626345" lon="2.969720028340817">
        <ele>1082.5799999999999</ele>
        <time>2025-04-25T09:39:56Z</time>
      </trkpt>
      <trkpt lat="44.757191017270088" lon="2.96966303139925">
        <ele>1083.0599999999999</ele>
        <time>2025-04-25T09:39:57Z</time>
      </trkpt>
      <trkpt lat="44.757089009508491" lon="2.969591030851007">
        <ele>1084.02</ele>
        <time>2025-04-25T09:39:58Z</time>
      </trkpt>
      <trkpt lat="44.756390964612365" lon="2.969011003151536">
        <ele>1089.3099999999999</ele>
        <time>2025-04-25T09:40:04Z</time>
      </trkpt>
      <trkpt lat="44.756316030398011" lon="2.968864990398288">
        <ele>1089.79</ele>
        <time>2025-04-25T09:40:05Z</time>
      </trkpt>
      <trkpt lat="44.755902970209718" lon="2.967992015182972">
        <ele>1092.6800000000001</ele>
        <time>2025-04-25T09:40:10Z</time>
      </trkpt>
      <trkpt lat="44.755856031551957" lon="2.967786993831396">
        <ele>1092.6800000000001</ele>
        <time>2025-04-25T09:40:11Z</time>
      </trkpt>
      <trkpt lat="44.755817977711558" lon="2.96757803298533">
        <ele>1093.1600000000001</ele>
        <time>2025-04-25T09:40:12Z</time>
      </trkpt>
      <trkpt lat="44.755543973296881" lon="2.965348027646542">
        <ele>1099.8900000000001</ele>
        <time>2025-04-25T09:40:23Z</time>
      </trkpt>
      <trkpt lat="44.755479013547301" lon="2.964770011603832">
        <ele>1102.29</ele>
        <time>2025-04-25T09:40:26Z</time>
      </trkpt>
      <trkpt lat="44.755445988848805" lon="2.964606983587146">
        <ele>1103.25</ele>
        <time>2025-04-25T09:40:27Z</time>
      </trkpt>
      <trkpt lat="44.755397038534284" lon="2.964454013854265">
        <ele>1104.21</ele>
        <time>2025-04-25T09:40:28Z</time>
      </trkpt>
      <trkpt lat="44.755315985530615" lon="2.964306995272636">
        <ele>1105.1700000000001</ele>
        <time>2025-04-25T09:40:29Z</time>
      </trkpt>
      <trkpt lat="44.755228981375694" lon="2.964152013882995">
        <ele>1106.1300000000001</ele>
        <time>2025-04-25T09:40:30Z</time>
      </trkpt>
      <trkpt lat="44.755126973614097" lon="2.964007006958127">
        <ele>1107.0999999999999</ele>
        <time>2025-04-25T09:40:31Z</time>
      </trkpt>
      <trkpt lat="44.75483100861311" lon="2.963611967861652">
        <ele>1110.46</ele>
        <time>2025-04-25T09:40:34Z</time>
      </trkpt>
      <trkpt lat="44.754721960052848" lon="2.963569974526763">
        <ele>1111.4200000000001</ele>
        <time>2025-04-25T09:40:35Z</time>
      </trkpt>
      <trkpt lat="44.75461701862514" lon="2.963536027818918">
        <ele>1112.8599999999999</ele>
        <time>2025-04-25T09:40:36Z</time>
      </trkpt>
      <trkpt lat="44.754504030570388" lon="2.963523035869002">
        <ele>1113.8199999999999</ele>
        <time>2025-04-25T09:40:37Z</time>
      </trkpt>
      <trkpt lat="44.75438199006021" lon="2.963529992848635">
        <ele>1114.79</ele>
        <time>2025-04-25T09:40:38Z</time>
      </trkpt>
      <trkpt lat="44.754258021712303" lon="2.963537033647299">
        <ele>1115.75</ele>
        <time>2025-04-25T09:40:39Z</time>
      </trkpt>
      <trkpt lat="44.754132041707635" lon="2.963575003668666">
        <ele>1116.71</ele>
        <time>2025-04-25T09:40:40Z</time>
      </trkpt>
      <trkpt lat="44.754002038389444" lon="2.963639041408896">
        <ele>1117.6700000000001</ele>
        <time>2025-04-25T09:40:41Z</time>
      </trkpt>
      <trkpt lat="44.752826979383826" lon="2.964148996397853">
        <ele>1127.76</ele>
        <time>2025-04-25T09:40:49Z</time>
      </trkpt>
      <trkpt lat="44.752398999407887" lon="2.964232983067632">
        <ele>1132.5699999999999</ele>
        <time>2025-04-25T09:40:53Z</time>
      </trkpt>
      <trkpt lat="44.752321969717741" lon="2.964222002774477">
        <ele>1133.05</ele>
        <time>2025-04-25T09:40:54Z</time>
      </trkpt>
      <trkpt lat="44.752258015796542" lon="2.964213034138084">
        <ele>1133.53</ele>
        <time>2025-04-25T09:40:55Z</time>
      </trkpt>
      <trkpt lat="44.752206970006227" lon="2.964205993339419">
        <ele>1134.49</ele>
        <time>2025-04-25T09:40:56Z</time>
      </trkpt>
      <trkpt lat="44.75218802690506" lon="2.964161988347769">
        <ele>1134.97</ele>
        <time>2025-04-25T09:40:57Z</time>
      </trkpt>
      <trkpt lat="44.752170005813241" lon="2.96412100084126">
        <ele>1135.45</ele>
        <time>2025-04-25T09:40:58Z</time>
      </trkpt>
      <trkpt lat="44.752157013863325" lon="2.964091999456286">
        <ele>1135.9400000000001</ele>
        <time>2025-04-25T09:40:59Z</time>
      </trkpt>
      <trkpt lat="44.752156008034945" lon="2.963993009179831">
        <ele>1136.4200000000001</ele>
        <time>2025-04-25T09:41:00Z</time>
      </trkpt>
      <trkpt lat="44.752199007198215" lon="2.963968031108379">
        <ele>1136.9000000000001</ele>
        <time>2025-04-25T09:41:01Z</time>
      </trkpt>
      <trkpt lat="44.752257009968162" lon="2.963935006409884">
        <ele>1137.8599999999999</ele>
        <time>2025-04-25T09:41:02Z</time>
      </trkpt>
      <trkpt lat="44.752326998859644" lon="2.963895024731755">
        <ele>1138.3399999999999</ele>
        <time>2025-04-25T09:41:03Z</time>
      </trkpt>
      <trkpt lat="44.752690019086003" lon="2.963685980066657">
        <ele>1139.3</ele>
        <time>2025-04-25T09:41:07Z</time>
      </trkpt>
      <trkpt lat="44.752829996868968" lon="2.96360501088202">
        <ele>1139.3</ele>
        <time>2025-04-25T09:41:08Z</time>
      </trkpt>
      <trkpt lat="44.752904009073973" lon="2.963482970371842">
        <ele>1139.3</ele>
        <time>2025-04-25T09:41:09Z</time>
      </trkpt>
      <trkpt lat="44.753301981836557" lon="2.96283395960927">
        <ele>1138.8199999999999</ele>
        <time>2025-04-25T09:41:13Z</time>
      </trkpt>
      <trkpt lat="44.7534120362252" lon="2.962654000148177">
        <ele>1138.8199999999999</ele>
        <time>2025-04-25T09:41:14Z</time>
      </trkpt>
      <trkpt lat="44.753509014844894" lon="2.962460964918137">
        <ele>1138.3399999999999</ele>
        <time>2025-04-25T09:41:15Z</time>
      </trkpt>
      <trkpt lat="44.753644969314337" lon="2.96210297383368">
        <ele>1137.3800000000001</ele>
        <time>2025-04-25T09:41:17Z</time>
      </trkpt>
      <trkpt lat="44.753705989569426" lon="2.961842967197299">
        <ele>1137.3800000000001</ele>
        <time>2025-04-25T09:41:18Z</time>
      </trkpt>
      <trkpt lat="44.753730967640877" lon="2.961738025769591">
        <ele>1136.9000000000001</ele>
        <time>2025-04-25T09:41:19Z</time>
      </trkpt>
      <trkpt lat="44.753741025924683" lon="2.961420016363263">
        <ele>1136.4200000000001</ele>
        <time>2025-04-25T09:41:20Z</time>
      </trkpt>
      <trkpt lat="44.753748988732696" lon="2.961189011111856">
        <ele>1135.9400000000001</ele>
        <time>2025-04-25T09:41:21Z</time>
      </trkpt>
      <trkpt lat="44.753748988732696" lon="2.961001005023718">
        <ele>1135.45</ele>
        <time>2025-04-25T09:41:22Z</time>
      </trkpt>
      <trkpt lat="44.753742031753063" lon="2.960843006148934">
        <ele>1134.97</ele>
        <time>2025-04-25T09:41:23Z</time>
      </trkpt>
      <trkpt lat="44.75373700261116" lon="2.960705040022731">
        <ele>1134.49</ele>
        <time>2025-04-25T09:41:24Z</time>
      </trkpt>
      <trkpt lat="44.753730967640877" lon="2.960558021441102">
        <ele>1134.01</ele>
        <time>2025-04-25T09:41:25Z</time>
      </trkpt>
      <trkpt lat="44.753657039254904" lon="2.960434975102544">
        <ele>1133.53</ele>
        <time>2025-04-25T09:41:26Z</time>
      </trkpt>
      <trkpt lat="44.753571962937713" lon="2.960292985662818">
        <ele>1133.05</ele>
        <time>2025-04-25T09:41:27Z</time>
      </trkpt>
      <trkpt lat="44.753472972661257" lon="2.960129035636783">
        <ele>1133.05</ele>
        <time>2025-04-25T09:41:28Z</time>
      </trkpt>
      <trkpt lat="44.753400972113013" lon="2.959941029548645">
        <ele>1132.5699999999999</ele>
        <time>2025-04-25T09:41:29Z</time>
      </trkpt>
      <trkpt lat="44.753325032070279" lon="2.959741959348321">
        <ele>1132.5699999999999</ele>
        <time>2025-04-25T09:41:30Z</time>
      </trkpt>
      <trkpt lat="44.752968968823552" lon="2.958817016333342">
        <ele>1132.0899999999999</ele>
        <time>2025-04-25T09:41:35Z</time>
      </trkpt>
      <trkpt lat="44.752929992973804" lon="2.958657005801797">
        <ele>1132.0899999999999</ele>
        <time>2025-04-25T09:41:36Z</time>
      </trkpt>
      <trkpt lat="44.752917001023889" lon="2.958476040512323">
        <ele>1132.0899999999999</ele>
        <time>2025-04-25T09:41:37Z</time>
      </trkpt>
      <trkpt lat="44.752944996580482" lon="2.958079995587468">
        <ele>1133.05</ele>
        <time>2025-04-25T09:41:39Z</time>
      </trkpt>
      <trkpt lat="44.752954971045256" lon="2.957857036963105">
        <ele>1134.01</ele>
        <time>2025-04-25T09:41:40Z</time>
      </trkpt>
      <trkpt lat="44.752936027944088" lon="2.957633994519711">
        <ele>1135.45</ele>
        <time>2025-04-25T09:41:41Z</time>
      </trkpt>
      <trkpt lat="44.752915995195508" lon="2.957406006753445">
        <ele>1136.9000000000001</ele>
        <time>2025-04-25T09:41:42Z</time>
      </trkpt>
      <trkpt lat="44.752897974103689" lon="2.957195034250617">
        <ele>1138.3399999999999</ele>
        <time>2025-04-25T09:41:43Z</time>
      </trkpt>
      <trkpt lat="44.752930998802185" lon="2.956989007070661">
        <ele>1139.78</ele>
        <time>2025-04-25T09:41:44Z</time>
      </trkpt>
      <trkpt lat="44.752981038764119" lon="2.956777028739452">
        <ele>1141.22</ele>
        <time>2025-04-25T09:41:45Z</time>
      </trkpt>
      <trkpt lat="44.753056978806853" lon="2.956562032923102">
        <ele>1142.6600000000001</ele>
        <time>2025-04-25T09:41:46Z</time>
      </trkpt>
      <trkpt lat="44.753145994618535" lon="2.956348964944482">
        <ele>1144.1099999999999</ele>
        <time>2025-04-25T09:41:47Z</time>
      </trkpt>
      <trkpt lat="44.753257976844907" lon="2.956146961078048">
        <ele>1145.55</ele>
        <time>2025-04-25T09:41:48Z</time>
      </trkpt>
      <trkpt lat="44.75453001447022" lon="2.953837998211384">
        <ele>1161.4100000000001</ele>
        <time>2025-04-25T09:41:59Z</time>
      </trkpt>
      <trkpt lat="44.754606038331985" lon="2.953641023486853">
        <ele>1162.8499999999999</ele>
        <time>2025-04-25T09:42:00Z</time>
      </trkpt>
      <trkpt lat="44.754672003909945" lon="2.953425021842122">
        <ele>1163.8099999999999</ele>
        <time>2025-04-25T09:42:01Z</time>
      </trkpt>
      <trkpt lat="44.754718020558357" lon="2.953195022419095">
        <ele>1165.26</ele>
        <time>2025-04-25T09:42:02Z</time>
      </trkpt>
      <trkpt lat="44.754965035244823" lon="2.951848972588778">
        <ele>1174.3900000000001</ele>
        <time>2025-04-25T09:42:08Z</time>
      </trkpt>
      <trkpt lat="44.755015997216105" lon="2.951688040047884">
        <ele>1175.3499999999999</ele>
        <time>2025-04-25T09:42:09Z</time>
      </trkpt>
      <trkpt lat="44.755063019692898" lon="2.951544038951397">
        <ele>1176.79</ele>
        <time>2025-04-25T09:42:10Z</time>
      </trkpt>
      <trkpt lat="44.755082968622446" lon="2.951414035633206">
        <ele>1177.75</ele>
        <time>2025-04-25T09:42:11Z</time>
      </trkpt>
      <trkpt lat="44.755082968622446" lon="2.951296018436551">
        <ele>1178.71</ele>
        <time>2025-04-25T09:42:12Z</time>
      </trkpt>
      <trkpt lat="44.755061008036137" lon="2.951172972097993">
        <ele>1179.6700000000001</ele>
        <time>2025-04-25T09:42:13Z</time>
      </trkpt>
      <trkpt lat="44.754986995831132" lon="2.951073981821537">
        <ele>1181.1199999999999</ele>
        <time>2025-04-25T09:42:14Z</time>
      </trkpt>
      <trkpt lat="44.754881970584393" lon="2.950983038172126">
        <ele>1181.5999999999999</ele>
        <time>2025-04-25T09:42:15Z</time>
      </trkpt>
      <trkpt lat="44.754754984751344" lon="2.950898967683315">
        <ele>1182.5599999999999</ele>
        <time>2025-04-25T09:42:16Z</time>
      </trkpt>
      <trkpt lat="44.754607966169715" lon="2.950829984620214">
        <ele>1183.52</ele>
        <time>2025-04-25T09:42:17Z</time>
      </trkpt>
      <trkpt lat="44.754451978951693" lon="2.950756978243589">
        <ele>1184.48</ele>
        <time>2025-04-25T09:42:18Z</time>
      </trkpt>
      <trkpt lat="44.753301981836557" lon="2.950215004384518">
        <ele>1193.6099999999999</ele>
        <time>2025-04-25T09:42:25Z</time>
      </trkpt>
      <trkpt lat="44.751663990318775" lon="2.949707983061671">
        <ele>1196.5</ele>
        <time>2025-04-25T09:42:35Z</time>
      </trkpt>
      <trkpt lat="44.751539016142488" lon="2.94959700666368">
        <ele>1196.5</ele>
        <time>2025-04-25T09:42:36Z</time>
      </trkpt>
      <trkpt lat="44.751423010602593" lon="2.94944697059691">
        <ele>1196.5</ele>
        <time>2025-04-25T09:42:37Z</time>
      </trkpt>
      <trkpt lat="44.750164970755577" lon="2.947810990735889">
        <ele>1197.9400000000001</ele>
        <time>2025-04-25T09:42:46Z</time>
      </trkpt>
      <trkpt lat="44.748295973986387" lon="2.945379987359047">
        <ele>1200.3399999999999</ele>
        <time>2025-04-25T09:42:58Z</time>
      </trkpt>
      <trkpt lat="44.747305987402797" lon="2.943970989435911">
        <ele>1202.75</ele>
        <time>2025-04-25T09:43:06Z</time>
      </trkpt>
      <trkpt lat="44.747263994067907" lon="2.943824976682663">
        <ele>1203.23</ele>
        <time>2025-04-25T09:43:07Z</time>
      </trkpt>
      <trkpt lat="44.747257037088275" lon="2.943661026656628">
        <ele>1203.23</ele>
        <time>2025-04-25T09:43:08Z</time>
      </trkpt>
      <trkpt lat="44.74726801738143" lon="2.943472014740109">
        <ele>1203.71</ele>
        <time>2025-04-25T09:43:09Z</time>
      </trkpt>
      <trkpt lat="44.747301964089274" lon="2.943287026137114">
        <ele>1204.1900000000001</ele>
        <time>2025-04-25T09:43:10Z</time>
      </trkpt>
      <trkpt lat="44.747350998222828" lon="2.943115029484034">
        <ele>1204.1900000000001</ele>
        <time>2025-04-25T09:43:11Z</time>
      </trkpt>
      <trkpt lat="44.74739802069962" lon="2.942952001467347">
        <ele>1204.6700000000001</ele>
        <time>2025-04-25T09:43:12Z</time>
      </trkpt>
      <trkpt lat="44.747490976005793" lon="2.942867008969188">
        <ele>1205.1500000000001</ele>
        <time>2025-04-25T09:43:13Z</time>
      </trkpt>
      <trkpt lat="44.74759197793901" lon="2.94278503395617">
        <ele>1205.6300000000001</ele>
        <time>2025-04-25T09:43:14Z</time>
      </trkpt>
      <trkpt lat="44.747703038156033" lon="2.942727031186223">
        <ele>1206.5899999999999</ele>
        <time>2025-04-25T09:43:15Z</time>
      </trkpt>
      <trkpt lat="44.747835975140333" lon="2.942683026194572">
        <ele>1207.0699999999999</ele>
        <time>2025-04-25T09:43:16Z</time>
      </trkpt>
      <trkpt lat="44.748668968677521" lon="2.94239703565836">
        <ele>1209.96</ele>
        <time>2025-04-25T09:43:22Z</time>
      </trkpt>
      <trkpt lat="44.748774999752641" lon="2.942329980432987">
        <ele>1210.4400000000001</ele>
        <time>2025-04-25T09:43:23Z</time>
      </trkpt>
      <trkpt lat="44.748871978372335" lon="2.942267032340169">
        <ele>1210.9200000000001</ele>
        <time>2025-04-25T09:43:24Z</time>
      </trkpt>
      <trkpt lat="44.749481007456779" lon="2.941677030175924">
        <ele>1215.72</ele>
        <time>2025-04-25T09:43:32Z</time>
      </trkpt>
      <trkpt lat="44.749531969428062" lon="2.941594971343875">
        <ele>1216.21</ele>
        <time>2025-04-25T09:43:33Z</time>
      </trkpt>
      <trkpt lat="44.749582009389997" lon="2.941515007987618">
        <ele>1216.6900000000001</ele>
        <time>2025-04-25T09:43:34Z</time>
      </trkpt>
      <trkpt lat="44.749603969976306" lon="2.941420963034034">
        <ele>1217.1700000000001</ele>
        <time>2025-04-25T09:43:35Z</time>
      </trkpt>
      <trkpt lat="44.749620985239744" lon="2.941321972757578">
        <ele>1217.6500000000001</ele>
        <time>2025-04-25T09:43:36Z</time>
      </trkpt>
      <trkpt lat="44.749639006331563" lon="2.9412189591676">
        <ele>1217.6500000000001</ele>
        <time>2025-04-25T09:43:37Z</time>
      </trkpt>
      <trkpt lat="44.749788958579302" lon="2.940367022529244">
        <ele>1219.0899999999999</ele>
        <time>2025-04-25T09:43:45Z</time>
      </trkpt>
      <trkpt lat="44.749817037954926" lon="2.940271971747279">
        <ele>1218.6099999999999</ele>
        <time>2025-04-25T09:43:46Z</time>
      </trkpt>
      <trkpt lat="44.74984897300601" lon="2.94016501866281">
        <ele>1218.6099999999999</ele>
        <time>2025-04-25T09:43:47Z</time>
      </trkpt>
      <trkpt lat="44.749883003532887" lon="2.940053036436439">
        <ele>1218.1300000000001</ele>
        <time>2025-04-25T09:43:48Z</time>
      </trkpt>
      <trkpt lat="44.749910999089479" lon="2.939958991482854">
        <ele>1217.6500000000001</ele>
        <time>2025-04-25T09:43:49Z</time>
      </trkpt>
      <trkpt lat="44.749910999089479" lon="2.939855977892876">
        <ele>1216.6900000000001</ele>
        <time>2025-04-25T09:43:50Z</time>
      </trkpt>
      <trkpt lat="44.749905969947577" lon="2.939755981788039">
        <ele>1215.72</ele>
        <time>2025-04-25T09:43:51Z</time>
      </trkpt>
      <trkpt lat="44.74984897300601" lon="2.93964802287519">
        <ele>1214.76</ele>
        <time>2025-04-25T09:43:52Z</time>
      </trkpt>
      <trkpt lat="44.749787030741572" lon="2.939533023163676">
        <ele>1214.28</ele>
        <time>2025-04-25T09:43:53Z</time>
      </trkpt>
      <trkpt lat="44.74971704185009" lon="2.939424980431795">
        <ele>1214.28</ele>
        <time>2025-04-25T09:43:54Z</time>
      </trkpt>
      <trkpt lat="44.749617967754602" lon="2.939338982105255">
        <ele>1213.8</ele>
        <time>2025-04-25T09:43:55Z</time>
      </trkpt>
      <trkpt lat="44.749510008841753" lon="2.939247032627463">
        <ele>1213.8</ele>
        <time>2025-04-25T09:43:56Z</time>
      </trkpt>
      <trkpt lat="44.748322041705251" lon="2.938182028010488">
        <ele>1210.4400000000001</ele>
        <time>2025-04-25T09:44:05Z</time>
      </trkpt>
      <trkpt lat="44.747561970725656" lon="2.937412988394499">
        <ele>1205.6300000000001</ele>
        <time>2025-04-25T09:44:11Z</time>
      </trkpt>
      <trkpt lat="44.747453005984426" lon="2.937384992837906">
        <ele>1205.1500000000001</ele>
        <time>2025-04-25T09:44:12Z</time>
      </trkpt>
      <trkpt lat="44.747329037636518" lon="2.937352973967791">
        <ele>1204.1900000000001</ele>
        <time>2025-04-25T09:44:13Z</time>
      </trkpt>
      <trkpt lat="44.74703399464488" lon="2.937277033925057">
        <ele>1202.27</ele>
        <time>2025-04-25T09:44:15Z</time>
      </trkpt>
      <trkpt lat="44.746883036568761" lon="2.937204027548432">
        <ele>1201.3</ele>
        <time>2025-04-25T09:44:16Z</time>
      </trkpt>
      <trkpt lat="44.74673300050199" lon="2.937089027836919">
        <ele>1199.8599999999999</ele>
        <time>2025-04-25T09:44:17Z</time>
      </trkpt>
      <trkpt lat="44.746426977217197" lon="2.93685500510037">
        <ele>1196.98</ele>
        <time>2025-04-25T09:44:19Z</time>
      </trkpt>
      <trkpt lat="44.745966978371143" lon="2.936603967100382">
        <ele>1193.1300000000001</ele>
        <time>2025-04-25T09:44:22Z</time>
      </trkpt>
      <trkpt lat="44.745512008666992" lon="2.936414033174515">
        <ele>1189.29</ele>
        <time>2025-04-25T09:44:25Z</time>
      </trkpt>
      <trkpt lat="44.745371025055647" lon="2.936314037069678">
        <ele>1187.8499999999999</ele>
        <time>2025-04-25T09:44:26Z</time>
      </trkpt>
      <trkpt lat="44.745247978717089" lon="2.936207000166178">
        <ele>1186.4000000000001</ele>
        <time>2025-04-25T09:44:27Z</time>
      </trkpt>
      <trkpt lat="44.745071958750486" lon="2.935998039320111">
        <ele>1184</ele>
        <time>2025-04-25T09:44:29Z</time>
      </trkpt>
      <trkpt lat="44.744984032586217" lon="2.935965014621615">
        <ele>1183.04</ele>
        <time>2025-04-25T09:44:30Z</time>
      </trkpt>
      <trkpt lat="44.744887975975871" lon="2.935928972437978">
        <ele>1182.0799999999999</ele>
        <time>2025-04-25T09:44:31Z</time>
      </trkpt>
      <trkpt lat="44.744780017063022" lon="2.93588899075985">
        <ele>1181.5999999999999</ele>
        <time>2025-04-25T09:44:32Z</time>
      </trkpt>
      <trkpt lat="44.744687983766198" lon="2.935808021575213">
        <ele>1180.6400000000001</ele>
        <time>2025-04-25T09:44:33Z</time>
      </trkpt>
      <trkpt lat="44.744611959904432" lon="2.935690004378557">
        <ele>1179.1900000000001</ele>
        <time>2025-04-25T09:44:34Z</time>
      </trkpt>
      <trkpt lat="44.744539959356189" lon="2.93554499745369">
        <ele>1178.71</ele>
        <time>2025-04-25T09:44:35Z</time>
      </trkpt>
      <trkpt lat="44.744466030970216" lon="2.935397978872061">
        <ele>1178.23</ele>
        <time>2025-04-25T09:44:36Z</time>
      </trkpt>
      <trkpt lat="44.744411967694759" lon="2.935256995260716">
        <ele>1177.27</ele>
        <time>2025-04-25T09:44:37Z</time>
      </trkpt>
      <trkpt lat="44.74439000710845" lon="2.935090027749538">
        <ele>1176.79</ele>
        <time>2025-04-25T09:44:38Z</time>
      </trkpt>
      <trkpt lat="44.744384977966547" lon="2.934933034703136">
        <ele>1176.3099999999999</ele>
        <time>2025-04-25T09:44:39Z</time>
      </trkpt>
      <trkpt lat="44.744420014321804" lon="2.934755003079772">
        <ele>1176.3099999999999</ele>
        <time>2025-04-25T09:44:40Z</time>
      </trkpt>
      <trkpt lat="44.744469970464706" lon="2.934575965628028">
        <ele>1176.3099999999999</ele>
        <time>2025-04-25T09:44:41Z</time>
      </trkpt>
      <trkpt lat="44.744537025690079" lon="2.934402041137219">
        <ele>1175.8299999999999</ele>
        <time>2025-04-25T09:44:42Z</time>
      </trkpt>
      <trkpt lat="44.74462604150176" lon="2.934243958443403">
        <ele>1175.8299999999999</ele>
        <time>2025-04-25T09:44:43Z</time>
      </trkpt>
      <trkpt lat="44.744714973494411" lon="2.93408595956862">
        <ele>1175.8299999999999</ele>
        <time>2025-04-25T09:44:44Z</time>
      </trkpt>
      <trkpt lat="44.745282009243965" lon="2.933085998520255">
        <ele>1175.8299999999999</ele>
        <time>2025-04-25T09:44:50Z</time>
      </trkpt>
      <trkpt lat="44.74540296010673" lon="2.932955995202065">
        <ele>1175.8299999999999</ele>
        <time>2025-04-25T09:44:51Z</time>
      </trkpt>
      <trkpt lat="44.745522988960147" lon="2.932826997712255">
        <ele>1175.8299999999999</ele>
        <time>2025-04-25T09:44:52Z</time>
      </trkpt>
      <trkpt lat="44.746046019718051" lon="2.932264991104603">
        <ele>1176.3099999999999</ele>
        <time>2025-04-25T09:44:56Z</time>
      </trkpt>
      <trkpt lat="44.746307032182813" lon="2.931984029710293">
        <ele>1176.79</ele>
        <time>2025-04-25T09:44:58Z</time>
      </trkpt>
      <trkpt lat="44.746433012187481" lon="2.931858971714973">
        <ele>1177.27</ele>
        <time>2025-04-25T09:44:59Z</time>
      </trkpt>
      <trkpt lat="44.746590005233884" lon="2.931772973388434">
        <ele>1177.27</ele>
        <time>2025-04-25T09:45:00Z</time>
      </trkpt>
      <trkpt lat="44.746741969138384" lon="2.931717988103628">
        <ele>1177.27</ele>
        <time>2025-04-25T09:45:01Z</time>
      </trkpt>
      <trkpt lat="44.746912959963083" lon="2.931677000597119">
        <ele>1177.27</ele>
        <time>2025-04-25T09:45:02Z</time>
      </trkpt>
      <trkpt lat="44.747085962444544" lon="2.931636013090611">
        <ele>1177.27</ele>
        <time>2025-04-25T09:45:03Z</time>
      </trkpt>
      <trkpt lat="44.747252007946372" lon="2.93157197535038">
        <ele>1177.27</ele>
        <time>2025-04-25T09:45:04Z</time>
      </trkpt>
      <trkpt lat="44.747401038184762" lon="2.931482959538698">
        <ele>1176.79</ele>
        <time>2025-04-25T09:45:05Z</time>
      </trkpt>
      <trkpt lat="44.747535986825824" lon="2.931321021169424">
        <ele>1176.3099999999999</ele>
        <time>2025-04-25T09:45:06Z</time>
      </trkpt>
      <trkpt lat="44.747674958780408" lon="2.931152964010835">
        <ele>1175.8299999999999</ele>
        <time>2025-04-25T09:45:07Z</time>
      </trkpt>
      <trkpt lat="44.747801022604108" lon="2.930975016206503">
        <ele>1175.8299999999999</ele>
        <time>2025-04-25T09:45:08Z</time>
      </trkpt>
      <trkpt lat="44.747933959588408" lon="2.930771000683308">
        <ele>1175.8299999999999</ele>
        <time>2025-04-25T09:45:09Z</time>
      </trkpt>
      <trkpt lat="44.748356994241476" lon="2.930161971598864">
        <ele>1174.3900000000001</ele>
        <time>2025-04-25T09:45:12Z</time>
      </trkpt>
      <trkpt lat="44.748498983681202" lon="2.929983017966151">
        <ele>1173.9100000000001</ele>
        <time>2025-04-25T09:45:13Z</time>
      </trkpt>
      <trkpt lat="44.748762007802725" lon="2.929710019379854">
        <ele>1173.4300000000001</ele>
        <time>2025-04-25T09:45:15Z</time>
      </trkpt>
      <trkpt lat="44.748888993635774" lon="2.929631983861327">
        <ele>1173.4300000000001</ele>
        <time>2025-04-25T09:45:16Z</time>
      </trkpt>
      <trkpt lat="44.749024026095867" lon="2.929560989141464">
        <ele>1173.4300000000001</ele>
        <time>2025-04-25T09:45:17Z</time>
      </trkpt>
      <trkpt lat="44.749169033020735" lon="2.929484965279698">
        <ele>1173.4300000000001</ele>
        <time>2025-04-25T09:45:18Z</time>
      </trkpt>
      <trkpt lat="44.749322002753615" lon="2.929383963346481">
        <ele>1173.4300000000001</ele>
        <time>2025-04-25T09:45:19Z</time>
      </trkpt>
      <trkpt lat="44.749446976929903" lon="2.929235016927123">
        <ele>1173.4300000000001</ele>
        <time>2025-04-25T09:45:20Z</time>
      </trkpt>
      <trkpt lat="44.749577986076474" lon="2.929080035537481">
        <ele>1173.9100000000001</ele>
        <time>2025-04-25T09:45:21Z</time>
      </trkpt>
      <trkpt lat="44.74969700910151" lon="2.928907033056021">
        <ele>1173.9100000000001</ele>
        <time>2025-04-25T09:45:22Z</time>
      </trkpt>
      <trkpt lat="44.749788036569953" lon="2.928709974512458">
        <ele>1174.3900000000001</ele>
        <time>2025-04-25T09:45:23Z</time>
      </trkpt>
      <trkpt lat="44.749852996319532" lon="2.928495984524488">
        <ele>1174.3900000000001</ele>
        <time>2025-04-25T09:45:24Z</time>
      </trkpt>
      <trkpt lat="44.749919967725873" lon="2.928275959566236">
        <ele>1174.3900000000001</ele>
        <time>2025-04-25T09:45:25Z</time>
      </trkpt>
      <trkpt lat="44.750070003792644" lon="2.927816966548562">
        <ele>1173.9100000000001</ele>
        <time>2025-04-25T09:45:27Z</time>
      </trkpt>
      <trkpt lat="44.750174023211002" lon="2.927610017359257">
        <ele>1173.9100000000001</ele>
        <time>2025-04-25T09:45:28Z</time>
      </trkpt>
      <trkpt lat="44.750668974593282" lon="2.9265440069139">
        <ele>1173.9100000000001</ele>
        <time>2025-04-25T09:45:33Z</time>
      </trkpt>
      <trkpt lat="44.750723959878087" lon="2.926323981955648">
        <ele>1173.9100000000001</ele>
        <time>2025-04-25T09:45:34Z</time>
      </trkpt>
      <trkpt lat="44.750980027019978" lon="2.924466971307993">
        <ele>1174.3900000000001</ele>
        <time>2025-04-25T09:45:41Z</time>
      </trkpt>
      <trkpt lat="44.750910038128495" lon="2.922607026994228">
        <ele>1173.4300000000001</ele>
        <time>2025-04-25T09:45:48Z</time>
      </trkpt>
      <trkpt lat="44.750876007601619" lon="2.922427989542484">
        <ele>1173.4300000000001</ele>
        <time>2025-04-25T09:45:49Z</time>
      </trkpt>
      <trkpt lat="44.750564033165574" lon="2.921074982732534">
        <ele>1173.4300000000001</ele>
        <time>2025-04-25T09:45:55Z</time>
      </trkpt>
      <trkpt lat="44.750474011525512" lon="2.920856969431043">
        <ele>1173.4300000000001</ele>
        <time>2025-04-25T09:45:56Z</time>
      </trkpt>
      <trkpt lat="44.750358005985618" lon="2.920650020241737">
        <ele>1173.4300000000001</ele>
        <time>2025-04-25T09:45:57Z</time>
      </trkpt>
      <trkpt lat="44.75010696798563" lon="2.920199995860457">
        <ele>1172.95</ele>
        <time>2025-04-25T09:45:59Z</time>
      </trkpt>
      <trkpt lat="44.749562982469797" lon="2.919151000678539">
        <ele>1170.54</ele>
        <time>2025-04-25T09:46:04Z</time>
      </trkpt>
      <trkpt lat="44.749520989134908" lon="2.918955031782389">
        <ele>1170.54</ele>
        <time>2025-04-25T09:46:05Z</time>
      </trkpt>
      <trkpt lat="44.749478995800018" lon="2.918757973238826">
        <ele>1170.0599999999999</ele>
        <time>2025-04-25T09:46:06Z</time>
      </trkpt>
      <trkpt lat="44.749421998858452" lon="2.918549012392759">
        <ele>1170.0599999999999</ele>
        <time>2025-04-25T09:46:07Z</time>
      </trkpt>
      <trkpt lat="44.749351004138589" lon="2.918325969949365">
        <ele>1170.54</ele>
        <time>2025-04-25T09:46:08Z</time>
      </trkpt>
      <trkpt lat="44.749268023297191" lon="2.918095970526338">
        <ele>1170.0599999999999</ele>
        <time>2025-04-25T09:46:09Z</time>
      </trkpt>
      <trkpt lat="44.749093009158969" lon="2.917628008872271">
        <ele>1170.0599999999999</ele>
        <time>2025-04-25T09:46:11Z</time>
      </trkpt>
      <trkpt lat="44.749050009995699" lon="2.917397003620863">
        <ele>1170.0599999999999</ele>
        <time>2025-04-25T09:46:12Z</time>
      </trkpt>
      <trkpt lat="44.749020002782345" lon="2.91717597283423">
        <ele>1170.0599999999999</ele>
        <time>2025-04-25T09:46:13Z</time>
      </trkpt>
      <trkpt lat="44.748991001397371" lon="2.916963994503021">
        <ele>1170.0599999999999</ele>
        <time>2025-04-25T09:46:14Z</time>
      </trkpt>
      <trkpt lat="44.748962000012398" lon="2.916750004515052">
        <ele>1170.0599999999999</ele>
        <time>2025-04-25T09:46:15Z</time>
      </trkpt>
      <trkpt lat="44.748932998627424" lon="2.916532997041941">
        <ele>1170.0599999999999</ele>
        <time>2025-04-25T09:46:16Z</time>
      </trkpt>
      <trkpt lat="44.74890299141407" lon="2.916311966255307">
        <ele>1170.54</ele>
        <time>2025-04-25T09:46:17Z</time>
      </trkpt>
      <trkpt lat="44.74883702583611" lon="2.916113985702395">
        <ele>1170.54</ele>
        <time>2025-04-25T09:46:18Z</time>
      </trkpt>
      <trkpt lat="44.748767036944628" lon="2.915903013199568">
        <ele>1170.54</ele>
        <time>2025-04-25T09:46:19Z</time>
      </trkpt>
      <trkpt lat="44.748311983421445" lon="2.914238031953573">
        <ele>1170.0599999999999</ele>
        <time>2025-04-25T09:46:26Z</time>
      </trkpt>
      <trkpt lat="44.74823503755033" lon="2.91380200535059">
        <ele>1170.54</ele>
        <time>2025-04-25T09:46:28Z</time>
      </trkpt>
      <trkpt lat="44.748222967609763" lon="2.913578962907195">
        <ele>1171.02</ele>
        <time>2025-04-25T09:46:29Z</time>
      </trkpt>
      <trkpt lat="44.748235959559679" lon="2.913343012332916">
        <ele>1171.02</ele>
        <time>2025-04-25T09:46:30Z</time>
      </trkpt>
      <trkpt lat="44.74827703088522" lon="2.912613032385707">
        <ele>1171.98</ele>
        <time>2025-04-25T09:46:33Z</time>
      </trkpt>
      <trkpt lat="44.748262027278543" lon="2.912355037406087">
        <ele>1171.98</ele>
        <time>2025-04-25T09:46:34Z</time>
      </trkpt>
      <trkpt lat="44.748093970119953" lon="2.909873994067311">
        <ele>1172.95</ele>
        <time>2025-04-25T09:46:43Z</time>
      </trkpt>
      <trkpt lat="44.748054994270205" lon="2.909652963280678">
        <ele>1172.95</ele>
        <time>2025-04-25T09:46:44Z</time>
      </trkpt>
      <trkpt lat="44.747994979843497" lon="2.909451965242624">
        <ele>1172.95</ele>
        <time>2025-04-25T09:46:45Z</time>
      </trkpt>
      <trkpt lat="44.747931025922298" lon="2.909266976639628">
        <ele>1172.47</ele>
        <time>2025-04-25T09:46:46Z</time>
      </trkpt>
      <trkpt lat="44.747868999838829" lon="2.909089028835297">
        <ele>1171.98</ele>
        <time>2025-04-25T09:46:47Z</time>
      </trkpt>
      <trkpt lat="44.74785097874701" lon="2.908875038847327">
        <ele>1171.5</ele>
        <time>2025-04-25T09:46:48Z</time>
      </trkpt>
      <trkpt lat="44.747857013717294" lon="2.90864797309041">
        <ele>1171.02</ele>
        <time>2025-04-25T09:46:49Z</time>
      </trkpt>
      <trkpt lat="44.747901018708944" lon="2.90843297727406">
        <ele>1170.54</ele>
        <time>2025-04-25T09:46:50Z</time>
      </trkpt>
      <trkpt lat="44.747948041185737" lon="2.908211024478078">
        <ele>1170.54</ele>
        <time>2025-04-25T09:46:51Z</time>
      </trkpt>
      <trkpt lat="44.748034039512277" lon="2.907995022833347">
        <ele>1170.0599999999999</ele>
        <time>2025-04-25T09:46:52Z</time>
      </trkpt>
      <trkpt lat="44.748133029788733" lon="2.907781032845378">
        <ele>1170.0599999999999</ele>
        <time>2025-04-25T09:46:53Z</time>
      </trkpt>
      <trkpt lat="44.748227996751666" lon="2.907565031200647">
        <ele>1169.5799999999999</ele>
        <time>2025-04-25T09:46:54Z</time>
      </trkpt>
      <trkpt lat="44.748306032270193" lon="2.907332014292479">
        <ele>1169.0999999999999</ele>
        <time>2025-04-25T09:46:55Z</time>
      </trkpt>
      <trkpt lat="44.748345008119941" lon="2.907082987949252">
        <ele>1169.0999999999999</ele>
        <time>2025-04-25T09:46:56Z</time>
      </trkpt>
      <trkpt lat="44.748373003676534" lon="2.906823987141252">
        <ele>1169.0999999999999</ele>
        <time>2025-04-25T09:46:57Z</time>
      </trkpt>
      <trkpt lat="44.748400999233127" lon="2.906558029353619">
        <ele>1168.6199999999999</ele>
        <time>2025-04-25T09:46:58Z</time>
      </trkpt>
      <trkpt lat="44.748461013659835" lon="2.906291987746954">
        <ele>1168.1400000000001</ele>
        <time>2025-04-25T09:46:59Z</time>
      </trkpt>
      <trkpt lat="44.748531002551317" lon="2.906029969453812">
        <ele>1168.1400000000001</ele>
        <time>2025-04-25T09:47:00Z</time>
      </trkpt>
      <trkpt lat="44.748733006417751" lon="2.905279034748673">
        <ele>1167.1800000000001</ele>
        <time>2025-04-25T09:47:03Z</time>
      </trkpt>
      <trkpt lat="44.74883602000773" lon="2.905051968991756">
        <ele>1166.7</ele>
        <time>2025-04-25T09:47:04Z</time>
      </trkpt>
      <trkpt lat="44.748940039426088" lon="2.904823981225491">
        <ele>1166.7</ele>
        <time>2025-04-25T09:47:05Z</time>
      </trkpt>
      <trkpt lat="44.749211026355624" lon="2.90443598292768">
        <ele>1165.74</ele>
        <time>2025-04-25T09:47:07Z</time>
      </trkpt>
      <trkpt lat="44.749352009966969" lon="2.904253005981445">
        <ele>1165.26</ele>
        <time>2025-04-25T09:47:08Z</time>
      </trkpt>
      <trkpt lat="44.749801028519869" lon="2.903802981600165">
        <ele>1163.8099999999999</ele>
        <time>2025-04-25T09:47:11Z</time>
      </trkpt>
      <trkpt lat="44.749961039051414" lon="2.903717989102006">
        <ele>1163.3299999999999</ele>
        <time>2025-04-25T09:47:12Z</time>
      </trkpt>
      <trkpt lat="44.750125994905829" lon="2.903630984947085">
        <ele>1162.8499999999999</ele>
        <time>2025-04-25T09:47:13Z</time>
      </trkpt>
      <trkpt lat="44.7502760309726" lon="2.903609024360776">
        <ele>1162.3699999999999</ele>
        <time>2025-04-25T09:47:14Z</time>
      </trkpt>
      <trkpt lat="44.750446015968919" lon="2.903648000210524">
        <ele>1161.8900000000001</ele>
        <time>2025-04-25T09:47:15Z</time>
      </trkpt>
      <trkpt lat="44.750598985701799" lon="2.903700973838568">
        <ele>1161.4100000000001</ele>
        <time>2025-04-25T09:47:16Z</time>
      </trkpt>
      <trkpt lat="44.750752961263061" lon="2.903794012963772">
        <ele>1160.9300000000001</ele>
        <time>2025-04-25T09:47:17Z</time>
      </trkpt>
      <trkpt lat="44.751950986683369" lon="2.904580989852548">
        <ele>1155.6400000000001</ele>
        <time>2025-04-25T09:47:25Z</time>
      </trkpt>
      <trkpt lat="44.752106973901391" lon="2.904603034257889">
        <ele>1154.2</ele>
        <time>2025-04-25T09:47:26Z</time>
      </trkpt>
      <trkpt lat="44.7522740252316" lon="2.904603034257889">
        <ele>1152.76</ele>
        <time>2025-04-25T09:47:27Z</time>
      </trkpt>
      <trkpt lat="44.753829035907984" lon="2.904184022918344">
        <ele>1142.6600000000001</ele>
        <time>2025-04-25T09:47:35Z</time>
      </trkpt>
      <trkpt lat="44.754538983106613" lon="2.903945976868272">
        <ele>1140.26</ele>
        <time>2025-04-25T09:47:39Z</time>
      </trkpt>
      <trkpt lat="44.754676027223468" lon="2.90394002571702">
        <ele>1139.78</ele>
        <time>2025-04-25T09:47:40Z</time>
      </trkpt>
      <trkpt lat="44.754790021106601" lon="2.903934996575117">
        <ele>1140.26</ele>
        <time>2025-04-25T09:47:41Z</time>
      </trkpt>
      <trkpt lat="44.75528203882277" lon="2.904010014608502">
        <ele>1142.1800000000001</ele>
        <time>2025-04-25T09:47:45Z</time>
      </trkpt>
      <trkpt lat="44.755408018827438" lon="2.90396198630333">
        <ele>1142.6600000000001</ele>
        <time>2025-04-25T09:47:46Z</time>
      </trkpt>
      <trkpt lat="44.755532993003726" lon="2.903885040432215">
        <ele>1143.6300000000001</ele>
        <time>2025-04-25T09:47:47Z</time>
      </trkpt>
      <trkpt lat="44.755652016028762" lon="2.903771968558431">
        <ele>1144.1099999999999</ele>
        <time>2025-04-25T09:47:48Z</time>
      </trkpt>
      <trkpt lat="44.755767015740275" lon="2.90361899882555">
        <ele>1145.0699999999999</ele>
        <time>2025-04-25T09:47:49Z</time>
      </trkpt>
      <trkpt lat="44.756743004545569" lon="2.902061976492405">
        <ele>1150.8399999999999</ele>
        <time>2025-04-25T09:47:57Z</time>
      </trkpt>
      <trkpt lat="44.757047016173601" lon="2.901426963508129">
        <ele>1150.8399999999999</ele>
        <time>2025-04-25T09:48:00Z</time>
      </trkpt>
      <trkpt lat="44.757135026156902" lon="2.901243986561894">
        <ele>1150.3499999999999</ele>
        <time>2025-04-25T09:48:01Z</time>
      </trkpt>
      <trkpt lat="44.757258994504809" lon="2.901128986850381">
        <ele>1150.3499999999999</ele>
        <time>2025-04-25T09:48:02Z</time>
      </trkpt>
      <trkpt lat="44.757384974509478" lon="2.901023039594293">
        <ele>1150.3499999999999</ele>
        <time>2025-04-25T09:48:03Z</time>
      </trkpt>
      <trkpt lat="44.757528975605965" lon="2.900982974097133">
        <ele>1149.8699999999999</ele>
        <time>2025-04-25T09:48:04Z</time>
      </trkpt>
      <trkpt lat="44.757690997794271" lon="2.900968976318836">
        <ele>1149.8699999999999</ele>
        <time>2025-04-25T09:48:05Z</time>
      </trkpt>
      <trkpt lat="44.75786198861897" lon="2.90095497854054">
        <ele>1149.8699999999999</ele>
        <time>2025-04-25T09:48:06Z</time>
      </trkpt>
      <trkpt lat="44.758041026070714" lon="2.900965036824346">
        <ele>1150.3499999999999</ele>
        <time>2025-04-25T09:48:07Z</time>
      </trkpt>
      <trkpt lat="44.75898097269237" lon="2.901119012385607">
        <ele>1151.3199999999999</ele>
        <time>2025-04-25T09:48:12Z</time>
      </trkpt>
      <trkpt lat="44.759154981002212" lon="2.901218002662063">
        <ele>1151.8</ele>
        <time>2025-04-25T09:48:13Z</time>
      </trkpt>
      <trkpt lat="44.75932396017015" lon="2.901317998766899">
        <ele>1151.8</ele>
        <time>2025-04-25T09:48:14Z</time>
      </trkpt>
      <trkpt lat="44.760097023099661" lon="2.901911018416286">
        <ele>1152.76</ele>
        <time>2025-04-25T09:48:19Z</time>
      </trkpt>
      <trkpt lat="44.760220991447568" lon="2.901981007307768">
        <ele>1152.76</ele>
        <time>2025-04-25T09:48:20Z</time>
      </trkpt>
      <trkpt lat="44.760343031957746" lon="2.901969021186233">
        <ele>1152.76</ele>
        <time>2025-04-25T09:48:21Z</time>
      </trkpt>
      <trkpt lat="44.760476974770427" lon="2.90192199870944">
        <ele>1152.76</ele>
        <time>2025-04-25T09:48:22Z</time>
      </trkpt>
      <trkpt lat="44.760621981695294" lon="2.901871036738157">
        <ele>1152.76</ele>
        <time>2025-04-25T09:48:23Z</time>
      </trkpt>
      <trkpt lat="44.761217013001442" lon="2.901595020666719">
        <ele>1152.76</ele>
        <time>2025-04-25T09:48:27Z</time>
      </trkpt>
      <trkpt lat="44.761347016319633" lon="2.901465017348528">
        <ele>1152.28</ele>
        <time>2025-04-25T09:48:28Z</time>
      </trkpt>
      <trkpt lat="44.761478025466204" lon="2.901334008201957">
        <ele>1152.28</ele>
        <time>2025-04-25T09:48:29Z</time>
      </trkpt>
      <trkpt lat="44.761586990207434" lon="2.901163017377257">
        <ele>1151.8</ele>
        <time>2025-04-25T09:48:30Z</time>
      </trkpt>
      <trkpt lat="44.761684974655509" lon="2.900977022945881">
        <ele>1151.8</ele>
        <time>2025-04-25T09:48:31Z</time>
      </trkpt>
      <trkpt lat="44.761782959103584" lon="2.900770995765925">
        <ele>1151.3199999999999</ele>
        <time>2025-04-25T09:48:32Z</time>
      </trkpt>
      <trkpt lat="44.761871974915266" lon="2.900543007999659">
        <ele>1151.3199999999999</ele>
        <time>2025-04-25T09:48:33Z</time>
      </trkpt>
      <trkpt lat="44.762139022350311" lon="2.899853009730578">
        <ele>1150.8399999999999</ele>
        <time>2025-04-25T09:48:36Z</time>
      </trkpt>
      <trkpt lat="44.762251004576683" lon="2.89968503639102">
        <ele>1150.3499999999999</ele>
        <time>2025-04-25T09:48:37Z</time>
      </trkpt>
      <trkpt lat="44.762388970702887" lon="2.899517985060811">
        <ele>1150.3499999999999</ele>
        <time>2025-04-25T09:48:38Z</time>
      </trkpt>
      <trkpt lat="44.762920970097184" lon="2.898854976519942">
        <ele>1149.8699999999999</ele>
        <time>2025-04-25T09:48:42Z</time>
      </trkpt>
      <trkpt lat="44.763018032535911" lon="2.898661019280553">
        <ele>1149.8699999999999</ele>
        <time>2025-04-25T09:48:43Z</time>
      </trkpt>
      <trkpt lat="44.763107970356941" lon="2.898480976000428">
        <ele>1149.3900000000001</ele>
        <time>2025-04-25T09:48:44Z</time>
      </trkpt>
      <trkpt lat="44.763131020590663" lon="2.898233039304614">
        <ele>1149.3900000000001</ele>
        <time>2025-04-25T09:48:45Z</time>
      </trkpt>
      <trkpt lat="44.763153987005353" lon="2.897985018789768">
        <ele>1149.3900000000001</ele>
        <time>2025-04-25T09:48:46Z</time>
      </trkpt>
      <trkpt lat="44.763177959248424" lon="2.897727023810148">
        <ele>1149.3900000000001</ele>
        <time>2025-04-25T09:48:47Z</time>
      </trkpt>
      <trkpt lat="44.763482976704836" lon="2.895383024588227">
        <ele>1146.51</ele>
        <time>2025-04-25T09:48:55Z</time>
      </trkpt>
      <trkpt lat="44.764022016897798" lon="2.893691975623369">
        <ele>1146.51</ele>
        <time>2025-04-25T09:49:01Z</time>
      </trkpt>
      <trkpt lat="44.764742022380233" lon="2.891098028048873">
        <ele>1146.03</ele>
        <time>2025-04-25T09:49:10Z</time>
      </trkpt>
      <trkpt lat="44.765864023938775" lon="2.887575030326843">
        <ele>1136.4200000000001</ele>
        <time>2025-04-25T09:49:22Z</time>
      </trkpt>
      <trkpt lat="44.766706991940737" lon="2.886191010475159">
        <ele>1128.73</ele>
        <time>2025-04-25T09:49:28Z</time>
      </trkpt>
      <trkpt lat="44.767352985218167" lon="2.88548500277102">
        <ele>1122.48</ele>
        <time>2025-04-25T09:49:33Z</time>
      </trkpt>
      <trkpt lat="44.767536967992783" lon="2.885334966704249">
        <ele>1118.6300000000001</ele>
        <time>2025-04-25T09:49:37Z</time>
      </trkpt>
      <trkpt lat="44.767883978784084" lon="2.885074960067868">
        <ele>1112.3800000000001</ele>
        <time>2025-04-25T09:49:46Z</time>
      </trkpt>
      <trkpt lat="44.768579006195068" lon="2.884380016475916">
        <ele>1107.5799999999999</ele>
        <time>2025-04-25T09:49:54Z</time>
      </trkpt>
      <trkpt lat="44.76864698342979" lon="2.884306004270911">
        <ele>1107.0999999999999</ele>
        <time>2025-04-25T09:49:55Z</time>
      </trkpt>
      <trkpt lat="44.768694005906582" lon="2.884254958480597">
        <ele>1106.6099999999999</ele>
        <time>2025-04-25T09:49:56Z</time>
      </trkpt>
      <trkpt lat="44.768722001463175" lon="2.884224029257894">
        <ele>1106.6099999999999</ele>
        <time>2025-04-25T09:49:57Z</time>
      </trkpt>
      <trkpt lat="44.768743040040135" lon="2.884200979024172">
        <ele>1106.1300000000001</ele>
        <time>2025-04-25T09:49:58Z</time>
      </trkpt>
      <trkpt lat="44.768762988969684" lon="2.884179018437862">
        <ele>1105.6500000000001</ele>
        <time>2025-04-25T09:49:59Z</time>
      </trkpt>
      <trkpt lat="44.768772963434458" lon="2.884168960154057">
        <ele>1105.6500000000001</ele>
        <time>2025-04-25T09:50:00Z</time>
      </trkpt>
      <trkpt lat="44.768835995346308" lon="2.884159991517663">
        <ele>1105.1700000000001</ele>
        <time>2025-04-25T09:50:01Z</time>
      </trkpt>
      <trkpt lat="44.768874971196055" lon="2.88415496237576">
        <ele>1104.6900000000001</ele>
        <time>2025-04-25T09:50:02Z</time>
      </trkpt>
      <trkpt lat="44.76890497840941" lon="2.88415102288127">
        <ele>1104.6900000000001</ele>
        <time>2025-04-25T09:50:03Z</time>
      </trkpt>
      <trkpt lat="44.768930962309241" lon="2.884148005396128">
        <ele>1104.21</ele>
        <time>2025-04-25T09:50:04Z</time>
      </trkpt>
      <trkpt lat="44.768972033634782" lon="2.884141970425844">
        <ele>1104.21</ele>
        <time>2025-04-25T09:50:05Z</time>
      </trkpt>
      <trkpt lat="44.769011009484529" lon="2.884137025102973">
        <ele>1103.73</ele>
        <time>2025-04-25T09:50:06Z</time>
      </trkpt>
      <trkpt lat="44.769094996154308" lon="2.884125960990787">
        <ele>1103.73</ele>
        <time>2025-04-25T09:50:07Z</time>
      </trkpt>
      <trkpt lat="44.76912098005414" lon="2.884106012061238">
        <ele>1103.73</ele>
        <time>2025-04-25T09:50:08Z</time>
      </trkpt>
      <trkpt lat="44.769303034991026" lon="2.883897973224521">
        <ele>1103.25</ele>
        <time>2025-04-25T09:50:11Z</time>
      </trkpt>
      <trkpt lat="44.76944200694561" lon="2.883761012926698">
        <ele>1103.25</ele>
        <time>2025-04-25T09:50:13Z</time>
      </trkpt>
      <trkpt lat="44.76980603300035" lon="2.883532019332051">
        <ele>1103.73</ele>
        <time>2025-04-25T09:50:17Z</time>
      </trkpt>
      <trkpt lat="44.769881973043084" lon="2.883483991026878">
        <ele>1103.73</ele>
        <time>2025-04-25T09:50:18Z</time>
      </trkpt>
      <trkpt lat="44.770266031846404" lon="2.883094986900687">
        <ele>1103.73</ele>
        <time>2025-04-25T09:50:23Z</time>
      </trkpt>
      <trkpt lat="44.770607007667422" lon="2.882810002192855">
        <ele>1102.29</ele>
        <time>2025-04-25T09:50:30Z</time>
      </trkpt>
      <trkpt lat="44.770614970475435" lon="2.882793992757797">
        <ele>1102.29</ele>
        <time>2025-04-25T09:50:31Z</time>
      </trkpt>
      <trkpt lat="44.770639026537538" lon="2.882751999422908">
        <ele>1102.29</ele>
        <time>2025-04-25T09:50:40Z</time>
      </trkpt>
      <trkpt lat="44.770598039031029" lon="2.882751999422908">
        <ele>1102.29</ele>
        <time>2025-04-25T09:50:41Z</time>
      </trkpt>
      <trkpt lat="44.770526038482785" lon="2.882751999422908">
        <ele>1102.29</ele>
        <time>2025-04-25T09:50:42Z</time>
      </trkpt>
      <trkpt lat="44.76961400359869" lon="2.882751999422908">
        <ele>1099.8900000000001</ele>
        <time>2025-04-25T09:50:51Z</time>
      </trkpt>
      <trkpt lat="44.769304040819407" lon="2.88275501690805">
        <ele>1098.9200000000001</ele>
        <time>2025-04-25T09:50:54Z</time>
      </trkpt>
      <trkpt lat="44.769198009744287" lon="2.882757028564811">
        <ele>1097.96</ele>
        <time>2025-04-25T09:50:55Z</time>
      </trkpt>
      <trkpt lat="44.767866963520646" lon="2.882772032171488">
        <ele>1091.71</ele>
        <time>2025-04-25T09:51:06Z</time>
      </trkpt>
      <trkpt lat="44.766797013580799" lon="2.88275501690805">
        <ele>1089.79</ele>
        <time>2025-04-25T09:51:13Z</time>
      </trkpt>
      <trkpt lat="44.76508098654449" lon="2.882859958335757">
        <ele>1084.5</ele>
        <time>2025-04-25T09:51:22Z</time>
      </trkpt>
      <trkpt lat="44.762444961816072" lon="2.883231025189161">
        <ele>1084.99</ele>
        <time>2025-04-25T09:51:34Z</time>
      </trkpt>
      <trkpt lat="44.76076296530664" lon="2.883449960500002">
        <ele>1085.95</ele>
        <time>2025-04-25T09:51:41Z</time>
      </trkpt>
      <trkpt lat="44.760516034439206" lon="2.88340101018548">
        <ele>1085.95</ele>
        <time>2025-04-25T09:51:42Z</time>
      </trkpt>
      <trkpt lat="44.760283017531037" lon="2.883299002423883">
        <ele>1086.4300000000001</ele>
        <time>2025-04-25T09:51:43Z</time>
      </trkpt>
      <trkpt lat="44.760048994794488" lon="2.883176039904356">
        <ele>1086.4300000000001</ele>
        <time>2025-04-25T09:51:44Z</time>
      </trkpt>
      <trkpt lat="44.759815977886319" lon="2.883044024929404">
        <ele>1086.4300000000001</ele>
        <time>2025-04-25T09:51:45Z</time>
      </trkpt>
      <trkpt lat="44.757267041131854" lon="2.881536958739162">
        <ele>1090.27</ele>
        <time>2025-04-25T09:51:56Z</time>
      </trkpt>
      <trkpt lat="44.757073000073433" lon="2.88133998401463">
        <ele>1091.71</ele>
        <time>2025-04-25T09:51:57Z</time>
      </trkpt>
      <trkpt lat="44.756902009248734" lon="2.881121970713139">
        <ele>1092.2</ele>
        <time>2025-04-25T09:51:58Z</time>
      </trkpt>
      <trkpt lat="44.756761025637388" lon="2.88086699321866">
        <ele>1093.1600000000001</ele>
        <time>2025-04-25T09:51:59Z</time>
      </trkpt>
      <trkpt lat="44.756625993177295" lon="2.880613021552563">
        <ele>1093.6400000000001</ele>
        <time>2025-04-25T09:52:00Z</time>
      </trkpt>
      <trkpt lat="44.756498001515865" lon="2.88034999743104">
        <ele>1094.1199999999999</ele>
        <time>2025-04-25T09:52:01Z</time>
      </trkpt>
      <trkpt lat="44.756398005411029" lon="2.880066018551588">
        <ele>1095.0799999999999</ele>
        <time>2025-04-25T09:52:02Z</time>
      </trkpt>
      <trkpt lat="44.756340002641082" lon="2.879752032458782">
        <ele>1096.52</ele>
        <time>2025-04-25T09:52:03Z</time>
      </trkpt>
      <trkpt lat="44.756287029013038" lon="2.879443997517228">
        <ele>1097.48</ele>
        <time>2025-04-25T09:52:04Z</time>
      </trkpt>
      <trkpt lat="44.756256015971303" lon="2.879134034737945">
        <ele>1098.9200000000001</ele>
        <time>2025-04-25T09:52:05Z</time>
      </trkpt>
      <trkpt lat="44.755877992138267" lon="2.875742968171835">
        <ele>1111.9000000000001</ele>
        <time>2025-04-25T09:52:16Z</time>
      </trkpt>
      <trkpt lat="44.755824012681842" lon="2.87547399289906">
        <ele>1112.8599999999999</ele>
        <time>2025-04-25T09:52:17Z</time>
      </trkpt>
      <trkpt lat="44.755740026012063" lon="2.875249022617936">
        <ele>1113.3399999999999</ele>
        <time>2025-04-25T09:52:18Z</time>
      </trkpt>
      <trkpt lat="44.755650004372001" lon="2.87504299543798">
        <ele>1114.3099999999999</ele>
        <time>2025-04-25T09:52:19Z</time>
      </trkpt>
      <trkpt lat="44.755568029358983" lon="2.874853983521462">
        <ele>1114.79</ele>
        <time>2025-04-25T09:52:20Z</time>
      </trkpt>
      <trkpt lat="44.755503991618752" lon="2.874706964939833">
        <ele>1115.27</ele>
        <time>2025-04-25T09:52:21Z</time>
      </trkpt>
      <trkpt lat="44.755457974970341" lon="2.874601017683744">
        <ele>1115.75</ele>
        <time>2025-04-25T09:52:22Z</time>
      </trkpt>
      <trkpt lat="44.755469039082527" lon="2.874389961361885">
        <ele>1116.23</ele>
        <time>2025-04-25T09:52:23Z</time>
      </trkpt>
      <trkpt lat="44.755536010488868" lon="2.87431301549077">
        <ele>1116.71</ele>
        <time>2025-04-25T09:52:24Z</time>
      </trkpt>
      <trkpt lat="44.755615973845124" lon="2.874218970537186">
        <ele>1117.1900000000001</ele>
        <time>2025-04-25T09:52:25Z</time>
      </trkpt>
      <trkpt lat="44.755681017413735" lon="2.87407698109746">
        <ele>1117.6700000000001</ele>
        <time>2025-04-25T09:52:26Z</time>
      </trkpt>
      <trkpt lat="44.755747988820076" lon="2.873889980837703">
        <ele>1117.6700000000001</ele>
        <time>2025-04-25T09:52:27Z</time>
      </trkpt>
      <trkpt lat="44.755766009911895" lon="2.873681019991636">
        <ele>1117.6700000000001</ele>
        <time>2025-04-25T09:52:28Z</time>
      </trkpt>
      <trkpt lat="44.755785958841443" lon="2.873446997255087">
        <ele>1117.6700000000001</ele>
        <time>2025-04-25T09:52:29Z</time>
      </trkpt>
      <trkpt lat="44.755806997418404" lon="2.873193025588989">
        <ele>1117.6700000000001</ele>
        <time>2025-04-25T09:52:30Z</time>
      </trkpt>
      <trkpt lat="44.756012018769979" lon="2.870798986405134">
        <ele>1113.8199999999999</ele>
        <time>2025-04-25T09:52:38Z</time>
      </trkpt>
      <trkpt lat="44.756360035389662" lon="2.866714987903833">
        <ele>1109.02</ele>
        <time>2025-04-25T09:52:51Z</time>
      </trkpt>
      <trkpt lat="44.756489032879472" lon="2.865715026855469">
        <ele>1109.02</ele>
        <time>2025-04-25T09:52:55Z</time>
      </trkpt>
      <trkpt lat="44.756562039256096" lon="2.865487039089203">
        <ele>1108.54</ele>
        <time>2025-04-25T09:52:56Z</time>
      </trkpt>
      <trkpt lat="44.756662035360932" lon="2.865276988595724">
        <ele>1108.54</ele>
        <time>2025-04-25T09:52:57Z</time>
      </trkpt>
      <trkpt lat="44.756778040900826" lon="2.865067021921277">
        <ele>1108.0599999999999</ele>
        <time>2025-04-25T09:52:58Z</time>
      </trkpt>
      <trkpt lat="44.756898991763592" lon="2.864852026104927">
        <ele>1108.0599999999999</ele>
        <time>2025-04-25T09:52:59Z</time>
      </trkpt>
      <trkpt lat="44.75764699280262" lon="2.863457025960088">
        <ele>1106.1300000000001</ele>
        <time>2025-04-25T09:53:05Z</time>
      </trkpt>
      <trkpt lat="44.757727039977908" lon="2.863175980746746">
        <ele>1105.6500000000001</ele>
        <time>2025-04-25T09:53:06Z</time>
      </trkpt>
      <trkpt lat="44.757807003334165" lon="2.862895019352436">
        <ele>1105.6500000000001</ele>
        <time>2025-04-25T09:53:07Z</time>
      </trkpt>
      <trkpt lat="44.758362974971533" lon="2.859544018283486">
        <ele>1100.8499999999999</ele>
        <time>2025-04-25T09:53:18Z</time>
      </trkpt>
      <trkpt lat="44.758532959967852" lon="2.857103040441871">
        <ele>1098.4400000000001</ele>
        <time>2025-04-25T09:53:26Z</time>
      </trkpt>
      <trkpt lat="44.758542012423277" lon="2.856809003278613">
        <ele>1097.48</ele>
        <time>2025-04-25T09:53:27Z</time>
      </trkpt>
      <trkpt lat="44.758604038506746" lon="2.856532987207174">
        <ele>1097.48</ele>
        <time>2025-04-25T09:53:28Z</time>
      </trkpt>
      <trkpt lat="44.758693976327777" lon="2.856272980570793">
        <ele>1097</ele>
        <time>2025-04-25T09:53:29Z</time>
      </trkpt>
      <trkpt lat="44.759073005989194" lon="2.855228008702397">
        <ele>1095.0799999999999</ele>
        <time>2025-04-25T09:53:33Z</time>
      </trkpt>
      <trkpt lat="44.759132014587522" lon="2.8549550101161">
        <ele>1094.5999999999999</ele>
        <time>2025-04-25T09:53:34Z</time>
      </trkpt>
      <trkpt lat="44.759168978780508" lon="2.854671031236649">
        <ele>1093.6400000000001</ele>
        <time>2025-04-25T09:53:35Z</time>
      </trkpt>
      <trkpt lat="44.759606011211872" lon="2.851340984925628">
        <ele>1086.9100000000001</ele>
        <time>2025-04-25T09:53:46Z</time>
      </trkpt>
      <trkpt lat="44.759802985936403" lon="2.850276986137033">
        <ele>1084.99</ele>
        <time>2025-04-25T09:53:50Z</time>
      </trkpt>
      <trkpt lat="44.759870963171124" lon="2.850044975057244">
        <ele>1084.99</ele>
        <time>2025-04-25T09:53:51Z</time>
      </trkpt>
      <trkpt lat="44.759981017559767" lon="2.849875995889306">
        <ele>1084.5</ele>
        <time>2025-04-25T09:53:52Z</time>
      </trkpt>
      <trkpt lat="44.760530032217503" lon="2.84913101233542">
        <ele>1082.5799999999999</ele>
        <time>2025-04-25T09:53:58Z</time>
      </trkpt>
      <trkpt lat="44.760624999180436" lon="2.849049959331751">
        <ele>1082.0999999999999</ele>
        <time>2025-04-25T09:53:59Z</time>
      </trkpt>
      <trkpt lat="44.760809987783432" lon="2.848891038447619">
        <ele>1082.0999999999999</ele>
        <time>2025-04-25T09:54:01Z</time>
      </trkpt>
      <trkpt lat="44.760918030515313" lon="2.848854996263981">
        <ele>1081.6199999999999</ele>
        <time>2025-04-25T09:54:02Z</time>
      </trkpt>
      <trkpt lat="44.761433014646173" lon="2.848762040957809">
        <ele>1081.6199999999999</ele>
        <time>2025-04-25T09:54:07Z</time>
      </trkpt>
      <trkpt lat="44.76203097961843" lon="2.84874401986599">
        <ele>1080.1800000000001</ele>
        <time>2025-04-25T09:54:12Z</time>
      </trkpt>
      <trkpt lat="44.762099040672183" lon="2.848742008209229">
        <ele>1080.1800000000001</ele>
        <time>2025-04-25T09:54:13Z</time>
      </trkpt>
      <trkpt lat="44.762199958786368" lon="2.848651986569166">
        <ele>1079.7</ele>
        <time>2025-04-25T09:54:14Z</time>
      </trkpt>
      <trkpt lat="44.762275982648134" lon="2.848585015162826">
        <ele>1079.22</ele>
        <time>2025-04-25T09:54:15Z</time>
      </trkpt>
      <trkpt lat="44.76235100068152" lon="2.848512008786202">
        <ele>1078.74</ele>
        <time>2025-04-25T09:54:16Z</time>
      </trkpt>
      <trkpt lat="44.762486033141613" lon="2.848333977162838">
        <ele>1077.78</ele>
        <time>2025-04-25T09:54:18Z</time>
      </trkpt>
      <trkpt lat="44.762530960142612" lon="2.848232975229621">
        <ele>1077.29</ele>
        <time>2025-04-25T09:54:19Z</time>
      </trkpt>
      <trkpt lat="44.762572031468153" lon="2.848134990781546">
        <ele>1076.8099999999999</ele>
        <time>2025-04-25T09:54:20Z</time>
      </trkpt>
      <trkpt lat="44.762582005932927" lon="2.848028037697077">
        <ele>1076.8099999999999</ele>
        <time>2025-04-25T09:54:21Z</time>
      </trkpt>
      <trkpt lat="44.762591980397701" lon="2.847918989136815">
        <ele>1076.8099999999999</ele>
        <time>2025-04-25T09:54:22Z</time>
      </trkpt>
      <trkpt lat="44.762564990669489" lon="2.847795020788908">
        <ele>1076.8099999999999</ele>
        <time>2025-04-25T09:54:23Z</time>
      </trkpt>
      <trkpt lat="44.762549987062812" lon="2.847734000533819">
        <ele>1076.8099999999999</ele>
        <time>2025-04-25T09:54:24Z</time>
      </trkpt>
      <trkpt lat="44.762561973184347" lon="2.847569966688752">
        <ele>1076.8099999999999</ele>
        <time>2025-04-25T09:54:25Z</time>
      </trkpt>
      <trkpt lat="44.762570019811392" lon="2.84747801721096">
        <ele>1075.8499999999999</ele>
        <time>2025-04-25T09:54:26Z</time>
      </trkpt>
      <trkpt lat="44.762608995661139" lon="2.847404005005956">
        <ele>1075.3699999999999</ele>
        <time>2025-04-25T09:54:27Z</time>
      </trkpt>
      <trkpt lat="44.762678984552622" lon="2.847309038043022">
        <ele>1074.8900000000001</ele>
        <time>2025-04-25T09:54:28Z</time>
      </trkpt>
      <trkpt lat="44.762755008414388" lon="2.847205018624663">
        <ele>1074.4100000000001</ele>
        <time>2025-04-25T09:54:29Z</time>
      </trkpt>
      <trkpt lat="44.762834971770644" lon="2.847096975892782">
        <ele>1073.9300000000001</ele>
        <time>2025-04-25T09:54:30Z</time>
      </trkpt>
      <trkpt lat="44.762904038652778" lon="2.846974013373256">
        <ele>1073.45</ele>
        <time>2025-04-25T09:54:31Z</time>
      </trkpt>
      <trkpt lat="44.763027001172304" lon="2.846694979816675">
        <ele>1073.45</ele>
        <time>2025-04-25T09:54:33Z</time>
      </trkpt>
      <trkpt lat="44.763566041365266" lon="2.845253041014075">
        <ele>1069.5999999999999</ele>
        <time>2025-04-25T09:54:42Z</time>
      </trkpt>
      <trkpt lat="44.763649022206664" lon="2.845121026039124">
        <ele>1069.1199999999999</ele>
        <time>2025-04-25T09:54:43Z</time>
      </trkpt>
      <trkpt lat="44.764690976589918" lon="2.843549000099301">
        <ele>1060.47</ele>
        <time>2025-04-25T09:54:53Z</time>
      </trkpt>
      <trkpt lat="44.765565963461995" lon="2.842204961925745">
        <ele>1051.3399999999999</ele>
        <time>2025-04-25T09:55:01Z</time>
      </trkpt>
      <trkpt lat="44.765608962625265" lon="2.842017039656639">
        <ele>1049.9000000000001</ele>
        <time>2025-04-25T09:55:02Z</time>
      </trkpt>
      <trkpt lat="44.765635030344129" lon="2.841821992769837">
        <ele>1048.45</ele>
        <time>2025-04-25T09:55:03Z</time>
      </trkpt>
      <trkpt lat="44.76559798233211" lon="2.841629963368177">
        <ele>1046.53</ele>
        <time>2025-04-25T09:55:04Z</time>
      </trkpt>
      <trkpt lat="44.765542997047305" lon="2.841417985036969">
        <ele>1045.0899999999999</ele>
        <time>2025-04-25T09:55:05Z</time>
      </trkpt>
      <trkpt lat="44.765486000105739" lon="2.84120500087738">
        <ele>1043.6500000000001</ele>
        <time>2025-04-25T09:55:06Z</time>
      </trkpt>
      <trkpt lat="44.765386004000902" lon="2.841028980910778">
        <ele>1042.21</ele>
        <time>2025-04-25T09:55:07Z</time>
      </trkpt>
      <trkpt lat="44.765276033431292" lon="2.840887997299433">
        <ele>1040.76</ele>
        <time>2025-04-25T09:55:08Z</time>
      </trkpt>
      <trkpt lat="44.765150975435972" lon="2.840820020064712">
        <ele>1039.3199999999999</ele>
        <time>2025-04-25T09:55:09Z</time>
      </trkpt>
      <trkpt lat="44.765044022351503" lon="2.840762017294765">
        <ele>1037.8800000000001</ele>
        <time>2025-04-25T09:55:10Z</time>
      </trkpt>
      <trkpt lat="44.764941008761525" lon="2.840804010629654">
        <ele>1036.4400000000001</ele>
        <time>2025-04-25T09:55:11Z</time>
      </trkpt>
      <trkpt lat="44.76480295881629" lon="2.840866958722472">
        <ele>1035</ele>
        <time>2025-04-25T09:55:12Z</time>
      </trkpt>
      <trkpt lat="44.764708997681737" lon="2.840976007282734">
        <ele>1033.0699999999999</ele>
        <time>2025-04-25T09:55:13Z</time>
      </trkpt>
      <trkpt lat="44.764587040990591" lon="2.84111799672246">
        <ele>1031.6300000000001</ele>
        <time>2025-04-25T09:55:14Z</time>
      </trkpt>
      <trkpt lat="44.764312030747533" lon="2.84144002944231">
        <ele>1028.27</ele>
        <time>2025-04-25T09:55:16Z</time>
      </trkpt>
      <trkpt lat="44.764126958325505" lon="2.841538013890386">
        <ele>1026.8299999999999</ele>
        <time>2025-04-25T09:55:17Z</time>
      </trkpt>
      <trkpt lat="44.763944987207651" lon="2.841617977246642">
        <ele>1025.8599999999999</ele>
        <time>2025-04-25T09:55:18Z</time>
      </trkpt>
      <trkpt lat="44.763738960027695" lon="2.841643039137125">
        <ele>1024.4200000000001</ele>
        <time>2025-04-25T09:55:19Z</time>
      </trkpt>
      <trkpt lat="44.763534022495151" lon="2.841668017208576">
        <ele>1023.46</ele>
        <time>2025-04-25T09:55:20Z</time>
      </trkpt>
      <trkpt lat="44.761210978031158" lon="2.841947972774506">
        <ele>1008.5599999999999</ele>
        <time>2025-04-25T09:55:31Z</time>
      </trkpt>
      <trkpt lat="44.760672021657228" lon="2.841984014958143">
        <ele>1003.27</ele>
        <time>2025-04-25T09:55:34Z</time>
      </trkpt>
      <trkpt lat="44.760511005297303" lon="2.841940009966493">
        <ele>1001.83</ele>
        <time>2025-04-25T09:55:35Z</time>
      </trkpt>
      <trkpt lat="44.760367004200816" lon="2.841829033568502">
        <ele>999.90999999999997</ele>
        <time>2025-04-25T09:55:36Z</time>
      </trkpt>
      <trkpt lat="44.760227026417851" lon="2.841715961694717">
        <ele>997.99000000000001</ele>
        <time>2025-04-25T09:55:37Z</time>
      </trkpt>
      <trkpt lat="44.760120995342731" lon="2.841536002233625">
        <ele>996.53999999999996</ele>
        <time>2025-04-25T09:55:38Z</time>
      </trkpt>
      <trkpt lat="44.76001001894474" lon="2.841349001973867">
        <ele>995.10000000000002</ele>
        <time>2025-04-25T09:55:39Z</time>
      </trkpt>
      <trkpt lat="44.759925026446581" lon="2.841123025864363">
        <ele>993.65999999999997</ele>
        <time>2025-04-25T09:55:40Z</time>
      </trkpt>
      <trkpt lat="44.759871968999505" lon="2.840877017006278">
        <ele>992.22000000000003</ele>
        <time>2025-04-25T09:55:41Z</time>
      </trkpt>
      <trkpt lat="44.759854031726718" lon="2.8406030125916">
        <ele>991.25999999999999</ele>
        <time>2025-04-25T09:55:42Z</time>
      </trkpt>
      <trkpt lat="44.759868029505014" lon="2.840325990691781">
        <ele>990.29999999999995</ele>
        <time>2025-04-25T09:55:43Z</time>
      </trkpt>
      <trkpt lat="44.75988102145493" lon="2.840044023469091">
        <ele>989.33000000000004</ele>
        <time>2025-04-25T09:55:44Z</time>
      </trkpt>
      <trkpt lat="44.759895019233227" lon="2.839759038761258">
        <ele>988.37</ele>
        <time>2025-04-25T09:55:45Z</time>
      </trkpt>
      <trkpt lat="44.759882027283311" lon="2.838885979726911">
        <ele>986.92999999999995</ele>
        <time>2025-04-25T09:55:48Z</time>
      </trkpt>
      <trkpt lat="44.759861994534731" lon="2.838590014725924">
        <ele>986.45000000000005</ele>
        <time>2025-04-25T09:55:49Z</time>
      </trkpt>
      <trkpt lat="44.759797034785151" lon="2.838301006704569">
        <ele>986.45000000000005</ele>
        <time>2025-04-25T09:55:50Z</time>
      </trkpt>
      <trkpt lat="44.759507020935416" lon="2.837132988497615">
        <ele>985.49000000000001</ele>
        <time>2025-04-25T09:55:54Z</time>
      </trkpt>
      <trkpt lat="44.759398978203535" lon="2.83686300739646">
        <ele>985.00999999999999</ele>
        <time>2025-04-25T09:55:55Z</time>
      </trkpt>
      <trkpt lat="44.758707974106073" lon="2.834987975656986">
        <ele>983.57000000000005</ele>
        <time>2025-04-25T09:56:02Z</time>
      </trkpt>
      <trkpt lat="44.758662963286042" lon="2.834708020091057">
        <ele>983.57000000000005</ele>
        <time>2025-04-25T09:56:03Z</time>
      </trkpt>
      <trkpt lat="44.758624993264675" lon="2.83441599458456">
        <ele>983.57000000000005</ele>
        <time>2025-04-25T09:56:04Z</time>
      </trkpt>
      <trkpt lat="44.758625999093056" lon="2.832559989765286">
        <ele>986.92999999999995</ele>
        <time>2025-04-25T09:56:10Z</time>
      </trkpt>
      <trkpt lat="44.758686013519764" lon="2.831766977906227">
        <ele>988.85000000000002</ele>
        <time>2025-04-25T09:56:13Z</time>
      </trkpt>
      <trkpt lat="44.758668998256326" lon="2.831547958776355">
        <ele>989.33000000000004</ele>
        <time>2025-04-25T09:56:14Z</time>
      </trkpt>
      <trkpt lat="44.758596997708082" lon="2.831365987658501">
        <ele>989.80999999999995</ele>
        <time>2025-04-25T09:56:15Z</time>
      </trkpt>
      <trkpt lat="44.758513011038303" lon="2.831189967691898">
        <ele>990.77999999999997</ele>
        <time>2025-04-25T09:56:16Z</time>
      </trkpt>
      <trkpt lat="44.758411003276706" lon="2.831029035151005">
        <ele>991.25999999999999</ele>
        <time>2025-04-25T09:56:17Z</time>
      </trkpt>
      <trkpt lat="44.758265996351838" lon="2.830915041267872">
        <ele>991.74000000000001</ele>
        <time>2025-04-25T09:56:18Z</time>
      </trkpt>
      <trkpt lat="44.758111014962196" lon="2.830794006586075">
        <ele>992.22000000000003</ele>
        <time>2025-04-25T09:56:19Z</time>
      </trkpt>
      <trkpt lat="44.756888011470437" lon="2.829846013337374">
        <ele>992.22000000000003</ele>
        <time>2025-04-25T09:56:26Z</time>
      </trkpt>
      <trkpt lat="44.756745016202331" lon="2.829670999199152">
        <ele>992.22000000000003</ele>
        <time>2025-04-25T09:56:27Z</time>
      </trkpt>
      <trkpt lat="44.756613001227379" lon="2.829454997554421">
        <ele>991.74000000000001</ele>
        <time>2025-04-25T09:56:28Z</time>
      </trkpt>
      <trkpt lat="44.756215028464794" lon="2.828804980963469">
        <ele>990.29999999999995</ele>
        <time>2025-04-25T09:56:31Z</time>
      </trkpt>
      <trkpt lat="44.756133975461125" lon="2.82857296988368">
        <ele>989.80999999999995</ele>
        <time>2025-04-25T09:56:32Z</time>
      </trkpt>
      <trkpt lat="44.756087958812714" lon="2.828332995995879">
        <ele>989.33000000000004</ele>
        <time>2025-04-25T09:56:33Z</time>
      </trkpt>
      <trkpt lat="44.756074966862798" lon="2.82807701267302">
        <ele>989.33000000000004</ele>
        <time>2025-04-25T09:56:34Z</time>
      </trkpt>
      <trkpt lat="44.756090976297855" lon="2.8278190176934">
        <ele>988.85000000000002</ele>
        <time>2025-04-25T09:56:35Z</time>
      </trkpt>
      <trkpt lat="44.756133975461125" lon="2.827520035207272">
        <ele>989.33000000000004</ele>
        <time>2025-04-25T09:56:36Z</time>
      </trkpt>
      <trkpt lat="44.756203964352608" lon="2.82730302773416">
        <ele>989.33000000000004</ele>
        <time>2025-04-25T09:56:37Z</time>
      </trkpt>
      <trkpt lat="44.756279988214374" lon="2.827065987512469">
        <ele>989.33000000000004</ele>
        <time>2025-04-25T09:56:38Z</time>
      </trkpt>
      <trkpt lat="44.756327010691166" lon="2.826811010017991">
        <ele>989.33000000000004</ele>
        <time>2025-04-25T09:56:39Z</time>
      </trkpt>
      <trkpt lat="44.756327010691166" lon="2.826555026695132">
        <ele>988.85000000000002</ele>
        <time>2025-04-25T09:56:40Z</time>
      </trkpt>
      <trkpt lat="44.756307983770967" lon="2.826289990916848">
        <ele>988.85000000000002</ele>
        <time>2025-04-25T09:56:41Z</time>
      </trkpt>
      <trkpt lat="44.756270013749599" lon="2.826025960966945">
        <ele>988.85000000000002</ele>
        <time>2025-04-25T09:56:42Z</time>
      </trkpt>
      <trkpt lat="44.756131041795015" lon="2.825191039592028">
        <ele>987.88999999999999</ele>
        <time>2025-04-25T09:56:45Z</time>
      </trkpt>
      <trkpt lat="44.756044037640095" lon="2.824908988550305">
        <ele>987.40999999999997</ele>
        <time>2025-04-25T09:56:46Z</time>
      </trkpt>
      <trkpt lat="44.7555429674685" lon="2.823590012267232">
        <ele>984.52999999999997</ele>
        <time>2025-04-25T09:56:52Z</time>
      </trkpt>
      <trkpt lat="44.755344986915588" lon="2.822635984048247">
        <ele>981.15999999999997</ele>
        <time>2025-04-25T09:56:59Z</time>
      </trkpt>
      <trkpt lat="44.755426961928606" lon="2.821018025279045">
        <ele>976.84000000000003</ele>
        <time>2025-04-25T09:57:10Z</time>
      </trkpt>
      <trkpt lat="44.755484964698553" lon="2.820445038378239">
        <ele>975.38999999999999</ele>
        <time>2025-04-25T09:57:14Z</time>
      </trkpt>
      <trkpt lat="44.755479013547301" lon="2.82034101895988">
        <ele>974.42999999999995</ele>
        <time>2025-04-25T09:57:15Z</time>
      </trkpt>
      <trkpt lat="44.75545403547585" lon="2.820238005369902">
        <ele>973.47000000000003</ele>
        <time>2025-04-25T09:57:16Z</time>
      </trkpt>
      <trkpt lat="44.755309028550982" lon="2.819750010967255">
        <ele>969.14999999999998</ele>
        <time>2025-04-25T09:57:20Z</time>
      </trkpt>
      <trkpt lat="44.75526100024581" lon="2.819457985460758">
        <ele>967.22000000000003</ele>
        <time>2025-04-25T09:57:22Z</time>
      </trkpt>
      <trkpt lat="44.755277009680867" lon="2.819136036559939">
        <ele>965.77999999999997</ele>
        <time>2025-04-25T09:57:24Z</time>
      </trkpt>
      <trkpt lat="44.755290001630783" lon="2.818986000493169">
        <ele>964.82000000000005</ele>
        <time>2025-04-25T09:57:25Z</time>
      </trkpt>
      <trkpt lat="44.755298970267177" lon="2.818839987739921">
        <ele>964.34000000000003</ele>
        <time>2025-04-25T09:57:26Z</time>
      </trkpt>
      <trkpt lat="44.755317997187376" lon="2.818287033587694">
        <ele>961.46000000000004</ele>
        <time>2025-04-25T09:57:30Z</time>
      </trkpt>
      <trkpt lat="44.7552839666605" lon="2.818202963098884">
        <ele>961.46000000000004</ele>
        <time>2025-04-25T09:57:31Z</time>
      </trkpt>
      <trkpt lat="44.75524096749723" lon="2.818138003349304">
        <ele>960.98000000000002</ele>
        <time>2025-04-25T09:57:32Z</time>
      </trkpt>
      <trkpt lat="44.755171984434128" lon="2.818110007792711">
        <ele>960.98000000000002</ele>
        <time>2025-04-25T09:57:33Z</time>
      </trkpt>
      <trkpt lat="44.755092021077871" lon="2.818130040541291">
        <ele>960.98000000000002</ele>
        <time>2025-04-25T09:57:34Z</time>
      </trkpt>
      <trkpt lat="44.755009962245822" lon="2.818174967542291">
        <ele>960.49000000000001</ele>
        <time>2025-04-25T09:57:35Z</time>
      </trkpt>
      <trkpt lat="44.754923963919282" lon="2.818220984190702">
        <ele>960.00999999999999</ele>
        <time>2025-04-25T09:57:36Z</time>
      </trkpt>
      <trkpt lat="44.754649037495255" lon="2.818371020257473">
        <ele>959.52999999999997</ele>
        <time>2025-04-25T09:57:39Z</time>
      </trkpt>
      <trkpt lat="44.754555998370051" lon="2.818420976400375">
        <ele>959.04999999999995</ele>
        <time>2025-04-25T09:57:40Z</time>
      </trkpt>
      <trkpt lat="44.754156013950706" lon="2.818662961944938">
        <ele>957.61000000000001</ele>
        <time>2025-04-25T09:57:45Z</time>
      </trkpt>
      <trkpt lat="44.754086025059223" lon="2.818706966936588">
        <ele>957.13</ele>
        <time>2025-04-25T09:57:46Z</time>
      </trkpt>
      <trkpt lat="44.754026010632515" lon="2.818745020776987">
        <ele>956.64999999999998</ele>
        <time>2025-04-25T09:57:47Z</time>
      </trkpt>
      <trkpt lat="44.753969013690948" lon="2.818779973313212">
        <ele>956.16999999999996</ele>
        <time>2025-04-25T09:57:48Z</time>
      </trkpt>
      <trkpt lat="44.753896007314324" lon="2.818806041032076">
        <ele>955.69000000000005</ele>
        <time>2025-04-25T09:57:49Z</time>
      </trkpt>
      <trkpt lat="44.753817971795797" lon="2.818800006061792">
        <ele>955.21000000000004</ele>
        <time>2025-04-25T09:57:50Z</time>
      </trkpt>
      <trkpt lat="44.753636000677943" lon="2.818778967484832">
        <ele>954.25</ele>
        <time>2025-04-25T09:57:52Z</time>
      </trkpt>
      <trkpt lat="44.753527035936713" lon="2.818748038262129">
        <ele>953.76999999999998</ele>
        <time>2025-04-25T09:57:53Z</time>
      </trkpt>
      <trkpt lat="44.752867966890335" lon="2.818561038002372">
        <ele>951.84000000000003</ele>
        <time>2025-04-25T09:57:58Z</time>
      </trkpt>
      <trkpt lat="44.752740981057286" lon="2.818526001647115">
        <ele>951.36000000000001</ele>
        <time>2025-04-25T09:57:59Z</time>
      </trkpt>
      <trkpt lat="44.752624975517392" lon="2.818447966128588">
        <ele>950.88</ele>
        <time>2025-04-25T09:58:00Z</time>
      </trkpt>
      <trkpt lat="44.752535037696362" lon="2.818349981680512">
        <ele>950.39999999999998</ele>
        <time>2025-04-25T09:58:01Z</time>
      </trkpt>
      <trkpt lat="44.752450967207551" lon="2.81823699362576">
        <ele>950.39999999999998</ele>
        <time>2025-04-25T09:58:02Z</time>
      </trkpt>
      <trkpt lat="44.752390030771494" lon="2.818082012236118">
        <ele>949.91999999999996</ele>
        <time>2025-04-25T09:58:03Z</time>
      </trkpt>
      <trkpt lat="44.75232096388936" lon="2.817902974784374">
        <ele>949.91999999999996</ele>
        <time>2025-04-25T09:58:04Z</time>
      </trkpt>
      <trkpt lat="44.75169500336051" lon="2.816330026835203">
        <ele>951.84000000000003</ele>
        <time>2025-04-25T09:58:11Z</time>
      </trkpt>
      <trkpt lat="44.750851029530168" lon="2.81387303955853">
        <ele>957.13</ele>
        <time>2025-04-25T09:58:20Z</time>
      </trkpt>
      <trkpt lat="44.750118032097816" lon="2.811701036989689">
        <ele>962.89999999999998</ele>
        <time>2025-04-25T09:58:28Z</time>
      </trkpt>
      <trkpt lat="44.749616039916873" lon="2.810796964913607">
        <ele>966.74000000000001</ele>
        <time>2025-04-25T09:58:32Z</time>
      </trkpt>
      <trkpt lat="44.749491987749934" lon="2.81063100323081">
        <ele>967.70000000000005</ele>
        <time>2025-04-25T09:58:33Z</time>
      </trkpt>
      <trkpt lat="44.749360978603363" lon="2.81054399907589">
        <ele>968.17999999999995</ele>
        <time>2025-04-25T09:58:34Z</time>
      </trkpt>
      <trkpt lat="44.749236004427075" lon="2.810487002134323">
        <ele>969.14999999999998</ele>
        <time>2025-04-25T09:58:35Z</time>
      </trkpt>
      <trkpt lat="44.749104995280504" lon="2.810425981879234">
        <ele>970.11000000000001</ele>
        <time>2025-04-25T09:58:36Z</time>
      </trkpt>
      <trkpt lat="44.748955965042114" lon="2.810358004644513">
        <ele>970.11000000000001</ele>
        <time>2025-04-25T09:58:37Z</time>
      </trkpt>
      <trkpt lat="44.747760035097599" lon="2.810043012723327">
        <ele>966.74000000000001</ele>
        <time>2025-04-25T09:58:43Z</time>
      </trkpt>
      <trkpt lat="44.746400993317366" lon="2.809987021610141">
        <ele>959.52999999999997</ele>
        <time>2025-04-25T09:58:49Z</time>
      </trkpt>
      <trkpt lat="44.746197983622551" lon="2.809932958334684">
        <ele>958.57000000000005</ele>
        <time>2025-04-25T09:58:50Z</time>
      </trkpt>
      <trkpt lat="44.746008971706033" lon="2.809819970279932">
        <ele>957.61000000000001</ele>
        <time>2025-04-25T09:58:51Z</time>
      </trkpt>
      <trkpt lat="44.745813002809882" lon="2.809702958911657">
        <ele>956.64999999999998</ele>
        <time>2025-04-25T09:58:52Z</time>
      </trkpt>
      <trkpt lat="44.745613010600209" lon="2.809584019705653">
        <ele>955.69000000000005</ele>
        <time>2025-04-25T09:58:53Z</time>
      </trkpt>
      <trkpt lat="44.745045974850655" lon="2.809245977550745">
        <ele>953.76999999999998</ele>
        <time>2025-04-25T09:58:56Z</time>
      </trkpt>
      <trkpt lat="44.7448640037328" lon="2.809176994487643">
        <ele>953.76999999999998</ele>
        <time>2025-04-25T09:58:57Z</time>
      </trkpt>
      <trkpt lat="44.744675997644663" lon="2.809153022244573">
        <ele>953.27999999999997</ele>
        <time>2025-04-25T09:58:58Z</time>
      </trkpt>
      <trkpt lat="44.743892038241029" lon="2.809098958969116">
        <ele>951.84000000000003</ele>
        <time>2025-04-25T09:59:02Z</time>
      </trkpt>
      <trkpt lat="44.743699003010988" lon="2.809011032804847">
        <ele>951.84000000000003</ele>
        <time>2025-04-25T09:59:03Z</time>
      </trkpt>
      <trkpt lat="44.74256300367415" lon="2.808366967365146">
        <ele>951.84000000000003</ele>
        <time>2025-04-25T09:59:09Z</time>
      </trkpt>
      <trkpt lat="44.742385977879167" lon="2.808187007904053">
        <ele>951.84000000000003</ele>
        <time>2025-04-25T09:59:10Z</time>
      </trkpt>
      <trkpt lat="44.741517025977373" lon="2.807339010760188">
        <ele>950.88</ele>
        <time>2025-04-25T09:59:15Z</time>
      </trkpt>
      <trkpt lat="44.741345029324293" lon="2.807198027148843">
        <ele>951.36000000000001</ele>
        <time>2025-04-25T09:59:16Z</time>
      </trkpt>
      <trkpt lat="44.740584958344698" lon="2.806808017194271">
        <ele>950.39999999999998</ele>
        <time>2025-04-25T09:59:20Z</time>
      </trkpt>
      <trkpt lat="44.740389995276928" lon="2.806771975010634">
        <ele>950.39999999999998</ele>
        <time>2025-04-25T09:59:21Z</time>
      </trkpt>
      <trkpt lat="44.739980958402157" lon="2.80669704079628">
        <ele>949.44000000000005</ele>
        <time>2025-04-25T09:59:23Z</time>
      </trkpt>
      <trkpt lat="44.739780966192484" lon="2.806614981964231">
        <ele>949.44000000000005</ele>
        <time>2025-04-25T09:59:24Z</time>
      </trkpt>
      <trkpt lat="44.73957703448832" lon="2.80650501139462">
        <ele>948.96000000000004</ele>
        <time>2025-04-25T09:59:25Z</time>
      </trkpt>
      <trkpt lat="44.738790979608893" lon="2.806082982569933">
        <ele>947.03999999999996</ele>
        <time>2025-04-25T09:59:29Z</time>
      </trkpt>
      <trkpt lat="44.73861001431942" lon="2.806063033640385">
        <ele>946.55999999999995</ele>
        <time>2025-04-25T09:59:30Z</time>
      </trkpt>
      <trkpt lat="44.738423014059663" lon="2.806063033640385">
        <ele>945.59000000000003</ele>
        <time>2025-04-25T09:59:31Z</time>
      </trkpt>
      <trkpt lat="44.738228973001242" lon="2.806107038632035">
        <ele>945.11000000000001</ele>
        <time>2025-04-25T09:59:32Z</time>
      </trkpt>
      <trkpt lat="44.738022023811936" lon="2.806165041401982">
        <ele>943.66999999999996</ele>
        <time>2025-04-25T09:59:33Z</time>
      </trkpt>
      <trkpt lat="44.737363960593939" lon="2.806328991428018">
        <ele>940.78999999999996</ele>
        <time>2025-04-25T09:59:36Z</time>
      </trkpt>
      <trkpt lat="44.737135972827673" lon="2.806335026398301">
        <ele>939.35000000000002</ele>
        <time>2025-04-25T09:59:37Z</time>
      </trkpt>
      <trkpt lat="44.735118029639125" lon="2.806039983406663">
        <ele>926.37</ele>
        <time>2025-04-25T09:59:46Z</time>
      </trkpt>
      <trkpt lat="44.734955001622438" lon="2.805894976481795">
        <ele>924.92999999999995</ele>
        <time>2025-04-25T09:59:47Z</time>
      </trkpt>
      <trkpt lat="44.734803959727287" lon="2.805760027840734">
        <ele>923.96000000000004</ele>
        <time>2025-04-25T09:59:48Z</time>
      </trkpt>
      <trkpt lat="44.734676973894238" lon="2.805593982338905">
        <ele>922.51999999999998</ele>
        <time>2025-04-25T09:59:49Z</time>
      </trkpt>
      <trkpt lat="44.734556023031473" lon="2.805434977635741">
        <ele>921.08000000000004</ele>
        <time>2025-04-25T09:59:50Z</time>
      </trkpt>
      <trkpt lat="44.734430965036154" lon="2.805271027609706">
        <ele>920.12</ele>
        <time>2025-04-25T09:59:51Z</time>
      </trkpt>
      <trkpt lat="44.734290987253189" lon="2.805118979886174">
        <ele>919.15999999999997</ele>
        <time>2025-04-25T09:59:52Z</time>
      </trkpt>
      <trkpt lat="44.734113039448857" lon="2.80502200126648">
        <ele>918.20000000000005</ele>
        <time>2025-04-25T09:59:53Z</time>
      </trkpt>
      <trkpt lat="44.733935007825494" lon="2.805011020973325">
        <ele>917.72000000000003</ele>
        <time>2025-04-25T09:59:54Z</time>
      </trkpt>
      <trkpt lat="44.733774997293949" lon="2.805011020973325">
        <ele>917.24000000000001</ele>
        <time>2025-04-25T09:59:55Z</time>
      </trkpt>
      <trkpt lat="44.733589002862573" lon="2.805129960179329">
        <ele>916.75</ele>
        <time>2025-04-25T09:59:56Z</time>
      </trkpt>
      <trkpt lat="44.733421029523015" lon="2.80523800291121">
        <ele>916.26999999999998</ele>
        <time>2025-04-25T09:59:57Z</time>
      </trkpt>
      <trkpt lat="44.733238974586129" lon="2.805355014279485">
        <ele>915.78999999999996</ele>
        <time>2025-04-25T09:59:58Z</time>
      </trkpt>
      <trkpt lat="44.732088977470994" lon="2.806737022474408">
        <ele>913.38999999999999</ele>
        <time>2025-04-25T10:00:06Z</time>
      </trkpt>
      <trkpt lat="44.73192997276783" lon="2.806812962517142">
        <ele>912.90999999999997</ele>
        <time>2025-04-25T10:00:07Z</time>
      </trkpt>
      <trkpt lat="44.731764011085033" lon="2.80686903744936">
        <ele>912.42999999999995</ele>
        <time>2025-04-25T10:00:08Z</time>
      </trkpt>
      <trkpt lat="44.73158597946167" lon="2.806927962228656">
        <ele>911.95000000000005</ele>
        <time>2025-04-25T10:00:09Z</time>
      </trkpt>
      <trkpt lat="44.731393028050661" lon="2.806982025504112">
        <ele>911.47000000000003</ele>
        <time>2025-04-25T10:00:10Z</time>
      </trkpt>
      <trkpt lat="44.731187000870705" lon="2.806947994977236">
        <ele>911.47000000000003</ele>
        <time>2025-04-25T10:00:11Z</time>
      </trkpt>
      <trkpt lat="44.730978962033987" lon="2.806901978328824">
        <ele>910.99000000000001</ele>
        <time>2025-04-25T10:00:12Z</time>
      </trkpt>
      <trkpt lat="44.730777963995934" lon="2.806824026629329">
        <ele>910.50999999999999</ele>
        <time>2025-04-25T10:00:13Z</time>
      </trkpt>
      <trkpt lat="44.730571014806628" lon="2.806703997775912">
        <ele>910.02999999999997</ele>
        <time>2025-04-25T10:00:14Z</time>
      </trkpt>
      <trkpt lat="44.730393989011645" lon="2.806539963930845">
        <ele>910.02999999999997</ele>
        <time>2025-04-25T10:00:15Z</time>
      </trkpt>
      <trkpt lat="44.730206988751888" lon="2.806432005017996">
        <ele>909.53999999999996</ele>
        <time>2025-04-25T10:00:16Z</time>
      </trkpt>
      <trkpt lat="44.730013031512499" lon="2.806346006691456">
        <ele>909.05999999999995</ele>
        <time>2025-04-25T10:00:17Z</time>
      </trkpt>
      <trkpt lat="44.729827959090471" lon="2.806264031678438">
        <ele>908.58000000000004</ele>
        <time>2025-04-25T10:00:18Z</time>
      </trkpt>
      <trkpt lat="44.729481032118201" lon="2.80607501976192">
        <ele>908.10000000000002</ele>
        <time>2025-04-25T10:00:20Z</time>
      </trkpt>
      <trkpt lat="44.729314986616373" lon="2.805935963988304">
        <ele>907.62</ele>
        <time>2025-04-25T10:00:21Z</time>
      </trkpt>
      <trkpt lat="44.729162016883492" lon="2.805746030062437">
        <ele>907.13999999999999</ele>
        <time>2025-04-25T10:00:22Z</time>
      </trkpt>
      <trkpt lat="44.728991026058793" lon="2.805575961247087">
        <ele>906.65999999999997</ele>
        <time>2025-04-25T10:00:23Z</time>
      </trkpt>
      <trkpt lat="44.728823974728584" lon="2.805415028706193">
        <ele>906.65999999999997</ele>
        <time>2025-04-25T10:00:24Z</time>
      </trkpt>
      <trkpt lat="44.728666981682181" lon="2.805263986811042">
        <ele>906.17999999999995</ele>
        <time>2025-04-25T10:00:25Z</time>
      </trkpt>
      <trkpt lat="44.728524992242455" lon="2.805099030956626">
        <ele>905.70000000000005</ele>
        <time>2025-04-25T10:00:26Z</time>
      </trkpt>
      <trkpt lat="44.7284069750458" lon="2.804891997948289">
        <ele>905.70000000000005</ele>
        <time>2025-04-25T10:00:27Z</time>
      </trkpt>
      <trkpt lat="44.728303961455822" lon="2.80465797521174">
        <ele>904.74000000000001</ele>
        <time>2025-04-25T10:00:28Z</time>
      </trkpt>
      <trkpt lat="44.728201031684875" lon="2.804409032687545">
        <ele>904.74000000000001</ele>
        <time>2025-04-25T10:00:29Z</time>
      </trkpt>
      <trkpt lat="44.727637013420463" lon="2.802882017567754">
        <ele>902.33000000000004</ele>
        <time>2025-04-25T10:00:35Z</time>
      </trkpt>
      <trkpt lat="44.727601977065206" lon="2.802596027031541">
        <ele>901.85000000000002</ele>
        <time>2025-04-25T10:00:36Z</time>
      </trkpt>
      <trkpt lat="44.727582028135657" lon="2.802313975989819">
        <ele>901.37</ele>
        <time>2025-04-25T10:00:37Z</time>
      </trkpt>
      <trkpt lat="44.727583033964038" lon="2.80143697746098">
        <ele>901.37</ele>
        <time>2025-04-25T10:00:40Z</time>
      </trkpt>
      <trkpt lat="44.727618992328644" lon="2.80089701525867">
        <ele>901.37</ele>
        <time>2025-04-25T10:00:42Z</time>
      </trkpt>
      <trkpt lat="44.727637013420463" lon="2.800636002793908">
        <ele>901.37</ele>
        <time>2025-04-25T10:00:43Z</time>
      </trkpt>
      <trkpt lat="44.727585967630148" lon="2.800371972844005">
        <ele>900.88999999999999</ele>
        <time>2025-04-25T10:00:44Z</time>
      </trkpt>
      <trkpt lat="44.72752695903182" lon="2.800098974257708">
        <ele>900.88999999999999</ele>
        <time>2025-04-25T10:00:45Z</time>
      </trkpt>
      <trkpt lat="44.727466022595763" lon="2.799816001206636">
        <ele>900.88999999999999</ele>
        <time>2025-04-25T10:00:46Z</time>
      </trkpt>
      <trkpt lat="44.726905021816492" lon="2.797131026163697">
        <ele>896.57000000000005</ele>
        <time>2025-04-25T10:00:55Z</time>
      </trkpt>
      <trkpt lat="44.726912984624505" lon="2.796830032020807">
        <ele>896.57000000000005</ele>
        <time>2025-04-25T10:00:56Z</time>
      </trkpt>
      <trkpt lat="44.726928994059563" lon="2.796262996271253">
        <ele>896.57000000000005</ele>
        <time>2025-04-25T10:00:58Z</time>
      </trkpt>
      <trkpt lat="44.726889012381434" lon="2.795974994078279">
        <ele>896.09000000000003</ele>
        <time>2025-04-25T10:00:59Z</time>
      </trkpt>
      <trkpt lat="44.72681600600481" lon="2.795680034905672">
        <ele>896.57000000000005</ele>
        <time>2025-04-25T10:01:00Z</time>
      </trkpt>
      <trkpt lat="44.726683991029859" lon="2.795493034645915">
        <ele>896.57000000000005</ele>
        <time>2025-04-25T10:01:01Z</time>
      </trkpt>
      <trkpt lat="44.726544013246894" lon="2.79529295861721">
        <ele>897.04999999999995</ele>
        <time>2025-04-25T10:01:02Z</time>
      </trkpt>
      <trkpt lat="44.726411998271942" lon="2.795079974457622">
        <ele>897.04999999999995</ele>
        <time>2025-04-25T10:01:03Z</time>
      </trkpt>
      <trkpt lat="44.72632197663188" lon="2.794852992519736">
        <ele>897.04999999999995</ele>
        <time>2025-04-25T10:01:04Z</time>
      </trkpt>
      <trkpt lat="44.726275037974119" lon="2.794590974226594">
        <ele>897.04999999999995</ele>
        <time>2025-04-25T10:01:05Z</time>
      </trkpt>
      <trkpt lat="44.726296998560429" lon="2.794334990903735">
        <ele>897.04999999999995</ele>
        <time>2025-04-25T10:01:06Z</time>
      </trkpt>
      <trkpt lat="44.726320970803499" lon="2.794057969003916">
        <ele>897.04999999999995</ele>
        <time>2025-04-25T10:01:07Z</time>
      </trkpt>
      <trkpt lat="44.726347038522363" lon="2.79376401565969">
        <ele>897.04999999999995</ele>
        <time>2025-04-25T10:01:08Z</time>
      </trkpt>
      <trkpt lat="44.726415015757084" lon="2.791440971195698">
        <ele>891.75999999999999</ele>
        <time>2025-04-25T10:01:15Z</time>
      </trkpt>
      <trkpt lat="44.726275959983468" lon="2.788753984495997">
        <ele>882.63</ele>
        <time>2025-04-25T10:01:23Z</time>
      </trkpt>
      <trkpt lat="44.726099018007517" lon="2.786493971943855">
        <ele>873.00999999999999</ele>
        <time>2025-04-25T10:01:31Z</time>
      </trkpt>
      <trkpt lat="44.72563399001956" lon="2.78381796553731">
        <ele>868.21000000000004</ele>
        <time>2025-04-25T10:01:39Z</time>
      </trkpt>
      <trkpt lat="44.725388986989856" lon="2.782608037814498">
        <ele>867.25</ele>
        <time>2025-04-25T10:01:43Z</time>
      </trkpt>
      <trkpt lat="44.725273987278342" lon="2.782351970672607">
        <ele>866.76999999999998</ele>
        <time>2025-04-25T10:01:44Z</time>
      </trkpt>
      <trkpt lat="44.725139960646629" lon="2.782106967642903">
        <ele>866.76999999999998</ele>
        <time>2025-04-25T10:01:45Z</time>
      </trkpt>
      <trkpt lat="44.724979028105736" lon="2.781876968219876">
        <ele>866.76999999999998</ele>
        <time>2025-04-25T10:01:46Z</time>
      </trkpt>
      <trkpt lat="44.724811976775527" lon="2.781639005988836">
        <ele>866.28999999999996</ele>
        <time>2025-04-25T10:01:47Z</time>
      </trkpt>
      <trkpt lat="44.724107980728149" lon="2.780638039112091">
        <ele>866.28999999999996</ele>
        <time>2025-04-25T10:01:51Z</time>
      </trkpt>
      <trkpt lat="44.723164010792971" lon="2.77868002653122">
        <ele>864.84000000000003</ele>
        <time>2025-04-25T10:01:58Z</time>
      </trkpt>
      <trkpt lat="44.722209982573986" lon="2.776424959301949">
        <ele>862.91999999999996</ele>
        <time>2025-04-25T10:02:06Z</time>
      </trkpt>
      <trkpt lat="44.722014013677835" lon="2.775894971564412">
        <ele>862.44000000000005</ele>
        <time>2025-04-25T10:02:08Z</time>
      </trkpt>
      <trkpt lat="44.721965985372663" lon="2.775638988241553">
        <ele>861.96000000000004</ele>
        <time>2025-04-25T10:02:09Z</time>
      </trkpt>
      <trkpt lat="44.72191896289587" lon="2.775389039888978">
        <ele>861.96000000000004</ele>
        <time>2025-04-25T10:02:10Z</time>
      </trkpt>
      <trkpt lat="44.721893984824419" lon="2.774847988039255">
        <ele>861</ele>
        <time>2025-04-25T10:02:12Z</time>
      </trkpt>
      <trkpt lat="44.721893984824419" lon="2.774563003331423">
        <ele>860.51999999999998</ele>
        <time>2025-04-25T10:02:13Z</time>
      </trkpt>
      <trkpt lat="44.72195902839303" lon="2.773736966773868">
        <ele>860.03999999999996</ele>
        <time>2025-04-25T10:02:16Z</time>
      </trkpt>
      <trkpt lat="44.721996998414397" lon="2.773504033684731">
        <ele>859.55999999999995</ele>
        <time>2025-04-25T10:02:17Z</time>
      </trkpt>
      <trkpt lat="44.722093977034092" lon="2.773292977362871">
        <ele>860.03999999999996</ele>
        <time>2025-04-25T10:02:18Z</time>
      </trkpt>
      <trkpt lat="44.722191961482167" lon="2.773079993203282">
        <ele>859.55999999999995</ele>
        <time>2025-04-25T10:02:19Z</time>
      </trkpt>
      <trkpt lat="44.722314001992345" lon="2.772910008206964">
        <ele>859.55999999999995</ele>
        <time>2025-04-25T10:02:20Z</time>
      </trkpt>
      <trkpt lat="44.722464038059115" lon="2.77275200933218">
        <ele>859.08000000000004</ele>
        <time>2025-04-25T10:02:21Z</time>
      </trkpt>
      <trkpt lat="44.722618013620377" lon="2.772590992972255">
        <ele>859.08000000000004</ele>
        <time>2025-04-25T10:02:22Z</time>
      </trkpt>
      <trkpt lat="44.72309703938663" lon="2.772087994962931">
        <ele>858.59000000000003</ele>
        <time>2025-04-25T10:02:25Z</time>
      </trkpt>
      <trkpt lat="44.723215978592634" lon="2.771847015246749">
        <ele>858.11000000000001</ele>
        <time>2025-04-25T10:02:26Z</time>
      </trkpt>
      <trkpt lat="44.723329972475767" lon="2.771601006388664">
        <ele>858.11000000000001</ele>
        <time>2025-04-25T10:02:27Z</time>
      </trkpt>
      <trkpt lat="44.723431980237365" lon="2.771342005580664">
        <ele>858.59000000000003</ele>
        <time>2025-04-25T10:02:28Z</time>
      </trkpt>
      <trkpt lat="44.723520996049047" lon="2.771066995337606">
        <ele>858.59000000000003</ele>
        <time>2025-04-25T10:02:29Z</time>
      </trkpt>
      <trkpt lat="44.723966997116804" lon="2.76901300996542">
        <ele>858.59000000000003</ele>
        <time>2025-04-25T10:02:36Z</time>
      </trkpt>
      <trkpt lat="44.724055007100105" lon="2.768426025286317">
        <ele>857.63</ele>
        <time>2025-04-25T10:02:38Z</time>
      </trkpt>
      <trkpt lat="44.724044026806951" lon="2.768168030306697">
        <ele>857.14999999999998</ele>
        <time>2025-04-25T10:02:39Z</time>
      </trkpt>
      <trkpt lat="44.724028017371893" lon="2.767916992306709">
        <ele>856.66999999999996</ele>
        <time>2025-04-25T10:02:40Z</time>
      </trkpt>
      <trkpt lat="44.723950987681746" lon="2.767696967348456">
        <ele>856.19000000000005</ele>
        <time>2025-04-25T10:02:41Z</time>
      </trkpt>
      <trkpt lat="44.723870018497109" lon="2.767477026209235">
        <ele>855.71000000000004</ele>
        <time>2025-04-25T10:02:42Z</time>
      </trkpt>
      <trkpt lat="44.723758958280087" lon="2.767254989594221">
        <ele>855.23000000000002</ele>
        <time>2025-04-25T10:02:43Z</time>
      </trkpt>
      <trkpt lat="44.723644964396954" lon="2.767027001827955">
        <ele>855.23000000000002</ele>
        <time>2025-04-25T10:02:44Z</time>
      </trkpt>
      <trkpt lat="44.722872991114855" lon="2.765481965616345">
        <ele>855.71000000000004</ele>
        <time>2025-04-25T10:02:52Z</time>
      </trkpt>
      <trkpt lat="44.722697976976633" lon="2.76514501310885">
        <ele>855.23000000000002</ele>
        <time>2025-04-25T10:02:57Z</time>
      </trkpt>
      <trkpt lat="44.722655983641744" lon="2.765165967866778">
        <ele>855.23000000000002</ele>
        <time>2025-04-25T10:02:58Z</time>
      </trkpt>
      <trkpt lat="44.722591023892164" lon="2.765198992565274">
        <ele>855.23000000000002</ele>
        <time>2025-04-25T10:02:59Z</time>
      </trkpt>
      <trkpt lat="44.721906976774335" lon="2.765526976436377">
        <ele>856.19000000000005</ele>
        <time>2025-04-25T10:03:05Z</time>
      </trkpt>
      <trkpt lat="44.720507031306624" lon="2.766142040491104">
        <ele>858.11000000000001</ele>
        <time>2025-04-25T10:03:13Z</time>
      </trkpt>
      <trkpt lat="44.719311017543077" lon="2.766754003241658">
        <ele>860.51999999999998</ele>
        <time>2025-04-25T10:03:19Z</time>
      </trkpt>
      <trkpt lat="44.71910297870636" lon="2.766829021275044">
        <ele>860.51999999999998</ele>
        <time>2025-04-25T10:03:20Z</time>
      </trkpt>
      <trkpt lat="44.718889994546771" lon="2.766837989911437">
        <ele>861</ele>
        <time>2025-04-25T10:03:21Z</time>
      </trkpt>
      <trkpt lat="44.718692013993859" lon="2.766785016283393">
        <ele>861.48000000000002</ele>
        <time>2025-04-25T10:03:22Z</time>
      </trkpt>
      <trkpt lat="44.718495961278677" lon="2.766687031835318">
        <ele>861.48000000000002</ele>
        <time>2025-04-25T10:03:23Z</time>
      </trkpt>
      <trkpt lat="44.718282977119088" lon="2.766581000760198">
        <ele>861.48000000000002</ele>
        <time>2025-04-25T10:03:24Z</time>
      </trkpt>
      <trkpt lat="44.718122966587543" lon="2.766415039077401">
        <ele>861.48000000000002</ele>
        <time>2025-04-25T10:03:25Z</time>
      </trkpt>
      <trkpt lat="44.717945018783212" lon="2.766229966655374">
        <ele>861.48000000000002</ele>
        <time>2025-04-25T10:03:26Z</time>
      </trkpt>
      <trkpt lat="44.717616029083729" lon="2.765837023034692">
        <ele>861.48000000000002</ele>
        <time>2025-04-25T10:03:28Z</time>
      </trkpt>
      <trkpt lat="44.717478984966874" lon="2.765611968934536">
        <ele>861.96000000000004</ele>
        <time>2025-04-25T10:03:29Z</time>
      </trkpt>
      <trkpt lat="44.717359039932489" lon="2.765368977561593">
        <ele>861.96000000000004</ele>
        <time>2025-04-25T10:03:30Z</time>
      </trkpt>
      <trkpt lat="44.716952014714479" lon="2.76428502984345">
        <ele>863.88</ele>
        <time>2025-04-25T10:03:34Z</time>
      </trkpt>
      <trkpt lat="44.716821005567908" lon="2.76409300044179">
        <ele>864.36000000000001</ele>
        <time>2025-04-25T10:03:35Z</time>
      </trkpt>
      <trkpt lat="44.716669963672757" lon="2.763898959383369">
        <ele>864.84000000000003</ele>
        <time>2025-04-25T10:03:36Z</time>
      </trkpt>
      <trkpt lat="44.716510036960244" lon="2.763751018792391">
        <ele>865.32000000000005</ele>
        <time>2025-04-25T10:03:37Z</time>
      </trkpt>
      <trkpt lat="44.716356983408332" lon="2.763611041009426">
        <ele>865.79999999999995</ele>
        <time>2025-04-25T10:03:38Z</time>
      </trkpt>
      <trkpt lat="44.716211976483464" lon="2.763477014377713">
        <ele>866.28999999999996</ele>
        <time>2025-04-25T10:03:39Z</time>
      </trkpt>
      <trkpt lat="44.715485014021397" lon="2.762963036075234">
        <ele>866.28999999999996</ele>
        <time>2025-04-25T10:03:45Z</time>
      </trkpt>
      <trkpt lat="44.715104978531599" lon="2.762694982811809">
        <ele>866.76999999999998</ele>
        <time>2025-04-25T10:03:49Z</time>
      </trkpt>
      <trkpt lat="44.715004982426763" lon="2.762651983648539">
        <ele>866.28999999999996</ele>
        <time>2025-04-25T10:03:50Z</time>
      </trkpt>
      <trkpt lat="44.71431196667254" lon="2.762301033362746">
        <ele>865.32000000000005</ele>
        <time>2025-04-25T10:03:57Z</time>
      </trkpt>
      <trkpt lat="44.71422303467989" lon="2.762232972308993">
        <ele>864.84000000000003</ele>
        <time>2025-04-25T10:03:58Z</time>
      </trkpt>
      <trkpt lat="44.714143993332982" lon="2.762146973982453">
        <ele>864.84000000000003</ele>
        <time>2025-04-25T10:03:59Z</time>
      </trkpt>
      <trkpt lat="44.714079033583403" lon="2.762056030333042">
        <ele>864.84000000000003</ele>
        <time>2025-04-25T10:04:00Z</time>
      </trkpt>
      <trkpt lat="44.714067969471216" lon="2.761925021186471">
        <ele>864.36000000000001</ele>
        <time>2025-04-25T10:04:01Z</time>
      </trkpt>
      <trkpt lat="44.714060006663203" lon="2.761802980676293">
        <ele>863.88</ele>
        <time>2025-04-25T10:04:02Z</time>
      </trkpt>
      <trkpt lat="44.71407501026988" lon="2.761674989014864">
        <ele>863.39999999999998</ele>
        <time>2025-04-25T10:04:03Z</time>
      </trkpt>
      <trkpt lat="44.714119015261531" lon="2.761548003181815">
        <ele>863.39999999999998</ele>
        <time>2025-04-25T10:04:04Z</time>
      </trkpt>
      <trkpt lat="44.714164026081562" lon="2.761420011520386">
        <ele>863.39999999999998</ele>
        <time>2025-04-25T10:04:05Z</time>
      </trkpt>
      <trkpt lat="44.714729972183704" lon="2.760136993601918">
        <ele>863.39999999999998</ele>
        <time>2025-04-25T10:04:16Z</time>
      </trkpt>
      <trkpt lat="44.714815970510244" lon="2.760022999718785">
        <ele>863.39999999999998</ele>
        <time>2025-04-25T10:04:17Z</time>
      </trkpt>
      <trkpt lat="44.71491202712059" lon="2.759916968643665">
        <ele>863.39999999999998</ele>
        <time>2025-04-25T10:04:18Z</time>
      </trkpt>
      <trkpt lat="44.715325003489852" lon="2.759414976462722">
        <ele>862.91999999999996</ele>
        <time>2025-04-25T10:04:22Z</time>
      </trkpt>
      <trkpt lat="44.715403961017728" lon="2.759257983416319">
        <ele>862.44000000000005</ele>
        <time>2025-04-25T10:04:23Z</time>
      </trkpt>
      <trkpt lat="44.715462969616055" lon="2.759077018126845">
        <ele>862.44000000000005</ele>
        <time>2025-04-25T10:04:24Z</time>
      </trkpt>
      <trkpt lat="44.715499011799693" lon="2.75884903036058">
        <ele>862.91999999999996</ele>
        <time>2025-04-25T10:04:25Z</time>
      </trkpt>
      <trkpt lat="44.715534970164299" lon="2.758621964603663">
        <ele>862.91999999999996</ele>
        <time>2025-04-25T10:04:26Z</time>
      </trkpt>
      <trkpt lat="44.715721970424056" lon="2.75723903439939">
        <ele>865.32000000000005</ele>
        <time>2025-04-25T10:04:32Z</time>
      </trkpt>
      <trkpt lat="44.715713001787663" lon="2.757028983905911">
        <ele>865.32000000000005</ele>
        <time>2025-04-25T10:04:33Z</time>
      </trkpt>
      <trkpt lat="44.71568601205945" lon="2.756774006411433">
        <ele>865.79999999999995</ele>
        <time>2025-04-25T10:04:34Z</time>
      </trkpt>
      <trkpt lat="44.715614011511207" lon="2.756607960909605">
        <ele>866.28999999999996</ele>
        <time>2025-04-25T10:04:35Z</time>
      </trkpt>
      <trkpt lat="44.715519966557622" lon="2.756393970921636">
        <ele>866.76999999999998</ele>
        <time>2025-04-25T10:04:36Z</time>
      </trkpt>
      <trkpt lat="44.715417958796024" lon="2.756159026175737">
        <ele>867.73000000000002</ele>
        <time>2025-04-25T10:04:37Z</time>
      </trkpt>
      <trkpt lat="44.715313017368317" lon="2.755926009267569">
        <ele>868.69000000000005</ele>
        <time>2025-04-25T10:04:38Z</time>
      </trkpt>
      <trkpt lat="44.715168010443449" lon="2.755728028714657">
        <ele>869.64999999999998</ele>
        <time>2025-04-25T10:04:39Z</time>
      </trkpt>
      <trkpt lat="44.714999031275511" lon="2.755540022626519">
        <ele>870.61000000000001</ele>
        <time>2025-04-25T10:04:40Z</time>
      </trkpt>
      <trkpt lat="44.714815970510244" lon="2.755378000438213">
        <ele>871.57000000000005</ele>
        <time>2025-04-25T10:04:41Z</time>
      </trkpt>
      <trkpt lat="44.71429000608623" lon="2.754944991320372">
        <ele>873.5</ele>
        <time>2025-04-25T10:04:44Z</time>
      </trkpt>
      <trkpt lat="44.714106023311615" lon="2.754868967458606">
        <ele>874.46000000000004</ele>
        <time>2025-04-25T10:04:45Z</time>
      </trkpt>
      <trkpt lat="44.713744008913636" lon="2.754720021039248">
        <ele>875.89999999999998</ele>
        <time>2025-04-25T10:04:47Z</time>
      </trkpt>
      <trkpt lat="44.713574023917317" lon="2.754592029377818">
        <ele>876.38</ele>
        <time>2025-04-25T10:04:48Z</time>
      </trkpt>
      <trkpt lat="44.713456006720662" lon="2.754416009411216">
        <ele>876.86000000000001</ele>
        <time>2025-04-25T10:04:49Z</time>
      </trkpt>
      <trkpt lat="44.713350981473923" lon="2.754224985837936">
        <ele>877.34000000000003</ele>
        <time>2025-04-25T10:04:50Z</time>
      </trkpt>
      <trkpt lat="44.713281998410821" lon="2.753993980586529">
        <ele>877.34000000000003</ele>
        <time>2025-04-25T10:04:51Z</time>
      </trkpt>
      <trkpt lat="44.71321796067059" lon="2.753756018355489">
        <ele>877.82000000000005</ele>
        <time>2025-04-25T10:04:52Z</time>
      </trkpt>
      <trkpt lat="44.713160041719675" lon="2.753488970920444">
        <ele>878.77999999999997</ele>
        <time>2025-04-25T10:04:53Z</time>
      </trkpt>
      <trkpt lat="44.712645979598165" lon="2.751123011112213">
        <ele>884.07000000000005</ele>
        <time>2025-04-25T10:05:01Z</time>
      </trkpt>
      <trkpt lat="44.712010966613889" lon="2.749477978795767">
        <ele>888.88</ele>
        <time>2025-04-25T10:05:07Z</time>
      </trkpt>
      <trkpt lat="44.710845965892076" lon="2.747739991173148">
        <ele>891.75999999999999</ele>
        <time>2025-04-25T10:05:14Z</time>
      </trkpt>
      <trkpt lat="44.709870982915163" lon="2.746185986325145">
        <ele>890.32000000000005</ele>
        <time>2025-04-25T10:05:20Z</time>
      </trkpt>
      <trkpt lat="44.709829995408654" lon="2.745930003002286">
        <ele>890.32000000000005</ele>
        <time>2025-04-25T10:05:21Z</time>
      </trkpt>
      <trkpt lat="44.709809040650725" lon="2.745674019679427">
        <ele>889.84000000000003</ele>
        <time>2025-04-25T10:05:22Z</time>
      </trkpt>
      <trkpt lat="44.709814991801977" lon="2.745390040799975">
        <ele>889.84000000000003</ele>
        <time>2025-04-25T10:05:23Z</time>
      </trkpt>
      <trkpt lat="44.70982002094388" lon="2.745083011686802">
        <ele>889.36000000000001</ele>
        <time>2025-04-25T10:05:24Z</time>
      </trkpt>
      <trkpt lat="44.709807028993964" lon="2.743871994316578">
        <ele>886.95000000000005</ele>
        <time>2025-04-25T10:05:28Z</time>
      </trkpt>
      <trkpt lat="44.709752965718508" lon="2.743588015437126">
        <ele>886.47000000000003</ele>
        <time>2025-04-25T10:05:29Z</time>
      </trkpt>
      <trkpt lat="44.709693035110831" lon="2.743288027122617">
        <ele>885.50999999999999</ele>
        <time>2025-04-25T10:05:30Z</time>
      </trkpt>
      <trkpt lat="44.709570994600654" lon="2.742676986381412">
        <ele>884.07000000000005</ele>
        <time>2025-04-25T10:05:32Z</time>
      </trkpt>
      <trkpt lat="44.709558002650738" lon="2.742345985025168">
        <ele>883.59000000000003</ele>
        <time>2025-04-25T10:05:33Z</time>
      </trkpt>
      <trkpt lat="44.70941299572587" lon="2.739760000258684">
        <ele>876.86000000000001</ele>
        <time>2025-04-25T10:05:41Z</time>
      </trkpt>
      <trkpt lat="44.709360022097826" lon="2.739467974752188">
        <ele>875.41999999999996</ele>
        <time>2025-04-25T10:05:42Z</time>
      </trkpt>
      <trkpt lat="44.708673963323236" lon="2.73708701133728">
        <ele>865.79999999999995</ele>
        <time>2025-04-25T10:05:50Z</time>
      </trkpt>
      <trkpt lat="44.708149004727602" lon="2.735674995929003">
        <ele>859.08000000000004</ele>
        <time>2025-04-25T10:05:55Z</time>
      </trkpt>
      <trkpt lat="44.708084966987371" lon="2.735396968200803">
        <ele>857.63</ele>
        <time>2025-04-25T10:05:56Z</time>
      </trkpt>
      <trkpt lat="44.70805998891592" lon="2.735097985714674">
        <ele>856.19000000000005</ele>
        <time>2025-04-25T10:05:57Z</time>
      </trkpt>
      <trkpt lat="44.708120003342628" lon="2.734868992120028">
        <ele>855.23000000000002</ele>
        <time>2025-04-25T10:05:58Z</time>
      </trkpt>
      <trkpt lat="44.708199966698885" lon="2.734633041545749">
        <ele>854.26999999999998</ele>
        <time>2025-04-25T10:05:59Z</time>
      </trkpt>
      <trkpt lat="44.708300968632102" lon="2.734401030465961">
        <ele>853.30999999999995</ele>
        <time>2025-04-25T10:06:00Z</time>
      </trkpt>
      <trkpt lat="44.708774965256453" lon="2.732985997572541">
        <ele>848.01999999999998</ele>
        <time>2025-04-25T10:06:05Z</time>
      </trkpt>
      <trkpt lat="44.708843026310205" lon="2.732678968459368">
        <ele>846.58000000000004</ele>
        <time>2025-04-25T10:06:06Z</time>
      </trkpt>
      <trkpt lat="44.708855012431741" lon="2.732363976538181">
        <ele>845.62</ele>
        <time>2025-04-25T10:06:07Z</time>
      </trkpt>
      <trkpt lat="44.708844032138586" lon="2.732046972960234">
        <ele>844.17999999999995</ele>
        <time>2025-04-25T10:06:08Z</time>
      </trkpt>
      <trkpt lat="44.708770019933581" lon="2.731743967160583">
        <ele>843.21000000000004</ele>
        <time>2025-04-25T10:06:09Z</time>
      </trkpt>
      <trkpt lat="44.708678992465138" lon="2.731449007987976">
        <ele>842.25</ele>
        <time>2025-04-25T10:06:10Z</time>
      </trkpt>
      <trkpt lat="44.708586959168315" lon="2.731149019673467">
        <ele>841.28999999999996</ele>
        <time>2025-04-25T10:06:11Z</time>
      </trkpt>
      <trkpt lat="44.708326030522585" lon="2.730303034186363">
        <ele>838.88999999999999</ele>
        <time>2025-04-25T10:06:14Z</time>
      </trkpt>
      <trkpt lat="44.708283031359315" lon="2.730041015893221">
        <ele>837.45000000000005</ele>
        <time>2025-04-25T10:06:15Z</time>
      </trkpt>
      <trkpt lat="44.708283031359315" lon="2.729790983721614">
        <ele>836.48000000000002</ele>
        <time>2025-04-25T10:06:16Z</time>
      </trkpt>
      <trkpt lat="44.708321001380682" lon="2.729555033147335">
        <ele>835.03999999999996</ele>
        <time>2025-04-25T10:06:17Z</time>
      </trkpt>
      <trkpt lat="44.708399958908558" lon="2.72930902428925">
        <ele>833.60000000000002</ele>
        <time>2025-04-25T10:06:18Z</time>
      </trkpt>
      <trkpt lat="44.70848604105413" lon="2.72905102930963">
        <ele>832.15999999999997</ele>
        <time>2025-04-25T10:06:19Z</time>
      </trkpt>
      <trkpt lat="44.708582013845444" lon="2.728783981874585">
        <ele>830.72000000000003</ele>
        <time>2025-04-25T10:06:20Z</time>
      </trkpt>
      <trkpt lat="44.708721991628408" lon="2.728207977488637">
        <ele>827.35000000000002</ele>
        <time>2025-04-25T10:06:22Z</time>
      </trkpt>
      <trkpt lat="44.708776976913214" lon="2.727914024144411">
        <ele>825.90999999999997</ele>
        <time>2025-04-25T10:06:23Z</time>
      </trkpt>
      <trkpt lat="44.708762979134917" lon="2.727604983374476">
        <ele>824.47000000000003</ele>
        <time>2025-04-25T10:06:24Z</time>
      </trkpt>
      <trkpt lat="44.70874797552824" lon="2.727290997281671">
        <ele>823.02999999999997</ele>
        <time>2025-04-25T10:06:25Z</time>
      </trkpt>
      <trkpt lat="44.708732971921563" lon="2.726971982046962">
        <ele>822.05999999999995</ele>
        <time>2025-04-25T10:06:26Z</time>
      </trkpt>
      <trkpt lat="44.708593999966979" lon="2.723678983747959">
        <ele>820.62</ele>
        <time>2025-04-25T10:06:36Z</time>
      </trkpt>
      <trkpt lat="44.708615960553288" lon="2.72337899543345">
        <ele>821.10000000000002</ele>
        <time>2025-04-25T10:06:37Z</time>
      </trkpt>
      <trkpt lat="44.708605986088514" lon="2.723083030432463">
        <ele>821.10000000000002</ele>
        <time>2025-04-25T10:06:38Z</time>
      </trkpt>
      <trkpt lat="44.708548989146948" lon="2.72280097939074">
        <ele>821.10000000000002</ele>
        <time>2025-04-25T10:06:39Z</time>
      </trkpt>
      <trkpt lat="44.708439018577337" lon="2.722544996067882">
        <ele>821.10000000000002</ele>
        <time>2025-04-25T10:06:40Z</time>
      </trkpt>
      <trkpt lat="44.70829401165247" lon="2.722321031615138">
        <ele>821.58000000000004</ele>
        <time>2025-04-25T10:06:41Z</time>
      </trkpt>
      <trkpt lat="44.708140958100557" lon="2.722084997221828">
        <ele>822.05999999999995</ele>
        <time>2025-04-25T10:06:42Z</time>
      </trkpt>
      <trkpt lat="44.707602001726627" lon="2.720953021198511">
        <ele>822.05999999999995</ele>
        <time>2025-04-25T10:06:46Z</time>
      </trkpt>
      <trkpt lat="44.707545004785061" lon="2.720625959336758">
        <ele>822.54999999999995</ele>
        <time>2025-04-25T10:06:47Z</time>
      </trkpt>
      <trkpt lat="44.707491025328636" lon="2.720297975465655">
        <ele>823.02999999999997</ele>
        <time>2025-04-25T10:06:48Z</time>
      </trkpt>
      <trkpt lat="44.707150971516967" lon="2.718401988968253">
        <ele>826.38999999999999</ele>
        <time>2025-04-25T10:06:54Z</time>
      </trkpt>
      <trkpt lat="44.707081988453865" lon="2.718171989545226">
        <ele>826.87</ele>
        <time>2025-04-25T10:06:55Z</time>
      </trkpt>
      <trkpt lat="44.706959025934339" lon="2.717926986515522">
        <ele>827.35000000000002</ele>
        <time>2025-04-25T10:06:56Z</time>
      </trkpt>
      <trkpt lat="44.706822987645864" lon="2.717733029276133">
        <ele>827.83000000000004</ele>
        <time>2025-04-25T10:06:57Z</time>
      </trkpt>
      <trkpt lat="44.706668006256223" lon="2.717548962682486">
        <ele>828.30999999999995</ele>
        <time>2025-04-25T10:06:58Z</time>
      </trkpt>
      <trkpt lat="44.706474971026182" lon="2.717391969636083">
        <ele>828.78999999999996</ele>
        <time>2025-04-25T10:06:59Z</time>
      </trkpt>
      <trkpt lat="44.70627598464489" lon="2.717230031266809">
        <ele>829.75999999999999</ele>
        <time>2025-04-25T10:07:00Z</time>
      </trkpt>
      <trkpt lat="44.705907013267279" lon="2.716902969405055">
        <ele>830.24000000000001</ele>
        <time>2025-04-25T10:07:02Z</time>
      </trkpt>
      <trkpt lat="44.705753037706017" lon="2.716716974973679">
        <ele>830.24000000000001</ele>
        <time>2025-04-25T10:07:03Z</time>
      </trkpt>
      <trkpt lat="44.705646000802517" lon="2.716492004692555">
        <ele>830.72000000000003</ele>
        <time>2025-04-25T10:07:04Z</time>
      </trkpt>
      <trkpt lat="44.705549022182822" lon="2.716249013319612">
        <ele>830.72000000000003</ele>
        <time>2025-04-25T10:07:05Z</time>
      </trkpt>
      <trkpt lat="44.705443996936083" lon="2.715985989198089">
        <ele>830.72000000000003</ele>
        <time>2025-04-25T10:07:06Z</time>
      </trkpt>
      <trkpt lat="44.705178961157799" lon="2.715443009510636">
        <ele>830.72000000000003</ele>
        <time>2025-04-25T10:07:08Z</time>
      </trkpt>
      <trkpt lat="44.704587031155825" lon="2.714338023215532">
        <ele>830.72000000000003</ele>
        <time>2025-04-25T10:07:12Z</time>
      </trkpt>
      <trkpt lat="44.704483011737466" lon="2.714039040729404">
        <ele>830.72000000000003</ele>
        <time>2025-04-25T10:07:13Z</time>
      </trkpt>
      <trkpt lat="44.704383015632629" lon="2.713729999959469">
        <ele>830.24000000000001</ele>
        <time>2025-04-25T10:07:14Z</time>
      </trkpt>
      <trkpt lat="44.704291988164186" lon="2.713450966402888">
        <ele>830.24000000000001</ele>
        <time>2025-04-25T10:07:15Z</time>
      </trkpt>
      <trkpt lat="44.704256029799581" lon="2.713116025552154">
        <ele>829.75999999999999</ele>
        <time>2025-04-25T10:07:16Z</time>
      </trkpt>
      <trkpt lat="44.704229962080717" lon="2.712816959246993">
        <ele>829.75999999999999</ele>
        <time>2025-04-25T10:07:17Z</time>
      </trkpt>
      <trkpt lat="44.704245971515775" lon="2.712522000074387">
        <ele>829.26999999999998</ele>
        <time>2025-04-25T10:07:18Z</time>
      </trkpt>
      <trkpt lat="44.704314032569528" lon="2.712241960689426">
        <ele>829.26999999999998</ele>
        <time>2025-04-25T10:07:19Z</time>
      </trkpt>
      <trkpt lat="44.704397013410926" lon="2.711957981809974">
        <ele>828.78999999999996</ele>
        <time>2025-04-25T10:07:20Z</time>
      </trkpt>
      <trkpt lat="44.704479994252324" lon="2.711672997102141">
        <ele>828.78999999999996</ele>
        <time>2025-04-25T10:07:21Z</time>
      </trkpt>
      <trkpt lat="44.704611003398895" lon="2.711097998544574">
        <ele>827.35000000000002</ele>
        <time>2025-04-25T10:07:23Z</time>
      </trkpt>
      <trkpt lat="44.704638998955488" lon="2.710802033543587">
        <ele>826.38999999999999</ele>
        <time>2025-04-25T10:07:24Z</time>
      </trkpt>
      <trkpt lat="44.704640004783869" lon="2.71051000803709">
        <ele>825.42999999999995</ele>
        <time>2025-04-25T10:07:25Z</time>
      </trkpt>
      <trkpt lat="44.704592982307076" lon="2.710211025550962">
        <ele>824.47000000000003</ele>
        <time>2025-04-25T10:07:26Z</time>
      </trkpt>
      <trkpt lat="44.704493992030621" lon="2.709938026964665">
        <ele>823.99000000000001</ele>
        <time>2025-04-25T10:07:27Z</time>
      </trkpt>
      <trkpt lat="44.704392990097404" lon="2.709656981751323">
        <ele>823.02999999999997</ele>
        <time>2025-04-25T10:07:28Z</time>
      </trkpt>
      <trkpt lat="44.704186040908098" lon="2.709082989022136">
        <ele>820.13999999999999</ele>
        <time>2025-04-25T10:07:30Z</time>
      </trkpt>
      <trkpt lat="44.704113034531474" lon="2.708776965737343">
        <ele>818.70000000000005</ele>
        <time>2025-04-25T10:07:31Z</time>
      </trkpt>
      <trkpt lat="44.704090990126133" lon="2.708448981866241">
        <ele>817.25999999999999</ele>
        <time>2025-04-25T10:07:32Z</time>
      </trkpt>
      <trkpt lat="44.704015972092748" lon="2.707485985010862">
        <ele>813.40999999999997</ele>
        <time>2025-04-25T10:07:35Z</time>
      </trkpt>
      <trkpt lat="44.703937014564872" lon="2.707193959504366">
        <ele>812.45000000000005</ele>
        <time>2025-04-25T10:07:36Z</time>
      </trkpt>
      <trkpt lat="44.703823020681739" lon="2.706934958696365">
        <ele>811.00999999999999</ele>
        <time>2025-04-25T10:07:37Z</time>
      </trkpt>
      <trkpt lat="44.70367600210011" lon="2.706704959273338">
        <ele>810.04999999999995</ele>
        <time>2025-04-25T10:07:38Z</time>
      </trkpt>
      <trkpt lat="44.703523032367229" lon="2.706508990377188">
        <ele>809.09000000000003</ele>
        <time>2025-04-25T10:07:39Z</time>
      </trkpt>
      <trkpt lat="44.703339971601963" lon="2.70636297762394">
        <ele>808.13</ele>
        <time>2025-04-25T10:07:40Z</time>
      </trkpt>
      <trkpt lat="44.70313997939229" lon="2.706247977912426">
        <ele>807.15999999999997</ele>
        <time>2025-04-25T10:07:41Z</time>
      </trkpt>
      <trkpt lat="44.702937975525856" lon="2.706132978200913">
        <ele>806.20000000000005</ele>
        <time>2025-04-25T10:07:42Z</time>
      </trkpt>
      <trkpt lat="44.701526965945959" lon="2.704975018277764">
        <ele>800.91999999999996</ele>
        <time>2025-04-25T10:07:49Z</time>
      </trkpt>
      <trkpt lat="44.700630018487573" lon="2.704024007543922">
        <ele>797.54999999999995</ele>
        <time>2025-04-25T10:07:54Z</time>
      </trkpt>
      <trkpt lat="44.700498003512621" lon="2.703768024221063">
        <ele>797.07000000000005</ele>
        <time>2025-04-25T10:07:55Z</time>
      </trkpt>
      <trkpt lat="44.700360959395766" lon="2.703501982614398">
        <ele>796.11000000000001</ele>
        <time>2025-04-25T10:07:56Z</time>
      </trkpt>
      <trkpt lat="44.700229028239846" lon="2.703214986249805">
        <ele>795.63</ele>
        <time>2025-04-25T10:07:57Z</time>
      </trkpt>
      <trkpt lat="44.700120985507965" lon="2.702892031520605">
        <ele>794.66999999999996</ele>
        <time>2025-04-25T10:07:58Z</time>
      </trkpt>
      <trkpt lat="44.699074001982808" lon="2.699778992682695">
        <ele>784.09000000000003</ele>
        <time>2025-04-25T10:08:07Z</time>
      </trkpt>
      <trkpt lat="44.698005979880691" lon="2.696938030421734">
        <ele>779.28999999999996</ele>
        <time>2025-04-25T10:08:16Z</time>
      </trkpt>
      <trkpt lat="44.696102030575275" lon="2.693464988842607">
        <ele>778.80999999999995</ele>
        <time>2025-04-25T10:08:28Z</time>
      </trkpt>
      <trkpt lat="44.69529502093792" lon="2.692510960623622">
        <ele>775.91999999999996</ele>
        <time>2025-04-25T10:08:32Z</time>
      </trkpt>
      <trkpt lat="44.694010997191072" lon="2.691361969336867">
        <ele>772.08000000000004</ele>
        <time>2025-04-25T10:08:38Z</time>
      </trkpt>
      <trkpt lat="44.693783009424806" lon="2.691265996545553">
        <ele>771.60000000000002</ele>
        <time>2025-04-25T10:08:39Z</time>
      </trkpt>
      <trkpt lat="44.693546975031495" lon="2.691187039017677">
        <ele>771.11000000000001</ele>
        <time>2025-04-25T10:08:40Z</time>
      </trkpt>
      <trkpt lat="44.692096989601851" lon="2.690853020176292">
        <ele>768.23000000000002</ele>
        <time>2025-04-25T10:08:46Z</time>
      </trkpt>
      <trkpt lat="44.691891968250275" lon="2.690731985494494">
        <ele>767.75</ele>
        <time>2025-04-25T10:08:47Z</time>
      </trkpt>
      <trkpt lat="44.691697005182505" lon="2.690598964691162">
        <ele>767.26999999999998</ele>
        <time>2025-04-25T10:08:48Z</time>
      </trkpt>
      <trkpt lat="44.691525008529425" lon="2.690426968038082">
        <ele>766.78999999999996</ele>
        <time>2025-04-25T10:08:49Z</time>
      </trkpt>
      <trkpt lat="44.691372960805893" lon="2.690164027735591">
        <ele>766.30999999999995</ele>
        <time>2025-04-25T10:08:50Z</time>
      </trkpt>
      <trkpt lat="44.691228037700057" lon="2.689912989735603">
        <ele>765.83000000000004</ele>
        <time>2025-04-25T10:08:51Z</time>
      </trkpt>
      <trkpt lat="44.69115000218153" lon="2.689623981714249">
        <ele>765.83000000000004</ele>
        <time>2025-04-25T10:08:52Z</time>
      </trkpt>
      <trkpt lat="44.691084958612919" lon="2.689320975914598">
        <ele>765.83000000000004</ele>
        <time>2025-04-25T10:08:53Z</time>
      </trkpt>
      <trkpt lat="44.691028967499733" lon="2.689026016741991">
        <ele>765.83000000000004</ele>
        <time>2025-04-25T10:08:54Z</time>
      </trkpt>
      <trkpt lat="44.691013041883707" lon="2.688714964315295">
        <ele>765.83000000000004</ele>
        <time>2025-04-25T10:08:55Z</time>
      </trkpt>
      <trkpt lat="44.691027961671352" lon="2.688412964344025">
        <ele>766.30999999999995</ele>
        <time>2025-04-25T10:08:56Z</time>
      </trkpt>
      <trkpt lat="44.691050006076694" lon="2.688109958544374">
        <ele>766.30999999999995</ele>
        <time>2025-04-25T10:08:57Z</time>
      </trkpt>
      <trkpt lat="44.691136004403234" lon="2.687833020463586">
        <ele>766.78999999999996</ele>
        <time>2025-04-25T10:08:58Z</time>
      </trkpt>
      <trkpt lat="44.691237006336451" lon="2.687550969421864">
        <ele>767.26999999999998</ele>
        <time>2025-04-25T10:08:59Z</time>
      </trkpt>
      <trkpt lat="44.691338008269668" lon="2.687265984714031">
        <ele>767.75</ele>
        <time>2025-04-25T10:09:00Z</time>
      </trkpt>
      <trkpt lat="44.691440016031265" lon="2.686979994177818">
        <ele>768.23000000000002</ele>
        <time>2025-04-25T10:09:01Z</time>
      </trkpt>
      <trkpt lat="44.691541017964482" lon="2.686697021126747">
        <ele>768.71000000000004</ele>
        <time>2025-04-25T10:09:02Z</time>
      </trkpt>
      <trkpt lat="44.691635984927416" lon="2.686407007277012">
        <ele>769.19000000000005</ele>
        <time>2025-04-25T10:09:03Z</time>
      </trkpt>
      <trkpt lat="44.692103024572134" lon="2.683670986443758">
        <ele>769.66999999999996</ele>
        <time>2025-04-25T10:09:11Z</time>
      </trkpt>
      <trkpt lat="44.692623959854245" lon="2.680270029231906">
        <ele>768.23000000000002</ele>
        <time>2025-04-25T10:09:21Z</time>
      </trkpt>
      <trkpt lat="44.692713981494308" lon="2.679332010447979">
        <ele>767.26999999999998</ele>
        <time>2025-04-25T10:09:24Z</time>
      </trkpt>
      <trkpt lat="44.692686991766095" lon="2.679021963849664">
        <ele>766.78999999999996</ele>
        <time>2025-04-25T10:09:25Z</time>
      </trkpt>
      <trkpt lat="44.692629994824529" lon="2.678710995242">
        <ele>765.83000000000004</ele>
        <time>2025-04-25T10:09:26Z</time>
      </trkpt>
      <trkpt lat="44.692543996497989" lon="2.678412012755871">
        <ele>765.83000000000004</ele>
        <time>2025-04-25T10:09:27Z</time>
      </trkpt>
      <trkpt lat="44.692426985129714" lon="2.678134990856051">
        <ele>764.87</ele>
        <time>2025-04-25T10:09:28Z</time>
      </trkpt>
      <trkpt lat="44.692276027053595" lon="2.67757399007678">
        <ele>763.89999999999998</ele>
        <time>2025-04-25T10:09:30Z</time>
      </trkpt>
      <trkpt lat="44.692261023446918" lon="2.67729202285409">
        <ele>763.89999999999998</ele>
        <time>2025-04-25T10:09:31Z</time>
      </trkpt>
      <trkpt lat="44.69224601984024" lon="2.677004020661116">
        <ele>763.89999999999998</ele>
        <time>2025-04-25T10:09:32Z</time>
      </trkpt>
      <trkpt lat="44.692214000970125" lon="2.676385017111898">
        <ele>763.41999999999996</ele>
        <time>2025-04-25T10:09:34Z</time>
      </trkpt>
      <trkpt lat="44.692168990150094" lon="2.676050998270512">
        <ele>763.41999999999996</ele>
        <time>2025-04-25T10:09:35Z</time>
      </trkpt>
      <trkpt lat="44.692069999873638" lon="2.675770958885551">
        <ele>762.94000000000005</ele>
        <time>2025-04-25T10:09:36Z</time>
      </trkpt>
      <trkpt lat="44.691491983830929" lon="2.673792997375131">
        <ele>762.94000000000005</ele>
        <time>2025-04-25T10:09:42Z</time>
      </trkpt>
      <trkpt lat="44.690779019147158" lon="2.670942982658744">
        <ele>760.53999999999996</ele>
        <time>2025-04-25T10:09:51Z</time>
      </trkpt>
      <trkpt lat="44.690110981464386" lon="2.668331013992429">
        <ele>757.65999999999997</ele>
        <time>2025-04-25T10:10:00Z</time>
      </trkpt>
      <trkpt lat="44.689350994303823" lon="2.66530497930944">
        <ele>752.85000000000002</ele>
        <time>2025-04-25T10:10:10Z</time>
      </trkpt>
      <trkpt lat="44.689159970730543" lon="2.664456982165575">
        <ele>751.88999999999999</ele>
        <time>2025-04-25T10:10:15Z</time>
      </trkpt>
      <trkpt lat="44.689141027629375" lon="2.664299989119172">
        <ele>751.88999999999999</ele>
        <time>2025-04-25T10:10:16Z</time>
      </trkpt>
      <trkpt lat="44.689123006537557" lon="2.664149031043053">
        <ele>751.40999999999997</ele>
        <time>2025-04-25T10:10:17Z</time>
      </trkpt>
      <trkpt lat="44.689139015972614" lon="2.663991032168269">
        <ele>750.92999999999995</ele>
        <time>2025-04-25T10:10:18Z</time>
      </trkpt>
      <trkpt lat="44.689157037064433" lon="2.66382297500968">
        <ele>750.92999999999995</ele>
        <time>2025-04-25T10:10:19Z</time>
      </trkpt>
      <trkpt lat="44.689175980165601" lon="2.663655001670122">
        <ele>750.92999999999995</ele>
        <time>2025-04-25T10:10:20Z</time>
      </trkpt>
      <trkpt lat="44.689275976270437" lon="2.663014037534595">
        <ele>750.45000000000005</ele>
        <time>2025-04-25T10:10:24Z</time>
      </trkpt>
      <trkpt lat="44.689320987090468" lon="2.662877999246121">
        <ele>749.97000000000003</ele>
        <time>2025-04-25T10:10:25Z</time>
      </trkpt>
      <trkpt lat="44.689374966546893" lon="2.662765011191368">
        <ele>749.97000000000003</ele>
        <time>2025-04-25T10:10:26Z</time>
      </trkpt>
      <trkpt lat="44.68942902982235" lon="2.662671972066164">
        <ele>749.49000000000001</ele>
        <time>2025-04-25T10:10:27Z</time>
      </trkpt>
      <trkpt lat="44.689479991793633" lon="2.662583040073514">
        <ele>749.49000000000001</ele>
        <time>2025-04-25T10:10:28Z</time>
      </trkpt>
      <trkpt lat="44.690078962594271" lon="2.661509988829494">
        <ele>748.51999999999998</ele>
        <time>2025-04-25T10:10:40Z</time>
      </trkpt>
      <trkpt lat="44.690178036689758" lon="2.66132902354002">
        <ele>748.51999999999998</ele>
        <time>2025-04-25T10:10:42Z</time>
      </trkpt>
      <trkpt lat="44.690263029187918" lon="2.661142023280263">
        <ele>748.51999999999998</ele>
        <time>2025-04-25T10:10:44Z</time>
      </trkpt>
      <trkpt lat="44.690274009481072" lon="2.661030041053891">
        <ele>748.51999999999998</ele>
        <time>2025-04-25T10:10:45Z</time>
      </trkpt>
      <trkpt lat="44.690274009481072" lon="2.660925015807152">
        <ele>748.03999999999996</ele>
        <time>2025-04-25T10:10:46Z</time>
      </trkpt>
      <trkpt lat="44.690255988389254" lon="2.660812027752399">
        <ele>748.03999999999996</ele>
        <time>2025-04-25T10:10:47Z</time>
      </trkpt>
      <trkpt lat="44.690236961469054" lon="2.660698033869267">
        <ele>747.55999999999995</ele>
        <time>2025-04-25T10:10:48Z</time>
      </trkpt>
      <trkpt lat="44.690218018367887" lon="2.660582028329372">
        <ele>747.55999999999995</ele>
        <time>2025-04-25T10:10:49Z</time>
      </trkpt>
      <trkpt lat="44.690199997276068" lon="2.66047197394073">
        <ele>747.08000000000004</ele>
        <time>2025-04-25T10:10:50Z</time>
      </trkpt>
      <trkpt lat="44.689991036430001" lon="2.659304039552808">
        <ele>743.72000000000003</ele>
        <time>2025-04-25T10:11:02Z</time>
      </trkpt>
      <trkpt lat="44.689973015338182" lon="2.659208988770843">
        <ele>743.24000000000001</ele>
        <time>2025-04-25T10:11:03Z</time>
      </trkpt>
      <trkpt lat="44.689956000074744" lon="2.65911502763629">
        <ele>742.75999999999999</ele>
        <time>2025-04-25T10:11:04Z</time>
      </trkpt>
      <trkpt lat="44.689936973154545" lon="2.659013019874692">
        <ele>742.27999999999997</ele>
        <time>2025-04-25T10:11:05Z</time>
      </trkpt>
      <trkpt lat="44.689896991476417" lon="2.658826019614935">
        <ele>741.30999999999995</ele>
        <time>2025-04-25T10:11:07Z</time>
      </trkpt>
      <trkpt lat="44.689801018685102" lon="2.658372977748513">
        <ele>739.38999999999999</ele>
        <time>2025-04-25T10:11:12Z</time>
      </trkpt>
      <trkpt lat="44.68977402895689" lon="2.658293014392257">
        <ele>739.38999999999999</ele>
        <time>2025-04-25T10:11:13Z</time>
      </trkpt>
      <trkpt lat="44.689722983166575" lon="2.658240962773562">
        <ele>738.90999999999997</ele>
        <time>2025-04-25T10:11:14Z</time>
      </trkpt>
      <trkpt lat="44.689678978174925" lon="2.658197041600943">
        <ele>738.90999999999997</ele>
        <time>2025-04-25T10:11:15Z</time>
      </trkpt>
      <trkpt lat="44.689629022032022" lon="2.658147001639009">
        <ele>738.90999999999997</ele>
        <time>2025-04-25T10:11:16Z</time>
      </trkpt>
      <trkpt lat="44.689574036747217" lon="2.658112971112132">
        <ele>738.90999999999997</ele>
        <time>2025-04-25T10:11:17Z</time>
      </trkpt>
      <trkpt lat="44.68951603397727" lon="2.658083969727159">
        <ele>738.42999999999995</ele>
        <time>2025-04-25T10:11:18Z</time>
      </trkpt>
      <trkpt lat="44.689326016232371" lon="2.658015992492437">
        <ele>738.42999999999995</ele>
        <time>2025-04-25T10:11:21Z</time>
      </trkpt>
      <trkpt lat="44.68926097266376" lon="2.658006018027663">
        <ele>738.42999999999995</ele>
        <time>2025-04-25T10:11:22Z</time>
      </trkpt>
      <trkpt lat="44.689207999035716" lon="2.658005012199283">
        <ele>737.95000000000005</ele>
        <time>2025-04-25T10:11:23Z</time>
      </trkpt>
      <trkpt lat="44.689148990437388" lon="2.65806301496923">
        <ele>737.47000000000003</ele>
        <time>2025-04-25T10:11:24Z</time>
      </trkpt>
      <trkpt lat="44.689094005152583" lon="2.658119006082416">
        <ele>736.99000000000001</ele>
        <time>2025-04-25T10:11:25Z</time>
      </trkpt>
      <trkpt lat="44.689034996554255" lon="2.658177008852363">
        <ele>736.50999999999999</ele>
        <time>2025-04-25T10:11:26Z</time>
      </trkpt>
      <trkpt lat="44.688976993784308" lon="2.65823601745069">
        <ele>735.54999999999995</ele>
        <time>2025-04-25T10:11:27Z</time>
      </trkpt>
      <trkpt lat="44.688925025984645" lon="2.658286979421973">
        <ele>735.07000000000005</ele>
        <time>2025-04-25T10:11:28Z</time>
      </trkpt>
      <trkpt lat="44.688730984926224" lon="2.658481020480394">
        <ele>731.70000000000005</ele>
        <time>2025-04-25T10:11:35Z</time>
      </trkpt>
      <trkpt lat="44.688730984926224" lon="2.658481020480394">
        <ele>731.70000000000005</ele>
        <time>2025-04-25T10:11:55Z</time>
      </trkpt>
      <trkpt lat="44.688713969662786" lon="2.658379012718797">
        <ele>733.62</ele>
        <time>2025-04-25T10:22:07Z</time>
      </trkpt>
      <trkpt lat="44.688691003248096" lon="2.658382030203939">
        <ele>744.20000000000005</ele>
        <time>2025-04-25T10:22:39Z</time>
      </trkpt>
      <trkpt lat="44.688720004633069" lon="2.658410025760531">
        <ele>751.88999999999999</ele>
        <time>2025-04-25T10:23:14Z</time>
      </trkpt>
      <trkpt lat="44.688754035159945" lon="2.658454030752182">
        <ele>752.37</ele>
        <time>2025-04-25T10:23:42Z</time>
      </trkpt>
      <trkpt lat="44.688755040988326" lon="2.658460987731814">
        <ele>752.85000000000002</ele>
        <time>2025-04-25T10:24:27Z</time>
      </trkpt>
      <trkpt lat="44.688753029331565" lon="2.658456964418292">
        <ele>752.37</ele>
        <time>2025-04-25T10:25:19Z</time>
      </trkpt>
      <trkpt lat="44.688751017674804" lon="2.658455036580563">
        <ele>752.37</ele>
        <time>2025-04-25T10:25:54Z</time>
      </trkpt>
      <trkpt lat="44.688753029331565" lon="2.658454030752182">
        <ele>752.37</ele>
        <time>2025-04-25T10:26:47Z</time>
      </trkpt>
      <trkpt lat="44.688752023503184" lon="2.65845101326704">
        <ele>751.88999999999999</ele>
        <time>2025-04-25T10:27:41Z</time>
      </trkpt>
      <trkpt lat="44.688755040988326" lon="2.658454030752182">
        <ele>751.88999999999999</ele>
        <time>2025-04-25T10:28:14Z</time>
      </trkpt>
      <trkpt lat="44.688735008239746" lon="2.658476997166872">
        <ele>748.03999999999996</ele>
        <time>2025-04-25T10:28:30Z</time>
      </trkpt>
      <trkpt lat="44.688725033774972" lon="2.658487977460027">
        <ele>748.03999999999996</ele>
        <time>2025-04-25T10:28:31Z</time>
      </trkpt>
      <trkpt lat="44.688706006854773" lon="2.658507004380226">
        <ele>748.03999999999996</ele>
        <time>2025-04-25T10:28:32Z</time>
      </trkpt>
      <trkpt lat="44.688669964671135" lon="2.658542040735483">
        <ele>747.08000000000004</ele>
        <time>2025-04-25T10:28:33Z</time>
      </trkpt>
      <trkpt lat="44.688629982993007" lon="2.658582022413611">
        <ele>746.60000000000002</ele>
        <time>2025-04-25T10:28:34Z</time>
      </trkpt>
      <trkpt lat="44.688582038506866" lon="2.658629966899753">
        <ele>745.63999999999999</ele>
        <time>2025-04-25T10:28:35Z</time>
      </trkpt>
      <trkpt lat="44.688527975231409" lon="2.65868897549808">
        <ele>745.15999999999997</ele>
        <time>2025-04-25T10:28:36Z</time>
      </trkpt>
      <trkpt lat="44.688060013577342" lon="2.659135982394218">
        <ele>740.83000000000004</ele>
        <time>2025-04-25T10:28:43Z</time>
      </trkpt>
      <trkpt lat="44.687918024137616" lon="2.659264979884028">
        <ele>740.83000000000004</ele>
        <time>2025-04-25T10:28:45Z</time>
      </trkpt>
      <trkpt lat="44.687849963083863" lon="2.659327005967498">
        <ele>740.83000000000004</ele>
        <time>2025-04-25T10:28:46Z</time>
      </trkpt>
      <trkpt lat="44.687727000564337" lon="2.659314014017582">
        <ele>740.83000000000004</ele>
        <time>2025-04-25T10:28:47Z</time>
      </trkpt>
      <trkpt lat="44.68756296671927" lon="2.659291969612241">
        <ele>739.87</ele>
        <time>2025-04-25T10:28:49Z</time>
      </trkpt>
      <trkpt lat="44.687447967007756" lon="2.659291969612241">
        <ele>739.38999999999999</ele>
        <time>2025-04-25T10:28:50Z</time>
      </trkpt>
      <trkpt lat="44.687029039487243" lon="2.659291969612241">
        <ele>735.54999999999995</ele>
        <time>2025-04-25T10:28:54Z</time>
      </trkpt>
      <trkpt lat="44.686926025897264" lon="2.659273026511073">
        <ele>735.07000000000005</ele>
        <time>2025-04-25T10:28:55Z</time>
      </trkpt>
      <trkpt lat="44.686437025666237" lon="2.659077979624271">
        <ele>732.65999999999997</ele>
        <time>2025-04-25T10:29:00Z</time>
      </trkpt>
      <trkpt lat="44.686334012076259" lon="2.659037997946143">
        <ele>732.17999999999995</ele>
        <time>2025-04-25T10:29:01Z</time>
      </trkpt>
      <trkpt lat="44.685311000794172" lon="2.65862200409174">
        <ele>730.25999999999999</ele>
        <time>2025-04-25T10:29:10Z</time>
      </trkpt>
      <trkpt lat="44.685068009421229" lon="2.658501975238323">
        <ele>729.77999999999997</ele>
        <time>2025-04-25T10:29:12Z</time>
      </trkpt>
      <trkpt lat="44.684958960860968" lon="2.658433998003602">
        <ele>729.29999999999995</ele>
        <time>2025-04-25T10:29:13Z</time>
      </trkpt>
      <trkpt lat="44.684857036918402" lon="2.658297959715128">
        <ele>728.34000000000003</ele>
        <time>2025-04-25T10:29:14Z</time>
      </trkpt>
      <trkpt lat="44.684803979471326" lon="2.658173991367221">
        <ele>727.86000000000001</ele>
        <time>2025-04-25T10:29:15Z</time>
      </trkpt>
      <trkpt lat="44.684766009449959" lon="2.658048011362553">
        <ele>727.37</ele>
        <time>2025-04-25T10:29:16Z</time>
      </trkpt>
      <trkpt lat="44.684774978086352" lon="2.657907027751207">
        <ele>726.40999999999997</ele>
        <time>2025-04-25T10:29:17Z</time>
      </trkpt>
      <trkpt lat="44.684786964207888" lon="2.65774198807776">
        <ele>725.92999999999995</ele>
        <time>2025-04-25T10:29:18Z</time>
      </trkpt>
      <trkpt lat="44.684799034148455" lon="2.657564040273428">
        <ele>724.97000000000003</ele>
        <time>2025-04-25T10:29:19Z</time>
      </trkpt>
      <trkpt lat="44.684812026098371" lon="2.657373016700149">
        <ele>724.00999999999999</ele>
        <time>2025-04-25T10:29:20Z</time>
      </trkpt>
      <trkpt lat="44.684870028868318" lon="2.656231988221407">
        <ele>718.72000000000003</ele>
        <time>2025-04-25T10:29:26Z</time>
      </trkpt>
      <trkpt lat="44.684852007776499" lon="2.656138027086854">
        <ele>718.24000000000001</ele>
        <time>2025-04-25T10:29:27Z</time>
      </trkpt>
      <trkpt lat="44.684743965044618" lon="2.656030990183353">
        <ele>717.27999999999997</ele>
        <time>2025-04-25T10:29:28Z</time>
      </trkpt>
      <trkpt lat="44.684658972546458" lon="2.655944991856813">
        <ele>716.32000000000005</ele>
        <time>2025-04-25T10:29:29Z</time>
      </trkpt>
      <trkpt lat="44.684588983654976" lon="2.655944991856813">
        <ele>715.84000000000003</ele>
        <time>2025-04-25T10:29:30Z</time>
      </trkpt>
      <trkpt lat="44.684468032792211" lon="2.655944991856813">
        <ele>714.39999999999998</ele>
        <time>2025-04-25T10:29:31Z</time>
      </trkpt>
      <trkpt lat="44.684337023645639" lon="2.655944991856813">
        <ele>712.95000000000005</ele>
        <time>2025-04-25T10:29:32Z</time>
      </trkpt>
      <trkpt lat="44.684251025319099" lon="2.655983967706561">
        <ele>711.50999999999999</ele>
        <time>2025-04-25T10:29:33Z</time>
      </trkpt>
      <trkpt lat="44.684138037264347" lon="2.656035013496876">
        <ele>710.07000000000005</ele>
        <time>2025-04-25T10:29:34Z</time>
      </trkpt>
      <trkpt lat="44.684023037552834" lon="2.65608798712492">
        <ele>709.11000000000001</ele>
        <time>2025-04-25T10:29:35Z</time>
      </trkpt>
      <trkpt lat="44.68386503867805" lon="2.656158981844783">
        <ele>708.14999999999998</ele>
        <time>2025-04-25T10:29:36Z</time>
      </trkpt>
      <trkpt lat="44.683744003996253" lon="2.656169962137938">
        <ele>706.71000000000004</ele>
        <time>2025-04-25T10:29:37Z</time>
      </trkpt>
      <trkpt lat="44.683554992079735" lon="2.656114976853132">
        <ele>705.75</ele>
        <time>2025-04-25T10:29:38Z</time>
      </trkpt>
      <trkpt lat="44.683434963226318" lon="2.656009029597044">
        <ele>704.29999999999995</ele>
        <time>2025-04-25T10:29:39Z</time>
      </trkpt>
      <trkpt lat="44.683332033455372" lon="2.655842984095216">
        <ele>703.34000000000003</ele>
        <time>2025-04-25T10:29:40Z</time>
      </trkpt>
      <trkpt lat="44.683218961581588" lon="2.655665036290884">
        <ele>701.89999999999998</ele>
        <time>2025-04-25T10:29:41Z</time>
      </trkpt>
      <trkpt lat="44.682933976873755" lon="2.655507037416101">
        <ele>699.5</ele>
        <time>2025-04-25T10:29:43Z</time>
      </trkpt>
      <trkpt lat="44.682756029069424" lon="2.655479041859508">
        <ele>698.52999999999997</ele>
        <time>2025-04-25T10:29:44Z</time>
      </trkpt>
      <trkpt lat="44.682615967467427" lon="2.655527992174029">
        <ele>697.09000000000003</ele>
        <time>2025-04-25T10:29:45Z</time>
      </trkpt>
      <trkpt lat="44.682472972199321" lon="2.655578032135963">
        <ele>695.64999999999998</ele>
        <time>2025-04-25T10:29:46Z</time>
      </trkpt>
      <trkpt lat="44.682324025779963" lon="2.655629999935627">
        <ele>694.69000000000005</ele>
        <time>2025-04-25T10:29:47Z</time>
      </trkpt>
      <trkpt lat="44.681848017498851" lon="2.655826974660158">
        <ele>690.84000000000003</ele>
        <time>2025-04-25T10:29:50Z</time>
      </trkpt>
      <trkpt lat="44.681368991732597" lon="2.656059991568327">
        <ele>686.51999999999998</ele>
        <time>2025-04-25T10:29:53Z</time>
      </trkpt>
      <trkpt lat="44.68122499063611" lon="2.656073989346623">
        <ele>685.08000000000004</ele>
        <time>2025-04-25T10:29:54Z</time>
      </trkpt>
      <trkpt lat="44.681063974276185" lon="2.655993020161986">
        <ele>684.12</ele>
        <time>2025-04-25T10:29:55Z</time>
      </trkpt>
      <trkpt lat="44.680926008149981" lon="2.655887994915247">
        <ele>683.14999999999998</ele>
        <time>2025-04-25T10:29:56Z</time>
      </trkpt>
      <trkpt lat="44.680781001225114" lon="2.655752962455154">
        <ele>682.19000000000005</ele>
        <time>2025-04-25T10:29:57Z</time>
      </trkpt>
      <trkpt lat="44.680634988471866" lon="2.655618013814092">
        <ele>681.23000000000002</ele>
        <time>2025-04-25T10:29:58Z</time>
      </trkpt>
      <trkpt lat="44.680496016517282" lon="2.655489016324282">
        <ele>680.26999999999998</ele>
        <time>2025-04-25T10:29:59Z</time>
      </trkpt>
      <trkpt lat="44.680340029299259" lon="2.65537703409791">
        <ele>679.30999999999995</ele>
        <time>2025-04-25T10:30:00Z</time>
      </trkpt>
      <trkpt lat="44.680143976584077" lon="2.655306039378047">
        <ele>677.87</ele>
        <time>2025-04-25T10:30:01Z</time>
      </trkpt>
      <trkpt lat="44.679938033223152" lon="2.655344009399414">
        <ele>676.90999999999997</ele>
        <time>2025-04-25T10:30:02Z</time>
      </trkpt>
      <trkpt lat="44.679757989943027" lon="2.655522963032126">
        <ele>675.94000000000005</ele>
        <time>2025-04-25T10:30:03Z</time>
      </trkpt>
      <trkpt lat="44.679680038243532" lon="2.655665958300233">
        <ele>674.98000000000002</ele>
        <time>2025-04-25T10:30:04Z</time>
      </trkpt>
      <trkpt lat="44.679749021306634" lon="2.655998971313238">
        <ele>673.53999999999996</ele>
        <time>2025-04-25T10:30:05Z</time>
      </trkpt>
      <trkpt lat="44.679787997156382" lon="2.656189994886518">
        <ele>672.58000000000004</ele>
        <time>2025-04-25T10:30:06Z</time>
      </trkpt>
      <trkpt lat="44.679820016026497" lon="2.656494006514549">
        <ele>671.13999999999999</ele>
        <time>2025-04-25T10:30:07Z</time>
      </trkpt>
      <trkpt lat="44.679794032126665" lon="2.656747978180647">
        <ele>669.70000000000005</ele>
        <time>2025-04-25T10:30:08Z</time>
      </trkpt>
      <trkpt lat="44.679684983566403" lon="2.657026005908847">
        <ele>668.25</ele>
        <time>2025-04-25T10:30:09Z</time>
      </trkpt>
      <trkpt lat="44.679583981633186" lon="2.657245025038719">
        <ele>666.80999999999995</ele>
        <time>2025-04-25T10:30:10Z</time>
      </trkpt>
      <trkpt lat="44.679487003013492" lon="2.657454991713166">
        <ele>665.37</ele>
        <time>2025-04-25T10:30:11Z</time>
      </trkpt>
      <trkpt lat="44.679389018565416" lon="2.657650960609317">
        <ele>664.40999999999997</ele>
        <time>2025-04-25T10:30:12Z</time>
      </trkpt>
      <trkpt lat="44.679257003590465" lon="2.657769983634353">
        <ele>662.97000000000003</ele>
        <time>2025-04-25T10:30:13Z</time>
      </trkpt>
      <trkpt lat="44.679100010544062" lon="2.65784801915288">
        <ele>661.51999999999998</ele>
        <time>2025-04-25T10:30:14Z</time>
      </trkpt>
      <trkpt lat="44.678934970870614" lon="2.657842990010977">
        <ele>660.55999999999995</ele>
        <time>2025-04-25T10:30:15Z</time>
      </trkpt>
      <trkpt lat="44.678768003359437" lon="2.657796973362565">
        <ele>660.08000000000004</ele>
        <time>2025-04-25T10:30:16Z</time>
      </trkpt>
      <trkpt lat="44.678636994212866" lon="2.6576569955796">
        <ele>659.60000000000002</ele>
        <time>2025-04-25T10:30:17Z</time>
      </trkpt>
      <trkpt lat="44.678528029471636" lon="2.657479969784617">
        <ele>659.12</ele>
        <time>2025-04-25T10:30:18Z</time>
      </trkpt>
      <trkpt lat="44.678329965099692" lon="2.657264973968267">
        <ele>659.12</ele>
        <time>2025-04-25T10:30:19Z</time>
      </trkpt>
      <trkpt lat="44.678078005090356" lon="2.657305039465427">
        <ele>658.63999999999999</ele>
        <time>2025-04-25T10:30:20Z</time>
      </trkpt>
      <trkpt lat="44.677925035357475" lon="2.657502014189959">
        <ele>658.63999999999999</ele>
        <time>2025-04-25T10:30:21Z</time>
      </trkpt>
      <trkpt lat="44.677814980968833" lon="2.657664958387613">
        <ele>658.63999999999999</ele>
        <time>2025-04-25T10:30:22Z</time>
      </trkpt>
      <trkpt lat="44.677690006792545" lon="2.65784902498126">
        <ele>658.63999999999999</ele>
        <time>2025-04-25T10:30:23Z</time>
      </trkpt>
      <trkpt lat="44.677555980160832" lon="2.658048011362553">
        <ele>658.15999999999997</ele>
        <time>2025-04-25T10:30:24Z</time>
      </trkpt>
      <trkpt lat="44.677367974072695" lon="2.658180026337504">
        <ele>657.67999999999995</ele>
        <time>2025-04-25T10:30:25Z</time>
      </trkpt>
      <trkpt lat="44.677183991298079" lon="2.658306006342173">
        <ele>656.72000000000003</ele>
        <time>2025-04-25T10:30:26Z</time>
      </trkpt>
      <trkpt lat="44.676985004916787" lon="2.658327966928482">
        <ele>656.72000000000003</ele>
        <time>2025-04-25T10:30:27Z</time>
      </trkpt>
      <trkpt lat="44.67677503824234" lon="2.658337019383907">
        <ele>655.75999999999999</ele>
        <time>2025-04-25T10:30:28Z</time>
      </trkpt>
      <trkpt lat="44.67658300884068" lon="2.658265018835664">
        <ele>655.27999999999997</ele>
        <time>2025-04-25T10:30:29Z</time>
      </trkpt>
      <trkpt lat="44.676392991095781" lon="2.658147001639009">
        <ele>655.27999999999997</ele>
        <time>2025-04-25T10:30:30Z</time>
      </trkpt>
      <trkpt lat="44.676229041069746" lon="2.657975004985929">
        <ele>654.79999999999995</ele>
        <time>2025-04-25T10:30:31Z</time>
      </trkpt>
      <trkpt lat="44.676077999174595" lon="2.657816000282764">
        <ele>654.30999999999995</ele>
        <time>2025-04-25T10:30:32Z</time>
      </trkpt>
      <trkpt lat="44.675955036655068" lon="2.657603016123176">
        <ele>653.83000000000004</ele>
        <time>2025-04-25T10:30:33Z</time>
      </trkpt>
      <trkpt lat="44.675872977823019" lon="2.657360024750233">
        <ele>653.35000000000002</ele>
        <time>2025-04-25T10:30:34Z</time>
      </trkpt>
      <trkpt lat="44.675849005579948" lon="2.657131031155586">
        <ele>652.87</ele>
        <time>2025-04-25T10:30:35Z</time>
      </trkpt>
      <trkpt lat="44.675882030278444" lon="2.656857026740909">
        <ele>652.38999999999999</ele>
        <time>2025-04-25T10:30:36Z</time>
      </trkpt>
      <trkpt lat="44.675978003069758" lon="2.656618980690837">
        <ele>651.90999999999997</ele>
        <time>2025-04-25T10:30:37Z</time>
      </trkpt>
      <trkpt lat="44.676093002781272" lon="2.656399039551616">
        <ele>651.42999999999995</ele>
        <time>2025-04-25T10:30:38Z</time>
      </trkpt>
      <trkpt lat="44.676198028028011" lon="2.656172979623079">
        <ele>651.42999999999995</ele>
        <time>2025-04-25T10:30:39Z</time>
      </trkpt>
      <trkpt lat="44.676291989162564" lon="2.655954966321588">
        <ele>651.42999999999995</ele>
        <time>2025-04-25T10:30:40Z</time>
      </trkpt>
      <trkpt lat="44.676471026614308" lon="2.655536960810423">
        <ele>650.47000000000003</ele>
        <time>2025-04-25T10:30:42Z</time>
      </trkpt>
      <trkpt lat="44.676541015505791" lon="2.655318025499582">
        <ele>650.47000000000003</ele>
        <time>2025-04-25T10:30:43Z</time>
      </trkpt>
      <trkpt lat="44.676565993577242" lon="2.655081991106272">
        <ele>649.99000000000001</ele>
        <time>2025-04-25T10:30:44Z</time>
      </trkpt>
      <trkpt lat="44.676556019112468" lon="2.654834976419807">
        <ele>649.99000000000001</ele>
        <time>2025-04-25T10:30:45Z</time>
      </trkpt>
      <trkpt lat="44.676547972485423" lon="2.654573963955045">
        <ele>649.50999999999999</ele>
        <time>2025-04-25T10:30:46Z</time>
      </trkpt>
      <trkpt lat="44.676547972485423" lon="2.654318986460567">
        <ele>649.50999999999999</ele>
        <time>2025-04-25T10:30:47Z</time>
      </trkpt>
      <trkpt lat="44.676558030769229" lon="2.654072977602482">
        <ele>649.50999999999999</ele>
        <time>2025-04-25T10:30:48Z</time>
      </trkpt>
      <trkpt lat="44.676612010225654" lon="2.653821017593145">
        <ele>649.02999999999997</ele>
        <time>2025-04-25T10:30:49Z</time>
      </trkpt>
      <trkpt lat="44.677212992683053" lon="2.652426017448306">
        <ele>647.59000000000003</ele>
        <time>2025-04-25T10:30:55Z</time>
      </trkpt>
      <trkpt lat="44.677350036799908" lon="2.652275981381536">
        <ele>647.59000000000003</ele>
        <time>2025-04-25T10:30:56Z</time>
      </trkpt>
      <trkpt lat="44.677480040118098" lon="2.652159975841641">
        <ele>647.10000000000002</ele>
        <time>2025-04-25T10:30:57Z</time>
      </trkpt>
      <trkpt lat="44.677641978487372" lon="2.652117982506752">
        <ele>646.62</ele>
        <time>2025-04-25T10:30:58Z</time>
      </trkpt>
      <trkpt lat="44.677813975140452" lon="2.652072971686721">
        <ele>646.62</ele>
        <time>2025-04-25T10:30:59Z</time>
      </trkpt>
      <trkpt lat="44.678148999810219" lon="2.651943974196911">
        <ele>645.65999999999997</ele>
        <time>2025-04-25T10:31:01Z</time>
      </trkpt>
      <trkpt lat="44.678293000906706" lon="2.651819000020623">
        <ele>645.17999999999995</ele>
        <time>2025-04-25T10:31:02Z</time>
      </trkpt>
      <trkpt lat="44.678423004224896" lon="2.651653960347176">
        <ele>644.70000000000005</ele>
        <time>2025-04-25T10:31:03Z</time>
      </trkpt>
      <trkpt lat="44.678539009764791" lon="2.65146603807807">
        <ele>644.22000000000003</ele>
        <time>2025-04-25T10:31:04Z</time>
      </trkpt>
      <trkpt lat="44.678649986162782" lon="2.651266967877746">
        <ele>643.74000000000001</ele>
        <time>2025-04-25T10:31:05Z</time>
      </trkpt>
      <trkpt lat="44.678729027509689" lon="2.651012996211648">
        <ele>643.25999999999999</ele>
        <time>2025-04-25T10:31:06Z</time>
      </trkpt>
      <trkpt lat="44.678807985037565" lon="2.650756007060409">
        <ele>642.77999999999997</ele>
        <time>2025-04-25T10:31:07Z</time>
      </trkpt>
      <trkpt lat="44.679019963368773" lon="2.649818994104862">
        <ele>640.38</ele>
        <time>2025-04-25T10:31:11Z</time>
      </trkpt>
      <trkpt lat="44.679005965590477" lon="2.649623025208712">
        <ele>639.88999999999999</ele>
        <time>2025-04-25T10:31:12Z</time>
      </trkpt>
      <trkpt lat="44.678959026932716" lon="2.649438036605716">
        <ele>639.40999999999997</ele>
        <time>2025-04-25T10:31:13Z</time>
      </trkpt>
      <trkpt lat="44.678908986970782" lon="2.649245001375675">
        <ele>638.92999999999995</ele>
        <time>2025-04-25T10:31:14Z</time>
      </trkpt>
      <trkpt lat="44.678856013342738" lon="2.649037968367338">
        <ele>638.45000000000005</ele>
        <time>2025-04-25T10:31:15Z</time>
      </trkpt>
      <trkpt lat="44.678802033886313" lon="2.64882599003613">
        <ele>637.97000000000003</ele>
        <time>2025-04-25T10:31:16Z</time>
      </trkpt>
      <trkpt lat="44.678832963109016" lon="2.648636978119612">
        <ele>637.49000000000001</ele>
        <time>2025-04-25T10:31:17Z</time>
      </trkpt>
      <trkpt lat="44.678941005840898" lon="2.648276975378394">
        <ele>637.00999999999999</ele>
        <time>2025-04-25T10:31:19Z</time>
      </trkpt>
      <trkpt lat="44.679469987750053" lon="2.647139970213175">
        <ele>633.64999999999998</ele>
        <time>2025-04-25T10:31:24Z</time>
      </trkpt>
      <trkpt lat="44.679723037406802" lon="2.64676102437079">
        <ele>632.20000000000005</ele>
        <time>2025-04-25T10:31:26Z</time>
      </trkpt>
      <trkpt lat="44.679795959964395" lon="2.646557008847594">
        <ele>631.24000000000001</ele>
        <time>2025-04-25T10:31:27Z</time>
      </trkpt>
      <trkpt lat="44.679854968562722" lon="2.646314017474651">
        <ele>630.27999999999997</ele>
        <time>2025-04-25T10:31:28Z</time>
      </trkpt>
      <trkpt lat="44.679894028231502" lon="2.646078988909721">
        <ele>629.32000000000005</ele>
        <time>2025-04-25T10:31:29Z</time>
      </trkpt>
      <trkpt lat="44.679911965504289" lon="2.645814958959818">
        <ele>628.36000000000001</ele>
        <time>2025-04-25T10:31:30Z</time>
      </trkpt>
      <trkpt lat="44.679905008524656" lon="2.6455810200423">
        <ele>627.88</ele>
        <time>2025-04-25T10:31:31Z</time>
      </trkpt>
      <trkpt lat="44.679909031838179" lon="2.645212970674038">
        <ele>626.91999999999996</ele>
        <time>2025-04-25T10:31:33Z</time>
      </trkpt>
      <trkpt lat="44.67995697632432" lon="2.645052038133144">
        <ele>626.44000000000005</ele>
        <time>2025-04-25T10:31:34Z</time>
      </trkpt>
      <trkpt lat="44.680025959387422" lon="2.644926980137825">
        <ele>625.96000000000004</ele>
        <time>2025-04-25T10:31:35Z</time>
      </trkpt>
      <trkpt lat="44.680110029876232" lon="2.644838970154524">
        <ele>624.99000000000001</ele>
        <time>2025-04-25T10:31:36Z</time>
      </trkpt>
      <trkpt lat="44.680237015709281" lon="2.644730005413294">
        <ele>624.50999999999999</ele>
        <time>2025-04-25T10:31:37Z</time>
      </trkpt>
      <trkpt lat="44.680374981835485" lon="2.644611988216639">
        <ele>623.54999999999995</ele>
        <time>2025-04-25T10:31:38Z</time>
      </trkpt>
      <trkpt lat="44.680519988760352" lon="2.644487014040351">
        <ele>623.07000000000005</ele>
        <time>2025-04-25T10:31:39Z</time>
      </trkpt>
      <trkpt lat="44.680677987635136" lon="2.644319962710142">
        <ele>622.59000000000003</ele>
        <time>2025-04-25T10:31:40Z</time>
      </trkpt>
      <trkpt lat="44.680796004831791" lon="2.64407797716558">
        <ele>623.07000000000005</ele>
        <time>2025-04-25T10:31:41Z</time>
      </trkpt>
      <trkpt lat="44.680796004831791" lon="2.643914027139545">
        <ele>623.07000000000005</ele>
        <time>2025-04-25T10:31:42Z</time>
      </trkpt>
      <trkpt lat="44.680796004831791" lon="2.643671035766602">
        <ele>623.07000000000005</ele>
        <time>2025-04-25T10:31:43Z</time>
      </trkpt>
      <trkpt lat="44.680760968476534" lon="2.643508007749915">
        <ele>623.07000000000005</ele>
        <time>2025-04-25T10:31:44Z</time>
      </trkpt>
      <trkpt lat="44.680716963484883" lon="2.643307009711862">
        <ele>623.07000000000005</ele>
        <time>2025-04-25T10:31:45Z</time>
      </trkpt>
      <trkpt lat="44.680696008726954" lon="2.643126966431737">
        <ele>623.07000000000005</ele>
        <time>2025-04-25T10:31:46Z</time>
      </trkpt>
      <trkpt lat="44.680721992626786" lon="2.642929991707206">
        <ele>622.59000000000003</ele>
        <time>2025-04-25T10:31:47Z</time>
      </trkpt>
      <trkpt lat="44.680784018710256" lon="2.6427679695189">
        <ele>622.59000000000003</ele>
        <time>2025-04-25T10:31:48Z</time>
      </trkpt>
      <trkpt lat="44.680891977623105" lon="2.6426160056144">
        <ele>622.59000000000003</ele>
        <time>2025-04-25T10:31:49Z</time>
      </trkpt>
      <trkpt lat="44.681040002033114" lon="2.642495976760984">
        <ele>623.07000000000005</ele>
        <time>2025-04-25T10:31:50Z</time>
      </trkpt>
      <trkpt lat="44.681186014786363" lon="2.642376031726599">
        <ele>623.07000000000005</ele>
        <time>2025-04-25T10:31:51Z</time>
      </trkpt>
      <trkpt lat="44.681301014497876" lon="2.642223984003067">
        <ele>622.59000000000003</ele>
        <time>2025-04-25T10:31:52Z</time>
      </trkpt>
      <trkpt lat="44.681377960368991" lon="2.642040001228452">
        <ele>622.59000000000003</ele>
        <time>2025-04-25T10:31:53Z</time>
      </trkpt>
      <trkpt lat="44.681428000330925" lon="2.641822993755341">
        <ele>622.59000000000003</ele>
        <time>2025-04-25T10:31:54Z</time>
      </trkpt>
      <trkpt lat="44.681457001715899" lon="2.641589976847172">
        <ele>622.59000000000003</ele>
        <time>2025-04-25T10:31:55Z</time>
      </trkpt>
      <trkpt lat="44.681444009765983" lon="2.641342962160707">
        <ele>622.59000000000003</ele>
        <time>2025-04-25T10:31:56Z</time>
      </trkpt>
      <trkpt lat="44.681418025866151" lon="2.640859996899962">
        <ele>622.11000000000001</ele>
        <time>2025-04-25T10:31:58Z</time>
      </trkpt>
      <trkpt lat="44.681348036974669" lon="2.640612982213497">
        <ele>622.11000000000001</ele>
        <time>2025-04-25T10:31:59Z</time>
      </trkpt>
      <trkpt lat="44.681278970092535" lon="2.640391029417515">
        <ele>623.07000000000005</ele>
        <time>2025-04-25T10:32:00Z</time>
      </trkpt>
      <trkpt lat="44.681162964552641" lon="2.640195982530713">
        <ele>623.54999999999995</ele>
        <time>2025-04-25T10:32:01Z</time>
      </trkpt>
      <trkpt lat="44.681043019518256" lon="2.639993978664279">
        <ele>624.02999999999997</ele>
        <time>2025-04-25T10:32:02Z</time>
      </trkpt>
      <trkpt lat="44.68081695958972" lon="2.639541020616889">
        <ele>624.50999999999999</ele>
        <time>2025-04-25T10:32:04Z</time>
      </trkpt>
      <trkpt lat="44.68072802759707" lon="2.639295011758804">
        <ele>624.50999999999999</ele>
        <time>2025-04-25T10:32:05Z</time>
      </trkpt>
      <trkpt lat="44.680325025692582" lon="2.637760033831">
        <ele>624.50999999999999</ele>
        <time>2025-04-25T10:32:11Z</time>
      </trkpt>
      <trkpt lat="44.680152023211122" lon="2.636260008439422">
        <ele>621.63</ele>
        <time>2025-04-25T10:32:18Z</time>
      </trkpt>
      <trkpt lat="44.680067030712962" lon="2.635452998802066">
        <ele>618.75</ele>
        <time>2025-04-25T10:32:23Z</time>
      </trkpt>
      <trkpt lat="44.680073987692595" lon="2.635306986048818">
        <ele>618.25999999999999</ele>
        <time>2025-04-25T10:32:24Z</time>
      </trkpt>
      <trkpt lat="44.680102989077568" lon="2.634551022201777">
        <ele>614.89999999999998</ele>
        <time>2025-04-25T10:32:29Z</time>
      </trkpt>
      <trkpt lat="44.680091002956033" lon="2.63447399251163">
        <ele>614.41999999999996</ele>
        <time>2025-04-25T10:32:30Z</time>
      </trkpt>
      <trkpt lat="44.680083962157369" lon="2.634428981691599">
        <ele>613.94000000000005</ele>
        <time>2025-04-25T10:32:31Z</time>
      </trkpt>
      <trkpt lat="44.680067030712962" lon="2.634315993636847">
        <ele>613.46000000000004</ele>
        <time>2025-04-25T10:32:32Z</time>
      </trkpt>
      <trkpt lat="44.680067030712962" lon="2.634315993636847">
        <ele>613.46000000000004</ele>
        <time>2025-04-25T10:32:33Z</time>
      </trkpt>
      <trkpt lat="44.680067030712962" lon="2.634315993636847">
        <ele>612.98000000000002</ele>
        <time>2025-04-25T10:32:34Z</time>
      </trkpt>
      <trkpt lat="44.679958987981081" lon="2.634143996983767">
        <ele>612.98000000000002</ele>
        <time>2025-04-25T10:32:35Z</time>
      </trkpt>
      <trkpt lat="44.679958987981081" lon="2.634143996983767">
        <ele>612.98000000000002</ele>
        <time>2025-04-25T10:32:36Z</time>
      </trkpt>
      <trkpt lat="44.679926969110966" lon="2.634140979498625">
        <ele>612.5</ele>
        <time>2025-04-25T10:32:37Z</time>
      </trkpt>
      <trkpt lat="44.679861003533006" lon="2.634136034175754">
        <ele>612.01999999999998</ele>
        <time>2025-04-25T10:32:38Z</time>
      </trkpt>
      <trkpt lat="44.67978497967124" lon="2.63412899337709">
        <ele>612.01999999999998</ele>
        <time>2025-04-25T10:32:39Z</time>
      </trkpt>
      <trkpt lat="44.679568978026509" lon="2.634145002812147">
        <ele>611.05999999999995</ele>
        <time>2025-04-25T10:32:41Z</time>
      </trkpt>
      <trkpt lat="44.679468981921673" lon="2.634161012247205">
        <ele>610.09000000000003</ele>
        <time>2025-04-25T10:32:42Z</time>
      </trkpt>
      <trkpt lat="44.679194977506995" lon="2.634520009160042">
        <ele>607.69000000000005</ele>
        <time>2025-04-25T10:32:45Z</time>
      </trkpt>
      <trkpt lat="44.679106967523694" lon="2.634552028030157">
        <ele>606.73000000000002</ele>
        <time>2025-04-25T10:32:46Z</time>
      </trkpt>
      <trkpt lat="44.678401965647936" lon="2.635055026039481">
        <ele>602.88</ele>
        <time>2025-04-25T10:32:55Z</time>
      </trkpt>
      <trkpt lat="44.678129972890019" lon="2.635420979931951">
        <ele>602.39999999999998</ele>
        <time>2025-04-25T10:32:59Z</time>
      </trkpt>
      <trkpt lat="44.678059983998537" lon="2.635515024885535">
        <ele>602.39999999999998</ele>
        <time>2025-04-25T10:33:00Z</time>
      </trkpt>
      <trkpt lat="44.677852028980851" lon="2.635794980451465">
        <ele>600.96000000000004</ele>
        <time>2025-04-25T10:33:03Z</time>
      </trkpt>
      <trkpt lat="44.677802994847298" lon="2.635895982384682">
        <ele>600.48000000000002</ele>
        <time>2025-04-25T10:33:04Z</time>
      </trkpt>
      <trkpt lat="44.677715990692377" lon="2.636122964322567">
        <ele>599.51999999999998</ele>
        <time>2025-04-25T10:33:06Z</time>
      </trkpt>
      <trkpt lat="44.677550029009581" lon="2.636826960369945">
        <ele>595.66999999999996</ele>
        <time>2025-04-25T10:33:11Z</time>
      </trkpt>
      <trkpt lat="44.677483979612589" lon="2.636961992830038">
        <ele>594.71000000000004</ele>
        <time>2025-04-25T10:33:12Z</time>
      </trkpt>
      <trkpt lat="44.677407033741474" lon="2.637071963399649">
        <ele>594.23000000000002</ele>
        <time>2025-04-25T10:33:13Z</time>
      </trkpt>
      <trkpt lat="44.677327992394567" lon="2.637184029445052">
        <ele>594.23000000000002</ele>
        <time>2025-04-25T10:33:14Z</time>
      </trkpt>
      <trkpt lat="44.677242999896407" lon="2.637303974479437">
        <ele>594.71000000000004</ele>
        <time>2025-04-25T10:33:15Z</time>
      </trkpt>
      <trkpt lat="44.677159013226628" lon="2.637424003332853">
        <ele>595.19000000000005</ele>
        <time>2025-04-25T10:33:16Z</time>
      </trkpt>
      <trkpt lat="44.677074020728469" lon="2.63754503801465">
        <ele>595.66999999999996</ele>
        <time>2025-04-25T10:33:17Z</time>
      </trkpt>
      <trkpt lat="44.676809990778565" lon="2.637887019664049">
        <ele>597.12</ele>
        <time>2025-04-25T10:33:20Z</time>
      </trkpt>
      <trkpt lat="44.676636988297105" lon="2.638038983568549">
        <ele>598.55999999999995</ele>
        <time>2025-04-25T10:33:22Z</time>
      </trkpt>
      <trkpt lat="44.676474966108799" lon="2.638162029907107">
        <ele>599.51999999999998</ele>
        <time>2025-04-25T10:33:24Z</time>
      </trkpt>
      <trkpt lat="44.676381004974246" lon="2.638180973008275">
        <ele>600.48000000000002</ele>
        <time>2025-04-25T10:33:25Z</time>
      </trkpt>
      <trkpt lat="44.676278997212648" lon="2.638202011585236">
        <ele>600.96000000000004</ele>
        <time>2025-04-25T10:33:26Z</time>
      </trkpt>
      <trkpt lat="44.675611965358257" lon="2.638360010460019">
        <ele>604.33000000000004</ele>
        <time>2025-04-25T10:33:32Z</time>
      </trkpt>
      <trkpt lat="44.675523033365607" lon="2.638443997129798">
        <ele>605.28999999999996</ele>
        <time>2025-04-25T10:33:33Z</time>
      </trkpt>
      <trkpt lat="44.675426976755261" lon="2.63853401876986">
        <ele>605.76999999999998</ele>
        <time>2025-04-25T10:33:34Z</time>
      </trkpt>
      <trkpt lat="44.675324968993664" lon="2.638628985732794">
        <ele>606.73000000000002</ele>
        <time>2025-04-25T10:33:35Z</time>
      </trkpt>
      <trkpt lat="44.67525196261704" lon="2.638779021799564">
        <ele>607.69000000000005</ele>
        <time>2025-04-25T10:33:36Z</time>
      </trkpt>
      <trkpt lat="44.675191026180983" lon="2.638914976269007">
        <ele>608.64999999999998</ele>
        <time>2025-04-25T10:33:37Z</time>
      </trkpt>
      <trkpt lat="44.675125982612371" lon="2.639040034264326">
        <ele>609.61000000000001</ele>
        <time>2025-04-25T10:33:38Z</time>
      </trkpt>
      <trkpt lat="44.674925990402699" lon="2.639423003420234">
        <ele>611.05999999999995</ele>
        <time>2025-04-25T10:33:41Z</time>
      </trkpt>
      <trkpt lat="44.674620972946286" lon="2.639980986714363">
        <ele>612.5</ele>
        <time>2025-04-25T10:33:45Z</time>
      </trkpt>
      <trkpt lat="44.674192992970347" lon="2.640555985271931">
        <ele>614.41999999999996</ele>
        <time>2025-04-25T10:33:50Z</time>
      </trkpt>
      <trkpt lat="44.674102971330285" lon="2.640615999698639">
        <ele>614.89999999999998</ele>
        <time>2025-04-25T10:33:51Z</time>
      </trkpt>
      <trkpt lat="44.674022002145648" lon="2.640669979155064">
        <ele>615.38</ele>
        <time>2025-04-25T10:33:52Z</time>
      </trkpt>
      <trkpt lat="44.673934997990727" lon="2.64070400968194">
        <ele>615.86000000000001</ele>
        <time>2025-04-25T10:33:53Z</time>
      </trkpt>
      <trkpt lat="44.673851011320949" lon="2.64072597026825">
        <ele>616.82000000000005</ele>
        <time>2025-04-25T10:33:54Z</time>
      </trkpt>
      <trkpt lat="44.673764007166028" lon="2.640749020501971">
        <ele>617.29999999999995</ele>
        <time>2025-04-25T10:33:55Z</time>
      </trkpt>
      <trkpt lat="44.673670968040824" lon="2.640772992745042">
        <ele>618.25999999999999</ele>
        <time>2025-04-25T10:33:56Z</time>
      </trkpt>
      <trkpt lat="44.673472987487912" lon="2.640778021886945">
        <ele>619.23000000000002</ele>
        <time>2025-04-25T10:33:58Z</time>
      </trkpt>
      <trkpt lat="44.673370979726315" lon="2.640829989686608">
        <ele>619.23000000000002</ele>
        <time>2025-04-25T10:33:59Z</time>
      </trkpt>
      <trkpt lat="44.672557013109326" lon="2.641208013519645">
        <ele>617.29999999999995</ele>
        <time>2025-04-25T10:34:06Z</time>
      </trkpt>
      <trkpt lat="44.672448970377445" lon="2.641238020732999">
        <ele>616.82000000000005</ele>
        <time>2025-04-25T10:34:07Z</time>
      </trkpt>
      <trkpt lat="44.672349980100989" lon="2.641266016289592">
        <ele>615.86000000000001</ele>
        <time>2025-04-25T10:34:08Z</time>
      </trkpt>
      <trkpt lat="44.672257024794817" lon="2.641292000189424">
        <ele>614.89999999999998</ele>
        <time>2025-04-25T10:34:09Z</time>
      </trkpt>
      <trkpt lat="44.672175971791148" lon="2.641339022666216">
        <ele>613.94000000000005</ele>
        <time>2025-04-25T10:34:10Z</time>
      </trkpt>
      <trkpt lat="44.672122998163104" lon="2.641436001285911">
        <ele>612.5</ele>
        <time>2025-04-25T10:34:11Z</time>
      </trkpt>
      <trkpt lat="44.67207002453506" lon="2.641532979905605">
        <ele>612.01999999999998</ele>
        <time>2025-04-25T10:34:12Z</time>
      </trkpt>
      <trkpt lat="44.672021996229887" lon="2.641621995717287">
        <ele>611.05999999999995</ele>
        <time>2025-04-25T10:34:13Z</time>
      </trkpt>
      <trkpt lat="44.671980002894998" lon="2.641698019579053">
        <ele>610.57000000000005</ele>
        <time>2025-04-25T10:34:14Z</time>
      </trkpt>
      <trkpt lat="44.671945972368121" lon="2.641760967671871">
        <ele>610.09000000000003</ele>
        <time>2025-04-25T10:34:15Z</time>
      </trkpt>
      <trkpt lat="44.671917976811528" lon="2.641785023733974">
        <ele>609.61000000000001</ele>
        <time>2025-04-25T10:34:16Z</time>
      </trkpt>
      <trkpt lat="44.671847987920046" lon="2.641792986541987">
        <ele>609.13</ele>
        <time>2025-04-25T10:34:17Z</time>
      </trkpt>
      <trkpt lat="44.671676997095346" lon="2.64177898876369">
        <ele>608.16999999999996</ele>
        <time>2025-04-25T10:34:19Z</time>
      </trkpt>
      <trkpt lat="44.671507012099028" lon="2.641729032620788">
        <ele>607.21000000000004</ele>
        <time>2025-04-25T10:34:21Z</time>
      </trkpt>
      <trkpt lat="44.671429982408881" lon="2.641705982387066">
        <ele>607.21000000000004</ele>
        <time>2025-04-25T10:34:22Z</time>
      </trkpt>
      <trkpt lat="44.671353036537766" lon="2.641592994332314">
        <ele>606.73000000000002</ele>
        <time>2025-04-25T10:34:23Z</time>
      </trkpt>
      <trkpt lat="44.671312971040606" lon="2.64149802736938">
        <ele>606.25</ele>
        <time>2025-04-25T10:34:24Z</time>
      </trkpt>
      <trkpt lat="44.671267038211226" lon="2.641387972980738">
        <ele>606.25</ele>
        <time>2025-04-25T10:34:25Z</time>
      </trkpt>
      <trkpt lat="44.671243987977505" lon="2.64126299880445">
        <ele>605.76999999999998</ele>
        <time>2025-04-25T10:34:26Z</time>
      </trkpt>
      <trkpt lat="44.671220015734434" lon="2.641136012971401">
        <ele>604.80999999999995</ele>
        <time>2025-04-25T10:34:27Z</time>
      </trkpt>
      <trkpt lat="44.671193026006222" lon="2.641013972461224">
        <ele>603.85000000000002</ele>
        <time>2025-04-25T10:34:28Z</time>
      </trkpt>
      <trkpt lat="44.671139968559146" lon="2.640838958323002">
        <ele>603.36000000000001</ele>
        <time>2025-04-25T10:34:29Z</time>
      </trkpt>
      <trkpt lat="44.671085989102721" lon="2.640784978866577">
        <ele>602.88</ele>
        <time>2025-04-25T10:34:30Z</time>
      </trkpt>
      <trkpt lat="44.670994961634278" lon="2.640705015510321">
        <ele>602.39999999999998</ele>
        <time>2025-04-25T10:34:31Z</time>
      </trkpt>
      <trkpt lat="44.670901000499725" lon="2.640675008296967">
        <ele>601.91999999999996</ele>
        <time>2025-04-25T10:34:32Z</time>
      </trkpt>
      <trkpt lat="44.670807039365172" lon="2.640646006911993">
        <ele>601.44000000000005</ele>
        <time>2025-04-25T10:34:33Z</time>
      </trkpt>
      <trkpt lat="44.670720035210252" lon="2.640619017183781">
        <ele>600.96000000000004</ele>
        <time>2025-04-25T10:34:34Z</time>
      </trkpt>
      <trkpt lat="44.670616015791893" lon="2.640628991648555">
        <ele>600.48000000000002</ele>
        <time>2025-04-25T10:34:35Z</time>
      </trkpt>
      <trkpt lat="44.670540997758508" lon="2.640666039660573">
        <ele>600.48000000000002</ele>
        <time>2025-04-25T10:34:36Z</time>
      </trkpt>
      <trkpt lat="44.670444019138813" lon="2.640723958611488">
        <ele>600</ele>
        <time>2025-04-25T10:34:37Z</time>
      </trkpt>
      <trkpt lat="44.670410994440317" lon="2.640773998573422">
        <ele>599.51999999999998</ele>
        <time>2025-04-25T10:34:38Z</time>
      </trkpt>
      <trkpt lat="44.670353997498751" lon="2.640936020761728">
        <ele>598.55999999999995</ele>
        <time>2025-04-25T10:34:39Z</time>
      </trkpt>
      <trkpt lat="44.670317033305764" lon="2.641041968017817">
        <ele>598.08000000000004</ele>
        <time>2025-04-25T10:34:40Z</time>
      </trkpt>
      <trkpt lat="44.670275961980224" lon="2.64115696772933">
        <ele>597.12</ele>
        <time>2025-04-25T10:34:41Z</time>
      </trkpt>
      <trkpt lat="44.670232040807605" lon="2.641284037381411">
        <ele>596.14999999999998</ele>
        <time>2025-04-25T10:34:42Z</time>
      </trkpt>
      <trkpt lat="44.670185018330812" lon="2.641417980194092">
        <ele>595.19000000000005</ele>
        <time>2025-04-25T10:34:43Z</time>
      </trkpt>
      <trkpt lat="44.670139001682401" lon="2.641546977683902">
        <ele>594.23000000000002</ele>
        <time>2025-04-25T10:34:44Z</time>
      </trkpt>
      <trkpt lat="44.670057026669383" lon="2.641614032909274">
        <ele>592.78999999999996</ele>
        <time>2025-04-25T10:34:45Z</time>
      </trkpt>
      <trkpt lat="44.669957030564547" lon="2.641675975173712">
        <ele>591.83000000000004</ele>
        <time>2025-04-25T10:34:46Z</time>
      </trkpt>
      <trkpt lat="44.669853011146188" lon="2.641740012913942">
        <ele>590.87</ele>
        <time>2025-04-25T10:34:47Z</time>
      </trkpt>
      <trkpt lat="44.669758966192603" lon="2.641869010403752">
        <ele>589.90999999999997</ele>
        <time>2025-04-25T10:34:48Z</time>
      </trkpt>
      <trkpt lat="44.669676991179585" lon="2.641981998458505">
        <ele>588.95000000000005</ele>
        <time>2025-04-25T10:34:49Z</time>
      </trkpt>
      <trkpt lat="44.669594010338187" lon="2.642095992341638">
        <ele>587.5</ele>
        <time>2025-04-25T10:34:50Z</time>
      </trkpt>
      <trkpt lat="44.669513963162899" lon="2.642205962911248">
        <ele>586.53999999999996</ele>
        <time>2025-04-25T10:34:51Z</time>
      </trkpt>
      <trkpt lat="44.669426959007978" lon="2.642290033400059">
        <ele>585.58000000000004</ele>
        <time>2025-04-25T10:34:52Z</time>
      </trkpt>
      <trkpt lat="44.669340960681438" lon="2.642371002584696">
        <ele>584.62</ele>
        <time>2025-04-25T10:34:53Z</time>
      </trkpt>
      <trkpt lat="44.66925697401166" lon="2.642450965940952">
        <ele>583.65999999999997</ele>
        <time>2025-04-25T10:34:54Z</time>
      </trkpt>
      <trkpt lat="44.669173993170261" lon="2.64253000728786">
        <ele>582.70000000000005</ele>
        <time>2025-04-25T10:34:55Z</time>
      </trkpt>
      <trkpt lat="44.669095035642385" lon="2.642608964815736">
        <ele>581.25</ele>
        <time>2025-04-25T10:34:56Z</time>
      </trkpt>
      <trkpt lat="44.668716005980968" lon="2.643306003883481">
        <ele>573.55999999999995</ele>
        <time>2025-04-25T10:35:03Z</time>
      </trkpt>
      <trkpt lat="44.668687004595995" lon="2.643425026908517">
        <ele>572.60000000000002</ele>
        <time>2025-04-25T10:35:04Z</time>
      </trkpt>
      <trkpt lat="44.668615004047751" lon="2.643724009394646">
        <ele>570.20000000000005</ele>
        <time>2025-04-25T10:35:06Z</time>
      </trkpt>
      <trkpt lat="44.668578961864114" lon="2.643855018541217">
        <ele>569.24000000000001</ele>
        <time>2025-04-25T10:35:07Z</time>
      </trkpt>
      <trkpt lat="44.668524982407689" lon="2.643944034352899">
        <ele>567.79999999999995</ele>
        <time>2025-04-25T10:35:08Z</time>
      </trkpt>
      <trkpt lat="44.668480977416039" lon="2.644016034901142">
        <ele>566.83000000000004</ele>
        <time>2025-04-25T10:35:09Z</time>
      </trkpt>
      <trkpt lat="44.668447030708194" lon="2.644071020185947">
        <ele>565.38999999999999</ele>
        <time>2025-04-25T10:35:10Z</time>
      </trkpt>
      <trkpt lat="44.668405959382653" lon="2.644138997420669">
        <ele>560.11000000000001</ele>
        <time>2025-04-25T10:35:17Z</time>
      </trkpt>
      <trkpt lat="44.668405959382653" lon="2.644138997420669">
        <ele>560.11000000000001</ele>
        <time>2025-04-25T10:35:55Z</time>
      </trkpt>
      <trkpt lat="44.668405959382653" lon="2.644138997420669">
        <ele>559.62</ele>
        <time>2025-04-25T10:36:46Z</time>
      </trkpt>
      <trkpt lat="44.668406965211034" lon="2.644136985763907">
        <ele>559.62</ele>
        <time>2025-04-25T10:37:10Z</time>
      </trkpt>
      <trkpt lat="44.668408976867795" lon="2.644133968278766">
        <ele>559.13999999999999</ele>
        <time>2025-04-25T10:37:11Z</time>
      </trkpt>
      <trkpt lat="44.668350974097848" lon="2.644229019060731">
        <ele>559.62</ele>
        <time>2025-04-25T10:37:12Z</time>
      </trkpt>
      <trkpt lat="44.668350974097848" lon="2.644263971596956">
        <ele>560.11000000000001</ele>
        <time>2025-04-25T10:37:13Z</time>
      </trkpt>
      <trkpt lat="44.668350974097848" lon="2.644363967701793">
        <ele>559.62</ele>
        <time>2025-04-25T10:37:14Z</time>
      </trkpt>
      <trkpt lat="44.668350974097848" lon="2.644477039575577">
        <ele>559.13999999999999</ele>
        <time>2025-04-25T10:37:15Z</time>
      </trkpt>
      <trkpt lat="44.668350974097848" lon="2.644596984609962">
        <ele>558.17999999999995</ele>
        <time>2025-04-25T10:37:16Z</time>
      </trkpt>
      <trkpt lat="44.668333036825061" lon="2.644684994593263">
        <ele>557.70000000000005</ele>
        <time>2025-04-25T10:37:17Z</time>
      </trkpt>
      <trkpt lat="44.668276961892843" lon="2.644768981263042">
        <ele>557.22000000000003</ele>
        <time>2025-04-25T10:37:18Z</time>
      </trkpt>
      <trkpt lat="44.668216025456786" lon="2.644822960719466">
        <ele>556.74000000000001</ele>
        <time>2025-04-25T10:37:19Z</time>
      </trkpt>
      <trkpt lat="44.668146036565304" lon="2.644876018166542">
        <ele>556.25999999999999</ele>
        <time>2025-04-25T10:37:20Z</time>
      </trkpt>
      <trkpt lat="44.66807303018868" lon="2.644942989572883">
        <ele>555.29999999999995</ele>
        <time>2025-04-25T10:37:21Z</time>
      </trkpt>
      <trkpt lat="44.668017039075494" lon="2.645019013434649">
        <ele>554.82000000000005</ele>
        <time>2025-04-25T10:37:22Z</time>
      </trkpt>
      <trkpt lat="44.667959958314896" lon="2.645096965134144">
        <ele>553.86000000000001</ele>
        <time>2025-04-25T10:37:23Z</time>
      </trkpt>
      <trkpt lat="44.66790497303009" lon="2.645171983167529">
        <ele>553.38</ele>
        <time>2025-04-25T10:37:24Z</time>
      </trkpt>
      <trkpt lat="44.667857028543949" lon="2.64523702673614">
        <ele>552.89999999999998</ele>
        <time>2025-04-25T10:37:25Z</time>
      </trkpt>
      <trkpt lat="44.667809000238776" lon="2.645334005355835">
        <ele>551.92999999999995</ele>
        <time>2025-04-25T10:37:26Z</time>
      </trkpt>
      <trkpt lat="44.667763989418745" lon="2.645425032824278">
        <ele>551.45000000000005</ele>
        <time>2025-04-25T10:37:27Z</time>
      </trkpt>
      <trkpt lat="44.667727025225759" lon="2.645530980080366">
        <ele>550.97000000000003</ele>
        <time>2025-04-25T10:37:28Z</time>
      </trkpt>
      <trkpt lat="44.667697018012404" lon="2.645636005327106">
        <ele>550.49000000000001</ele>
        <time>2025-04-25T10:37:29Z</time>
      </trkpt>
      <trkpt lat="44.66766701079905" lon="2.645741030573845">
        <ele>549.52999999999997</ele>
        <time>2025-04-25T10:37:30Z</time>
      </trkpt>
      <trkpt lat="44.667604984715581" lon="2.645820993930101">
        <ele>549.04999999999995</ele>
        <time>2025-04-25T10:37:31Z</time>
      </trkpt>
      <trkpt lat="44.667534995824099" lon="2.645902968943119">
        <ele>548.57000000000005</ele>
        <time>2025-04-25T10:37:32Z</time>
      </trkpt>
      <trkpt lat="44.66747498139739" lon="2.645940016955137">
        <ele>548.09000000000003</ele>
        <time>2025-04-25T10:37:33Z</time>
      </trkpt>
      <trkpt lat="44.667410021647811" lon="2.645981004461646">
        <ele>547.61000000000001</ele>
        <time>2025-04-25T10:37:34Z</time>
      </trkpt>
      <trkpt lat="44.667329974472523" lon="2.64601000584662">
        <ele>547.13</ele>
        <time>2025-04-25T10:37:35Z</time>
      </trkpt>
      <trkpt lat="44.667255962267518" lon="2.64601000584662">
        <ele>546.64999999999998</ele>
        <time>2025-04-25T10:37:36Z</time>
      </trkpt>
      <trkpt lat="44.66704398393631" lon="2.64601000584662">
        <ele>545.69000000000005</ele>
        <time>2025-04-25T10:37:39Z</time>
      </trkpt>
      <trkpt lat="44.666883973404765" lon="2.64601000584662">
        <ele>544.72000000000003</ele>
        <time>2025-04-25T10:37:41Z</time>
      </trkpt>
      <trkpt lat="44.666569987311959" lon="2.645973963662982">
        <ele>540.88</ele>
        <time>2025-04-25T10:37:48Z</time>
      </trkpt>
      <trkpt lat="44.666517013683915" lon="2.645960971713066">
        <ele>538.96000000000004</ele>
        <time>2025-04-25T10:37:52Z</time>
      </trkpt>
      <trkpt lat="44.666515002027154" lon="2.645960971713066">
        <ele>538.48000000000002</ele>
        <time>2025-04-25T10:37:53Z</time>
      </trkpt>
      <trkpt lat="44.666515002027154" lon="2.645960971713066">
        <ele>537.50999999999999</ele>
        <time>2025-04-25T10:38:06Z</time>
      </trkpt>
      <trkpt lat="44.666515002027154" lon="2.645960971713066">
        <ele>537.02999999999997</ele>
        <time>2025-04-25T10:38:52Z</time>
      </trkpt>
      <trkpt lat="44.666460016742349" lon="2.64594797976315">
        <ele>537.02999999999997</ele>
        <time>2025-04-25T10:39:02Z</time>
      </trkpt>
      <trkpt lat="44.666435960680246" lon="2.645942028611898">
        <ele>537.50999999999999</ele>
        <time>2025-04-25T10:39:03Z</time>
      </trkpt>
      <trkpt lat="44.666148964315653" lon="2.645834991708398">
        <ele>536.07000000000005</ele>
        <time>2025-04-25T10:39:13Z</time>
      </trkpt>
      <trkpt lat="44.666114011779428" lon="2.645786963403225">
        <ele>535.11000000000001</ele>
        <time>2025-04-25T10:39:14Z</time>
      </trkpt>
      <trkpt lat="44.665626017376781" lon="2.64512998983264">
        <ele>525.01999999999998</ele>
        <time>2025-04-25T10:39:25Z</time>
      </trkpt>
      <trkpt lat="44.665548987686634" lon="2.644969979301095">
        <ele>522.13</ele>
        <time>2025-04-25T10:39:28Z</time>
      </trkpt>
      <trkpt lat="44.665526021271944" lon="2.644921028986573">
        <ele>521.16999999999996</ele>
        <time>2025-04-25T10:39:29Z</time>
      </trkpt>
      <trkpt lat="44.665441028773785" lon="2.64474299736321">
        <ele>515.39999999999998</ele>
        <time>2025-04-25T10:39:39Z</time>
      </trkpt>
      <trkpt lat="44.665370034053922" lon="2.644618023186922">
        <ele>513</ele>
        <time>2025-04-25T10:39:50Z</time>
      </trkpt>
      <trkpt lat="44.665370034053922" lon="2.644618023186922">
        <ele>513</ele>
        <time>2025-04-25T10:40:22Z</time>
      </trkpt>
      <trkpt lat="44.665370034053922" lon="2.644618023186922">
        <ele>513</ele>
        <time>2025-04-25T10:41:00Z</time>
      </trkpt>
      <trkpt lat="44.665395012125373" lon="2.64424997381866">
        <ele>532.23000000000002</ele>
        <time>2025-04-25T10:55:22Z</time>
      </trkpt>
      <trkpt lat="44.665312031283975" lon="2.644569994881749">
        <ele>532.71000000000004</ele>
        <time>2025-04-25T10:55:47Z</time>
      </trkpt>
      <trkpt lat="44.665300967171788" lon="2.644586004316807">
        <ele>533.19000000000005</ele>
        <time>2025-04-25T10:55:58Z</time>
      </trkpt>
      <trkpt lat="44.665296021848917" lon="2.644521966576576">
        <ele>532.71000000000004</ele>
        <time>2025-04-25T10:56:00Z</time>
      </trkpt>
      <trkpt lat="44.665266014635563" lon="2.644491959363222">
        <ele>532.71000000000004</ele>
        <time>2025-04-25T10:56:01Z</time>
      </trkpt>
      <trkpt lat="44.665058981627226" lon="2.644255002960563">
        <ele>532.23000000000002</ele>
        <time>2025-04-25T10:56:07Z</time>
      </trkpt>
      <trkpt lat="44.665032997727394" lon="2.644203035160899">
        <ele>532.23000000000002</ele>
        <time>2025-04-25T10:56:08Z</time>
      </trkpt>
      <trkpt lat="44.665006007999182" lon="2.644148971885443">
        <ele>531.75</ele>
        <time>2025-04-25T10:56:09Z</time>
      </trkpt>
      <trkpt lat="44.664982035756111" lon="2.644100021570921">
        <ele>531.75</ele>
        <time>2025-04-25T10:56:10Z</time>
      </trkpt>
      <trkpt lat="44.664945993572474" lon="2.644048975780606">
        <ele>531.75</ele>
        <time>2025-04-25T10:56:11Z</time>
      </trkpt>
      <trkpt lat="44.664915986359119" lon="2.644006982445717">
        <ele>531.26999999999998</ele>
        <time>2025-04-25T10:56:12Z</time>
      </trkpt>
      <trkpt lat="44.664886984974146" lon="2.643965994939208">
        <ele>531.26999999999998</ele>
        <time>2025-04-25T10:56:13Z</time>
      </trkpt>
      <trkpt lat="44.664856977760792" lon="2.643924001604319">
        <ele>530.78999999999996</ele>
        <time>2025-04-25T10:56:14Z</time>
      </trkpt>
      <trkpt lat="44.664831999689341" lon="2.643887959420681">
        <ele>530.29999999999995</ele>
        <time>2025-04-25T10:56:15Z</time>
      </trkpt>
      <trkpt lat="44.664804004132748" lon="2.643849989399314">
        <ele>529.82000000000005</ele>
        <time>2025-04-25T10:56:16Z</time>
      </trkpt>
      <trkpt lat="44.664773996919394" lon="2.643805984407663">
        <ele>529.82000000000005</ele>
        <time>2025-04-25T10:56:17Z</time>
      </trkpt>
      <trkpt lat="44.664746001362801" lon="2.643767008557916">
        <ele>529.34000000000003</ele>
        <time>2025-04-25T10:56:18Z</time>
      </trkpt>
      <trkpt lat="44.66472202911973" lon="2.643732978031039">
        <ele>529.34000000000003</ele>
        <time>2025-04-25T10:56:19Z</time>
      </trkpt>
      <trkpt lat="44.664699984714389" lon="2.643701964989305">
        <ele>528.86000000000001</ele>
        <time>2025-04-25T10:56:20Z</time>
      </trkpt>
      <trkpt lat="44.664640976116061" lon="2.643618984147906">
        <ele>527.89999999999998</ele>
        <time>2025-04-25T10:56:23Z</time>
      </trkpt>
      <trkpt lat="44.664625972509384" lon="2.643598029389978">
        <ele>527.89999999999998</ele>
        <time>2025-04-25T10:56:24Z</time>
      </trkpt>
      <trkpt lat="44.664623038843274" lon="2.643598029389978">
        <ele>527.89999999999998</ele>
        <time>2025-04-25T10:56:26Z</time>
      </trkpt>
      <trkpt lat="44.664637958630919" lon="2.64362895861268">
        <ele>527.41999999999996</ele>
        <time>2025-04-25T10:56:27Z</time>
      </trkpt>
      <trkpt lat="44.664656985551119" lon="2.643671035766602">
        <ele>527.41999999999996</ele>
        <time>2025-04-25T10:56:28Z</time>
      </trkpt>
      <trkpt lat="44.664680035784841" lon="2.643720991909504">
        <ele>526.94000000000005</ele>
        <time>2025-04-25T10:56:29Z</time>
      </trkpt>
      <trkpt lat="44.664708031341434" lon="2.643781006336212">
        <ele>526.46000000000004</ele>
        <time>2025-04-25T10:56:30Z</time>
      </trkpt>
      <trkpt lat="44.664738960564137" lon="2.643847977742553">
        <ele>525.98000000000002</ele>
        <time>2025-04-25T10:56:31Z</time>
      </trkpt>
      <trkpt lat="44.664831999689341" lon="2.644046964123845">
        <ele>524.53999999999996</ele>
        <time>2025-04-25T10:56:34Z</time>
      </trkpt>
      <trkpt lat="44.664866030216217" lon="2.64412097632885">
        <ele>524.05999999999995</ele>
        <time>2025-04-25T10:56:35Z</time>
      </trkpt>
      <trkpt lat="44.664902994409204" lon="2.644200017675757">
        <ele>523.58000000000004</ele>
        <time>2025-04-25T10:56:36Z</time>
      </trkpt>
      <trkpt lat="44.665060993283987" lon="2.644538981840015">
        <ele>521.64999999999998</ele>
        <time>2025-04-25T10:56:40Z</time>
      </trkpt>
      <trkpt lat="44.665101980790496" lon="2.644625985994935">
        <ele>520.69000000000005</ele>
        <time>2025-04-25T10:56:41Z</time>
      </trkpt>
      <trkpt lat="44.665141040459275" lon="2.644711984321475">
        <ele>520.21000000000004</ele>
        <time>2025-04-25T10:56:42Z</time>
      </trkpt>
      <trkpt lat="44.665176998823881" lon="2.644789014011622">
        <ele>519.73000000000002</ele>
        <time>2025-04-25T10:56:43Z</time>
      </trkpt>
      <trkpt lat="44.665208011865616" lon="2.644878029823303">
        <ele>519.25</ele>
        <time>2025-04-25T10:56:44Z</time>
      </trkpt>
      <trkpt lat="44.665228966623545" lon="2.64495899900794">
        <ele>518.28999999999996</ele>
        <time>2025-04-25T10:56:45Z</time>
      </trkpt>
      <trkpt lat="44.665266014635563" lon="2.645109035074711">
        <ele>517.33000000000004</ele>
        <time>2025-04-25T10:56:47Z</time>
      </trkpt>
      <trkpt lat="44.665284035727382" lon="2.645180029794574">
        <ele>516.85000000000002</ele>
        <time>2025-04-25T10:56:48Z</time>
      </trkpt>
      <trkpt lat="44.665529960766435" lon="2.645691996440291">
        <ele>512.03999999999996</ele>
        <time>2025-04-25T10:56:56Z</time>
      </trkpt>
      <trkpt lat="44.66556197963655" lon="2.64575301669538">
        <ele>511.56</ele>
        <time>2025-04-25T10:56:57Z</time>
      </trkpt>
      <trkpt lat="44.665597015991807" lon="2.645819988101721">
        <ele>511.07999999999998</ele>
        <time>2025-04-25T10:56:58Z</time>
      </trkpt>
      <trkpt lat="44.665632974356413" lon="2.645887965336442">
        <ele>511.07999999999998</ele>
        <time>2025-04-25T10:56:59Z</time>
      </trkpt>
      <trkpt lat="44.66566801071167" lon="2.645955020561814">
        <ele>510.60000000000002</ele>
        <time>2025-04-25T10:57:00Z</time>
      </trkpt>
      <trkpt lat="44.665702041238546" lon="2.646020986139774">
        <ele>510.12</ele>
        <time>2025-04-25T10:57:01Z</time>
      </trkpt>
      <trkpt lat="44.665735987946391" lon="2.646086029708386">
        <ele>509.63999999999999</ele>
        <time>2025-04-25T10:57:02Z</time>
      </trkpt>
      <trkpt lat="44.665771024301648" lon="2.646151995286346">
        <ele>509.16000000000003</ele>
        <time>2025-04-25T10:57:03Z</time>
      </trkpt>
      <trkpt lat="44.665900021791458" lon="2.646317034959793">
        <ele>507.23000000000002</ele>
        <time>2025-04-25T10:57:06Z</time>
      </trkpt>
      <trkpt lat="44.665932040661573" lon="2.646351987496018">
        <ele>506.75</ele>
        <time>2025-04-25T10:57:07Z</time>
      </trkpt>
      <trkpt lat="44.665958024561405" lon="2.646380988880992">
        <ele>505.79000000000002</ele>
        <time>2025-04-25T10:57:08Z</time>
      </trkpt>
      <trkpt lat="44.665979985147715" lon="2.646405966952443">
        <ele>505.31</ele>
        <time>2025-04-25T10:57:09Z</time>
      </trkpt>
      <trkpt lat="44.665989959612489" lon="2.64641803689301">
        <ele>504.82999999999998</ele>
        <time>2025-04-25T10:57:10Z</time>
      </trkpt>
      <trkpt lat="44.666018960997462" lon="2.646449971944094">
        <ele>504.35000000000002</ele>
        <time>2025-04-25T10:57:11Z</time>
      </trkpt>
      <trkpt lat="44.666033964604139" lon="2.646466987207532">
        <ele>503.87</ele>
        <time>2025-04-25T10:57:12Z</time>
      </trkpt>
      <trkpt lat="44.666045028716326" lon="2.646478973329067">
        <ele>503.38999999999999</ele>
        <time>2025-04-25T10:57:13Z</time>
      </trkpt>
      <trkpt lat="44.666045028716326" lon="2.646478973329067">
        <ele>500.98000000000002</ele>
        <time>2025-04-25T10:57:26Z</time>
      </trkpt>
      <trkpt lat="44.666045028716326" lon="2.646478973329067">
        <ele>500.98000000000002</ele>
        <time>2025-04-25T10:57:45Z</time>
      </trkpt>
      <trkpt lat="44.665989959612489" lon="2.64641803689301">
        <ele>499.54000000000002</ele>
        <time>2025-04-25T10:57:48Z</time>
      </trkpt>
      <trkpt lat="44.665761971846223" lon="2.646405966952443">
        <ele>497.62</ele>
        <time>2025-04-25T10:57:54Z</time>
      </trkpt>
      <trkpt lat="44.66573397628963" lon="2.64641703106463">
        <ele>497.13999999999999</ele>
        <time>2025-04-25T10:57:55Z</time>
      </trkpt>
      <trkpt lat="44.665717966854572" lon="2.646442009136081">
        <ele>497.13999999999999</ele>
        <time>2025-04-25T10:57:56Z</time>
      </trkpt>
      <trkpt lat="44.665701035410166" lon="2.646467993035913">
        <ele>496.66000000000003</ele>
        <time>2025-04-25T10:57:57Z</time>
      </trkpt>
      <trkpt lat="44.665686031803489" lon="2.646490959450603">
        <ele>496.66000000000003</ele>
        <time>2025-04-25T10:57:58Z</time>
      </trkpt>
      <trkpt lat="44.665672034025192" lon="2.646514009684324">
        <ele>496.18000000000001</ele>
        <time>2025-04-25T10:57:59Z</time>
      </trkpt>
      <trkpt lat="44.665655018761754" lon="2.646540999412537">
        <ele>496.18000000000001</ele>
        <time>2025-04-25T10:58:00Z</time>
      </trkpt>
      <trkpt lat="44.665633980184793" lon="2.646573018282652">
        <ele>496.18000000000001</ele>
        <time>2025-04-25T10:58:01Z</time>
      </trkpt>
      <trkpt lat="44.665607996284962" lon="2.64661299996078">
        <ele>495.69999999999999</ele>
        <time>2025-04-25T10:58:02Z</time>
      </trkpt>
      <trkpt lat="44.665583018213511" lon="2.646653987467289">
        <ele>495.69999999999999</ele>
        <time>2025-04-25T10:58:03Z</time>
      </trkpt>
      <trkpt lat="44.665572959929705" lon="2.646716013550758">
        <ele>495.69999999999999</ele>
        <time>2025-04-25T10:58:04Z</time>
      </trkpt>
      <trkpt lat="44.665503976866603" lon="2.647004015743733">
        <ele>495.69999999999999</ele>
        <time>2025-04-25T10:58:08Z</time>
      </trkpt>
      <trkpt lat="44.665474975481629" lon="2.647061012685299">
        <ele>495.69999999999999</ele>
        <time>2025-04-25T10:58:09Z</time>
      </trkpt>
      <trkpt lat="44.66541001573205" lon="2.647123960778117">
        <ele>495.69999999999999</ele>
        <time>2025-04-25T10:58:10Z</time>
      </trkpt>
      <trkpt lat="44.665356036275625" lon="2.647177018225193">
        <ele>495.69999999999999</ele>
        <time>2025-04-25T10:58:11Z</time>
      </trkpt>
      <trkpt lat="44.665289986878633" lon="2.647239966318011">
        <ele>495.69999999999999</ele>
        <time>2025-04-25T10:58:12Z</time>
      </trkpt>
      <trkpt lat="44.664868041872978" lon="2.647647997364402">
        <ele>499.54000000000002</ele>
        <time>2025-04-25T10:58:17Z</time>
      </trkpt>
      <trkpt lat="44.664536034688354" lon="2.647737013176084">
        <ele>502.91000000000003</ele>
        <time>2025-04-25T10:58:20Z</time>
      </trkpt>
      <trkpt lat="44.663910996168852" lon="2.647918984293938">
        <ele>509.16000000000003</ele>
        <time>2025-04-25T10:58:25Z</time>
      </trkpt>
      <trkpt lat="44.663793984800577" lon="2.647957960143685">
        <ele>510.60000000000002</ele>
        <time>2025-04-25T10:58:26Z</time>
      </trkpt>
      <trkpt lat="44.663682002574205" lon="2.647995008155704">
        <ele>512.51999999999998</ele>
        <time>2025-04-25T10:58:27Z</time>
      </trkpt>
      <trkpt lat="44.663578988984227" lon="2.648029960691929">
        <ele>514.44000000000005</ele>
        <time>2025-04-25T10:58:28Z</time>
      </trkpt>
      <trkpt lat="44.663475975394249" lon="2.648063991218805">
        <ele>516.85000000000002</ele>
        <time>2025-04-25T10:58:29Z</time>
      </trkpt>
      <trkpt lat="44.663372961804271" lon="2.648098021745682">
        <ele>518.76999999999998</ele>
        <time>2025-04-25T10:58:30Z</time>
      </trkpt>
      <trkpt lat="44.663270032033324" lon="2.648131968453527">
        <ele>520.69000000000005</ele>
        <time>2025-04-25T10:58:31Z</time>
      </trkpt>
      <trkpt lat="44.663168024271727" lon="2.648167004808784">
        <ele>522.61000000000001</ele>
        <time>2025-04-25T10:58:32Z</time>
      </trkpt>
      <trkpt lat="44.66306702233851" lon="2.648200029507279">
        <ele>524.05999999999995</ele>
        <time>2025-04-25T10:58:33Z</time>
      </trkpt>
      <trkpt lat="44.66296199709177" lon="2.648234982043505">
        <ele>525.5</ele>
        <time>2025-04-25T10:58:34Z</time>
      </trkpt>
      <trkpt lat="44.662306029349566" lon="2.648275969550014">
        <ele>531.75</ele>
        <time>2025-04-25T10:58:39Z</time>
      </trkpt>
      <trkpt lat="44.661441016942263" lon="2.648348975926638">
        <ele>540.88</ele>
        <time>2025-04-25T10:58:46Z</time>
      </trkpt>
      <trkpt lat="44.661230966448784" lon="2.648441009223461">
        <ele>543.27999999999997</ele>
        <time>2025-04-25T10:58:48Z</time>
      </trkpt>
      <trkpt lat="44.661120995879173" lon="2.648489037528634">
        <ele>544.72000000000003</ele>
        <time>2025-04-25T10:58:49Z</time>
      </trkpt>
      <trkpt lat="44.660861995071173" lon="2.648542011156678">
        <ele>548.09000000000003</ele>
        <time>2025-04-25T10:58:52Z</time>
      </trkpt>
      <trkpt lat="44.660797035321593" lon="2.648523990064859">
        <ele>549.04999999999995</ele>
        <time>2025-04-25T10:58:53Z</time>
      </trkpt>
      <trkpt lat="44.660711959004402" lon="2.648501023650169">
        <ele>550.49000000000001</ele>
        <time>2025-04-25T10:58:54Z</time>
      </trkpt>
      <trkpt lat="44.660536022856832" lon="2.648451989516616">
        <ele>552.40999999999997</ele>
        <time>2025-04-25T10:58:56Z</time>
      </trkpt>
      <trkpt lat="44.660155987367034" lon="2.648398010060191">
        <ele>557.22000000000003</ele>
        <time>2025-04-25T10:59:00Z</time>
      </trkpt>
      <trkpt lat="44.660110976547003" lon="2.648413013666868">
        <ele>557.70000000000005</ele>
        <time>2025-04-25T10:59:01Z</time>
      </trkpt>
      <trkpt lat="44.660096978768706" lon="2.648484008386731">
        <ele>558.17999999999995</ele>
        <time>2025-04-25T10:59:02Z</time>
      </trkpt>
      <trkpt lat="44.660080969333649" lon="2.648561038076878">
        <ele>559.13999999999999</ele>
        <time>2025-04-25T10:59:03Z</time>
      </trkpt>
      <trkpt lat="44.660067977383733" lon="2.648628009483218">
        <ele>559.62</ele>
        <time>2025-04-25T10:59:04Z</time>
      </trkpt>
      <trkpt lat="44.660110976547003" lon="2.648671008646488">
        <ele>560.11000000000001</ele>
        <time>2025-04-25T10:59:05Z</time>
      </trkpt>
      <trkpt lat="44.660177025943995" lon="2.648735968396068">
        <ele>561.07000000000005</ele>
        <time>2025-04-25T10:59:06Z</time>
      </trkpt>
      <trkpt lat="44.660248020663857" lon="2.648807968944311">
        <ele>562.02999999999997</ele>
        <time>2025-04-25T10:59:07Z</time>
      </trkpt>
      <trkpt lat="44.660710031166673" lon="2.649120027199388">
        <ele>565.87</ele>
        <time>2025-04-25T10:59:12Z</time>
      </trkpt>
      <trkpt lat="44.660809021443129" lon="2.649150034412742">
        <ele>566.35000000000002</ele>
        <time>2025-04-25T10:59:13Z</time>
      </trkpt>
      <trkpt lat="44.660909017547965" lon="2.649179035797715">
        <ele>567.32000000000005</ele>
        <time>2025-04-25T10:59:14Z</time>
      </trkpt>
      <trkpt lat="44.661692976951599" lon="2.649445999413729">
        <ele>574.03999999999996</ele>
        <time>2025-04-25T10:59:22Z</time>
      </trkpt>
      <trkpt lat="44.661778975278139" lon="2.649504002183676">
        <ele>574.52999999999997</ele>
        <time>2025-04-25T10:59:23Z</time>
      </trkpt>
      <trkpt lat="44.661825997754931" lon="2.649568961933255">
        <ele>575.00999999999999</ele>
        <time>2025-04-25T10:59:24Z</time>
      </trkpt>
      <trkpt lat="44.661870002746582" lon="2.649636017158628">
        <ele>575.49000000000001</ele>
        <time>2025-04-25T10:59:25Z</time>
      </trkpt>
      <trkpt lat="44.661871008574963" lon="2.649636017158628">
        <ele>576.45000000000005</ele>
        <time>2025-04-25T10:59:26Z</time>
      </trkpt>
      <trkpt lat="44.661852987483144" lon="2.64972603879869">
        <ele>577.40999999999997</ele>
        <time>2025-04-25T10:59:27Z</time>
      </trkpt>
      <trkpt lat="44.661848964169621" lon="2.649743976071477">
        <ele>578.85000000000002</ele>
        <time>2025-04-25T10:59:28Z</time>
      </trkpt>
      <trkpt lat="44.661790961399674" lon="2.649841038510203">
        <ele>579.80999999999995</ele>
        <time>2025-04-25T10:59:29Z</time>
      </trkpt>
      <trkpt lat="44.661755003035069" lon="2.649899963289499">
        <ele>580.76999999999998</ele>
        <time>2025-04-25T10:59:30Z</time>
      </trkpt>
      <trkpt lat="44.661704963073134" lon="2.64998403377831">
        <ele>582.70000000000005</ele>
        <time>2025-04-25T10:59:32Z</time>
      </trkpt>
      <trkpt lat="44.661678979173303" lon="2.65002703294158">
        <ele>583.17999999999995</ele>
        <time>2025-04-25T10:59:33Z</time>
      </trkpt>
      <trkpt lat="44.661591975018382" lon="2.650172961875796">
        <ele>583.65999999999997</ele>
        <time>2025-04-25T10:59:34Z</time>
      </trkpt>
      <trkpt lat="44.661591975018382" lon="2.649894012138248">
        <ele>583.65999999999997</ele>
        <time>2025-04-25T10:59:35Z</time>
      </trkpt>
      <trkpt lat="44.661591975018382" lon="2.649894012138248">
        <ele>584.62</ele>
        <time>2025-04-25T10:59:36Z</time>
      </trkpt>
      <trkpt lat="44.661578983068466" lon="2.649815976619721">
        <ele>585.10000000000002</ele>
        <time>2025-04-25T10:59:37Z</time>
      </trkpt>
      <trkpt lat="44.661570014432073" lon="2.649765014648438">
        <ele>584.62</ele>
        <time>2025-04-25T10:59:38Z</time>
      </trkpt>
      <trkpt lat="44.661570014432073" lon="2.649765014648438">
        <ele>584.62</ele>
        <time>2025-04-25T10:59:39Z</time>
      </trkpt>
      <trkpt lat="44.661527015268803" lon="2.649772977456451">
        <ele>584.13999999999999</ele>
        <time>2025-04-25T10:59:40Z</time>
      </trkpt>
      <trkpt lat="44.661459038034081" lon="2.649785969406366">
        <ele>584.13999999999999</ele>
        <time>2025-04-25T10:59:41Z</time>
      </trkpt>
      <trkpt lat="44.661375973373652" lon="2.649800973013043">
        <ele>583.65999999999997</ele>
        <time>2025-04-25T10:59:42Z</time>
      </trkpt>
      <trkpt lat="44.661291986703873" lon="2.649816982448101">
        <ele>583.17999999999995</ele>
        <time>2025-04-25T10:59:43Z</time>
      </trkpt>
      <trkpt lat="44.661200037226081" lon="2.649833997711539">
        <ele>583.17999999999995</ele>
        <time>2025-04-25T10:59:44Z</time>
      </trkpt>
      <trkpt lat="44.661106998100877" lon="2.649851012974978">
        <ele>582.70000000000005</ele>
        <time>2025-04-25T10:59:45Z</time>
      </trkpt>
      <trkpt lat="44.661014964804053" lon="2.649868028238416">
        <ele>582.22000000000003</ele>
        <time>2025-04-25T10:59:46Z</time>
      </trkpt>
      <trkpt lat="44.660922009497881" lon="2.649885965511203">
        <ele>582.70000000000005</ele>
        <time>2025-04-25T10:59:47Z</time>
      </trkpt>
      <trkpt lat="44.660825030878186" lon="2.649902980774641">
        <ele>582.70000000000005</ele>
        <time>2025-04-25T10:59:48Z</time>
      </trkpt>
      <trkpt lat="44.660732997581363" lon="2.64992100186646">
        <ele>583.17999999999995</ele>
        <time>2025-04-25T10:59:49Z</time>
      </trkpt>
      <trkpt lat="44.660646999254823" lon="2.649937011301518">
        <ele>583.17999999999995</ele>
        <time>2025-04-25T10:59:50Z</time>
      </trkpt>
      <trkpt lat="44.660531999543309" lon="2.649916978552938">
        <ele>583.65999999999997</ele>
        <time>2025-04-25T10:59:51Z</time>
      </trkpt>
      <trkpt lat="44.66042798012495" lon="2.64989904128015">
        <ele>584.13999999999999</ele>
        <time>2025-04-25T10:59:52Z</time>
      </trkpt>
      <trkpt lat="44.660227987915277" lon="2.649865010753274">
        <ele>585.10000000000002</ele>
        <time>2025-04-25T10:59:54Z</time>
      </trkpt>
      <trkpt lat="44.660139977931976" lon="2.649849001318216">
        <ele>585.58000000000004</ele>
        <time>2025-04-25T10:59:55Z</time>
      </trkpt>
      <trkpt lat="44.660024978220463" lon="2.649828968569636">
        <ele>586.05999999999995</ele>
        <time>2025-04-25T10:59:56Z</time>
      </trkpt>
      <trkpt lat="44.659961024299264" lon="2.649865010753274">
        <ele>586.53999999999996</ele>
        <time>2025-04-25T10:59:57Z</time>
      </trkpt>
      <trkpt lat="44.659873014315963" lon="2.649914966896176">
        <ele>587.5</ele>
        <time>2025-04-25T10:59:58Z</time>
      </trkpt>
      <trkpt lat="44.659785004332662" lon="2.649966012686491">
        <ele>588.46000000000004</ele>
        <time>2025-04-25T10:59:59Z</time>
      </trkpt>
      <trkpt lat="44.659693976864219" lon="2.650016974657774">
        <ele>589.90999999999997</ele>
        <time>2025-04-25T11:00:00Z</time>
      </trkpt>
      <trkpt lat="44.659600015729666" lon="2.65007103793323">
        <ele>590.87</ele>
        <time>2025-04-25T11:00:01Z</time>
      </trkpt>
      <trkpt lat="44.659503037109971" lon="2.650125017389655">
        <ele>592.30999999999995</ele>
        <time>2025-04-25T11:00:02Z</time>
      </trkpt>
      <trkpt lat="44.659399017691612" lon="2.650184025987983">
        <ele>593.75</ele>
        <time>2025-04-25T11:00:03Z</time>
      </trkpt>
      <trkpt lat="44.659290974959731" lon="2.65024596825242">
        <ele>595.19000000000005</ele>
        <time>2025-04-25T11:00:04Z</time>
      </trkpt>
      <trkpt lat="44.659169018268585" lon="2.65028603374958">
        <ele>596.63999999999999</ele>
        <time>2025-04-25T11:00:05Z</time>
      </trkpt>
      <trkpt lat="44.65905100107193" lon="2.650299025699496">
        <ele>598.55999999999995</ele>
        <time>2025-04-25T11:00:06Z</time>
      </trkpt>
      <trkpt lat="44.658928960561752" lon="2.650312017649412">
        <ele>600</ele>
        <time>2025-04-25T11:00:07Z</time>
      </trkpt>
      <trkpt lat="44.658800968900323" lon="2.650325009599328">
        <ele>601.91999999999996</ele>
        <time>2025-04-25T11:00:08Z</time>
      </trkpt>
      <trkpt lat="44.658673983067274" lon="2.650339007377625">
        <ele>603.85000000000002</ele>
        <time>2025-04-25T11:00:09Z</time>
      </trkpt>
      <trkpt lat="44.658444989472628" lon="2.650362979620695">
        <ele>607.21000000000004</ele>
        <time>2025-04-25T11:00:11Z</time>
      </trkpt>
      <trkpt lat="44.658340970054269" lon="2.650423999875784">
        <ele>609.13</ele>
        <time>2025-04-25T11:00:12Z</time>
      </trkpt>
      <trkpt lat="44.658247008919716" lon="2.650497006252408">
        <ele>610.57000000000005</ele>
        <time>2025-04-25T11:00:13Z</time>
      </trkpt>
      <trkpt lat="44.657958000898361" lon="2.650690041482449">
        <ele>616.34000000000003</ele>
        <time>2025-04-25T11:00:16Z</time>
      </trkpt>
      <trkpt lat="44.65784702450037" lon="2.650727005675435">
        <ele>617.77999999999997</ele>
        <time>2025-04-25T11:00:17Z</time>
      </trkpt>
      <trkpt lat="44.657723978161812" lon="2.650767993181944">
        <ele>619.23000000000002</ele>
        <time>2025-04-25T11:00:18Z</time>
      </trkpt>
      <trkpt lat="44.657595986500382" lon="2.650810992345214">
        <ele>621.14999999999998</ele>
        <time>2025-04-25T11:00:19Z</time>
      </trkpt>
      <trkpt lat="44.657464977353811" lon="2.650853991508484">
        <ele>622.59000000000003</ele>
        <time>2025-04-25T11:00:20Z</time>
      </trkpt>
      <trkpt lat="44.657340003177524" lon="2.650914005935192">
        <ele>624.02999999999997</ele>
        <time>2025-04-25T11:00:21Z</time>
      </trkpt>
      <trkpt lat="44.656894002109766" lon="2.651089020073414">
        <ele>629.32000000000005</ele>
        <time>2025-04-25T11:00:25Z</time>
      </trkpt>
      <trkpt lat="44.656797023490071" lon="2.65108197927475">
        <ele>630.75999999999999</ele>
        <time>2025-04-25T11:00:26Z</time>
      </trkpt>
      <trkpt lat="44.65668797492981" lon="2.651063958182931">
        <ele>632.20000000000005</ele>
        <time>2025-04-25T11:00:27Z</time>
      </trkpt>
      <trkpt lat="44.656595019623637" lon="2.650983994826675">
        <ele>633.64999999999998</ele>
        <time>2025-04-25T11:00:28Z</time>
      </trkpt>
      <trkpt lat="44.656510027125478" lon="2.650911994278431">
        <ele>635.09000000000003</ele>
        <time>2025-04-25T11:00:29Z</time>
      </trkpt>
      <trkpt lat="44.65642997995019" lon="2.650843011215329">
        <ele>636.04999999999995</ele>
        <time>2025-04-25T11:00:30Z</time>
      </trkpt>
      <trkpt lat="44.656312968581915" lon="2.650816021487117">
        <ele>637.49000000000001</ele>
        <time>2025-04-25T11:00:31Z</time>
      </trkpt>
      <trkpt lat="44.656269969418645" lon="2.65084401704371">
        <ele>638.45000000000005</ele>
        <time>2025-04-25T11:00:32Z</time>
      </trkpt>
      <trkpt lat="44.656179025769234" lon="2.650904031470418">
        <ele>639.88999999999999</ele>
        <time>2025-04-25T11:00:33Z</time>
      </trkpt>
      <trkpt lat="44.656080035492778" lon="2.650967985391617">
        <ele>641.34000000000003</ele>
        <time>2025-04-25T11:00:34Z</time>
      </trkpt>
      <trkpt lat="44.655522974207997" lon="2.651329999789596">
        <ele>651.90999999999997</ele>
        <time>2025-04-25T11:00:40Z</time>
      </trkpt>
      <trkpt lat="44.655453991144896" lon="2.651375010609627">
        <ele>653.35000000000002</ele>
        <time>2025-04-25T11:00:41Z</time>
      </trkpt>
      <trkpt lat="44.655368998646736" lon="2.651503002271056">
        <ele>654.79999999999995</ele>
        <time>2025-04-25T11:00:42Z</time>
      </trkpt>
      <trkpt lat="44.655347960069776" lon="2.651583971455693">
        <ele>656.24000000000001</ele>
        <time>2025-04-25T11:00:43Z</time>
      </trkpt>
      <trkpt lat="44.655315019190311" lon="2.651713974773884">
        <ele>657.67999999999995</ele>
        <time>2025-04-25T11:00:44Z</time>
      </trkpt>
      <trkpt lat="44.655281994491816" lon="2.651839032769203">
        <ele>659.60000000000002</ele>
        <time>2025-04-25T11:00:45Z</time>
      </trkpt>
      <trkpt lat="44.655218040570617" lon="2.652089986950159">
        <ele>662.97000000000003</ele>
        <time>2025-04-25T11:00:47Z</time>
      </trkpt>
      <trkpt lat="44.655188033357263" lon="2.652206998318434">
        <ele>664.88999999999999</ele>
        <time>2025-04-25T11:00:48Z</time>
      </trkpt>
      <trkpt lat="44.655108992010355" lon="2.652319986373186">
        <ele>665.85000000000002</ele>
        <time>2025-04-25T11:00:49Z</time>
      </trkpt>
      <trkpt lat="44.655028022825718" lon="2.652401039376855">
        <ele>667.28999999999996</ele>
        <time>2025-04-25T11:00:50Z</time>
      </trkpt>
      <trkpt lat="44.654944958165288" lon="2.652484020218253">
        <ele>668.73000000000002</ele>
        <time>2025-04-25T11:00:51Z</time>
      </trkpt>
      <trkpt lat="44.65486197732389" lon="2.652567001059651">
        <ele>669.70000000000005</ele>
        <time>2025-04-25T11:00:52Z</time>
      </trkpt>
      <trkpt lat="44.654785031452775" lon="2.652644030749798">
        <ele>670.17999999999995</ele>
        <time>2025-04-25T11:00:53Z</time>
      </trkpt>
      <trkpt lat="44.654715964570642" lon="2.65271401964128">
        <ele>671.13999999999999</ele>
        <time>2025-04-25T11:00:54Z</time>
      </trkpt>
      <trkpt lat="44.654651004821062" lon="2.65277897939086">
        <ele>672.10000000000002</ele>
        <time>2025-04-25T11:00:55Z</time>
      </trkpt>
      <trkpt lat="44.654614962637424" lon="2.652861960232258">
        <ele>673.05999999999995</ele>
        <time>2025-04-25T11:00:56Z</time>
      </trkpt>
      <trkpt lat="44.654482025653124" lon="2.653246019035578">
        <ele>675.46000000000004</ele>
        <time>2025-04-25T11:00:59Z</time>
      </trkpt>
      <trkpt lat="44.654417987912893" lon="2.653393037617207">
        <ele>675.94000000000005</ele>
        <time>2025-04-25T11:01:00Z</time>
      </trkpt>
      <trkpt lat="44.654340958222747" lon="2.653517005965114">
        <ele>676.41999999999996</ele>
        <time>2025-04-25T11:01:01Z</time>
      </trkpt>
      <trkpt lat="44.654211960732937" lon="2.653611972928047">
        <ele>676.90999999999997</ele>
        <time>2025-04-25T11:01:02Z</time>
      </trkpt>
      <trkpt lat="44.654094027355313" lon="2.653696965426207">
        <ele>677.38999999999999</ele>
        <time>2025-04-25T11:01:03Z</time>
      </trkpt>
      <trkpt lat="44.653313001617789" lon="2.654377995058894">
        <ele>683.14999999999998</ele>
        <time>2025-04-25T11:01:10Z</time>
      </trkpt>
      <trkpt lat="44.653189033269882" lon="2.6544329803437">
        <ele>684.12</ele>
        <time>2025-04-25T11:01:11Z</time>
      </trkpt>
      <trkpt lat="44.652283033356071" lon="2.654963973909617">
        <ele>688.44000000000005</ele>
        <time>2025-04-25T11:01:19Z</time>
      </trkpt>
      <trkpt lat="44.652193011716008" lon="2.655021976679564">
        <ele>687.96000000000004</ele>
        <time>2025-04-25T11:01:20Z</time>
      </trkpt>
      <trkpt lat="44.652165016159415" lon="2.655092971399427">
        <ele>687.96000000000004</ele>
        <time>2025-04-25T11:01:21Z</time>
      </trkpt>
      <trkpt lat="44.652150012552738" lon="2.655209982767701">
        <ele>687.48000000000002</ele>
        <time>2025-04-25T11:01:22Z</time>
      </trkpt>
      <trkpt lat="44.652150012552738" lon="2.655355995520949">
        <ele>687</ele>
        <time>2025-04-25T11:01:23Z</time>
      </trkpt>
      <trkpt lat="44.652150012552738" lon="2.655522963032126">
        <ele>687</ele>
        <time>2025-04-25T11:01:24Z</time>
      </trkpt>
      <trkpt lat="44.652150012552738" lon="2.655696971341968">
        <ele>686.51999999999998</ele>
        <time>2025-04-25T11:01:25Z</time>
      </trkpt>
      <trkpt lat="44.652150012552738" lon="2.655877014622092">
        <ele>686.03999999999996</ele>
        <time>2025-04-25T11:01:26Z</time>
      </trkpt>
      <trkpt lat="44.652068959549069" lon="2.656793994829059">
        <ele>684.60000000000002</ele>
        <time>2025-04-25T11:01:32Z</time>
      </trkpt>
      <trkpt lat="44.652015985921025" lon="2.656919974833727">
        <ele>685.08000000000004</ele>
        <time>2025-04-25T11:01:33Z</time>
      </trkpt>
      <trkpt lat="44.65194096788764" lon="2.657036986202002">
        <ele>685.08000000000004</ele>
        <time>2025-04-25T11:01:34Z</time>
      </trkpt>
      <trkpt lat="44.65140201151371" lon="2.657761014997959">
        <ele>685.08000000000004</ele>
        <time>2025-04-25T11:01:40Z</time>
      </trkpt>
      <trkpt lat="44.651309978216887" lon="2.657882971689105">
        <ele>685.08000000000004</ele>
        <time>2025-04-25T11:01:41Z</time>
      </trkpt>
      <trkpt lat="44.651161031797528" lon="2.658157981932163">
        <ele>685.55999999999995</ele>
        <time>2025-04-25T11:01:43Z</time>
      </trkpt>
      <trkpt lat="44.651089031249285" lon="2.658291002735496">
        <ele>685.55999999999995</ele>
        <time>2025-04-25T11:01:44Z</time>
      </trkpt>
      <trkpt lat="44.651022981852293" lon="2.658441960811615">
        <ele>685.55999999999995</ele>
        <time>2025-04-25T11:01:45Z</time>
      </trkpt>
      <trkpt lat="44.650987023487687" lon="2.658598031848669">
        <ele>686.03999999999996</ele>
        <time>2025-04-25T11:01:46Z</time>
      </trkpt>
      <trkpt lat="44.650975037366152" lon="2.658772962167859">
        <ele>686.51999999999998</ele>
        <time>2025-04-25T11:01:47Z</time>
      </trkpt>
      <trkpt lat="44.650984006002545" lon="2.658932972699404">
        <ele>687.48000000000002</ele>
        <time>2025-04-25T11:01:48Z</time>
      </trkpt>
      <trkpt lat="44.651000015437603" lon="2.659111004322767">
        <ele>688.44000000000005</ele>
        <time>2025-04-25T11:01:49Z</time>
      </trkpt>
      <trkpt lat="44.651044020429254" lon="2.659275960177183">
        <ele>689.39999999999998</ele>
        <time>2025-04-25T11:01:50Z</time>
      </trkpt>
      <trkpt lat="44.651172012090683" lon="2.65976102091372">
        <ele>692.76999999999998</ele>
        <time>2025-04-25T11:01:53Z</time>
      </trkpt>
      <trkpt lat="44.651185004040599" lon="2.659877026453614">
        <ele>694.21000000000004</ele>
        <time>2025-04-25T11:01:54Z</time>
      </trkpt>
      <trkpt lat="44.651185004040599" lon="2.659999988973141">
        <ele>695.16999999999996</ele>
        <time>2025-04-25T11:01:55Z</time>
      </trkpt>
      <trkpt lat="44.651133958250284" lon="2.660064026713371">
        <ele>697.09000000000003</ele>
        <time>2025-04-25T11:01:56Z</time>
      </trkpt>
      <trkpt lat="44.651048965752125" lon="2.66012404114008">
        <ele>698.52999999999997</ele>
        <time>2025-04-25T11:01:57Z</time>
      </trkpt>
      <trkpt lat="44.650963973253965" lon="2.660152958706021">
        <ele>699.5</ele>
        <time>2025-04-25T11:01:58Z</time>
      </trkpt>
      <trkpt lat="44.650866994634271" lon="2.660184977576137">
        <ele>700.94000000000005</ele>
        <time>2025-04-25T11:01:59Z</time>
      </trkpt>
      <trkpt lat="44.650774039328098" lon="2.660216996446252">
        <ele>701.89999999999998</ele>
        <time>2025-04-25T11:02:00Z</time>
      </trkpt>
      <trkpt lat="44.650670019909739" lon="2.660300983116031">
        <ele>702.86000000000001</ele>
        <time>2025-04-25T11:02:01Z</time>
      </trkpt>
      <trkpt lat="44.65063096024096" lon="2.660389998927712">
        <ele>703.82000000000005</ele>
        <time>2025-04-25T11:02:02Z</time>
      </trkpt>
      <trkpt lat="44.650579998269677" lon="2.660510027781129">
        <ele>705.25999999999999</ele>
        <time>2025-04-25T11:02:03Z</time>
      </trkpt>
      <trkpt lat="44.650535993278027" lon="2.660633996129036">
        <ele>706.71000000000004</ele>
        <time>2025-04-25T11:02:04Z</time>
      </trkpt>
      <trkpt lat="44.65049802325666" lon="2.66102802939713">
        <ele>711.50999999999999</ele>
        <time>2025-04-25T11:02:07Z</time>
      </trkpt>
      <trkpt lat="44.65049802325666" lon="2.661135988309979">
        <ele>712.47000000000003</ele>
        <time>2025-04-25T11:02:08Z</time>
      </trkpt>
      <trkpt lat="44.65049802325666" lon="2.66130899079144">
        <ele>713.91999999999996</ele>
        <time>2025-04-25T11:02:09Z</time>
      </trkpt>
      <trkpt lat="44.650559965521097" lon="2.661349978297949">
        <ele>715.36000000000001</ele>
        <time>2025-04-25T11:02:10Z</time>
      </trkpt>
      <trkpt lat="44.650639006868005" lon="2.661403035745025">
        <ele>716.79999999999995</ele>
        <time>2025-04-25T11:02:11Z</time>
      </trkpt>
      <trkpt lat="44.650723999366164" lon="2.661460032686591">
        <ele>717.75999999999999</ele>
        <time>2025-04-25T11:02:12Z</time>
      </trkpt>
      <trkpt lat="44.650808991864324" lon="2.661516023799777">
        <ele>718.72000000000003</ele>
        <time>2025-04-25T11:02:13Z</time>
      </trkpt>
      <trkpt lat="44.650894990190864" lon="2.661588024348021">
        <ele>719.67999999999995</ele>
        <time>2025-04-25T11:02:14Z</time>
      </trkpt>
      <trkpt lat="44.650941006839275" lon="2.661680979654193">
        <ele>720.64999999999998</ele>
        <time>2025-04-25T11:02:15Z</time>
      </trkpt>
      <trkpt lat="44.650990962982178" lon="2.661796985194087">
        <ele>721.61000000000001</ele>
        <time>2025-04-25T11:02:16Z</time>
      </trkpt>
      <trkpt lat="44.650990962982178" lon="2.661911984905601">
        <ele>722.09000000000003</ele>
        <time>2025-04-25T11:02:17Z</time>
      </trkpt>
      <trkpt lat="44.650990962982178" lon="2.662046011537314">
        <ele>723.04999999999995</ele>
        <time>2025-04-25T11:02:18Z</time>
      </trkpt>
      <trkpt lat="44.650990962982178" lon="2.662191018462181">
        <ele>724.00999999999999</ele>
        <time>2025-04-25T11:02:19Z</time>
      </trkpt>
      <trkpt lat="44.650990962982178" lon="2.662339964881539">
        <ele>724.97000000000003</ele>
        <time>2025-04-25T11:02:20Z</time>
      </trkpt>
      <trkpt lat="44.650990962982178" lon="2.662483965978026">
        <ele>725.45000000000005</ele>
        <time>2025-04-25T11:02:21Z</time>
      </trkpt>
      <trkpt lat="44.651004960760474" lon="2.662605000659823">
        <ele>725.92999999999995</ele>
        <time>2025-04-25T11:02:22Z</time>
      </trkpt>
      <trkpt lat="44.651025999337435" lon="2.662713965401053">
        <ele>726.40999999999997</ele>
        <time>2025-04-25T11:02:23Z</time>
      </trkpt>
      <trkpt lat="44.651046032086015" lon="2.662821002304554">
        <ele>726.88999999999999</ele>
        <time>2025-04-25T11:02:24Z</time>
      </trkpt>
      <trkpt lat="44.651064975187182" lon="2.662924015894532">
        <ele>726.88999999999999</ele>
        <time>2025-04-25T11:02:25Z</time>
      </trkpt>
      <trkpt lat="44.651084002107382" lon="2.663019988685846">
        <ele>727.37</ele>
        <time>2025-04-25T11:02:26Z</time>
      </trkpt>
      <trkpt lat="44.651099005714059" lon="2.663101041689515">
        <ele>727.37</ele>
        <time>2025-04-25T11:02:27Z</time>
      </trkpt>
      <trkpt lat="44.651110991835594" lon="2.663166001439095">
        <ele>727.37</ele>
        <time>2025-04-25T11:02:28Z</time>
      </trkpt>
      <trkpt lat="44.651122977957129" lon="2.663228027522564">
        <ele>727.86000000000001</ele>
        <time>2025-04-25T11:02:29Z</time>
      </trkpt>
      <trkpt lat="44.651134964078665" lon="2.663288963958621">
        <ele>727.86000000000001</ele>
        <time>2025-04-25T11:02:30Z</time>
      </trkpt>
      <trkpt lat="44.651032034307718" lon="2.663365993648768">
        <ele>727.86000000000001</ele>
        <time>2025-04-25T11:02:31Z</time>
      </trkpt>
      <trkpt lat="44.650961961597204" lon="2.663391977548599">
        <ele>727.86000000000001</ele>
        <time>2025-04-25T11:02:32Z</time>
      </trkpt>
      <trkpt lat="44.650876969099045" lon="2.663422990590334">
        <ele>727.37</ele>
        <time>2025-04-25T11:02:33Z</time>
      </trkpt>
      <trkpt lat="44.650783007964492" lon="2.66345601528883">
        <ele>727.37</ele>
        <time>2025-04-25T11:02:34Z</time>
      </trkpt>
      <trkpt lat="44.650686029344797" lon="2.663491973653436">
        <ele>726.88999999999999</ele>
        <time>2025-04-25T11:02:35Z</time>
      </trkpt>
      <trkpt lat="44.65024002827704" lon="2.663604961708188">
        <ele>726.40999999999997</ele>
        <time>2025-04-25T11:02:39Z</time>
      </trkpt>
      <trkpt lat="44.649154990911484" lon="2.663536984473467">
        <ele>729.77999999999997</ele>
        <time>2025-04-25T11:02:48Z</time>
      </trkpt>
      <trkpt lat="44.649052983149886" lon="2.663556011393666">
        <ele>730.25999999999999</ele>
        <time>2025-04-25T11:02:49Z</time>
      </trkpt>
      <trkpt lat="44.648958016186953" lon="2.663622982800007">
        <ele>730.74000000000001</ele>
        <time>2025-04-25T11:02:50Z</time>
      </trkpt>
      <trkpt lat="44.648082023486495" lon="2.664516996592283">
        <ele>734.10000000000002</ele>
        <time>2025-04-25T11:02:58Z</time>
      </trkpt>
      <trkpt lat="44.647524962201715" lon="2.664904994890094">
        <ele>732.17999999999995</ele>
        <time>2025-04-25T11:03:02Z</time>
      </trkpt>
      <trkpt lat="44.647378027439117" lon="2.664927961304784">
        <ele>731.70000000000005</ele>
        <time>2025-04-25T11:03:03Z</time>
      </trkpt>
      <trkpt lat="44.647231008857489" lon="2.664951011538506">
        <ele>731.22000000000003</ele>
        <time>2025-04-25T11:03:04Z</time>
      </trkpt>
      <trkpt lat="44.646544028073549" lon="2.664878005161881">
        <ele>727.86000000000001</ele>
        <time>2025-04-25T11:03:09Z</time>
      </trkpt>
      <trkpt lat="44.646408995613456" lon="2.664912035688758">
        <ele>727.37</ele>
        <time>2025-04-25T11:03:10Z</time>
      </trkpt>
      <trkpt lat="44.645229997113347" lon="2.665406987071037">
        <ele>724.97000000000003</ele>
        <time>2025-04-25T11:03:19Z</time>
      </trkpt>
      <trkpt lat="44.644239004701376" lon="2.666433015838265">
        <ele>726.40999999999997</ele>
        <time>2025-04-25T11:03:28Z</time>
      </trkpt>
      <trkpt lat="44.643127983435988" lon="2.667712010443211">
        <ele>727.37</ele>
        <time>2025-04-25T11:03:39Z</time>
      </trkpt>
      <trkpt lat="44.643061012029648" lon="2.667770013213158">
        <ele>727.37</ele>
        <time>2025-04-25T11:03:40Z</time>
      </trkpt>
      <trkpt lat="44.642996974289417" lon="2.667814018204808">
        <ele>726.88999999999999</ele>
        <time>2025-04-25T11:03:41Z</time>
      </trkpt>
      <trkpt lat="44.64293796569109" lon="2.667827010154724">
        <ele>726.88999999999999</ele>
        <time>2025-04-25T11:03:42Z</time>
      </trkpt>
      <trkpt lat="44.642885997891426" lon="2.667837990447879">
        <ele>726.88999999999999</ele>
        <time>2025-04-25T11:03:43Z</time>
      </trkpt>
      <trkpt lat="44.642782984301448" lon="2.667768001556397">
        <ele>726.40999999999997</ele>
        <time>2025-04-25T11:03:44Z</time>
      </trkpt>
      <trkpt lat="44.64274300262332" lon="2.667662976309657">
        <ele>726.40999999999997</ele>
        <time>2025-04-25T11:03:45Z</time>
      </trkpt>
      <trkpt lat="44.642692040652037" lon="2.667530961334705">
        <ele>726.40999999999997</ele>
        <time>2025-04-25T11:03:46Z</time>
      </trkpt>
      <trkpt lat="44.642428010702133" lon="2.666849009692669">
        <ele>727.37</ele>
        <time>2025-04-25T11:03:50Z</time>
      </trkpt>
      <trkpt lat="44.642344024032354" lon="2.666630996391177">
        <ele>727.37</ele>
        <time>2025-04-25T11:03:51Z</time>
      </trkpt>
      <trkpt lat="44.642319967970252" lon="2.666438966989517">
        <ele>727.37</ele>
        <time>2025-04-25T11:03:52Z</time>
      </trkpt>
      <trkpt lat="44.642301024869084" lon="2.666238974779844">
        <ele>727.37</ele>
        <time>2025-04-25T11:03:53Z</time>
      </trkpt>
      <trkpt lat="44.642301024869084" lon="2.666053986176848">
        <ele>727.37</ele>
        <time>2025-04-25T11:03:54Z</time>
      </trkpt>
      <trkpt lat="44.642301024869084" lon="2.665876960381866">
        <ele>727.37</ele>
        <time>2025-04-25T11:03:55Z</time>
      </trkpt>
      <trkpt lat="44.642281997948885" lon="2.665527015924454">
        <ele>726.88999999999999</ele>
        <time>2025-04-25T11:03:57Z</time>
      </trkpt>
      <trkpt lat="44.642262971028686" lon="2.665344960987568">
        <ele>726.88999999999999</ele>
        <time>2025-04-25T11:03:58Z</time>
      </trkpt>
      <trkpt lat="44.642218966037035" lon="2.665184028446674">
        <ele>726.40999999999997</ele>
        <time>2025-04-25T11:03:59Z</time>
      </trkpt>
      <trkpt lat="44.642145959660411" lon="2.6650479901582">
        <ele>726.40999999999997</ele>
        <time>2025-04-25T11:04:00Z</time>
      </trkpt>
      <trkpt lat="44.6420359890908" lon="2.664975989609957">
        <ele>726.40999999999997</ele>
        <time>2025-04-25T11:04:01Z</time>
      </trkpt>
      <trkpt lat="44.641904979944229" lon="2.664931984618306">
        <ele>725.45000000000005</ele>
        <time>2025-04-25T11:04:02Z</time>
      </trkpt>
      <trkpt lat="44.641756033524871" lon="2.66493801958859">
        <ele>724.97000000000003</ele>
        <time>2025-04-25T11:04:03Z</time>
      </trkpt>
      <trkpt lat="44.641600968316197" lon="2.664978001266718">
        <ele>724.49000000000001</ele>
        <time>2025-04-25T11:04:04Z</time>
      </trkpt>
      <trkpt lat="44.641441963613033" lon="2.665018988773227">
        <ele>724.00999999999999</ele>
        <time>2025-04-25T11:04:05Z</time>
      </trkpt>
      <trkpt lat="44.640964027494192" lon="2.665125019848347">
        <ele>722.57000000000005</ele>
        <time>2025-04-25T11:04:08Z</time>
      </trkpt>
      <trkpt lat="44.640792030841112" lon="2.665113033726811">
        <ele>722.09000000000003</ele>
        <time>2025-04-25T11:04:09Z</time>
      </trkpt>
      <trkpt lat="44.640259025618434" lon="2.665120996534824">
        <ele>721.13</ele>
        <time>2025-04-25T11:04:12Z</time>
      </trkpt>
      <trkpt lat="44.640088034793735" lon="2.665167013183236">
        <ele>720.64999999999998</ele>
        <time>2025-04-25T11:04:13Z</time>
      </trkpt>
      <trkpt lat="44.63992903009057" lon="2.665284024551511">
        <ele>720.15999999999997</ele>
        <time>2025-04-25T11:04:14Z</time>
      </trkpt>
      <trkpt lat="44.639775976538658" lon="2.665405981242657">
        <ele>719.20000000000005</ele>
        <time>2025-04-25T11:04:15Z</time>
      </trkpt>
      <trkpt lat="44.639622000977397" lon="2.665539002045989">
        <ele>718.24000000000001</ele>
        <time>2025-04-25T11:04:16Z</time>
      </trkpt>
      <trkpt lat="44.639491997659206" lon="2.665708987042308">
        <ele>717.75999999999999</ele>
        <time>2025-04-25T11:04:17Z</time>
      </trkpt>
      <trkpt lat="44.639363000169396" lon="2.665877966210246">
        <ele>716.79999999999995</ele>
        <time>2025-04-25T11:04:18Z</time>
      </trkpt>
      <trkpt lat="44.639272978529334" lon="2.666086005046964">
        <ele>715.84000000000003</ele>
        <time>2025-04-25T11:04:19Z</time>
      </trkpt>
      <trkpt lat="44.639202989637852" lon="2.666301000863314">
        <ele>715.36000000000001</ele>
        <time>2025-04-25T11:04:20Z</time>
      </trkpt>
      <trkpt lat="44.639149010181427" lon="2.666523959487677">
        <ele>714.39999999999998</ele>
        <time>2025-04-25T11:04:21Z</time>
      </trkpt>
      <trkpt lat="44.639095030725002" lon="2.66674398444593">
        <ele>713.44000000000005</ele>
        <time>2025-04-25T11:04:22Z</time>
      </trkpt>
      <trkpt lat="44.63896200992167" lon="2.667154027149081">
        <ele>711.99000000000001</ele>
        <time>2025-04-25T11:04:24Z</time>
      </trkpt>
      <trkpt lat="44.638850027695298" lon="2.667340021580458">
        <ele>711.50999999999999</ele>
        <time>2025-04-25T11:04:25Z</time>
      </trkpt>
      <trkpt lat="44.638695968315005" lon="2.667486034333706">
        <ele>711.02999999999997</ele>
        <time>2025-04-25T11:04:26Z</time>
      </trkpt>
      <trkpt lat="44.638531012460589" lon="2.667620982974768">
        <ele>710.54999999999995</ele>
        <time>2025-04-25T11:04:27Z</time>
      </trkpt>
      <trkpt lat="44.638363039121032" lon="2.66768996603787">
        <ele>710.07000000000005</ele>
        <time>2025-04-25T11:04:28Z</time>
      </trkpt>
      <trkpt lat="44.638182995840907" lon="2.667734976857901">
        <ele>709.11000000000001</ele>
        <time>2025-04-25T11:04:29Z</time>
      </trkpt>
      <trkpt lat="44.638003036379814" lon="2.667720979079604">
        <ele>708.63</ele>
        <time>2025-04-25T11:04:30Z</time>
      </trkpt>
      <trkpt lat="44.637805977836251" lon="2.667683009058237">
        <ele>707.66999999999996</ele>
        <time>2025-04-25T11:04:31Z</time>
      </trkpt>
      <trkpt lat="44.637606991454959" lon="2.667644033208489">
        <ele>706.71000000000004</ele>
        <time>2025-04-25T11:04:32Z</time>
      </trkpt>
      <trkpt lat="44.637399036437273" lon="2.667656019330025">
        <ele>705.75</ele>
        <time>2025-04-25T11:04:33Z</time>
      </trkpt>
      <trkpt lat="44.637188985943794" lon="2.667703041806817">
        <ele>704.77999999999997</ele>
        <time>2025-04-25T11:04:34Z</time>
      </trkpt>
      <trkpt lat="44.636560007929802" lon="2.667873026803136">
        <ele>701.41999999999996</ele>
        <time>2025-04-25T11:04:37Z</time>
      </trkpt>
      <trkpt lat="44.636382982134819" lon="2.668005041778088">
        <ele>699.98000000000002</ele>
        <time>2025-04-25T11:04:38Z</time>
      </trkpt>
      <trkpt lat="44.636206040158868" lon="2.668135967105627">
        <ele>699.01999999999998</ele>
        <time>2025-04-25T11:04:39Z</time>
      </trkpt>
      <trkpt lat="44.635866992175579" lon="2.668388010933995">
        <ele>696.13</ele>
        <time>2025-04-25T11:04:41Z</time>
      </trkpt>
      <trkpt lat="44.635682003572583" lon="2.668455988168716">
        <ele>694.69000000000005</ele>
        <time>2025-04-25T11:04:42Z</time>
      </trkpt>
      <trkpt lat="44.63550397194922" lon="2.668456993997097">
        <ele>692.76999999999998</ele>
        <time>2025-04-25T11:04:43Z</time>
      </trkpt>
      <trkpt lat="44.635327029973269" lon="2.668428998440504">
        <ele>691.33000000000004</ele>
        <time>2025-04-25T11:04:44Z</time>
      </trkpt>
      <trkpt lat="44.63513801805675" lon="2.668399997055531">
        <ele>689.39999999999998</ele>
        <time>2025-04-25T11:04:45Z</time>
      </trkpt>
      <trkpt lat="44.634942971169949" lon="2.668368984013796">
        <ele>687.96000000000004</ele>
        <time>2025-04-25T11:04:46Z</time>
      </trkpt>
      <trkpt lat="44.634739961475134" lon="2.668379964306951">
        <ele>686.03999999999996</ele>
        <time>2025-04-25T11:04:47Z</time>
      </trkpt>
      <trkpt lat="44.634531000629067" lon="2.668405026197434">
        <ele>684.60000000000002</ele>
        <time>2025-04-25T11:04:48Z</time>
      </trkpt>
      <trkpt lat="44.63434400036931" lon="2.668516002595425">
        <ele>682.66999999999996</ele>
        <time>2025-04-25T11:04:49Z</time>
      </trkpt>
      <trkpt lat="44.63414903730154" lon="2.668633013963699">
        <ele>680.75</ele>
        <time>2025-04-25T11:04:50Z</time>
      </trkpt>
      <trkpt lat="44.633948039263487" lon="2.668752958998084">
        <ele>678.83000000000004</ele>
        <time>2025-04-25T11:04:51Z</time>
      </trkpt>
      <trkpt lat="44.632132016122341" lon="2.669978979974985">
        <ele>657.67999999999995</ele>
        <time>2025-04-25T11:05:01Z</time>
      </trkpt>
      <trkpt lat="44.631164995953441" lon="2.670922027900815">
        <ele>643.25999999999999</ele>
        <time>2025-04-25T11:05:09Z</time>
      </trkpt>
      <trkpt lat="44.630465023219585" lon="2.671533990651369">
        <ele>637.00999999999999</ele>
        <time>2025-04-25T11:05:13Z</time>
      </trkpt>
      <trkpt lat="44.629437988623977" lon="2.671353025361896">
        <ele>626.44000000000005</ele>
        <time>2025-04-25T11:05:20Z</time>
      </trkpt>
      <trkpt lat="44.629067005589604" lon="2.671101987361908">
        <ele>621.63</ele>
        <time>2025-04-25T11:05:23Z</time>
      </trkpt>
      <trkpt lat="44.628621004521847" lon="2.671394012868404">
        <ele>616.82000000000005</ele>
        <time>2025-04-25T11:05:28Z</time>
      </trkpt>
      <trkpt lat="44.62819998152554" lon="2.67162200063467">
        <ele>610.09000000000003</ele>
        <time>2025-04-25T11:05:34Z</time>
      </trkpt>
      <trkpt lat="44.628159999847412" lon="2.670771991834045">
        <ele>605.76999999999998</ele>
        <time>2025-04-25T11:05:38Z</time>
      </trkpt>
      <trkpt lat="44.628224959596992" lon="2.670406959950924">
        <ele>604.33000000000004</ele>
        <time>2025-04-25T11:05:39Z</time>
      </trkpt>
      <trkpt lat="44.628209033980966" lon="2.670189030468464">
        <ele>602.39999999999998</ele>
        <time>2025-04-25T11:05:40Z</time>
      </trkpt>
      <trkpt lat="44.628202999010682" lon="2.670106971636415">
        <ele>600.48000000000002</ele>
        <time>2025-04-25T11:05:41Z</time>
      </trkpt>
      <trkpt lat="44.628258990123868" lon="2.669834978878498">
        <ele>598.55999999999995</ele>
        <time>2025-04-25T11:05:42Z</time>
      </trkpt>
      <trkpt lat="44.628003006801009" lon="2.669416973367333">
        <ele>595.66999999999996</ele>
        <time>2025-04-25T11:05:44Z</time>
      </trkpt>
      <trkpt lat="44.627217035740614" lon="2.667832039296627">
        <ele>596.63999999999999</ele>
        <time>2025-04-25T11:05:50Z</time>
      </trkpt>
      <trkpt lat="44.626704985275865" lon="2.666918998584151">
        <ele>600</ele>
        <time>2025-04-25T11:05:54Z</time>
      </trkpt>
      <trkpt lat="44.626241968944669" lon="2.665922977030277">
        <ele>603.85000000000002</ele>
        <time>2025-04-25T11:05:58Z</time>
      </trkpt>
      <trkpt lat="44.626014987006783" lon="2.665278995409608">
        <ele>605.28999999999996</ele>
        <time>2025-04-25T11:06:00Z</time>
      </trkpt>
      <trkpt lat="44.626014987006783" lon="2.665278995409608">
        <ele>606.25</ele>
        <time>2025-04-25T11:06:01Z</time>
      </trkpt>
      <trkpt lat="44.625817006453872" lon="2.665430959314108">
        <ele>607.21000000000004</ele>
        <time>2025-04-25T11:06:02Z</time>
      </trkpt>
      <trkpt lat="44.625737965106964" lon="2.665490973740816">
        <ele>608.64999999999998</ele>
        <time>2025-04-25T11:06:03Z</time>
      </trkpt>
      <trkpt lat="44.625736037269235" lon="2.665493991225958">
        <ele>611.05999999999995</ele>
        <time>2025-04-25T11:06:04Z</time>
      </trkpt>
      <trkpt lat="44.625679962337017" lon="2.665655007585883">
        <ele>614.41999999999996</ele>
        <time>2025-04-25T11:06:05Z</time>
      </trkpt>
      <trkpt lat="44.625634029507637" lon="2.665786016732454">
        <ele>616.82000000000005</ele>
        <time>2025-04-25T11:06:06Z</time>
      </trkpt>
      <trkpt lat="44.6255789604038" lon="2.665944015607238">
        <ele>619.23000000000002</ele>
        <time>2025-04-25T11:06:07Z</time>
      </trkpt>
      <trkpt lat="44.625509977340698" lon="2.666126992553473">
        <ele>621.14999999999998</ele>
        <time>2025-04-25T11:06:08Z</time>
      </trkpt>
      <trkpt lat="44.625438982620835" lon="2.666312986984849">
        <ele>622.59000000000003</ele>
        <time>2025-04-25T11:06:09Z</time>
      </trkpt>
      <trkpt lat="44.625328006222844" lon="2.666566958650947">
        <ele>624.50999999999999</ele>
        <time>2025-04-25T11:06:10Z</time>
      </trkpt>
      <trkpt lat="44.625190040096641" lon="2.666705008596182">
        <ele>625.47000000000003</ele>
        <time>2025-04-25T11:06:11Z</time>
      </trkpt>
      <trkpt lat="44.625049978494644" lon="2.666815984994173">
        <ele>630.75999999999999</ele>
        <time>2025-04-25T11:06:12Z</time>
      </trkpt>
      <trkpt lat="44.624879993498325" lon="2.666909024119377">
        <ele>632.20000000000005</ele>
        <time>2025-04-25T11:06:13Z</time>
      </trkpt>
      <trkpt lat="44.624705985188484" lon="2.667004996910691">
        <ele>633.16999999999996</ele>
        <time>2025-04-25T11:06:14Z</time>
      </trkpt>
      <trkpt lat="44.623354990035295" lon="2.667463989928365">
        <ele>657.20000000000005</ele>
        <time>2025-04-25T11:06:21Z</time>
      </trkpt>
      <trkpt lat="44.622137015685439" lon="2.667421996593475">
        <ele>672.58000000000004</ele>
        <time>2025-04-25T11:06:27Z</time>
      </trkpt>
      <trkpt lat="44.621723033487797" lon="2.667359970510006">
        <ele>676.90999999999997</ele>
        <time>2025-04-25T11:06:29Z</time>
      </trkpt>
      <trkpt lat="44.621531004086137" lon="2.66736701130867">
        <ele>679.78999999999996</ele>
        <time>2025-04-25T11:06:30Z</time>
      </trkpt>
      <trkpt lat="44.621336041018367" lon="2.66743197105825">
        <ele>682.19000000000005</ele>
        <time>2025-04-25T11:06:31Z</time>
      </trkpt>
      <trkpt lat="44.621134037151933" lon="2.667538002133369">
        <ele>684.60000000000002</ele>
        <time>2025-04-25T11:06:32Z</time>
      </trkpt>
      <trkpt lat="44.620943013578653" lon="2.667679991573095">
        <ele>687.48000000000002</ele>
        <time>2025-04-25T11:06:33Z</time>
      </trkpt>
      <trkpt lat="44.620755007490516" lon="2.667818963527679">
        <ele>689.88</ele>
        <time>2025-04-25T11:06:34Z</time>
      </trkpt>
      <trkpt lat="44.620576975867152" lon="2.667930023744702">
        <ele>691.33000000000004</ele>
        <time>2025-04-25T11:06:35Z</time>
      </trkpt>
      <trkpt lat="44.620386958122253" lon="2.668005963787437">
        <ele>692.76999999999998</ele>
        <time>2025-04-25T11:06:36Z</time>
      </trkpt>
      <trkpt lat="44.620177997276187" lon="2.668019039556384">
        <ele>694.21000000000004</ele>
        <time>2025-04-25T11:06:37Z</time>
      </trkpt>
      <trkpt lat="44.619959983974695" lon="2.668006969615817">
        <ele>695.16999999999996</ele>
        <time>2025-04-25T11:06:38Z</time>
      </trkpt>
      <trkpt lat="44.619522029533982" lon="2.667949972674251">
        <ele>697.09000000000003</ele>
        <time>2025-04-25T11:06:40Z</time>
      </trkpt>
      <trkpt lat="44.619308039546013" lon="2.667962964624167">
        <ele>697.57000000000005</ele>
        <time>2025-04-25T11:06:41Z</time>
      </trkpt>
      <trkpt lat="44.619092959910631" lon="2.668033037334681">
        <ele>698.04999999999995</ele>
        <time>2025-04-25T11:06:42Z</time>
      </trkpt>
      <trkpt lat="44.618890034034848" lon="2.668157005682588">
        <ele>698.04999999999995</ele>
        <time>2025-04-25T11:06:43Z</time>
      </trkpt>
      <trkpt lat="44.618678977712989" lon="2.668286003172398">
        <ele>697.57000000000005</ele>
        <time>2025-04-25T11:06:44Z</time>
      </trkpt>
      <trkpt lat="44.618249991908669" lon="2.668547015637159">
        <ele>696.61000000000001</ele>
        <time>2025-04-25T11:06:46Z</time>
      </trkpt>
      <trkpt lat="44.618059974163771" lon="2.668768968433142">
        <ele>696.13</ele>
        <time>2025-04-25T11:06:47Z</time>
      </trkpt>
      <trkpt lat="44.617878003045917" lon="2.668996034190059">
        <ele>695.16999999999996</ele>
        <time>2025-04-25T11:06:48Z</time>
      </trkpt>
      <trkpt lat="44.617697037756443" lon="2.669230978935957">
        <ele>694.69000000000005</ele>
        <time>2025-04-25T11:06:49Z</time>
      </trkpt>
      <trkpt lat="44.617551025003195" lon="2.669503977522254">
        <ele>694.21000000000004</ele>
        <time>2025-04-25T11:06:50Z</time>
      </trkpt>
      <trkpt lat="44.617406018078327" lon="2.66977597028017">
        <ele>693.73000000000002</ele>
        <time>2025-04-25T11:06:51Z</time>
      </trkpt>
      <trkpt lat="44.616996981203556" lon="2.670502010732889">
        <ele>692.28999999999996</ele>
        <time>2025-04-25T11:06:54Z</time>
      </trkpt>
      <trkpt lat="44.61683495901525" lon="2.67067501321435">
        <ele>691.80999999999995</ele>
        <time>2025-04-25T11:06:55Z</time>
      </trkpt>
      <trkpt lat="44.616672014817595" lon="2.670815996825695">
        <ele>691.33000000000004</ele>
        <time>2025-04-25T11:06:56Z</time>
      </trkpt>
      <trkpt lat="44.616478979587555" lon="2.670899983495474">
        <ele>690.84000000000003</ele>
        <time>2025-04-25T11:06:57Z</time>
      </trkpt>
      <trkpt lat="44.616280999034643" lon="2.670935019850731">
        <ele>690.36000000000001</ele>
        <time>2025-04-25T11:06:58Z</time>
      </trkpt>
      <trkpt lat="44.61608000099659" lon="2.670916998758912">
        <ele>689.88</ele>
        <time>2025-04-25T11:06:59Z</time>
      </trkpt>
      <trkpt lat="44.615867016837001" lon="2.670877017080784">
        <ele>689.88</ele>
        <time>2025-04-25T11:07:00Z</time>
      </trkpt>
      <trkpt lat="44.61567398160696" lon="2.670764029026032">
        <ele>689.39999999999998</ele>
        <time>2025-04-25T11:07:01Z</time>
      </trkpt>
      <trkpt lat="44.61547801271081" lon="2.670649029314518">
        <ele>689.39999999999998</ele>
        <time>2025-04-25T11:07:02Z</time>
      </trkpt>
      <trkpt lat="44.614894967526197" lon="2.670308975502849">
        <ele>688.91999999999996</ele>
        <time>2025-04-25T11:07:05Z</time>
      </trkpt>
      <trkpt lat="44.614712996408343" lon="2.670173021033406">
        <ele>688.44000000000005</ele>
        <time>2025-04-25T11:07:06Z</time>
      </trkpt>
      <trkpt lat="44.614566983655095" lon="2.670016027987003">
        <ele>687.96000000000004</ele>
        <time>2025-04-25T11:07:07Z</time>
      </trkpt>
      <trkpt lat="44.614430023357272" lon="2.669812012463808">
        <ele>687.48000000000002</ele>
        <time>2025-04-25T11:07:08Z</time>
      </trkpt>
      <trkpt lat="44.614326003938913" lon="2.669566003605723">
        <ele>687.48000000000002</ele>
        <time>2025-04-25T11:07:09Z</time>
      </trkpt>
      <trkpt lat="44.614274958148599" lon="2.669282024726272">
        <ele>687</ele>
        <time>2025-04-25T11:07:10Z</time>
      </trkpt>
      <trkpt lat="44.614263977855444" lon="2.668998967856169">
        <ele>687</ele>
        <time>2025-04-25T11:07:11Z</time>
      </trkpt>
      <trkpt lat="44.61425400339067" lon="2.668709037825465">
        <ele>686.51999999999998</ele>
        <time>2025-04-25T11:07:12Z</time>
      </trkpt>
      <trkpt lat="44.614199018105865" lon="2.66792600043118">
        <ele>686.03999999999996</ele>
        <time>2025-04-25T11:07:15Z</time>
      </trkpt>
      <trkpt lat="44.61416800506413" lon="2.667694995179772">
        <ele>686.03999999999996</ele>
        <time>2025-04-25T11:07:16Z</time>
      </trkpt>
      <trkpt lat="44.614106984809041" lon="2.667483016848564">
        <ele>686.03999999999996</ele>
        <time>2025-04-25T11:07:17Z</time>
      </trkpt>
      <trkpt lat="44.614048982039094" lon="2.66728000715375">
        <ele>686.51999999999998</ele>
        <time>2025-04-25T11:07:18Z</time>
      </trkpt>
      <trkpt lat="44.613986033946276" lon="2.667093006893992">
        <ele>686.51999999999998</ele>
        <time>2025-04-25T11:07:19Z</time>
      </trkpt>
      <trkpt lat="44.613755028694868" lon="2.666289014741778">
        <ele>686.51999999999998</ele>
        <time>2025-04-25T11:07:24Z</time>
      </trkpt>
      <trkpt lat="44.613741030916572" lon="2.666146019473672">
        <ele>687</ele>
        <time>2025-04-25T11:07:25Z</time>
      </trkpt>
      <trkpt lat="44.613741030916572" lon="2.665846031159163">
        <ele>687.48000000000002</ele>
        <time>2025-04-25T11:07:27Z</time>
      </trkpt>
      <trkpt lat="44.613741030916572" lon="2.665698006749153">
        <ele>687.48000000000002</ele>
        <time>2025-04-25T11:07:28Z</time>
      </trkpt>
      <trkpt lat="44.613745976239443" lon="2.665551993995905">
        <ele>687.96000000000004</ele>
        <time>2025-04-25T11:07:29Z</time>
      </trkpt>
      <trkpt lat="44.61380498483777" lon="2.665260974317789">
        <ele>688.91999999999996</ele>
        <time>2025-04-25T11:07:31Z</time>
      </trkpt>
      <trkpt lat="44.613830968737602" lon="2.665127031505108">
        <ele>689.39999999999998</ele>
        <time>2025-04-25T11:07:32Z</time>
      </trkpt>
      <trkpt lat="44.613862987607718" lon="2.664998034015298">
        <ele>690.36000000000001</ele>
        <time>2025-04-25T11:07:33Z</time>
      </trkpt>
      <trkpt lat="44.613904980942607" lon="2.664870964363217">
        <ele>690.84000000000003</ele>
        <time>2025-04-25T11:07:34Z</time>
      </trkpt>
      <trkpt lat="44.613946974277496" lon="2.664748001843691">
        <ele>691.80999999999995</ele>
        <time>2025-04-25T11:07:35Z</time>
      </trkpt>
      <trkpt lat="44.614020986482501" lon="2.664505010470748">
        <ele>692.76999999999998</ele>
        <time>2025-04-25T11:07:37Z</time>
      </trkpt>
      <trkpt lat="44.614029033109546" lon="2.664370983839035">
        <ele>692.76999999999998</ele>
        <time>2025-04-25T11:07:38Z</time>
      </trkpt>
      <trkpt lat="44.614036995917559" lon="2.664237963035703">
        <ele>692.76999999999998</ele>
        <time>2025-04-25T11:07:39Z</time>
      </trkpt>
      <trkpt lat="44.614041019231081" lon="2.664105026051402">
        <ele>693.25</ele>
        <time>2025-04-25T11:07:40Z</time>
      </trkpt>
      <trkpt lat="44.614041019231081" lon="2.66397200524807">
        <ele>693.25</ele>
        <time>2025-04-25T11:07:41Z</time>
      </trkpt>
      <trkpt lat="44.614041019231081" lon="2.663837978616357">
        <ele>693.25</ele>
        <time>2025-04-25T11:07:42Z</time>
      </trkpt>
      <trkpt lat="44.614020986482501" lon="2.663055025041103">
        <ele>693.25</ele>
        <time>2025-04-25T11:07:48Z</time>
      </trkpt>
      <trkpt lat="44.613991985097528" lon="2.662959974259138">
        <ele>693.73000000000002</ele>
        <time>2025-04-25T11:07:49Z</time>
      </trkpt>
      <trkpt lat="44.613949991762638" lon="2.662868024781346">
        <ele>693.73000000000002</ele>
        <time>2025-04-25T11:07:50Z</time>
      </trkpt>
      <trkpt lat="44.613895006477833" lon="2.662786971777678">
        <ele>693.73000000000002</ele>
        <time>2025-04-25T11:07:51Z</time>
      </trkpt>
      <trkpt lat="44.613841027021408" lon="2.662709020078182">
        <ele>693.73000000000002</ele>
        <time>2025-04-25T11:07:52Z</time>
      </trkpt>
      <trkpt lat="44.613786963745952" lon="2.662630984559655">
        <ele>694.21000000000004</ele>
        <time>2025-04-25T11:07:53Z</time>
      </trkpt>
      <trkpt lat="44.613719992339611" lon="2.662531994283199">
        <ele>694.69000000000005</ele>
        <time>2025-04-25T11:07:54Z</time>
      </trkpt>
      <trkpt lat="44.613469960168004" lon="2.662366032600403">
        <ele>695.64999999999998</ele>
        <time>2025-04-25T11:07:59Z</time>
      </trkpt>
      <trkpt lat="44.613400977104902" lon="2.662320015951991">
        <ele>695.64999999999998</ele>
        <time>2025-04-25T11:08:00Z</time>
      </trkpt>
      <trkpt lat="44.613322019577026" lon="2.662333007901907">
        <ele>696.13</ele>
        <time>2025-04-25T11:08:01Z</time>
      </trkpt>
      <trkpt lat="44.613119009882212" lon="2.662381958216429">
        <ele>698.52999999999997</ele>
        <time>2025-04-25T11:08:04Z</time>
      </trkpt>
      <trkpt lat="44.613063018769026" lon="2.662443984299898">
        <ele>699.01999999999998</ele>
        <time>2025-04-25T11:08:05Z</time>
      </trkpt>
      <trkpt lat="44.613003004342318" lon="2.662512967363">
        <ele>699.5</ele>
        <time>2025-04-25T11:08:06Z</time>
      </trkpt>
      <trkpt lat="44.612947013229132" lon="2.662574993446469">
        <ele>699.98000000000002</ele>
        <time>2025-04-25T11:08:07Z</time>
      </trkpt>
      <trkpt lat="44.612908959388733" lon="2.662642970681191">
        <ele>701.41999999999996</ele>
        <time>2025-04-25T11:08:08Z</time>
      </trkpt>
      <trkpt lat="44.612864032387733" lon="2.662722012028098">
        <ele>702.38</ele>
        <time>2025-04-25T11:08:09Z</time>
      </trkpt>
      <trkpt lat="44.612821033224463" lon="2.662799041718245">
        <ele>703.34000000000003</ele>
        <time>2025-04-25T11:08:10Z</time>
      </trkpt>
      <trkpt lat="44.612779039889574" lon="2.662873975932598">
        <ele>704.29999999999995</ele>
        <time>2025-04-25T11:08:11Z</time>
      </trkpt>
      <trkpt lat="44.612736962735653" lon="2.662960980087519">
        <ele>705.25999999999999</ele>
        <time>2025-04-25T11:08:12Z</time>
      </trkpt>
      <trkpt lat="44.612684994935989" lon="2.663044966757298">
        <ele>706.23000000000002</ele>
        <time>2025-04-25T11:08:13Z</time>
      </trkpt>
      <trkpt lat="44.612538982182741" lon="2.66315502114594">
        <ele>707.66999999999996</ele>
        <time>2025-04-25T11:08:15Z</time>
      </trkpt>
      <trkpt lat="44.612466981634498" lon="2.663173964247108">
        <ele>708.14999999999998</ele>
        <time>2025-04-25T11:08:16Z</time>
      </trkpt>
      <trkpt lat="44.611827023327351" lon="2.663343027234078">
        <ele>710.54999999999995</ele>
        <time>2025-04-25T11:08:25Z</time>
      </trkpt>
      <trkpt lat="44.611752005293965" lon="2.663359036669135">
        <ele>711.02999999999997</ele>
        <time>2025-04-25T11:08:26Z</time>
      </trkpt>
      <trkpt lat="44.611473977565765" lon="2.663418967276812">
        <ele>711.50999999999999</ele>
        <time>2025-04-25T11:08:30Z</time>
      </trkpt>
      <trkpt lat="44.611340034753084" lon="2.663449980318546">
        <ele>711.50999999999999</ele>
        <time>2025-04-25T11:08:32Z</time>
      </trkpt>
      <trkpt lat="44.611271973699331" lon="2.663465989753604">
        <ele>711.50999999999999</ele>
        <time>2025-04-25T11:08:33Z</time>
      </trkpt>
      <trkpt lat="44.611206008121371" lon="2.663480993360281">
        <ele>711.02999999999997</ele>
        <time>2025-04-25T11:08:34Z</time>
      </trkpt>
      <trkpt lat="44.611142976209521" lon="2.663495996966958">
        <ele>711.02999999999997</ele>
        <time>2025-04-25T11:08:35Z</time>
      </trkpt>
      <trkpt lat="44.611072987318039" lon="2.663512006402016">
        <ele>710.54999999999995</ele>
        <time>2025-04-25T11:08:36Z</time>
      </trkpt>
      <trkpt lat="44.611001992598176" lon="2.663529021665454">
        <ele>710.54999999999995</ele>
        <time>2025-04-25T11:08:37Z</time>
      </trkpt>
      <trkpt lat="44.610927980393171" lon="2.663546036928892">
        <ele>710.07000000000005</ele>
        <time>2025-04-25T11:08:38Z</time>
      </trkpt>
      <trkpt lat="44.610768975690007" lon="2.663584006950259">
        <ele>708.63</ele>
        <time>2025-04-25T11:08:40Z</time>
      </trkpt>
      <trkpt lat="44.61068800650537" lon="2.663603033870459">
        <ele>708.14999999999998</ele>
        <time>2025-04-25T11:08:41Z</time>
      </trkpt>
      <trkpt lat="44.61060200817883" lon="2.663622982800007">
        <ele>707.19000000000005</ele>
        <time>2025-04-25T11:08:42Z</time>
      </trkpt>
      <trkpt lat="44.610178973525763" lon="2.663713004440069">
        <ele>703.82000000000005</ele>
        <time>2025-04-25T11:08:47Z</time>
      </trkpt>
      <trkpt lat="44.609983004629612" lon="2.663752986118197">
        <ele>702.86000000000001</ele>
        <time>2025-04-25T11:08:49Z</time>
      </trkpt>
      <trkpt lat="44.608747009187937" lon="2.663987008854747">
        <ele>695.64999999999998</ele>
        <time>2025-04-25T11:09:00Z</time>
      </trkpt>
      <trkpt lat="44.608292961493134" lon="2.663991032168269">
        <ele>692.28999999999996</ele>
        <time>2025-04-25T11:09:04Z</time>
      </trkpt>
      <trkpt lat="44.607385033741593" lon="2.663846025243402">
        <ele>684.12</ele>
        <time>2025-04-25T11:09:12Z</time>
      </trkpt>
      <trkpt lat="44.60727103985846" lon="2.663859017193317">
        <ele>683.14999999999998</ele>
        <time>2025-04-25T11:09:13Z</time>
      </trkpt>
      <trkpt lat="44.606937021017075" lon="2.663938980549574">
        <ele>681.23000000000002</ele>
        <time>2025-04-25T11:09:16Z</time>
      </trkpt>
      <trkpt lat="44.605765985324979" lon="2.664541974663734">
        <ele>675.94000000000005</ele>
        <time>2025-04-25T11:09:26Z</time>
      </trkpt>
      <trkpt lat="44.604429993778467" lon="2.665253011509776">
        <ele>671.13999999999999</ele>
        <time>2025-04-25T11:09:34Z</time>
      </trkpt>
      <trkpt lat="44.602392017841339" lon="2.666322039440274">
        <ele>662.97000000000003</ele>
        <time>2025-04-25T11:09:45Z</time>
      </trkpt>
      <trkpt lat="44.600369967520237" lon="2.667416967451572">
        <ele>657.67999999999995</ele>
        <time>2025-04-25T11:09:56Z</time>
      </trkpt>
      <trkpt lat="44.599403031170368" lon="2.667700024321675">
        <ele>663.45000000000005</ele>
        <time>2025-04-25T11:10:01Z</time>
      </trkpt>
      <trkpt lat="44.599194992333651" lon="2.667675968259573">
        <ele>664.88999999999999</ele>
        <time>2025-04-25T11:10:02Z</time>
      </trkpt>
      <trkpt lat="44.598984019830823" lon="2.667610002681613">
        <ele>666.33000000000004</ele>
        <time>2025-04-25T11:10:03Z</time>
      </trkpt>
      <trkpt lat="44.598340960219502" lon="2.667458038777113">
        <ele>671.62</ele>
        <time>2025-04-25T11:10:06Z</time>
      </trkpt>
      <trkpt lat="44.598123030737042" lon="2.667478993535042">
        <ele>673.05999999999995</ele>
        <time>2025-04-25T11:10:07Z</time>
      </trkpt>
      <trkpt lat="44.597906023263931" lon="2.667500032112002">
        <ele>675.46000000000004</ele>
        <time>2025-04-25T11:10:08Z</time>
      </trkpt>
      <trkpt lat="44.597696978598833" lon="2.667554011568427">
        <ele>676.90999999999997</ele>
        <time>2025-04-25T11:10:09Z</time>
      </trkpt>
      <trkpt lat="44.597488017752767" lon="2.667645961046219">
        <ele>678.83000000000004</ele>
        <time>2025-04-25T11:10:10Z</time>
      </trkpt>
      <trkpt lat="44.597275033593178" lon="2.667739000171423">
        <ele>680.26999999999998</ele>
        <time>2025-04-25T11:10:11Z</time>
      </trkpt>
      <trkpt lat="44.597061965614557" lon="2.667841007933021">
        <ele>681.71000000000004</ele>
        <time>2025-04-25T11:10:12Z</time>
      </trkpt>
      <trkpt lat="44.594112960621715" lon="2.669673962518573">
        <ele>686.51999999999998</ele>
        <time>2025-04-25T11:10:26Z</time>
      </trkpt>
      <trkpt lat="44.59240498021245" lon="2.670788001269102">
        <ele>682.19000000000005</ele>
        <time>2025-04-25T11:10:35Z</time>
      </trkpt>
      <trkpt lat="44.590945020318031" lon="2.671625018119812">
        <ele>673.05999999999995</ele>
        <time>2025-04-25T11:10:42Z</time>
      </trkpt>
      <trkpt lat="44.589194040745497" lon="2.672063978388906">
        <ele>662.00999999999999</ele>
        <time>2025-04-25T11:10:50Z</time>
      </trkpt>
      <trkpt lat="44.587415987625718" lon="2.672390034422278">
        <ele>646.13999999999999</ele>
        <time>2025-04-25T11:10:58Z</time>
      </trkpt>
      <trkpt lat="44.585825018584728" lon="2.672617016360164">
        <ele>635.57000000000005</ele>
        <time>2025-04-25T11:11:06Z</time>
      </trkpt>
      <trkpt lat="44.585638018324971" lon="2.672559013590217">
        <ele>634.61000000000001</ele>
        <time>2025-04-25T11:11:07Z</time>
      </trkpt>
      <trkpt lat="44.585469961166382" lon="2.672500004991889">
        <ele>634.13</ele>
        <time>2025-04-25T11:11:08Z</time>
      </trkpt>
      <trkpt lat="44.585305005311966" lon="2.672342006117106">
        <ele>633.16999999999996</ele>
        <time>2025-04-25T11:11:09Z</time>
      </trkpt>
      <trkpt lat="44.585129991173744" lon="2.672175038605928">
        <ele>633.16999999999996</ele>
        <time>2025-04-25T11:11:10Z</time>
      </trkpt>
      <trkpt lat="44.584962017834187" lon="2.67198896035552">
        <ele>632.67999999999995</ele>
        <time>2025-04-25T11:11:11Z</time>
      </trkpt>
      <trkpt lat="44.584801001474261" lon="2.671774970367551">
        <ele>632.20000000000005</ele>
        <time>2025-04-25T11:11:12Z</time>
      </trkpt>
      <trkpt lat="44.584641996771097" lon="2.671561986207962">
        <ele>632.20000000000005</ele>
        <time>2025-04-25T11:11:13Z</time>
      </trkpt>
      <trkpt lat="44.584327004849911" lon="2.671179017052054">
        <ele>630.75999999999999</ele>
        <time>2025-04-25T11:11:15Z</time>
      </trkpt>
      <trkpt lat="44.58417302928865" lon="2.67099604010582">
        <ele>629.79999999999995</ele>
        <time>2025-04-25T11:11:16Z</time>
      </trkpt>
      <trkpt lat="44.583824006840587" lon="2.670714994892478">
        <ele>627.39999999999998</ele>
        <time>2025-04-25T11:11:18Z</time>
      </trkpt>
      <trkpt lat="44.583630971610546" lon="2.67065498046577">
        <ele>626.44000000000005</ele>
        <time>2025-04-25T11:11:19Z</time>
      </trkpt>
      <trkpt lat="44.583436008542776" lon="2.670630002394319">
        <ele>624.99000000000001</ele>
        <time>2025-04-25T11:11:20Z</time>
      </trkpt>
      <trkpt lat="44.581872029229999" lon="2.670857990160584">
        <ele>612.98000000000002</ele>
        <time>2025-04-25T11:11:27Z</time>
      </trkpt>
      <trkpt lat="44.579819971695542" lon="2.671430977061391">
        <ele>605.76999999999998</ele>
        <time>2025-04-25T11:11:36Z</time>
      </trkpt>
      <trkpt lat="44.578641979023814" lon="2.671867003664374">
        <ele>612.01999999999998</ele>
        <time>2025-04-25T11:11:42Z</time>
      </trkpt>
      <trkpt lat="44.578438969329" lon="2.671908996999264">
        <ele>613.46000000000004</ele>
        <time>2025-04-25T11:11:43Z</time>
      </trkpt>
      <trkpt lat="44.578235959634185" lon="2.671896005049348">
        <ele>614.89999999999998</ele>
        <time>2025-04-25T11:11:44Z</time>
      </trkpt>
      <trkpt lat="44.578042002394795" lon="2.671864992007613">
        <ele>615.86000000000001</ele>
        <time>2025-04-25T11:11:45Z</time>
      </trkpt>
      <trkpt lat="44.577860031276941" lon="2.67181302420795">
        <ele>617.29999999999995</ele>
        <time>2025-04-25T11:11:46Z</time>
      </trkpt>
      <trkpt lat="44.577706977725029" lon="2.671726020053029">
        <ele>618.25999999999999</ele>
        <time>2025-04-25T11:11:47Z</time>
      </trkpt>
      <trkpt lat="44.577572029083967" lon="2.6715790014714">
        <ele>619.23000000000002</ele>
        <time>2025-04-25T11:11:48Z</time>
      </trkpt>
      <trkpt lat="44.577461974695325" lon="2.671392001211643">
        <ele>620.66999999999996</ele>
        <time>2025-04-25T11:11:49Z</time>
      </trkpt>
      <trkpt lat="44.577350998297334" lon="2.671184968203306">
        <ele>621.63</ele>
        <time>2025-04-25T11:11:50Z</time>
      </trkpt>
      <trkpt lat="44.577245973050594" lon="2.670969972386956">
        <ele>622.59000000000003</ele>
        <time>2025-04-25T11:11:51Z</time>
      </trkpt>
      <trkpt lat="44.576404010877013" lon="2.669030986726284">
        <ele>621.63</ele>
        <time>2025-04-25T11:12:00Z</time>
      </trkpt>
      <trkpt lat="44.575488958507776" lon="2.666394961997867">
        <ele>601.44000000000005</ele>
        <time>2025-04-25T11:12:10Z</time>
      </trkpt>
      <trkpt lat="44.575051004067063" lon="2.665556017309427">
        <ele>593.75</ele>
        <time>2025-04-25T11:12:14Z</time>
      </trkpt>
      <trkpt lat="44.574902979657054" lon="2.665407992899418">
        <ele>592.30999999999995</ele>
        <time>2025-04-25T11:12:15Z</time>
      </trkpt>
      <trkpt lat="44.574757972732186" lon="2.66526298597455">
        <ele>590.38999999999999</ele>
        <time>2025-04-25T11:12:16Z</time>
      </trkpt>
      <trkpt lat="44.574465025216341" lon="2.664952017366886">
        <ele>586.53999999999996</ele>
        <time>2025-04-25T11:12:18Z</time>
      </trkpt>
      <trkpt lat="44.574330998584628" lon="2.664758982136846">
        <ele>584.62</ele>
        <time>2025-04-25T11:12:19Z</time>
      </trkpt>
      <trkpt lat="44.57420501857996" lon="2.664562007412314">
        <ele>582.70000000000005</ele>
        <time>2025-04-25T11:12:20Z</time>
      </trkpt>
      <trkpt lat="44.573701014742255" lon="2.663776958361268">
        <ele>575.00999999999999</ele>
        <time>2025-04-25T11:12:25Z</time>
      </trkpt>
      <trkpt lat="44.573619961738586" lon="2.663753991946578">
        <ele>574.03999999999996</ele>
        <time>2025-04-25T11:12:26Z</time>
      </trkpt>
      <trkpt lat="44.573550978675485" lon="2.663733959197998">
        <ele>573.08000000000004</ele>
        <time>2025-04-25T11:12:27Z</time>
      </trkpt>
      <trkpt lat="44.573518959805369" lon="2.663790034130216">
        <ele>572.12</ele>
        <time>2025-04-25T11:12:28Z</time>
      </trkpt>
      <trkpt lat="44.573464980348945" lon="2.663889024406672">
        <ele>571.15999999999997</ele>
        <time>2025-04-25T11:12:29Z</time>
      </trkpt>
      <trkpt lat="44.573443019762635" lon="2.663988014683127">
        <ele>569.72000000000003</ele>
        <time>2025-04-25T11:12:30Z</time>
      </trkpt>
      <trkpt lat="44.573443019762635" lon="2.664157999679446">
        <ele>568.27999999999997</ele>
        <time>2025-04-25T11:12:31Z</time>
      </trkpt>
      <trkpt lat="44.573466992005706" lon="2.664334019646049">
        <ele>566.83000000000004</ele>
        <time>2025-04-25T11:12:32Z</time>
      </trkpt>
      <trkpt lat="44.573502028360963" lon="2.66453099437058">
        <ele>565.38999999999999</ele>
        <time>2025-04-25T11:12:33Z</time>
      </trkpt>
      <trkpt lat="44.573529018089175" lon="2.664678012952209">
        <ele>563.95000000000005</ele>
        <time>2025-04-25T11:12:34Z</time>
      </trkpt>
      <trkpt lat="44.573595989495516" lon="2.664864007383585">
        <ele>562.99000000000001</ele>
        <time>2025-04-25T11:12:35Z</time>
      </trkpt>
      <trkpt lat="44.573650974780321" lon="2.665018988773227">
        <ele>562.02999999999997</ele>
        <time>2025-04-25T11:12:36Z</time>
      </trkpt>
      <trkpt lat="44.573731021955609" lon="2.665243037045002">
        <ele>560.11000000000001</ele>
        <time>2025-04-25T11:12:38Z</time>
      </trkpt>
      <trkpt lat="44.573744013905525" lon="2.665278995409608">
        <ele>558.65999999999997</ele>
        <time>2025-04-25T11:12:39Z</time>
      </trkpt>
      <trkpt lat="44.573714006692171" lon="2.66536801122129">
        <ele>557.70000000000005</ele>
        <time>2025-04-25T11:12:40Z</time>
      </trkpt>
      <trkpt lat="44.573701014742255" lon="2.665407992899418">
        <ele>556.74000000000001</ele>
        <time>2025-04-25T11:12:41Z</time>
      </trkpt>
      <trkpt lat="44.573701014742255" lon="2.665407992899418">
        <ele>555.29999999999995</ele>
        <time>2025-04-25T11:12:42Z</time>
      </trkpt>
      <trkpt lat="44.573701014742255" lon="2.665407992899418">
        <ele>553.38</ele>
        <time>2025-04-25T11:12:43Z</time>
      </trkpt>
      <trkpt lat="44.573696991428733" lon="2.665404975414276">
        <ele>551.92999999999995</ele>
        <time>2025-04-25T11:12:44Z</time>
      </trkpt>
      <trkpt lat="44.573664972558618" lon="2.665384020656347">
        <ele>550.00999999999999</ele>
        <time>2025-04-25T11:12:45Z</time>
      </trkpt>
      <trkpt lat="44.573613004758954" lon="2.66534898430109">
        <ele>548.09000000000003</ele>
        <time>2025-04-25T11:12:46Z</time>
      </trkpt>
      <trkpt lat="44.573553996160626" lon="2.665290981531143">
        <ele>546.16999999999996</ele>
        <time>2025-04-25T11:12:47Z</time>
      </trkpt>
      <trkpt lat="44.573475960642099" lon="2.665156032890081">
        <ele>543.75999999999999</ele>
        <time>2025-04-25T11:12:48Z</time>
      </trkpt>
      <trkpt lat="44.573376970365644" lon="2.664985964074731">
        <ele>541.36000000000001</ele>
        <time>2025-04-25T11:12:49Z</time>
      </trkpt>
      <trkpt lat="44.573276974260807" lon="2.664812039583921">
        <ele>538.96000000000004</ele>
        <time>2025-04-25T11:12:50Z</time>
      </trkpt>
      <trkpt lat="44.573172032833099" lon="2.664633002132177">
        <ele>537.02999999999997</ele>
        <time>2025-04-25T11:12:51Z</time>
      </trkpt>
      <trkpt lat="44.572353959083557" lon="2.662581028416753">
        <ele>518.76999999999998</ele>
        <time>2025-04-25T11:13:00Z</time>
      </trkpt>
      <trkpt lat="44.572220016270876" lon="2.661883989349008">
        <ele>513.48000000000002</ele>
        <time>2025-04-25T11:13:03Z</time>
      </trkpt>
      <trkpt lat="44.572136029601097" lon="2.661343021318317">
        <ele>510.60000000000002</ele>
        <time>2025-04-25T11:13:05Z</time>
      </trkpt>
      <trkpt lat="44.572154972702265" lon="2.661171024665237">
        <ele>509.63999999999999</ele>
        <time>2025-04-25T11:13:06Z</time>
      </trkpt>
      <trkpt lat="44.572177017107606" lon="2.660966003313661">
        <ele>507.23000000000002</ele>
        <time>2025-04-25T11:13:08Z</time>
      </trkpt>
      <trkpt lat="44.572241976857185" lon="2.66070599667728">
        <ele>504.35000000000002</ele>
        <time>2025-04-25T11:13:12Z</time>
      </trkpt>
      <trkpt lat="44.572235019877553" lon="2.660736003890634">
        <ele>503.87</ele>
        <time>2025-04-25T11:13:13Z</time>
      </trkpt>
      <trkpt lat="44.572238037362695" lon="2.660723011940718">
        <ele>503.87</ele>
        <time>2025-04-25T11:13:14Z</time>
      </trkpt>
      <trkpt lat="44.572234014049172" lon="2.660738015547395">
        <ele>503.87</ele>
        <time>2025-04-25T11:13:15Z</time>
      </trkpt>
      <trkpt lat="44.572230996564031" lon="2.660752013325691">
        <ele>503.87</ele>
        <time>2025-04-25T11:13:16Z</time>
      </trkpt>
      <trkpt lat="44.572226973250508" lon="2.660766011103988">
        <ele>503.38999999999999</ele>
        <time>2025-04-25T11:13:17Z</time>
      </trkpt>
      <trkpt lat="44.572224039584398" lon="2.660780008882284">
        <ele>503.38999999999999</ele>
        <time>2025-04-25T11:13:18Z</time>
      </trkpt>
      <trkpt lat="44.572221022099257" lon="2.660794006660581">
        <ele>502.91000000000003</ele>
        <time>2025-04-25T11:13:19Z</time>
      </trkpt>
      <trkpt lat="44.572221022099257" lon="2.660794006660581">
        <ele>502.91000000000003</ele>
        <time>2025-04-25T11:13:34Z</time>
      </trkpt>
      <trkpt lat="44.572221022099257" lon="2.660794006660581">
        <ele>502.91000000000003</ele>
        <time>2025-04-25T11:14:14Z</time>
      </trkpt>
      <trkpt lat="44.572224039584398" lon="2.660777997225523">
        <ele>502.91000000000003</ele>
        <time>2025-04-25T11:14:18Z</time>
      </trkpt>
      <trkpt lat="44.572223033756018" lon="2.660784032195807">
        <ele>502.91000000000003</ele>
        <time>2025-04-25T11:14:19Z</time>
      </trkpt>
      <trkpt lat="44.572218004614115" lon="2.660802975296974">
        <ele>502.91000000000003</ele>
        <time>2025-04-25T11:14:20Z</time>
      </trkpt>
      <trkpt lat="44.572152039036155" lon="2.661197008565068">
        <ele>503.87</ele>
        <time>2025-04-25T11:14:29Z</time>
      </trkpt>
      <trkpt lat="44.572135023772717" lon="2.66135198995471">
        <ele>503.87</ele>
        <time>2025-04-25T11:14:31Z</time>
      </trkpt>
      <trkpt lat="44.572135023772717" lon="2.66135198995471">
        <ele>502.91000000000003</ele>
        <time>2025-04-25T11:14:32Z</time>
      </trkpt>
      <trkpt lat="44.571620039641857" lon="2.661959007382393">
        <ele>500.01999999999998</ele>
        <time>2025-04-25T11:14:34Z</time>
      </trkpt>
      <trkpt lat="44.571620039641857" lon="2.662161011248827">
        <ele>499.54000000000002</ele>
        <time>2025-04-25T11:14:35Z</time>
      </trkpt>
      <trkpt lat="44.571644011884928" lon="2.66240400262177">
        <ele>499.06</ele>
        <time>2025-04-25T11:14:36Z</time>
      </trkpt>
      <trkpt lat="44.571682987734675" lon="2.662611035630107">
        <ele>498.10000000000002</ele>
        <time>2025-04-25T11:14:37Z</time>
      </trkpt>
      <trkpt lat="44.571940982714295" lon="2.663690960034728">
        <ele>493.76999999999998</ele>
        <time>2025-04-25T11:14:42Z</time>
      </trkpt>
      <trkpt lat="44.571956992149353" lon="2.663907967507839">
        <ele>492.81</ele>
        <time>2025-04-25T11:14:43Z</time>
      </trkpt>
      <trkpt lat="44.57197199575603" lon="2.66412204131484">
        <ele>491.85000000000002</ele>
        <time>2025-04-25T11:14:44Z</time>
      </trkpt>
      <trkpt lat="44.571986999362707" lon="2.664331002160907">
        <ele>491.37</ele>
        <time>2025-04-25T11:14:45Z</time>
      </trkpt>
      <trkpt lat="44.572002002969384" lon="2.664533006027341">
        <ele>490.41000000000003</ele>
        <time>2025-04-25T11:14:46Z</time>
      </trkpt>
      <trkpt lat="44.572053970769048" lon="2.664736015722156">
        <ele>489.44999999999999</ele>
        <time>2025-04-25T11:14:47Z</time>
      </trkpt>
      <trkpt lat="44.572122031822801" lon="2.664931984618306">
        <ele>488.00999999999999</ele>
        <time>2025-04-25T11:14:48Z</time>
      </trkpt>
      <trkpt lat="44.572193026542664" lon="2.665126025676727">
        <ele>487.05000000000001</ele>
        <time>2025-04-25T11:14:49Z</time>
      </trkpt>
      <trkpt lat="44.572258992120624" lon="2.66530598513782">
        <ele>485.60000000000002</ele>
        <time>2025-04-25T11:14:50Z</time>
      </trkpt>
      <trkpt lat="44.572312971577048" lon="2.66545400954783">
        <ele>484.63999999999999</ele>
        <time>2025-04-25T11:14:51Z</time>
      </trkpt>
      <trkpt lat="44.572327975183725" lon="2.665587030351162">
        <ele>483.19999999999999</ele>
        <time>2025-04-25T11:14:52Z</time>
      </trkpt>
      <trkpt lat="44.572318000718951" lon="2.665724996477366">
        <ele>482.24000000000001</ele>
        <time>2025-04-25T11:14:53Z</time>
      </trkpt>
      <trkpt lat="44.572235019877553" lon="2.665858017280698">
        <ele>480.80000000000001</ele>
        <time>2025-04-25T11:14:54Z</time>
      </trkpt>
      <trkpt lat="44.57214399240911" lon="2.665851982310414">
        <ele>479.83999999999997</ele>
        <time>2025-04-25T11:14:55Z</time>
      </trkpt>
      <trkpt lat="44.572038967162371" lon="2.665846031159163">
        <ele>479.35000000000002</ele>
        <time>2025-04-25T11:14:56Z</time>
      </trkpt>
      <trkpt lat="44.571898989379406" lon="2.665836978703737">
        <ele>477.91000000000003</ele>
        <time>2025-04-25T11:14:57Z</time>
      </trkpt>
      <trkpt lat="44.571807961910963" lon="2.665802026167512">
        <ele>476.94999999999999</ele>
        <time>2025-04-25T11:14:58Z</time>
      </trkpt>
      <trkpt lat="44.570702975615859" lon="2.665343033149838">
        <ele>464.93000000000001</ele>
        <time>2025-04-25T11:15:06Z</time>
      </trkpt>
      <trkpt lat="44.56945801153779" lon="2.664957968518138">
        <ele>453.39999999999998</ele>
        <time>2025-04-25T11:15:13Z</time>
      </trkpt>
      <trkpt lat="44.569319039583206" lon="2.664975989609957">
        <ele>451.48000000000002</ele>
        <time>2025-04-25T11:15:14Z</time>
      </trkpt>
      <trkpt lat="44.569209991022944" lon="2.665105992928147">
        <ele>449.55000000000001</ele>
        <time>2025-04-25T11:15:15Z</time>
      </trkpt>
      <trkpt lat="44.569106977432966" lon="2.665248988196254">
        <ele>448.11000000000001</ele>
        <time>2025-04-25T11:15:16Z</time>
      </trkpt>
      <trkpt lat="44.568994995206594" lon="2.665404975414276">
        <ele>446.67000000000002</ele>
        <time>2025-04-25T11:15:17Z</time>
      </trkpt>
      <trkpt lat="44.568873038515449" lon="2.665574038401246">
        <ele>444.75</ele>
        <time>2025-04-25T11:15:18Z</time>
      </trkpt>
      <trkpt lat="44.568744963034987" lon="2.665750980377197">
        <ele>442.81999999999999</ele>
        <time>2025-04-25T11:15:19Z</time>
      </trkpt>
      <trkpt lat="44.568608002737164" lon="2.6659270003438">
        <ele>440.89999999999998</ele>
        <time>2025-04-25T11:15:20Z</time>
      </trkpt>
      <trkpt lat="44.568269038572907" lon="2.666204022243619">
        <ele>437.54000000000002</ele>
        <time>2025-04-25T11:15:22Z</time>
      </trkpt>
      <trkpt lat="44.568086983636022" lon="2.66629496589303">
        <ele>435.61000000000001</ele>
        <time>2025-04-25T11:15:23Z</time>
      </trkpt>
      <trkpt lat="44.567904006689787" lon="2.666349029168487">
        <ele>433.69</ele>
        <time>2025-04-25T11:15:24Z</time>
      </trkpt>
      <trkpt lat="44.567723041400313" lon="2.666359003633261">
        <ele>431.76999999999998</ele>
        <time>2025-04-25T11:15:25Z</time>
      </trkpt>
      <trkpt lat="44.567538974806666" lon="2.666332013905048">
        <ele>429.85000000000002</ele>
        <time>2025-04-25T11:15:26Z</time>
      </trkpt>
      <trkpt lat="44.567355997860432" lon="2.666305024176836">
        <ele>427.92000000000002</ele>
        <time>2025-04-25T11:15:27Z</time>
      </trkpt>
      <trkpt lat="44.566976968199015" lon="2.666250038892031">
        <ele>423.60000000000002</ele>
        <time>2025-04-25T11:15:29Z</time>
      </trkpt>
      <trkpt lat="44.5667739585042" lon="2.666264958679676">
        <ele>421.19</ele>
        <time>2025-04-25T11:15:30Z</time>
      </trkpt>
      <trkpt lat="44.566568015143275" lon="2.666290020570159">
        <ele>419.26999999999998</ele>
        <time>2025-04-25T11:15:31Z</time>
      </trkpt>
      <trkpt lat="44.565275022760034" lon="2.666409965604544">
        <ele>404.85000000000002</ele>
        <time>2025-04-25T11:15:37Z</time>
      </trkpt>
      <trkpt lat="44.5650730188936" lon="2.666354980319738">
        <ele>402.93000000000001</ele>
        <time>2025-04-25T11:15:38Z</time>
      </trkpt>
      <trkpt lat="44.564867997542024" lon="2.666298989206553">
        <ele>400.52999999999997</ele>
        <time>2025-04-25T11:15:39Z</time>
      </trkpt>
      <trkpt lat="44.56389200873673" lon="2.665943009778857">
        <ele>390.91000000000003</ele>
        <time>2025-04-25T11:15:44Z</time>
      </trkpt>
      <trkpt lat="44.563716994598508" lon="2.665837984532118">
        <ele>389.47000000000003</ele>
        <time>2025-04-25T11:15:45Z</time>
      </trkpt>
      <trkpt lat="44.563146019354463" lon="2.665456021204591">
        <ele>382.74000000000001</ele>
        <time>2025-04-25T11:15:49Z</time>
      </trkpt>
      <trkpt lat="44.563015010207891" lon="2.665386032313108">
        <ele>381.30000000000001</ele>
        <time>2025-04-25T11:15:50Z</time>
      </trkpt>
      <trkpt lat="44.562868997454643" lon="2.665386032313108">
        <ele>379.86000000000001</ele>
        <time>2025-04-25T11:15:51Z</time>
      </trkpt>
      <trkpt lat="44.562717033550143" lon="2.665392989292741">
        <ele>377.94</ele>
        <time>2025-04-25T11:15:52Z</time>
      </trkpt>
      <trkpt lat="44.562564985826612" lon="2.665404975414276">
        <ele>376.49000000000001</ele>
        <time>2025-04-25T11:15:53Z</time>
      </trkpt>
      <trkpt lat="44.562284024432302" lon="2.665427019819617">
        <ele>373.13</ele>
        <time>2025-04-25T11:15:55Z</time>
      </trkpt>
      <trkpt lat="44.562159972265363" lon="2.665367005392909">
        <ele>371.20999999999998</ele>
        <time>2025-04-25T11:15:56Z</time>
      </trkpt>
      <trkpt lat="44.562053019180894" lon="2.66526198014617">
        <ele>369.75999999999999</ele>
        <time>2025-04-25T11:15:57Z</time>
      </trkpt>
      <trkpt lat="44.561941036954522" lon="2.665148992091417">
        <ele>367.83999999999997</ele>
        <time>2025-04-25T11:15:58Z</time>
      </trkpt>
      <trkpt lat="44.561818996444345" lon="2.665027035400271">
        <ele>366.88</ele>
        <time>2025-04-25T11:15:59Z</time>
      </trkpt>
      <trkpt lat="44.561686981469393" lon="2.664968026801944">
        <ele>365.44</ele>
        <time>2025-04-25T11:16:00Z</time>
      </trkpt>
      <trkpt lat="44.561541974544525" lon="2.66493902541697">
        <ele>364</ele>
        <time>2025-04-25T11:16:01Z</time>
      </trkpt>
      <trkpt lat="44.561376012861729" lon="2.664954029023647">
        <ele>363.04000000000002</ele>
        <time>2025-04-25T11:16:02Z</time>
      </trkpt>
      <trkpt lat="44.561211979016662" lon="2.665008008480072">
        <ele>362.06999999999999</ele>
        <time>2025-04-25T11:16:03Z</time>
      </trkpt>
      <trkpt lat="44.561042999848723" lon="2.665073974058032">
        <ele>360.63</ele>
        <time>2025-04-25T11:16:04Z</time>
      </trkpt>
      <trkpt lat="44.560879971832037" lon="2.665137005969882">
        <ele>359.67000000000002</ele>
        <time>2025-04-25T11:16:05Z</time>
      </trkpt>
      <trkpt lat="44.560746029019356" lon="2.665250999853015">
        <ele>358.23000000000002</ele>
        <time>2025-04-25T11:16:06Z</time>
      </trkpt>
      <trkpt lat="44.56060697324574" lon="2.66539097763598">
        <ele>356.79000000000002</ele>
        <time>2025-04-25T11:16:07Z</time>
      </trkpt>
      <trkpt lat="44.560472024604678" lon="2.665545959025621">
        <ele>355.33999999999997</ele>
        <time>2025-04-25T11:16:08Z</time>
      </trkpt>
      <trkpt lat="44.559544986113906" lon="2.666922016069293">
        <ele>344.76999999999998</ele>
        <time>2025-04-25T11:16:15Z</time>
      </trkpt>
      <trkpt lat="44.558735964819789" lon="2.668805010616779">
        <ele>333.70999999999998</ele>
        <time>2025-04-25T11:16:23Z</time>
      </trkpt>
      <trkpt lat="44.558203965425491" lon="2.669740011915565">
        <ele>325.06</ele>
        <time>2025-04-25T11:16:29Z</time>
      </trkpt>
      <trkpt lat="44.557878999039531" lon="2.670178972184658">
        <ele>319.77999999999997</ele>
        <time>2025-04-25T11:16:34Z</time>
      </trkpt>
      <trkpt lat="44.557399973273277" lon="2.67054601572454">
        <ele>314.97000000000003</ele>
        <time>2025-04-25T11:16:40Z</time>
      </trkpt>
      <trkpt lat="44.557306012138724" lon="2.670580968260765">
        <ele>314.49000000000001</ele>
        <time>2025-04-25T11:16:41Z</time>
      </trkpt>
      <trkpt lat="44.55721297301352" lon="2.670614998787642">
        <ele>314.49000000000001</ele>
        <time>2025-04-25T11:16:42Z</time>
      </trkpt>
      <trkpt lat="44.557119011878967" lon="2.670647017657757">
        <ele>314.49000000000001</ele>
        <time>2025-04-25T11:16:43Z</time>
      </trkpt>
      <trkpt lat="44.557028990238905" lon="2.670664032921195">
        <ele>314.49000000000001</ele>
        <time>2025-04-25T11:16:44Z</time>
      </trkpt>
      <trkpt lat="44.556943997740746" lon="2.670680964365602">
        <ele>314.49000000000001</ele>
        <time>2025-04-25T11:16:45Z</time>
      </trkpt>
      <trkpt lat="44.556366987526417" lon="2.670894032344222">
        <ele>313.05000000000001</ele>
        <time>2025-04-25T11:16:54Z</time>
      </trkpt>
      <trkpt lat="44.556345026940107" lon="2.670909035950899">
        <ele>312.56999999999999</ele>
        <time>2025-04-25T11:17:03Z</time>
      </trkpt>
      <trkpt lat="44.556345026940107" lon="2.670909035950899">
        <ele>312.56999999999999</ele>
        <time>2025-04-25T11:17:49Z</time>
      </trkpt>
      <trkpt lat="44.556345026940107" lon="2.670909035950899">
        <ele>313.05000000000001</ele>
        <time>2025-04-25T11:18:30Z</time>
      </trkpt>
      <trkpt lat="44.556113015860319" lon="2.671069968491793">
        <ele>314.00999999999999</ele>
        <time>2025-04-25T11:18:35Z</time>
      </trkpt>
      <trkpt lat="44.555916041135788" lon="2.671209024265409">
        <ele>313.52999999999997</ele>
        <time>2025-04-25T11:18:39Z</time>
      </trkpt>
      <trkpt lat="44.555867007002234" lon="2.671242970973253">
        <ele>313.52999999999997</ele>
        <time>2025-04-25T11:18:40Z</time>
      </trkpt>
      <trkpt lat="44.55564497038722" lon="2.671399964019656">
        <ele>312.56999999999999</ele>
        <time>2025-04-25T11:18:45Z</time>
      </trkpt>
      <trkpt lat="44.55555603839457" lon="2.671462995931506">
        <ele>312.56999999999999</ele>
        <time>2025-04-25T11:18:47Z</time>
      </trkpt>
      <trkpt lat="44.555513961240649" lon="2.67149300314486">
        <ele>312.08999999999997</ele>
        <time>2025-04-25T11:18:48Z</time>
      </trkpt>
      <trkpt lat="44.555370965972543" lon="2.671575983986259">
        <ele>312.08999999999997</ele>
        <time>2025-04-25T11:18:51Z</time>
      </trkpt>
      <trkpt lat="44.555325033143163" lon="2.671597022563219">
        <ele>312.08999999999997</ele>
        <time>2025-04-25T11:18:52Z</time>
      </trkpt>
      <trkpt lat="44.555270969867706" lon="2.67162099480629">
        <ele>312.08999999999997</ele>
        <time>2025-04-25T11:18:53Z</time>
      </trkpt>
      <trkpt lat="44.555119005963206" lon="2.671672962605953">
        <ele>312.56999999999999</ele>
        <time>2025-04-25T11:18:56Z</time>
      </trkpt>
      <trkpt lat="44.554942985996604" lon="2.671715039759874">
        <ele>312.56999999999999</ele>
        <time>2025-04-25T11:18:59Z</time>
      </trkpt>
      <trkpt lat="44.554894035682082" lon="2.671732977032661">
        <ele>312.56999999999999</ele>
        <time>2025-04-25T11:19:00Z</time>
      </trkpt>
      <trkpt lat="44.554882971569896" lon="2.671738006174564">
        <ele>312.56999999999999</ele>
        <time>2025-04-25T11:19:01Z</time>
      </trkpt>
      <trkpt lat="44.554882971569896" lon="2.671738006174564">
        <ele>312.56999999999999</ele>
        <time>2025-04-25T11:19:02Z</time>
      </trkpt>
      <trkpt lat="44.554773001000285" lon="2.671846970915794">
        <ele>312.08999999999997</ele>
        <time>2025-04-25T11:19:03Z</time>
      </trkpt>
      <trkpt lat="44.554727990180254" lon="2.671891981735826">
        <ele>312.08999999999997</ele>
        <time>2025-04-25T11:19:04Z</time>
      </trkpt>
      <trkpt lat="44.554671999067068" lon="2.671939004212618">
        <ele>312.08999999999997</ele>
        <time>2025-04-25T11:19:05Z</time>
      </trkpt>
      <trkpt lat="44.554625982418656" lon="2.671973034739494">
        <ele>312.08999999999997</ele>
        <time>2025-04-25T11:19:06Z</time>
      </trkpt>
      <trkpt lat="44.554538978263736" lon="2.672037994489074">
        <ele>312.56999999999999</ele>
        <time>2025-04-25T11:19:07Z</time>
      </trkpt>
      <trkpt lat="44.554545013234019" lon="2.672033971175551">
        <ele>312.56999999999999</ele>
        <time>2025-04-25T11:19:08Z</time>
      </trkpt>
      <trkpt lat="44.554465971887112" lon="2.672052998095751">
        <ele>312.56999999999999</ele>
        <time>2025-04-25T11:19:09Z</time>
      </trkpt>
      <trkpt lat="44.554362036287785" lon="2.672073030844331">
        <ele>312.56999999999999</ele>
        <time>2025-04-25T11:19:11Z</time>
      </trkpt>
      <trkpt lat="44.554257011041045" lon="2.67209499143064">
        <ele>312.56999999999999</ele>
        <time>2025-04-25T11:19:13Z</time>
      </trkpt>
      <trkpt lat="44.554196996614337" lon="2.672103960067034">
        <ele>312.56999999999999</ele>
        <time>2025-04-25T11:19:14Z</time>
      </trkpt>
      <trkpt lat="44.553687963634729" lon="2.672175960615277">
        <ele>313.52999999999997</ele>
        <time>2025-04-25T11:19:24Z</time>
      </trkpt>
      <trkpt lat="44.553500041365623" lon="2.672188030555844">
        <ele>313.52999999999997</ele>
        <time>2025-04-25T11:19:33Z</time>
      </trkpt>
      <trkpt lat="44.553480008617043" lon="2.672188030555844">
        <ele>313.52999999999997</ele>
        <time>2025-04-25T11:19:41Z</time>
      </trkpt>
      <trkpt lat="44.55347397364676" lon="2.672131033614278">
        <ele>313.52999999999997</ele>
        <time>2025-04-25T11:19:42Z</time>
      </trkpt>
      <trkpt lat="44.553479002788663" lon="2.672095997259021">
        <ele>313.52999999999997</ele>
        <time>2025-04-25T11:19:43Z</time>
      </trkpt>
      <trkpt lat="44.553486965596676" lon="2.672035982832313">
        <ele>313.05000000000001</ele>
        <time>2025-04-25T11:19:44Z</time>
      </trkpt>
      <trkpt lat="44.553495012223721" lon="2.671975968405604">
        <ele>313.52999999999997</ele>
        <time>2025-04-25T11:19:45Z</time>
      </trkpt>
      <trkpt lat="44.553509010002017" lon="2.671865997835994">
        <ele>313.05000000000001</ele>
        <time>2025-04-25T11:19:46Z</time>
      </trkpt>
      <trkpt lat="44.553424017503858" lon="2.671865997835994">
        <ele>313.52999999999997</ele>
        <time>2025-04-25T11:19:47Z</time>
      </trkpt>
      <trkpt lat="44.553378000855446" lon="2.671865997835994">
        <ele>313.52999999999997</ele>
        <time>2025-04-25T11:19:48Z</time>
      </trkpt>
      <trkpt lat="44.553327960893512" lon="2.671869015321136">
        <ele>313.52999999999997</ele>
        <time>2025-04-25T11:19:49Z</time>
      </trkpt>
      <trkpt lat="44.55327901057899" lon="2.671881001442671">
        <ele>314.00999999999999</ele>
        <time>2025-04-25T11:19:50Z</time>
      </trkpt>
      <trkpt lat="44.553126962855458" lon="2.671916959807277">
        <ele>314.49000000000001</ele>
        <time>2025-04-25T11:19:53Z</time>
      </trkpt>
      <trkpt lat="44.553076000884175" lon="2.671929029747844">
        <ele>314.49000000000001</ele>
        <time>2025-04-25T11:19:54Z</time>
      </trkpt>
      <trkpt lat="44.552741982042789" lon="2.6720089931041">
        <ele>316.41000000000003</ele>
        <time>2025-04-25T11:20:00Z</time>
      </trkpt>
      <trkpt lat="44.552696971222758" lon="2.672019973397255">
        <ele>316.41000000000003</ele>
        <time>2025-04-25T11:20:01Z</time>
      </trkpt>
      <trkpt lat="44.552653972059488" lon="2.672030031681061">
        <ele>316.88999999999999</ele>
        <time>2025-04-25T11:20:02Z</time>
      </trkpt>
      <trkpt lat="44.552608961239457" lon="2.672040006145835">
        <ele>317.37</ele>
        <time>2025-04-25T11:20:03Z</time>
      </trkpt>
      <trkpt lat="44.552569985389709" lon="2.672048974782229">
        <ele>317.85000000000002</ele>
        <time>2025-04-25T11:20:04Z</time>
      </trkpt>
      <trkpt lat="44.552515000104904" lon="2.672061966732144">
        <ele>318.81</ele>
        <time>2025-04-25T11:20:11Z</time>
      </trkpt>
      <trkpt lat="44.552200008183718" lon="2.672102032229304">
        <ele>319.30000000000001</ele>
        <time>2025-04-25T11:20:19Z</time>
      </trkpt>
      <trkpt lat="44.552653972059488" lon="2.672184007242322">
        <ele>320.25999999999999</ele>
        <time>2025-04-25T11:21:52Z</time>
      </trkpt>
      <trkpt lat="44.552506031468511" lon="2.672047968953848">
        <ele>326.99000000000001</ele>
        <time>2025-04-25T11:22:30Z</time>
      </trkpt>
      <trkpt lat="44.552491027861834" lon="2.671982003375888">
        <ele>323.13999999999999</ele>
        <time>2025-04-25T11:23:16Z</time>
      </trkpt>
      <trkpt lat="44.552487004548311" lon="2.671956019476056">
        <ele>324.10000000000002</ele>
        <time>2025-04-25T11:23:58Z</time>
      </trkpt>
      <trkpt lat="44.552493039518595" lon="2.671961970627308">
        <ele>324.57999999999998</ele>
        <time>2025-04-25T11:24:57Z</time>
      </trkpt>
      <trkpt lat="44.552490022033453" lon="2.671963982284069">
        <ele>324.10000000000002</ele>
        <time>2025-04-25T11:25:45Z</time>
      </trkpt>
      <trkpt lat="44.552435958757997" lon="2.672080993652344">
        <ele>323.62</ele>
        <time>2025-04-25T11:25:47Z</time>
      </trkpt>
      <trkpt lat="44.552435958757997" lon="2.672080993652344">
        <ele>323.13999999999999</ele>
        <time>2025-04-25T11:25:48Z</time>
      </trkpt>
      <trkpt lat="44.552430007606745" lon="2.672080993652344">
        <ele>323.13999999999999</ele>
        <time>2025-04-25T11:25:49Z</time>
      </trkpt>
      <trkpt lat="44.552458003163338" lon="2.672231029719114">
        <ele>323.13999999999999</ele>
        <time>2025-04-25T11:25:50Z</time>
      </trkpt>
      <trkpt lat="44.552448028698564" lon="2.672163974493742">
        <ele>323.13999999999999</ele>
        <time>2025-04-25T11:25:51Z</time>
      </trkpt>
      <trkpt lat="44.552458003163338" lon="2.672255001962185">
        <ele>322.66000000000003</ele>
        <time>2025-04-25T11:25:52Z</time>
      </trkpt>
      <trkpt lat="44.552458003163338" lon="2.672445019707084">
        <ele>322.66000000000003</ele>
        <time>2025-04-25T11:25:54Z</time>
      </trkpt>
      <trkpt lat="44.552427995949984" lon="2.673350013792515">
        <ele>320.74000000000001</ele>
        <time>2025-04-25T11:26:02Z</time>
      </trkpt>
      <trkpt lat="44.552347026765347" lon="2.673767013475299">
        <ele>319.77999999999997</ele>
        <time>2025-04-25T11:26:05Z</time>
      </trkpt>
      <trkpt lat="44.552304027602077" lon="2.673895005136728">
        <ele>319.30000000000001</ele>
        <time>2025-04-25T11:26:06Z</time>
      </trkpt>
      <trkpt lat="44.552240995690227" lon="2.674008999019861">
        <ele>319.30000000000001</ele>
        <time>2025-04-25T11:26:07Z</time>
      </trkpt>
      <trkpt lat="44.5521629601717" lon="2.674116035923362">
        <ele>318.81</ele>
        <time>2025-04-25T11:26:08Z</time>
      </trkpt>
      <trkpt lat="44.552078973501921" lon="2.674231035634875">
        <ele>318.32999999999998</ele>
        <time>2025-04-25T11:26:09Z</time>
      </trkpt>
      <trkpt lat="44.551993981003761" lon="2.674347963184118">
        <ele>317.85000000000002</ele>
        <time>2025-04-25T11:26:10Z</time>
      </trkpt>
      <trkpt lat="44.551831036806107" lon="2.674560025334358">
        <ele>317.37</ele>
        <time>2025-04-25T11:26:12Z</time>
      </trkpt>
      <trkpt lat="44.551252014935017" lon="2.675333004444838">
        <ele>315.93000000000001</ele>
        <time>2025-04-25T11:26:18Z</time>
      </trkpt>
      <trkpt lat="44.551182026043534" lon="2.675507012754679">
        <ele>315.93000000000001</ele>
        <time>2025-04-25T11:26:19Z</time>
      </trkpt>
      <trkpt lat="44.551060991361737" lon="2.675899034366012">
        <ele>315.44999999999999</ele>
        <time>2025-04-25T11:26:21Z</time>
      </trkpt>
      <trkpt lat="44.551000976935029" lon="2.676095003262162">
        <ele>315.44999999999999</ele>
        <time>2025-04-25T11:26:22Z</time>
      </trkpt>
      <trkpt lat="44.55080701969564" lon="2.676667990162969">
        <ele>315.44999999999999</ele>
        <time>2025-04-25T11:26:25Z</time>
      </trkpt>
      <trkpt lat="44.550709035247564" lon="2.676854990422726">
        <ele>315.44999999999999</ele>
        <time>2025-04-25T11:26:26Z</time>
      </trkpt>
      <trkpt lat="44.550237972289324" lon="2.677579019218683">
        <ele>315.93000000000001</ele>
        <time>2025-04-25T11:26:30Z</time>
      </trkpt>
      <trkpt lat="44.550109980627894" lon="2.677754033356905">
        <ele>315.93000000000001</ele>
        <time>2025-04-25T11:26:31Z</time>
      </trkpt>
      <trkpt lat="44.549163999035954" lon="2.678728010505438">
        <ele>316.41000000000003</ele>
        <time>2025-04-25T11:26:38Z</time>
      </trkpt>
      <trkpt lat="44.549064002931118" lon="2.678902018815279">
        <ele>316.88999999999999</ele>
        <time>2025-04-25T11:26:39Z</time>
      </trkpt>
      <trkpt lat="44.548963000997901" lon="2.679077032953501">
        <ele>316.88999999999999</ele>
        <time>2025-04-25T11:26:40Z</time>
      </trkpt>
      <trkpt lat="44.548791004344821" lon="2.679452961310744">
        <ele>317.37</ele>
        <time>2025-04-25T11:26:42Z</time>
      </trkpt>
      <trkpt lat="44.548731995746493" lon="2.679667035117745">
        <ele>317.37</ele>
        <time>2025-04-25T11:26:43Z</time>
      </trkpt>
      <trkpt lat="44.548685979098082" lon="2.679879013448954">
        <ele>317.85000000000002</ele>
        <time>2025-04-25T11:26:44Z</time>
      </trkpt>
      <trkpt lat="44.548589000478387" lon="2.680769003927708">
        <ele>318.32999999999998</ele>
        <time>2025-04-25T11:26:48Z</time>
      </trkpt>
      <trkpt lat="44.548609033226967" lon="2.680997997522354">
        <ele>318.32999999999998</ele>
        <time>2025-04-25T11:26:49Z</time>
      </trkpt>
      <trkpt lat="44.548653038218617" lon="2.681235037744045">
        <ele>318.81</ele>
        <time>2025-04-25T11:26:50Z</time>
      </trkpt>
      <trkpt lat="44.548916984349489" lon="2.68217196688056">
        <ele>319.30000000000001</ele>
        <time>2025-04-25T11:26:54Z</time>
      </trkpt>
      <trkpt lat="44.548994014039636" lon="2.682391991838813">
        <ele>319.30000000000001</ele>
        <time>2025-04-25T11:26:55Z</time>
      </trkpt>
      <trkpt lat="44.549139020964503" lon="2.682801028713584">
        <ele>319.77999999999997</ele>
        <time>2025-04-25T11:26:57Z</time>
      </trkpt>
      <trkpt lat="44.549206998199224" lon="2.682993980124593">
        <ele>320.25999999999999</ele>
        <time>2025-04-25T11:26:58Z</time>
      </trkpt>
      <trkpt lat="44.549229964613914" lon="2.683210987597704">
        <ele>320.25999999999999</ele>
        <time>2025-04-25T11:26:59Z</time>
      </trkpt>
      <trkpt lat="44.549243962392211" lon="2.683435035869479">
        <ele>320.25999999999999</ele>
        <time>2025-04-25T11:27:00Z</time>
      </trkpt>
      <trkpt lat="44.549258965998888" lon="2.683670986443758">
        <ele>320.74000000000001</ele>
        <time>2025-04-25T11:27:01Z</time>
      </trkpt>
      <trkpt lat="44.54932602122426" lon="2.68440498970449">
        <ele>322.66000000000003</ele>
        <time>2025-04-25T11:27:04Z</time>
      </trkpt>
      <trkpt lat="44.549443032592535" lon="2.68569303676486">
        <ele>325.06</ele>
        <time>2025-04-25T11:27:10Z</time>
      </trkpt>
      <trkpt lat="44.549431968480349" lon="2.685904009267688">
        <ele>325.54000000000002</ele>
        <time>2025-04-25T11:27:11Z</time>
      </trkpt>
      <trkpt lat="44.5494120195508" lon="2.686344981193543">
        <ele>326.5</ele>
        <time>2025-04-25T11:27:13Z</time>
      </trkpt>
      <trkpt lat="44.549430962651968" lon="2.686557965353131">
        <ele>326.99000000000001</ele>
        <time>2025-04-25T11:27:14Z</time>
      </trkpt>
      <trkpt lat="44.549449989572167" lon="2.686769021674991">
        <ele>326.99000000000001</ele>
        <time>2025-04-25T11:27:15Z</time>
      </trkpt>
      <trkpt lat="44.549468010663986" lon="2.686978988349438">
        <ele>327.47000000000003</ele>
        <time>2025-04-25T11:27:16Z</time>
      </trkpt>
      <trkpt lat="44.54945501871407" lon="2.68719700165093">
        <ele>327.94999999999999</ele>
        <time>2025-04-25T11:27:17Z</time>
      </trkpt>
      <trkpt lat="44.549426017329097" lon="2.687386013567448">
        <ele>327.94999999999999</ele>
        <time>2025-04-25T11:27:18Z</time>
      </trkpt>
      <trkpt lat="44.549375977367163" lon="2.687546024098992">
        <ele>328.43000000000001</ele>
        <time>2025-04-25T11:27:19Z</time>
      </trkpt>
      <trkpt lat="44.549308000132442" lon="2.687659012153745">
        <ele>328.43000000000001</ele>
        <time>2025-04-25T11:27:20Z</time>
      </trkpt>
      <trkpt lat="44.549204986542463" lon="2.687733024358749">
        <ele>328.43000000000001</ele>
        <time>2025-04-25T11:27:21Z</time>
      </trkpt>
      <trkpt lat="44.549099039286375" lon="2.687775017693639">
        <ele>328.43000000000001</ele>
        <time>2025-04-25T11:27:22Z</time>
      </trkpt>
      <trkpt lat="44.54896098934114" lon="2.687759008258581">
        <ele>328.43000000000001</ele>
        <time>2025-04-25T11:27:23Z</time>
      </trkpt>
      <trkpt lat="44.548815982416272" lon="2.687712991610169">
        <ele>328.43000000000001</ele>
        <time>2025-04-25T11:27:24Z</time>
      </trkpt>
      <trkpt lat="44.548682039603591" lon="2.687618024647236">
        <ele>327.94999999999999</ele>
        <time>2025-04-25T11:27:25Z</time>
      </trkpt>
      <trkpt lat="44.548537032678723" lon="2.687516016885638">
        <ele>327.94999999999999</ele>
        <time>2025-04-25T11:27:26Z</time>
      </trkpt>
      <trkpt lat="44.548395965248346" lon="2.687384001910687">
        <ele>327.94999999999999</ele>
        <time>2025-04-25T11:27:27Z</time>
      </trkpt>
      <trkpt lat="44.548155991360545" lon="2.687076972797513">
        <ele>328.43000000000001</ele>
        <time>2025-04-25T11:27:29Z</time>
      </trkpt>
      <trkpt lat="44.548049960285425" lon="2.686901036649942">
        <ele>328.43000000000001</ele>
        <time>2025-04-25T11:27:30Z</time>
      </trkpt>
      <trkpt lat="44.54741301946342" lon="2.685159025713801">
        <ele>326.99000000000001</ele>
        <time>2025-04-25T11:27:38Z</time>
      </trkpt>
      <trkpt lat="44.547344958409667" lon="2.684930032119155">
        <ele>326.99000000000001</ele>
        <time>2025-04-25T11:27:39Z</time>
      </trkpt>
      <trkpt lat="44.546995013952255" lon="2.683552969247103">
        <ele>327.47000000000003</ele>
        <time>2025-04-25T11:27:45Z</time>
      </trkpt>
      <trkpt lat="44.546890994533896" lon="2.683360017836094">
        <ele>327.94999999999999</ele>
        <time>2025-04-25T11:27:46Z</time>
      </trkpt>
      <trkpt lat="44.546775994822383" lon="2.683174023404717">
        <ele>328.43000000000001</ele>
        <time>2025-04-25T11:27:47Z</time>
      </trkpt>
      <trkpt lat="44.546664012596011" lon="2.682989034801722">
        <ele>328.43000000000001</ele>
        <time>2025-04-25T11:27:48Z</time>
      </trkpt>
      <trkpt lat="44.546574996784329" lon="2.682789964601398">
        <ele>328.91000000000003</ele>
        <time>2025-04-25T11:27:49Z</time>
      </trkpt>
      <trkpt lat="44.546499978750944" lon="2.682586032897234">
        <ele>329.38999999999999</ele>
        <time>2025-04-25T11:27:50Z</time>
      </trkpt>
      <trkpt lat="44.54642403870821" lon="2.682380005717278">
        <ele>329.87</ele>
        <time>2025-04-25T11:27:51Z</time>
      </trkpt>
      <trkpt lat="44.546269979327917" lon="2.681966023519635">
        <ele>331.31</ele>
        <time>2025-04-25T11:27:53Z</time>
      </trkpt>
      <trkpt lat="44.546154979616404" lon="2.681828979402781">
        <ele>331.79000000000002</ele>
        <time>2025-04-25T11:27:54Z</time>
      </trkpt>
      <trkpt lat="44.546023970469832" lon="2.681767959147692">
        <ele>332.26999999999998</ele>
        <time>2025-04-25T11:27:55Z</time>
      </trkpt>
      <trkpt lat="44.545873012393713" lon="2.681720014661551">
        <ele>332.75</ele>
        <time>2025-04-25T11:27:56Z</time>
      </trkpt>
      <trkpt lat="44.545719036832452" lon="2.681670980527997">
        <ele>332.75</ele>
        <time>2025-04-25T11:27:57Z</time>
      </trkpt>
      <trkpt lat="44.544698037207127" lon="2.681734012439847">
        <ele>333.23000000000002</ele>
        <time>2025-04-25T11:28:04Z</time>
      </trkpt>
      <trkpt lat="44.544193027541041" lon="2.681810958310962">
        <ele>331.31</ele>
        <time>2025-04-25T11:28:08Z</time>
      </trkpt>
      <trkpt lat="44.544086996465921" lon="2.681882036849856">
        <ele>330.35000000000002</ele>
        <time>2025-04-25T11:28:09Z</time>
      </trkpt>
      <trkpt lat="44.543981971219182" lon="2.681952025741339">
        <ele>329.87</ele>
        <time>2025-04-25T11:28:10Z</time>
      </trkpt>
      <trkpt lat="44.543910976499319" lon="2.682072976604104">
        <ele>328.91000000000003</ele>
        <time>2025-04-25T11:28:11Z</time>
      </trkpt>
      <trkpt lat="44.543834030628204" lon="2.682205997407436">
        <ele>328.43000000000001</ele>
        <time>2025-04-25T11:28:12Z</time>
      </trkpt>
      <trkpt lat="44.543787008151412" lon="2.682349998503923">
        <ele>327.94999999999999</ele>
        <time>2025-04-25T11:28:13Z</time>
      </trkpt>
      <trkpt lat="44.543737974017859" lon="2.682501040399075">
        <ele>327.47000000000003</ele>
        <time>2025-04-25T11:28:14Z</time>
      </trkpt>
      <trkpt lat="44.543687012046576" lon="2.682659039273858">
        <ele>327.47000000000003</ele>
        <time>2025-04-25T11:28:15Z</time>
      </trkpt>
      <trkpt lat="44.543636972084641" lon="2.682820977643132">
        <ele>326.99000000000001</ele>
        <time>2025-04-25T11:28:16Z</time>
      </trkpt>
      <trkpt lat="44.543601013720036" lon="2.68300998955965">
        <ele>326.99000000000001</ele>
        <time>2025-04-25T11:28:17Z</time>
      </trkpt>
      <trkpt lat="44.543553991243243" lon="2.683209981769323">
        <ele>326.99000000000001</ele>
        <time>2025-04-25T11:28:18Z</time>
      </trkpt>
      <trkpt lat="44.543485008180141" lon="2.683394970372319">
        <ele>326.99000000000001</ele>
        <time>2025-04-25T11:28:19Z</time>
      </trkpt>
      <trkpt lat="44.54341703094542" lon="2.683579036965966">
        <ele>326.99000000000001</ele>
        <time>2025-04-25T11:28:20Z</time>
      </trkpt>
      <trkpt lat="44.542808001860976" lon="2.684922991320491">
        <ele>331.79000000000002</ele>
        <time>2025-04-25T11:28:28Z</time>
      </trkpt>
      <trkpt lat="44.542413968592882" lon="2.68543504178524">
        <ele>334.19999999999999</ele>
        <time>2025-04-25T11:28:32Z</time>
      </trkpt>
      <trkpt lat="44.542299974709749" lon="2.685491032898426">
        <ele>334.68000000000001</ele>
        <time>2025-04-25T11:28:33Z</time>
      </trkpt>
      <trkpt lat="44.542180029675364" lon="2.685487009584904">
        <ele>335.63999999999999</ele>
        <time>2025-04-25T11:28:34Z</time>
      </trkpt>
      <trkpt lat="44.541020980104804" lon="2.685428000986576">
        <ele>340.44</ele>
        <time>2025-04-25T11:28:44Z</time>
      </trkpt>
      <trkpt lat="44.540934981778264" lon="2.685449039563537">
        <ele>340.44</ele>
        <time>2025-04-25T11:28:45Z</time>
      </trkpt>
      <trkpt lat="44.540843032300472" lon="2.685550041496754">
        <ele>340.92000000000002</ele>
        <time>2025-04-25T11:28:46Z</time>
      </trkpt>
      <trkpt lat="44.540749993175268" lon="2.685650959610939">
        <ele>340.92000000000002</ele>
        <time>2025-04-25T11:28:47Z</time>
      </trkpt>
      <trkpt lat="44.540663994848728" lon="2.685763025656343">
        <ele>341.41000000000003</ele>
        <time>2025-04-25T11:28:48Z</time>
      </trkpt>
      <trkpt lat="44.540579002350569" lon="2.685904009267688">
        <ele>341.41000000000003</ele>
        <time>2025-04-25T11:28:49Z</time>
      </trkpt>
      <trkpt lat="44.540140964090824" lon="2.686479007825255">
        <ele>342.37</ele>
        <time>2025-04-25T11:28:53Z</time>
      </trkpt>
      <trkpt lat="44.539989000186324" lon="2.68659501336515">
        <ele>342.37</ele>
        <time>2025-04-25T11:28:54Z</time>
      </trkpt>
      <trkpt lat="44.538771025836468" lon="2.687529008835554">
        <ele>343.32999999999998</ele>
        <time>2025-04-25T11:29:03Z</time>
      </trkpt>
      <trkpt lat="44.53866801224649" lon="2.687643002718687">
        <ele>343.81</ele>
        <time>2025-04-25T11:29:04Z</time>
      </trkpt>
      <trkpt lat="44.53856198117137" lon="2.687765965238214">
        <ele>343.81</ele>
        <time>2025-04-25T11:29:05Z</time>
      </trkpt>
      <trkpt lat="44.53772203065455" lon="2.689100028946996">
        <ele>346.20999999999998</ele>
        <time>2025-04-25T11:29:13Z</time>
      </trkpt>
      <trkpt lat="44.537599990144372" lon="2.689241012558341">
        <ele>346.69</ele>
        <time>2025-04-25T11:29:14Z</time>
      </trkpt>
      <trkpt lat="44.537468980997801" lon="2.689378978684545">
        <ele>347.17000000000002</ele>
        <time>2025-04-25T11:29:15Z</time>
      </trkpt>
      <trkpt lat="44.536291994154453" lon="2.690519001334906">
        <ele>350.06</ele>
        <time>2025-04-25T11:29:24Z</time>
      </trkpt>
      <trkpt lat="44.535003025084734" lon="2.691836971789599">
        <ele>357.26999999999998</ele>
        <time>2025-04-25T11:29:34Z</time>
      </trkpt>
      <trkpt lat="44.534464990720153" lon="2.692220024764538">
        <ele>360.63</ele>
        <time>2025-04-25T11:29:38Z</time>
      </trkpt>
      <trkpt lat="44.534339010715485" lon="2.692260006442666">
        <ele>361.58999999999997</ele>
        <time>2025-04-25T11:29:39Z</time>
      </trkpt>
      <trkpt lat="44.534212024882436" lon="2.692275010049343">
        <ele>362.55000000000001</ele>
        <time>2025-04-25T11:29:40Z</time>
      </trkpt>
      <trkpt lat="44.534085961058736" lon="2.69228900782764">
        <ele>363.04000000000002</ele>
        <time>2025-04-25T11:29:41Z</time>
      </trkpt>
      <trkpt lat="44.533971967175603" lon="2.692368971183896">
        <ele>363.51999999999998</ele>
        <time>2025-04-25T11:29:42Z</time>
      </trkpt>
      <trkpt lat="44.533863002434373" lon="2.692478019744158">
        <ele>364.48000000000002</ele>
        <time>2025-04-25T11:29:43Z</time>
      </trkpt>
      <trkpt lat="44.53374900855124" lon="2.692592013627291">
        <ele>364.95999999999998</ele>
        <time>2025-04-25T11:29:44Z</time>
      </trkpt>
      <trkpt lat="44.533652029931545" lon="2.692695027217269">
        <ele>365.92000000000002</ele>
        <time>2025-04-25T11:29:45Z</time>
      </trkpt>
      <trkpt lat="44.533564019948244" lon="2.692851014435291">
        <ele>366.88</ele>
        <time>2025-04-25T11:29:46Z</time>
      </trkpt>
      <trkpt lat="44.533478021621704" lon="2.69299996085465">
        <ele>367.83999999999997</ele>
        <time>2025-04-25T11:29:47Z</time>
      </trkpt>
      <trkpt lat="44.533403003588319" lon="2.693130970001221">
        <ele>368.80000000000001</ele>
        <time>2025-04-25T11:29:48Z</time>
      </trkpt>
      <trkpt lat="44.533372996374965" lon="2.6933219935745">
        <ele>369.75999999999999</ele>
        <time>2025-04-25T11:29:49Z</time>
      </trkpt>
      <trkpt lat="44.533342989161611" lon="2.693511005491018">
        <ele>370.73000000000002</ele>
        <time>2025-04-25T11:29:50Z</time>
      </trkpt>
      <trkpt lat="44.533318011090159" lon="2.693666992709041">
        <ele>371.69</ele>
        <time>2025-04-25T11:29:51Z</time>
      </trkpt>
      <trkpt lat="44.533337038010359" lon="2.693892968818545">
        <ele>372.64999999999998</ele>
        <time>2025-04-25T11:29:52Z</time>
      </trkpt>
      <trkpt lat="44.533437034115195" lon="2.694980017840862">
        <ele>376.97000000000003</ele>
        <time>2025-04-25T11:29:57Z</time>
      </trkpt>
      <trkpt lat="44.533435022458434" lon="2.695713015273213">
        <ele>378.89999999999998</ele>
        <time>2025-04-25T11:30:00Z</time>
      </trkpt>
      <trkpt lat="44.533460000529885" lon="2.695968998596072">
        <ele>379.38</ele>
        <time>2025-04-25T11:30:01Z</time>
      </trkpt>
      <trkpt lat="44.533510962501168" lon="2.696220958605409">
        <ele>380.33999999999997</ele>
        <time>2025-04-25T11:30:02Z</time>
      </trkpt>
      <trkpt lat="44.533562008291483" lon="2.69667400047183">
        <ele>381.77999999999997</ele>
        <time>2025-04-25T11:30:04Z</time>
      </trkpt>
      <trkpt lat="44.533568965271115" lon="2.696851026266813">
        <ele>382.25999999999999</ele>
        <time>2025-04-25T11:30:05Z</time>
      </trkpt>
      <trkpt lat="44.533530995249748" lon="2.697026040405035">
        <ele>382.74000000000001</ele>
        <time>2025-04-25T11:30:06Z</time>
      </trkpt>
      <trkpt lat="44.533467041328549" lon="2.697192002087832">
        <ele>383.22000000000003</ele>
        <time>2025-04-25T11:30:07Z</time>
      </trkpt>
      <trkpt lat="44.533370984718204" lon="2.697344971820712">
        <ele>383.69999999999999</ele>
        <time>2025-04-25T11:30:08Z</time>
      </trkpt>
      <trkpt lat="44.533270988613367" lon="2.697503976523876">
        <ele>383.69999999999999</ele>
        <time>2025-04-25T11:30:09Z</time>
      </trkpt>
      <trkpt lat="44.533165041357279" lon="2.697673039510846">
        <ele>384.18000000000001</ele>
        <time>2025-04-25T11:30:10Z</time>
      </trkpt>
      <trkpt lat="44.533058004453778" lon="2.697844030335546">
        <ele>384.66000000000003</ele>
        <time>2025-04-25T11:30:11Z</time>
      </trkpt>
      <trkpt lat="44.532931018620729" lon="2.698045028373599">
        <ele>385.14999999999998</ele>
        <time>2025-04-25T11:30:12Z</time>
      </trkpt>
      <trkpt lat="44.532862035557628" lon="2.698195986449719">
        <ele>385.63</ele>
        <time>2025-04-25T11:30:13Z</time>
      </trkpt>
      <trkpt lat="44.532789029181004" lon="2.698359014466405">
        <ele>386.11000000000001</ele>
        <time>2025-04-25T11:30:14Z</time>
      </trkpt>
      <trkpt lat="44.53271702863276" lon="2.698517013341188">
        <ele>387.06999999999999</ele>
        <time>2025-04-25T11:30:15Z</time>
      </trkpt>
      <trkpt lat="44.532689033076167" lon="2.698640981689096">
        <ele>388.02999999999997</ele>
        <time>2025-04-25T11:30:16Z</time>
      </trkpt>
      <trkpt lat="44.532694984227419" lon="2.698793029412627">
        <ele>388.99000000000001</ele>
        <time>2025-04-25T11:30:17Z</time>
      </trkpt>
      <trkpt lat="44.532728008925915" lon="2.698926972225308">
        <ele>389.47000000000003</ele>
        <time>2025-04-25T11:30:18Z</time>
      </trkpt>
      <trkpt lat="44.532823981717229" lon="2.69901498220861">
        <ele>390.43000000000001</ele>
        <time>2025-04-25T11:30:19Z</time>
      </trkpt>
      <trkpt lat="44.532939987257123" lon="2.69907901994884">
        <ele>391.38999999999999</ele>
        <time>2025-04-25T11:30:20Z</time>
      </trkpt>
      <trkpt lat="44.533073008060455" lon="2.699151020497084">
        <ele>392.36000000000001</ele>
        <time>2025-04-25T11:30:21Z</time>
      </trkpt>
      <trkpt lat="44.53329898416996" lon="2.69937900826335">
        <ele>393.80000000000001</ele>
        <time>2025-04-25T11:30:23Z</time>
      </trkpt>
      <trkpt lat="44.533361010253429" lon="2.699460983276367">
        <ele>394.27999999999997</ele>
        <time>2025-04-25T11:30:24Z</time>
      </trkpt>
      <trkpt lat="44.533439967781305" lon="2.699671033769846">
        <ele>394.27999999999997</ele>
        <time>2025-04-25T11:30:25Z</time>
      </trkpt>
      <trkpt lat="44.533512974157929" lon="2.699860967695713">
        <ele>394.75999999999999</ele>
        <time>2025-04-25T11:30:26Z</time>
      </trkpt>
      <trkpt lat="44.533588998019695" lon="2.700062971562147">
        <ele>394.75999999999999</ele>
        <time>2025-04-25T11:30:27Z</time>
      </trkpt>
      <trkpt lat="44.533668039366603" lon="2.700270004570484">
        <ele>394.75999999999999</ele>
        <time>2025-04-25T11:30:28Z</time>
      </trkpt>
      <trkpt lat="44.533748002722859" lon="2.700478965416551">
        <ele>395.24000000000001</ele>
        <time>2025-04-25T11:30:29Z</time>
      </trkpt>
      <trkpt lat="44.533856967464089" lon="2.700685998424888">
        <ele>395.72000000000003</ele>
        <time>2025-04-25T11:30:30Z</time>
      </trkpt>
      <trkpt lat="44.534379998221993" lon="2.702121986076236">
        <ele>403.41000000000003</ele>
        <time>2025-04-25T11:30:37Z</time>
      </trkpt>
      <trkpt lat="44.534730026498437" lon="2.703342977911234">
        <ele>411.10000000000002</ele>
        <time>2025-04-25T11:30:43Z</time>
      </trkpt>
      <trkpt lat="44.534943010658026" lon="2.70378403365612">
        <ele>415.43000000000001</ele>
        <time>2025-04-25T11:30:47Z</time>
      </trkpt>
      <trkpt lat="44.534970000386238" lon="2.703838013112545">
        <ele>416.38999999999999</ele>
        <time>2025-04-25T11:30:48Z</time>
      </trkpt>
      <trkpt lat="44.534961031749845" lon="2.703910013660789">
        <ele>417.35000000000002</ele>
        <time>2025-04-25T11:30:49Z</time>
      </trkpt>
      <trkpt lat="44.5349529851228" lon="2.703971033915877">
        <ele>418.31</ele>
        <time>2025-04-25T11:30:50Z</time>
      </trkpt>
      <trkpt lat="44.534903028979897" lon="2.704010009765625">
        <ele>419.75</ele>
        <time>2025-04-25T11:30:51Z</time>
      </trkpt>
      <trkpt lat="44.534884002059698" lon="2.704010009765625">
        <ele>420.23000000000002</ele>
        <time>2025-04-25T11:30:52Z</time>
      </trkpt>
      <trkpt lat="44.534862041473389" lon="2.703985031694174">
        <ele>421.19</ele>
        <time>2025-04-25T11:30:53Z</time>
      </trkpt>
      <trkpt lat="44.534832034260035" lon="2.703949995338917">
        <ele>422.16000000000003</ele>
        <time>2025-04-25T11:30:54Z</time>
      </trkpt>
      <trkpt lat="44.534795992076397" lon="2.703908002004027">
        <ele>422.63999999999999</ele>
        <time>2025-04-25T11:30:55Z</time>
      </trkpt>
      <trkpt lat="44.534755004569888" lon="2.703858967870474">
        <ele>423.12</ele>
        <time>2025-04-25T11:30:56Z</time>
      </trkpt>
      <trkpt lat="44.534703036770225" lon="2.703757965937257">
        <ele>423.60000000000002</ele>
        <time>2025-04-25T11:30:57Z</time>
      </trkpt>
      <trkpt lat="44.53433096408844" lon="2.703027985990048">
        <ele>425.51999999999998</ele>
        <time>2025-04-25T11:31:01Z</time>
      </trkpt>
      <trkpt lat="44.534231973811984" lon="2.702833022922278">
        <ele>426.48000000000002</ele>
        <time>2025-04-25T11:31:02Z</time>
      </trkpt>
      <trkpt lat="44.534119991585612" lon="2.702634036540985">
        <ele>426.95999999999998</ele>
        <time>2025-04-25T11:31:03Z</time>
      </trkpt>
      <trkpt lat="44.534010021016002" lon="2.702445024624467">
        <ele>427.92000000000002</ele>
        <time>2025-04-25T11:31:04Z</time>
      </trkpt>
      <trkpt lat="44.533021962270141" lon="2.701328974217176">
        <ele>435.61000000000001</ele>
        <time>2025-04-25T11:31:11Z</time>
      </trkpt>
      <trkpt lat="44.532748963683844" lon="2.701075002551079">
        <ele>438.01999999999998</ele>
        <time>2025-04-25T11:31:13Z</time>
      </trkpt>
      <trkpt lat="44.532618038356304" lon="2.700952962040901">
        <ele>438.5</ele>
        <time>2025-04-25T11:31:14Z</time>
      </trkpt>
      <trkpt lat="44.531488995999098" lon="2.700119968503714">
        <ele>448.11000000000001</ele>
        <time>2025-04-25T11:31:22Z</time>
      </trkpt>
      <trkpt lat="44.53125698491931" lon="2.699876977130771">
        <ele>450.51999999999998</ele>
        <time>2025-04-25T11:31:24Z</time>
      </trkpt>
      <trkpt lat="44.531141985207796" lon="2.699757032096386">
        <ele>451.48000000000002</ele>
        <time>2025-04-25T11:31:25Z</time>
      </trkpt>
      <trkpt lat="44.531031008809805" lon="2.699648989364505">
        <ele>452.92000000000002</ele>
        <time>2025-04-25T11:31:26Z</time>
      </trkpt>
      <trkpt lat="44.5308499597013" lon="2.699503982439637">
        <ele>454.83999999999997</ele>
        <time>2025-04-25T11:31:27Z</time>
      </trkpt>
      <trkpt lat="44.530743006616831" lon="2.699503982439637">
        <ele>456.75999999999999</ele>
        <time>2025-04-25T11:31:28Z</time>
      </trkpt>
      <trkpt lat="44.530610991641879" lon="2.699503982439637">
        <ele>457.72000000000003</ele>
        <time>2025-04-25T11:31:29Z</time>
      </trkpt>
      <trkpt lat="44.530485011637211" lon="2.699503982439637">
        <ele>459.17000000000002</ele>
        <time>2025-04-25T11:31:30Z</time>
      </trkpt>
      <trkpt lat="44.530356014147401" lon="2.699503982439637">
        <ele>460.13</ele>
        <time>2025-04-25T11:31:31Z</time>
      </trkpt>
      <trkpt lat="44.530142024159431" lon="2.699417984113097">
        <ele>460.61000000000001</ele>
        <time>2025-04-25T11:31:32Z</time>
      </trkpt>
      <trkpt lat="44.530113022774458" lon="2.699371967464685">
        <ele>461.56999999999999</ele>
        <time>2025-04-25T11:31:33Z</time>
      </trkpt>
      <trkpt lat="44.530020989477634" lon="2.699224026873708">
        <ele>462.05000000000001</ele>
        <time>2025-04-25T11:31:34Z</time>
      </trkpt>
      <trkpt lat="44.52990498393774" lon="2.699027974158526">
        <ele>463.00999999999999</ele>
        <time>2025-04-25T11:31:35Z</time>
      </trkpt>
      <trkpt lat="44.529111972078681" lon="2.697314964607358">
        <ele>466.38</ele>
        <time>2025-04-25T11:31:43Z</time>
      </trkpt>
      <trkpt lat="44.529019016772509" lon="2.69720901735127">
        <ele>466.38</ele>
        <time>2025-04-25T11:31:44Z</time>
      </trkpt>
      <trkpt lat="44.528917009010911" lon="2.697121007367969">
        <ele>466.86000000000001</ele>
        <time>2025-04-25T11:31:45Z</time>
      </trkpt>
      <trkpt lat="44.528790023177862" lon="2.697057975456119">
        <ele>467.33999999999997</ele>
        <time>2025-04-25T11:31:46Z</time>
      </trkpt>
      <trkpt lat="44.528660019859672" lon="2.697022017091513">
        <ele>467.81999999999999</ele>
        <time>2025-04-25T11:31:47Z</time>
      </trkpt>
      <trkpt lat="44.528017966076732" lon="2.696842979639769">
        <ele>467.81999999999999</ele>
        <time>2025-04-25T11:31:52Z</time>
      </trkpt>
      <trkpt lat="44.527910007163882" lon="2.69686502404511">
        <ele>467.81999999999999</ele>
        <time>2025-04-25T11:31:53Z</time>
      </trkpt>
      <trkpt lat="44.527801964432001" lon="2.696910034865141">
        <ele>467.33999999999997</ele>
        <time>2025-04-25T11:31:54Z</time>
      </trkpt>
      <trkpt lat="44.527653018012643" lon="2.696971977129579">
        <ele>466.86000000000001</ele>
        <time>2025-04-25T11:31:55Z</time>
      </trkpt>
      <trkpt lat="44.5275619905442" lon="2.697041966021061">
        <ele>466.38</ele>
        <time>2025-04-25T11:31:56Z</time>
      </trkpt>
      <trkpt lat="44.527435004711151" lon="2.697138022631407">
        <ele>465.89999999999998</ele>
        <time>2025-04-25T11:31:57Z</time>
      </trkpt>
      <trkpt lat="44.527048012241721" lon="2.697435999289155">
        <ele>464.93000000000001</ele>
        <time>2025-04-25T11:32:00Z</time>
      </trkpt>
      <trkpt lat="44.526901999488473" lon="2.697500959038734">
        <ele>464.44999999999999</ele>
        <time>2025-04-25T11:32:01Z</time>
      </trkpt>
      <trkpt lat="44.526735031977296" lon="2.697549993172288">
        <ele>464.93000000000001</ele>
        <time>2025-04-25T11:32:02Z</time>
      </trkpt>
      <trkpt lat="44.526578960940242" lon="2.69753398373723">
        <ele>464.44999999999999</ele>
        <time>2025-04-25T11:32:03Z</time>
      </trkpt>
      <trkpt lat="44.526414005085826" lon="2.697473969310522">
        <ele>464.93000000000001</ele>
        <time>2025-04-25T11:32:04Z</time>
      </trkpt>
      <trkpt lat="44.526262963190675" lon="2.697394005954266">
        <ele>464.93000000000001</ele>
        <time>2025-04-25T11:32:05Z</time>
      </trkpt>
      <trkpt lat="44.526124997064471" lon="2.697291998192668">
        <ele>464.44999999999999</ele>
        <time>2025-04-25T11:32:06Z</time>
      </trkpt>
      <trkpt lat="44.525977978482842" lon="2.697182027623057">
        <ele>464.44999999999999</ele>
        <time>2025-04-25T11:32:07Z</time>
      </trkpt>
      <trkpt lat="44.525509011000395" lon="2.696853037923574">
        <ele>463.97000000000003</ele>
        <time>2025-04-25T11:32:10Z</time>
      </trkpt>
      <trkpt lat="44.525332991033792" lon="2.69680299796164">
        <ele>463.49000000000001</ele>
        <time>2025-04-25T11:32:11Z</time>
      </trkpt>
      <trkpt lat="44.525169041007757" lon="2.696787994354963">
        <ele>463.00999999999999</ele>
        <time>2025-04-25T11:32:12Z</time>
      </trkpt>
      <trkpt lat="44.524988997727633" lon="2.696808027103543">
        <ele>462.52999999999997</ele>
        <time>2025-04-25T11:32:13Z</time>
      </trkpt>
      <trkpt lat="44.52481297776103" lon="2.696826970204711">
        <ele>462.05000000000001</ele>
        <time>2025-04-25T11:32:14Z</time>
      </trkpt>
      <trkpt lat="44.523355029523373" lon="2.697155037894845">
        <ele>458.69</ele>
        <time>2025-04-25T11:32:22Z</time>
      </trkpt>
      <trkpt lat="44.523195018991828" lon="2.69712301902473">
        <ele>459.64999999999998</ele>
        <time>2025-04-25T11:32:23Z</time>
      </trkpt>
      <trkpt lat="44.523039031773806" lon="2.697092005982995">
        <ele>460.13</ele>
        <time>2025-04-25T11:32:24Z</time>
      </trkpt>
      <trkpt lat="44.522895030677319" lon="2.696998966857791">
        <ele>461.08999999999997</ele>
        <time>2025-04-25T11:32:25Z</time>
      </trkpt>
      <trkpt lat="44.522763015702367" lon="2.696867035701871">
        <ele>462.52999999999997</ele>
        <time>2025-04-25T11:32:26Z</time>
      </trkpt>
      <trkpt lat="44.522654972970486" lon="2.696698978543282">
        <ele>463.49000000000001</ele>
        <time>2025-04-25T11:32:27Z</time>
      </trkpt>
      <trkpt lat="44.52257702127099" lon="2.696503009647131">
        <ele>464.93000000000001</ele>
        <time>2025-04-25T11:32:28Z</time>
      </trkpt>
      <trkpt lat="44.522506026551127" lon="2.696291031315923">
        <ele>466.38</ele>
        <time>2025-04-25T11:32:29Z</time>
      </trkpt>
      <trkpt lat="44.522451963275671" lon="2.696059020236135">
        <ele>468.30000000000001</ele>
        <time>2025-04-25T11:32:30Z</time>
      </trkpt>
      <trkpt lat="44.522241996601224" lon="2.695164000615478">
        <ele>474.55000000000001</ele>
        <time>2025-04-25T11:32:34Z</time>
      </trkpt>
      <trkpt lat="44.522154992446303" lon="2.695012958720326">
        <ele>476.47000000000003</ele>
        <time>2025-04-25T11:32:35Z</time>
      </trkpt>
      <trkpt lat="44.52206103131175" lon="2.6948899962008">
        <ele>477.91000000000003</ele>
        <time>2025-04-25T11:32:36Z</time>
      </trkpt>
      <trkpt lat="44.52193203382194" lon="2.694808021187782">
        <ele>479.83999999999997</ele>
        <time>2025-04-25T11:32:37Z</time>
      </trkpt>
      <trkpt lat="44.521786021068692" lon="2.694752030074596">
        <ele>480.80000000000001</ele>
        <time>2025-04-25T11:32:38Z</time>
      </trkpt>
      <trkpt lat="44.521618969738483" lon="2.694727974012494">
        <ele>482.24000000000001</ele>
        <time>2025-04-25T11:32:39Z</time>
      </trkpt>
      <trkpt lat="44.52143901027739" lon="2.694702995941043">
        <ele>483.68000000000001</ele>
        <time>2025-04-25T11:32:40Z</time>
      </trkpt>
      <trkpt lat="44.521258966997266" lon="2.694678017869592">
        <ele>484.63999999999999</ele>
        <time>2025-04-25T11:32:41Z</time>
      </trkpt>
      <trkpt lat="44.520937018096447" lon="2.694633007049561">
        <ele>487.52999999999997</ele>
        <time>2025-04-25T11:32:43Z</time>
      </trkpt>
      <trkpt lat="44.52077298425138" lon="2.694527981802821">
        <ele>488.97000000000003</ele>
        <time>2025-04-25T11:32:44Z</time>
      </trkpt>
      <trkpt lat="44.520636023953557" lon="2.69443997181952">
        <ele>490.41000000000003</ele>
        <time>2025-04-25T11:32:45Z</time>
      </trkpt>
      <trkpt lat="44.520522030070424" lon="2.694298988208175">
        <ele>491.85000000000002</ele>
        <time>2025-04-25T11:32:46Z</time>
      </trkpt>
      <trkpt lat="44.520409964025021" lon="2.694161022081971">
        <ele>492.81</ele>
        <time>2025-04-25T11:32:47Z</time>
      </trkpt>
      <trkpt lat="44.520164038985968" lon="2.693924987688661">
        <ele>495.69999999999999</ele>
        <time>2025-04-25T11:32:49Z</time>
      </trkpt>
      <trkpt lat="44.5200190320611" lon="2.693835971876979">
        <ele>497.13999999999999</ele>
        <time>2025-04-25T11:32:50Z</time>
      </trkpt>
      <trkpt lat="44.519422994926572" lon="2.693412015214562">
        <ele>502.43000000000001</ele>
        <time>2025-04-25T11:32:54Z</time>
      </trkpt>
      <trkpt lat="44.519277988001704" lon="2.693259967491031">
        <ele>504.35000000000002</ele>
        <time>2025-04-25T11:32:55Z</time>
      </trkpt>
      <trkpt lat="44.518878003582358" lon="2.692743977531791">
        <ele>508.67000000000002</ele>
        <time>2025-04-25T11:32:58Z</time>
      </trkpt>
      <trkpt lat="44.518783036619425" lon="2.692534010857344">
        <ele>510.12</ele>
        <time>2025-04-25T11:32:59Z</time>
      </trkpt>
      <trkpt lat="44.51868899166584" lon="2.692325972020626">
        <ele>511.56</ele>
        <time>2025-04-25T11:33:00Z</time>
      </trkpt>
      <trkpt lat="44.518525041639805" lon="2.691964041441679">
        <ele>514.44000000000005</ele>
        <time>2025-04-25T11:33:02Z</time>
      </trkpt>
      <trkpt lat="44.518436025828123" lon="2.691842000931501">
        <ele>515.39999999999998</ele>
        <time>2025-04-25T11:33:03Z</time>
      </trkpt>
      <trkpt lat="44.518347010016441" lon="2.691780980676413">
        <ele>516.37</ele>
        <time>2025-04-25T11:33:04Z</time>
      </trkpt>
      <trkpt lat="44.518251037225127" lon="2.691794978454709">
        <ele>517.33000000000004</ele>
        <time>2025-04-25T11:33:05Z</time>
      </trkpt>
      <trkpt lat="44.51815196312964" lon="2.691845018416643">
        <ele>518.28999999999996</ele>
        <time>2025-04-25T11:33:06Z</time>
      </trkpt>
      <trkpt lat="44.518051967024803" lon="2.691921964287758">
        <ele>519.25</ele>
        <time>2025-04-25T11:33:07Z</time>
      </trkpt>
      <trkpt lat="44.51757101342082" lon="2.692344998940826">
        <ele>523.58000000000004</ele>
        <time>2025-04-25T11:33:11Z</time>
      </trkpt>
      <trkpt lat="44.517460959032178" lon="2.692487994208932">
        <ele>524.53999999999996</ele>
        <time>2025-04-25T11:33:12Z</time>
      </trkpt>
      <trkpt lat="44.517360962927341" lon="2.692646998912096">
        <ele>525.5</ele>
        <time>2025-04-25T11:33:13Z</time>
      </trkpt>
      <trkpt lat="44.517271025106311" lon="2.692837016656995">
        <ele>526.46000000000004</ele>
        <time>2025-04-25T11:33:14Z</time>
      </trkpt>
      <trkpt lat="44.517178991809487" lon="2.693032985553145">
        <ele>527.41999999999996</ele>
        <time>2025-04-25T11:33:15Z</time>
      </trkpt>
      <trkpt lat="44.516531992703676" lon="2.694209972396493">
        <ele>530.78999999999996</ele>
        <time>2025-04-25T11:33:21Z</time>
      </trkpt>
      <trkpt lat="44.516383968293667" lon="2.694356990978122">
        <ele>531.26999999999998</ele>
        <time>2025-04-25T11:33:22Z</time>
      </trkpt>
      <trkpt lat="44.516235021874309" lon="2.694506021216512">
        <ele>531.75</ele>
        <time>2025-04-25T11:33:23Z</time>
      </trkpt>
      <trkpt lat="44.515283005312085" lon="2.695171041414142">
        <ele>534.63</ele>
        <time>2025-04-25T11:33:29Z</time>
      </trkpt>
      <trkpt lat="44.51514302752912" lon="2.69519099034369">
        <ele>535.11000000000001</ele>
        <time>2025-04-25T11:33:30Z</time>
      </trkpt>
      <trkpt lat="44.51499399729073" lon="2.695108009502292">
        <ele>536.07000000000005</ele>
        <time>2025-04-25T11:33:31Z</time>
      </trkpt>
      <trkpt lat="44.514868017286062" lon="2.694988986477256">
        <ele>536.54999999999995</ele>
        <time>2025-04-25T11:33:32Z</time>
      </trkpt>
      <trkpt lat="44.514739019796252" lon="2.694840962067246">
        <ele>537.02999999999997</ele>
        <time>2025-04-25T11:33:33Z</time>
      </trkpt>
      <trkpt lat="44.514600969851017" lon="2.694682963192463">
        <ele>537.50999999999999</ele>
        <time>2025-04-25T11:33:34Z</time>
      </trkpt>
      <trkpt lat="44.5144550409168" lon="2.694529993459582">
        <ele>537.99000000000001</ele>
        <time>2025-04-25T11:33:35Z</time>
      </trkpt>
      <trkpt lat="44.514294024556875" lon="2.694380963221192">
        <ele>537.99000000000001</ele>
        <time>2025-04-25T11:33:36Z</time>
      </trkpt>
      <trkpt lat="44.514119010418653" lon="2.694258000701666">
        <ele>538.48000000000002</ele>
        <time>2025-04-25T11:33:37Z</time>
      </trkpt>
      <trkpt lat="44.512010039761662" lon="2.69304296001792">
        <ele>544.24000000000001</ele>
        <time>2025-04-25T11:33:48Z</time>
      </trkpt>
      <trkpt lat="44.511837959289551" lon="2.692958973348141">
        <ele>544.72000000000003</ele>
        <time>2025-04-25T11:33:49Z</time>
      </trkpt>
      <trkpt lat="44.511657999828458" lon="2.692958973348141">
        <ele>545.20000000000005</ele>
        <time>2025-04-25T11:33:50Z</time>
      </trkpt>
      <trkpt lat="44.511466976255178" lon="2.692958973348141">
        <ele>546.16999999999996</ele>
        <time>2025-04-25T11:33:51Z</time>
      </trkpt>
      <trkpt lat="44.51071604155004" lon="2.69295696169138">
        <ele>550.00999999999999</ele>
        <time>2025-04-25T11:33:55Z</time>
      </trkpt>
      <trkpt lat="44.510551001876593" lon="2.692883033305407">
        <ele>550.97000000000003</ele>
        <time>2025-04-25T11:33:56Z</time>
      </trkpt>
      <trkpt lat="44.510190999135375" lon="2.692723022773862">
        <ele>552.40999999999997</ele>
        <time>2025-04-25T11:33:58Z</time>
      </trkpt>
      <trkpt lat="44.509635027498007" lon="2.692446000874043">
        <ele>554.82000000000005</ele>
        <time>2025-04-25T11:34:01Z</time>
      </trkpt>
      <trkpt lat="44.509464958682656" lon="2.692328989505768">
        <ele>555.77999999999997</ele>
        <time>2025-04-25T11:34:02Z</time>
      </trkpt>
      <trkpt lat="44.509312994778156" lon="2.692176019772887">
        <ele>556.25999999999999</ele>
        <time>2025-04-25T11:34:03Z</time>
      </trkpt>
      <trkpt lat="44.509168993681669" lon="2.692007040604949">
        <ele>556.74000000000001</ele>
        <time>2025-04-25T11:34:04Z</time>
      </trkpt>
      <trkpt lat="44.509029015898705" lon="2.691842000931501">
        <ele>556.74000000000001</ele>
        <time>2025-04-25T11:34:05Z</time>
      </trkpt>
      <trkpt lat="44.508895995095372" lon="2.691702023148537">
        <ele>557.22000000000003</ele>
        <time>2025-04-25T11:34:06Z</time>
      </trkpt>
      <trkpt lat="44.508745037019253" lon="2.691620970144868">
        <ele>557.22000000000003</ele>
        <time>2025-04-25T11:34:07Z</time>
      </trkpt>
      <trkpt lat="44.508575974032283" lon="2.691540000960231">
        <ele>557.70000000000005</ele>
        <time>2025-04-25T11:34:08Z</time>
      </trkpt>
      <trkpt lat="44.508388973772526" lon="2.691507982090116">
        <ele>557.70000000000005</ele>
        <time>2025-04-25T11:34:09Z</time>
      </trkpt>
      <trkpt lat="44.50803198851645" lon="2.691448973491788">
        <ele>558.17999999999995</ele>
        <time>2025-04-25T11:34:11Z</time>
      </trkpt>
      <trkpt lat="44.507863009348512" lon="2.691462971270084">
        <ele>558.65999999999997</ele>
        <time>2025-04-25T11:34:12Z</time>
      </trkpt>
      <trkpt lat="44.507701992988586" lon="2.691509993746877">
        <ele>559.13999999999999</ele>
        <time>2025-04-25T11:34:13Z</time>
      </trkpt>
      <trkpt lat="44.507535025477409" lon="2.691575959324837">
        <ele>559.62</ele>
        <time>2025-04-25T11:34:14Z</time>
      </trkpt>
      <trkpt lat="44.507377026602626" lon="2.691673021763563">
        <ele>559.62</ele>
        <time>2025-04-25T11:34:15Z</time>
      </trkpt>
      <trkpt lat="44.50721500441432" lon="2.691772012040019">
        <ele>560.11000000000001</ele>
        <time>2025-04-25T11:34:16Z</time>
      </trkpt>
      <trkpt lat="44.507054993882775" lon="2.691898997873068">
        <ele>560.59000000000003</ele>
        <time>2025-04-25T11:34:17Z</time>
      </trkpt>
      <trkpt lat="44.506890038028359" lon="2.6920320186764">
        <ele>561.07000000000005</ele>
        <time>2025-04-25T11:34:18Z</time>
      </trkpt>
      <trkpt lat="44.505813969299197" lon="2.69273903220892">
        <ele>563.95000000000005</ele>
        <time>2025-04-25T11:34:24Z</time>
      </trkpt>
      <trkpt lat="44.505633004009724" lon="2.692801980301738">
        <ele>563.95000000000005</ele>
        <time>2025-04-25T11:34:25Z</time>
      </trkpt>
      <trkpt lat="44.505461007356644" lon="2.69282603636384">
        <ele>563.95000000000005</ele>
        <time>2025-04-25T11:34:26Z</time>
      </trkpt>
      <trkpt lat="44.5052819699049" lon="2.692816983908415">
        <ele>563.95000000000005</ele>
        <time>2025-04-25T11:34:27Z</time>
      </trkpt>
      <trkpt lat="44.505099998787045" lon="2.692807009443641">
        <ele>563.95000000000005</ele>
        <time>2025-04-25T11:34:28Z</time>
      </trkpt>
      <trkpt lat="44.504750976338983" lon="2.692787982523441">
        <ele>563.95000000000005</ele>
        <time>2025-04-25T11:34:30Z</time>
      </trkpt>
      <trkpt lat="44.504597000777721" lon="2.692817989736795">
        <ele>564.42999999999995</ele>
        <time>2025-04-25T11:34:31Z</time>
      </trkpt>
      <trkpt lat="44.50446599163115" lon="2.69289099611342">
        <ele>564.42999999999995</ele>
        <time>2025-04-25T11:34:32Z</time>
      </trkpt>
      <trkpt lat="44.50433699414134" lon="2.692990992218256">
        <ele>564.90999999999997</ele>
        <time>2025-04-25T11:34:33Z</time>
      </trkpt>
      <trkpt lat="44.504201961681247" lon="2.693097023293376">
        <ele>565.87</ele>
        <time>2025-04-25T11:34:34Z</time>
      </trkpt>
      <trkpt lat="44.502966972067952" lon="2.694129003211856">
        <ele>569.72000000000003</ele>
        <time>2025-04-25T11:34:42Z</time>
      </trkpt>
      <trkpt lat="44.502864964306355" lon="2.694303011521697">
        <ele>570.20000000000005</ele>
        <time>2025-04-25T11:34:43Z</time>
      </trkpt>
      <trkpt lat="44.50276798568666" lon="2.694479031488299">
        <ele>570.67999999999995</ele>
        <time>2025-04-25T11:34:44Z</time>
      </trkpt>
      <trkpt lat="44.502686010673642" lon="2.694672988727689">
        <ele>570.67999999999995</ele>
        <time>2025-04-25T11:34:45Z</time>
      </trkpt>
      <trkpt lat="44.502611998468637" lon="2.694904999807477">
        <ele>570.67999999999995</ele>
        <time>2025-04-25T11:34:46Z</time>
      </trkpt>
      <trkpt lat="44.502194998785853" lon="2.696927972137928">
        <ele>568.27999999999997</ele>
        <time>2025-04-25T11:34:53Z</time>
      </trkpt>
      <trkpt lat="44.502121992409229" lon="2.697235001251102">
        <ele>567.32000000000005</ele>
        <time>2025-04-25T11:34:54Z</time>
      </trkpt>
      <trkpt lat="44.501675991341472" lon="2.698512990027666">
        <ele>564.42999999999995</ele>
        <time>2025-04-25T11:34:59Z</time>
      </trkpt>
      <trkpt lat="44.501582030206919" lon="2.698709964752197">
        <ele>563.95000000000005</ele>
        <time>2025-04-25T11:35:00Z</time>
      </trkpt>
      <trkpt lat="44.501438029110432" lon="2.698879027739167">
        <ele>563.95000000000005</ele>
        <time>2025-04-25T11:35:01Z</time>
      </trkpt>
      <trkpt lat="44.501297967508435" lon="2.699052030220628">
        <ele>563.47000000000003</ele>
        <time>2025-04-25T11:35:02Z</time>
      </trkpt>
      <trkpt lat="44.501157989725471" lon="2.699226960539818">
        <ele>563.47000000000003</ele>
        <time>2025-04-25T11:35:03Z</time>
      </trkpt>
      <trkpt lat="44.499906990677118" lon="2.700531017035246">
        <ele>565.87</ele>
        <time>2025-04-25T11:35:11Z</time>
      </trkpt>
      <trkpt lat="44.499450009316206" lon="2.700971988961101">
        <ele>567.79999999999995</ele>
        <time>2025-04-25T11:35:14Z</time>
      </trkpt>
      <trkpt lat="44.49930801987648" lon="2.701149014756084">
        <ele>568.75999999999999</ele>
        <time>2025-04-25T11:35:15Z</time>
      </trkpt>
      <trkpt lat="44.498413000255823" lon="2.702723974362016">
        <ele>572.60000000000002</ele>
        <time>2025-04-25T11:35:22Z</time>
      </trkpt>
      <trkpt lat="44.496927978470922" lon="2.705148020759225">
        <ele>584.13999999999999</ele>
        <time>2025-04-25T11:35:33Z</time>
      </trkpt>
      <trkpt lat="44.496488012373447" lon="2.705770041793585">
        <ele>586.53999999999996</ele>
        <time>2025-04-25T11:35:36Z</time>
      </trkpt>
      <trkpt lat="44.496337976306677" lon="2.705940026789904">
        <ele>587.5</ele>
        <time>2025-04-25T11:35:37Z</time>
      </trkpt>
      <trkpt lat="44.496167991310358" lon="2.706098025664687">
        <ele>587.98000000000002</ele>
        <time>2025-04-25T11:35:38Z</time>
      </trkpt>
      <trkpt lat="44.494236968457699" lon="2.707444997504354">
        <ele>588.46000000000004</ele>
        <time>2025-04-25T11:35:48Z</time>
      </trkpt>
      <trkpt lat="44.492219025269151" lon="2.708549983799458">
        <ele>579.80999999999995</ele>
        <time>2025-04-25T11:35:59Z</time>
      </trkpt>
      <trkpt lat="44.491891963407397" lon="2.708781994879246">
        <ele>577.88999999999999</ele>
        <time>2025-04-25T11:36:01Z</time>
      </trkpt>
      <trkpt lat="44.49174796231091" lon="2.708933036774397">
        <ele>576.92999999999995</ele>
        <time>2025-04-25T11:36:02Z</time>
      </trkpt>
      <trkpt lat="44.491609996184707" lon="2.709119031205773">
        <ele>576.45000000000005</ele>
        <time>2025-04-25T11:36:03Z</time>
      </trkpt>
      <trkpt lat="44.490490006282926" lon="2.710841009393334">
        <ele>575.49000000000001</ele>
        <time>2025-04-25T11:36:11Z</time>
      </trkpt>
      <trkpt lat="44.490337958559394" lon="2.71098299883306">
        <ele>575.49000000000001</ele>
        <time>2025-04-25T11:36:12Z</time>
      </trkpt>
      <trkpt lat="44.490193035453558" lon="2.711096992716193">
        <ele>575.00999999999999</ele>
        <time>2025-04-25T11:36:13Z</time>
      </trkpt>
      <trkpt lat="44.490029001608491" lon="2.711159018799663">
        <ele>575.00999999999999</ele>
        <time>2025-04-25T11:36:14Z</time>
      </trkpt>
      <trkpt lat="44.488568035885692" lon="2.711697975173593">
        <ele>573.08000000000004</ele>
        <time>2025-04-25T11:36:22Z</time>
      </trkpt>
      <trkpt lat="44.487274959683418" lon="2.712278002873063">
        <ele>571.63999999999999</ele>
        <time>2025-04-25T11:36:29Z</time>
      </trkpt>
      <trkpt lat="44.487092988565564" lon="2.71231203339994">
        <ele>571.15999999999997</ele>
        <time>2025-04-25T11:36:30Z</time>
      </trkpt>
      <trkpt lat="44.486904982477427" lon="2.712342040613294">
        <ele>570.67999999999995</ele>
        <time>2025-04-25T11:36:31Z</time>
      </trkpt>
      <trkpt lat="44.486304000020027" lon="2.712399959564209">
        <ele>569.24000000000001</ele>
        <time>2025-04-25T11:36:34Z</time>
      </trkpt>
      <trkpt lat="44.484900031238794" lon="2.713038995862007">
        <ele>564.42999999999995</ele>
        <time>2025-04-25T11:36:42Z</time>
      </trkpt>
      <trkpt lat="44.48338801972568" lon="2.714371969923377">
        <ele>554.34000000000003</ele>
        <time>2025-04-25T11:36:51Z</time>
      </trkpt>
      <trkpt lat="44.48323798365891" lon="2.714522005990148">
        <ele>553.38</ele>
        <time>2025-04-25T11:36:52Z</time>
      </trkpt>
      <trkpt lat="44.483089037239552" lon="2.714646980166435">
        <ele>552.40999999999997</ele>
        <time>2025-04-25T11:36:53Z</time>
      </trkpt>
      <trkpt lat="44.482925003394485" lon="2.714713029563427">
        <ele>551.92999999999995</ele>
        <time>2025-04-25T11:36:54Z</time>
      </trkpt>
      <trkpt lat="44.482761975377798" lon="2.714778995141387">
        <ele>550.97000000000003</ele>
        <time>2025-04-25T11:36:55Z</time>
      </trkpt>
      <trkpt lat="44.482600959017873" lon="2.714844038709998">
        <ele>550.97000000000003</ele>
        <time>2025-04-25T11:36:56Z</time>
      </trkpt>
      <trkpt lat="44.480714024975896" lon="2.715549040585756">
        <ele>544.24000000000001</ele>
        <time>2025-04-25T11:37:07Z</time>
      </trkpt>
      <trkpt lat="44.480382017791271" lon="2.715655993670225">
        <ele>543.27999999999997</ele>
        <time>2025-04-25T11:37:09Z</time>
      </trkpt>
      <trkpt lat="44.480218989774585" lon="2.715713996440172">
        <ele>542.79999999999995</ele>
        <time>2025-04-25T11:37:10Z</time>
      </trkpt>
      <trkpt lat="44.480069959536195" lon="2.715834025293589">
        <ele>542.32000000000005</ele>
        <time>2025-04-25T11:37:11Z</time>
      </trkpt>
      <trkpt lat="44.479322964325547" lon="2.716431990265846">
        <ele>542.79999999999995</ele>
        <time>2025-04-25T11:37:16Z</time>
      </trkpt>
      <trkpt lat="44.479169994592667" lon="2.716533998027444">
        <ele>542.79999999999995</ele>
        <time>2025-04-25T11:37:17Z</time>
      </trkpt>
      <trkpt lat="44.47754398919642" lon="2.717552985996008">
        <ele>547.61000000000001</ele>
        <time>2025-04-25T11:37:27Z</time>
      </trkpt>
      <trkpt lat="44.476546961814165" lon="2.718239966779947">
        <ele>549.04999999999995</ele>
        <time>2025-04-25T11:37:35Z</time>
      </trkpt>
      <trkpt lat="44.475840032100677" lon="2.718796022236347">
        <ele>548.09000000000003</ele>
        <time>2025-04-25T11:37:42Z</time>
      </trkpt>
      <trkpt lat="44.475732995197177" lon="2.718840027227998">
        <ele>547.61000000000001</ele>
        <time>2025-04-25T11:37:43Z</time>
      </trkpt>
      <trkpt lat="44.47492397390306" lon="2.71905804052949">
        <ele>546.16999999999996</ele>
        <time>2025-04-25T11:37:50Z</time>
      </trkpt>
      <trkpt lat="44.474229030311108" lon="2.719185026362538">
        <ele>545.69000000000005</ele>
        <time>2025-04-25T11:37:56Z</time>
      </trkpt>
      <trkpt lat="44.473991990089417" lon="2.719199024140835">
        <ele>545.20000000000005</ele>
        <time>2025-04-25T11:37:58Z</time>
      </trkpt>
      <trkpt lat="44.473279025405645" lon="2.719158958643675">
        <ele>543.75999999999999</ele>
        <time>2025-04-25T11:38:05Z</time>
      </trkpt>
      <trkpt lat="44.47322404012084" lon="2.719128029420972">
        <ele>543.75999999999999</ele>
        <time>2025-04-25T11:38:06Z</time>
      </trkpt>
      <trkpt lat="44.473191015422344" lon="2.719109002500773">
        <ele>543.75999999999999</ele>
        <time>2025-04-25T11:38:07Z</time>
      </trkpt>
      <trkpt lat="44.473169976845384" lon="2.719097016379237">
        <ele>543.75999999999999</ele>
        <time>2025-04-25T11:38:08Z</time>
      </trkpt>
      <trkpt lat="44.473144998773932" lon="2.71908201277256">
        <ele>543.75999999999999</ele>
        <time>2025-04-25T11:38:09Z</time>
      </trkpt>
      <trkpt lat="44.473100993782282" lon="2.719139009714127">
        <ele>543.75999999999999</ele>
        <time>2025-04-25T11:38:10Z</time>
      </trkpt>
      <trkpt lat="44.473072998225689" lon="2.719204975292087">
        <ele>543.27999999999997</ele>
        <time>2025-04-25T11:38:11Z</time>
      </trkpt>
      <trkpt lat="44.473045002669096" lon="2.719270018860698">
        <ele>543.27999999999997</ele>
        <time>2025-04-25T11:38:12Z</time>
      </trkpt>
      <trkpt lat="44.473016001284122" lon="2.719336990267038">
        <ele>542.79999999999995</ele>
        <time>2025-04-25T11:38:13Z</time>
      </trkpt>
      <trkpt lat="44.472985994070768" lon="2.719409996643663">
        <ele>542.79999999999995</ele>
        <time>2025-04-25T11:38:14Z</time>
      </trkpt>
      <trkpt lat="44.472956992685795" lon="2.719480991363525">
        <ele>542.79999999999995</ele>
        <time>2025-04-25T11:38:15Z</time>
      </trkpt>
      <trkpt lat="44.472919022664428" lon="2.719563972204924">
        <ele>542.79999999999995</ele>
        <time>2025-04-25T11:38:16Z</time>
      </trkpt>
      <trkpt lat="44.472878035157919" lon="2.719652988016605">
        <ele>543.27999999999997</ele>
        <time>2025-04-25T11:38:17Z</time>
      </trkpt>
      <trkpt lat="44.472831012681127" lon="2.719753989949822">
        <ele>543.27999999999997</ele>
        <time>2025-04-25T11:38:18Z</time>
      </trkpt>
      <trkpt lat="44.472447037696838" lon="2.720610033720732">
        <ele>545.20000000000005</ele>
        <time>2025-04-25T11:38:27Z</time>
      </trkpt>
      <trkpt lat="44.47197899222374" lon="2.721604965627194">
        <ele>547.61000000000001</ele>
        <time>2025-04-25T11:38:39Z</time>
      </trkpt>
      <trkpt lat="44.471942028030753" lon="2.721679983660579">
        <ele>548.09000000000003</ele>
        <time>2025-04-25T11:38:40Z</time>
      </trkpt>
      <trkpt lat="44.471630975604057" lon="2.72232698276639">
        <ele>549.04999999999995</ele>
        <time>2025-04-25T11:38:48Z</time>
      </trkpt>
      <trkpt lat="44.471586970612407" lon="2.722406024113298">
        <ele>549.04999999999995</ele>
        <time>2025-04-25T11:38:49Z</time>
      </trkpt>
      <trkpt lat="44.471543971449137" lon="2.722482969984412">
        <ele>549.04999999999995</ele>
        <time>2025-04-25T11:38:50Z</time>
      </trkpt>
      <trkpt lat="44.471498038619757" lon="2.722549019381404">
        <ele>549.04999999999995</ele>
        <time>2025-04-25T11:38:51Z</time>
      </trkpt>
      <trkpt lat="44.471451016142964" lon="2.722596041858196">
        <ele>549.52999999999997</ele>
        <time>2025-04-25T11:38:52Z</time>
      </trkpt>
      <trkpt lat="44.471409022808075" lon="2.722638035193086">
        <ele>549.52999999999997</ele>
        <time>2025-04-25T11:38:53Z</time>
      </trkpt>
      <trkpt lat="44.471352025866508" lon="2.722662007436156">
        <ele>549.52999999999997</ele>
        <time>2025-04-25T11:38:54Z</time>
      </trkpt>
      <trkpt lat="44.471296034753323" lon="2.722669970244169">
        <ele>549.52999999999997</ele>
        <time>2025-04-25T11:38:55Z</time>
      </trkpt>
      <trkpt lat="44.471213975921273" lon="2.722644992172718">
        <ele>549.52999999999997</ele>
        <time>2025-04-25T11:38:56Z</time>
      </trkpt>
      <trkpt lat="44.47116301394999" lon="2.722583971917629">
        <ele>549.52999999999997</ele>
        <time>2025-04-25T11:38:57Z</time>
      </trkpt>
      <trkpt lat="44.471109034493566" lon="2.722518006339669">
        <ele>549.52999999999997</ele>
        <time>2025-04-25T11:38:58Z</time>
      </trkpt>
      <trkpt lat="44.471062012016773" lon="2.722460003569722">
        <ele>549.04999999999995</ele>
        <time>2025-04-25T11:38:59Z</time>
      </trkpt>
      <trkpt lat="44.471010966226459" lon="2.722406024113298">
        <ele>548.57000000000005</ele>
        <time>2025-04-25T11:39:00Z</time>
      </trkpt>
      <trkpt lat="44.470779960975051" lon="2.722066976130009">
        <ele>546.64999999999998</ele>
        <time>2025-04-25T11:39:05Z</time>
      </trkpt>
      <trkpt lat="44.47073201648891" lon="2.721995981410146">
        <ele>546.64999999999998</ele>
        <time>2025-04-25T11:39:06Z</time>
      </trkpt>
      <trkpt lat="44.470685999840498" lon="2.721926998347044">
        <ele>546.64999999999998</ele>
        <time>2025-04-25T11:39:07Z</time>
      </trkpt>
      <trkpt lat="44.470637971535325" lon="2.721857009455562">
        <ele>546.64999999999998</ele>
        <time>2025-04-25T11:39:08Z</time>
      </trkpt>
      <trkpt lat="44.470589021220803" lon="2.721784003078938">
        <ele>546.64999999999998</ele>
        <time>2025-04-25T11:39:09Z</time>
      </trkpt>
      <trkpt lat="44.470347035676241" lon="2.721426011994481">
        <ele>546.16999999999996</ele>
        <time>2025-04-25T11:39:14Z</time>
      </trkpt>
      <trkpt lat="44.47030202485621" lon="2.72136096842587">
        <ele>545.69000000000005</ele>
        <time>2025-04-25T11:39:15Z</time>
      </trkpt>
      <trkpt lat="44.469943027943373" lon="2.720824023708701">
        <ele>543.27999999999997</ele>
        <time>2025-04-25T11:39:23Z</time>
      </trkpt>
      <trkpt lat="44.469867004081607" lon="2.720703994855285">
        <ele>542.79999999999995</ele>
        <time>2025-04-25T11:39:25Z</time>
      </trkpt>
      <trkpt lat="44.469673968851566" lon="2.720407024025917">
        <ele>542.32000000000005</ele>
        <time>2025-04-25T11:39:32Z</time>
      </trkpt>
      <trkpt lat="44.46966097690165" lon="2.720384979620576">
        <ele>542.32000000000005</ele>
        <time>2025-04-25T11:39:33Z</time>
      </trkpt>
      <trkpt lat="44.469632981345057" lon="2.720342986285687">
        <ele>543.27999999999997</ele>
        <time>2025-04-25T11:39:35Z</time>
      </trkpt>
      <trkpt lat="44.469553017988801" lon="2.720485981553793">
        <ele>543.75999999999999</ele>
        <time>2025-04-25T11:39:37Z</time>
      </trkpt>
      <trkpt lat="44.469425026327372" lon="2.720716986805201">
        <ele>543.27999999999997</ele>
        <time>2025-04-25T11:39:42Z</time>
      </trkpt>
      <trkpt lat="44.469394013285637" lon="2.720767026767135">
        <ele>543.27999999999997</ele>
        <time>2025-04-25T11:39:43Z</time>
      </trkpt>
      <trkpt lat="44.469365011900663" lon="2.720814971253276">
        <ele>542.79999999999995</ele>
        <time>2025-04-25T11:39:44Z</time>
      </trkpt>
      <trkpt lat="44.469286976382136" lon="2.720942962914705">
        <ele>541.84000000000003</ele>
        <time>2025-04-25T11:39:49Z</time>
      </trkpt>
      <trkpt lat="44.469279013574123" lon="2.72099400870502">
        <ele>541.84000000000003</ele>
        <time>2025-04-25T11:39:50Z</time>
      </trkpt>
      <trkpt lat="44.469134006649256" lon="2.721675960347056">
        <ele>537.50999999999999</ele>
        <time>2025-04-25T11:39:59Z</time>
      </trkpt>
      <trkpt lat="44.469025041908026" lon="2.721942001953721">
        <ele>537.02999999999997</ele>
        <time>2025-04-25T11:40:03Z</time>
      </trkpt>
      <trkpt lat="44.468998974189162" lon="2.722006961703301">
        <ele>537.02999999999997</ele>
        <time>2025-04-25T11:40:04Z</time>
      </trkpt>
      <trkpt lat="44.468968966975808" lon="2.722075022757053">
        <ele>536.54999999999995</ele>
        <time>2025-04-25T11:40:05Z</time>
      </trkpt>
      <trkpt lat="44.468901995569468" lon="2.722317008301616">
        <ele>537.02999999999997</ele>
        <time>2025-04-25T11:40:08Z</time>
      </trkpt>
      <trkpt lat="44.468901995569468" lon="2.722410969436169">
        <ele>537.02999999999997</ele>
        <time>2025-04-25T11:40:09Z</time>
      </trkpt>
      <trkpt lat="44.468901995569468" lon="2.722484981641173">
        <ele>537.50999999999999</ele>
        <time>2025-04-25T11:40:10Z</time>
      </trkpt>
      <trkpt lat="44.468943988904357" lon="2.722596963867545">
        <ele>537.50999999999999</ele>
        <time>2025-04-25T11:40:11Z</time>
      </trkpt>
      <trkpt lat="44.468975001946092" lon="2.722677011042833">
        <ele>537.50999999999999</ele>
        <time>2025-04-25T11:40:12Z</time>
      </trkpt>
      <trkpt lat="44.469006014987826" lon="2.722758986055851">
        <ele>537.99000000000001</ele>
        <time>2025-04-25T11:40:13Z</time>
      </trkpt>
      <trkpt lat="44.46903602220118" lon="2.722837021574378">
        <ele>538.48000000000002</ele>
        <time>2025-04-25T11:40:14Z</time>
      </trkpt>
      <trkpt lat="44.469066029414535" lon="2.722913967445493">
        <ele>539.44000000000005</ele>
        <time>2025-04-25T11:40:15Z</time>
      </trkpt>
      <trkpt lat="44.469092013314366" lon="2.722983034327626">
        <ele>539.91999999999996</ele>
        <time>2025-04-25T11:40:16Z</time>
      </trkpt>
      <trkpt lat="44.469142975285649" lon="2.723116977140307">
        <ele>540.88</ele>
        <time>2025-04-25T11:40:18Z</time>
      </trkpt>
      <trkpt lat="44.469130989164114" lon="2.723305989056826">
        <ele>540.88</ele>
        <time>2025-04-25T11:40:19Z</time>
      </trkpt>
      <trkpt lat="44.469094024971128" lon="2.723373966291547">
        <ele>541.36000000000001</ele>
        <time>2025-04-25T11:40:20Z</time>
      </trkpt>
      <trkpt lat="44.469052031636238" lon="2.723450995981693">
        <ele>541.36000000000001</ele>
        <time>2025-04-25T11:40:21Z</time>
      </trkpt>
      <trkpt lat="44.469021018594503" lon="2.723558032885194">
        <ele>541.36000000000001</ele>
        <time>2025-04-25T11:40:22Z</time>
      </trkpt>
      <trkpt lat="44.46899302303791" lon="2.72365702316165">
        <ele>540.39999999999998</ele>
        <time>2025-04-25T11:40:23Z</time>
      </trkpt>
      <trkpt lat="44.468963015824556" lon="2.723762970417738">
        <ele>539.91999999999996</ele>
        <time>2025-04-25T11:40:24Z</time>
      </trkpt>
      <trkpt lat="44.468642994761467" lon="2.72520499303937">
        <ele>537.02999999999997</ele>
        <time>2025-04-25T11:40:36Z</time>
      </trkpt>
      <trkpt lat="44.468601001426578" lon="2.725359974429011">
        <ele>536.54999999999995</ele>
        <time>2025-04-25T11:40:37Z</time>
      </trkpt>
      <trkpt lat="44.468536963686347" lon="2.725411020219326">
        <ele>535.59000000000003</ele>
        <time>2025-04-25T11:40:38Z</time>
      </trkpt>
      <trkpt lat="44.468458006158471" lon="2.725473968312144">
        <ele>535.11000000000001</ele>
        <time>2025-04-25T11:40:39Z</time>
      </trkpt>
      <trkpt lat="44.468378964811563" lon="2.725535994395614">
        <ele>534.63</ele>
        <time>2025-04-25T11:40:40Z</time>
      </trkpt>
      <trkpt lat="44.468162041157484" lon="2.725707991048694">
        <ele>531.75</ele>
        <time>2025-04-25T11:40:46Z</time>
      </trkpt>
      <trkpt lat="44.468141002580523" lon="2.725725006312132">
        <ele>531.26999999999998</ele>
        <time>2025-04-25T11:40:51Z</time>
      </trkpt>
      <trkpt lat="44.468074031174183" lon="2.725713020190597">
        <ele>531.26999999999998</ele>
        <time>2025-04-25T11:40:52Z</time>
      </trkpt>
      <trkpt lat="44.468065984547138" lon="2.725673038512468">
        <ele>530.78999999999996</ele>
        <time>2025-04-25T11:40:53Z</time>
      </trkpt>
      <trkpt lat="44.468051986768842" lon="2.725611012428999">
        <ele>530.29999999999995</ele>
        <time>2025-04-25T11:40:54Z</time>
      </trkpt>
      <trkpt lat="44.468035977333784" lon="2.725537000223994">
        <ele>530.29999999999995</ele>
        <time>2025-04-25T11:40:55Z</time>
      </trkpt>
      <trkpt lat="44.468003958463669" lon="2.725385958328843">
        <ele>530.29999999999995</ele>
        <time>2025-04-25T11:41:02Z</time>
      </trkpt>
      <trkpt lat="44.468003958463669" lon="2.725385958328843">
        <ele>530.29999999999995</ele>
        <time>2025-04-25T11:41:51Z</time>
      </trkpt>
      <trkpt lat="44.468003958463669" lon="2.725385958328843">
        <ele>530.78999999999996</ele>
        <time>2025-04-25T11:42:42Z</time>
      </trkpt>
      <trkpt lat="44.468003958463669" lon="2.725385958328843">
        <ele>531.26999999999998</ele>
        <time>2025-04-25T11:43:15Z</time>
      </trkpt>
      <trkpt lat="44.468003958463669" lon="2.725385958328843">
        <ele>531.75</ele>
        <time>2025-04-25T11:44:09Z</time>
      </trkpt>
      <trkpt lat="44.468003958463669" lon="2.725385958328843">
        <ele>532.71000000000004</ele>
        <time>2025-04-25T11:45:06Z</time>
      </trkpt>
      <trkpt lat="44.467990966513753" lon="2.725328961387277">
        <ele>532.23000000000002</ele>
        <time>2025-04-25T11:45:47Z</time>
      </trkpt>
      <trkpt lat="44.467907985672355" lon="2.724944986402988">
        <ele>532.23000000000002</ele>
        <time>2025-04-25T11:45:53Z</time>
      </trkpt>
      <trkpt lat="44.467905974015594" lon="2.724936017766595">
        <ele>532.71000000000004</ele>
        <time>2025-04-25T11:45:54Z</time>
      </trkpt>
      <trkpt lat="44.467907985672355" lon="2.724943980574608">
        <ele>532.71000000000004</ele>
        <time>2025-04-25T11:45:55Z</time>
      </trkpt>
      <trkpt lat="44.467911003157496" lon="2.724959990009666">
        <ele>532.71000000000004</ele>
        <time>2025-04-25T11:45:56Z</time>
      </trkpt>
      <trkpt lat="44.467911003157496" lon="2.724959990009666">
        <ele>532.71000000000004</ele>
        <time>2025-04-25T11:45:57Z</time>
      </trkpt>
      <trkpt lat="44.467917960137129" lon="2.7249910030514">
        <ele>533.19000000000005</ele>
        <time>2025-04-25T11:45:58Z</time>
      </trkpt>
      <trkpt lat="44.467923995107412" lon="2.725016986951232">
        <ele>533.19000000000005</ele>
        <time>2025-04-25T11:45:59Z</time>
      </trkpt>
      <trkpt lat="44.467933969572186" lon="2.725064009428024">
        <ele>533.19000000000005</ele>
        <time>2025-04-25T11:46:00Z</time>
      </trkpt>
      <trkpt lat="44.467947967350483" lon="2.725127963349223">
        <ele>533.19000000000005</ele>
        <time>2025-04-25T11:46:01Z</time>
      </trkpt>
      <trkpt lat="44.468086017295718" lon="2.725768005475402">
        <ele>533.66999999999996</ele>
        <time>2025-04-25T11:46:10Z</time>
      </trkpt>
      <trkpt lat="44.468082999810576" lon="2.725860038772225">
        <ele>534.14999999999998</ele>
        <time>2025-04-25T11:46:11Z</time>
      </trkpt>
      <trkpt lat="44.468075959011912" lon="2.726074028760195">
        <ele>533.66999999999996</ele>
        <time>2025-04-25T11:46:13Z</time>
      </trkpt>
      <trkpt lat="44.468014016747475" lon="2.726772995665669">
        <ele>536.07000000000005</ele>
        <time>2025-04-25T11:46:18Z</time>
      </trkpt>
      <trkpt lat="44.467762978747487" lon="2.728210994973779">
        <ele>543.75999999999999</ele>
        <time>2025-04-25T11:46:28Z</time>
      </trkpt>
      <trkpt lat="44.467707993462682" lon="2.72849396802485">
        <ele>546.64999999999998</ele>
        <time>2025-04-25T11:46:34Z</time>
      </trkpt>
      <trkpt lat="44.467707993462682" lon="2.72849396802485">
        <ele>549.52999999999997</ele>
        <time>2025-04-25T11:46:57Z</time>
      </trkpt>
      <trkpt lat="44.467695001512766" lon="2.728558005765081">
        <ele>549.52999999999997</ele>
        <time>2025-04-25T11:47:05Z</time>
      </trkpt>
      <trkpt lat="44.467678992077708" lon="2.72864299826324">
        <ele>550.00999999999999</ele>
        <time>2025-04-25T11:47:06Z</time>
      </trkpt>
      <trkpt lat="44.467739006504416" lon="2.728654984384775">
        <ele>550.97000000000003</ele>
        <time>2025-04-25T11:47:07Z</time>
      </trkpt>
      <trkpt lat="44.467807989567518" lon="2.728673005476594">
        <ele>551.45000000000005</ele>
        <time>2025-04-25T11:47:08Z</time>
      </trkpt>
      <trkpt lat="44.467888036742806" lon="2.728702006861568">
        <ele>550.97000000000003</ele>
        <time>2025-04-25T11:47:09Z</time>
      </trkpt>
      <trkpt lat="44.467974035069346" lon="2.728733019903302">
        <ele>550.97000000000003</ele>
        <time>2025-04-25T11:47:10Z</time>
      </trkpt>
      <trkpt lat="44.468064978718758" lon="2.728763027116656">
        <ele>550.97000000000003</ele>
        <time>2025-04-25T11:47:11Z</time>
      </trkpt>
      <trkpt lat="44.468162963166833" lon="2.72879303433001">
        <ele>550.97000000000003</ele>
        <time>2025-04-25T11:47:12Z</time>
      </trkpt>
      <trkpt lat="44.468253990635276" lon="2.728820024058223">
        <ele>550.97000000000003</ele>
        <time>2025-04-25T11:47:13Z</time>
      </trkpt>
      <trkpt lat="44.468333031982183" lon="2.728842990472913">
        <ele>551.45000000000005</ele>
        <time>2025-04-25T11:47:14Z</time>
      </trkpt>
      <trkpt lat="44.468403020873666" lon="2.728866040706635">
        <ele>551.45000000000005</ele>
        <time>2025-04-25T11:47:15Z</time>
      </trkpt>
      <trkpt lat="44.468450965359807" lon="2.728890012949705">
        <ele>551.45000000000005</ele>
        <time>2025-04-25T11:47:16Z</time>
      </trkpt>
      <trkpt lat="44.468473009765148" lon="2.72890099324286">
        <ele>551.45000000000005</ele>
        <time>2025-04-25T11:47:17Z</time>
      </trkpt>
      <trkpt lat="44.468473009765148" lon="2.72890099324286">
        <ele>551.45000000000005</ele>
        <time>2025-04-25T11:47:18Z</time>
      </trkpt>
      <trkpt lat="44.468473009765148" lon="2.72890099324286">
        <ele>551.45000000000005</ele>
        <time>2025-04-25T11:47:19Z</time>
      </trkpt>
      <trkpt lat="44.468526989221573" lon="2.728909961879253">
        <ele>551.45000000000005</ele>
        <time>2025-04-25T11:47:20Z</time>
      </trkpt>
      <trkpt lat="44.468542998656631" lon="2.728912979364395">
        <ele>551.45000000000005</ele>
        <time>2025-04-25T11:47:21Z</time>
      </trkpt>
      <trkpt lat="44.468542998656631" lon="2.728912979364395">
        <ele>551.45000000000005</ele>
        <time>2025-04-25T11:47:22Z</time>
      </trkpt>
      <trkpt lat="44.468537969514728" lon="2.729235012084246">
        <ele>557.70000000000005</ele>
        <time>2025-04-25T11:52:29Z</time>
      </trkpt>
      <trkpt lat="44.468538975343108" lon="2.729228977113962">
        <ele>557.22000000000003</ele>
        <time>2025-04-25T11:53:09Z</time>
      </trkpt>
      <trkpt lat="44.468558002263308" lon="2.729254961013794">
        <ele>553.86000000000001</ele>
        <time>2025-04-25T11:53:52Z</time>
      </trkpt>
      <trkpt lat="44.468697980046272" lon="2.729043988510966">
        <ele>559.13999999999999</ele>
        <time>2025-04-25T11:54:02Z</time>
      </trkpt>
      <trkpt lat="44.468728993088007" lon="2.728980034589768">
        <ele>560.59000000000003</ele>
        <time>2025-04-25T11:54:17Z</time>
      </trkpt>
      <trkpt lat="44.468708038330078" lon="2.728957990184426">
        <ele>560.59000000000003</ele>
        <time>2025-04-25T11:54:19Z</time>
      </trkpt>
      <trkpt lat="44.468665961176157" lon="2.72894399240613">
        <ele>560.11000000000001</ele>
        <time>2025-04-25T11:54:20Z</time>
      </trkpt>
      <trkpt lat="44.468595972284675" lon="2.72892203181982">
        <ele>559.62</ele>
        <time>2025-04-25T11:54:21Z</time>
      </trkpt>
      <trkpt lat="44.468508968129754" lon="2.728907028213143">
        <ele>558.65999999999997</ele>
        <time>2025-04-25T11:54:22Z</time>
      </trkpt>
      <trkpt lat="44.467786028981209" lon="2.728664958849549">
        <ele>554.34000000000003</ele>
        <time>2025-04-25T11:54:30Z</time>
      </trkpt>
      <trkpt lat="44.467735989019275" lon="2.728654984384775">
        <ele>553.86000000000001</ele>
        <time>2025-04-25T11:54:31Z</time>
      </trkpt>
      <trkpt lat="44.467717967927456" lon="2.728437976911664">
        <ele>553.38</ele>
        <time>2025-04-25T11:54:32Z</time>
      </trkpt>
      <trkpt lat="44.467740012332797" lon="2.728328006342053">
        <ele>552.40999999999997</ele>
        <time>2025-04-25T11:54:33Z</time>
      </trkpt>
      <trkpt lat="44.467765996232629" lon="2.728190962225199">
        <ele>551.45000000000005</ele>
        <time>2025-04-25T11:54:34Z</time>
      </trkpt>
      <trkpt lat="44.467794997617602" lon="2.728042015805841">
        <ele>550.97000000000003</ele>
        <time>2025-04-25T11:54:35Z</time>
      </trkpt>
      <trkpt lat="44.467823999002576" lon="2.727894997224212">
        <ele>550.00999999999999</ele>
        <time>2025-04-25T11:54:36Z</time>
      </trkpt>
      <trkpt lat="44.467850988730788" lon="2.727756025269628">
        <ele>549.52999999999997</ele>
        <time>2025-04-25T11:54:37Z</time>
      </trkpt>
      <trkpt lat="44.468078976497054" lon="2.725975038483739">
        <ele>546.64999999999998</ele>
        <time>2025-04-25T11:54:49Z</time>
      </trkpt>
      <trkpt lat="44.468082999810576" lon="2.725851992145181">
        <ele>546.64999999999998</ele>
        <time>2025-04-25T11:54:50Z</time>
      </trkpt>
      <trkpt lat="44.468081993982196" lon="2.725747972726822">
        <ele>547.13</ele>
        <time>2025-04-25T11:54:51Z</time>
      </trkpt>
      <trkpt lat="44.468056010082364" lon="2.725626016035676">
        <ele>546.64999999999998</ele>
        <time>2025-04-25T11:54:52Z</time>
      </trkpt>
      <trkpt lat="44.46796297095716" lon="2.725199963897467">
        <ele>545.69000000000005</ele>
        <time>2025-04-25T11:54:55Z</time>
      </trkpt>
      <trkpt lat="44.467711010947824" lon="2.723473040387034">
        <ele>539.91999999999996</ele>
        <time>2025-04-25T11:55:05Z</time>
      </trkpt>
      <trkpt lat="44.467530967667699" lon="2.722365036606789">
        <ele>534.63</ele>
        <time>2025-04-25T11:55:12Z</time>
      </trkpt>
      <trkpt lat="44.467491991817951" lon="2.722208965569735">
        <ele>534.14999999999998</ele>
        <time>2025-04-25T11:55:13Z</time>
      </trkpt>
      <trkpt lat="44.467455027624965" lon="2.722063036635518">
        <ele>533.19000000000005</ele>
        <time>2025-04-25T11:55:14Z</time>
      </trkpt>
      <trkpt lat="44.467399036511779" lon="2.721776040270925">
        <ele>531.75</ele>
        <time>2025-04-25T11:55:16Z</time>
      </trkpt>
      <trkpt lat="44.467377997934818" lon="2.721627010032535">
        <ele>530.78999999999996</ele>
        <time>2025-04-25T11:55:17Z</time>
      </trkpt>
      <trkpt lat="44.467399036511779" lon="2.721474040299654">
        <ele>530.29999999999995</ele>
        <time>2025-04-25T11:55:18Z</time>
      </trkpt>
      <trkpt lat="44.467418985441327" lon="2.721321992576122">
        <ele>529.34000000000003</ele>
        <time>2025-04-25T11:55:19Z</time>
      </trkpt>
      <trkpt lat="44.467440024018288" lon="2.721163993701339">
        <ele>528.86000000000001</ele>
        <time>2025-04-25T11:55:20Z</time>
      </trkpt>
      <trkpt lat="44.467461984604597" lon="2.721000965684652">
        <ele>528.38</ele>
        <time>2025-04-25T11:55:21Z</time>
      </trkpt>
      <trkpt lat="44.467514958232641" lon="2.720858976244927">
        <ele>527.89999999999998</ele>
        <time>2025-04-25T11:55:22Z</time>
      </trkpt>
      <trkpt lat="44.467572961002588" lon="2.720716986805201">
        <ele>526.94000000000005</ele>
        <time>2025-04-25T11:55:23Z</time>
      </trkpt>
      <trkpt lat="44.467630963772535" lon="2.720574997365475">
        <ele>526.46000000000004</ele>
        <time>2025-04-25T11:55:24Z</time>
      </trkpt>
      <trkpt lat="44.467691984027624" lon="2.720445999875665">
        <ele>525.5</ele>
        <time>2025-04-25T11:55:25Z</time>
      </trkpt>
      <trkpt lat="44.467758033424616" lon="2.720323037356138">
        <ele>525.01999999999998</ele>
        <time>2025-04-25T11:55:26Z</time>
      </trkpt>
      <trkpt lat="44.467828022316098" lon="2.720194039866328">
        <ele>523.58000000000004</ele>
        <time>2025-04-25T11:55:27Z</time>
      </trkpt>
      <trkpt lat="44.467902034521103" lon="2.720055989921093">
        <ele>522.61000000000001</ele>
        <time>2025-04-25T11:55:28Z</time>
      </trkpt>
      <trkpt lat="44.467966994270682" lon="2.719902014359832">
        <ele>521.16999999999996</ele>
        <time>2025-04-25T11:55:29Z</time>
      </trkpt>
      <trkpt lat="44.468000018969178" lon="2.719715014100075">
        <ele>520.21000000000004</ele>
        <time>2025-04-25T11:55:30Z</time>
      </trkpt>
      <trkpt lat="44.468035977333784" lon="2.719518039375544">
        <ele>519.25</ele>
        <time>2025-04-25T11:55:31Z</time>
      </trkpt>
      <trkpt lat="44.468071013689041" lon="2.71931896917522">
        <ele>517.80999999999995</ele>
        <time>2025-04-25T11:55:32Z</time>
      </trkpt>
      <trkpt lat="44.468105966225266" lon="2.71912400610745">
        <ele>516.85000000000002</ele>
        <time>2025-04-25T11:55:33Z</time>
      </trkpt>
      <trkpt lat="44.468199005350471" lon="2.718972964212298">
        <ele>515.39999999999998</ele>
        <time>2025-04-25T11:55:34Z</time>
      </trkpt>
      <trkpt lat="44.468299001455307" lon="2.718832986429334">
        <ele>514.44000000000005</ele>
        <time>2025-04-25T11:55:35Z</time>
      </trkpt>
      <trkpt lat="44.468408972024918" lon="2.718707006424666">
        <ele>513.48000000000002</ele>
        <time>2025-04-25T11:55:36Z</time>
      </trkpt>
      <trkpt lat="44.468626985326409" lon="2.718455968424678">
        <ele>511.56</ele>
        <time>2025-04-25T11:55:38Z</time>
      </trkpt>
      <trkpt lat="44.468808034434915" lon="2.71822102367878">
        <ele>509.16000000000003</ele>
        <time>2025-04-25T11:55:40Z</time>
      </trkpt>
      <trkpt lat="44.468858996406198" lon="2.718151034787297">
        <ele>508.19</ele>
        <time>2025-04-25T11:55:41Z</time>
      </trkpt>
      <trkpt lat="44.468893026933074" lon="2.718034023419023">
        <ele>507.23000000000002</ele>
        <time>2025-04-25T11:55:42Z</time>
      </trkpt>
      <trkpt lat="44.468940971419215" lon="2.717870995402336">
        <ele>505.31</ele>
        <time>2025-04-25T11:55:44Z</time>
      </trkpt>
      <trkpt lat="44.468964021652937" lon="2.71779396571219">
        <ele>504.35000000000002</ele>
        <time>2025-04-25T11:55:45Z</time>
      </trkpt>
      <trkpt lat="44.468966033309698" lon="2.71772800013423">
        <ele>503.38999999999999</ele>
        <time>2025-04-25T11:55:46Z</time>
      </trkpt>
      <trkpt lat="44.468966033309698" lon="2.717648036777973">
        <ele>502.91000000000003</ele>
        <time>2025-04-25T11:55:47Z</time>
      </trkpt>
      <trkpt lat="44.468966033309698" lon="2.717571007087827">
        <ele>502.43000000000001</ele>
        <time>2025-04-25T11:55:48Z</time>
      </trkpt>
      <trkpt lat="44.468966033309698" lon="2.717549968510866">
        <ele>501.45999999999998</ele>
        <time>2025-04-25T11:55:49Z</time>
      </trkpt>
      <trkpt lat="44.468966033309698" lon="2.717549968510866">
        <ele>500.98000000000002</ele>
        <time>2025-04-25T11:55:50Z</time>
      </trkpt>
      <trkpt lat="44.468936026096344" lon="2.717447960749269">
        <ele>500.5</ele>
        <time>2025-04-25T11:55:51Z</time>
      </trkpt>
      <trkpt lat="44.468966033309698" lon="2.717549968510866">
        <ele>500.01999999999998</ele>
        <time>2025-04-25T11:55:52Z</time>
      </trkpt>
      <trkpt lat="44.468966033309698" lon="2.717549968510866">
        <ele>500.01999999999998</ele>
        <time>2025-04-25T11:56:07Z</time>
      </trkpt>
      <trkpt lat="44.468966033309698" lon="2.717549968510866">
        <ele>499.06</ele>
        <time>2025-04-25T11:56:57Z</time>
      </trkpt>
      <trkpt lat="44.468924961984158" lon="2.717412002384663">
        <ele>499.06</ele>
        <time>2025-04-25T11:57:02Z</time>
      </trkpt>
      <trkpt lat="44.468901995569468" lon="2.717334972694516">
        <ele>499.06</ele>
        <time>2025-04-25T11:57:03Z</time>
      </trkpt>
      <trkpt lat="44.468901995569468" lon="2.717334972694516">
        <ele>499.54000000000002</ele>
        <time>2025-04-25T11:57:04Z</time>
      </trkpt>
      <trkpt lat="44.468865031376481" lon="2.717257020995021">
        <ele>499.54000000000002</ele>
        <time>2025-04-25T11:57:05Z</time>
      </trkpt>
      <trkpt lat="44.468828989192843" lon="2.717182002961636">
        <ele>499.54000000000002</ele>
        <time>2025-04-25T11:57:06Z</time>
      </trkpt>
      <trkpt lat="44.468708960339427" lon="2.716928031295538">
        <ele>498.10000000000002</ele>
        <time>2025-04-25T11:57:09Z</time>
      </trkpt>
      <trkpt lat="44.468646012246609" lon="2.716856030747294">
        <ele>497.62</ele>
        <time>2025-04-25T11:57:10Z</time>
      </trkpt>
      <trkpt lat="44.468558002263308" lon="2.716756034642458">
        <ele>497.13999999999999</ele>
        <time>2025-04-25T11:57:11Z</time>
      </trkpt>
      <trkpt lat="44.468444008380175" lon="2.716717980802059">
        <ele>496.18000000000001</ele>
        <time>2025-04-25T11:57:13Z</time>
      </trkpt>
      <trkpt lat="44.468371002003551" lon="2.716693002730608">
        <ele>495.69999999999999</ele>
        <time>2025-04-25T11:57:14Z</time>
      </trkpt>
      <trkpt lat="44.468214008957148" lon="2.716700965538621">
        <ele>495.22000000000003</ele>
        <time>2025-04-25T11:57:16Z</time>
      </trkpt>
      <trkpt lat="44.468136979267001" lon="2.716728961095214">
        <ele>495.22000000000003</ele>
        <time>2025-04-25T11:57:17Z</time>
      </trkpt>
      <trkpt lat="44.468000018969178" lon="2.716776989400387">
        <ele>494.74000000000001</ele>
        <time>2025-04-25T11:57:19Z</time>
      </trkpt>
      <trkpt lat="44.467938998714089" lon="2.716757962480187">
        <ele>494.25999999999999</ele>
        <time>2025-04-25T11:57:20Z</time>
      </trkpt>
      <trkpt lat="44.467875966802239" lon="2.71673901937902">
        <ele>494.25999999999999</ele>
        <time>2025-04-25T11:57:21Z</time>
      </trkpt>
      <trkpt lat="44.467807989567518" lon="2.716717980802059">
        <ele>493.76999999999998</ele>
        <time>2025-04-25T11:57:22Z</time>
      </trkpt>
      <trkpt lat="44.467732971534133" lon="2.716695014387369">
        <ele>493.76999999999998</ele>
        <time>2025-04-25T11:57:23Z</time>
      </trkpt>
      <trkpt lat="44.467633981257677" lon="2.716745976358652">
        <ele>493.76999999999998</ele>
        <time>2025-04-25T11:57:24Z</time>
      </trkpt>
      <trkpt lat="44.467554017901421" lon="2.716796016320586">
        <ele>493.76999999999998</ele>
        <time>2025-04-25T11:57:25Z</time>
      </trkpt>
      <trkpt lat="44.467486962676048" lon="2.716904981061816">
        <ele>493.76999999999998</ele>
        <time>2025-04-25T11:57:26Z</time>
      </trkpt>
      <trkpt lat="44.467418985441327" lon="2.71702098660171">
        <ele>494.25999999999999</ele>
        <time>2025-04-25T11:57:27Z</time>
      </trkpt>
      <trkpt lat="44.467346984893084" lon="2.717143027111888">
        <ele>494.74000000000001</ele>
        <time>2025-04-25T11:57:28Z</time>
      </trkpt>
      <trkpt lat="44.466752959415317" lon="2.718099988996983">
        <ele>498.10000000000002</ele>
        <time>2025-04-25T11:57:35Z</time>
      </trkpt>
      <trkpt lat="44.466669978573918" lon="2.718194033950567">
        <ele>499.06</ele>
        <time>2025-04-25T11:57:36Z</time>
      </trkpt>
      <trkpt lat="44.466560008004308" lon="2.718238038942218">
        <ele>500.01999999999998</ele>
        <time>2025-04-25T11:57:37Z</time>
      </trkpt>
      <trkpt lat="44.466455988585949" lon="2.718279026448727">
        <ele>501.45999999999998</ele>
        <time>2025-04-25T11:57:38Z</time>
      </trkpt>
      <trkpt lat="44.466358004137874" lon="2.718279026448727">
        <ele>502.91000000000003</ele>
        <time>2025-04-25T11:57:39Z</time>
      </trkpt>
      <trkpt lat="44.465367011725903" lon="2.718217000365257">
        <ele>515.88</ele>
        <time>2025-04-25T11:57:47Z</time>
      </trkpt>
      <trkpt lat="44.465244971215725" lon="2.718168972060084">
        <ele>516.85000000000002</ele>
        <time>2025-04-25T11:57:48Z</time>
      </trkpt>
      <trkpt lat="44.465119997039437" lon="2.718085991218686">
        <ele>517.80999999999995</ele>
        <time>2025-04-25T11:57:49Z</time>
      </trkpt>
      <trkpt lat="44.465036010369658" lon="2.717949030920863">
        <ele>519.25</ele>
        <time>2025-04-25T11:57:50Z</time>
      </trkpt>
      <trkpt lat="44.464964009821415" lon="2.71779497154057">
        <ele>520.69000000000005</ele>
        <time>2025-04-25T11:57:51Z</time>
      </trkpt>
      <trkpt lat="44.464926961809397" lon="2.717608977109194">
        <ele>522.13</ele>
        <time>2025-04-25T11:57:52Z</time>
      </trkpt>
      <trkpt lat="44.46488899178803" lon="2.717410996556282">
        <ele>523.58000000000004</ele>
        <time>2025-04-25T11:57:53Z</time>
      </trkpt>
      <trkpt lat="44.46488899178803" lon="2.717196000739932">
        <ele>525.01999999999998</ele>
        <time>2025-04-25T11:57:54Z</time>
      </trkpt>
      <trkpt lat="44.464880023151636" lon="2.716747988015413">
        <ele>527.89999999999998</ele>
        <time>2025-04-25T11:57:56Z</time>
      </trkpt>
      <trkpt lat="44.464841969311237" lon="2.71652502939105">
        <ele>529.34000000000003</ele>
        <time>2025-04-25T11:57:57Z</time>
      </trkpt>
      <trkpt lat="44.464801987633109" lon="2.716294024139643">
        <ele>530.29999999999995</ele>
        <time>2025-04-25T11:57:58Z</time>
      </trkpt>
      <trkpt lat="44.464212991297245" lon="2.714797016233206">
        <ele>535.59000000000003</ele>
        <time>2025-04-25T11:58:05Z</time>
      </trkpt>
      <trkpt lat="44.46385701186955" lon="2.714150017127395">
        <ele>537.99000000000001</ele>
        <time>2025-04-25T11:58:09Z</time>
      </trkpt>
      <trkpt lat="44.463757015764713" lon="2.714020013809204">
        <ele>538.48000000000002</ele>
        <time>2025-04-25T11:58:10Z</time>
      </trkpt>
      <trkpt lat="44.463631035760045" lon="2.713930997997522">
        <ele>538.96000000000004</ele>
        <time>2025-04-25T11:58:11Z</time>
      </trkpt>
      <trkpt lat="44.463498014956713" lon="2.713844999670982">
        <ele>539.91999999999996</ele>
        <time>2025-04-25T11:58:12Z</time>
      </trkpt>
      <trkpt lat="44.463358037173748" lon="2.713762018829584">
        <ele>540.88</ele>
        <time>2025-04-25T11:58:13Z</time>
      </trkpt>
      <trkpt lat="44.462043000385165" lon="2.712983004748821">
        <ele>547.61000000000001</ele>
        <time>2025-04-25T11:58:22Z</time>
      </trkpt>
      <trkpt lat="44.460755959153175" lon="2.711896039545536">
        <ele>543.75999999999999</ele>
        <time>2025-04-25T11:58:31Z</time>
      </trkpt>
      <trkpt lat="44.460482038557529" lon="2.711638966575265">
        <ele>542.32000000000005</ele>
        <time>2025-04-25T11:58:33Z</time>
      </trkpt>
      <trkpt lat="44.460369972512126" lon="2.711481973528862">
        <ele>541.84000000000003</ele>
        <time>2025-04-25T11:58:34Z</time>
      </trkpt>
      <trkpt lat="44.460286991670728" lon="2.711292961612344">
        <ele>541.36000000000001</ele>
        <time>2025-04-25T11:58:35Z</time>
      </trkpt>
      <trkpt lat="44.460210967808962" lon="2.711090035736561">
        <ele>540.88</ele>
        <time>2025-04-25T11:58:36Z</time>
      </trkpt>
      <trkpt lat="44.460176015272737" lon="2.710860036313534">
        <ele>540.88</ele>
        <time>2025-04-25T11:58:37Z</time>
      </trkpt>
      <trkpt lat="44.460151959210634" lon="2.710621990263462">
        <ele>541.36000000000001</ele>
        <time>2025-04-25T11:58:38Z</time>
      </trkpt>
      <trkpt lat="44.460129998624325" lon="2.710376987233758">
        <ele>541.36000000000001</ele>
        <time>2025-04-25T11:58:39Z</time>
      </trkpt>
      <trkpt lat="44.460025979205966" lon="2.709652036428452">
        <ele>542.32000000000005</ele>
        <time>2025-04-25T11:58:42Z</time>
      </trkpt>
      <trkpt lat="44.459956996142864" lon="2.709417007863522">
        <ele>542.79999999999995</ele>
        <time>2025-04-25T11:58:43Z</time>
      </trkpt>
      <trkpt lat="44.459189968183637" lon="2.707657981663942">
        <ele>549.52999999999997</ele>
        <time>2025-04-25T11:58:51Z</time>
      </trkpt>
      <trkpt lat="44.458865001797676" lon="2.707062028348446">
        <ele>554.34000000000003</ele>
        <time>2025-04-25T11:58:54Z</time>
      </trkpt>
      <trkpt lat="44.458768023177981" lon="2.706885002553463">
        <ele>555.77999999999997</ele>
        <time>2025-04-25T11:58:55Z</time>
      </trkpt>
      <trkpt lat="44.458709014579654" lon="2.706777965649962">
        <ele>556.74000000000001</ele>
        <time>2025-04-25T11:58:56Z</time>
      </trkpt>
      <trkpt lat="44.458566019311547" lon="2.706671012565494">
        <ele>558.17999999999995</ele>
        <time>2025-04-25T11:58:57Z</time>
      </trkpt>
      <trkpt lat="44.458463005721569" lon="2.706592977046967">
        <ele>559.62</ele>
        <time>2025-04-25T11:58:58Z</time>
      </trkpt>
      <trkpt lat="44.458349011838436" lon="2.706507984548807">
        <ele>560.59000000000003</ele>
        <time>2025-04-25T11:58:59Z</time>
      </trkpt>
      <trkpt lat="44.458256978541613" lon="2.706400025635958">
        <ele>561.54999999999995</ele>
        <time>2025-04-25T11:59:00Z</time>
      </trkpt>
      <trkpt lat="44.458195958286524" lon="2.706250995397568">
        <ele>562.50999999999999</ele>
        <time>2025-04-25T11:59:01Z</time>
      </trkpt>
      <trkpt lat="44.458128986880183" lon="2.706088973209262">
        <ele>562.99000000000001</ele>
        <time>2025-04-25T11:59:02Z</time>
      </trkpt>
      <trkpt lat="44.458058997988701" lon="2.705915970727801">
        <ele>562.99000000000001</ele>
        <time>2025-04-25T11:59:03Z</time>
      </trkpt>
      <trkpt lat="44.457982974126935" lon="2.705732993781567">
        <ele>563.47000000000003</ele>
        <time>2025-04-25T11:59:04Z</time>
      </trkpt>
      <trkpt lat="44.457898987457156" lon="2.705572983250022">
        <ele>563.47000000000003</ele>
        <time>2025-04-25T11:59:05Z</time>
      </trkpt>
      <trkpt lat="44.457793962210417" lon="2.705442979931831">
        <ele>563.95000000000005</ele>
        <time>2025-04-25T11:59:06Z</time>
      </trkpt>
      <trkpt lat="44.457688014954329" lon="2.70531096495688">
        <ele>564.42999999999995</ele>
        <time>2025-04-25T11:59:07Z</time>
      </trkpt>
      <trkpt lat="44.457576032727957" lon="2.705171993002296">
        <ele>564.90999999999997</ele>
        <time>2025-04-25T11:59:08Z</time>
      </trkpt>
      <trkpt lat="44.457464972510934" lon="2.705034026876092">
        <ele>565.38999999999999</ele>
        <time>2025-04-25T11:59:09Z</time>
      </trkpt>
      <trkpt lat="44.457385009154677" lon="2.704879967495799">
        <ele>565.87</ele>
        <time>2025-04-25T11:59:10Z</time>
      </trkpt>
      <trkpt lat="44.457344021648169" lon="2.70468601025641">
        <ele>566.83000000000004</ele>
        <time>2025-04-25T11:59:11Z</time>
      </trkpt>
      <trkpt lat="44.457321977242827" lon="2.704516025260091">
        <ele>567.32000000000005</ele>
        <time>2025-04-25T11:59:12Z</time>
      </trkpt>
      <trkpt lat="44.457371011376381" lon="2.704318966716528">
        <ele>568.27999999999997</ele>
        <time>2025-04-25T11:59:13Z</time>
      </trkpt>
      <trkpt lat="44.457424990832806" lon="2.704105982556939">
        <ele>569.24000000000001</ele>
        <time>2025-04-25T11:59:14Z</time>
      </trkpt>
      <trkpt lat="44.45747897028923" lon="2.703887969255447">
        <ele>570.20000000000005</ele>
        <time>2025-04-25T11:59:15Z</time>
      </trkpt>
      <trkpt lat="44.457504032179713" lon="2.703649001196027">
        <ele>571.15999999999997</ele>
        <time>2025-04-25T11:59:16Z</time>
      </trkpt>
      <trkpt lat="44.457522975280881" lon="2.703416990116239">
        <ele>572.12</ele>
        <time>2025-04-25T11:59:17Z</time>
      </trkpt>
      <trkpt lat="44.457507971674204" lon="2.703167041763663">
        <ele>573.08000000000004</ele>
        <time>2025-04-25T11:59:18Z</time>
      </trkpt>
      <trkpt lat="44.457479976117611" lon="2.702934024855495">
        <ele>574.03999999999996</ele>
        <time>2025-04-25T11:59:19Z</time>
      </trkpt>
      <trkpt lat="44.457267997786403" lon="2.701846975833178">
        <ele>579.33000000000004</ele>
        <time>2025-04-25T11:59:24Z</time>
      </trkpt>
      <trkpt lat="44.457215024158359" lon="2.701672967523336">
        <ele>580.28999999999996</ele>
        <time>2025-04-25T11:59:25Z</time>
      </trkpt>
      <trkpt lat="44.457139000296593" lon="2.701518991962075">
        <ele>581.25</ele>
        <time>2025-04-25T11:59:26Z</time>
      </trkpt>
      <trkpt lat="44.457072028890252" lon="2.701363004744053">
        <ele>582.22000000000003</ele>
        <time>2025-04-25T11:59:27Z</time>
      </trkpt>
      <trkpt lat="44.457022994756699" lon="2.701177010312676">
        <ele>582.70000000000005</ele>
        <time>2025-04-25T11:59:28Z</time>
      </trkpt>
      <trkpt lat="44.456974966451526" lon="2.700960002839565">
        <ele>583.17999999999995</ele>
        <time>2025-04-25T11:59:29Z</time>
      </trkpt>
      <trkpt lat="44.456971026957035" lon="2.700709970667958">
        <ele>583.17999999999995</ele>
        <time>2025-04-25T11:59:30Z</time>
      </trkpt>
      <trkpt lat="44.456971026957035" lon="2.700446024537087">
        <ele>583.17999999999995</ele>
        <time>2025-04-25T11:59:31Z</time>
      </trkpt>
      <trkpt lat="44.45698200725019" lon="2.70017403177917">
        <ele>583.17999999999995</ele>
        <time>2025-04-25T11:59:32Z</time>
      </trkpt>
      <trkpt lat="44.457028023898602" lon="2.699905978515744">
        <ele>582.70000000000005</ele>
        <time>2025-04-25T11:59:33Z</time>
      </trkpt>
      <trkpt lat="44.457075968384743" lon="2.699630968272686">
        <ele>581.73000000000002</ele>
        <time>2025-04-25T11:59:34Z</time>
      </trkpt>
      <trkpt lat="44.457614002749324" lon="2.697774963453412">
        <ele>574.52999999999997</ele>
        <time>2025-04-25T11:59:41Z</time>
      </trkpt>
      <trkpt lat="44.457751968875527" lon="2.697302978485823">
        <ele>571.63999999999999</ele>
        <time>2025-04-25T11:59:43Z</time>
      </trkpt>
      <trkpt lat="44.457760015502572" lon="2.697069039568305">
        <ele>570.67999999999995</ele>
        <time>2025-04-25T11:59:44Z</time>
      </trkpt>
      <trkpt lat="44.457735037431121" lon="2.696820013225079">
        <ele>569.24000000000001</ele>
        <time>2025-04-25T11:59:45Z</time>
      </trkpt>
      <trkpt lat="44.457681979984045" lon="2.696294970810413">
        <ele>566.83000000000004</ele>
        <time>2025-04-25T11:59:47Z</time>
      </trkpt>
      <trkpt lat="44.457658007740974" lon="2.696048961952329">
        <ele>565.38999999999999</ele>
        <time>2025-04-25T11:59:48Z</time>
      </trkpt>
      <trkpt lat="44.457707963883877" lon="2.695798007771373">
        <ele>564.42999999999995</ele>
        <time>2025-04-25T11:59:49Z</time>
      </trkpt>
      <trkpt lat="44.457764960825443" lon="2.695551998913288">
        <ele>563.47000000000003</ele>
        <time>2025-04-25T11:59:50Z</time>
      </trkpt>
      <trkpt lat="44.457844002172351" lon="2.695304984226823">
        <ele>562.50999999999999</ele>
        <time>2025-04-25T11:59:51Z</time>
      </trkpt>
      <trkpt lat="44.457921031862497" lon="2.69506199285388">
        <ele>561.07000000000005</ele>
        <time>2025-04-25T11:59:52Z</time>
      </trkpt>
      <trkpt lat="44.458046006038785" lon="2.69458900205791">
        <ele>558.65999999999997</ele>
        <time>2025-04-25T11:59:54Z</time>
      </trkpt>
      <trkpt lat="44.458052963018417" lon="2.694342993199825">
        <ele>557.70000000000005</ele>
        <time>2025-04-25T11:59:55Z</time>
      </trkpt>
      <trkpt lat="44.458027984946966" lon="2.694097990170121">
        <ele>556.25999999999999</ele>
        <time>2025-04-25T11:59:56Z</time>
      </trkpt>
      <trkpt lat="44.457975011318922" lon="2.693594992160797">
        <ele>553.86000000000001</ele>
        <time>2025-04-25T11:59:58Z</time>
      </trkpt>
      <trkpt lat="44.457966964691877" lon="2.69332098774612">
        <ele>552.40999999999997</ele>
        <time>2025-04-25T11:59:59Z</time>
      </trkpt>
      <trkpt lat="44.457989009097219" lon="2.693042038008571">
        <ele>550.97000000000003</ele>
        <time>2025-04-25T12:00:00Z</time>
      </trkpt>
      <trkpt lat="44.458081964403391" lon="2.690214989706874">
        <ele>539.91999999999996</ele>
        <time>2025-04-25T12:00:10Z</time>
      </trkpt>
      <trkpt lat="44.4580780249089" lon="2.688905987888575">
        <ele>534.63</ele>
        <time>2025-04-25T12:00:15Z</time>
      </trkpt>
      <trkpt lat="44.458114989101887" lon="2.688660984858871">
        <ele>533.66999999999996</ele>
        <time>2025-04-25T12:00:16Z</time>
      </trkpt>
      <trkpt lat="44.458151031285524" lon="2.688410030677915">
        <ele>532.71000000000004</ele>
        <time>2025-04-25T12:00:17Z</time>
      </trkpt>
      <trkpt lat="44.458220014348626" lon="2.688167039304972">
        <ele>532.23000000000002</ele>
        <time>2025-04-25T12:00:18Z</time>
      </trkpt>
      <trkpt lat="44.458291009068489" lon="2.687920024618506">
        <ele>531.75</ele>
        <time>2025-04-25T12:00:19Z</time>
      </trkpt>
      <trkpt lat="44.45878897793591" lon="2.68616896122694">
        <ele>528.38</ele>
        <time>2025-04-25T12:00:26Z</time>
      </trkpt>
      <trkpt lat="44.458806999027729" lon="2.685921024531126">
        <ele>527.89999999999998</ele>
        <time>2025-04-25T12:00:27Z</time>
      </trkpt>
      <trkpt lat="44.458791995421052" lon="2.685669986531138">
        <ele>527.41999999999996</ele>
        <time>2025-04-25T12:00:28Z</time>
      </trkpt>
      <trkpt lat="44.45876500569284" lon="2.684882003813982">
        <ele>528.38</ele>
        <time>2025-04-25T12:00:31Z</time>
      </trkpt>
      <trkpt lat="44.45878797210753" lon="2.684615962207317">
        <ele>528.86000000000001</ele>
        <time>2025-04-25T12:00:32Z</time>
      </trkpt>
      <trkpt lat="44.459104975685477" lon="2.681794026866555">
        <ele>535.59000000000003</ele>
        <time>2025-04-25T12:00:42Z</time>
      </trkpt>
      <trkpt lat="44.459650972858071" lon="2.678705966100097">
        <ele>536.07000000000005</ele>
        <time>2025-04-25T12:00:53Z</time>
      </trkpt>
      <trkpt lat="44.459765972569585" lon="2.678210008889437">
        <ele>535.59000000000003</ele>
        <time>2025-04-25T12:00:55Z</time>
      </trkpt>
      <trkpt lat="44.459802014753222" lon="2.677965005859733">
        <ele>535.59000000000003</ele>
        <time>2025-04-25T12:00:56Z</time>
      </trkpt>
      <trkpt lat="44.459824981167912" lon="2.677724026143551">
        <ele>535.59000000000003</ele>
        <time>2025-04-25T12:00:57Z</time>
      </trkpt>
      <trkpt lat="44.459824981167912" lon="2.677484974265099">
        <ele>535.59000000000003</ele>
        <time>2025-04-25T12:00:58Z</time>
      </trkpt>
      <trkpt lat="44.459810983389616" lon="2.677253969013691">
        <ele>536.07000000000005</ele>
        <time>2025-04-25T12:00:59Z</time>
      </trkpt>
      <trkpt lat="44.459760021418333" lon="2.677022041752935">
        <ele>535.59000000000003</ele>
        <time>2025-04-25T12:01:00Z</time>
      </trkpt>
      <trkpt lat="44.459705958142877" lon="2.676773015409708">
        <ele>535.59000000000003</ele>
        <time>2025-04-25T12:01:01Z</time>
      </trkpt>
      <trkpt lat="44.459649967029691" lon="2.676513008773327">
        <ele>535.11000000000001</ele>
        <time>2025-04-25T12:01:02Z</time>
      </trkpt>
      <trkpt lat="44.459605040028691" lon="2.676225006580353">
        <ele>535.11000000000001</ele>
        <time>2025-04-25T12:01:03Z</time>
      </trkpt>
      <trkpt lat="44.459590036422014" lon="2.675927029922605">
        <ele>535.11000000000001</ele>
        <time>2025-04-25T12:01:04Z</time>
      </trkpt>
      <trkpt lat="44.459597999230027" lon="2.675622012466192">
        <ele>535.11000000000001</ele>
        <time>2025-04-25T12:01:05Z</time>
      </trkpt>
      <trkpt lat="44.459608979523182" lon="2.675311965867877">
        <ele>535.59000000000003</ele>
        <time>2025-04-25T12:01:06Z</time>
      </trkpt>
      <trkpt lat="44.459556005895138" lon="2.672902001067996">
        <ele>541.36000000000001</ele>
        <time>2025-04-25T12:01:14Z</time>
      </trkpt>
      <trkpt lat="44.459551982581615" lon="2.67263000831008">
        <ele>542.79999999999995</ele>
        <time>2025-04-25T12:01:15Z</time>
      </trkpt>
      <trkpt lat="44.45973202586174" lon="2.671547988429666">
        <ele>550.49000000000001</ele>
        <time>2025-04-25T12:01:19Z</time>
      </trkpt>
      <trkpt lat="44.459908967837691" lon="2.671070974320173">
        <ele>553.86000000000001</ele>
        <time>2025-04-25T12:01:21Z</time>
      </trkpt>
      <trkpt lat="44.460008963942528" lon="2.670858995988965">
        <ele>555.29999999999995</ele>
        <time>2025-04-25T12:01:22Z</time>
      </trkpt>
      <trkpt lat="44.46018397808075" lon="2.670489018782973">
        <ele>557.22000000000003</ele>
        <time>2025-04-25T12:01:24Z</time>
      </trkpt>
      <trkpt lat="44.460235023871064" lon="2.670346023514867">
        <ele>558.17999999999995</ele>
        <time>2025-04-25T12:01:25Z</time>
      </trkpt>
      <trkpt lat="44.460243992507458" lon="2.670166986063123">
        <ele>559.13999999999999</ele>
        <time>2025-04-25T12:01:26Z</time>
      </trkpt>
      <trkpt lat="44.460254972800612" lon="2.669957019388676">
        <ele>559.13999999999999</ele>
        <time>2025-04-25T12:01:27Z</time>
      </trkpt>
      <trkpt lat="44.460266958922148" lon="2.669727019965649">
        <ele>559.62</ele>
        <time>2025-04-25T12:01:28Z</time>
      </trkpt>
      <trkpt lat="44.460329990833998" lon="2.669274983927608">
        <ele>560.11000000000001</ele>
        <time>2025-04-25T12:01:30Z</time>
      </trkpt>
      <trkpt lat="44.460382964462042" lon="2.669012965634465">
        <ele>560.59000000000003</ele>
        <time>2025-04-25T12:01:31Z</time>
      </trkpt>
      <trkpt lat="44.460895014926791" lon="2.666998039931059">
        <ele>566.83000000000004</ele>
        <time>2025-04-25T12:01:39Z</time>
      </trkpt>
      <trkpt lat="44.461133982986212" lon="2.665143962949514">
        <ele>569.24000000000001</ele>
        <time>2025-04-25T12:01:46Z</time>
      </trkpt>
      <trkpt lat="44.461102969944477" lon="2.664893008768559">
        <ele>569.24000000000001</ele>
        <time>2025-04-25T12:01:47Z</time>
      </trkpt>
      <trkpt lat="44.461010014638305" lon="2.664157999679446">
        <ele>568.75999999999999</ele>
        <time>2025-04-25T12:01:50Z</time>
      </trkpt>
      <trkpt lat="44.461023006588221" lon="2.663936968892813">
        <ele>569.24000000000001</ele>
        <time>2025-04-25T12:01:51Z</time>
      </trkpt>
      <trkpt lat="44.461037004366517" lon="2.663717027753592">
        <ele>569.24000000000001</ele>
        <time>2025-04-25T12:01:52Z</time>
      </trkpt>
      <trkpt lat="44.461043039336801" lon="2.663494991138578">
        <ele>569.24000000000001</ele>
        <time>2025-04-25T12:01:53Z</time>
      </trkpt>
      <trkpt lat="44.461017977446318" lon="2.663248982280493">
        <ele>569.24000000000001</ele>
        <time>2025-04-25T12:01:54Z</time>
      </trkpt>
      <trkpt lat="44.460990987718105" lon="2.662990987300873">
        <ele>569.24000000000001</ele>
        <time>2025-04-25T12:01:55Z</time>
      </trkpt>
      <trkpt lat="44.461114034056664" lon="2.661365987733007">
        <ele>570.20000000000005</ele>
        <time>2025-04-25T12:02:02Z</time>
      </trkpt>
      <trkpt lat="44.461176982149482" lon="2.660871958360076">
        <ele>569.72000000000003</ele>
        <time>2025-04-25T12:02:05Z</time>
      </trkpt>
      <trkpt lat="44.461158961057663" lon="2.660751007497311">
        <ele>569.72000000000003</ele>
        <time>2025-04-25T12:02:06Z</time>
      </trkpt>
      <trkpt lat="44.461095007136464" lon="2.660674983635545">
        <ele>569.24000000000001</ele>
        <time>2025-04-25T12:02:07Z</time>
      </trkpt>
      <trkpt lat="44.461003979668021" lon="2.660610023885965">
        <ele>568.75999999999999</ele>
        <time>2025-04-25T12:02:08Z</time>
      </trkpt>
      <trkpt lat="44.460886968299747" lon="2.660546991974115">
        <ele>568.27999999999997</ele>
        <time>2025-04-25T12:02:09Z</time>
      </trkpt>
      <trkpt lat="44.460754031315446" lon="2.660477003082633">
        <ele>567.32000000000005</ele>
        <time>2025-04-25T12:02:10Z</time>
      </trkpt>
      <trkpt lat="44.459563968703151" lon="2.659918013960123">
        <ele>561.54999999999995</ele>
        <time>2025-04-25T12:02:17Z</time>
      </trkpt>
      <trkpt lat="44.458900038152933" lon="2.659601010382175">
        <ele>559.13999999999999</ele>
        <time>2025-04-25T12:02:21Z</time>
      </trkpt>
      <trkpt lat="44.458753019571304" lon="2.659486010670662">
        <ele>558.17999999999995</ele>
        <time>2025-04-25T12:02:22Z</time>
      </trkpt>
      <trkpt lat="44.458614969626069" lon="2.659347960725427">
        <ele>557.22000000000003</ele>
        <time>2025-04-25T12:02:23Z</time>
      </trkpt>
      <trkpt lat="44.456969015300274" lon="2.657567979767919">
        <ele>552.89999999999998</ele>
        <time>2025-04-25T12:02:35Z</time>
      </trkpt>
      <trkpt lat="44.456396028399467" lon="2.656989963725209">
        <ele>553.38</ele>
        <time>2025-04-25T12:02:39Z</time>
      </trkpt>
      <trkpt lat="44.456234006211162" lon="2.656890973448753">
        <ele>553.86000000000001</ele>
        <time>2025-04-25T12:02:40Z</time>
      </trkpt>
      <trkpt lat="44.455752968788147" lon="2.656554020941258">
        <ele>556.74000000000001</ele>
        <time>2025-04-25T12:02:43Z</time>
      </trkpt>
      <trkpt lat="44.454789971932769" lon="2.65570099465549">
        <ele>562.99000000000001</ele>
        <time>2025-04-25T12:02:49Z</time>
      </trkpt>
      <trkpt lat="44.454608000814915" lon="2.655596975237131">
        <ele>564.42999999999995</ele>
        <time>2025-04-25T12:02:50Z</time>
      </trkpt>
      <trkpt lat="44.454416977241635" lon="2.655560011044145">
        <ele>565.87</ele>
        <time>2025-04-25T12:02:51Z</time>
      </trkpt>
      <trkpt lat="44.454228971153498" lon="2.655523968860507">
        <ele>567.32000000000005</ele>
        <time>2025-04-25T12:02:52Z</time>
      </trkpt>
      <trkpt lat="44.454034008085728" lon="2.655497984960675">
        <ele>569.24000000000001</ele>
        <time>2025-04-25T12:02:53Z</time>
      </trkpt>
      <trkpt lat="44.453840972855687" lon="2.655516006052494">
        <ele>571.15999999999997</ele>
        <time>2025-04-25T12:02:54Z</time>
      </trkpt>
      <trkpt lat="44.453649027273059" lon="2.655534027144313">
        <ele>572.60000000000002</ele>
        <time>2025-04-25T12:02:55Z</time>
      </trkpt>
      <trkpt lat="44.453258011490107" lon="2.655569985508919">
        <ele>576.45000000000005</ele>
        <time>2025-04-25T12:02:57Z</time>
      </trkpt>
      <trkpt lat="44.453062964603305" lon="2.65557199716568">
        <ele>578.37</ele>
        <time>2025-04-25T12:02:58Z</time>
      </trkpt>
      <trkpt lat="44.451534021645784" lon="2.655370999127626">
        <ele>589.42999999999995</ele>
        <time>2025-04-25T12:03:06Z</time>
      </trkpt>
      <trkpt lat="44.451350960880518" lon="2.655327999964356">
        <ele>590.38999999999999</ele>
        <time>2025-04-25T12:03:07Z</time>
      </trkpt>
      <trkpt lat="44.45118198171258" lon="2.655229009687901">
        <ele>590.87</ele>
        <time>2025-04-25T12:03:08Z</time>
      </trkpt>
      <trkpt lat="44.451013002544641" lon="2.655120966956019">
        <ele>591.83000000000004</ele>
        <time>2025-04-25T12:03:09Z</time>
      </trkpt>
      <trkpt lat="44.450840000063181" lon="2.655009990558028">
        <ele>592.30999999999995</ele>
        <time>2025-04-25T12:03:10Z</time>
      </trkpt>
      <trkpt lat="44.450232982635498" lon="2.654567006975412">
        <ele>596.14999999999998</ele>
        <time>2025-04-25T12:03:15Z</time>
      </trkpt>
      <trkpt lat="44.45010700263083" lon="2.654459970071912">
        <ele>597.60000000000002</ele>
        <time>2025-04-25T12:03:19Z</time>
      </trkpt>
      <trkpt lat="44.45006400346756" lon="2.65438998118043">
        <ele>598.08000000000004</ele>
        <time>2025-04-25T12:03:20Z</time>
      </trkpt>
      <trkpt lat="44.450070038437843" lon="2.654299959540367">
        <ele>598.55999999999995</ele>
        <time>2025-04-25T12:03:21Z</time>
      </trkpt>
      <trkpt lat="44.450078001245856" lon="2.654182026162744">
        <ele>599.51999999999998</ele>
        <time>2025-04-25T12:03:22Z</time>
      </trkpt>
      <trkpt lat="44.45008696988225" lon="2.654042970389128">
        <ele>600</ele>
        <time>2025-04-25T12:03:23Z</time>
      </trkpt>
      <trkpt lat="44.450147990137339" lon="2.653154991567135">
        <ele>600.96000000000004</ele>
        <time>2025-04-25T12:03:28Z</time>
      </trkpt>
      <trkpt lat="44.450174979865551" lon="2.652963967993856">
        <ele>600.96000000000004</ele>
        <time>2025-04-25T12:03:29Z</time>
      </trkpt>
      <trkpt lat="44.450239017605782" lon="2.652775039896369">
        <ele>600.96000000000004</ele>
        <time>2025-04-25T12:03:30Z</time>
      </trkpt>
      <trkpt lat="44.450341025367379" lon="2.652603965252638">
        <ele>601.44000000000005</ele>
        <time>2025-04-25T12:03:31Z</time>
      </trkpt>
      <trkpt lat="44.450459964573383" lon="2.65243599191308">
        <ele>601.91999999999996</ele>
        <time>2025-04-25T12:03:32Z</time>
      </trkpt>
      <trkpt lat="44.450594997033477" lon="2.65226298943162">
        <ele>602.39999999999998</ele>
        <time>2025-04-25T12:03:33Z</time>
      </trkpt>
      <trkpt lat="44.451981028541923" lon="2.650432968512178">
        <ele>606.25</ele>
        <time>2025-04-25T12:03:42Z</time>
      </trkpt>
      <trkpt lat="44.454165017232299" lon="2.647261004894972">
        <ele>599.51999999999998</ele>
        <time>2025-04-25T12:03:56Z</time>
      </trkpt>
      <trkpt lat="44.455891018733382" lon="2.644712990149856">
        <ele>589.42999999999995</ele>
        <time>2025-04-25T12:04:07Z</time>
      </trkpt>
      <trkpt lat="44.455965030938387" lon="2.644477039575577">
        <ele>588.46000000000004</ele>
        <time>2025-04-25T12:04:08Z</time>
      </trkpt>
      <trkpt lat="44.456026973202825" lon="2.644234970211983">
        <ele>587.98000000000002</ele>
        <time>2025-04-25T12:04:09Z</time>
      </trkpt>
      <trkpt lat="44.456026973202825" lon="2.643959959968925">
        <ele>587.01999999999998</ele>
        <time>2025-04-25T12:04:10Z</time>
      </trkpt>
      <trkpt lat="44.456026973202825" lon="2.643671035766602">
        <ele>586.53999999999996</ele>
        <time>2025-04-25T12:04:11Z</time>
      </trkpt>
      <trkpt lat="44.455997971817851" lon="2.643379010260105">
        <ele>585.58000000000004</ele>
        <time>2025-04-25T12:04:12Z</time>
      </trkpt>
      <trkpt lat="44.455903004854918" lon="2.642834018915892">
        <ele>584.62</ele>
        <time>2025-04-25T12:04:14Z</time>
      </trkpt>
      <trkpt lat="44.455813989043236" lon="2.642581975087524">
        <ele>584.13999999999999</ele>
        <time>2025-04-25T12:04:15Z</time>
      </trkpt>
      <trkpt lat="44.455693960189819" lon="2.642353987321258">
        <ele>583.17999999999995</ele>
        <time>2025-04-25T12:04:16Z</time>
      </trkpt>
      <trkpt lat="44.455461027100682" lon="2.641914021223784">
        <ele>582.22000000000003</ele>
        <time>2025-04-25T12:04:18Z</time>
      </trkpt>
      <trkpt lat="44.455388020724058" lon="2.641693996265531">
        <ele>581.73000000000002</ele>
        <time>2025-04-25T12:04:19Z</time>
      </trkpt>
      <trkpt lat="44.455367987975478" lon="2.641476988792419">
        <ele>581.73000000000002</ele>
        <time>2025-04-25T12:04:20Z</time>
      </trkpt>
      <trkpt lat="44.455378968268633" lon="2.641265010461211">
        <ele>581.25</ele>
        <time>2025-04-25T12:04:21Z</time>
      </trkpt>
      <trkpt lat="44.455390032380819" lon="2.641041968017817">
        <ele>580.76999999999998</ele>
        <time>2025-04-25T12:04:22Z</time>
      </trkpt>
      <trkpt lat="44.455402018502355" lon="2.640801994130015">
        <ele>580.76999999999998</ele>
        <time>2025-04-25T12:04:23Z</time>
      </trkpt>
      <trkpt lat="44.455510983243585" lon="2.639760039746761">
        <ele>579.33000000000004</ele>
        <time>2025-04-25T12:04:27Z</time>
      </trkpt>
      <trkpt lat="44.455573009327054" lon="2.639529034495354">
        <ele>578.85000000000002</ele>
        <time>2025-04-25T12:04:28Z</time>
      </trkpt>
      <trkpt lat="44.45567300543189" lon="2.639309009537101">
        <ele>578.85000000000002</ele>
        <time>2025-04-25T12:04:29Z</time>
      </trkpt>
      <trkpt lat="44.45577903650701" lon="2.639075992628932">
        <ele>578.37</ele>
        <time>2025-04-25T12:04:30Z</time>
      </trkpt>
      <trkpt lat="44.455891018733382" lon="2.638842975720763">
        <ele>578.37</ele>
        <time>2025-04-25T12:04:31Z</time>
      </trkpt>
      <trkpt lat="44.457057025283575" lon="2.637142036110163">
        <ele>576.45000000000005</ele>
        <time>2025-04-25T12:04:39Z</time>
      </trkpt>
      <trkpt lat="44.457889012992382" lon="2.635957002639771">
        <ele>573.55999999999995</ele>
        <time>2025-04-25T12:04:45Z</time>
      </trkpt>
      <trkpt lat="44.457961013540626" lon="2.635758016258478">
        <ele>573.08000000000004</ele>
        <time>2025-04-25T12:04:46Z</time>
      </trkpt>
      <trkpt lat="44.457996971905231" lon="2.63554897159338">
        <ele>572.60000000000002</ele>
        <time>2025-04-25T12:04:47Z</time>
      </trkpt>
      <trkpt lat="44.457985991612077" lon="2.635317966341972">
        <ele>572.12</ele>
        <time>2025-04-25T12:04:48Z</time>
      </trkpt>
      <trkpt lat="44.457965036854148" lon="2.635072963312268">
        <ele>571.63999999999999</ele>
        <time>2025-04-25T12:04:49Z</time>
      </trkpt>
      <trkpt lat="44.457924971356988" lon="2.634801976382732">
        <ele>571.15999999999997</ele>
        <time>2025-04-25T12:04:50Z</time>
      </trkpt>
      <trkpt lat="44.457707041874528" lon="2.632746985182166">
        <ele>568.27999999999997</ele>
        <time>2025-04-25T12:04:57Z</time>
      </trkpt>
      <trkpt lat="44.457817012444139" lon="2.630423018708825">
        <ele>563.47000000000003</ele>
        <time>2025-04-25T12:05:05Z</time>
      </trkpt>
      <trkpt lat="44.45784299634397" lon="2.629750035703182">
        <ele>561.07000000000005</ele>
        <time>2025-04-25T12:05:09Z</time>
      </trkpt>
      <trkpt lat="44.45790602825582" lon="2.628543963655829">
        <ele>557.22000000000003</ele>
        <time>2025-04-25T12:05:17Z</time>
      </trkpt>
      <trkpt lat="44.457954978570342" lon="2.627341998741031">
        <ele>555.29999999999995</ele>
        <time>2025-04-25T12:05:26Z</time>
      </trkpt>
      <trkpt lat="44.4579519610852" lon="2.626455025747418">
        <ele>550.97000000000003</ele>
        <time>2025-04-25T12:05:34Z</time>
      </trkpt>
      <trkpt lat="44.457850959151983" lon="2.625818001106381">
        <ele>549.04999999999995</ele>
        <time>2025-04-25T12:05:39Z</time>
      </trkpt>
      <trkpt lat="44.457810977473855" lon="2.625657990574837">
        <ele>549.52999999999997</ele>
        <time>2025-04-25T12:05:40Z</time>
      </trkpt>
      <trkpt lat="44.457635963335633" lon="2.624960029497743">
        <ele>550.00999999999999</ele>
        <time>2025-04-25T12:05:45Z</time>
      </trkpt>
      <trkpt lat="44.457630012184381" lon="2.624817034229636">
        <ele>550.49000000000001</ele>
        <time>2025-04-25T12:05:46Z</time>
      </trkpt>
      <trkpt lat="44.457661025226116" lon="2.624108009040356">
        <ele>550.49000000000001</ele>
        <time>2025-04-25T12:05:51Z</time>
      </trkpt>
      <trkpt lat="44.457854982465506" lon="2.622356023639441">
        <ele>552.89999999999998</ele>
        <time>2025-04-25T12:06:02Z</time>
      </trkpt>
      <trkpt lat="44.458028990775347" lon="2.620510999113321">
        <ele>554.82000000000005</ele>
        <time>2025-04-25T12:06:13Z</time>
      </trkpt>
      <trkpt lat="44.458270976319909" lon="2.618656000122428">
        <ele>551.92999999999995</ele>
        <time>2025-04-25T12:06:21Z</time>
      </trkpt>
      <trkpt lat="44.458285979926586" lon="2.618392976000905">
        <ele>551.45000000000005</ele>
        <time>2025-04-25T12:06:22Z</time>
      </trkpt>
      <trkpt lat="44.458301989361644" lon="2.618131041526794">
        <ele>551.45000000000005</ele>
        <time>2025-04-25T12:06:23Z</time>
      </trkpt>
      <trkpt lat="44.458382036536932" lon="2.61666102334857">
        <ele>549.52999999999997</ele>
        <time>2025-04-25T12:06:30Z</time>
      </trkpt>
      <trkpt lat="44.458587979897857" lon="2.615068964660168">
        <ele>552.89999999999998</ele>
        <time>2025-04-25T12:06:40Z</time>
      </trkpt>
      <trkpt lat="44.458710020408034" lon="2.612931998446584">
        <ele>550.00999999999999</ele>
        <time>2025-04-25T12:06:53Z</time>
      </trkpt>
      <trkpt lat="44.458712032064795" lon="2.61172198690474">
        <ele>549.52999999999997</ele>
        <time>2025-04-25T12:07:02Z</time>
      </trkpt>
      <trkpt lat="44.458691999316216" lon="2.611267017200589">
        <ele>548.09000000000003</ele>
        <time>2025-04-25T12:07:06Z</time>
      </trkpt>
      <trkpt lat="44.458565013483167" lon="2.610138980671763">
        <ele>545.20000000000005</ele>
        <time>2025-04-25T12:07:15Z</time>
      </trkpt>
      <trkpt lat="44.458547998219728" lon="2.610014006495476">
        <ele>544.72000000000003</ele>
        <time>2025-04-25T12:07:16Z</time>
      </trkpt>
      <trkpt lat="44.458531988784671" lon="2.609888026490808">
        <ele>544.24000000000001</ele>
        <time>2025-04-25T12:07:17Z</time>
      </trkpt>
      <trkpt lat="44.458498964086175" lon="2.609613016247749">
        <ele>543.75999999999999</ele>
        <time>2025-04-25T12:07:19Z</time>
      </trkpt>
      <trkpt lat="44.458414977416396" lon="2.608898039907217">
        <ele>544.72000000000003</ele>
        <time>2025-04-25T12:07:24Z</time>
      </trkpt>
      <trkpt lat="44.458362003788352" lon="2.608443992212415">
        <ele>545.69000000000005</ele>
        <time>2025-04-25T12:07:27Z</time>
      </trkpt>
      <trkpt lat="44.458342976868153" lon="2.608288004994392">
        <ele>546.64999999999998</ele>
        <time>2025-04-25T12:07:28Z</time>
      </trkpt>
      <trkpt lat="44.458325039595366" lon="2.608127994462848">
        <ele>547.13</ele>
        <time>2025-04-25T12:07:29Z</time>
      </trkpt>
      <trkpt lat="44.458133010193706" lon="2.607168015092611">
        <ele>547.61000000000001</ele>
        <time>2025-04-25T12:07:35Z</time>
      </trkpt>
      <trkpt lat="44.457806032150984" lon="2.60576899163425">
        <ele>551.45000000000005</ele>
        <time>2025-04-25T12:07:44Z</time>
      </trkpt>
      <trkpt lat="44.457465978339314" lon="2.604391006752849">
        <ele>551.92999999999995</ele>
        <time>2025-04-25T12:07:51Z</time>
      </trkpt>
      <trkpt lat="44.456998016685247" lon="2.602251023054123">
        <ele>549.52999999999997</ele>
        <time>2025-04-25T12:07:59Z</time>
      </trkpt>
      <trkpt lat="44.456971026957035" lon="2.600163007155061">
        <ele>548.09000000000003</ele>
        <time>2025-04-25T12:08:06Z</time>
      </trkpt>
      <trkpt lat="44.45715400390327" lon="2.597336964681745">
        <ele>548.09000000000003</ele>
        <time>2025-04-25T12:08:16Z</time>
      </trkpt>
      <trkpt lat="44.457802008837461" lon="2.594805965200067">
        <ele>547.13</ele>
        <time>2025-04-25T12:08:25Z</time>
      </trkpt>
      <trkpt lat="44.458261001855135" lon="2.592559028416872">
        <ele>546.64999999999998</ele>
        <time>2025-04-25T12:08:33Z</time>
      </trkpt>
      <trkpt lat="44.458902971819043" lon="2.589769028127194">
        <ele>546.64999999999998</ele>
        <time>2025-04-25T12:08:43Z</time>
      </trkpt>
      <trkpt lat="44.45925903506577" lon="2.587474985048175">
        <ele>549.52999999999997</ele>
        <time>2025-04-25T12:08:51Z</time>
      </trkpt>
      <trkpt lat="44.459062982350588" lon="2.584441993385553">
        <ele>548.57000000000005</ele>
        <time>2025-04-25T12:09:01Z</time>
      </trkpt>
      <trkpt lat="44.458886040374637" lon="2.581062996760011">
        <ele>552.40999999999997</ele>
        <time>2025-04-25T12:09:12Z</time>
      </trkpt>
      <trkpt lat="44.458799036219716" lon="2.577465986832976">
        <ele>552.40999999999997</ele>
        <time>2025-04-25T12:09:24Z</time>
      </trkpt>
      <trkpt lat="44.45876601152122" lon="2.575832018628717">
        <ele>552.40999999999997</ele>
        <time>2025-04-25T12:09:32Z</time>
      </trkpt>
      <trkpt lat="44.458771962672472" lon="2.57495803758502">
        <ele>552.89999999999998</ele>
        <time>2025-04-25T12:09:39Z</time>
      </trkpt>
      <trkpt lat="44.458857960999012" lon="2.574404999613762">
        <ele>554.34000000000003</ele>
        <time>2025-04-25T12:09:46Z</time>
      </trkpt>
      <trkpt lat="44.459090977907181" lon="2.57304796949029">
        <ele>555.29999999999995</ele>
        <time>2025-04-25T12:09:53Z</time>
      </trkpt>
      <trkpt lat="44.459524992853403" lon="2.570516970008612">
        <ele>558.17999999999995</ele>
        <time>2025-04-25T12:10:03Z</time>
      </trkpt>
      <trkpt lat="44.459546031430364" lon="2.570282025262713">
        <ele>558.65999999999997</ele>
        <time>2025-04-25T12:10:04Z</time>
      </trkpt>
      <trkpt lat="44.459546031430364" lon="2.570050014182925">
        <ele>559.62</ele>
        <time>2025-04-25T12:10:05Z</time>
      </trkpt>
      <trkpt lat="44.459507977589965" lon="2.569829989224672">
        <ele>560.11000000000001</ele>
        <time>2025-04-25T12:10:06Z</time>
      </trkpt>
      <trkpt lat="44.459213018417358" lon="2.568024024367333">
        <ele>563.95000000000005</ele>
        <time>2025-04-25T12:10:14Z</time>
      </trkpt>
      <trkpt lat="44.459188040345907" lon="2.567629991099238">
        <ele>564.42999999999995</ele>
        <time>2025-04-25T12:10:16Z</time>
      </trkpt>
      <trkpt lat="44.45919499732554" lon="2.567435028031468">
        <ele>564.90999999999997</ele>
        <time>2025-04-25T12:10:17Z</time>
      </trkpt>
      <trkpt lat="44.459225004538894" lon="2.567107966169715">
        <ele>565.38999999999999</ele>
        <time>2025-04-25T12:10:19Z</time>
      </trkpt>
      <trkpt lat="44.459138000383973" lon="2.566917026415467">
        <ele>565.38999999999999</ele>
        <time>2025-04-25T12:10:20Z</time>
      </trkpt>
      <trkpt lat="44.45908896625042" lon="2.566817030310631">
        <ele>564.90999999999997</ele>
        <time>2025-04-25T12:10:21Z</time>
      </trkpt>
      <trkpt lat="44.459012020379305" lon="2.566663976758719">
        <ele>564.42999999999995</ele>
        <time>2025-04-25T12:10:22Z</time>
      </trkpt>
      <trkpt lat="44.458926022052765" lon="2.566490974277258">
        <ele>564.42999999999995</ele>
        <time>2025-04-25T12:10:23Z</time>
      </trkpt>
      <trkpt lat="44.458752013742924" lon="2.566143963485956">
        <ele>564.42999999999995</ele>
        <time>2025-04-25T12:10:25Z</time>
      </trkpt>
      <trkpt lat="44.458619998767972" lon="2.565980013459921">
        <ele>564.42999999999995</ele>
        <time>2025-04-25T12:10:26Z</time>
      </trkpt>
      <trkpt lat="44.458495024591684" lon="2.565883034840226">
        <ele>563.95000000000005</ele>
        <time>2025-04-25T12:10:27Z</time>
      </trkpt>
      <trkpt lat="44.458344988524914" lon="2.565798964351416">
        <ele>563.47000000000003</ele>
        <time>2025-04-25T12:10:28Z</time>
      </trkpt>
      <trkpt lat="44.458189001306891" lon="2.565713971853256">
        <ele>563.47000000000003</ele>
        <time>2025-04-25T12:10:29Z</time>
      </trkpt>
      <trkpt lat="44.45801499299705" lon="2.565668039023876">
        <ele>562.99000000000001</ele>
        <time>2025-04-25T12:10:30Z</time>
      </trkpt>
      <trkpt lat="44.457835033535957" lon="2.565621016547084">
        <ele>562.99000000000001</ele>
        <time>2025-04-25T12:10:31Z</time>
      </trkpt>
      <trkpt lat="44.456537012010813" lon="2.565165041014552">
        <ele>563.95000000000005</ele>
        <time>2025-04-25T12:10:38Z</time>
      </trkpt>
      <trkpt lat="44.455051990225911" lon="2.564193997532129">
        <ele>567.32000000000005</ele>
        <time>2025-04-25T12:10:46Z</time>
      </trkpt>
      <trkpt lat="44.454891979694366" lon="2.564026024192572">
        <ele>566.83000000000004</ele>
        <time>2025-04-25T12:10:47Z</time>
      </trkpt>
      <trkpt lat="44.454745966941118" lon="2.563815973699093">
        <ele>566.83000000000004</ele>
        <time>2025-04-25T12:10:48Z</time>
      </trkpt>
      <trkpt lat="44.454229976981878" lon="2.562922965735197">
        <ele>565.38999999999999</ele>
        <time>2025-04-25T12:10:52Z</time>
      </trkpt>
      <trkpt lat="44.452884010970592" lon="2.561282040551305">
        <ele>557.70000000000005</ele>
        <time>2025-04-25T12:11:00Z</time>
      </trkpt>
      <trkpt lat="44.452717965468764" lon="2.56107903085649">
        <ele>556.25999999999999</ele>
        <time>2025-04-25T12:11:01Z</time>
      </trkpt>
      <trkpt lat="44.452514033764601" lon="2.56095196120441">
        <ele>554.82000000000005</ele>
        <time>2025-04-25T12:11:02Z</time>
      </trkpt>
      <trkpt lat="44.4504090026021" lon="2.559679001569748">
        <ele>548.09000000000003</ele>
        <time>2025-04-25T12:11:12Z</time>
      </trkpt>
      <trkpt lat="44.449561005458236" lon="2.558828992769122">
        <ele>548.57000000000005</ele>
        <time>2025-04-25T12:11:17Z</time>
      </trkpt>
      <trkpt lat="44.449435025453568" lon="2.558646015822887">
        <ele>549.04999999999995</ele>
        <time>2025-04-25T12:11:18Z</time>
      </trkpt>
      <trkpt lat="44.449349027127028" lon="2.558425990864635">
        <ele>549.52999999999997</ele>
        <time>2025-04-25T12:11:19Z</time>
      </trkpt>
      <trkpt lat="44.449298987165093" lon="2.558184005320072">
        <ele>550.97000000000003</ele>
        <time>2025-04-25T12:11:20Z</time>
      </trkpt>
      <trkpt lat="44.4492709916085" lon="2.557917963713408">
        <ele>551.92999999999995</ele>
        <time>2025-04-25T12:11:21Z</time>
      </trkpt>
      <trkpt lat="44.449242996051908" lon="2.557658040896058">
        <ele>552.89999999999998</ele>
        <time>2025-04-25T12:11:22Z</time>
      </trkpt>
      <trkpt lat="44.449216006323695" lon="2.557407002896071">
        <ele>553.86000000000001</ele>
        <time>2025-04-25T12:11:23Z</time>
      </trkpt>
      <trkpt lat="44.449189016595483" lon="2.557156970724464">
        <ele>554.34000000000003</ele>
        <time>2025-04-25T12:11:24Z</time>
      </trkpt>
      <trkpt lat="44.449117016047239" lon="2.55691297352314">
        <ele>555.29999999999995</ele>
        <time>2025-04-25T12:11:25Z</time>
      </trkpt>
      <trkpt lat="44.449026994407177" lon="2.556665036827326">
        <ele>555.77999999999997</ele>
        <time>2025-04-25T12:11:26Z</time>
      </trkpt>
      <trkpt lat="44.44894602522254" lon="2.556446017697454">
        <ele>556.74000000000001</ele>
        <time>2025-04-25T12:11:27Z</time>
      </trkpt>
      <trkpt lat="44.448811998590827" lon="2.556269997730851">
        <ele>557.70000000000005</ele>
        <time>2025-04-25T12:11:28Z</time>
      </trkpt>
      <trkpt lat="44.448699010536075" lon="2.556122979149222">
        <ele>558.65999999999997</ele>
        <time>2025-04-25T12:11:29Z</time>
      </trkpt>
      <trkpt lat="44.448575964197516" lon="2.556050978600979">
        <ele>559.62</ele>
        <time>2025-04-25T12:11:30Z</time>
      </trkpt>
      <trkpt lat="44.448427017778158" lon="2.556001022458077">
        <ele>560.11000000000001</ele>
        <time>2025-04-25T12:11:31Z</time>
      </trkpt>
      <trkpt lat="44.448258960619569" lon="2.555979983881116">
        <ele>561.07000000000005</ele>
        <time>2025-04-25T12:11:32Z</time>
      </trkpt>
      <trkpt lat="44.448080006986856" lon="2.555994987487793">
        <ele>562.02999999999997</ele>
        <time>2025-04-25T12:11:33Z</time>
      </trkpt>
      <trkpt lat="44.446445032954216" lon="2.556092971935868">
        <ele>567.79999999999995</ele>
        <time>2025-04-25T12:11:41Z</time>
      </trkpt>
      <trkpt lat="44.445206020027399" lon="2.55628801882267">
        <ele>570.20000000000005</ele>
        <time>2025-04-25T12:11:47Z</time>
      </trkpt>
      <trkpt lat="44.444386018440127" lon="2.556403018534184">
        <ele>572.12</ele>
        <time>2025-04-25T12:11:51Z</time>
      </trkpt>
      <trkpt lat="44.444187032058835" lon="2.556373011320829">
        <ele>572.60000000000002</ele>
        <time>2025-04-25T12:11:52Z</time>
      </trkpt>
      <trkpt lat="44.442304037511349" lon="2.555689970031381">
        <ele>570.20000000000005</ele>
        <time>2025-04-25T12:12:01Z</time>
      </trkpt>
      <trkpt lat="44.439798016101122" lon="2.554779024794698">
        <ele>567.79999999999995</ele>
        <time>2025-04-25T12:12:13Z</time>
      </trkpt>
      <trkpt lat="44.439437007531524" lon="2.55457098595798">
        <ele>567.32000000000005</ele>
        <time>2025-04-25T12:12:15Z</time>
      </trkpt>
      <trkpt lat="44.439246989786625" lon="2.554450035095215">
        <ele>567.79999999999995</ele>
        <time>2025-04-25T12:12:16Z</time>
      </trkpt>
      <trkpt lat="44.439105000346899" lon="2.55426999181509">
        <ele>567.79999999999995</ele>
        <time>2025-04-25T12:12:17Z</time>
      </trkpt>
      <trkpt lat="44.437679992988706" lon="2.55246302112937">
        <ele>567.79999999999995</ele>
        <time>2025-04-25T12:12:26Z</time>
      </trkpt>
      <trkpt lat="44.436751026660204" lon="2.551289973780513">
        <ele>565.87</ele>
        <time>2025-04-25T12:12:32Z</time>
      </trkpt>
      <trkpt lat="44.435194004327059" lon="2.550196973606944">
        <ele>567.32000000000005</ele>
        <time>2025-04-25T12:12:40Z</time>
      </trkpt>
      <trkpt lat="44.433869998902082" lon="2.549277981743217">
        <ele>567.79999999999995</ele>
        <time>2025-04-25T12:12:47Z</time>
      </trkpt>
      <trkpt lat="44.433723986148834" lon="2.549086036160588">
        <ele>567.32000000000005</ele>
        <time>2025-04-25T12:12:48Z</time>
      </trkpt>
      <trkpt lat="44.433560958132148" lon="2.548871040344238">
        <ele>566.83000000000004</ele>
        <time>2025-04-25T12:12:49Z</time>
      </trkpt>
      <trkpt lat="44.432324962690473" lon="2.546777995303273">
        <ele>561.54999999999995</ele>
        <time>2025-04-25T12:12:58Z</time>
      </trkpt>
      <trkpt lat="44.432183979079127" lon="2.54657699726522">
        <ele>560.59000000000003</ele>
        <time>2025-04-25T12:12:59Z</time>
      </trkpt>
      <trkpt lat="44.432014999911189" lon="2.54642897285521">
        <ele>559.62</ele>
        <time>2025-04-25T12:13:00Z</time>
      </trkpt>
      <trkpt lat="44.431838979944587" lon="2.546297963708639">
        <ele>559.62</ele>
        <time>2025-04-25T12:13:01Z</time>
      </trkpt>
      <trkpt lat="44.431639993563294" lon="2.546219006180763">
        <ele>559.62</ele>
        <time>2025-04-25T12:13:02Z</time>
      </trkpt>
      <trkpt lat="44.431451987475157" lon="2.546143988147378">
        <ele>559.62</ele>
        <time>2025-04-25T12:13:03Z</time>
      </trkpt>
      <trkpt lat="44.431279990822077" lon="2.546049021184444">
        <ele>560.11000000000001</ele>
        <time>2025-04-25T12:13:04Z</time>
      </trkpt>
      <trkpt lat="44.431115034967661" lon="2.545923041179776">
        <ele>560.11000000000001</ele>
        <time>2025-04-25T12:13:05Z</time>
      </trkpt>
      <trkpt lat="44.430958963930607" lon="2.545779962092638">
        <ele>560.11000000000001</ele>
        <time>2025-04-25T12:13:06Z</time>
      </trkpt>
      <trkpt lat="44.430828960612416" lon="2.545564966276288">
        <ele>560.11000000000001</ele>
        <time>2025-04-25T12:13:07Z</time>
      </trkpt>
      <trkpt lat="44.430692000314593" lon="2.545338990166783">
        <ele>560.59000000000003</ele>
        <time>2025-04-25T12:13:08Z</time>
      </trkpt>
      <trkpt lat="44.430329985916615" lon="2.544646980240941">
        <ele>561.07000000000005</ele>
        <time>2025-04-25T12:13:11Z</time>
      </trkpt>
      <trkpt lat="44.430263014510274" lon="2.544403988867998">
        <ele>561.07000000000005</ele>
        <time>2025-04-25T12:13:12Z</time>
      </trkpt>
      <trkpt lat="44.430208029225469" lon="2.544139958918095">
        <ele>561.07000000000005</ele>
        <time>2025-04-25T12:13:13Z</time>
      </trkpt>
      <trkpt lat="44.429909968748689" lon="2.542745964601636">
        <ele>560.59000000000003</ele>
        <time>2025-04-25T12:13:18Z</time>
      </trkpt>
      <trkpt lat="44.429828999564052" lon="2.542504984885454">
        <ele>560.59000000000003</ele>
        <time>2025-04-25T12:13:19Z</time>
      </trkpt>
      <trkpt lat="44.429722968488932" lon="2.542298035696149">
        <ele>560.59000000000003</ele>
        <time>2025-04-25T12:13:20Z</time>
      </trkpt>
      <trkpt lat="44.429583996534348" lon="2.542135007679462">
        <ele>560.59000000000003</ele>
        <time>2025-04-25T12:13:21Z</time>
      </trkpt>
      <trkpt lat="44.429432032629848" lon="2.541990000754595">
        <ele>560.59000000000003</ele>
        <time>2025-04-25T12:13:22Z</time>
      </trkpt>
      <trkpt lat="44.4292669929564" lon="2.541852034628391">
        <ele>561.07000000000005</ele>
        <time>2025-04-25T12:13:23Z</time>
      </trkpt>
      <trkpt lat="44.428107021376491" lon="2.540714023634791">
        <ele>566.83000000000004</ele>
        <time>2025-04-25T12:13:30Z</time>
      </trkpt>
      <trkpt lat="44.427981963381171" lon="2.540501961484551">
        <ele>567.79999999999995</ele>
        <time>2025-04-25T12:13:31Z</time>
      </trkpt>
      <trkpt lat="44.427890013903379" lon="2.540272967889905">
        <ele>567.79999999999995</ele>
        <time>2025-04-25T12:13:32Z</time>
      </trkpt>
      <trkpt lat="44.427796974778175" lon="2.540040034800768">
        <ele>567.79999999999995</ele>
        <time>2025-04-25T12:13:33Z</time>
      </trkpt>
      <trkpt lat="44.427726985886693" lon="2.539782039821148">
        <ele>567.79999999999995</ele>
        <time>2025-04-25T12:13:34Z</time>
      </trkpt>
      <trkpt lat="44.427666971459985" lon="2.539512980729342">
        <ele>567.79999999999995</ele>
        <time>2025-04-25T12:13:35Z</time>
      </trkpt>
      <trkpt lat="44.427480977028608" lon="2.538683004677296">
        <ele>566.35000000000002</ele>
        <time>2025-04-25T12:13:38Z</time>
      </trkpt>
      <trkpt lat="44.427367988973856" lon="2.538429033011198">
        <ele>565.87</ele>
        <time>2025-04-25T12:13:39Z</time>
      </trkpt>
      <trkpt lat="44.427256006747484" lon="2.53817698918283">
        <ele>565.87</ele>
        <time>2025-04-25T12:13:40Z</time>
      </trkpt>
      <trkpt lat="44.427109993994236" lon="2.537959981709719">
        <ele>565.38999999999999</ele>
        <time>2025-04-25T12:13:41Z</time>
      </trkpt>
      <trkpt lat="44.426951995119452" lon="2.537758983671665">
        <ele>564.90999999999997</ele>
        <time>2025-04-25T12:13:42Z</time>
      </trkpt>
      <trkpt lat="44.426777986809611" lon="2.537604002282023">
        <ele>563.95000000000005</ele>
        <time>2025-04-25T12:13:43Z</time>
      </trkpt>
      <trkpt lat="44.426609007641673" lon="2.537453966215253">
        <ele>563.47000000000003</ele>
        <time>2025-04-25T12:13:44Z</time>
      </trkpt>
      <trkpt lat="44.426444973796606" lon="2.537308037281036">
        <ele>562.99000000000001</ele>
        <time>2025-04-25T12:13:45Z</time>
      </trkpt>
      <trkpt lat="44.426266020163894" lon="2.537217009812594">
        <ele>562.02999999999997</ele>
        <time>2025-04-25T12:13:46Z</time>
      </trkpt>
      <trkpt lat="44.426070973277092" lon="2.537149032577872">
        <ele>561.07000000000005</ele>
        <time>2025-04-25T12:13:47Z</time>
      </trkpt>
      <trkpt lat="44.425067994743586" lon="2.536725997924805">
        <ele>557.22000000000003</ele>
        <time>2025-04-25T12:13:52Z</time>
      </trkpt>
      <trkpt lat="44.424892980605364" lon="2.53658602014184">
        <ele>557.22000000000003</ele>
        <time>2025-04-25T12:13:53Z</time>
      </trkpt>
      <trkpt lat="44.42475400865078" lon="2.536402959376574">
        <ele>557.22000000000003</ele>
        <time>2025-04-25T12:13:54Z</time>
      </trkpt>
      <trkpt lat="44.424630962312222" lon="2.536219982430339">
        <ele>557.22000000000003</ele>
        <time>2025-04-25T12:13:55Z</time>
      </trkpt>
      <trkpt lat="44.424541024491191" lon="2.536016972735524">
        <ele>557.22000000000003</ele>
        <time>2025-04-25T12:13:56Z</time>
      </trkpt>
      <trkpt lat="44.424456031993032" lon="2.535825027152896">
        <ele>557.70000000000005</ele>
        <time>2025-04-25T12:13:57Z</time>
      </trkpt>
      <trkpt lat="44.424398029223084" lon="2.535696029663086">
        <ele>557.70000000000005</ele>
        <time>2025-04-25T12:13:58Z</time>
      </trkpt>
      <trkpt lat="44.424283029511571" lon="2.535591004416347">
        <ele>557.70000000000005</ele>
        <time>2025-04-25T12:13:59Z</time>
      </trkpt>
      <trkpt lat="44.424192002043128" lon="2.535508023574948">
        <ele>557.70000000000005</ele>
        <time>2025-04-25T12:14:00Z</time>
      </trkpt>
      <trkpt lat="44.424095023423433" lon="2.535481033846736">
        <ele>557.70000000000005</ele>
        <time>2025-04-25T12:14:01Z</time>
      </trkpt>
      <trkpt lat="44.42398002371192" lon="2.535481033846736">
        <ele>558.17999999999995</ele>
        <time>2025-04-25T12:14:02Z</time>
      </trkpt>
      <trkpt lat="44.4238739926368" lon="2.535528978332877">
        <ele>558.17999999999995</ele>
        <time>2025-04-25T12:14:03Z</time>
      </trkpt>
      <trkpt lat="44.423797968775034" lon="2.535567032173276">
        <ele>558.17999999999995</ele>
        <time>2025-04-25T12:14:04Z</time>
      </trkpt>
      <trkpt lat="44.423681041225791" lon="2.535723019391298">
        <ele>558.17999999999995</ele>
        <time>2025-04-25T12:14:05Z</time>
      </trkpt>
      <trkpt lat="44.423583978787065" lon="2.535852016881108">
        <ele>558.17999999999995</ele>
        <time>2025-04-25T12:14:06Z</time>
      </trkpt>
      <trkpt lat="44.423521030694246" lon="2.53600699827075">
        <ele>557.22000000000003</ele>
        <time>2025-04-25T12:14:07Z</time>
      </trkpt>
      <trkpt lat="44.423479037359357" lon="2.536207996308804">
        <ele>556.74000000000001</ele>
        <time>2025-04-25T12:14:08Z</time>
      </trkpt>
      <trkpt lat="44.423437966033816" lon="2.536412011831999">
        <ele>555.77999999999997</ele>
        <time>2025-04-25T12:14:09Z</time>
      </trkpt>
      <trkpt lat="44.423396978527308" lon="2.536613009870052">
        <ele>554.82000000000005</ele>
        <time>2025-04-25T12:14:10Z</time>
      </trkpt>
      <trkpt lat="44.42335800267756" lon="2.53680101595819">
        <ele>553.86000000000001</ele>
        <time>2025-04-25T12:14:11Z</time>
      </trkpt>
      <trkpt lat="44.423319026827812" lon="2.536976030096412">
        <ele>552.40999999999997</ele>
        <time>2025-04-25T12:14:12Z</time>
      </trkpt>
      <trkpt lat="44.423261024057865" lon="2.537108967080712">
        <ele>551.45000000000005</ele>
        <time>2025-04-25T12:14:13Z</time>
      </trkpt>
      <trkpt lat="44.423155998811126" lon="2.537347013130784">
        <ele>550.00999999999999</ele>
        <time>2025-04-25T12:14:15Z</time>
      </trkpt>
      <trkpt lat="44.423109982162714" lon="2.537452038377523">
        <ele>549.04999999999995</ele>
        <time>2025-04-25T12:14:16Z</time>
      </trkpt>
      <trkpt lat="44.423061031848192" lon="2.537530995905399">
        <ele>548.09000000000003</ele>
        <time>2025-04-25T12:14:17Z</time>
      </trkpt>
      <trkpt lat="44.423011997714639" lon="2.537586987018585">
        <ele>547.61000000000001</ele>
        <time>2025-04-25T12:14:18Z</time>
      </trkpt>
      <trkpt lat="44.422967992722988" lon="2.537637026980519">
        <ele>547.13</ele>
        <time>2025-04-25T12:14:19Z</time>
      </trkpt>
      <trkpt lat="44.422938991338015" lon="2.537669967859983">
        <ele>546.64999999999998</ele>
        <time>2025-04-25T12:14:20Z</time>
      </trkpt>
      <trkpt lat="44.422876965254545" lon="2.537685977295041">
        <ele>545.69000000000005</ele>
        <time>2025-04-25T12:14:21Z</time>
      </trkpt>
      <trkpt lat="44.422835977748036" lon="2.537680026143789">
        <ele>545.20000000000005</ele>
        <time>2025-04-25T12:14:22Z</time>
      </trkpt>
      <trkpt lat="44.422786021605134" lon="2.537630992010236">
        <ele>544.24000000000001</ele>
        <time>2025-04-25T12:14:23Z</time>
      </trkpt>
      <trkpt lat="44.422768000513315" lon="2.537541976198554">
        <ele>543.75999999999999</ele>
        <time>2025-04-25T12:14:24Z</time>
      </trkpt>
      <trkpt lat="44.422802031040192" lon="2.537401998415589">
        <ele>543.27999999999997</ele>
        <time>2025-04-25T12:14:25Z</time>
      </trkpt>
      <trkpt lat="44.422837989404798" lon="2.537260008975864">
        <ele>542.32000000000005</ele>
        <time>2025-04-25T12:14:26Z</time>
      </trkpt>
      <trkpt lat="44.422877971082926" lon="2.537101004272699">
        <ele>541.36000000000001</ele>
        <time>2025-04-25T12:14:27Z</time>
      </trkpt>
      <trkpt lat="44.422893980517983" lon="2.536920960992575">
        <ele>539.91999999999996</ele>
        <time>2025-04-25T12:14:28Z</time>
      </trkpt>
      <trkpt lat="44.422890041023493" lon="2.536716023460031">
        <ele>538.48000000000002</ele>
        <time>2025-04-25T12:14:29Z</time>
      </trkpt>
      <trkpt lat="44.42288501188159" lon="2.536489963531494">
        <ele>537.02999999999997</ele>
        <time>2025-04-25T12:14:30Z</time>
      </trkpt>
      <trkpt lat="44.422779986634851" lon="2.534268004819751">
        <ele>523.58000000000004</ele>
        <time>2025-04-25T12:14:39Z</time>
      </trkpt>
      <trkpt lat="44.422878976911306" lon="2.532408982515335">
        <ele>511.56</ele>
        <time>2025-04-25T12:14:48Z</time>
      </trkpt>
      <trkpt lat="44.422961035743356" lon="2.531855022534728">
        <ele>508.67000000000002</ele>
        <time>2025-04-25T12:14:52Z</time>
      </trkpt>
      <trkpt lat="44.42292801104486" lon="2.531723007559776">
        <ele>507.70999999999998</ele>
        <time>2025-04-25T12:14:53Z</time>
      </trkpt>
      <trkpt lat="44.42290797829628" lon="2.531643966212869">
        <ele>507.23000000000002</ele>
        <time>2025-04-25T12:14:54Z</time>
      </trkpt>
      <trkpt lat="44.422894986346364" lon="2.531590992584825">
        <ele>506.75</ele>
        <time>2025-04-25T12:14:55Z</time>
      </trkpt>
      <trkpt lat="44.422894986346364" lon="2.531590992584825">
        <ele>506.26999999999998</ele>
        <time>2025-04-25T12:14:56Z</time>
      </trkpt>
      <trkpt lat="44.422863973304629" lon="2.531496025621891">
        <ele>504.82999999999998</ele>
        <time>2025-04-25T12:15:05Z</time>
      </trkpt>
      <trkpt lat="44.422789039090276" lon="2.531383037567139">
        <ele>504.35000000000002</ele>
        <time>2025-04-25T12:15:06Z</time>
      </trkpt>
      <trkpt lat="44.422730030491948" lon="2.531358981505036">
        <ele>504.35000000000002</ele>
        <time>2025-04-25T12:15:07Z</time>
      </trkpt>
      <trkpt lat="44.422511011362076" lon="2.531257979571819">
        <ele>504.82999999999998</ele>
        <time>2025-04-25T12:15:09Z</time>
      </trkpt>
      <trkpt lat="44.422398023307323" lon="2.531163012608886">
        <ele>504.82999999999998</ele>
        <time>2025-04-25T12:15:10Z</time>
      </trkpt>
      <trkpt lat="44.422275982797146" lon="2.531058993190527">
        <ele>504.82999999999998</ele>
        <time>2025-04-25T12:15:11Z</time>
      </trkpt>
      <trkpt lat="44.422164000570774" lon="2.530919015407562">
        <ele>504.82999999999998</ele>
        <time>2025-04-25T12:15:12Z</time>
      </trkpt>
      <trkpt lat="44.422046989202499" lon="2.530757999047637">
        <ele>504.82999999999998</ele>
        <time>2025-04-25T12:15:13Z</time>
      </trkpt>
      <trkpt lat="44.421668965369463" lon="2.530243014916778">
        <ele>505.79000000000002</ele>
        <time>2025-04-25T12:15:16Z</time>
      </trkpt>
      <trkpt lat="44.421514989808202" lon="2.530123991891742">
        <ele>505.79000000000002</ele>
        <time>2025-04-25T12:15:17Z</time>
      </trkpt>
      <trkpt lat="44.421361014246941" lon="2.530004968866706">
        <ele>506.26999999999998</ele>
        <time>2025-04-25T12:15:18Z</time>
      </trkpt>
      <trkpt lat="44.421064965426922" lon="2.52975401468575">
        <ele>507.23000000000002</ele>
        <time>2025-04-25T12:15:20Z</time>
      </trkpt>
      <trkpt lat="44.420926999300718" lon="2.529581012204289">
        <ele>507.70999999999998</ele>
        <time>2025-04-25T12:15:21Z</time>
      </trkpt>
      <trkpt lat="44.420806970447302" lon="2.529383031651378">
        <ele>508.19</ele>
        <time>2025-04-25T12:15:22Z</time>
      </trkpt>
      <trkpt lat="44.420702029019594" lon="2.529149008914828">
        <ele>508.19</ele>
        <time>2025-04-25T12:15:23Z</time>
      </trkpt>
      <trkpt lat="44.420597003772855" lon="2.528918003663421">
        <ele>508.67000000000002</ele>
        <time>2025-04-25T12:15:24Z</time>
      </trkpt>
      <trkpt lat="44.420512011274695" lon="2.528666965663433">
        <ele>509.16000000000003</ele>
        <time>2025-04-25T12:15:25Z</time>
      </trkpt>
      <trkpt lat="44.420434981584549" lon="2.528392961248756">
        <ele>509.16000000000003</ele>
        <time>2025-04-25T12:15:26Z</time>
      </trkpt>
      <trkpt lat="44.420278994366527" lon="2.527834977954626">
        <ele>509.63999999999999</ele>
        <time>2025-04-25T12:15:28Z</time>
      </trkpt>
      <trkpt lat="44.42017899826169" lon="2.527578994631767">
        <ele>509.63999999999999</ele>
        <time>2025-04-25T12:15:29Z</time>
      </trkpt>
      <trkpt lat="44.420060981065035" lon="2.527331979945302">
        <ele>509.63999999999999</ele>
        <time>2025-04-25T12:15:30Z</time>
      </trkpt>
      <trkpt lat="44.418776035308838" lon="2.525302972644568">
        <ele>512.51999999999998</ele>
        <time>2025-04-25T12:15:39Z</time>
      </trkpt>
      <trkpt lat="44.418608983978629" lon="2.5251579657197">
        <ele>513</ele>
        <time>2025-04-25T12:15:40Z</time>
      </trkpt>
      <trkpt lat="44.418422989547253" lon="2.525064004585147">
        <ele>513.48000000000002</ele>
        <time>2025-04-25T12:15:41Z</time>
      </trkpt>
      <trkpt lat="44.418227020651102" lon="2.5250060018152">
        <ele>513.96000000000004</ele>
        <time>2025-04-25T12:15:42Z</time>
      </trkpt>
      <trkpt lat="44.418021999299526" lon="2.524992004036903">
        <ele>514.44000000000005</ele>
        <time>2025-04-25T12:15:43Z</time>
      </trkpt>
      <trkpt lat="44.417812032625079" lon="2.524977000430226">
        <ele>515.39999999999998</ele>
        <time>2025-04-25T12:15:44Z</time>
      </trkpt>
      <trkpt lat="44.416608978062868" lon="2.525016982108355">
        <ele>519.73000000000002</ele>
        <time>2025-04-25T12:15:50Z</time>
      </trkpt>
      <trkpt lat="44.416406974196434" lon="2.525075990706682">
        <ele>520.21000000000004</ele>
        <time>2025-04-25T12:15:51Z</time>
      </trkpt>
      <trkpt lat="44.416231038048863" lon="2.525211023166776">
        <ele>521.16999999999996</ele>
        <time>2025-04-25T12:15:52Z</time>
      </trkpt>
      <trkpt lat="44.416052000597119" lon="2.525347983464599">
        <ele>521.64999999999998</ele>
        <time>2025-04-25T12:15:53Z</time>
      </trkpt>
      <trkpt lat="44.415871035307646" lon="2.525487039238215">
        <ele>522.13</ele>
        <time>2025-04-25T12:15:54Z</time>
      </trkpt>
      <trkpt lat="44.415708007290959" lon="2.525611007586122">
        <ele>522.61000000000001</ele>
        <time>2025-04-25T12:15:55Z</time>
      </trkpt>
      <trkpt lat="44.415508015081286" lon="2.525688037276268">
        <ele>523.09000000000003</ele>
        <time>2025-04-25T12:15:56Z</time>
      </trkpt>
      <trkpt lat="44.415320008993149" lon="2.52571796067059">
        <ele>523.09000000000003</ele>
        <time>2025-04-25T12:15:57Z</time>
      </trkpt>
      <trkpt lat="44.415121022611856" lon="2.52571796067059">
        <ele>523.09000000000003</ele>
        <time>2025-04-25T12:15:58Z</time>
      </trkpt>
      <trkpt lat="44.414921030402184" lon="2.525702035054565">
        <ele>523.58000000000004</ele>
        <time>2025-04-25T12:15:59Z</time>
      </trkpt>
      <trkpt lat="44.414710979908705" lon="2.525643026456237">
        <ele>524.05999999999995</ele>
        <time>2025-04-25T12:16:00Z</time>
      </trkpt>
      <trkpt lat="44.414071021601558" lon="2.525386037304997">
        <ele>524.53999999999996</ele>
        <time>2025-04-25T12:16:03Z</time>
      </trkpt>
      <trkpt lat="44.413871029391885" lon="2.52528796903789">
        <ele>524.53999999999996</ele>
        <time>2025-04-25T12:16:04Z</time>
      </trkpt>
      <trkpt lat="44.413674976676702" lon="2.525190990418196">
        <ele>524.53999999999996</ele>
        <time>2025-04-25T12:16:05Z</time>
      </trkpt>
      <trkpt lat="44.413476996123791" lon="2.525094011798501">
        <ele>524.53999999999996</ele>
        <time>2025-04-25T12:16:06Z</time>
      </trkpt>
      <trkpt lat="44.41328002139926" lon="2.524997033178806">
        <ele>524.53999999999996</ele>
        <time>2025-04-25T12:16:07Z</time>
      </trkpt>
      <trkpt lat="44.413072988390923" lon="2.524946993216872">
        <ele>525.01999999999998</ele>
        <time>2025-04-25T12:16:08Z</time>
      </trkpt>
      <trkpt lat="44.412866961210966" lon="2.524916986003518">
        <ele>525.01999999999998</ele>
        <time>2025-04-25T12:16:09Z</time>
      </trkpt>
      <trkpt lat="44.412667974829674" lon="2.524888990446925">
        <ele>525.98000000000002</ele>
        <time>2025-04-25T12:16:10Z</time>
      </trkpt>
      <trkpt lat="44.411394009366632" lon="2.524709030985832">
        <ele>530.29999999999995</ele>
        <time>2025-04-25T12:16:18Z</time>
      </trkpt>
      <trkpt lat="44.411255959421396" lon="2.524640969932079">
        <ele>530.78999999999996</ele>
        <time>2025-04-25T12:16:19Z</time>
      </trkpt>
      <trkpt lat="44.411130985245109" lon="2.524527981877327">
        <ele>531.26999999999998</ele>
        <time>2025-04-25T12:16:20Z</time>
      </trkpt>
      <trkpt lat="44.411021014675498" lon="2.524380963295698">
        <ele>531.75</ele>
        <time>2025-04-25T12:16:21Z</time>
      </trkpt>
      <trkpt lat="44.41091800108552" lon="2.524220030754805">
        <ele>531.75</ele>
        <time>2025-04-25T12:16:22Z</time>
      </trkpt>
      <trkpt lat="44.410836026072502" lon="2.524031018838286">
        <ele>531.75</ele>
        <time>2025-04-25T12:16:23Z</time>
      </trkpt>
      <trkpt lat="44.410764025524259" lon="2.523850975558162">
        <ele>531.75</ele>
        <time>2025-04-25T12:16:24Z</time>
      </trkpt>
      <trkpt lat="44.410636033862829" lon="2.52352399751544">
        <ele>532.23000000000002</ele>
        <time>2025-04-25T12:16:26Z</time>
      </trkpt>
      <trkpt lat="44.410598985850811" lon="2.523370021954179">
        <ele>532.71000000000004</ele>
        <time>2025-04-25T12:16:27Z</time>
      </trkpt>
      <trkpt lat="44.410590017214417" lon="2.523226020857692">
        <ele>533.19000000000005</ele>
        <time>2025-04-25T12:16:28Z</time>
      </trkpt>
      <trkpt lat="44.410600997507572" lon="2.521662041544914">
        <ele>539.44000000000005</ele>
        <time>2025-04-25T12:16:38Z</time>
      </trkpt>
      <trkpt lat="44.410580964758992" lon="2.521337997168303">
        <ele>541.84000000000003</ele>
        <time>2025-04-25T12:16:40Z</time>
      </trkpt>
      <trkpt lat="44.410526985302567" lon="2.521196007728577">
        <ele>542.79999999999995</ele>
        <time>2025-04-25T12:16:41Z</time>
      </trkpt>
      <trkpt lat="44.410440986976027" lon="2.521112021058798">
        <ele>543.75999999999999</ele>
        <time>2025-04-25T12:16:42Z</time>
      </trkpt>
      <trkpt lat="44.410345014184713" lon="2.521039014682174">
        <ele>544.24000000000001</ele>
        <time>2025-04-25T12:16:43Z</time>
      </trkpt>
      <trkpt lat="44.41025298088789" lon="2.520969025790691">
        <ele>545.20000000000005</ele>
        <time>2025-04-25T12:16:44Z</time>
      </trkpt>
      <trkpt lat="44.410170000046492" lon="2.520904988050461">
        <ele>546.16999999999996</ele>
        <time>2025-04-25T12:16:45Z</time>
      </trkpt>
      <trkpt lat="44.410108979791403" lon="2.520813960582018">
        <ele>547.13</ele>
        <time>2025-04-25T12:16:46Z</time>
      </trkpt>
      <trkpt lat="44.410053994506598" lon="2.520712958648801">
        <ele>548.09000000000003</ele>
        <time>2025-04-25T12:16:47Z</time>
      </trkpt>
      <trkpt lat="44.409898007288575" lon="2.520310962572694">
        <ele>550.49000000000001</ele>
        <time>2025-04-25T12:16:50Z</time>
      </trkpt>
      <trkpt lat="44.409863976761699" lon="2.520162016153336">
        <ele>550.97000000000003</ele>
        <time>2025-04-25T12:16:51Z</time>
      </trkpt>
      <trkpt lat="44.409845033660531" lon="2.520005023106933">
        <ele>551.92999999999995</ele>
        <time>2025-04-25T12:16:52Z</time>
      </trkpt>
      <trkpt lat="44.409806979820132" lon="2.519689025357366">
        <ele>553.38</ele>
        <time>2025-04-25T12:16:54Z</time>
      </trkpt>
      <trkpt lat="44.409751994535327" lon="2.519541000947356">
        <ele>553.86000000000001</ele>
        <time>2025-04-25T12:16:55Z</time>
      </trkpt>
      <trkpt lat="44.409679993987083" lon="2.519426001235843">
        <ele>554.34000000000003</ele>
        <time>2025-04-25T12:16:56Z</time>
      </trkpt>
      <trkpt lat="44.409598018974066" lon="2.519307984039187">
        <ele>554.82000000000005</ele>
        <time>2025-04-25T12:16:57Z</time>
      </trkpt>
      <trkpt lat="44.409507997334003" lon="2.519198013469577">
        <ele>555.29999999999995</ele>
        <time>2025-04-25T12:16:58Z</time>
      </trkpt>
      <trkpt lat="44.409400960430503" lon="2.519094999879599">
        <ele>555.77999999999997</ele>
        <time>2025-04-25T12:16:59Z</time>
      </trkpt>
      <trkpt lat="44.408026998862624" lon="2.517933016642928">
        <ele>560.11000000000001</ele>
        <time>2025-04-25T12:17:11Z</time>
      </trkpt>
      <trkpt lat="44.407385028898716" lon="2.517295992001891">
        <ele>560.59000000000003</ele>
        <time>2025-04-25T12:17:16Z</time>
      </trkpt>
      <trkpt lat="44.407248990610242" lon="2.517136987298727">
        <ele>560.11000000000001</ele>
        <time>2025-04-25T12:17:17Z</time>
      </trkpt>
      <trkpt lat="44.407141031697392" lon="2.516922997310758">
        <ele>560.11000000000001</ele>
        <time>2025-04-25T12:17:18Z</time>
      </trkpt>
      <trkpt lat="44.407048998400569" lon="2.516689980402589">
        <ele>559.62</ele>
        <time>2025-04-25T12:17:19Z</time>
      </trkpt>
      <trkpt lat="44.406972974538803" lon="2.516439026221633">
        <ele>559.13999999999999</ele>
        <time>2025-04-25T12:17:20Z</time>
      </trkpt>
      <trkpt lat="44.406895022839308" lon="2.516181031242013">
        <ele>559.13999999999999</ele>
        <time>2025-04-25T12:17:21Z</time>
      </trkpt>
      <trkpt lat="44.406796032562852" lon="2.515923036262393">
        <ele>558.65999999999997</ele>
        <time>2025-04-25T12:17:22Z</time>
      </trkpt>
      <trkpt lat="44.406674997881055" lon="2.515694964677095">
        <ele>559.13999999999999</ele>
        <time>2025-04-25T12:17:23Z</time>
      </trkpt>
      <trkpt lat="44.40653401426971" lon="2.515492960810661">
        <ele>558.65999999999997</ele>
        <time>2025-04-25T12:17:24Z</time>
      </trkpt>
      <trkpt lat="44.406377021223307" lon="2.515333034098148">
        <ele>558.65999999999997</ele>
        <time>2025-04-25T12:17:25Z</time>
      </trkpt>
      <trkpt lat="44.406201001256704" lon="2.515211999416351">
        <ele>558.65999999999997</ele>
        <time>2025-04-25T12:17:26Z</time>
      </trkpt>
      <trkpt lat="44.406021041795611" lon="2.515088031068444">
        <ele>559.13999999999999</ele>
        <time>2025-04-25T12:17:27Z</time>
      </trkpt>
      <trkpt lat="44.405472027137876" lon="2.514682011678815">
        <ele>560.59000000000003</ele>
        <time>2025-04-25T12:17:30Z</time>
      </trkpt>
      <trkpt lat="44.405301958322525" lon="2.514496017247438">
        <ele>561.07000000000005</ele>
        <time>2025-04-25T12:17:31Z</time>
      </trkpt>
      <trkpt lat="44.404317000880837" lon="2.513513993471861">
        <ele>565.38999999999999</ele>
        <time>2025-04-25T12:17:37Z</time>
      </trkpt>
      <trkpt lat="44.40414902754128" lon="2.51346998848021">
        <ele>566.83000000000004</ele>
        <time>2025-04-25T12:17:38Z</time>
      </trkpt>
      <trkpt lat="44.403976025059819" lon="2.513424977660179">
        <ele>567.79999999999995</ele>
        <time>2025-04-25T12:17:39Z</time>
      </trkpt>
      <trkpt lat="44.403801010921597" lon="2.513407962396741">
        <ele>568.75999999999999</ele>
        <time>2025-04-25T12:17:40Z</time>
      </trkpt>
      <trkpt lat="44.403622979298234" lon="2.513422966003418">
        <ele>569.72000000000003</ele>
        <time>2025-04-25T12:17:41Z</time>
      </trkpt>
      <trkpt lat="44.402043996378779" lon="2.513402011245489">
        <ele>574.52999999999997</ele>
        <time>2025-04-25T12:17:50Z</time>
      </trkpt>
      <trkpt lat="44.400381026789546" lon="2.512989034876227">
        <ele>575.97000000000003</ele>
        <time>2025-04-25T12:17:59Z</time>
      </trkpt>
      <trkpt lat="44.398682015016675" lon="2.512272968888283">
        <ele>575.00999999999999</ele>
        <time>2025-04-25T12:18:08Z</time>
      </trkpt>
      <trkpt lat="44.396938998252153" lon="2.511120960116386">
        <ele>575.97000000000003</ele>
        <time>2025-04-25T12:18:17Z</time>
      </trkpt>
      <trkpt lat="44.396316977217793" lon="2.510823989287019">
        <ele>576.45000000000005</ele>
        <time>2025-04-25T12:18:20Z</time>
      </trkpt>
      <trkpt lat="44.394874032586813" lon="2.510274974629283">
        <ele>577.40999999999997</ele>
        <time>2025-04-25T12:18:28Z</time>
      </trkpt>
      <trkpt lat="44.394747968763113" lon="2.510176990181208">
        <ele>577.40999999999997</ele>
        <time>2025-04-25T12:18:29Z</time>
      </trkpt>
      <trkpt lat="44.394656019285321" lon="2.510076994076371">
        <ele>576.92999999999995</ele>
        <time>2025-04-25T12:18:30Z</time>
      </trkpt>
      <trkpt lat="44.394573038443923" lon="2.509960988536477">
        <ele>576.45000000000005</ele>
        <time>2025-04-25T12:18:31Z</time>
      </trkpt>
      <trkpt lat="44.394501037895679" lon="2.50985998660326">
        <ele>576.45000000000005</ele>
        <time>2025-04-25T12:18:32Z</time>
      </trkpt>
      <trkpt lat="44.394442029297352" lon="2.50977298244834">
        <ele>575.97000000000003</ele>
        <time>2025-04-25T12:18:33Z</time>
      </trkpt>
      <trkpt lat="44.394397018477321" lon="2.509696958586574">
        <ele>575.97000000000003</ele>
        <time>2025-04-25T12:18:34Z</time>
      </trkpt>
      <trkpt lat="44.394368017092347" lon="2.50958195887506">
        <ele>574.52999999999997</ele>
        <time>2025-04-25T12:18:39Z</time>
      </trkpt>
      <trkpt lat="44.39433197490871" lon="2.509444998577237">
        <ele>574.03999999999996</ele>
        <time>2025-04-25T12:18:52Z</time>
      </trkpt>
      <trkpt lat="44.394218986853957" lon="2.509423960000277">
        <ele>574.03999999999996</ele>
        <time>2025-04-25T12:18:53Z</time>
      </trkpt>
      <trkpt lat="44.394150003790855" lon="2.509476011618972">
        <ele>574.03999999999996</ele>
        <time>2025-04-25T12:18:54Z</time>
      </trkpt>
      <trkpt lat="44.394062999635935" lon="2.509542983025312">
        <ele>574.03999999999996</ele>
        <time>2025-04-25T12:18:55Z</time>
      </trkpt>
      <trkpt lat="44.393957974389195" lon="2.509623030200601">
        <ele>574.03999999999996</ele>
        <time>2025-04-25T12:18:56Z</time>
      </trkpt>
      <trkpt lat="44.392983997240663" lon="2.510300958529115">
        <ele>572.60000000000002</ele>
        <time>2025-04-25T12:19:03Z</time>
      </trkpt>
      <trkpt lat="44.391162022948265" lon="2.511379960924387">
        <ele>573.55999999999995</ele>
        <time>2025-04-25T12:19:13Z</time>
      </trkpt>
      <trkpt lat="44.388989014551044" lon="2.51297403126955">
        <ele>588.46000000000004</ele>
        <time>2025-04-25T12:19:25Z</time>
      </trkpt>
      <trkpt lat="44.387294026091695" lon="2.514880998060107">
        <ele>600.96000000000004</ele>
        <time>2025-04-25T12:19:36Z</time>
      </trkpt>
      <trkpt lat="44.387201992794871" lon="2.514983005821705">
        <ele>601.44000000000005</ele>
        <time>2025-04-25T12:19:37Z</time>
      </trkpt>
      <trkpt lat="44.387143990024924" lon="2.515046959742904">
        <ele>602.39999999999998</ele>
        <time>2025-04-25T12:19:38Z</time>
      </trkpt>
      <trkpt lat="44.387040976434946" lon="2.514936989173293">
        <ele>603.36000000000001</ele>
        <time>2025-04-25T12:19:40Z</time>
      </trkpt>
      <trkpt lat="44.387040976434946" lon="2.514836993068457">
        <ele>604.80999999999995</ele>
        <time>2025-04-25T12:19:41Z</time>
      </trkpt>
      <trkpt lat="44.387064026668668" lon="2.514727022498846">
        <ele>604.80999999999995</ele>
        <time>2025-04-25T12:19:42Z</time>
      </trkpt>
      <trkpt lat="44.38711297698319" lon="2.514578998088837">
        <ele>605.28999999999996</ele>
        <time>2025-04-25T12:19:43Z</time>
      </trkpt>
      <trkpt lat="44.387168968096375" lon="2.514410018920898">
        <ele>605.28999999999996</ele>
        <time>2025-04-25T12:19:44Z</time>
      </trkpt>
      <trkpt lat="44.387363009154797" lon="2.513830997049809">
        <ele>604.33000000000004</ele>
        <time>2025-04-25T12:19:47Z</time>
      </trkpt>
      <trkpt lat="44.387406008318067" lon="2.513570990413427">
        <ele>604.80999999999995</ele>
        <time>2025-04-25T12:19:48Z</time>
      </trkpt>
      <trkpt lat="44.387446995824575" lon="2.513325987383723">
        <ele>604.80999999999995</ele>
        <time>2025-04-25T12:19:49Z</time>
      </trkpt>
      <trkpt lat="44.387471973896027" lon="2.513067992404103">
        <ele>604.80999999999995</ele>
        <time>2025-04-25T12:19:50Z</time>
      </trkpt>
      <trkpt lat="44.38747700303793" lon="2.512799017131329">
        <ele>605.28999999999996</ele>
        <time>2025-04-25T12:19:51Z</time>
      </trkpt>
      <trkpt lat="44.387482032179832" lon="2.512527024373412">
        <ele>606.25</ele>
        <time>2025-04-25T12:19:52Z</time>
      </trkpt>
      <trkpt lat="44.387440960854292" lon="2.511488003656268">
        <ele>605.76999999999998</ele>
        <time>2025-04-25T12:19:56Z</time>
      </trkpt>
      <trkpt lat="44.387393016368151" lon="2.511230008676648">
        <ele>605.28999999999996</ele>
        <time>2025-04-25T12:19:57Z</time>
      </trkpt>
      <trkpt lat="44.387313975021243" lon="2.510972013697028">
        <ele>604.80999999999995</ele>
        <time>2025-04-25T12:19:58Z</time>
      </trkpt>
      <trkpt lat="44.386502020061016" lon="2.508887015283108">
        <ele>602.88</ele>
        <time>2025-04-25T12:20:06Z</time>
      </trkpt>
      <trkpt lat="44.385667014867067" lon="2.507222034037113">
        <ele>599.51999999999998</ele>
        <time>2025-04-25T12:20:13Z</time>
      </trkpt>
      <trkpt lat="44.385619992390275" lon="2.506954986602068">
        <ele>599.03999999999996</ele>
        <time>2025-04-25T12:20:14Z</time>
      </trkpt>
      <trkpt lat="44.385572969913483" lon="2.506696991622448">
        <ele>598.55999999999995</ele>
        <time>2025-04-25T12:20:15Z</time>
      </trkpt>
      <trkpt lat="44.385527037084103" lon="2.506436984986067">
        <ele>598.08000000000004</ele>
        <time>2025-04-25T12:20:16Z</time>
      </trkpt>
      <trkpt lat="44.385503986850381" lon="2.506178990006447">
        <ele>597.60000000000002</ele>
        <time>2025-04-25T12:20:17Z</time>
      </trkpt>
      <trkpt lat="44.385426035150886" lon="2.505004014819861">
        <ele>596.63999999999999</ele>
        <time>2025-04-25T12:20:23Z</time>
      </trkpt>
      <trkpt lat="44.385349005460739" lon="2.504888009279966">
        <ele>596.14999999999998</ele>
        <time>2025-04-25T12:20:24Z</time>
      </trkpt>
      <trkpt lat="44.385256972163916" lon="2.504749959334731">
        <ele>596.14999999999998</ele>
        <time>2025-04-25T12:20:25Z</time>
      </trkpt>
      <trkpt lat="44.38470502384007" lon="2.503954013809562">
        <ele>594.23000000000002</ele>
        <time>2025-04-25T12:20:30Z</time>
      </trkpt>
      <trkpt lat="44.384562028571963" lon="2.503832979127765">
        <ele>594.23000000000002</ele>
        <time>2025-04-25T12:20:31Z</time>
      </trkpt>
      <trkpt lat="44.384394977241755" lon="2.503727031871676">
        <ele>593.75</ele>
        <time>2025-04-25T12:20:32Z</time>
      </trkpt>
      <trkpt lat="44.382921019569039" lon="2.502779960632324">
        <ele>589.42999999999995</ele>
        <time>2025-04-25T12:20:40Z</time>
      </trkpt>
      <trkpt lat="44.381727017462254" lon="2.502354998141527">
        <ele>586.53999999999996</ele>
        <time>2025-04-25T12:20:46Z</time>
      </trkpt>
      <trkpt lat="44.381541023030877" lon="2.502246033400297">
        <ele>586.05999999999995</ele>
        <time>2025-04-25T12:20:47Z</time>
      </trkpt>
      <trkpt lat="44.381357040256262" lon="2.502111000940204">
        <ele>585.58000000000004</ele>
        <time>2025-04-25T12:20:48Z</time>
      </trkpt>
      <trkpt lat="44.379608994349837" lon="2.5004499591887">
        <ele>581.73000000000002</ele>
        <time>2025-04-25T12:20:58Z</time>
      </trkpt>
      <trkpt lat="44.379416964948177" lon="2.500359015539289">
        <ele>581.25</ele>
        <time>2025-04-25T12:20:59Z</time>
      </trkpt>
      <trkpt lat="44.378020036965609" lon="2.499769013375044">
        <ele>578.85000000000002</ele>
        <time>2025-04-25T12:21:06Z</time>
      </trkpt>
      <trkpt lat="44.377854997292161" lon="2.499682009220123">
        <ele>578.85000000000002</ele>
        <time>2025-04-25T12:21:07Z</time>
      </trkpt>
      <trkpt lat="44.377718959003687" lon="2.499560974538326">
        <ele>578.85000000000002</ele>
        <time>2025-04-25T12:21:08Z</time>
      </trkpt>
      <trkpt lat="44.377601025626063" lon="2.499414039775729">
        <ele>579.33000000000004</ele>
        <time>2025-04-25T12:21:09Z</time>
      </trkpt>
      <trkpt lat="44.377511003986001" lon="2.499214969575405">
        <ele>579.80999999999995</ele>
        <time>2025-04-25T12:21:10Z</time>
      </trkpt>
      <trkpt lat="44.377413019537926" lon="2.498997962102294">
        <ele>580.28999999999996</ele>
        <time>2025-04-25T12:21:11Z</time>
      </trkpt>
      <trkpt lat="44.376818994060159" lon="2.497785016894341">
        <ele>582.70000000000005</ele>
        <time>2025-04-25T12:21:17Z</time>
      </trkpt>
      <trkpt lat="44.376732995733619" lon="2.497682003304362">
        <ele>583.17999999999995</ele>
        <time>2025-04-25T12:21:18Z</time>
      </trkpt>
      <trkpt lat="44.376624030992389" lon="2.497610002756119">
        <ele>583.65999999999997</ele>
        <time>2025-04-25T12:21:19Z</time>
      </trkpt>
      <trkpt lat="44.376510959118605" lon="2.497533978894353">
        <ele>584.13999999999999</ele>
        <time>2025-04-25T12:21:20Z</time>
      </trkpt>
      <trkpt lat="44.376389002427459" lon="2.497453009709716">
        <ele>584.13999999999999</ele>
        <time>2025-04-25T12:21:21Z</time>
      </trkpt>
      <trkpt lat="44.376265034079552" lon="2.497347984462977">
        <ele>584.13999999999999</ele>
        <time>2025-04-25T12:21:22Z</time>
      </trkpt>
      <trkpt lat="44.376137964427471" lon="2.497220998629928">
        <ele>584.13999999999999</ele>
        <time>2025-04-25T12:21:23Z</time>
      </trkpt>
      <trkpt lat="44.375996980816126" lon="2.497080015018582">
        <ele>584.13999999999999</ele>
        <time>2025-04-25T12:21:24Z</time>
      </trkpt>
      <trkpt lat="44.375873012468219" lon="2.496895026415587">
        <ele>583.65999999999997</ele>
        <time>2025-04-25T12:21:25Z</time>
      </trkpt>
      <trkpt lat="44.37574896030128" lon="2.496693022549152">
        <ele>583.17999999999995</ele>
        <time>2025-04-25T12:21:26Z</time>
      </trkpt>
      <trkpt lat="44.374719997867942" lon="2.494939025491476">
        <ele>578.37</ele>
        <time>2025-04-25T12:21:34Z</time>
      </trkpt>
      <trkpt lat="44.374616984277964" lon="2.494754958897829">
        <ele>578.37</ele>
        <time>2025-04-25T12:21:35Z</time>
      </trkpt>
      <trkpt lat="44.3745650164783" lon="2.494539963081479">
        <ele>578.37</ele>
        <time>2025-04-25T12:21:36Z</time>
      </trkpt>
      <trkpt lat="44.374520005658269" lon="2.494354974478483">
        <ele>578.37</ele>
        <time>2025-04-25T12:21:37Z</time>
      </trkpt>
      <trkpt lat="44.374483041465282" lon="2.494199993088841">
        <ele>578.37</ele>
        <time>2025-04-25T12:21:38Z</time>
      </trkpt>
      <trkpt lat="44.374462002888322" lon="2.49406898394227">
        <ele>578.37</ele>
        <time>2025-04-25T12:21:39Z</time>
      </trkpt>
      <trkpt lat="44.374453034251928" lon="2.493933029472828">
        <ele>578.37</ele>
        <time>2025-04-25T12:21:40Z</time>
      </trkpt>
      <trkpt lat="44.374444987624884" lon="2.49381098896265">
        <ele>578.37</ele>
        <time>2025-04-25T12:21:41Z</time>
      </trkpt>
      <trkpt lat="44.37445898540318" lon="2.493650978431106">
        <ele>578.37</ele>
        <time>2025-04-25T12:21:42Z</time>
      </trkpt>
      <trkpt lat="44.374472983181477" lon="2.493491973727942">
        <ele>578.85000000000002</ele>
        <time>2025-04-25T12:21:43Z</time>
      </trkpt>
      <trkpt lat="44.374598041176796" lon="2.492071995511651">
        <ele>580.28999999999996</ele>
        <time>2025-04-25T12:21:50Z</time>
      </trkpt>
      <trkpt lat="44.374973969534039" lon="2.489347960799933">
        <ele>575.97000000000003</ele>
        <time>2025-04-25T12:22:00Z</time>
      </trkpt>
      <trkpt lat="44.375141020864248" lon="2.488559978082776">
        <ele>575.00999999999999</ele>
        <time>2025-04-25T12:22:03Z</time>
      </trkpt>
      <trkpt lat="44.375230958685279" lon="2.488332996144891">
        <ele>574.52999999999997</ele>
        <time>2025-04-25T12:22:04Z</time>
      </trkpt>
      <trkpt lat="44.375320980325341" lon="2.488102996721864">
        <ele>574.52999999999997</ele>
        <time>2025-04-25T12:22:05Z</time>
      </trkpt>
      <trkpt lat="44.375438997521996" lon="2.487884983420372">
        <ele>574.03999999999996</ele>
        <time>2025-04-25T12:22:06Z</time>
      </trkpt>
      <trkpt lat="44.375567995011806" lon="2.487668981775641">
        <ele>573.55999999999995</ele>
        <time>2025-04-25T12:22:07Z</time>
      </trkpt>
      <trkpt lat="44.376651020720601" lon="2.485703006386757">
        <ele>571.63999999999999</ele>
        <time>2025-04-25T12:22:16Z</time>
      </trkpt>
      <trkpt lat="44.377277987077832" lon="2.483728984370828">
        <ele>570.20000000000005</ele>
        <time>2025-04-25T12:22:24Z</time>
      </trkpt>
      <trkpt lat="44.37731402926147" lon="2.483481969684362">
        <ele>570.20000000000005</ele>
        <time>2025-04-25T12:22:25Z</time>
      </trkpt>
      <trkpt lat="44.377417964860797" lon="2.48266096226871">
        <ele>570.67999999999995</ele>
        <time>2025-04-25T12:22:28Z</time>
      </trkpt>
      <trkpt lat="44.377910988405347" lon="2.48025300912559">
        <ele>571.15999999999997</ele>
        <time>2025-04-25T12:22:36Z</time>
      </trkpt>
      <trkpt lat="44.378194967284799" lon="2.478321986272931">
        <ele>571.63999999999999</ele>
        <time>2025-04-25T12:22:43Z</time>
      </trkpt>
      <trkpt lat="44.378554970026016" lon="2.476461036130786">
        <ele>576.45000000000005</ele>
        <time>2025-04-25T12:22:50Z</time>
      </trkpt>
      <trkpt lat="44.37862697057426" lon="2.476032972335815">
        <ele>577.40999999999997</ele>
        <time>2025-04-25T12:22:52Z</time>
      </trkpt>
      <trkpt lat="44.378636023029685" lon="2.475787969306111">
        <ele>577.88999999999999</ele>
        <time>2025-04-25T12:22:53Z</time>
      </trkpt>
      <trkpt lat="44.378595035523176" lon="2.475555958226323">
        <ele>577.40999999999997</ele>
        <time>2025-04-25T12:22:54Z</time>
      </trkpt>
      <trkpt lat="44.378552958369255" lon="2.475317995995283">
        <ele>576.92999999999995</ele>
        <time>2025-04-25T12:22:55Z</time>
      </trkpt>
      <trkpt lat="44.378510965034366" lon="2.475081039592624">
        <ele>576.45000000000005</ele>
        <time>2025-04-25T12:22:56Z</time>
      </trkpt>
      <trkpt lat="44.378470983356237" lon="2.474853973835707">
        <ele>575.97000000000003</ele>
        <time>2025-04-25T12:22:57Z</time>
      </trkpt>
      <trkpt lat="44.378466038033366" lon="2.474637972190976">
        <ele>575.00999999999999</ele>
        <time>2025-04-25T12:22:58Z</time>
      </trkpt>
      <trkpt lat="44.378479029983282" lon="2.474434040486813">
        <ele>574.03999999999996</ele>
        <time>2025-04-25T12:22:59Z</time>
      </trkpt>
      <trkpt lat="44.378552036359906" lon="2.47421502135694">
        <ele>573.08000000000004</ele>
        <time>2025-04-25T12:23:00Z</time>
      </trkpt>
      <trkpt lat="44.378629988059402" lon="2.473983010277152">
        <ele>572.12</ele>
        <time>2025-04-25T12:23:01Z</time>
      </trkpt>
      <trkpt lat="44.379448983818293" lon="2.472118036821485">
        <ele>567.32000000000005</ele>
        <time>2025-04-25T12:23:09Z</time>
      </trkpt>
      <trkpt lat="44.380123978480697" lon="2.470579035580158">
        <ele>567.79999999999995</ele>
        <time>2025-04-25T12:23:16Z</time>
      </trkpt>
      <trkpt lat="44.380291029810905" lon="2.470000013709068">
        <ele>567.79999999999995</ele>
        <time>2025-04-25T12:23:20Z</time>
      </trkpt>
      <trkpt lat="44.380313996225595" lon="2.469867998734117">
        <ele>567.79999999999995</ele>
        <time>2025-04-25T12:23:21Z</time>
      </trkpt>
      <trkpt lat="44.380337968468666" lon="2.469736989587545">
        <ele>567.79999999999995</ele>
        <time>2025-04-25T12:23:22Z</time>
      </trkpt>
      <trkpt lat="44.380339980125427" lon="2.469619978219271">
        <ele>567.79999999999995</ele>
        <time>2025-04-25T12:23:23Z</time>
      </trkpt>
      <trkpt lat="44.380330005660653" lon="2.469501961022615">
        <ele>567.79999999999995</ele>
        <time>2025-04-25T12:23:24Z</time>
      </trkpt>
      <trkpt lat="44.380319025367498" lon="2.469378998503089">
        <ele>567.32000000000005</ele>
        <time>2025-04-25T12:23:25Z</time>
      </trkpt>
      <trkpt lat="44.380307961255312" lon="2.469253018498421">
        <ele>567.32000000000005</ele>
        <time>2025-04-25T12:23:26Z</time>
      </trkpt>
      <trkpt lat="44.380296980962157" lon="2.469119997695088">
        <ele>567.32000000000005</ele>
        <time>2025-04-25T12:23:27Z</time>
      </trkpt>
      <trkpt lat="44.380191033706069" lon="2.467373963445425">
        <ele>569.72000000000003</ele>
        <time>2025-04-25T12:23:39Z</time>
      </trkpt>
      <trkpt lat="44.380488004535437" lon="2.466024979948998">
        <ele>567.79999999999995</ele>
        <time>2025-04-25T12:23:46Z</time>
      </trkpt>
      <trkpt lat="44.380586994811893" lon="2.465576967224479">
        <ele>568.27999999999997</ele>
        <time>2025-04-25T12:23:48Z</time>
      </trkpt>
      <trkpt lat="44.380925036966801" lon="2.463253000751138">
        <ele>567.79999999999995</ele>
        <time>2025-04-25T12:23:57Z</time>
      </trkpt>
      <trkpt lat="44.38114196062088" lon="2.462130999192596">
        <ele>565.38999999999999</ele>
        <time>2025-04-25T12:24:01Z</time>
      </trkpt>
      <trkpt lat="44.382086014375091" lon="2.459272015839815">
        <ele>569.72000000000003</ele>
        <time>2025-04-25T12:24:12Z</time>
      </trkpt>
      <trkpt lat="44.382487004622817" lon="2.458054963499308">
        <ele>568.75999999999999</ele>
        <time>2025-04-25T12:24:19Z</time>
      </trkpt>
      <trkpt lat="44.382478035986423" lon="2.457789005711675">
        <ele>567.79999999999995</ele>
        <time>2025-04-25T12:24:24Z</time>
      </trkpt>
      <trkpt lat="44.382132031023502" lon="2.457035975530744">
        <ele>567.32000000000005</ele>
        <time>2025-04-25T12:24:30Z</time>
      </trkpt>
      <trkpt lat="44.381395010277629" lon="2.455235039815307">
        <ele>571.63999999999999</ele>
        <time>2025-04-25T12:24:39Z</time>
      </trkpt>
      <trkpt lat="44.380526980385184" lon="2.452897997573018">
        <ele>578.37</ele>
        <time>2025-04-25T12:24:50Z</time>
      </trkpt>
      <trkpt lat="44.380275020375848" lon="2.452327022328973">
        <ele>582.22000000000003</ele>
        <time>2025-04-25T12:24:54Z</time>
      </trkpt>
      <trkpt lat="44.380264040082693" lon="2.452058969065547">
        <ele>583.65999999999997</ele>
        <time>2025-04-25T12:24:57Z</time>
      </trkpt>
      <trkpt lat="44.380283989012241" lon="2.451985962688923">
        <ele>584.13999999999999</ele>
        <time>2025-04-25T12:24:58Z</time>
      </trkpt>
      <trkpt lat="44.380313996225595" lon="2.451881021261215">
        <ele>584.62</ele>
        <time>2025-04-25T12:24:59Z</time>
      </trkpt>
      <trkpt lat="44.380349032580853" lon="2.451755041256547">
        <ele>584.62</ele>
        <time>2025-04-25T12:25:00Z</time>
      </trkpt>
      <trkpt lat="44.380392031744123" lon="2.451606011018157">
        <ele>585.10000000000002</ele>
        <time>2025-04-25T12:25:01Z</time>
      </trkpt>
      <trkpt lat="44.380770977586508" lon="2.45034696534276">
        <ele>583.17999999999995</ele>
        <time>2025-04-25T12:25:07Z</time>
      </trkpt>
      <trkpt lat="44.381379000842571" lon="2.447952004149556">
        <ele>574.52999999999997</ele>
        <time>2025-04-25T12:25:15Z</time>
      </trkpt>
      <trkpt lat="44.38144002109766" lon="2.447621002793312">
        <ele>572.60000000000002</ele>
        <time>2025-04-25T12:25:16Z</time>
      </trkpt>
      <trkpt lat="44.381444966420531" lon="2.4472969584167">
        <ele>571.15999999999997</ele>
        <time>2025-04-25T12:25:17Z</time>
      </trkpt>
      <trkpt lat="44.381417976692319" lon="2.446959000080824">
        <ele>568.75999999999999</ele>
        <time>2025-04-25T12:25:18Z</time>
      </trkpt>
      <trkpt lat="44.381390986964107" lon="2.446617018431425">
        <ele>566.83000000000004</ele>
        <time>2025-04-25T12:25:19Z</time>
      </trkpt>
      <trkpt lat="44.38133399002254" lon="2.446300014853478">
        <ele>564.90999999999997</ele>
        <time>2025-04-25T12:25:20Z</time>
      </trkpt>
      <trkpt lat="44.381238017231226" lon="2.445994997397065">
        <ele>562.50999999999999</ele>
        <time>2025-04-25T12:25:21Z</time>
      </trkpt>
      <trkpt lat="44.381141038611531" lon="2.445686962455511">
        <ele>560.11000000000001</ele>
        <time>2025-04-25T12:25:22Z</time>
      </trkpt>
      <trkpt lat="44.381008017808199" lon="2.445413963869214">
        <ele>557.70000000000005</ele>
        <time>2025-04-25T12:25:23Z</time>
      </trkpt>
      <trkpt lat="44.380864016711712" lon="2.445147000253201">
        <ele>555.77999999999997</ele>
        <time>2025-04-25T12:25:24Z</time>
      </trkpt>
      <trkpt lat="44.380681961774826" lon="2.444936027750373">
        <ele>553.38</ele>
        <time>2025-04-25T12:25:25Z</time>
      </trkpt>
      <trkpt lat="44.380489010363817" lon="2.444733018055558">
        <ele>550.97000000000003</ele>
        <time>2025-04-25T12:25:26Z</time>
      </trkpt>
      <trkpt lat="44.380288012325764" lon="2.444572001695633">
        <ele>549.52999999999997</ele>
        <time>2025-04-25T12:25:27Z</time>
      </trkpt>
      <trkpt lat="44.380075028166175" lon="2.444422971457243">
        <ele>547.61000000000001</ele>
        <time>2025-04-25T12:25:28Z</time>
      </trkpt>
      <trkpt lat="44.3798509798944" lon="2.444316018372774">
        <ele>545.69000000000005</ele>
        <time>2025-04-25T12:25:29Z</time>
      </trkpt>
      <trkpt lat="44.379618968814611" lon="2.444230020046234">
        <ele>543.75999999999999</ele>
        <time>2025-04-25T12:25:30Z</time>
      </trkpt>
      <trkpt lat="44.379385029897094" lon="2.444144021719694">
        <ele>541.84000000000003</ele>
        <time>2025-04-25T12:25:31Z</time>
      </trkpt>
      <trkpt lat="44.378699976950884" lon="2.443825006484985">
        <ele>536.07000000000005</ele>
        <time>2025-04-25T12:25:34Z</time>
      </trkpt>
      <trkpt lat="44.37849503941834" lon="2.443658960983157">
        <ele>534.63</ele>
        <time>2025-04-25T12:25:35Z</time>
      </trkpt>
      <trkpt lat="44.37830401584506" lon="2.44346802122891">
        <ele>533.19000000000005</ele>
        <time>2025-04-25T12:25:36Z</time>
      </trkpt>
      <trkpt lat="44.378134030848742" lon="2.44325403124094">
        <ele>532.23000000000002</ele>
        <time>2025-04-25T12:25:37Z</time>
      </trkpt>
      <trkpt lat="44.377989023923874" lon="2.443011039867997">
        <ele>530.78999999999996</ele>
        <time>2025-04-25T12:25:38Z</time>
      </trkpt>
      <trkpt lat="44.377845022827387" lon="2.442770982161164">
        <ele>529.82000000000005</ele>
        <time>2025-04-25T12:25:39Z</time>
      </trkpt>
      <trkpt lat="44.377739997580647" lon="2.442499995231628">
        <ele>528.86000000000001</ele>
        <time>2025-04-25T12:25:40Z</time>
      </trkpt>
      <trkpt lat="44.377676965668797" lon="2.442208975553513">
        <ele>528.38</ele>
        <time>2025-04-25T12:25:41Z</time>
      </trkpt>
      <trkpt lat="44.37761896289885" lon="2.441915022209287">
        <ele>527.41999999999996</ele>
        <time>2025-04-25T12:25:42Z</time>
      </trkpt>
      <trkpt lat="44.377581998705864" lon="2.44162299670279">
        <ele>527.41999999999996</ele>
        <time>2025-04-25T12:25:43Z</time>
      </trkpt>
      <trkpt lat="44.377554003149271" lon="2.4413220025599">
        <ele>527.41999999999996</ele>
        <time>2025-04-25T12:25:44Z</time>
      </trkpt>
      <trkpt lat="44.377540005370975" lon="2.441025031730533">
        <ele>527.41999999999996</ele>
        <time>2025-04-25T12:25:45Z</time>
      </trkpt>
      <trkpt lat="44.377561965957284" lon="2.440724959596992">
        <ele>527.41999999999996</ele>
        <time>2025-04-25T12:25:46Z</time>
      </trkpt>
      <trkpt lat="44.377602031454444" lon="2.440422037616372">
        <ele>527.41999999999996</ele>
        <time>2025-04-25T12:25:47Z</time>
      </trkpt>
      <trkpt lat="44.377642013132572" lon="2.440116014331579">
        <ele>527.89999999999998</ele>
        <time>2025-04-25T12:25:48Z</time>
      </trkpt>
      <trkpt lat="44.378041997551918" lon="2.437143959105015">
        <ele>524.53999999999996</ele>
        <time>2025-04-25T12:25:58Z</time>
      </trkpt>
      <trkpt lat="44.378578020259738" lon="2.435145964846015">
        <ele>523.58000000000004</ele>
        <time>2025-04-25T12:26:05Z</time>
      </trkpt>
      <trkpt lat="44.379612011834979" lon="2.432805988937616">
        <ele>526.94000000000005</ele>
        <time>2025-04-25T12:26:14Z</time>
      </trkpt>
      <trkpt lat="44.380885977298021" lon="2.430025963112712">
        <ele>540.39999999999998</ele>
        <time>2025-04-25T12:26:25Z</time>
      </trkpt>
      <trkpt lat="44.381583016365767" lon="2.427804004400969">
        <ele>552.40999999999997</ele>
        <time>2025-04-25T12:26:33Z</time>
      </trkpt>
      <trkpt lat="44.381682006642222" lon="2.425610041245818">
        <ele>559.13999999999999</ele>
        <time>2025-04-25T12:26:40Z</time>
      </trkpt>
      <trkpt lat="44.382007978856564" lon="2.422924982383847">
        <ele>557.70000000000005</ele>
        <time>2025-04-25T12:26:48Z</time>
      </trkpt>
      <trkpt lat="44.382377034053206" lon="2.420933023095131">
        <ele>551.92999999999995</ele>
        <time>2025-04-25T12:26:54Z</time>
      </trkpt>
      <trkpt lat="44.382403017953038" lon="2.42058802396059">
        <ele>550.49000000000001</ele>
        <time>2025-04-25T12:26:55Z</time>
      </trkpt>
      <trkpt lat="44.382370999082923" lon="2.420248975977302">
        <ele>548.57000000000005</ele>
        <time>2025-04-25T12:26:56Z</time>
      </trkpt>
      <trkpt lat="44.382333029061556" lon="2.419917974621058">
        <ele>546.64999999999998</ele>
        <time>2025-04-25T12:26:57Z</time>
      </trkpt>
      <trkpt lat="44.382261028513312" lon="2.419616980478168">
        <ele>545.20000000000005</ele>
        <time>2025-04-25T12:26:58Z</time>
      </trkpt>
      <trkpt lat="44.38217100687325" lon="2.419327972456813">
        <ele>543.27999999999997</ele>
        <time>2025-04-25T12:26:59Z</time>
      </trkpt>
      <trkpt lat="44.382084002718329" lon="2.419052040204406">
        <ele>541.36000000000001</ele>
        <time>2025-04-25T12:27:00Z</time>
      </trkpt>
      <trkpt lat="44.381945030763745" lon="2.418828997761011">
        <ele>539.91999999999996</ele>
        <time>2025-04-25T12:27:01Z</time>
      </trkpt>
      <trkpt lat="44.381813015788794" lon="2.418616013601422">
        <ele>537.50999999999999</ele>
        <time>2025-04-25T12:27:02Z</time>
      </trkpt>
      <trkpt lat="44.381689969450235" lon="2.418420966714621">
        <ele>536.07000000000005</ele>
        <time>2025-04-25T12:27:03Z</time>
      </trkpt>
      <trkpt lat="44.381544040516019" lon="2.41824796423316">
        <ele>534.63</ele>
        <time>2025-04-25T12:27:04Z</time>
      </trkpt>
      <trkpt lat="44.381387969478965" lon="2.418097006157041">
        <ele>533.19000000000005</ele>
        <time>2025-04-25T12:27:05Z</time>
      </trkpt>
      <trkpt lat="44.381211027503014" lon="2.417969014495611">
        <ele>532.23000000000002</ele>
        <time>2025-04-25T12:27:06Z</time>
      </trkpt>
      <trkpt lat="44.380253981798887" lon="2.417274992913008">
        <ele>528.86000000000001</ele>
        <time>2025-04-25T12:27:11Z</time>
      </trkpt>
      <trkpt lat="44.380082990974188" lon="2.41708698682487">
        <ele>528.86000000000001</ele>
        <time>2025-04-25T12:27:12Z</time>
      </trkpt>
      <trkpt lat="44.379916023463011" lon="2.416890012100339">
        <ele>528.86000000000001</ele>
        <time>2025-04-25T12:27:13Z</time>
      </trkpt>
      <trkpt lat="44.379779985174537" lon="2.416660012677312">
        <ele>528.86000000000001</ele>
        <time>2025-04-25T12:27:14Z</time>
      </trkpt>
      <trkpt lat="44.379659034311771" lon="2.416455997154117">
        <ele>529.82000000000005</ele>
        <time>2025-04-25T12:27:15Z</time>
      </trkpt>
      <trkpt lat="44.379559038206935" lon="2.416173024103046">
        <ele>530.78999999999996</ele>
        <time>2025-04-25T12:27:16Z</time>
      </trkpt>
      <trkpt lat="44.379467004910111" lon="2.415915029123426">
        <ele>531.75</ele>
        <time>2025-04-25T12:27:17Z</time>
      </trkpt>
      <trkpt lat="44.37939802184701" lon="2.415645970031619">
        <ele>532.71000000000004</ele>
        <time>2025-04-25T12:27:18Z</time>
      </trkpt>
      <trkpt lat="44.379349993541837" lon="2.41536601446569">
        <ele>533.66999999999996</ele>
        <time>2025-04-25T12:27:19Z</time>
      </trkpt>
      <trkpt lat="44.37931596301496" lon="2.415083041414619">
        <ele>535.11000000000001</ele>
        <time>2025-04-25T12:27:20Z</time>
      </trkpt>
      <trkpt lat="44.37931596301496" lon="2.414782969281077">
        <ele>536.07000000000005</ele>
        <time>2025-04-25T12:27:21Z</time>
      </trkpt>
      <trkpt lat="44.379324009642005" lon="2.414482980966568">
        <ele>537.50999999999999</ele>
        <time>2025-04-25T12:27:22Z</time>
      </trkpt>
      <trkpt lat="44.379352005198598" lon="2.414187015965581">
        <ele>538.48000000000002</ele>
        <time>2025-04-25T12:27:23Z</time>
      </trkpt>
      <trkpt lat="44.379414031282067" lon="2.413897002115846">
        <ele>539.91999999999996</ele>
        <time>2025-04-25T12:27:24Z</time>
      </trkpt>
      <trkpt lat="44.37948502600193" lon="2.413614029064775">
        <ele>540.88</ele>
        <time>2025-04-25T12:27:25Z</time>
      </trkpt>
      <trkpt lat="44.379576975479722" lon="2.413332983851433">
        <ele>542.79999999999995</ele>
        <time>2025-04-25T12:27:26Z</time>
      </trkpt>
      <trkpt lat="44.37970002181828" lon="2.413073983043432">
        <ele>544.24000000000001</ele>
        <time>2025-04-25T12:27:27Z</time>
      </trkpt>
      <trkpt lat="44.379824995994568" lon="2.412810036912561">
        <ele>546.16999999999996</ele>
        <time>2025-04-25T12:27:28Z</time>
      </trkpt>
      <trkpt lat="44.381359973922372" lon="2.409578980877996">
        <ele>565.87</ele>
        <time>2025-04-25T12:27:40Z</time>
      </trkpt>
      <trkpt lat="44.382864022627473" lon="2.406530985608697">
        <ele>571.63999999999999</ele>
        <time>2025-04-25T12:27:51Z</time>
      </trkpt>
      <trkpt lat="44.383942019194365" lon="2.404928030446172">
        <ele>573.08000000000004</ele>
        <time>2025-04-25T12:27:58Z</time>
      </trkpt>
      <trkpt lat="44.385727029293776" lon="2.402053959667683">
        <ele>564.90999999999997</ele>
        <time>2025-04-25T12:28:11Z</time>
      </trkpt>
      <trkpt lat="44.387009041383862" lon="2.400324018672109">
        <ele>552.40999999999997</ele>
        <time>2025-04-25T12:28:19Z</time>
      </trkpt>
      <trkpt lat="44.388644015416503" lon="2.397908018901944">
        <ele>543.75999999999999</ele>
        <time>2025-04-25T12:28:30Z</time>
      </trkpt>
      <trkpt lat="44.390212018042803" lon="2.39506596699357">
        <ele>551.45000000000005</ele>
        <time>2025-04-25T12:28:42Z</time>
      </trkpt>
      <trkpt lat="44.390779975801706" lon="2.39280603826046">
        <ele>552.89999999999998</ele>
        <time>2025-04-25T12:28:50Z</time>
      </trkpt>
      <trkpt lat="44.391137966886163" lon="2.389488983899355">
        <ele>546.64999999999998</ele>
        <time>2025-04-25T12:29:01Z</time>
      </trkpt>
      <trkpt lat="44.391492018476129" lon="2.386027006432414">
        <ele>548.57000000000005</ele>
        <time>2025-04-25T12:29:13Z</time>
      </trkpt>
      <trkpt lat="44.391911029815674" lon="2.382380962371826">
        <ele>554.34000000000003</ele>
        <time>2025-04-25T12:29:25Z</time>
      </trkpt>
      <trkpt lat="44.392260974273086" lon="2.380865011364222">
        <ele>558.65999999999997</ele>
        <time>2025-04-25T12:29:31Z</time>
      </trkpt>
      <trkpt lat="44.39280403777957" lon="2.379413014277816">
        <ele>564.90999999999997</ele>
        <time>2025-04-25T12:29:39Z</time>
      </trkpt>
      <trkpt lat="44.393029008060694" lon="2.37888696603477">
        <ele>567.79999999999995</ele>
        <time>2025-04-25T12:29:43Z</time>
      </trkpt>
      <trkpt lat="44.393537035211921" lon="2.377834031358361">
        <ele>572.12</ele>
        <time>2025-04-25T12:29:51Z</time>
      </trkpt>
      <trkpt lat="44.39392302185297" lon="2.376827029511333">
        <ele>575.97000000000003</ele>
        <time>2025-04-25T12:29:58Z</time>
      </trkpt>
      <trkpt lat="44.394013965502381" lon="2.376529974862933">
        <ele>576.92999999999995</ele>
        <time>2025-04-25T12:30:00Z</time>
      </trkpt>
      <trkpt lat="44.394615031778812" lon="2.374585038051009">
        <ele>582.22000000000003</ele>
        <time>2025-04-25T12:30:13Z</time>
      </trkpt>
      <trkpt lat="44.395181983709335" lon="2.373575018718839">
        <ele>586.53999999999996</ele>
        <time>2025-04-25T12:30:21Z</time>
      </trkpt>
      <trkpt lat="44.395274017006159" lon="2.373482985422015">
        <ele>587.5</ele>
        <time>2025-04-25T12:30:22Z</time>
      </trkpt>
      <trkpt lat="44.396289987489581" lon="2.372362995520234">
        <ele>592.30999999999995</ele>
        <time>2025-04-25T12:30:32Z</time>
      </trkpt>
      <trkpt lat="44.396486962214112" lon="2.371969968080521">
        <ele>593.26999999999998</ele>
        <time>2025-04-25T12:30:34Z</time>
      </trkpt>
      <trkpt lat="44.396575978025794" lon="2.37175103276968">
        <ele>593.75</ele>
        <time>2025-04-25T12:30:35Z</time>
      </trkpt>
      <trkpt lat="44.397055003792048" lon="2.370071969926357">
        <ele>599.51999999999998</ele>
        <time>2025-04-25T12:30:43Z</time>
      </trkpt>
      <trkpt lat="44.397866036742926" lon="2.368492987006903">
        <ele>605.76999999999998</ele>
        <time>2025-04-25T12:30:53Z</time>
      </trkpt>
      <trkpt lat="44.398640021681786" lon="2.367139980196953">
        <ele>610.09000000000003</ele>
        <time>2025-04-25T12:31:01Z</time>
      </trkpt>
      <trkpt lat="44.399387016892433" lon="2.365150032564998">
        <ele>614.41999999999996</ele>
        <time>2025-04-25T12:31:08Z</time>
      </trkpt>
      <trkpt lat="44.400036027655005" lon="2.363382037729025">
        <ele>617.29999999999995</ele>
        <time>2025-04-25T12:31:15Z</time>
      </trkpt>
      <trkpt lat="44.400551011785865" lon="2.361815040931106">
        <ele>615.38</ele>
        <time>2025-04-25T12:31:22Z</time>
      </trkpt>
      <trkpt lat="44.40058596432209" lon="2.361585041508079">
        <ele>614.41999999999996</ele>
        <time>2025-04-25T12:31:23Z</time>
      </trkpt>
      <trkpt lat="44.400599962100387" lon="2.361348001286387">
        <ele>613.46000000000004</ele>
        <time>2025-04-25T12:31:24Z</time>
      </trkpt>
      <trkpt lat="44.400584036484361" lon="2.36111800186336">
        <ele>612.5</ele>
        <time>2025-04-25T12:31:25Z</time>
      </trkpt>
      <trkpt lat="44.4005629979074" lon="2.360883979126811">
        <ele>611.53999999999996</ele>
        <time>2025-04-25T12:31:26Z</time>
      </trkpt>
      <trkpt lat="44.400513963773847" lon="2.3606669716537">
        <ele>610.57000000000005</ele>
        <time>2025-04-25T12:31:27Z</time>
      </trkpt>
      <trkpt lat="44.40045403316617" lon="2.360444013029337">
        <ele>610.09000000000003</ele>
        <time>2025-04-25T12:31:28Z</time>
      </trkpt>
      <trkpt lat="44.400126971304417" lon="2.359132999554277">
        <ele>609.13</ele>
        <time>2025-04-25T12:31:34Z</time>
      </trkpt>
      <trkpt lat="44.400115991011262" lon="2.358906017616391">
        <ele>609.13</ele>
        <time>2025-04-25T12:31:35Z</time>
      </trkpt>
      <trkpt lat="44.400130994617939" lon="2.358677024021745">
        <ele>609.13</ele>
        <time>2025-04-25T12:31:36Z</time>
      </trkpt>
      <trkpt lat="44.400147004052997" lon="2.358439983800054">
        <ele>609.13</ele>
        <time>2025-04-25T12:31:37Z</time>
      </trkpt>
      <trkpt lat="44.400206012651324" lon="2.358206966891885">
        <ele>610.09000000000003</ele>
        <time>2025-04-25T12:31:38Z</time>
      </trkpt>
      <trkpt lat="44.400280024856329" lon="2.357983002439141">
        <ele>610.57000000000005</ele>
        <time>2025-04-25T12:31:39Z</time>
      </trkpt>
      <trkpt lat="44.400383038446307" lon="2.357784016057849">
        <ele>611.05999999999995</ele>
        <time>2025-04-25T12:31:40Z</time>
      </trkpt>
      <trkpt lat="44.40049996599555" lon="2.357590980827808">
        <ele>611.53999999999996</ele>
        <time>2025-04-25T12:31:41Z</time>
      </trkpt>
      <trkpt lat="44.400641033425927" lon="2.357424013316631">
        <ele>612.5</ele>
        <time>2025-04-25T12:31:42Z</time>
      </trkpt>
      <trkpt lat="44.400787968188524" lon="2.3572719655931">
        <ele>612.98000000000002</ele>
        <time>2025-04-25T12:31:43Z</time>
      </trkpt>
      <trkpt lat="44.40094999037683" lon="2.35714003443718">
        <ele>613.94000000000005</ele>
        <time>2025-04-25T12:31:44Z</time>
      </trkpt>
      <trkpt lat="44.401112012565136" lon="2.357008019462228">
        <ele>614.41999999999996</ele>
        <time>2025-04-25T12:31:45Z</time>
      </trkpt>
      <trkpt lat="44.4012710172683" lon="2.356878016144037">
        <ele>614.89999999999998</ele>
        <time>2025-04-25T12:31:46Z</time>
      </trkpt>
      <trkpt lat="44.402023963630199" lon="2.356171002611518">
        <ele>618.25999999999999</ele>
        <time>2025-04-25T12:31:51Z</time>
      </trkpt>
      <trkpt lat="44.402149021625519" lon="2.355993976816535">
        <ele>618.75</ele>
        <time>2025-04-25T12:31:52Z</time>
      </trkpt>
      <trkpt lat="44.402238959446549" lon="2.355777975171804">
        <ele>619.23000000000002</ele>
        <time>2025-04-25T12:31:53Z</time>
      </trkpt>
      <trkpt lat="44.40232302993536" lon="2.355554010719061">
        <ele>620.19000000000005</ele>
        <time>2025-04-25T12:31:54Z</time>
      </trkpt>
      <trkpt lat="44.402391007170081" lon="2.355326022952795">
        <ele>620.66999999999996</ele>
        <time>2025-04-25T12:31:55Z</time>
      </trkpt>
      <trkpt lat="44.402446998283267" lon="2.355088982731104">
        <ele>621.14999999999998</ele>
        <time>2025-04-25T12:31:56Z</time>
      </trkpt>
      <trkpt lat="44.402439035475254" lon="2.354840040206909">
        <ele>621.63</ele>
        <time>2025-04-25T12:31:57Z</time>
      </trkpt>
      <trkpt lat="44.402429983019829" lon="2.354587996378541">
        <ele>622.11000000000001</ele>
        <time>2025-04-25T12:31:58Z</time>
      </trkpt>
      <trkpt lat="44.402395030483603" lon="2.354356991127133">
        <ele>622.11000000000001</ele>
        <time>2025-04-25T12:31:59Z</time>
      </trkpt>
      <trkpt lat="44.402326969429851" lon="2.354125985875726">
        <ele>622.59000000000003</ele>
        <time>2025-04-25T12:32:00Z</time>
      </trkpt>
      <trkpt lat="44.40225999802351" lon="2.353892968967557">
        <ele>623.07000000000005</ele>
        <time>2025-04-25T12:32:01Z</time>
      </trkpt>
      <trkpt lat="44.40217399969697" lon="2.353680990636349">
        <ele>623.07000000000005</ele>
        <time>2025-04-25T12:32:02Z</time>
      </trkpt>
      <trkpt lat="44.402066962793469" lon="2.353474041447043">
        <ele>623.54999999999995</ele>
        <time>2025-04-25T12:32:03Z</time>
      </trkpt>
      <trkpt lat="44.400944039225578" lon="2.351350989192724">
        <ele>621.63</ele>
        <time>2025-04-25T12:32:12Z</time>
      </trkpt>
      <trkpt lat="44.400447998195887" lon="2.349346959963441">
        <ele>612.98000000000002</ele>
        <time>2025-04-25T12:32:19Z</time>
      </trkpt>
      <trkpt lat="44.400502983480692" lon="2.347212005406618">
        <ele>603.85000000000002</ele>
        <time>2025-04-25T12:32:26Z</time>
      </trkpt>
      <trkpt lat="44.400989972054958" lon="2.344600036740303">
        <ele>591.35000000000002</ele>
        <time>2025-04-25T12:32:35Z</time>
      </trkpt>
      <trkpt lat="44.401159035041928" lon="2.341855969280005">
        <ele>591.83000000000004</ele>
        <time>2025-04-25T12:32:45Z</time>
      </trkpt>
      <trkpt lat="44.401217037811875" lon="2.338172039017081">
        <ele>597.60000000000002</ele>
        <time>2025-04-25T12:32:58Z</time>
      </trkpt>
      <trkpt lat="44.401326002553105" lon="2.333407010883093">
        <ele>588.95000000000005</ele>
        <time>2025-04-25T12:33:14Z</time>
      </trkpt>
      <trkpt lat="44.40118501894176" lon="2.330467980355024">
        <ele>584.62</ele>
        <time>2025-04-25T12:33:24Z</time>
      </trkpt>
      <trkpt lat="44.400575989857316" lon="2.328261025249958">
        <ele>577.88999999999999</ele>
        <time>2025-04-25T12:33:32Z</time>
      </trkpt>
      <trkpt lat="44.399520037695765" lon="2.325060982257128">
        <ele>574.03999999999996</ele>
        <time>2025-04-25T12:33:44Z</time>
      </trkpt>
      <trkpt lat="44.398370962589979" lon="2.32162800617516">
        <ele>575.49000000000001</ele>
        <time>2025-04-25T12:33:57Z</time>
      </trkpt>
      <trkpt lat="44.397049974650145" lon="2.317487010732293">
        <ele>573.08000000000004</ele>
        <time>2025-04-25T12:34:12Z</time>
      </trkpt>
      <trkpt lat="44.396702041849494" lon="2.314743027091026">
        <ele>575.00999999999999</ele>
        <time>2025-04-25T12:34:21Z</time>
      </trkpt>
      <trkpt lat="44.396854005753994" lon="2.311906004324555">
        <ele>567.32000000000005</ele>
        <time>2025-04-25T12:34:30Z</time>
      </trkpt>
      <trkpt lat="44.397472003474832" lon="2.307092025876045">
        <ele>546.16999999999996</ele>
        <time>2025-04-25T12:34:46Z</time>
      </trkpt>
      <trkpt lat="44.397967038676143" lon="2.303456962108612">
        <ele>533.19000000000005</ele>
        <time>2025-04-25T12:34:59Z</time>
      </trkpt>
      <trkpt lat="44.398308014497161" lon="2.301703970879316">
        <ele>527.41999999999996</ele>
        <time>2025-04-25T12:35:07Z</time>
      </trkpt>
      <trkpt lat="44.39839300699532" lon="2.301516970619559">
        <ele>526.94000000000005</ele>
        <time>2025-04-25T12:35:09Z</time>
      </trkpt>
      <trkpt lat="44.39845603890717" lon="2.301377998664975">
        <ele>526.94000000000005</ele>
        <time>2025-04-25T12:35:10Z</time>
      </trkpt>
      <trkpt lat="44.398491997271776" lon="2.301334999501705">
        <ele>526.94000000000005</ele>
        <time>2025-04-25T12:35:11Z</time>
      </trkpt>
      <trkpt lat="44.398571038618684" lon="2.301208013668656">
        <ele>526.94000000000005</ele>
        <time>2025-04-25T12:35:12Z</time>
      </trkpt>
      <trkpt lat="44.398594005033374" lon="2.301082033663988">
        <ele>526.94000000000005</ele>
        <time>2025-04-25T12:35:13Z</time>
      </trkpt>
      <trkpt lat="44.398559974506497" lon="2.300906013697386">
        <ele>526.46000000000004</ele>
        <time>2025-04-25T12:35:14Z</time>
      </trkpt>
      <trkpt lat="44.39854203723371" lon="2.300863014534116">
        <ele>526.46000000000004</ele>
        <time>2025-04-25T12:35:15Z</time>
      </trkpt>
      <trkpt lat="44.398402981460094" lon="2.300625974312425">
        <ele>526.46000000000004</ele>
        <time>2025-04-25T12:35:16Z</time>
      </trkpt>
      <trkpt lat="44.398416979238391" lon="2.300458000972867">
        <ele>526.46000000000004</ele>
        <time>2025-04-25T12:35:17Z</time>
      </trkpt>
      <trkpt lat="44.398431982845068" lon="2.300268989056349">
        <ele>526.46000000000004</ele>
        <time>2025-04-25T12:35:18Z</time>
      </trkpt>
      <trkpt lat="44.398452015593648" lon="2.300062039867044">
        <ele>526.46000000000004</ele>
        <time>2025-04-25T12:35:19Z</time>
      </trkpt>
      <trkpt lat="44.398652007803321" lon="2.297991961240768">
        <ele>523.09000000000003</ele>
        <time>2025-04-25T12:35:27Z</time>
      </trkpt>
      <trkpt lat="44.399076970294118" lon="2.294381959363818">
        <ele>511.56</ele>
        <time>2025-04-25T12:35:39Z</time>
      </trkpt>
      <trkpt lat="44.399663032963872" lon="2.289153998717666">
        <ele>508.67000000000002</ele>
        <time>2025-04-25T12:35:56Z</time>
      </trkpt>
      <trkpt lat="44.399529006332159" lon="2.28632602840662">
        <ele>517.33000000000004</ele>
        <time>2025-04-25T12:36:05Z</time>
      </trkpt>
      <trkpt lat="44.399290038272738" lon="2.282949965447187">
        <ele>525.01999999999998</ele>
        <time>2025-04-25T12:36:16Z</time>
      </trkpt>
      <trkpt lat="44.399396991357207" lon="2.280898997560144">
        <ele>528.38</ele>
        <time>2025-04-25T12:36:23Z</time>
      </trkpt>
      <trkpt lat="44.399878028780222" lon="2.279287995770574">
        <ele>530.78999999999996</ele>
        <time>2025-04-25T12:36:29Z</time>
      </trkpt>
      <trkpt lat="44.399979030713439" lon="2.279027989134193">
        <ele>530.78999999999996</ele>
        <time>2025-04-25T12:36:30Z</time>
      </trkpt>
      <trkpt lat="44.400962982326746" lon="2.277460992336273">
        <ele>529.34000000000003</ele>
        <time>2025-04-25T12:36:37Z</time>
      </trkpt>
      <trkpt lat="44.403071030974388" lon="2.27536803111434">
        <ele>517.80999999999995</ele>
        <time>2025-04-25T12:36:49Z</time>
      </trkpt>
      <trkpt lat="44.404464019462466" lon="2.274535959586501">
        <ele>512.03999999999996</ele>
        <time>2025-04-25T12:36:56Z</time>
      </trkpt>
      <trkpt lat="44.405931020155549" lon="2.274421965703368">
        <ele>511.56</ele>
        <time>2025-04-25T12:37:03Z</time>
      </trkpt>
      <trkpt lat="44.409219995141029" lon="2.274907026439905">
        <ele>510.60000000000002</ele>
        <time>2025-04-25T12:37:18Z</time>
      </trkpt>
      <trkpt lat="44.411473972722888" lon="2.274851035326719">
        <ele>497.62</ele>
        <time>2025-04-25T12:37:28Z</time>
      </trkpt>
      <trkpt lat="44.414210999384522" lon="2.274393970146775">
        <ele>482.72000000000003</ele>
        <time>2025-04-25T12:37:41Z</time>
      </trkpt>
      <trkpt lat="44.4156230147928" lon="2.274219039827585">
        <ele>476.47000000000003</ele>
        <time>2025-04-25T12:37:49Z</time>
      </trkpt>
      <trkpt lat="44.415732985362411" lon="2.274234965443611">
        <ele>475.99000000000001</ele>
        <time>2025-04-25T12:37:50Z</time>
      </trkpt>
      <trkpt lat="44.415880003944039" lon="2.274256004020572">
        <ele>475.99000000000001</ele>
        <time>2025-04-25T12:37:51Z</time>
      </trkpt>
      <trkpt lat="44.41594404168427" lon="2.274342002347112">
        <ele>475.50999999999999</ele>
        <time>2025-04-25T12:37:52Z</time>
      </trkpt>
      <trkpt lat="44.416001038625836" lon="2.274363040924072">
        <ele>475.50999999999999</ele>
        <time>2025-04-25T12:37:53Z</time>
      </trkpt>
      <trkpt lat="44.416127018630505" lon="2.274398999288678">
        <ele>475.02999999999997</ele>
        <time>2025-04-25T12:37:54Z</time>
      </trkpt>
      <trkpt lat="44.416244029998779" lon="2.274299003183842">
        <ele>474.55000000000001</ele>
        <time>2025-04-25T12:37:55Z</time>
      </trkpt>
      <trkpt lat="44.416301026940346" lon="2.274158019572496">
        <ele>474.55000000000001</ele>
        <time>2025-04-25T12:37:56Z</time>
      </trkpt>
      <trkpt lat="44.416306978091598" lon="2.273958027362824">
        <ele>474.06999999999999</ele>
        <time>2025-04-25T12:37:57Z</time>
      </trkpt>
      <trkpt lat="44.416240006685257" lon="2.273833975195885">
        <ele>474.06999999999999</ele>
        <time>2025-04-25T12:37:58Z</time>
      </trkpt>
      <trkpt lat="44.416179992258549" lon="2.273761974647641">
        <ele>474.06999999999999</ele>
        <time>2025-04-25T12:37:59Z</time>
      </trkpt>
      <trkpt lat="44.416081001982093" lon="2.273742025718093">
        <ele>474.55000000000001</ele>
        <time>2025-04-25T12:38:00Z</time>
      </trkpt>
      <trkpt lat="44.416021993383765" lon="2.273578997701407">
        <ele>474.55000000000001</ele>
        <time>2025-04-25T12:38:01Z</time>
      </trkpt>
      <trkpt lat="44.415975976735353" lon="2.273429967463017">
        <ele>475.02999999999997</ele>
        <time>2025-04-25T12:38:02Z</time>
      </trkpt>
      <trkpt lat="44.415923003107309" lon="2.273261994123459">
        <ele>475.50999999999999</ele>
        <time>2025-04-25T12:38:03Z</time>
      </trkpt>
      <trkpt lat="44.415865000337362" lon="2.273074993863702">
        <ele>475.50999999999999</ele>
        <time>2025-04-25T12:38:04Z</time>
      </trkpt>
      <trkpt lat="44.415524024516344" lon="2.271961960941553">
        <ele>478.87</ele>
        <time>2025-04-25T12:38:09Z</time>
      </trkpt>
      <trkpt lat="44.415420005097985" lon="2.271734979003668">
        <ele>479.83999999999997</ele>
        <time>2025-04-25T12:38:10Z</time>
      </trkpt>
      <trkpt lat="44.415296036750078" lon="2.271517971530557">
        <ele>480.31999999999999</ele>
        <time>2025-04-25T12:38:11Z</time>
      </trkpt>
      <trkpt lat="44.415153041481972" lon="2.271328959614039">
        <ele>481.27999999999997</ele>
        <time>2025-04-25T12:38:12Z</time>
      </trkpt>
      <trkpt lat="44.415013985708356" lon="2.271154029294848">
        <ele>482.72000000000003</ele>
        <time>2025-04-25T12:38:13Z</time>
      </trkpt>
      <trkpt lat="44.41409801132977" lon="2.270078966394067">
        <ele>489.93000000000001</ele>
        <time>2025-04-25T12:38:20Z</time>
      </trkpt>
      <trkpt lat="44.413970019668341" lon="2.270006965845823">
        <ele>490.41000000000003</ele>
        <time>2025-04-25T12:38:21Z</time>
      </trkpt>
      <trkpt lat="44.413844039663672" lon="2.269964972510934">
        <ele>491.37</ele>
        <time>2025-04-25T12:38:22Z</time>
      </trkpt>
      <trkpt lat="44.413742031902075" lon="2.26997897028923">
        <ele>492.32999999999998</ele>
        <time>2025-04-25T12:38:23Z</time>
      </trkpt>
      <trkpt lat="44.413636000826955" lon="2.269995985552669">
        <ele>492.81</ele>
        <time>2025-04-25T12:38:24Z</time>
      </trkpt>
      <trkpt lat="44.413543967530131" lon="2.270014006644487">
        <ele>493.29000000000002</ele>
        <time>2025-04-25T12:38:25Z</time>
      </trkpt>
      <trkpt lat="44.412876013666391" lon="2.270262027159333">
        <ele>495.69999999999999</ele>
        <time>2025-04-25T12:38:32Z</time>
      </trkpt>
      <trkpt lat="44.412779035046697" lon="2.270346013829112">
        <ele>496.18000000000001</ele>
        <time>2025-04-25T12:38:33Z</time>
      </trkpt>
      <trkpt lat="44.412684990093112" lon="2.270426983013749">
        <ele>496.18000000000001</ele>
        <time>2025-04-25T12:38:34Z</time>
      </trkpt>
      <trkpt lat="44.412588011473417" lon="2.270511975511909">
        <ele>496.66000000000003</ele>
        <time>2025-04-25T12:38:35Z</time>
      </trkpt>
      <trkpt lat="44.412478962913156" lon="2.270607026293874">
        <ele>496.66000000000003</ele>
        <time>2025-04-25T12:38:36Z</time>
      </trkpt>
      <trkpt lat="44.41235801205039" lon="2.270711967721582">
        <ele>496.66000000000003</ele>
        <time>2025-04-25T12:38:37Z</time>
      </trkpt>
      <trkpt lat="44.4122280087322" lon="2.270825039595366">
        <ele>497.13999999999999</ele>
        <time>2025-04-25T12:38:38Z</time>
      </trkpt>
      <trkpt lat="44.411244979128242" lon="2.271581003442407">
        <ele>496.18000000000001</ele>
        <time>2025-04-25T12:38:45Z</time>
      </trkpt>
      <trkpt lat="44.411097038537264" lon="2.271604975685477">
        <ele>496.18000000000001</ele>
        <time>2025-04-25T12:38:46Z</time>
      </trkpt>
      <trkpt lat="44.41094197332859" lon="2.271630959585309">
        <ele>496.18000000000001</ele>
        <time>2025-04-25T12:38:47Z</time>
      </trkpt>
      <trkpt lat="44.410084001719952" lon="2.271650992333889">
        <ele>498.57999999999998</ele>
        <time>2025-04-25T12:38:52Z</time>
      </trkpt>
      <trkpt lat="44.409624002873898" lon="2.271721987053752">
        <ele>501.45999999999998</ele>
        <time>2025-04-25T12:38:55Z</time>
      </trkpt>
      <trkpt lat="44.409469021484256" lon="2.271717041730881">
        <ele>502.43000000000001</ele>
        <time>2025-04-25T12:38:56Z</time>
      </trkpt>
      <trkpt lat="44.409156963229179" lon="2.271706983447075">
        <ele>504.82999999999998</ele>
        <time>2025-04-25T12:38:58Z</time>
      </trkpt>
      <trkpt lat="44.408997958526015" lon="2.271705977618694">
        <ele>506.26999999999998</ele>
        <time>2025-04-25T12:38:59Z</time>
      </trkpt>
      <trkpt lat="44.407843016088009" lon="2.272003032267094">
        <ele>515.39999999999998</ele>
        <time>2025-04-25T12:39:06Z</time>
      </trkpt>
      <trkpt lat="44.407686023041606" lon="2.272065980359912">
        <ele>516.37</ele>
        <time>2025-04-25T12:39:07Z</time>
      </trkpt>
      <trkpt lat="44.40752299502492" lon="2.272131023928523">
        <ele>517.33000000000004</ele>
        <time>2025-04-25T12:39:08Z</time>
      </trkpt>
      <trkpt lat="44.407354015856981" lon="2.272177962586284">
        <ele>518.28999999999996</ele>
        <time>2025-04-25T12:39:09Z</time>
      </trkpt>
      <trkpt lat="44.407184030860662" lon="2.272215010598302">
        <ele>518.76999999999998</ele>
        <time>2025-04-25T12:39:10Z</time>
      </trkpt>
      <trkpt lat="44.407011028379202" lon="2.272252980619669">
        <ele>519.73000000000002</ele>
        <time>2025-04-25T12:39:11Z</time>
      </trkpt>
      <trkpt lat="44.405945017933846" lon="2.272322969511151">
        <ele>525.98000000000002</ele>
        <time>2025-04-25T12:39:17Z</time>
      </trkpt>
      <trkpt lat="44.405809985473752" lon="2.272282987833023">
        <ele>526.94000000000005</ele>
        <time>2025-04-25T12:39:18Z</time>
      </trkpt>
      <trkpt lat="44.405699009075761" lon="2.272204030305147">
        <ele>528.38</ele>
        <time>2025-04-25T12:39:19Z</time>
      </trkpt>
      <trkpt lat="44.405600018799305" lon="2.272133035585284">
        <ele>529.34000000000003</ele>
        <time>2025-04-25T12:39:20Z</time>
      </trkpt>
      <trkpt lat="44.405517037957907" lon="2.272074026986957">
        <ele>529.82000000000005</ele>
        <time>2025-04-25T12:39:21Z</time>
      </trkpt>
      <trkpt lat="44.4052479788661" lon="2.271881997585297">
        <ele>533.19000000000005</ele>
        <time>2025-04-25T12:39:25Z</time>
      </trkpt>
      <trkpt lat="44.405175978317857" lon="2.271860036998987">
        <ele>533.66999999999996</ele>
        <time>2025-04-25T12:39:26Z</time>
      </trkpt>
      <trkpt lat="44.405101966112852" lon="2.271842015907168">
        <ele>534.63</ele>
        <time>2025-04-25T12:39:27Z</time>
      </trkpt>
      <trkpt lat="44.405030971392989" lon="2.271826006472111">
        <ele>535.11000000000001</ele>
        <time>2025-04-25T12:39:28Z</time>
      </trkpt>
      <trkpt lat="44.404962994158268" lon="2.271809997037053">
        <ele>536.07000000000005</ele>
        <time>2025-04-25T12:39:29Z</time>
      </trkpt>
      <trkpt lat="44.404900968074799" lon="2.271795999258757">
        <ele>537.02999999999997</ele>
        <time>2025-04-25T12:39:30Z</time>
      </trkpt>
      <trkpt lat="44.404763001948595" lon="2.271763980388641">
        <ele>537.99000000000001</ele>
        <time>2025-04-25T12:39:32Z</time>
      </trkpt>
      <trkpt lat="44.404693013057113" lon="2.271746965125203">
        <ele>538.48000000000002</ele>
        <time>2025-04-25T12:39:33Z</time>
      </trkpt>
      <trkpt lat="44.404626041650772" lon="2.271731039509177">
        <ele>538.96000000000004</ele>
        <time>2025-04-25T12:39:34Z</time>
      </trkpt>
      <trkpt lat="44.404570972546935" lon="2.27169499732554">
        <ele>538.96000000000004</ele>
        <time>2025-04-25T12:39:35Z</time>
      </trkpt>
      <trkpt lat="44.404517998918891" lon="2.271628025919199">
        <ele>539.44000000000005</ele>
        <time>2025-04-25T12:39:36Z</time>
      </trkpt>
      <trkpt lat="44.404465025290847" lon="2.271558959037066">
        <ele>539.91999999999996</ele>
        <time>2025-04-25T12:39:37Z</time>
      </trkpt>
      <trkpt lat="44.404413979500532" lon="2.271489975973964">
        <ele>540.39999999999998</ele>
        <time>2025-04-25T12:39:38Z</time>
      </trkpt>
      <trkpt lat="44.404313983395696" lon="2.27135100401938">
        <ele>541.36000000000001</ele>
        <time>2025-04-25T12:39:40Z</time>
      </trkpt>
      <trkpt lat="44.404266960918903" lon="2.271286966279149">
        <ele>541.84000000000003</ele>
        <time>2025-04-25T12:39:41Z</time>
      </trkpt>
      <trkpt lat="44.404221028089523" lon="2.271224018186331">
        <ele>542.79999999999995</ele>
        <time>2025-04-25T12:39:42Z</time>
      </trkpt>
      <trkpt lat="44.404065040871501" lon="2.271039029583335">
        <ele>544.24000000000001</ele>
        <time>2025-04-25T12:39:45Z</time>
      </trkpt>
      <trkpt lat="44.404007038101554" lon="2.27100701071322">
        <ele>544.24000000000001</ele>
        <time>2025-04-25T12:39:46Z</time>
      </trkpt>
      <trkpt lat="44.403954986482859" lon="2.270978009328246">
        <ele>544.72000000000003</ele>
        <time>2025-04-25T12:39:47Z</time>
      </trkpt>
      <trkpt lat="44.403906036168337" lon="2.270951019600034">
        <ele>545.20000000000005</ele>
        <time>2025-04-25T12:39:48Z</time>
      </trkpt>
      <trkpt lat="44.403873011469841" lon="2.270960994064808">
        <ele>545.20000000000005</ele>
        <time>2025-04-25T12:39:49Z</time>
      </trkpt>
      <trkpt lat="44.403819032013416" lon="2.270975997671485">
        <ele>545.69000000000005</ele>
        <time>2025-04-25T12:39:50Z</time>
      </trkpt>
      <trkpt lat="44.403756000101566" lon="2.270994018763304">
        <ele>545.69000000000005</ele>
        <time>2025-04-25T12:39:51Z</time>
      </trkpt>
      <trkpt lat="44.403730016201735" lon="2.271037017926574">
        <ele>546.16999999999996</ele>
        <time>2025-04-25T12:39:52Z</time>
      </trkpt>
      <trkpt lat="44.403682993724942" lon="2.27111698128283">
        <ele>546.16999999999996</ele>
        <time>2025-04-25T12:39:53Z</time>
      </trkpt>
      <trkpt lat="44.403495993465185" lon="2.271368019282818">
        <ele>545.20000000000005</ele>
        <time>2025-04-25T12:39:56Z</time>
      </trkpt>
      <trkpt lat="44.403422987088561" lon="2.271425016224384">
        <ele>544.72000000000003</ele>
        <time>2025-04-25T12:39:57Z</time>
      </trkpt>
      <trkpt lat="44.403370013460517" lon="2.271466003730893">
        <ele>543.75999999999999</ele>
        <time>2025-04-25T12:39:58Z</time>
      </trkpt>
      <trkpt lat="44.403250990435481" lon="2.271452005952597">
        <ele>543.27999999999997</ele>
        <time>2025-04-25T12:39:59Z</time>
      </trkpt>
      <trkpt lat="44.403154011815786" lon="2.271440019831061">
        <ele>542.79999999999995</ele>
        <time>2025-04-25T12:40:00Z</time>
      </trkpt>
      <trkpt lat="44.403047980740666" lon="2.271427027881146">
        <ele>542.32000000000005</ele>
        <time>2025-04-25T12:40:01Z</time>
      </trkpt>
      <trkpt lat="44.402935998514295" lon="2.27141403593123">
        <ele>541.84000000000003</ele>
        <time>2025-04-25T12:40:02Z</time>
      </trkpt>
      <trkpt lat="44.401880968362093" lon="2.271138019859791">
        <ele>541.84000000000003</ele>
        <time>2025-04-25T12:40:11Z</time>
      </trkpt>
      <trkpt lat="44.401747025549412" lon="2.271096026524901">
        <ele>541.84000000000003</ele>
        <time>2025-04-25T12:40:13Z</time>
      </trkpt>
      <trkpt lat="44.401621967554092" lon="2.271026037633419">
        <ele>541.84000000000003</ele>
        <time>2025-04-25T12:40:15Z</time>
      </trkpt>
      <trkpt lat="44.401545021682978" lon="2.270969040691853">
        <ele>542.32000000000005</ele>
        <time>2025-04-25T12:40:16Z</time>
      </trkpt>
      <trkpt lat="44.401143025606871" lon="2.270676009356976">
        <ele>544.24000000000001</ele>
        <time>2025-04-25T12:40:20Z</time>
      </trkpt>
      <trkpt lat="44.401027020066977" lon="2.27066402323544">
        <ele>545.20000000000005</ele>
        <time>2025-04-25T12:40:21Z</time>
      </trkpt>
      <trkpt lat="44.400907997041941" lon="2.270654970780015">
        <ele>545.69000000000005</ele>
        <time>2025-04-25T12:40:22Z</time>
      </trkpt>
      <trkpt lat="44.400781011208892" lon="2.270644996315241">
        <ele>546.64999999999998</ele>
        <time>2025-04-25T12:40:23Z</time>
      </trkpt>
      <trkpt lat="44.400656959041953" lon="2.270635021850467">
        <ele>547.13</ele>
        <time>2025-04-25T12:40:24Z</time>
      </trkpt>
      <trkpt lat="44.400536008179188" lon="2.270598979666829">
        <ele>548.09000000000003</ele>
        <time>2025-04-25T12:40:25Z</time>
      </trkpt>
      <trkpt lat="44.400414973497391" lon="2.270517004653812">
        <ele>549.04999999999995</ele>
        <time>2025-04-25T12:40:26Z</time>
      </trkpt>
      <trkpt lat="44.400287987664342" lon="2.27042899467051">
        <ele>550.00999999999999</ele>
        <time>2025-04-25T12:40:27Z</time>
      </trkpt>
      <trkpt lat="44.400159996002913" lon="2.270334027707577">
        <ele>550.49000000000001</ele>
        <time>2025-04-25T12:40:28Z</time>
      </trkpt>
      <trkpt lat="44.400055976584554" lon="2.270192038267851">
        <ele>551.45000000000005</ele>
        <time>2025-04-25T12:40:29Z</time>
      </trkpt>
      <trkpt lat="44.399952040985227" lon="2.270048959180713">
        <ele>552.40999999999997</ele>
        <time>2025-04-25T12:40:30Z</time>
      </trkpt>
      <trkpt lat="44.399360027164221" lon="2.268971968442202">
        <ele>558.65999999999997</ele>
        <time>2025-04-25T12:40:36Z</time>
      </trkpt>
      <trkpt lat="44.399258019402623" lon="2.268815981224179">
        <ele>560.11000000000001</ele>
        <time>2025-04-25T12:40:37Z</time>
      </trkpt>
      <trkpt lat="44.399136984720826" lon="2.268703998997808">
        <ele>561.07000000000005</ele>
        <time>2025-04-25T12:40:38Z</time>
      </trkpt>
      <trkpt lat="44.399031959474087" lon="2.268607020378113">
        <ele>562.02999999999997</ele>
        <time>2025-04-25T12:40:39Z</time>
      </trkpt>
      <trkpt lat="44.398927018046379" lon="2.268576007336378">
        <ele>563.47000000000003</ele>
        <time>2025-04-25T12:40:40Z</time>
      </trkpt>
      <trkpt lat="44.398777987807989" lon="2.268591010943055">
        <ele>564.42999999999995</ele>
        <time>2025-04-25T12:40:41Z</time>
      </trkpt>
      <trkpt lat="44.398675980046391" lon="2.268626969307661">
        <ele>565.38999999999999</ele>
        <time>2025-04-25T12:40:42Z</time>
      </trkpt>
      <trkpt lat="44.398370962589979" lon="2.268737023696303">
        <ele>567.79999999999995</ele>
        <time>2025-04-25T12:40:44Z</time>
      </trkpt>
      <trkpt lat="44.398207012563944" lon="2.268788991495967">
        <ele>569.24000000000001</ele>
        <time>2025-04-25T12:40:45Z</time>
      </trkpt>
      <trkpt lat="44.397505028173327" lon="2.268883036449552">
        <ele>576.92999999999995</ele>
        <time>2025-04-25T12:40:50Z</time>
      </trkpt>
      <trkpt lat="44.397387010976672" lon="2.268957970663905">
        <ele>578.37</ele>
        <time>2025-04-25T12:40:51Z</time>
      </trkpt>
      <trkpt lat="44.397283997386694" lon="2.269070958718658">
        <ele>579.80999999999995</ele>
        <time>2025-04-25T12:40:52Z</time>
      </trkpt>
      <trkpt lat="44.397162962704897" lon="2.269176989793778">
        <ele>580.76999999999998</ele>
        <time>2025-04-25T12:40:53Z</time>
      </trkpt>
      <trkpt lat="44.397027008235455" lon="2.269271034747362">
        <ele>582.22000000000003</ele>
        <time>2025-04-25T12:40:54Z</time>
      </trkpt>
      <trkpt lat="44.396488973870873" lon="2.269628020003438">
        <ele>585.10000000000002</ele>
        <time>2025-04-25T12:40:58Z</time>
      </trkpt>
      <trkpt lat="44.396356036886573" lon="2.26965500973165">
        <ele>585.58000000000004</ele>
        <time>2025-04-25T12:40:59Z</time>
      </trkpt>
      <trkpt lat="44.396208012476563" lon="2.269660960882902">
        <ele>586.05999999999995</ele>
        <time>2025-04-25T12:41:00Z</time>
      </trkpt>
      <trkpt lat="44.394875038415194" lon="2.269772021099925">
        <ele>584.13999999999999</ele>
        <time>2025-04-25T12:41:08Z</time>
      </trkpt>
      <trkpt lat="44.394720979034901" lon="2.269856007769704">
        <ele>584.13999999999999</ele>
        <time>2025-04-25T12:41:09Z</time>
      </trkpt>
      <trkpt lat="44.394564991816878" lon="2.269941000267863">
        <ele>584.13999999999999</ele>
        <time>2025-04-25T12:41:10Z</time>
      </trkpt>
      <trkpt lat="44.393863007426262" lon="2.270323969423771">
        <ele>585.10000000000002</ele>
        <time>2025-04-25T12:41:15Z</time>
      </trkpt>
      <trkpt lat="44.392426013946533" lon="2.270848006010056">
        <ele>581.73000000000002</ele>
        <time>2025-04-25T12:41:25Z</time>
      </trkpt>
      <trkpt lat="44.392059976235032" lon="2.270929981023073">
        <ele>580.76999999999998</ele>
        <time>2025-04-25T12:41:28Z</time>
      </trkpt>
      <trkpt lat="44.391951011493802" lon="2.270929981023073">
        <ele>580.28999999999996</ele>
        <time>2025-04-25T12:41:29Z</time>
      </trkpt>
      <trkpt lat="44.391847997903824" lon="2.270894022658467">
        <ele>579.80999999999995</ele>
        <time>2025-04-25T12:41:30Z</time>
      </trkpt>
      <trkpt lat="44.391759987920523" lon="2.270817998796701">
        <ele>578.85000000000002</ele>
        <time>2025-04-25T12:41:31Z</time>
      </trkpt>
      <trkpt lat="44.391665020957589" lon="2.270737029612064">
        <ele>578.37</ele>
        <time>2025-04-25T12:41:32Z</time>
      </trkpt>
      <trkpt lat="44.391565024852753" lon="2.270651031285524">
        <ele>577.40999999999997</ele>
        <time>2025-04-25T12:41:33Z</time>
      </trkpt>
      <trkpt lat="44.391466034576297" lon="2.270566960796714">
        <ele>576.92999999999995</ele>
        <time>2025-04-25T12:41:34Z</time>
      </trkpt>
      <trkpt lat="44.391372995451093" lon="2.270485991612077">
        <ele>576.45000000000005</ele>
        <time>2025-04-25T12:41:35Z</time>
      </trkpt>
      <trkpt lat="44.391290014609694" lon="2.270416002720594">
        <ele>575.97000000000003</ele>
        <time>2025-04-25T12:41:36Z</time>
      </trkpt>
      <trkpt lat="44.391197981312871" lon="2.270394964143634">
        <ele>575.49000000000001</ele>
        <time>2025-04-25T12:41:37Z</time>
      </trkpt>
      <trkpt lat="44.391117012128234" lon="2.270378032699227">
        <ele>575.00999999999999</ele>
        <time>2025-04-25T12:41:38Z</time>
      </trkpt>
      <trkpt lat="44.391049034893513" lon="2.270364034920931">
        <ele>574.52999999999997</ele>
        <time>2025-04-25T12:41:39Z</time>
      </trkpt>
      <trkpt lat="44.390989020466805" lon="2.270350037142634">
        <ele>574.52999999999997</ele>
        <time>2025-04-25T12:41:40Z</time>
      </trkpt>
      <trkpt lat="44.39093504101038" lon="2.270425977185369">
        <ele>574.03999999999996</ele>
        <time>2025-04-25T12:41:41Z</time>
      </trkpt>
      <trkpt lat="44.39089497551322" lon="2.270481968298554">
        <ele>573.55999999999995</ele>
        <time>2025-04-25T12:41:42Z</time>
      </trkpt>
      <trkpt lat="44.390891036018729" lon="2.270562015473843">
        <ele>573.08000000000004</ele>
        <time>2025-04-25T12:41:43Z</time>
      </trkpt>
      <trkpt lat="44.390906961634755" lon="2.270675003528595">
        <ele>572.60000000000002</ele>
        <time>2025-04-25T12:41:44Z</time>
      </trkpt>
      <trkpt lat="44.390926994383335" lon="2.270810035988689">
        <ele>572.12</ele>
        <time>2025-04-25T12:41:45Z</time>
      </trkpt>
      <trkpt lat="44.390950966626406" lon="2.270967029035091">
        <ele>572.60000000000002</ele>
        <time>2025-04-25T12:41:46Z</time>
      </trkpt>
      <trkpt lat="44.390966976061463" lon="2.271142965182662">
        <ele>572.60000000000002</ele>
        <time>2025-04-25T12:41:47Z</time>
      </trkpt>
      <trkpt lat="44.390954989939928" lon="2.271702038124204">
        <ele>573.55999999999995</ele>
        <time>2025-04-25T12:41:50Z</time>
      </trkpt>
      <trkpt lat="44.390721973031759" lon="2.27281004190445">
        <ele>575.00999999999999</ele>
        <time>2025-04-25T12:41:58Z</time>
      </trkpt>
      <trkpt lat="44.390692971646786" lon="2.272923029959202">
        <ele>575.00999999999999</ele>
        <time>2025-04-25T12:41:59Z</time>
      </trkpt>
      <trkpt lat="44.390666987746954" lon="2.27302797138691">
        <ele>575.00999999999999</ele>
        <time>2025-04-25T12:42:00Z</time>
      </trkpt>
      <trkpt lat="44.390639998018742" lon="2.273131990805268">
        <ele>575.49000000000001</ele>
        <time>2025-04-25T12:42:01Z</time>
      </trkpt>
      <trkpt lat="44.390503037720919" lon="2.27367103099823">
        <ele>575.97000000000003</ele>
        <time>2025-04-25T12:42:06Z</time>
      </trkpt>
      <trkpt lat="44.390473030507565" lon="2.273787036538124">
        <ele>575.49000000000001</ele>
        <time>2025-04-25T12:42:07Z</time>
      </trkpt>
      <trkpt lat="44.390432965010405" lon="2.273896001279354">
        <ele>575.49000000000001</ele>
        <time>2025-04-25T12:42:08Z</time>
      </trkpt>
      <trkpt lat="44.390346966683865" lon="2.274133963510394">
        <ele>574.52999999999997</ele>
        <time>2025-04-25T12:42:10Z</time>
      </trkpt>
      <trkpt lat="44.390302039682865" lon="2.274259021505714">
        <ele>574.52999999999997</ele>
        <time>2025-04-25T12:42:11Z</time>
      </trkpt>
      <trkpt lat="44.39018502831459" lon="2.274820022284985">
        <ele>575.49000000000001</ele>
        <time>2025-04-25T12:42:15Z</time>
      </trkpt>
      <trkpt lat="44.390131970867515" lon="2.274952959269285">
        <ele>575.49000000000001</ele>
        <time>2025-04-25T12:42:16Z</time>
      </trkpt>
      <trkpt lat="44.390076985582709" lon="2.275092015042901">
        <ele>576.45000000000005</ele>
        <time>2025-04-25T12:42:17Z</time>
      </trkpt>
      <trkpt lat="44.390020994469523" lon="2.275232998654246">
        <ele>576.92999999999995</ele>
        <time>2025-04-25T12:42:18Z</time>
      </trkpt>
      <trkpt lat="44.389963997527957" lon="2.275375993922353">
        <ele>577.40999999999997</ele>
        <time>2025-04-25T12:42:19Z</time>
      </trkpt>
      <trkpt lat="44.389904988929629" lon="2.275526029989123">
        <ele>577.40999999999997</ele>
        <time>2025-04-25T12:42:20Z</time>
      </trkpt>
      <trkpt lat="44.389838017523289" lon="2.27567195892334">
        <ele>577.40999999999997</ele>
        <time>2025-04-25T12:42:21Z</time>
      </trkpt>
      <trkpt lat="44.389761993661523" lon="2.275814032182097">
        <ele>577.40999999999997</ele>
        <time>2025-04-25T12:42:22Z</time>
      </trkpt>
      <trkpt lat="44.389671972021461" lon="2.275945041328669">
        <ele>576.92999999999995</ele>
        <time>2025-04-25T12:42:23Z</time>
      </trkpt>
      <trkpt lat="44.389568958431482" lon="2.276063980534673">
        <ele>576.92999999999995</ele>
        <time>2025-04-25T12:42:24Z</time>
      </trkpt>
      <trkpt lat="44.389459993690252" lon="2.276188032701612">
        <ele>576.45000000000005</ele>
        <time>2025-04-25T12:42:25Z</time>
      </trkpt>
      <trkpt lat="44.388660024851561" lon="2.277177013456821">
        <ele>572.60000000000002</ele>
        <time>2025-04-25T12:42:33Z</time>
      </trkpt>
      <trkpt lat="44.388551982119679" lon="2.277294024825096">
        <ele>572.12</ele>
        <time>2025-04-25T12:42:34Z</time>
      </trkpt>
      <trkpt lat="44.387699039652944" lon="2.27829298004508">
        <ele>566.83000000000004</ele>
        <time>2025-04-25T12:42:41Z</time>
      </trkpt>
      <trkpt lat="44.387419000267982" lon="2.278680978342891">
        <ele>566.83000000000004</ele>
        <time>2025-04-25T12:42:44Z</time>
      </trkpt>
      <trkpt lat="44.387350017204881" lon="2.278843000531197">
        <ele>567.32000000000005</ele>
        <time>2025-04-25T12:42:45Z</time>
      </trkpt>
      <trkpt lat="44.387062015011907" lon="2.279517995193601">
        <ele>568.75999999999999</ele>
        <time>2025-04-25T12:42:49Z</time>
      </trkpt>
      <trkpt lat="44.386971993371844" lon="2.279686974361539">
        <ele>568.75999999999999</ele>
        <time>2025-04-25T12:42:50Z</time>
      </trkpt>
      <trkpt lat="44.386866968125105" lon="2.279833992943168">
        <ele>568.75999999999999</ele>
        <time>2025-04-25T12:42:51Z</time>
      </trkpt>
      <trkpt lat="44.386763032525778" lon="2.279959972947836">
        <ele>568.75999999999999</ele>
        <time>2025-04-25T12:42:52Z</time>
      </trkpt>
      <trkpt lat="44.386644009500742" lon="2.280074972659349">
        <ele>568.75999999999999</ele>
        <time>2025-04-25T12:42:53Z</time>
      </trkpt>
      <trkpt lat="44.386524986475706" lon="2.280187960714102">
        <ele>568.27999999999997</ele>
        <time>2025-04-25T12:42:54Z</time>
      </trkpt>
      <trkpt lat="44.386416021734476" lon="2.280291980132461">
        <ele>567.79999999999995</ele>
        <time>2025-04-25T12:42:55Z</time>
      </trkpt>
      <trkpt lat="44.386312002316117" lon="2.280391976237297">
        <ele>567.79999999999995</ele>
        <time>2025-04-25T12:42:56Z</time>
      </trkpt>
      <trkpt lat="44.386251987889409" lon="2.280522985383868">
        <ele>567.32000000000005</ele>
        <time>2025-04-25T12:42:57Z</time>
      </trkpt>
      <trkpt lat="44.386205971240997" lon="2.280622981488705">
        <ele>566.83000000000004</ele>
        <time>2025-04-25T12:42:58Z</time>
      </trkpt>
      <trkpt lat="44.38619096763432" lon="2.280706968158484">
        <ele>566.83000000000004</ele>
        <time>2025-04-25T12:42:59Z</time>
      </trkpt>
      <trkpt lat="44.386180993169546" lon="2.28076396510005">
        <ele>566.35000000000002</ele>
        <time>2025-04-25T12:43:00Z</time>
      </trkpt>
      <trkpt lat="44.386141011491418" lon="2.280889023095369">
        <ele>565.38999999999999</ele>
        <time>2025-04-25T12:43:03Z</time>
      </trkpt>
      <trkpt lat="44.386108992621303" lon="2.28089296258986">
        <ele>565.38999999999999</ele>
        <time>2025-04-25T12:43:04Z</time>
      </trkpt>
      <trkpt lat="44.386050989851356" lon="2.280900003388524">
        <ele>564.90999999999997</ele>
        <time>2025-04-25T12:43:05Z</time>
      </trkpt>
      <trkpt lat="44.385352022945881" lon="2.280989019200206">
        <ele>565.87</ele>
        <time>2025-04-25T12:43:11Z</time>
      </trkpt>
      <trkpt lat="44.384396988898516" lon="2.280972003936768">
        <ele>565.87</ele>
        <time>2025-04-25T12:43:17Z</time>
      </trkpt>
      <trkpt lat="44.384265979751945" lon="2.280904026702046">
        <ele>565.38999999999999</ele>
        <time>2025-04-25T12:43:18Z</time>
      </trkpt>
      <trkpt lat="44.384162966161966" lon="2.280805958434939">
        <ele>564.90999999999997</ele>
        <time>2025-04-25T12:43:19Z</time>
      </trkpt>
      <trkpt lat="44.383978983387351" lon="2.28063203394413">
        <ele>563.47000000000003</ele>
        <time>2025-04-25T12:43:21Z</time>
      </trkpt>
      <trkpt lat="44.383885022252798" lon="2.280574031174183">
        <ele>562.50999999999999</ele>
        <time>2025-04-25T12:43:22Z</time>
      </trkpt>
      <trkpt lat="44.383773962035775" lon="2.280624993145466">
        <ele>562.02999999999997</ele>
        <time>2025-04-25T12:43:23Z</time>
      </trkpt>
      <trkpt lat="44.383646976202726" lon="2.280689030885696">
        <ele>561.07000000000005</ele>
        <time>2025-04-25T12:43:24Z</time>
      </trkpt>
      <trkpt lat="44.383511021733284" lon="2.28078399784863">
        <ele>560.59000000000003</ele>
        <time>2025-04-25T12:43:25Z</time>
      </trkpt>
      <trkpt lat="44.383082035928965" lon="2.281083986163139">
        <ele>558.17999999999995</ele>
        <time>2025-04-25T12:43:28Z</time>
      </trkpt>
      <trkpt lat="44.382774000987411" lon="2.281175013631582">
        <ele>556.25999999999999</ele>
        <time>2025-04-25T12:43:30Z</time>
      </trkpt>
      <trkpt lat="44.382617007941008" lon="2.281208038330078">
        <ele>554.82000000000005</ele>
        <time>2025-04-25T12:43:31Z</time>
      </trkpt>
      <trkpt lat="44.382458003237844" lon="2.281218012794852">
        <ele>553.38</ele>
        <time>2025-04-25T12:43:32Z</time>
      </trkpt>
      <trkpt lat="44.382295981049538" lon="2.281184988096356">
        <ele>551.92999999999995</ele>
        <time>2025-04-25T12:43:33Z</time>
      </trkpt>
      <trkpt lat="44.382127001881599" lon="2.281150035560131">
        <ele>550.49000000000001</ele>
        <time>2025-04-25T12:43:34Z</time>
      </trkpt>
      <trkpt lat="44.38178401440382" lon="2.281079040840268">
        <ele>547.13</ele>
        <time>2025-04-25T12:43:36Z</time>
      </trkpt>
      <trkpt lat="44.381615035235882" lon="2.281079040840268">
        <ele>545.20000000000005</ele>
        <time>2025-04-25T12:43:37Z</time>
      </trkpt>
      <trkpt lat="44.381284033879638" lon="2.281079040840268">
        <ele>541.36000000000001</ele>
        <time>2025-04-25T12:43:39Z</time>
      </trkpt>
      <trkpt lat="44.381109019741416" lon="2.281050039455295">
        <ele>539.44000000000005</ele>
        <time>2025-04-25T12:43:40Z</time>
      </trkpt>
      <trkpt lat="44.379913005977869" lon="2.280681990087032">
        <ele>525.98000000000002</ele>
        <time>2025-04-25T12:43:47Z</time>
      </trkpt>
      <trkpt lat="44.379799012094736" lon="2.280652988702059">
        <ele>524.53999999999996</ele>
        <time>2025-04-25T12:43:48Z</time>
      </trkpt>
      <trkpt lat="44.379665991291404" lon="2.28069799952209">
        <ele>522.61000000000001</ele>
        <time>2025-04-25T12:43:49Z</time>
      </trkpt>
      <trkpt lat="44.379520984366536" lon="2.280746027827263">
        <ele>521.16999999999996</ele>
        <time>2025-04-25T12:43:50Z</time>
      </trkpt>
      <trkpt lat="44.379360973834991" lon="2.280799001455307">
        <ele>519.25</ele>
        <time>2025-04-25T12:43:51Z</time>
      </trkpt>
      <trkpt lat="44.379197023808956" lon="2.280853986740112">
        <ele>517.33000000000004</ele>
        <time>2025-04-25T12:43:52Z</time>
      </trkpt>
      <trkpt lat="44.379022009670734" lon="2.280894974246621">
        <ele>515.39999999999998</ele>
        <time>2025-04-25T12:43:53Z</time>
      </trkpt>
      <trkpt lat="44.37884297221899" lon="2.280914001166821">
        <ele>513</ele>
        <time>2025-04-25T12:43:54Z</time>
      </trkpt>
      <trkpt lat="44.378663012757897" lon="2.28093302808702">
        <ele>511.56</ele>
        <time>2025-04-25T12:43:55Z</time>
      </trkpt>
      <trkpt lat="44.378481041640043" lon="2.280958006158471">
        <ele>509.63999999999999</ele>
        <time>2025-04-25T12:43:56Z</time>
      </trkpt>
      <trkpt lat="44.378300998359919" lon="2.281025983393192">
        <ele>508.19</ele>
        <time>2025-04-25T12:43:57Z</time>
      </trkpt>
      <trkpt lat="44.377129040658474" lon="2.281481958925724">
        <ele>499.06</ele>
        <time>2025-04-25T12:44:04Z</time>
      </trkpt>
      <trkpt lat="44.376985961571336" lon="2.281549014151096">
        <ele>498.10000000000002</ele>
        <time>2025-04-25T12:44:05Z</time>
      </trkpt>
      <trkpt lat="44.376583965495229" lon="2.281739031895995">
        <ele>494.74000000000001</ele>
        <time>2025-04-25T12:44:08Z</time>
      </trkpt>
      <trkpt lat="44.376437030732632" lon="2.281773984432221">
        <ele>493.29000000000002</ele>
        <time>2025-04-25T12:44:09Z</time>
      </trkpt>
      <trkpt lat="44.376282971352339" lon="2.281786976382136">
        <ele>492.32999999999998</ele>
        <time>2025-04-25T12:44:10Z</time>
      </trkpt>
      <trkpt lat="44.376132013276219" lon="2.281799968332052">
        <ele>491.37</ele>
        <time>2025-04-25T12:44:11Z</time>
      </trkpt>
      <trkpt lat="44.37598398886621" lon="2.281817989423871">
        <ele>490.41000000000003</ele>
        <time>2025-04-25T12:44:12Z</time>
      </trkpt>
      <trkpt lat="44.375838981941342" lon="2.281844979152083">
        <ele>489.44999999999999</ele>
        <time>2025-04-25T12:44:13Z</time>
      </trkpt>
      <trkpt lat="44.375700009986758" lon="2.281870041042566">
        <ele>488.49000000000001</ele>
        <time>2025-04-25T12:44:14Z</time>
      </trkpt>
      <trkpt lat="44.375567995011806" lon="2.281895019114018">
        <ele>487.52999999999997</ele>
        <time>2025-04-25T12:44:15Z</time>
      </trkpt>
      <trkpt lat="44.37544503249228" lon="2.281913040205836">
        <ele>486.56</ele>
        <time>2025-04-25T12:44:16Z</time>
      </trkpt>
      <trkpt lat="44.375323997810483" lon="2.281859982758761">
        <ele>485.12</ele>
        <time>2025-04-25T12:44:17Z</time>
      </trkpt>
      <trkpt lat="44.375211009755731" lon="2.281810026615858">
        <ele>484.16000000000003</ele>
        <time>2025-04-25T12:44:18Z</time>
      </trkpt>
      <trkpt lat="44.37510397285223" lon="2.281752023845911">
        <ele>483.19999999999999</ele>
        <time>2025-04-25T12:44:19Z</time>
      </trkpt>
      <trkpt lat="44.375043958425522" lon="2.281623026356101">
        <ele>481.75999999999999</ele>
        <time>2025-04-25T12:44:20Z</time>
      </trkpt>
      <trkpt lat="44.374981010332704" lon="2.281479025259614">
        <ele>480.80000000000001</ele>
        <time>2025-04-25T12:44:21Z</time>
      </trkpt>
      <trkpt lat="44.374981010332704" lon="2.281317003071308">
        <ele>479.35000000000002</ele>
        <time>2025-04-25T12:44:22Z</time>
      </trkpt>
      <trkpt lat="44.374997019767761" lon="2.281126985326409">
        <ele>478.38999999999999</ele>
        <time>2025-04-25T12:44:23Z</time>
      </trkpt>
      <trkpt lat="44.375032978132367" lon="2.28093596175313">
        <ele>477.43000000000001</ele>
        <time>2025-04-25T12:44:24Z</time>
      </trkpt>
      <trkpt lat="44.375071031972766" lon="2.280738987028599">
        <ele>475.99000000000001</ele>
        <time>2025-04-25T12:44:25Z</time>
      </trkpt>
      <trkpt lat="44.375109001994133" lon="2.280537988990545">
        <ele>474.55000000000001</ele>
        <time>2025-04-25T12:44:26Z</time>
      </trkpt>
      <trkpt lat="44.375148983672261" lon="2.28033103980124">
        <ele>473.58999999999997</ele>
        <time>2025-04-25T12:44:27Z</time>
      </trkpt>
      <trkpt lat="44.375188965350389" lon="2.280123000964522">
        <ele>472.13999999999999</ele>
        <time>2025-04-25T12:44:28Z</time>
      </trkpt>
      <trkpt lat="44.375371020287275" lon="2.27919596247375">
        <ele>467.81999999999999</ele>
        <time>2025-04-25T12:44:33Z</time>
      </trkpt>
      <trkpt lat="44.37540496699512" lon="2.279027989134193">
        <ele>466.86000000000001</ele>
        <time>2025-04-25T12:44:34Z</time>
      </trkpt>
      <trkpt lat="44.375457018613815" lon="2.278864039108157">
        <ele>465.89999999999998</ele>
        <time>2025-04-25T12:44:35Z</time>
      </trkpt>
      <trkpt lat="44.375573024153709" lon="2.278529014438391">
        <ele>463.97000000000003</ele>
        <time>2025-04-25T12:44:37Z</time>
      </trkpt>
      <trkpt lat="44.375643013045192" lon="2.278245035558939">
        <ele>463.00999999999999</ele>
        <time>2025-04-25T12:44:39Z</time>
      </trkpt>
      <trkpt lat="44.375631026923656" lon="2.278103968128562">
        <ele>462.52999999999997</ele>
        <time>2025-04-25T12:44:40Z</time>
      </trkpt>
      <trkpt lat="44.375613005831838" lon="2.2779690194875">
        <ele>462.05000000000001</ele>
        <time>2025-04-25T12:44:41Z</time>
      </trkpt>
      <trkpt lat="44.375576041638851" lon="2.277694009244442">
        <ele>461.08999999999997</ele>
        <time>2025-04-25T12:44:43Z</time>
      </trkpt>
      <trkpt lat="44.375561038032174" lon="2.27758202701807">
        <ele>460.13</ele>
        <time>2025-04-25T12:44:44Z</time>
      </trkpt>
      <trkpt lat="44.375593978911638" lon="2.277415981516242">
        <ele>459.64999999999998</ele>
        <time>2025-04-25T12:44:45Z</time>
      </trkpt>
      <trkpt lat="44.375625997781754" lon="2.277254965156317">
        <ele>458.69</ele>
        <time>2025-04-25T12:44:46Z</time>
      </trkpt>
      <trkpt lat="44.37566002830863" lon="2.277083974331617">
        <ele>457.72000000000003</ele>
        <time>2025-04-25T12:44:47Z</time>
      </trkpt>
      <trkpt lat="44.37576899304986" lon="2.276543006300926">
        <ele>455.31999999999999</ele>
        <time>2025-04-25T12:44:50Z</time>
      </trkpt>
      <trkpt lat="44.375805035233498" lon="2.276370003819466">
        <ele>454.36000000000001</ele>
        <time>2025-04-25T12:44:51Z</time>
      </trkpt>
      <trkpt lat="44.375841999426484" lon="2.276194989681244">
        <ele>453.39999999999998</ele>
        <time>2025-04-25T12:44:52Z</time>
      </trkpt>
      <trkpt lat="44.375917017459869" lon="2.27584202773869">
        <ele>451.48000000000002</ele>
        <time>2025-04-25T12:44:54Z</time>
      </trkpt>
      <trkpt lat="44.375952975824475" lon="2.275674976408482">
        <ele>450.02999999999997</ele>
        <time>2025-04-25T12:44:55Z</time>
      </trkpt>
      <trkpt lat="44.375987006351352" lon="2.275513960048556">
        <ele>448.58999999999997</ele>
        <time>2025-04-25T12:44:56Z</time>
      </trkpt>
      <trkpt lat="44.375984994694591" lon="2.275353027507663">
        <ele>447.14999999999998</ele>
        <time>2025-04-25T12:44:57Z</time>
      </trkpt>
      <trkpt lat="44.375978959724307" lon="2.275172984227538">
        <ele>445.70999999999998</ele>
        <time>2025-04-25T12:44:58Z</time>
      </trkpt>
      <trkpt lat="44.375972002744675" lon="2.274991013109684">
        <ele>444.26999999999998</ele>
        <time>2025-04-25T12:44:59Z</time>
      </trkpt>
      <trkpt lat="44.376042997464538" lon="2.274127006530762">
        <ele>437.54000000000002</ele>
        <time>2025-04-25T12:45:04Z</time>
      </trkpt>
      <trkpt lat="44.376078033819795" lon="2.274026004597545">
        <ele>436.57999999999998</ele>
        <time>2025-04-25T12:45:05Z</time>
      </trkpt>
      <trkpt lat="44.376108041033149" lon="2.273942017927766">
        <ele>435.61000000000001</ele>
        <time>2025-04-25T12:45:06Z</time>
      </trkpt>
      <trkpt lat="44.376119021326303" lon="2.273912010714412">
        <ele>435.13</ele>
        <time>2025-04-25T12:45:07Z</time>
      </trkpt>
      <trkpt lat="44.376093037426472" lon="2.273851996287704">
        <ele>434.17000000000002</ele>
        <time>2025-04-25T12:45:08Z</time>
      </trkpt>
      <trkpt lat="44.376067975535989" lon="2.273792987689376">
        <ele>433.20999999999998</ele>
        <time>2025-04-25T12:45:09Z</time>
      </trkpt>
      <trkpt lat="44.376039979979396" lon="2.273765997961164">
        <ele>432.73000000000002</ele>
        <time>2025-04-25T12:45:10Z</time>
      </trkpt>
      <trkpt lat="44.375964961946011" lon="2.273788964375854">
        <ele>431.76999999999998</ele>
        <time>2025-04-25T12:45:11Z</time>
      </trkpt>
      <trkpt lat="44.375906959176064" lon="2.273885020986199">
        <ele>431.29000000000002</ele>
        <time>2025-04-25T12:45:12Z</time>
      </trkpt>
      <trkpt lat="44.375843005254865" lon="2.273993985727429">
        <ele>430.32999999999998</ele>
        <time>2025-04-25T12:45:13Z</time>
      </trkpt>
      <trkpt lat="44.375767987221479" lon="2.27412398904562">
        <ele>429.85000000000002</ele>
        <time>2025-04-25T12:45:14Z</time>
      </trkpt>
      <trkpt lat="44.375706966966391" lon="2.274280982092023">
        <ele>428.88999999999999</ele>
        <time>2025-04-25T12:45:15Z</time>
      </trkpt>
      <trkpt lat="44.37563999556005" lon="2.274451972916722">
        <ele>428.39999999999998</ele>
        <time>2025-04-25T12:45:16Z</time>
      </trkpt>
      <trkpt lat="44.375494988635182" lon="2.274824967607856">
        <ele>426.95999999999998</ele>
        <time>2025-04-25T12:45:18Z</time>
      </trkpt>
      <trkpt lat="44.375412007793784" lon="2.275013979524374">
        <ele>426</ele>
        <time>2025-04-25T12:45:19Z</time>
      </trkpt>
      <trkpt lat="44.375294996425509" lon="2.275182958692312">
        <ele>425.04000000000002</ele>
        <time>2025-04-25T12:45:20Z</time>
      </trkpt>
      <trkpt lat="44.374832985922694" lon="2.275786958634853">
        <ele>421.68000000000001</ele>
        <time>2025-04-25T12:45:24Z</time>
      </trkpt>
      <trkpt lat="44.374744975939393" lon="2.27586499415338">
        <ele>421.19</ele>
        <time>2025-04-25T12:45:25Z</time>
      </trkpt>
      <trkpt lat="44.374637017026544" lon="2.275832975283265">
        <ele>420.23000000000002</ele>
        <time>2025-04-25T12:45:26Z</time>
      </trkpt>
      <trkpt lat="44.374530985951424" lon="2.275801040232182">
        <ele>419.26999999999998</ele>
        <time>2025-04-25T12:45:27Z</time>
      </trkpt>
      <trkpt lat="44.374441970139742" lon="2.275708001106978">
        <ele>418.31</ele>
        <time>2025-04-25T12:45:28Z</time>
      </trkpt>
      <trkpt lat="44.374343985691667" lon="2.27560599334538">
        <ele>417.35000000000002</ele>
        <time>2025-04-25T12:45:29Z</time>
      </trkpt>
      <trkpt lat="44.374246001243591" lon="2.275503985583782">
        <ele>416.38999999999999</ele>
        <time>2025-04-25T12:45:30Z</time>
      </trkpt>
      <trkpt lat="44.37404902651906" lon="2.275298964232206">
        <ele>414.47000000000003</ele>
        <time>2025-04-25T12:45:32Z</time>
      </trkpt>
      <trkpt lat="44.37391902320087" lon="2.275230986997485">
        <ele>413.5</ele>
        <time>2025-04-25T12:45:33Z</time>
      </trkpt>
      <trkpt lat="44.372759973630309" lon="2.274826979264617">
        <ele>408.22000000000003</ele>
        <time>2025-04-25T12:45:41Z</time>
      </trkpt>
      <trkpt lat="44.372425032779574" lon="2.274795966222882">
        <ele>406.29000000000002</ele>
        <time>2025-04-25T12:45:44Z</time>
      </trkpt>
      <trkpt lat="44.372329981997609" lon="2.274808958172798">
        <ele>405.32999999999998</ele>
        <time>2025-04-25T12:45:45Z</time>
      </trkpt>
      <trkpt lat="44.372264016419649" lon="2.274839971214533">
        <ele>404.37</ele>
        <time>2025-04-25T12:45:46Z</time>
      </trkpt>
      <trkpt lat="44.372192015871406" lon="2.274894034489989">
        <ele>403.41000000000003</ele>
        <time>2025-04-25T12:45:47Z</time>
      </trkpt>
      <trkpt lat="44.372114986181259" lon="2.274951031431556">
        <ele>402.44999999999999</ele>
        <time>2025-04-25T12:45:48Z</time>
      </trkpt>
      <trkpt lat="44.37203099951148" lon="2.275014985352755">
        <ele>401.49000000000001</ele>
        <time>2025-04-25T12:45:49Z</time>
      </trkpt>
      <trkpt lat="44.371862020343542" lon="2.275151023641229">
        <ele>399.07999999999998</ele>
        <time>2025-04-25T12:45:51Z</time>
      </trkpt>
      <trkpt lat="44.371777027845383" lon="2.275217995047569">
        <ele>398.60000000000002</ele>
        <time>2025-04-25T12:45:52Z</time>
      </trkpt>
      <trkpt lat="44.371604025363922" lon="2.275360990315676">
        <ele>398.12</ele>
        <time>2025-04-25T12:45:54Z</time>
      </trkpt>
      <trkpt lat="44.371360028162599" lon="2.275683023035526">
        <ele>397.63999999999999</ele>
        <time>2025-04-25T12:45:57Z</time>
      </trkpt>
      <trkpt lat="44.37127897515893" lon="2.275840016081929">
        <ele>397.63999999999999</ele>
        <time>2025-04-25T12:45:58Z</time>
      </trkpt>
      <trkpt lat="44.371190965175629" lon="2.27601301856339">
        <ele>397.63999999999999</ele>
        <time>2025-04-25T12:45:59Z</time>
      </trkpt>
      <trkpt lat="44.370767008513212" lon="2.276995964348316">
        <ele>401.49000000000001</ele>
        <time>2025-04-25T12:46:04Z</time>
      </trkpt>
      <trkpt lat="44.370723003521562" lon="2.277227975428104">
        <ele>402.44999999999999</ele>
        <time>2025-04-25T12:46:05Z</time>
      </trkpt>
      <trkpt lat="44.370702970772982" lon="2.277478007599711">
        <ele>403.41000000000003</ele>
        <time>2025-04-25T12:46:06Z</time>
      </trkpt>
      <trkpt lat="44.370686961337924" lon="2.279664007946849">
        <ele>410.62</ele>
        <time>2025-04-25T12:46:14Z</time>
      </trkpt>
      <trkpt lat="44.370652008801699" lon="2.280897991731763">
        <ele>415.91000000000003</ele>
        <time>2025-04-25T12:46:19Z</time>
      </trkpt>
      <trkpt lat="44.370589982718229" lon="2.281104018911719">
        <ele>416.87</ele>
        <time>2025-04-25T12:46:20Z</time>
      </trkpt>
      <trkpt lat="44.370381021872163" lon="2.282053017988801">
        <ele>421.68000000000001</ele>
        <time>2025-04-25T12:46:24Z</time>
      </trkpt>
      <trkpt lat="44.370356965810061" lon="2.282325010746718">
        <ele>423.12</ele>
        <time>2025-04-25T12:46:25Z</time>
      </trkpt>
      <trkpt lat="44.370365012437105" lon="2.282591974362731">
        <ele>424.56</ele>
        <time>2025-04-25T12:46:26Z</time>
      </trkpt>
      <trkpt lat="44.370401976630092" lon="2.282871007919312">
        <ele>426</ele>
        <time>2025-04-25T12:46:27Z</time>
      </trkpt>
      <trkpt lat="44.37043902464211" lon="2.283153980970383">
        <ele>427.44</ele>
        <time>2025-04-25T12:46:28Z</time>
      </trkpt>
      <trkpt lat="44.370476994663477" lon="2.283442988991737">
        <ele>428.88999999999999</ele>
        <time>2025-04-25T12:46:29Z</time>
      </trkpt>
      <trkpt lat="44.371011005714536" lon="2.285756981000304">
        <ele>442.81999999999999</ele>
        <time>2025-04-25T12:46:38Z</time>
      </trkpt>
      <trkpt lat="44.371002959087491" lon="2.285985974594951">
        <ele>444.26999999999998</ele>
        <time>2025-04-25T12:46:39Z</time>
      </trkpt>
      <trkpt lat="44.370996002107859" lon="2.28619895875454">
        <ele>445.70999999999998</ele>
        <time>2025-04-25T12:46:40Z</time>
      </trkpt>
      <trkpt lat="44.370979992672801" lon="2.286392999812961">
        <ele>446.67000000000002</ele>
        <time>2025-04-25T12:46:41Z</time>
      </trkpt>
      <trkpt lat="44.370924001559615" lon="2.286575976759195">
        <ele>448.11000000000001</ele>
        <time>2025-04-25T12:46:42Z</time>
      </trkpt>
      <trkpt lat="44.37086901627481" lon="2.286757025867701">
        <ele>449.55000000000001</ele>
        <time>2025-04-25T12:46:43Z</time>
      </trkpt>
      <trkpt lat="44.370803972706199" lon="2.286904966458678">
        <ele>451</ele>
        <time>2025-04-25T12:46:44Z</time>
      </trkpt>
      <trkpt lat="44.37071998603642" lon="2.287032036110759">
        <ele>451.95999999999998</ele>
        <time>2025-04-25T12:46:45Z</time>
      </trkpt>
      <trkpt lat="44.370626024901867" lon="2.287173019722104">
        <ele>453.39999999999998</ele>
        <time>2025-04-25T12:46:46Z</time>
      </trkpt>
      <trkpt lat="44.370541032403708" lon="2.28722901083529">
        <ele>454.36000000000001</ele>
        <time>2025-04-25T12:46:47Z</time>
      </trkpt>
      <trkpt lat="44.370453022420406" lon="2.287245020270348">
        <ele>455.80000000000001</ele>
        <time>2025-04-25T12:46:48Z</time>
      </trkpt>
      <trkpt lat="44.370368029922247" lon="2.287216018885374">
        <ele>456.75999999999999</ele>
        <time>2025-04-25T12:46:49Z</time>
      </trkpt>
      <trkpt lat="44.370282031595707" lon="2.287108981981874">
        <ele>457.72000000000003</ele>
        <time>2025-04-25T12:46:50Z</time>
      </trkpt>
      <trkpt lat="44.370234003290534" lon="2.286984007805586">
        <ele>459.17000000000002</ele>
        <time>2025-04-25T12:46:51Z</time>
      </trkpt>
      <trkpt lat="44.370171977207065" lon="2.286822991445661">
        <ele>460.13</ele>
        <time>2025-04-25T12:46:52Z</time>
      </trkpt>
      <trkpt lat="44.370106011629105" lon="2.286653006449342">
        <ele>461.56999999999999</ele>
        <time>2025-04-25T12:46:53Z</time>
      </trkpt>
      <trkpt lat="44.369789008051157" lon="2.285924032330513">
        <ele>466.86000000000001</ele>
        <time>2025-04-25T12:46:57Z</time>
      </trkpt>
      <trkpt lat="44.369673002511263" lon="2.285781037062407">
        <ele>467.81999999999999</ele>
        <time>2025-04-25T12:46:58Z</time>
      </trkpt>
      <trkpt lat="44.369535958394408" lon="2.285663019865751">
        <ele>469.25999999999999</ele>
        <time>2025-04-25T12:46:59Z</time>
      </trkpt>
      <trkpt lat="44.368238020688295" lon="2.284486033022404">
        <ele>485.12</ele>
        <time>2025-04-25T12:47:08Z</time>
      </trkpt>
      <trkpt lat="44.368140958249569" lon="2.284341026097536">
        <ele>487.05000000000001</ele>
        <time>2025-04-25T12:47:09Z</time>
      </trkpt>
      <trkpt lat="44.368074992671609" lon="2.284182021394372">
        <ele>488.00999999999999</ele>
        <time>2025-04-25T12:47:10Z</time>
      </trkpt>
      <trkpt lat="44.368011960759759" lon="2.28402704000473">
        <ele>488.97000000000003</ele>
        <time>2025-04-25T12:47:11Z</time>
      </trkpt>
      <trkpt lat="44.367955969646573" lon="2.283860994502902">
        <ele>489.93000000000001</ele>
        <time>2025-04-25T12:47:12Z</time>
      </trkpt>
      <trkpt lat="44.367923028767109" lon="2.28366200812161">
        <ele>490.88999999999999</ele>
        <time>2025-04-25T12:47:13Z</time>
      </trkpt>
      <trkpt lat="44.367886986583471" lon="2.283442988991737">
        <ele>491.85000000000002</ele>
        <time>2025-04-25T12:47:14Z</time>
      </trkpt>
      <trkpt lat="44.367848010733724" lon="2.283210977911949">
        <ele>492.32999999999998</ele>
        <time>2025-04-25T12:47:15Z</time>
      </trkpt>
      <trkpt lat="44.367809034883976" lon="2.282978966832161">
        <ele>493.29000000000002</ele>
        <time>2025-04-25T12:47:16Z</time>
      </trkpt>
      <trkpt lat="44.36766603961587" lon="2.282258961349726">
        <ele>494.74000000000001</ele>
        <time>2025-04-25T12:47:19Z</time>
      </trkpt>
      <trkpt lat="44.367613987997174" lon="2.282017981633544">
        <ele>494.74000000000001</ele>
        <time>2025-04-25T12:47:20Z</time>
      </trkpt>
      <trkpt lat="44.367563026025891" lon="2.281779013574123">
        <ele>495.22000000000003</ele>
        <time>2025-04-25T12:47:21Z</time>
      </trkpt>
      <trkpt lat="44.367512986063957" lon="2.281519006937742">
        <ele>495.69999999999999</ele>
        <time>2025-04-25T12:47:22Z</time>
      </trkpt>
      <trkpt lat="44.367506029084325" lon="2.281259000301361">
        <ele>496.18000000000001</ele>
        <time>2025-04-25T12:47:23Z</time>
      </trkpt>
      <trkpt lat="44.36749798245728" lon="2.281013997271657">
        <ele>497.13999999999999</ele>
        <time>2025-04-25T12:47:24Z</time>
      </trkpt>
      <trkpt lat="44.367493037134409" lon="2.280821967869997">
        <ele>497.62</ele>
        <time>2025-04-25T12:47:25Z</time>
      </trkpt>
      <trkpt lat="44.367461018264294" lon="2.280613007023931">
        <ele>497.62</ele>
        <time>2025-04-25T12:47:26Z</time>
      </trkpt>
      <trkpt lat="44.367413995787501" lon="2.28046003729105">
        <ele>498.10000000000002</ele>
        <time>2025-04-25T12:47:27Z</time>
      </trkpt>
      <trkpt lat="44.367351969704032" lon="2.280314024537802">
        <ele>498.10000000000002</ele>
        <time>2025-04-25T12:47:28Z</time>
      </trkpt>
      <trkpt lat="44.367253985255957" lon="2.280187960714102">
        <ele>498.10000000000002</ele>
        <time>2025-04-25T12:47:29Z</time>
      </trkpt>
      <trkpt lat="44.367146026343107" lon="2.280100034549832">
        <ele>498.10000000000002</ele>
        <time>2025-04-25T12:47:30Z</time>
      </trkpt>
      <trkpt lat="44.367052987217903" lon="2.280025016516447">
        <ele>498.57999999999998</ele>
        <time>2025-04-25T12:47:31Z</time>
      </trkpt>
      <trkpt lat="44.366965983062983" lon="2.279966007918119">
        <ele>499.06</ele>
        <time>2025-04-25T12:47:32Z</time>
      </trkpt>
      <trkpt lat="44.366885013878345" lon="2.279982017353177">
        <ele>499.06</ele>
        <time>2025-04-25T12:47:33Z</time>
      </trkpt>
      <trkpt lat="44.366840003058314" lon="2.280105985701084">
        <ele>499.54000000000002</ele>
        <time>2025-04-25T12:47:34Z</time>
      </trkpt>
      <trkpt lat="44.366828016936779" lon="2.280157031491399">
        <ele>500.5</ele>
        <time>2025-04-25T12:47:35Z</time>
      </trkpt>
      <trkpt lat="44.366885013878345" lon="2.280249986797571">
        <ele>501.45999999999998</ele>
        <time>2025-04-25T12:47:36Z</time>
      </trkpt>
      <trkpt lat="44.366945028305054" lon="2.280347971245647">
        <ele>502.43000000000001</ele>
        <time>2025-04-25T12:47:37Z</time>
      </trkpt>
      <trkpt lat="44.367007976397872" lon="2.280451990664005">
        <ele>503.38999999999999</ele>
        <time>2025-04-25T12:47:38Z</time>
      </trkpt>
      <trkpt lat="44.367068996652961" lon="2.280609989538789">
        <ele>504.82999999999998</ele>
        <time>2025-04-25T12:47:39Z</time>
      </trkpt>
      <trkpt lat="44.367080982774496" lon="2.280756002292037">
        <ele>506.26999999999998</ele>
        <time>2025-04-25T12:47:40Z</time>
      </trkpt>
      <trkpt lat="44.367050975561142" lon="2.280925987288356">
        <ele>507.70999999999998</ele>
        <time>2025-04-25T12:47:41Z</time>
      </trkpt>
      <trkpt lat="44.367000013589859" lon="2.281093960627914">
        <ele>509.63999999999999</ele>
        <time>2025-04-25T12:47:42Z</time>
      </trkpt>
      <trkpt lat="44.36693899333477" lon="2.281266963109374">
        <ele>511.07999999999998</ele>
        <time>2025-04-25T12:47:43Z</time>
      </trkpt>
      <trkpt lat="44.366874033585191" lon="2.281451029703021">
        <ele>513</ele>
        <time>2025-04-25T12:47:44Z</time>
      </trkpt>
      <trkpt lat="44.366461979225278" lon="2.28233196772635">
        <ele>522.61000000000001</ele>
        <time>2025-04-25T12:47:49Z</time>
      </trkpt>
      <trkpt lat="44.36610097065568" lon="2.282807976007462">
        <ele>528.38</ele>
        <time>2025-04-25T12:47:52Z</time>
      </trkpt>
      <trkpt lat="44.365805005654693" lon="2.28306001983583">
        <ele>531.75</ele>
        <time>2025-04-25T12:47:54Z</time>
      </trkpt>
      <trkpt lat="44.365503005683422" lon="2.28323201648891">
        <ele>535.11000000000001</ele>
        <time>2025-04-25T12:47:56Z</time>
      </trkpt>
      <trkpt lat="44.365332014858723" lon="2.283308040350676">
        <ele>537.02999999999997</ele>
        <time>2025-04-25T12:47:57Z</time>
      </trkpt>
      <trkpt lat="44.364196015521884" lon="2.283622026443481">
        <ele>550.97000000000003</ele>
        <time>2025-04-25T12:48:04Z</time>
      </trkpt>
      <trkpt lat="44.36408101581037" lon="2.283653961494565">
        <ele>553.38</ele>
        <time>2025-04-25T12:48:05Z</time>
      </trkpt>
      <trkpt lat="44.363976996392012" lon="2.283653961494565">
        <ele>555.29999999999995</ele>
        <time>2025-04-25T12:48:06Z</time>
      </trkpt>
      <trkpt lat="44.363872976973653" lon="2.283615991473198">
        <ele>556.74000000000001</ele>
        <time>2025-04-25T12:48:07Z</time>
      </trkpt>
      <trkpt lat="44.363784966990352" lon="2.283517001196742">
        <ele>558.17999999999995</ele>
        <time>2025-04-25T12:48:08Z</time>
      </trkpt>
      <trkpt lat="44.363740039989352" lon="2.283382974565029">
        <ele>559.62</ele>
        <time>2025-04-25T12:48:09Z</time>
      </trkpt>
      <trkpt lat="44.363725036382675" lon="2.283209972083569">
        <ele>561.07000000000005</ele>
        <time>2025-04-25T12:48:10Z</time>
      </trkpt>
      <trkpt lat="44.363751020282507" lon="2.283049961552024">
        <ele>562.02999999999997</ele>
        <time>2025-04-25T12:48:11Z</time>
      </trkpt>
      <trkpt lat="44.363815980032086" lon="2.282924987375736">
        <ele>564.42999999999995</ele>
        <time>2025-04-25T12:48:12Z</time>
      </trkpt>
      <trkpt lat="44.36388898640871" lon="2.282786015421152">
        <ele>565.87</ele>
        <time>2025-04-25T12:48:13Z</time>
      </trkpt>
      <trkpt lat="44.363969033583999" lon="2.282632039859891">
        <ele>567.32000000000005</ele>
        <time>2025-04-25T12:48:14Z</time>
      </trkpt>
      <trkpt lat="44.364283019676805" lon="2.281982023268938">
        <ele>572.60000000000002</ele>
        <time>2025-04-25T12:48:18Z</time>
      </trkpt>
      <trkpt lat="44.364345967769623" lon="2.281801979988813">
        <ele>574.03999999999996</ele>
        <time>2025-04-25T12:48:19Z</time>
      </trkpt>
      <trkpt lat="44.364398019388318" lon="2.281594024971128">
        <ele>575.00999999999999</ele>
        <time>2025-04-25T12:48:20Z</time>
      </trkpt>
      <trkpt lat="44.364565992727876" lon="2.280263984575868">
        <ele>583.17999999999995</ele>
        <time>2025-04-25T12:48:26Z</time>
      </trkpt>
      <trkpt lat="44.36457403935492" lon="2.280085030943155">
        <ele>584.13999999999999</ele>
        <time>2025-04-25T12:48:27Z</time>
      </trkpt>
      <trkpt lat="44.364515030756593" lon="2.279928037896752">
        <ele>585.58000000000004</ele>
        <time>2025-04-25T12:48:28Z</time>
      </trkpt>
      <trkpt lat="44.364445963874459" lon="2.279798034578562">
        <ele>586.53999999999996</ele>
        <time>2025-04-25T12:48:29Z</time>
      </trkpt>
      <trkpt lat="44.364333981648088" lon="2.279717987403274">
        <ele>587.5</ele>
        <time>2025-04-25T12:48:30Z</time>
      </trkpt>
      <trkpt lat="44.364206995815039" lon="2.279669037088752">
        <ele>588.46000000000004</ele>
        <time>2025-04-25T12:48:31Z</time>
      </trkpt>
      <trkpt lat="44.364061988890171" lon="2.279621008783579">
        <ele>589.90999999999997</ele>
        <time>2025-04-25T12:48:32Z</time>
      </trkpt>
      <trkpt lat="44.363899966701865" lon="2.279567029327154">
        <ele>591.35000000000002</ele>
        <time>2025-04-25T12:48:33Z</time>
      </trkpt>
      <trkpt lat="44.362889025360346" lon="2.279325965791941">
        <ele>601.91999999999996</ele>
        <time>2025-04-25T12:48:39Z</time>
      </trkpt>
      <trkpt lat="44.362745024263859" lon="2.279261006042361">
        <ele>603.36000000000001</ele>
        <time>2025-04-25T12:48:40Z</time>
      </trkpt>
      <trkpt lat="44.362607980147004" lon="2.279147012159228">
        <ele>604.80999999999995</ele>
        <time>2025-04-25T12:48:41Z</time>
      </trkpt>
      <trkpt lat="44.362492980435491" lon="2.279019020497799">
        <ele>606.73000000000002</ele>
        <time>2025-04-25T12:48:42Z</time>
      </trkpt>
      <trkpt lat="44.362396001815796" lon="2.27880897000432">
        <ele>608.16999999999996</ele>
        <time>2025-04-25T12:48:43Z</time>
      </trkpt>
      <trkpt lat="44.362327018752694" lon="2.278610989451408">
        <ele>609.61000000000001</ele>
        <time>2025-04-25T12:48:44Z</time>
      </trkpt>
      <trkpt lat="44.362278990447521" lon="2.278439998626709">
        <ele>611.53999999999996</ele>
        <time>2025-04-25T12:48:45Z</time>
      </trkpt>
      <trkpt lat="44.362270021811128" lon="2.278174040839076">
        <ele>612.98000000000002</ele>
        <time>2025-04-25T12:48:46Z</time>
      </trkpt>
      <trkpt lat="44.362262981012464" lon="2.277940018102527">
        <ele>614.41999999999996</ele>
        <time>2025-04-25T12:48:47Z</time>
      </trkpt>
      <trkpt lat="44.362256024032831" lon="2.277707001194358">
        <ele>615.38</ele>
        <time>2025-04-25T12:48:48Z</time>
      </trkpt>
      <trkpt lat="44.362246971577406" lon="2.276417026296258">
        <ele>618.25999999999999</ele>
        <time>2025-04-25T12:48:55Z</time>
      </trkpt>
      <trkpt lat="44.362217970192432" lon="2.275690985843539">
        <ele>619.71000000000004</ele>
        <time>2025-04-25T12:49:00Z</time>
      </trkpt>
      <trkpt lat="44.362193997949362" lon="2.275571040809155">
        <ele>619.23000000000002</ele>
        <time>2025-04-25T12:49:01Z</time>
      </trkpt>
      <trkpt lat="44.362135995179415" lon="2.27550096809864">
        <ele>619.71000000000004</ele>
        <time>2025-04-25T12:49:02Z</time>
      </trkpt>
      <trkpt lat="44.362057037651539" lon="2.27541203610599">
        <ele>619.71000000000004</ele>
        <time>2025-04-25T12:49:03Z</time>
      </trkpt>
      <trkpt lat="44.361969027668238" lon="2.275345986708999">
        <ele>619.71000000000004</ele>
        <time>2025-04-25T12:49:04Z</time>
      </trkpt>
      <trkpt lat="44.361858973279595" lon="2.275293013080955">
        <ele>619.71000000000004</ele>
        <time>2025-04-25T12:49:05Z</time>
      </trkpt>
      <trkpt lat="44.360755998641253" lon="2.274770988151431">
        <ele>623.54999999999995</ele>
        <time>2025-04-25T12:49:13Z</time>
      </trkpt>
      <trkpt lat="44.360462967306376" lon="2.274576025083661">
        <ele>625.96000000000004</ele>
        <time>2025-04-25T12:49:15Z</time>
      </trkpt>
      <trkpt lat="44.360303962603211" lon="2.274469994008541">
        <ele>626.91999999999996</ele>
        <time>2025-04-25T12:49:16Z</time>
      </trkpt>
      <trkpt lat="44.360176976770163" lon="2.274330016225576">
        <ele>628.36000000000001</ele>
        <time>2025-04-25T12:49:17Z</time>
      </trkpt>
      <trkpt lat="44.360045967623591" lon="2.274168999865651">
        <ele>629.79999999999995</ele>
        <time>2025-04-25T12:49:18Z</time>
      </trkpt>
      <trkpt lat="44.359924010932446" lon="2.273984011262655">
        <ele>631.24000000000001</ele>
        <time>2025-04-25T12:49:19Z</time>
      </trkpt>
      <trkpt lat="44.359169974923134" lon="2.272868966683745">
        <ele>639.40999999999997</ele>
        <time>2025-04-25T12:49:25Z</time>
      </trkpt>
      <trkpt lat="44.35903100296855" lon="2.272746004164219">
        <ele>640.38</ele>
        <time>2025-04-25T12:49:26Z</time>
      </trkpt>
      <trkpt lat="44.358894964680076" lon="2.272625975310803">
        <ele>641.34000000000003</ele>
        <time>2025-04-25T12:49:27Z</time>
      </trkpt>
      <trkpt lat="44.358740989118814" lon="2.27255498059094">
        <ele>642.29999999999995</ele>
        <time>2025-04-25T12:49:28Z</time>
      </trkpt>
      <trkpt lat="44.358564969152212" lon="2.272508963942528">
        <ele>643.25999999999999</ele>
        <time>2025-04-25T12:49:29Z</time>
      </trkpt>
      <trkpt lat="44.358373023569584" lon="2.272459007799625">
        <ele>643.74000000000001</ele>
        <time>2025-04-25T12:49:30Z</time>
      </trkpt>
      <trkpt lat="44.356976011767983" lon="2.271972019225359">
        <ele>645.65999999999997</ele>
        <time>2025-04-25T12:49:37Z</time>
      </trkpt>
      <trkpt lat="44.356648027896881" lon="2.271905969828367">
        <ele>646.62</ele>
        <time>2025-04-25T12:49:39Z</time>
      </trkpt>
      <trkpt lat="44.35647401958704" lon="2.271898007020354">
        <ele>646.62</ele>
        <time>2025-04-25T12:49:40Z</time>
      </trkpt>
      <trkpt lat="44.354910040274262" lon="2.271816032007337">
        <ele>649.50999999999999</ele>
        <time>2025-04-25T12:49:48Z</time>
      </trkpt>
      <trkpt lat="44.352532010525465" lon="2.271452005952597">
        <ele>655.27999999999997</ele>
        <time>2025-04-25T12:50:00Z</time>
      </trkpt>
      <trkpt lat="44.351391987875104" lon="2.27115897461772">
        <ele>658.15999999999997</ele>
        <time>2025-04-25T12:50:06Z</time>
      </trkpt>
      <trkpt lat="44.351234994828701" lon="2.271066019311547">
        <ele>658.15999999999997</ele>
        <time>2025-04-25T12:50:07Z</time>
      </trkpt>
      <trkpt lat="44.351099040359259" lon="2.270951019600034">
        <ele>658.63999999999999</ele>
        <time>2025-04-25T12:50:08Z</time>
      </trkpt>
      <trkpt lat="44.350973982363939" lon="2.270825961604714">
        <ele>659.12</ele>
        <time>2025-04-25T12:50:09Z</time>
      </trkpt>
      <trkpt lat="44.350869040936232" lon="2.270691012963653">
        <ele>659.60000000000002</ele>
        <time>2025-04-25T12:50:10Z</time>
      </trkpt>
      <trkpt lat="44.350772984325886" lon="2.270553968846798">
        <ele>660.08000000000004</ele>
        <time>2025-04-25T12:50:11Z</time>
      </trkpt>
      <trkpt lat="44.350708024576306" lon="2.270364034920931">
        <ele>660.55999999999995</ele>
        <time>2025-04-25T12:50:12Z</time>
      </trkpt>
      <trkpt lat="44.350638035684824" lon="2.270160019397736">
        <ele>661.03999999999996</ele>
        <time>2025-04-25T12:50:13Z</time>
      </trkpt>
      <trkpt lat="44.350567040964961" lon="2.269957009702921">
        <ele>662.00999999999999</ele>
        <time>2025-04-25T12:50:14Z</time>
      </trkpt>
      <trkpt lat="44.350103018805385" lon="2.26879402063787">
        <ele>664.88999999999999</ele>
        <time>2025-04-25T12:50:20Z</time>
      </trkpt>
      <trkpt lat="44.349393993616104" lon="2.266875989735127">
        <ele>663.92999999999995</ele>
        <time>2025-04-25T12:50:28Z</time>
      </trkpt>
      <trkpt lat="44.349032985046506" lon="2.264633998274803">
        <ele>665.37</ele>
        <time>2025-04-25T12:50:36Z</time>
      </trkpt>
      <trkpt lat="44.348646998405457" lon="2.261654986068606">
        <ele>664.88999999999999</ele>
        <time>2025-04-25T12:50:46Z</time>
      </trkpt>
      <trkpt lat="44.348836010321975" lon="2.259350968524814">
        <ele>669.22000000000003</ele>
        <time>2025-04-25T12:50:54Z</time>
      </trkpt>
      <trkpt lat="44.348985962569714" lon="2.256930023431778">
        <ele>679.30999999999995</ele>
        <time>2025-04-25T12:51:02Z</time>
      </trkpt>
      <trkpt lat="44.349299026653171" lon="2.255296977236867">
        <ele>687</ele>
        <time>2025-04-25T12:51:08Z</time>
      </trkpt>
      <trkpt lat="44.349340014159679" lon="2.255136966705322">
        <ele>687.48000000000002</ele>
        <time>2025-04-25T12:51:09Z</time>
      </trkpt>
      <trkpt lat="44.349317969754338" lon="2.254933035001159">
        <ele>687.96000000000004</ele>
        <time>2025-04-25T12:51:10Z</time>
      </trkpt>
      <trkpt lat="44.349297014996409" lon="2.254729019477963">
        <ele>688.44000000000005</ele>
        <time>2025-04-25T12:51:11Z</time>
      </trkpt>
      <trkpt lat="44.349227026104927" lon="2.254608990624547">
        <ele>689.39999999999998</ele>
        <time>2025-04-25T12:51:12Z</time>
      </trkpt>
      <trkpt lat="44.349130969494581" lon="2.254443028941751">
        <ele>689.39999999999998</ele>
        <time>2025-04-25T12:51:13Z</time>
      </trkpt>
      <trkpt lat="44.349060980603099" lon="2.254321994259954">
        <ele>689.88</ele>
        <time>2025-04-25T12:51:14Z</time>
      </trkpt>
      <trkpt lat="44.348916979506612" lon="2.254220992326737">
        <ele>690.36000000000001</ele>
        <time>2025-04-25T12:51:15Z</time>
      </trkpt>
      <trkpt lat="44.348808014765382" lon="2.254177993163467">
        <ele>691.33000000000004</ele>
        <time>2025-04-25T12:51:16Z</time>
      </trkpt>
      <trkpt lat="44.348670970648527" lon="2.254200037568808">
        <ele>691.80999999999995</ele>
        <time>2025-04-25T12:51:17Z</time>
      </trkpt>
      <trkpt lat="44.348515989258885" lon="2.254243036732078">
        <ele>692.28999999999996</ele>
        <time>2025-04-25T12:51:18Z</time>
      </trkpt>
      <trkpt lat="44.348344998434186" lon="2.254311013966799">
        <ele>692.76999999999998</ele>
        <time>2025-04-25T12:51:19Z</time>
      </trkpt>
      <trkpt lat="44.347528014332056" lon="2.254633968695998">
        <ele>694.21000000000004</ele>
        <time>2025-04-25T12:51:24Z</time>
      </trkpt>
      <trkpt lat="44.347411002963781" lon="2.254643021151424">
        <ele>694.69000000000005</ele>
        <time>2025-04-25T12:51:25Z</time>
      </trkpt>
      <trkpt lat="44.347304971888661" lon="2.254587030038238">
        <ele>695.16999999999996</ele>
        <time>2025-04-25T12:51:26Z</time>
      </trkpt>
      <trkpt lat="44.347183015197515" lon="2.254520980641246">
        <ele>695.64999999999998</ele>
        <time>2025-04-25T12:51:27Z</time>
      </trkpt>
      <trkpt lat="44.347046976909041" lon="2.254448980093002">
        <ele>696.13</ele>
        <time>2025-04-25T12:51:28Z</time>
      </trkpt>
      <trkpt lat="44.346903981640935" lon="2.254372034221888">
        <ele>696.61000000000001</ele>
        <time>2025-04-25T12:51:29Z</time>
      </trkpt>
      <trkpt lat="44.346744976937771" lon="2.254348983988166">
        <ele>697.09000000000003</ele>
        <time>2025-04-25T12:51:30Z</time>
      </trkpt>
      <trkpt lat="44.346586978062987" lon="2.254358036443591">
        <ele>698.04999999999995</ele>
        <time>2025-04-25T12:51:31Z</time>
      </trkpt>
      <trkpt lat="44.34644197113812" lon="2.254367005079985">
        <ele>699.01999999999998</ele>
        <time>2025-04-25T12:51:32Z</time>
      </trkpt>
      <trkpt lat="44.345735041424632" lon="2.254406986758113">
        <ele>701.41999999999996</ele>
        <time>2025-04-25T12:51:39Z</time>
      </trkpt>
      <trkpt lat="44.345677960664034" lon="2.25437899120152">
        <ele>701.41999999999996</ele>
        <time>2025-04-25T12:51:40Z</time>
      </trkpt>
      <trkpt lat="44.345634039491415" lon="2.254357030615211">
        <ele>701.41999999999996</ele>
        <time>2025-04-25T12:51:41Z</time>
      </trkpt>
      <trkpt lat="44.345597997307777" lon="2.254258962348104">
        <ele>701.89999999999998</ele>
        <time>2025-04-25T12:51:42Z</time>
      </trkpt>
      <trkpt lat="44.345626998692751" lon="2.254205988720059">
        <ele>701.89999999999998</ele>
        <time>2025-04-25T12:51:43Z</time>
      </trkpt>
      <trkpt lat="44.34566798619926" lon="2.254130970686674">
        <ele>701.89999999999998</ele>
        <time>2025-04-25T12:51:44Z</time>
      </trkpt>
      <trkpt lat="44.345719031989574" lon="2.254038015380502">
        <ele>701.89999999999998</ele>
        <time>2025-04-25T12:51:45Z</time>
      </trkpt>
      <trkpt lat="44.346289001405239" lon="2.253004023805261">
        <ele>700.94000000000005</ele>
        <time>2025-04-25T12:51:53Z</time>
      </trkpt>
      <trkpt lat="44.346600975841284" lon="2.252540001645684">
        <ele>700.46000000000004</ele>
        <time>2025-04-25T12:51:57Z</time>
      </trkpt>
      <trkpt lat="44.346673982217908" lon="2.252470012754202">
        <ele>700.46000000000004</ele>
        <time>2025-04-25T12:51:58Z</time>
      </trkpt>
      <trkpt lat="44.347105985507369" lon="2.252063993364573">
        <ele>699.01999999999998</ele>
        <time>2025-04-25T12:52:07Z</time>
      </trkpt>
      <trkpt lat="44.347140016034245" lon="2.252031974494457">
        <ele>699.01999999999998</ele>
        <time>2025-04-25T12:52:08Z</time>
      </trkpt>
      <trkpt lat="44.347175974398851" lon="2.251998027786613">
        <ele>699.01999999999998</ele>
        <time>2025-04-25T12:52:09Z</time>
      </trkpt>
      <trkpt lat="44.347207993268967" lon="2.251968020573258">
        <ele>699.01999999999998</ele>
        <time>2025-04-25T12:52:10Z</time>
      </trkpt>
      <trkpt lat="44.347347971051931" lon="2.251813039183617">
        <ele>697.57000000000005</ele>
        <time>2025-04-25T12:52:22Z</time>
      </trkpt>
      <trkpt lat="44.347363980486989" lon="2.251795018091798">
        <ele>697.57000000000005</ele>
        <time>2025-04-25T12:52:40Z</time>
      </trkpt>
      <trkpt lat="44.347382001578808" lon="2.251775991171598">
        <ele>697.09000000000003</ele>
        <time>2025-04-25T12:52:41Z</time>
      </trkpt>
      <trkpt lat="44.347528014332056" lon="2.251612041145563">
        <ele>695.64999999999998</ele>
        <time>2025-04-25T12:52:47Z</time>
      </trkpt>
      <trkpt lat="44.347959011793137" lon="2.251132009550929">
        <ele>694.69000000000005</ele>
        <time>2025-04-25T12:52:54Z</time>
      </trkpt>
      <trkpt lat="44.348285989835858" lon="2.25064099766314">
        <ele>694.21000000000004</ele>
        <time>2025-04-25T12:52:58Z</time>
      </trkpt>
      <trkpt lat="44.34835497289896" lon="2.250477969646454">
        <ele>694.21000000000004</ele>
        <time>2025-04-25T12:52:59Z</time>
      </trkpt>
      <trkpt lat="44.348641969263554" lon="2.249797023832798">
        <ele>693.73000000000002</ele>
        <time>2025-04-25T12:53:03Z</time>
      </trkpt>
      <trkpt lat="44.348729979246855" lon="2.249666014686227">
        <ele>693.25</ele>
        <time>2025-04-25T12:53:04Z</time>
      </trkpt>
      <trkpt lat="44.348813965916634" lon="2.249551014974713">
        <ele>693.25</ele>
        <time>2025-04-25T12:53:05Z</time>
      </trkpt>
      <trkpt lat="44.348910022526979" lon="2.249508015811443">
        <ele>692.76999999999998</ele>
        <time>2025-04-25T12:53:06Z</time>
      </trkpt>
      <trkpt lat="44.349009012803435" lon="2.249474991112948">
        <ele>692.76999999999998</ele>
        <time>2025-04-25T12:53:07Z</time>
      </trkpt>
      <trkpt lat="44.349106997251511" lon="2.249453030526638">
        <ele>692.76999999999998</ele>
        <time>2025-04-25T12:53:08Z</time>
      </trkpt>
      <trkpt lat="44.349218979477882" lon="2.249460993334651">
        <ele>692.76999999999998</ele>
        <time>2025-04-25T12:53:09Z</time>
      </trkpt>
      <trkpt lat="44.349340014159679" lon="2.249469961971045">
        <ele>692.28999999999996</ele>
        <time>2025-04-25T12:53:10Z</time>
      </trkpt>
      <trkpt lat="44.349863966926932" lon="2.249469039961696">
        <ele>691.80999999999995</ele>
        <time>2025-04-25T12:53:14Z</time>
      </trkpt>
      <trkpt lat="44.350002016872168" lon="2.249453030526638">
        <ele>691.80999999999995</ele>
        <time>2025-04-25T12:53:15Z</time>
      </trkpt>
      <trkpt lat="44.350134031847119" lon="2.249382035806775">
        <ele>691.33000000000004</ele>
        <time>2025-04-25T12:53:16Z</time>
      </trkpt>
      <trkpt lat="44.350267974659801" lon="2.249295031651855">
        <ele>691.33000000000004</ele>
        <time>2025-04-25T12:53:17Z</time>
      </trkpt>
      <trkpt lat="44.35039303265512" lon="2.249169973656535">
        <ele>691.33000000000004</ele>
        <time>2025-04-25T12:53:18Z</time>
      </trkpt>
      <trkpt lat="44.351280005648732" lon="2.248283000662923">
        <ele>689.39999999999998</ele>
        <time>2025-04-25T12:53:25Z</time>
      </trkpt>
      <trkpt lat="44.351354017853737" lon="2.248131958767772">
        <ele>689.39999999999998</ele>
        <time>2025-04-25T12:53:26Z</time>
      </trkpt>
      <trkpt lat="44.35142601840198" lon="2.247972032055259">
        <ele>688.91999999999996</ele>
        <time>2025-04-25T12:53:27Z</time>
      </trkpt>
      <trkpt lat="44.35149097815156" lon="2.247798023745418">
        <ele>688.91999999999996</ele>
        <time>2025-04-25T12:53:28Z</time>
      </trkpt>
      <trkpt lat="44.351516962051392" lon="2.247586967423558">
        <ele>688.44000000000005</ele>
        <time>2025-04-25T12:53:29Z</time>
      </trkpt>
      <trkpt lat="44.351545041427016" lon="2.247358979657292">
        <ele>687.48000000000002</ele>
        <time>2025-04-25T12:53:30Z</time>
      </trkpt>
      <trkpt lat="44.351648977026343" lon="2.246506959199905">
        <ele>685.55999999999995</ele>
        <time>2025-04-25T12:53:34Z</time>
      </trkpt>
      <trkpt lat="44.351700022816658" lon="2.246360024437308">
        <ele>685.08000000000004</ele>
        <time>2025-04-25T12:53:35Z</time>
      </trkpt>
      <trkpt lat="44.35177001170814" lon="2.246219962835312">
        <ele>684.60000000000002</ele>
        <time>2025-04-25T12:53:36Z</time>
      </trkpt>
      <trkpt lat="44.351848969236016" lon="2.246079985052347">
        <ele>684.12</ele>
        <time>2025-04-25T12:53:37Z</time>
      </trkpt>
      <trkpt lat="44.351951982825994" lon="2.245961967855692">
        <ele>683.63</ele>
        <time>2025-04-25T12:53:38Z</time>
      </trkpt>
      <trkpt lat="44.352074023336172" lon="2.245882004499435">
        <ele>683.14999999999998</ele>
        <time>2025-04-25T12:53:39Z</time>
      </trkpt>
      <trkpt lat="44.352208971977234" lon="2.245812015607953">
        <ele>682.66999999999996</ele>
        <time>2025-04-25T12:53:40Z</time>
      </trkpt>
      <trkpt lat="44.352347021922469" lon="2.245739009231329">
        <ele>682.66999999999996</ele>
        <time>2025-04-25T12:53:41Z</time>
      </trkpt>
      <trkpt lat="44.353021010756493" lon="2.245408007875085">
        <ele>679.78999999999996</ele>
        <time>2025-04-25T12:53:46Z</time>
      </trkpt>
      <trkpt lat="44.353147996589541" lon="2.245385963469744">
        <ele>679.30999999999995</ele>
        <time>2025-04-25T12:53:47Z</time>
      </trkpt>
      <trkpt lat="44.353270959109068" lon="2.245384035632014">
        <ele>679.30999999999995</ele>
        <time>2025-04-25T12:53:48Z</time>
      </trkpt>
      <trkpt lat="44.353371039032936" lon="2.245405996218324">
        <ele>678.83000000000004</ele>
        <time>2025-04-25T12:53:49Z</time>
      </trkpt>
      <trkpt lat="44.353452008217573" lon="2.245423011481762">
        <ele>678.35000000000002</ele>
        <time>2025-04-25T12:53:50Z</time>
      </trkpt>
      <trkpt lat="44.35359600931406" lon="2.245455030351877">
        <ele>677.38999999999999</ele>
        <time>2025-04-25T12:53:52Z</time>
      </trkpt>
      <trkpt lat="44.353662980720401" lon="2.245469028130174">
        <ele>677.38999999999999</ele>
        <time>2025-04-25T12:53:53Z</time>
      </trkpt>
      <trkpt lat="44.353765994310379" lon="2.245437009260058">
        <ele>676.90999999999997</ele>
        <time>2025-04-25T12:53:54Z</time>
      </trkpt>
      <trkpt lat="44.353825002908707" lon="2.245384035632014">
        <ele>676.90999999999997</ele>
        <time>2025-04-25T12:53:55Z</time>
      </trkpt>
      <trkpt lat="44.353887028992176" lon="2.245327960699797">
        <ele>676.41999999999996</ele>
        <time>2025-04-25T12:53:56Z</time>
      </trkpt>
      <trkpt lat="44.353931033983827" lon="2.245287979021668">
        <ele>676.41999999999996</ele>
        <time>2025-04-25T12:53:57Z</time>
      </trkpt>
      <trkpt lat="44.353992976248264" lon="2.245161999017">
        <ele>675.94000000000005</ele>
        <time>2025-04-25T12:53:58Z</time>
      </trkpt>
      <trkpt lat="44.354038992896676" lon="2.245067032054067">
        <ele>675.94000000000005</ele>
        <time>2025-04-25T12:53:59Z</time>
      </trkpt>
      <trkpt lat="44.354087021201849" lon="2.24496996961534">
        <ele>675.46000000000004</ele>
        <time>2025-04-25T12:54:00Z</time>
      </trkpt>
      <trkpt lat="44.354135971516371" lon="2.244868967682123">
        <ele>674.98000000000002</ele>
        <time>2025-04-25T12:54:01Z</time>
      </trkpt>
      <trkpt lat="44.35445498675108" lon="2.244163965806365">
        <ele>672.10000000000002</ele>
        <time>2025-04-25T12:54:06Z</time>
      </trkpt>
      <trkpt lat="44.354511983692646" lon="2.243985012173653">
        <ele>671.62</ele>
        <time>2025-04-25T12:54:07Z</time>
      </trkpt>
      <trkpt lat="44.354569986462593" lon="2.243804968893528">
        <ele>670.65999999999997</ele>
        <time>2025-04-25T12:54:08Z</time>
      </trkpt>
      <trkpt lat="44.354618014767766" lon="2.243601037189364">
        <ele>669.70000000000005</ele>
        <time>2025-04-25T12:54:09Z</time>
      </trkpt>
      <trkpt lat="44.354618014767766" lon="2.243386041373015">
        <ele>669.22000000000003</ele>
        <time>2025-04-25T12:54:10Z</time>
      </trkpt>
      <trkpt lat="44.354618014767766" lon="2.243170961737633">
        <ele>668.25</ele>
        <time>2025-04-25T12:54:11Z</time>
      </trkpt>
      <trkpt lat="44.354618014767766" lon="2.24292797036469">
        <ele>667.28999999999996</ele>
        <time>2025-04-25T12:54:12Z</time>
      </trkpt>
      <trkpt lat="44.354568980634212" lon="2.242735018953681">
        <ele>666.80999999999995</ele>
        <time>2025-04-25T12:54:13Z</time>
      </trkpt>
      <trkpt lat="44.354512989521027" lon="2.242512982338667">
        <ele>665.37</ele>
        <time>2025-04-25T12:54:14Z</time>
      </trkpt>
      <trkpt lat="44.35445599257946" lon="2.242289017885923">
        <ele>664.88999999999999</ele>
        <time>2025-04-25T12:54:15Z</time>
      </trkpt>
      <trkpt lat="44.35430696234107" lon="2.24165802821517">
        <ele>662.00999999999999</ele>
        <time>2025-04-25T12:54:18Z</time>
      </trkpt>
      <trkpt lat="44.35428399592638" lon="2.241453006863594">
        <ele>661.51999999999998</ele>
        <time>2025-04-25T12:54:19Z</time>
      </trkpt>
      <trkpt lat="44.35426102951169" lon="2.241254020482302">
        <ele>661.03999999999996</ele>
        <time>2025-04-25T12:54:20Z</time>
      </trkpt>
      <trkpt lat="44.354280978441238" lon="2.241053022444248">
        <ele>660.55999999999995</ele>
        <time>2025-04-25T12:54:21Z</time>
      </trkpt>
      <trkpt lat="44.354319032281637" lon="2.240861998870969">
        <ele>660.08000000000004</ele>
        <time>2025-04-25T12:54:22Z</time>
      </trkpt>
      <trkpt lat="44.354361025616527" lon="2.240653038024902">
        <ele>659.12</ele>
        <time>2025-04-25T12:54:23Z</time>
      </trkpt>
      <trkpt lat="44.354438977316022" lon="2.240495961159468">
        <ele>658.63999999999999</ele>
        <time>2025-04-25T12:54:24Z</time>
      </trkpt>
      <trkpt lat="44.35452195815742" lon="2.240328993648291">
        <ele>658.15999999999997</ele>
        <time>2025-04-25T12:54:25Z</time>
      </trkpt>
      <trkpt lat="44.354606028646231" lon="2.240161020308733">
        <ele>657.67999999999995</ele>
        <time>2025-04-25T12:54:26Z</time>
      </trkpt>
      <trkpt lat="44.354839967563748" lon="2.239684006199241">
        <ele>655.75999999999999</ele>
        <time>2025-04-25T12:54:29Z</time>
      </trkpt>
      <trkpt lat="44.354893025010824" lon="2.23951100371778">
        <ele>654.79999999999995</ele>
        <time>2025-04-25T12:54:30Z</time>
      </trkpt>
      <trkpt lat="44.35492898337543" lon="2.239330038428307">
        <ele>653.83000000000004</ele>
        <time>2025-04-25T12:54:31Z</time>
      </trkpt>
      <trkpt lat="44.355077007785439" lon="2.237744014710188">
        <ele>648.07000000000005</ele>
        <time>2025-04-25T12:54:41Z</time>
      </trkpt>
      <trkpt lat="44.355115983635187" lon="2.237302958965302">
        <ele>646.62</ele>
        <time>2025-04-25T12:54:47Z</time>
      </trkpt>
      <trkpt lat="44.35512101277709" lon="2.237249985337257">
        <ele>646.13999999999999</ele>
        <time>2025-04-25T12:54:48Z</time>
      </trkpt>
      <trkpt lat="44.355124030262232" lon="2.23721100948751">
        <ele>645.65999999999997</ele>
        <time>2025-04-25T12:54:49Z</time>
      </trkpt>
      <trkpt lat="44.355124030262232" lon="2.23721100948751">
        <ele>645.65999999999997</ele>
        <time>2025-04-25T12:54:50Z</time>
      </trkpt>
      <trkpt lat="44.355124030262232" lon="2.23721100948751">
        <ele>645.17999999999995</ele>
        <time>2025-04-25T12:55:04Z</time>
      </trkpt>
      <trkpt lat="44.355124030262232" lon="2.23721100948751">
        <ele>644.70000000000005</ele>
        <time>2025-04-25T12:56:08Z</time>
      </trkpt>
      <trkpt lat="44.355128975585103" lon="2.237154012545943">
        <ele>645.65999999999997</ele>
        <time>2025-04-25T12:56:32Z</time>
      </trkpt>
      <trkpt lat="44.355132998898625" lon="2.237113025039434">
        <ele>645.65999999999997</ele>
        <time>2025-04-25T12:56:33Z</time>
      </trkpt>
      <trkpt lat="44.355349000543356" lon="2.236271984875202">
        <ele>643.74000000000001</ele>
        <time>2025-04-25T12:56:44Z</time>
      </trkpt>
      <trkpt lat="44.355572964996099" lon="2.235766975209117">
        <ele>642.77999999999997</ele>
        <time>2025-04-25T12:56:50Z</time>
      </trkpt>
      <trkpt lat="44.355662986636162" lon="2.23557704128325">
        <ele>643.25999999999999</ele>
        <time>2025-04-25T12:56:52Z</time>
      </trkpt>
      <trkpt lat="44.355830037966371" lon="2.235227013006806">
        <ele>642.29999999999995</ele>
        <time>2025-04-25T12:56:56Z</time>
      </trkpt>
      <trkpt lat="44.35587203130126" lon="2.235176973044872">
        <ele>641.82000000000005</ele>
        <time>2025-04-25T12:56:57Z</time>
      </trkpt>
      <trkpt lat="44.355926010757685" lon="2.235131962224841">
        <ele>641.34000000000003</ele>
        <time>2025-04-25T12:56:58Z</time>
      </trkpt>
      <trkpt lat="44.356060959398746" lon="2.235056022182107">
        <ele>640.38</ele>
        <time>2025-04-25T12:57:00Z</time>
      </trkpt>
      <trkpt lat="44.356137989088893" lon="2.235021991655231">
        <ele>639.88999999999999</ele>
        <time>2025-04-25T12:57:01Z</time>
      </trkpt>
      <trkpt lat="44.357071984559298" lon="2.234613038599491">
        <ele>633.64999999999998</ele>
        <time>2025-04-25T12:57:12Z</time>
      </trkpt>
      <trkpt lat="44.357685036957264" lon="2.234438024461269">
        <ele>629.79999999999995</ele>
        <time>2025-04-25T12:57:17Z</time>
      </trkpt>
      <trkpt lat="44.358518030494452" lon="2.234546989202499">
        <ele>624.99000000000001</ele>
        <time>2025-04-25T12:57:23Z</time>
      </trkpt>
      <trkpt lat="44.359636008739471" lon="2.235029032453895">
        <ele>616.34000000000003</ele>
        <time>2025-04-25T12:57:31Z</time>
      </trkpt>
      <trkpt lat="44.359776992350817" lon="2.235017968341708">
        <ele>614.89999999999998</ele>
        <time>2025-04-25T12:57:32Z</time>
      </trkpt>
      <trkpt lat="44.359915964305401" lon="2.235004976391792">
        <ele>613.94000000000005</ele>
        <time>2025-04-25T12:57:33Z</time>
      </trkpt>
      <trkpt lat="44.360057031735778" lon="2.234991984441876">
        <ele>612.98000000000002</ele>
        <time>2025-04-25T12:57:34Z</time>
      </trkpt>
      <trkpt lat="44.360196003690362" lon="2.234978992491961">
        <ele>612.01999999999998</ele>
        <time>2025-04-25T12:57:35Z</time>
      </trkpt>
      <trkpt lat="44.360668994486332" lon="2.234944961965084">
        <ele>607.69000000000005</ele>
        <time>2025-04-25T12:57:39Z</time>
      </trkpt>
      <trkpt lat="44.36077200807631" lon="2.234999025240541">
        <ele>606.73000000000002</ele>
        <time>2025-04-25T12:57:40Z</time>
      </trkpt>
      <trkpt lat="44.360859012231231" lon="2.235043030232191">
        <ele>605.76999999999998</ele>
        <time>2025-04-25T12:57:41Z</time>
      </trkpt>
      <trkpt lat="44.36094400472939" lon="2.235087035223842">
        <ele>604.80999999999995</ele>
        <time>2025-04-25T12:57:42Z</time>
      </trkpt>
      <trkpt lat="44.361031008884311" lon="2.235131962224841">
        <ele>603.85000000000002</ele>
        <time>2025-04-25T12:57:43Z</time>
      </trkpt>
      <trkpt lat="44.361209962517023" lon="2.235225001350045">
        <ele>602.39999999999998</ele>
        <time>2025-04-25T12:57:45Z</time>
      </trkpt>
      <trkpt lat="44.361291015520692" lon="2.235266994684935">
        <ele>601.44000000000005</ele>
        <time>2025-04-25T12:57:46Z</time>
      </trkpt>
      <trkpt lat="44.361391011625528" lon="2.235250985249877">
        <ele>600</ele>
        <time>2025-04-25T12:57:47Z</time>
      </trkpt>
      <trkpt lat="44.361484972760081" lon="2.235234975814819">
        <ele>599.03999999999996</ele>
        <time>2025-04-25T12:57:48Z</time>
      </trkpt>
      <trkpt lat="44.361579017713666" lon="2.235214021056891">
        <ele>598.08000000000004</ele>
        <time>2025-04-25T12:57:49Z</time>
      </trkpt>
      <trkpt lat="44.361679013818502" lon="2.235179990530014">
        <ele>596.63999999999999</ele>
        <time>2025-04-25T12:57:50Z</time>
      </trkpt>
      <trkpt lat="44.362733960151672" lon="2.234736001119018">
        <ele>587.5</ele>
        <time>2025-04-25T12:57:59Z</time>
      </trkpt>
      <trkpt lat="44.363115001469851" lon="2.234486974775791">
        <ele>583.65999999999997</ele>
        <time>2025-04-25T12:58:03Z</time>
      </trkpt>
      <trkpt lat="44.363202005624771" lon="2.234407011419535">
        <ele>582.70000000000005</ele>
        <time>2025-04-25T12:58:04Z</time>
      </trkpt>
      <trkpt lat="44.363676002249122" lon="2.233716007322073">
        <ele>576.92999999999995</ele>
        <time>2025-04-25T12:58:09Z</time>
      </trkpt>
      <trkpt lat="44.363809023052454" lon="2.233634032309055">
        <ele>575.49000000000001</ele>
        <time>2025-04-25T12:58:10Z</time>
      </trkpt>
      <trkpt lat="44.363959981128573" lon="2.233563959598541">
        <ele>574.52999999999997</ele>
        <time>2025-04-25T12:58:11Z</time>
      </trkpt>
      <trkpt lat="44.36487696133554" lon="2.23342901095748">
        <ele>566.83000000000004</ele>
        <time>2025-04-25T12:58:17Z</time>
      </trkpt>
      <trkpt lat="44.365835012868047" lon="2.233521966263652">
        <ele>558.65999999999997</ele>
        <time>2025-04-25T12:58:23Z</time>
      </trkpt>
      <trkpt lat="44.366854000836611" lon="2.233400009572506">
        <ele>549.52999999999997</ele>
        <time>2025-04-25T12:58:29Z</time>
      </trkpt>
      <trkpt lat="44.367013005539775" lon="2.233380982652307">
        <ele>547.61000000000001</ele>
        <time>2025-04-25T12:58:30Z</time>
      </trkpt>
      <trkpt lat="44.367156000807881" lon="2.233363967388868">
        <ele>545.69000000000005</ele>
        <time>2025-04-25T12:58:31Z</time>
      </trkpt>
      <trkpt lat="44.367294972762465" lon="2.233330020681024">
        <ele>543.75999999999999</ele>
        <time>2025-04-25T12:58:32Z</time>
      </trkpt>
      <trkpt lat="44.367430005222559" lon="2.233277969062328">
        <ele>541.84000000000003</ele>
        <time>2025-04-25T12:58:33Z</time>
      </trkpt>
      <trkpt lat="44.367551961913705" lon="2.233195994049311">
        <ele>540.39999999999998</ele>
        <time>2025-04-25T12:58:34Z</time>
      </trkpt>
      <trkpt lat="44.36766603961587" lon="2.233052998781204">
        <ele>538.96000000000004</ele>
        <time>2025-04-25T12:58:35Z</time>
      </trkpt>
      <trkpt lat="44.367751032114029" lon="2.232907991856337">
        <ele>537.99000000000001</ele>
        <time>2025-04-25T12:58:36Z</time>
      </trkpt>
      <trkpt lat="44.367842981591821" lon="2.232753010466695">
        <ele>536.54999999999995</ele>
        <time>2025-04-25T12:58:37Z</time>
      </trkpt>
      <trkpt lat="44.3683569598943" lon="2.231275029480457">
        <ele>527.41999999999996</ele>
        <time>2025-04-25T12:58:44Z</time>
      </trkpt>
      <trkpt lat="44.368482017889619" lon="2.230870015919209">
        <ele>524.53999999999996</ele>
        <time>2025-04-25T12:58:46Z</time>
      </trkpt>
      <trkpt lat="44.368500038981438" lon="2.230695001780987">
        <ele>523.58000000000004</ele>
        <time>2025-04-25T12:58:47Z</time>
      </trkpt>
      <trkpt lat="44.368515964597464" lon="2.230541026219726">
        <ele>522.61000000000001</ele>
        <time>2025-04-25T12:58:48Z</time>
      </trkpt>
      <trkpt lat="44.368529040366411" lon="2.230416974052787">
        <ele>521.64999999999998</ele>
        <time>2025-04-25T12:58:49Z</time>
      </trkpt>
      <trkpt lat="44.368538009002805" lon="2.230324018746615">
        <ele>521.16999999999996</ele>
        <time>2025-04-25T12:58:50Z</time>
      </trkpt>
      <trkpt lat="44.368543960154057" lon="2.230268027633429">
        <ele>520.21000000000004</ele>
        <time>2025-04-25T12:58:51Z</time>
      </trkpt>
      <trkpt lat="44.368629958480597" lon="2.230159984901547">
        <ele>518.76999999999998</ele>
        <time>2025-04-25T12:58:52Z</time>
      </trkpt>
      <trkpt lat="44.368647979572415" lon="2.230178005993366">
        <ele>517.80999999999995</ele>
        <time>2025-04-25T12:58:53Z</time>
      </trkpt>
      <trkpt lat="44.368690978735685" lon="2.230300968512893">
        <ele>516.85000000000002</ele>
        <time>2025-04-25T12:58:54Z</time>
      </trkpt>
      <trkpt lat="44.368671029806137" lon="2.230429966002703">
        <ele>516.37</ele>
        <time>2025-04-25T12:58:55Z</time>
      </trkpt>
      <trkpt lat="44.368653008714318" lon="2.230517975986004">
        <ele>515.39999999999998</ele>
        <time>2025-04-25T12:58:56Z</time>
      </trkpt>
      <trkpt lat="44.368629958480597" lon="2.230630964040756">
        <ele>514.44000000000005</ele>
        <time>2025-04-25T12:58:57Z</time>
      </trkpt>
      <trkpt lat="44.368586959317327" lon="2.230846965685487">
        <ele>513</ele>
        <time>2025-04-25T12:58:58Z</time>
      </trkpt>
      <trkpt lat="44.368583019822836" lon="2.230907985940576">
        <ele>512.03999999999996</ele>
        <time>2025-04-25T12:58:59Z</time>
      </trkpt>
      <trkpt lat="44.36857296153903" lon="2.231061961501837">
        <ele>510.60000000000002</ele>
        <time>2025-04-25T12:59:00Z</time>
      </trkpt>
      <trkpt lat="44.368561981245875" lon="2.231230018660426">
        <ele>509.63999999999999</ele>
        <time>2025-04-25T12:59:01Z</time>
      </trkpt>
      <trkpt lat="44.368543960154057" lon="2.231491031125188">
        <ele>508.19</ele>
        <time>2025-04-25T12:59:02Z</time>
      </trkpt>
      <trkpt lat="44.368554018437862" lon="2.23164601251483">
        <ele>506.75</ele>
        <time>2025-04-25T12:59:03Z</time>
      </trkpt>
      <trkpt lat="44.368567010387778" lon="2.231849022209644">
        <ele>505.31</ele>
        <time>2025-04-25T12:59:04Z</time>
      </trkpt>
      <trkpt lat="44.368578996509314" lon="2.23205597139895">
        <ele>503.87</ele>
        <time>2025-04-25T12:59:05Z</time>
      </trkpt>
      <trkpt lat="44.368648985400796" lon="2.233175039291382">
        <ele>496.18000000000001</ele>
        <time>2025-04-25T12:59:10Z</time>
      </trkpt>
      <trkpt lat="44.368638005107641" lon="2.233370002359152">
        <ele>494.74000000000001</ele>
        <time>2025-04-25T12:59:11Z</time>
      </trkpt>
      <trkpt lat="44.368619984015822" lon="2.233586004003882">
        <ele>493.29000000000002</ele>
        <time>2025-04-25T12:59:12Z</time>
      </trkpt>
      <trkpt lat="44.368597017601132" lon="2.233767975121737">
        <ele>491.85000000000002</ele>
        <time>2025-04-25T12:59:13Z</time>
      </trkpt>
      <trkpt lat="44.368552006781101" lon="2.233948018401861">
        <ele>489.93000000000001</ele>
        <time>2025-04-25T12:59:14Z</time>
      </trkpt>
      <trkpt lat="44.368509007617831" lon="2.234084978699684">
        <ele>488.00999999999999</ele>
        <time>2025-04-25T12:59:15Z</time>
      </trkpt>
      <trkpt lat="44.368414962664247" lon="2.234215987846255">
        <ele>486.07999999999998</ele>
        <time>2025-04-25T12:59:16Z</time>
      </trkpt>
      <trkpt lat="44.368326030671597" lon="2.234264016151428">
        <ele>484.16000000000003</ele>
        <time>2025-04-25T12:59:17Z</time>
      </trkpt>
      <trkpt lat="44.367513991892338" lon="2.234709011390805">
        <ele>473.11000000000001</ele>
        <time>2025-04-25T12:59:23Z</time>
      </trkpt>
      <trkpt lat="44.367383988574147" lon="2.234800038859248">
        <ele>471.66000000000003</ele>
        <time>2025-04-25T12:59:24Z</time>
      </trkpt>
      <trkpt lat="44.367234036326408" lon="2.234903974458575">
        <ele>469.74000000000001</ele>
        <time>2025-04-25T12:59:25Z</time>
      </trkpt>
      <trkpt lat="44.367136973887682" lon="2.235069014132023">
        <ele>467.81999999999999</ele>
        <time>2025-04-25T12:59:26Z</time>
      </trkpt>
      <trkpt lat="44.366799015551805" lon="2.235795976594091">
        <ele>460.61000000000001</ele>
        <time>2025-04-25T12:59:30Z</time>
      </trkpt>
      <trkpt lat="44.366651996970177" lon="2.235991023480892">
        <ele>458.20999999999998</ele>
        <time>2025-04-25T12:59:31Z</time>
      </trkpt>
      <trkpt lat="44.366363994777203" lon="2.23617902956903">
        <ele>452.92000000000002</ele>
        <time>2025-04-25T12:59:33Z</time>
      </trkpt>
      <trkpt lat="44.366266010329127" lon="2.236242983490229">
        <ele>451</ele>
        <time>2025-04-25T12:59:34Z</time>
      </trkpt>
      <trkpt lat="44.366255030035973" lon="2.236273996531963">
        <ele>449.55000000000001</ele>
        <time>2025-04-25T12:59:35Z</time>
      </trkpt>
      <trkpt lat="44.36627296730876" lon="2.236329987645149">
        <ele>448.58999999999997</ele>
        <time>2025-04-25T12:59:36Z</time>
      </trkpt>
      <trkpt lat="44.366288976743817" lon="2.23637499846518">
        <ele>447.14999999999998</ele>
        <time>2025-04-25T12:59:37Z</time>
      </trkpt>
      <trkpt lat="44.366376986727118" lon="2.236382961273193">
        <ele>445.70999999999998</ele>
        <time>2025-04-25T12:59:38Z</time>
      </trkpt>
      <trkpt lat="44.366469020023942" lon="2.236382961273193">
        <ele>443.79000000000002</ele>
        <time>2025-04-25T12:59:39Z</time>
      </trkpt>
      <trkpt lat="44.366581002250314" lon="2.236324958503246">
        <ele>442.33999999999997</ele>
        <time>2025-04-25T12:59:40Z</time>
      </trkpt>
      <trkpt lat="44.366704970598221" lon="2.236247006803751">
        <ele>440.89999999999998</ele>
        <time>2025-04-25T12:59:41Z</time>
      </trkpt>
      <trkpt lat="44.367264965549111" lon="2.23553697578609">
        <ele>434.17000000000002</ele>
        <time>2025-04-25T12:59:46Z</time>
      </trkpt>
      <trkpt lat="44.367397986352444" lon="2.235404960811138">
        <ele>432.73000000000002</ele>
        <time>2025-04-25T12:59:47Z</time>
      </trkpt>
      <trkpt lat="44.367513991892338" lon="2.235289039090276">
        <ele>430.81</ele>
        <time>2025-04-25T12:59:48Z</time>
      </trkpt>
      <trkpt lat="44.367662016302347" lon="2.235263977199793">
        <ele>429.37</ele>
        <time>2025-04-25T12:59:49Z</time>
      </trkpt>
      <trkpt lat="44.36781900934875" lon="2.235237993299961">
        <ele>427.92000000000002</ele>
        <time>2025-04-25T12:59:50Z</time>
      </trkpt>
      <trkpt lat="44.36796996742487" lon="2.235231036320329">
        <ele>426</ele>
        <time>2025-04-25T12:59:51Z</time>
      </trkpt>
      <trkpt lat="44.368140958249569" lon="2.235247967764735">
        <ele>424.56</ele>
        <time>2025-04-25T12:59:52Z</time>
      </trkpt>
      <trkpt lat="44.368304992094636" lon="2.235264983028173">
        <ele>422.63999999999999</ele>
        <time>2025-04-25T12:59:53Z</time>
      </trkpt>
      <trkpt lat="44.369251979514956" lon="2.235077982768416">
        <ele>413.5</ele>
        <time>2025-04-25T12:59:59Z</time>
      </trkpt>
      <trkpt lat="44.369694041088223" lon="2.234777994453907">
        <ele>409.66000000000003</ele>
        <time>2025-04-25T13:00:02Z</time>
      </trkpt>
      <trkpt lat="44.369832007214427" lon="2.234662994742394">
        <ele>408.22000000000003</ele>
        <time>2025-04-25T13:00:03Z</time>
      </trkpt>
      <trkpt lat="44.369941977784038" lon="2.234544977545738">
        <ele>406.76999999999998</ele>
        <time>2025-04-25T13:00:04Z</time>
      </trkpt>
      <trkpt lat="44.370241966098547" lon="2.234221016988158">
        <ele>403.41000000000003</ele>
        <time>2025-04-25T13:00:07Z</time>
      </trkpt>
      <trkpt lat="44.370346991345286" lon="2.234108028933406">
        <ele>401.97000000000003</ele>
        <time>2025-04-25T13:00:08Z</time>
      </trkpt>
      <trkpt lat="44.370422009378672" lon="2.23396796733141">
        <ele>400.52999999999997</ele>
        <time>2025-04-25T13:00:09Z</time>
      </trkpt>
      <trkpt lat="44.37050499022007" lon="2.233775015920401">
        <ele>399.07999999999998</ele>
        <time>2025-04-25T13:00:10Z</time>
      </trkpt>
      <trkpt lat="44.37052896246314" lon="2.233618022873998">
        <ele>398.12</ele>
        <time>2025-04-25T13:00:11Z</time>
      </trkpt>
      <trkpt lat="44.370554024353623" lon="2.233462035655975">
        <ele>397.16000000000003</ele>
        <time>2025-04-25T13:00:12Z</time>
      </trkpt>
      <trkpt lat="44.370577996596694" lon="2.233305964618921">
        <ele>397.63999999999999</ele>
        <time>2025-04-25T13:00:13Z</time>
      </trkpt>
      <trkpt lat="44.370689978823066" lon="2.232585037127137">
        <ele>401.49000000000001</ele>
        <time>2025-04-25T13:00:17Z</time>
      </trkpt>
      <trkpt lat="44.370727026835084" lon="2.23248596303165">
        <ele>401.00999999999999</ele>
        <time>2025-04-25T13:00:18Z</time>
      </trkpt>
      <trkpt lat="44.37078402377665" lon="2.232337016612291">
        <ele>400.52999999999997</ele>
        <time>2025-04-25T13:00:19Z</time>
      </trkpt>
      <trkpt lat="44.370861975476146" lon="2.232134006917477">
        <ele>400.52999999999997</ele>
        <time>2025-04-25T13:00:20Z</time>
      </trkpt>
      <trkpt lat="44.370948979631066" lon="2.23205303773284">
        <ele>400.05000000000001</ele>
        <time>2025-04-25T13:00:21Z</time>
      </trkpt>
      <trkpt lat="44.371045036241412" lon="2.231965027749538">
        <ele>399.56999999999999</ele>
        <time>2025-04-25T13:00:22Z</time>
      </trkpt>
      <trkpt lat="44.371199011802673" lon="2.231864025816321">
        <ele>399.56999999999999</ele>
        <time>2025-04-25T13:00:23Z</time>
      </trkpt>
      <trkpt lat="44.371324991807342" lon="2.231837036088109">
        <ele>399.07999999999998</ele>
        <time>2025-04-25T13:00:24Z</time>
      </trkpt>
      <trkpt lat="44.371563959866762" lon="2.231784984469414">
        <ele>398.12</ele>
        <time>2025-04-25T13:00:26Z</time>
      </trkpt>
      <trkpt lat="44.371658004820347" lon="2.231757994741201">
        <ele>397.63999999999999</ele>
        <time>2025-04-25T13:00:27Z</time>
      </trkpt>
      <trkpt lat="44.371763030067086" lon="2.231705021113157">
        <ele>397.16000000000003</ele>
        <time>2025-04-25T13:00:28Z</time>
      </trkpt>
      <trkpt lat="44.371849028393626" lon="2.231640983372927">
        <ele>396.68000000000001</ele>
        <time>2025-04-25T13:00:29Z</time>
      </trkpt>
      <trkpt lat="44.371933015063405" lon="2.231542998924851">
        <ele>396.19999999999999</ele>
        <time>2025-04-25T13:00:30Z</time>
      </trkpt>
      <trkpt lat="44.372273990884423" lon="2.231139997020364">
        <ele>395.24000000000001</ele>
        <time>2025-04-25T13:00:34Z</time>
      </trkpt>
      <trkpt lat="44.372384967282414" lon="2.230997001752257">
        <ele>395.24000000000001</ele>
        <time>2025-04-25T13:00:35Z</time>
      </trkpt>
      <trkpt lat="44.372426960617304" lon="2.230914020910859">
        <ele>395.24000000000001</ele>
        <time>2025-04-25T13:00:36Z</time>
      </trkpt>
      <trkpt lat="44.372607003897429" lon="2.230576984584332">
        <ele>394.75999999999999</ele>
        <time>2025-04-25T13:00:39Z</time>
      </trkpt>
      <trkpt lat="44.372707000002265" lon="2.230460979044437">
        <ele>394.75999999999999</ele>
        <time>2025-04-25T13:00:40Z</time>
      </trkpt>
      <trkpt lat="44.372779000550508" lon="2.230456033721566">
        <ele>394.75999999999999</ele>
        <time>2025-04-25T13:00:41Z</time>
      </trkpt>
      <trkpt lat="44.373303959146142" lon="2.23042300902307">
        <ele>392.36000000000001</ele>
        <time>2025-04-25T13:00:47Z</time>
      </trkpt>
      <trkpt lat="44.373733028769493" lon="2.230460979044437">
        <ele>391.87</ele>
        <time>2025-04-25T13:00:52Z</time>
      </trkpt>
      <trkpt lat="44.373796982690692" lon="2.230470031499863">
        <ele>391.38999999999999</ele>
        <time>2025-04-25T13:00:53Z</time>
      </trkpt>
      <trkpt lat="44.373845010995865" lon="2.230475982651115">
        <ele>391.38999999999999</ele>
        <time>2025-04-25T13:00:54Z</time>
      </trkpt>
      <trkpt lat="44.373893961310387" lon="2.230482017621398">
        <ele>390.91000000000003</ele>
        <time>2025-04-25T13:00:55Z</time>
      </trkpt>
      <trkpt lat="44.373938972130418" lon="2.23048796877265">
        <ele>390.91000000000003</ele>
        <time>2025-04-25T13:00:56Z</time>
      </trkpt>
      <trkpt lat="44.373974008485675" lon="2.230491992086172">
        <ele>390.43000000000001</ele>
        <time>2025-04-25T13:00:57Z</time>
      </trkpt>
      <trkpt lat="44.373994963243604" lon="2.230495009571314">
        <ele>389.94999999999999</ele>
        <time>2025-04-25T13:00:58Z</time>
      </trkpt>
      <trkpt lat="44.374061012640595" lon="2.23048503510654">
        <ele>390.43000000000001</ele>
        <time>2025-04-25T13:00:59Z</time>
      </trkpt>
      <trkpt lat="44.374066963791847" lon="2.230431977659464">
        <ele>390.43000000000001</ele>
        <time>2025-04-25T13:01:00Z</time>
      </trkpt>
      <trkpt lat="44.374081967398524" lon="2.23029300570488">
        <ele>390.91000000000003</ele>
        <time>2025-04-25T13:01:03Z</time>
      </trkpt>
      <trkpt lat="44.374081967398524" lon="2.23029300570488">
        <ele>391.38999999999999</ele>
        <time>2025-04-25T13:01:12Z</time>
      </trkpt>
      <trkpt lat="44.374081967398524" lon="2.23029300570488">
        <ele>391.87</ele>
        <time>2025-04-25T13:01:54Z</time>
      </trkpt>
      <trkpt lat="44.374081967398524" lon="2.23029300570488">
        <ele>393.80000000000001</ele>
        <time>2025-04-25T13:03:29Z</time>
      </trkpt>
      <trkpt lat="44.37409202568233" lon="2.230213964357972">
        <ele>395.72000000000003</ele>
        <time>2025-04-25T13:03:55Z</time>
      </trkpt>
      <trkpt lat="44.374102000147104" lon="2.230132995173335">
        <ele>396.68000000000001</ele>
        <time>2025-04-25T13:03:56Z</time>
      </trkpt>
      <trkpt lat="44.37411398626864" lon="2.230032999068499">
        <ele>397.16000000000003</ele>
        <time>2025-04-25T13:03:57Z</time>
      </trkpt>
      <trkpt lat="44.374154973775148" lon="2.229693029075861">
        <ele>398.12</ele>
        <time>2025-04-25T13:04:00Z</time>
      </trkpt>
      <trkpt lat="44.374183975160122" lon="2.229586998000741">
        <ele>398.60000000000002</ele>
        <time>2025-04-25T13:04:01Z</time>
      </trkpt>
      <trkpt lat="44.374236026778817" lon="2.22954299300909">
        <ele>398.12</ele>
        <time>2025-04-25T13:04:02Z</time>
      </trkpt>
      <trkpt lat="44.374315990135074" lon="2.229474009945989">
        <ele>398.12</ele>
        <time>2025-04-25T13:04:03Z</time>
      </trkpt>
      <trkpt lat="44.374376004561782" lon="2.229436039924622">
        <ele>398.12</ele>
        <time>2025-04-25T13:04:04Z</time>
      </trkpt>
      <trkpt lat="44.374448005110025" lon="2.229392034932971">
        <ele>398.12</ele>
        <time>2025-04-25T13:04:05Z</time>
      </trkpt>
      <trkpt lat="44.374503996223211" lon="2.229334032163024">
        <ele>398.60000000000002</ele>
        <time>2025-04-25T13:04:06Z</time>
      </trkpt>
      <trkpt lat="44.374540038406849" lon="2.229263037443161">
        <ele>399.56999999999999</ele>
        <time>2025-04-25T13:04:07Z</time>
      </trkpt>
      <trkpt lat="44.374530985951424" lon="2.229159018024802">
        <ele>400.52999999999997</ele>
        <time>2025-04-25T13:04:08Z</time>
      </trkpt>
      <trkpt lat="44.374509025365114" lon="2.229075031355023">
        <ele>401.49000000000001</ele>
        <time>2025-04-25T13:04:09Z</time>
      </trkpt>
      <trkpt lat="44.374483041465282" lon="2.228978974744678">
        <ele>401.97000000000003</ele>
        <time>2025-04-25T13:04:10Z</time>
      </trkpt>
      <trkpt lat="44.374428978189826" lon="2.228777976706624">
        <ele>402.93000000000001</ele>
        <time>2025-04-25T13:04:12Z</time>
      </trkpt>
      <trkpt lat="44.374400982633233" lon="2.228673035278916">
        <ele>403.41000000000003</ele>
        <time>2025-04-25T13:04:13Z</time>
      </trkpt>
      <trkpt lat="44.374370975419879" lon="2.228561975061894">
        <ele>403.88999999999999</ele>
        <time>2025-04-25T13:04:14Z</time>
      </trkpt>
      <trkpt lat="44.374183975160122" lon="2.227725964039564">
        <ele>401.97000000000003</ele>
        <time>2025-04-25T13:04:21Z</time>
      </trkpt>
      <trkpt lat="44.374166037887335" lon="2.227604007348418">
        <ele>401.00999999999999</ele>
        <time>2025-04-25T13:04:22Z</time>
      </trkpt>
      <trkpt lat="44.374150028452277" lon="2.227009981870651">
        <ele>398.60000000000002</ele>
        <time>2025-04-25T13:04:27Z</time>
      </trkpt>
      <trkpt lat="44.374146005138755" lon="2.226896993815899">
        <ele>398.12</ele>
        <time>2025-04-25T13:04:28Z</time>
      </trkpt>
      <trkpt lat="44.374139970168471" lon="2.22678903490305">
        <ele>398.12</ele>
        <time>2025-04-25T13:04:29Z</time>
      </trkpt>
      <trkpt lat="44.374059000983834" lon="2.22636197693646">
        <ele>397.16000000000003</ele>
        <time>2025-04-25T13:04:33Z</time>
      </trkpt>
      <trkpt lat="44.3740089610219" lon="2.226257035508752">
        <ele>396.68000000000001</ele>
        <time>2025-04-25T13:04:34Z</time>
      </trkpt>
      <trkpt lat="44.37396302819252" lon="2.226157961413264">
        <ele>396.68000000000001</ele>
        <time>2025-04-25T13:04:35Z</time>
      </trkpt>
      <trkpt lat="44.373865965753794" lon="2.225978001952171">
        <ele>396.19999999999999</ele>
        <time>2025-04-25T13:04:37Z</time>
      </trkpt>
      <trkpt lat="44.373778039589524" lon="2.225900972262025">
        <ele>395.72000000000003</ele>
        <time>2025-04-25T13:04:38Z</time>
      </trkpt>
      <trkpt lat="44.373681982979178" lon="2.225815979763866">
        <ele>395.24000000000001</ele>
        <time>2025-04-25T13:04:39Z</time>
      </trkpt>
      <trkpt lat="44.373329021036625" lon="2.225504005327821">
        <ele>394.27999999999997</ele>
        <time>2025-04-25T13:04:42Z</time>
      </trkpt>
      <trkpt lat="44.37304001301527" lon="2.225380036979914">
        <ele>394.27999999999997</ele>
        <time>2025-04-25T13:04:44Z</time>
      </trkpt>
      <trkpt lat="44.37162104062736" lon="2.224968988448381">
        <ele>393.31999999999999</ele>
        <time>2025-04-25T13:04:52Z</time>
      </trkpt>
      <trkpt lat="44.37041999772191" lon="2.224495997652412">
        <ele>390.91000000000003</ele>
        <time>2025-04-25T13:04:59Z</time>
      </trkpt>
      <trkpt lat="44.370258981361985" lon="2.224398013204336">
        <ele>390.43000000000001</ele>
        <time>2025-04-25T13:05:00Z</time>
      </trkpt>
      <trkpt lat="44.369219960644841" lon="2.223457982763648">
        <ele>388.02999999999997</ele>
        <time>2025-04-25T13:05:07Z</time>
      </trkpt>
      <trkpt lat="44.368615038692951" lon="2.22227999009192">
        <ele>386.11000000000001</ele>
        <time>2025-04-25T13:05:13Z</time>
      </trkpt>
      <trkpt lat="44.368339022621512" lon="2.221552021801472">
        <ele>385.63</ele>
        <time>2025-04-25T13:05:17Z</time>
      </trkpt>
      <trkpt lat="44.368302980437875" lon="2.221344988793135">
        <ele>385.63</ele>
        <time>2025-04-25T13:05:18Z</time>
      </trkpt>
      <trkpt lat="44.368136012926698" lon="2.220396995544434">
        <ele>385.14999999999998</ele>
        <time>2025-04-25T13:05:23Z</time>
      </trkpt>
      <trkpt lat="44.36805697157979" lon="2.22023899666965">
        <ele>384.18000000000001</ele>
        <time>2025-04-25T13:05:24Z</time>
      </trkpt>
      <trkpt lat="44.367987988516688" lon="2.220184011384845">
        <ele>383.69999999999999</ele>
        <time>2025-04-25T13:05:25Z</time>
      </trkpt>
      <trkpt lat="44.367907019332051" lon="2.220141012221575">
        <ele>382.74000000000001</ele>
        <time>2025-04-25T13:05:26Z</time>
      </trkpt>
      <trkpt lat="44.367794031277299" lon="2.220148975029588">
        <ele>382.25999999999999</ele>
        <time>2025-04-25T13:05:27Z</time>
      </trkpt>
      <trkpt lat="44.36766603961587" lon="2.220158027485013">
        <ele>381.30000000000001</ele>
        <time>2025-04-25T13:05:28Z</time>
      </trkpt>
      <trkpt lat="44.367528995499015" lon="2.22019599750638">
        <ele>380.81999999999999</ele>
        <time>2025-04-25T13:05:29Z</time>
      </trkpt>
      <trkpt lat="44.36661402694881" lon="2.22049699164927">
        <ele>377.44999999999999</ele>
        <time>2025-04-25T13:05:35Z</time>
      </trkpt>
      <trkpt lat="44.366534985601902" lon="2.220463966950774">
        <ele>376.97000000000003</ele>
        <time>2025-04-25T13:05:36Z</time>
      </trkpt>
      <trkpt lat="44.366477988660336" lon="2.220399007201195">
        <ele>376.49000000000001</ele>
        <time>2025-04-25T13:05:37Z</time>
      </trkpt>
      <trkpt lat="44.366418980062008" lon="2.220326000824571">
        <ele>375.52999999999997</ele>
        <time>2025-04-25T13:05:38Z</time>
      </trkpt>
      <trkpt lat="44.366407999768853" lon="2.220235979184508">
        <ele>375.05000000000001</ele>
        <time>2025-04-25T13:05:39Z</time>
      </trkpt>
      <trkpt lat="44.366397019475698" lon="2.220147969201207">
        <ele>374.08999999999997</ele>
        <time>2025-04-25T13:05:40Z</time>
      </trkpt>
      <trkpt lat="44.366376986727118" lon="2.219988964498043">
        <ele>373.13</ele>
        <time>2025-04-25T13:05:41Z</time>
      </trkpt>
      <trkpt lat="44.366387967020273" lon="2.219929033890367">
        <ele>372.17000000000002</ele>
        <time>2025-04-25T13:05:42Z</time>
      </trkpt>
      <trkpt lat="44.366437001153827" lon="2.219729963690043">
        <ele>371.69</ele>
        <time>2025-04-25T13:05:43Z</time>
      </trkpt>
      <trkpt lat="44.366522999480367" lon="2.219614963978529">
        <ele>370.73000000000002</ele>
        <time>2025-04-25T13:05:44Z</time>
      </trkpt>
      <trkpt lat="44.36691602692008" lon="2.219330985099077">
        <ele>367.83999999999997</ele>
        <time>2025-04-25T13:05:47Z</time>
      </trkpt>
      <trkpt lat="44.367204029113054" lon="2.219176003709436">
        <ele>365.92000000000002</ele>
        <time>2025-04-25T13:05:49Z</time>
      </trkpt>
      <trkpt lat="44.367426987737417" lon="2.219073995947838">
        <ele>364</ele>
        <time>2025-04-25T13:05:51Z</time>
      </trkpt>
      <trkpt lat="44.367536036297679" lon="2.219024039804936">
        <ele>363.04000000000002</ele>
        <time>2025-04-25T13:05:52Z</time>
      </trkpt>
      <trkpt lat="44.367623962461948" lon="2.218914991244674">
        <ele>362.06999999999999</ele>
        <time>2025-04-25T13:05:53Z</time>
      </trkpt>
      <trkpt lat="44.36762697994709" lon="2.218699995428324">
        <ele>362.06999999999999</ele>
        <time>2025-04-25T13:05:54Z</time>
      </trkpt>
      <trkpt lat="44.367577023804188" lon="2.218560017645359">
        <ele>361.58999999999997</ele>
        <time>2025-04-25T13:05:55Z</time>
      </trkpt>
      <trkpt lat="44.36751801520586" lon="2.218393972143531">
        <ele>361.58999999999997</ele>
        <time>2025-04-25T13:05:56Z</time>
      </trkpt>
      <trkpt lat="44.367451965808868" lon="2.218206971883774">
        <ele>361.11000000000001</ele>
        <time>2025-04-25T13:05:57Z</time>
      </trkpt>
      <trkpt lat="44.367205034941435" lon="2.217384036630392">
        <ele>359.67000000000002</ele>
        <time>2025-04-25T13:06:01Z</time>
      </trkpt>
      <trkpt lat="44.36715298332274" lon="2.217167029157281">
        <ele>359.67000000000002</ele>
        <time>2025-04-25T13:06:02Z</time>
      </trkpt>
      <trkpt lat="44.367070002481341" lon="2.216817000880837">
        <ele>359.67000000000002</ele>
        <time>2025-04-25T13:06:04Z</time>
      </trkpt>
      <trkpt lat="44.367086011916399" lon="2.216709963977337">
        <ele>360.14999999999998</ele>
        <time>2025-04-25T13:06:05Z</time>
      </trkpt>
      <trkpt lat="44.36713102273643" lon="2.216549031436443">
        <ele>361.58999999999997</ele>
        <time>2025-04-25T13:06:06Z</time>
      </trkpt>
      <trkpt lat="44.367680959403515" lon="2.215285040438175">
        <ele>368.31999999999999</ele>
        <time>2025-04-25T13:06:12Z</time>
      </trkpt>
      <trkpt lat="44.368471037596464" lon="2.213532971218228">
        <ele>377.44999999999999</ele>
        <time>2025-04-25T13:06:20Z</time>
      </trkpt>
      <trkpt lat="44.368886025622487" lon="2.212951015681028">
        <ele>379.38</ele>
        <time>2025-04-25T13:06:23Z</time>
      </trkpt>
      <trkpt lat="44.370135013014078" lon="2.211796995252371">
        <ele>381.77999999999997</ele>
        <time>2025-04-25T13:06:30Z</time>
      </trkpt>
      <trkpt lat="44.370282031595707" lon="2.211663974449039">
        <ele>382.25999999999999</ele>
        <time>2025-04-25T13:06:31Z</time>
      </trkpt>
      <trkpt lat="44.370453022420406" lon="2.211574036628008">
        <ele>382.74000000000001</ele>
        <time>2025-04-25T13:06:32Z</time>
      </trkpt>
      <trkpt lat="44.370745969936252" lon="2.211446966975927">
        <ele>384.18000000000001</ele>
        <time>2025-04-25T13:06:34Z</time>
      </trkpt>
      <trkpt lat="44.370876979082823" lon="2.211416959762573">
        <ele>384.18000000000001</ele>
        <time>2025-04-25T13:06:35Z</time>
      </trkpt>
      <trkpt lat="44.371080994606018" lon="2.211329033598304">
        <ele>385.14999999999998</ele>
        <time>2025-04-25T13:06:37Z</time>
      </trkpt>
      <trkpt lat="44.37112701125443" lon="2.211232976987958">
        <ele>386.11000000000001</ele>
        <time>2025-04-25T13:06:38Z</time>
      </trkpt>
      <trkpt lat="44.371135979890823" lon="2.211160976439714">
        <ele>387.06999999999999</ele>
        <time>2025-04-25T13:06:39Z</time>
      </trkpt>
      <trkpt lat="44.37110697850585" lon="2.211051005870104">
        <ele>387.55000000000001</ele>
        <time>2025-04-25T13:06:40Z</time>
      </trkpt>
      <trkpt lat="44.371055010706186" lon="2.210930977016687">
        <ele>388.02999999999997</ele>
        <time>2025-04-25T13:06:41Z</time>
      </trkpt>
      <trkpt lat="44.370992984622717" lon="2.2107869759202">
        <ele>388.50999999999999</ele>
        <time>2025-04-25T13:06:42Z</time>
      </trkpt>
      <trkpt lat="44.370931964367628" lon="2.210646998137236">
        <ele>388.99000000000001</ele>
        <time>2025-04-25T13:06:43Z</time>
      </trkpt>
      <trkpt lat="44.370906986296177" lon="2.210539961233735">
        <ele>389.47000000000003</ele>
        <time>2025-04-25T13:06:44Z</time>
      </trkpt>
      <trkpt lat="44.370889971032739" lon="2.210452035069466">
        <ele>389.94999999999999</ele>
        <time>2025-04-25T13:06:45Z</time>
      </trkpt>
      <trkpt lat="44.370886031538248" lon="2.210414987057447">
        <ele>390.43000000000001</ele>
        <time>2025-04-25T13:06:46Z</time>
      </trkpt>
      <trkpt lat="44.37091302126646" lon="2.210373999550939">
        <ele>390.91000000000003</ele>
        <time>2025-04-25T13:06:47Z</time>
      </trkpt>
      <trkpt lat="44.370969012379646" lon="2.21029001288116">
        <ele>390.91000000000003</ele>
        <time>2025-04-25T13:06:48Z</time>
      </trkpt>
      <trkpt lat="44.371035983785987" lon="2.210285989567637">
        <ele>390.91000000000003</ele>
        <time>2025-04-25T13:06:49Z</time>
      </trkpt>
      <trkpt lat="44.371147966012359" lon="2.210279032588005">
        <ele>391.38999999999999</ele>
        <time>2025-04-25T13:06:50Z</time>
      </trkpt>
      <trkpt lat="44.371311999857426" lon="2.210268974304199">
        <ele>391.87</ele>
        <time>2025-04-25T13:06:51Z</time>
      </trkpt>
      <trkpt lat="44.371422976255417" lon="2.210146011784673">
        <ele>391.87</ele>
        <time>2025-04-25T13:06:52Z</time>
      </trkpt>
      <trkpt lat="44.371541999280453" lon="2.210015002638102">
        <ele>392.36000000000001</ele>
        <time>2025-04-25T13:06:53Z</time>
      </trkpt>
      <trkpt lat="44.371662028133869" lon="2.20988298766315">
        <ele>392.36000000000001</ele>
        <time>2025-04-25T13:06:54Z</time>
      </trkpt>
      <trkpt lat="44.372047008946538" lon="2.209562966600061">
        <ele>393.31999999999999</ele>
        <time>2025-04-25T13:06:57Z</time>
      </trkpt>
      <trkpt lat="44.372198972851038" lon="2.209536982700229">
        <ele>393.80000000000001</ele>
        <time>2025-04-25T13:06:58Z</time>
      </trkpt>
      <trkpt lat="44.372346997261047" lon="2.209510998800397">
        <ele>393.80000000000001</ele>
        <time>2025-04-25T13:06:59Z</time>
      </trkpt>
      <trkpt lat="44.372473983094096" lon="2.209489038214088">
        <ele>393.31999999999999</ele>
        <time>2025-04-25T13:07:00Z</time>
      </trkpt>
      <trkpt lat="44.372607003897429" lon="2.209425000473857">
        <ele>392.83999999999997</ele>
        <time>2025-04-25T13:07:01Z</time>
      </trkpt>
      <trkpt lat="44.372716974467039" lon="2.209314024075866">
        <ele>392.36000000000001</ele>
        <time>2025-04-25T13:07:02Z</time>
      </trkpt>
      <trkpt lat="44.372838009148836" lon="2.209193995222449">
        <ele>392.36000000000001</ele>
        <time>2025-04-25T13:07:03Z</time>
      </trkpt>
      <trkpt lat="44.37323497608304" lon="2.208882020786405">
        <ele>391.87</ele>
        <time>2025-04-25T13:07:06Z</time>
      </trkpt>
      <trkpt lat="44.373374031856656" lon="2.208807002753019">
        <ele>391.87</ele>
        <time>2025-04-25T13:07:07Z</time>
      </trkpt>
      <trkpt lat="44.373502023518085" lon="2.208738019689918">
        <ele>391.38999999999999</ele>
        <time>2025-04-25T13:07:08Z</time>
      </trkpt>
      <trkpt lat="44.373607970774174" lon="2.208681022748351">
        <ele>390.91000000000003</ele>
        <time>2025-04-25T13:07:09Z</time>
      </trkpt>
      <trkpt lat="44.373688017949462" lon="2.208600975573063">
        <ele>390.43000000000001</ele>
        <time>2025-04-25T13:07:10Z</time>
      </trkpt>
      <trkpt lat="44.373752977699041" lon="2.208536015823484">
        <ele>390.91000000000003</ele>
        <time>2025-04-25T13:07:11Z</time>
      </trkpt>
      <trkpt lat="44.373764041811228" lon="2.208482036367059">
        <ele>391.38999999999999</ele>
        <time>2025-04-25T13:07:12Z</time>
      </trkpt>
      <trkpt lat="44.373778039589524" lon="2.208365024998784">
        <ele>391.87</ele>
        <time>2025-04-25T13:07:13Z</time>
      </trkpt>
      <trkpt lat="44.373795976862311" lon="2.208221023902297">
        <ele>393.31999999999999</ele>
        <time>2025-04-25T13:07:14Z</time>
      </trkpt>
      <trkpt lat="44.373815003782511" lon="2.208054978400469">
        <ele>393.31999999999999</ele>
        <time>2025-04-25T13:07:15Z</time>
      </trkpt>
      <trkpt lat="44.373862026259303" lon="2.206512037664652">
        <ele>393.31999999999999</ele>
        <time>2025-04-25T13:07:22Z</time>
      </trkpt>
      <trkpt lat="44.373917011544108" lon="2.205851962789893">
        <ele>391.38999999999999</ele>
        <time>2025-04-25T13:07:25Z</time>
      </trkpt>
      <trkpt lat="44.373955987393856" lon="2.205626992508769">
        <ele>390.43000000000001</ele>
        <time>2025-04-25T13:07:26Z</time>
      </trkpt>
      <trkpt lat="44.374298974871635" lon="2.204678999260068">
        <ele>387.06999999999999</ele>
        <time>2025-04-25T13:07:31Z</time>
      </trkpt>
      <trkpt lat="44.374364018440247" lon="2.204500967636704">
        <ele>386.58999999999997</ele>
        <time>2025-04-25T13:07:32Z</time>
      </trkpt>
      <trkpt lat="44.374482035636902" lon="2.204326037317514">
        <ele>386.11000000000001</ele>
        <time>2025-04-25T13:07:33Z</time>
      </trkpt>
      <trkpt lat="44.374594017863274" lon="2.204184969887137">
        <ele>385.63</ele>
        <time>2025-04-25T13:07:34Z</time>
      </trkpt>
      <trkpt lat="44.374703988432884" lon="2.204047003760934">
        <ele>384.66000000000003</ele>
        <time>2025-04-25T13:07:35Z</time>
      </trkpt>
      <trkpt lat="44.374886965379119" lon="2.203809963539243">
        <ele>383.69999999999999</ele>
        <time>2025-04-25T13:07:37Z</time>
      </trkpt>
      <trkpt lat="44.374954020604491" lon="2.203704016283155">
        <ele>382.74000000000001</ele>
        <time>2025-04-25T13:07:38Z</time>
      </trkpt>
      <trkpt lat="44.374986961483955" lon="2.203605026006699">
        <ele>382.25999999999999</ele>
        <time>2025-04-25T13:07:39Z</time>
      </trkpt>
      <trkpt lat="44.375003976747394" lon="2.203446021303535">
        <ele>381.30000000000001</ele>
        <time>2025-04-25T13:07:40Z</time>
      </trkpt>
      <trkpt lat="44.375021997839212" lon="2.203276958316565">
        <ele>380.33999999999997</ele>
        <time>2025-04-25T13:07:41Z</time>
      </trkpt>
      <trkpt lat="44.375040018931031" lon="2.203107979148626">
        <ele>379.38</ele>
        <time>2025-04-25T13:07:42Z</time>
      </trkpt>
      <trkpt lat="44.375057034194469" lon="2.202941011637449">
        <ele>378.42000000000002</ele>
        <time>2025-04-25T13:07:43Z</time>
      </trkpt>
      <trkpt lat="44.375100033357739" lon="2.202757028862834">
        <ele>377.94</ele>
        <time>2025-04-25T13:07:44Z</time>
      </trkpt>
      <trkpt lat="44.375150995329022" lon="2.202619984745979">
        <ele>376.97000000000003</ele>
        <time>2025-04-25T13:07:45Z</time>
      </trkpt>
      <trkpt lat="44.375197011977434" lon="2.202495010569692">
        <ele>376.00999999999999</ele>
        <time>2025-04-25T13:07:46Z</time>
      </trkpt>
      <trkpt lat="44.375236993655562" lon="2.202387973666191">
        <ele>375.52999999999997</ele>
        <time>2025-04-25T13:07:47Z</time>
      </trkpt>
      <trkpt lat="44.375268006697297" lon="2.202303986996412">
        <ele>375.05000000000001</ele>
        <time>2025-04-25T13:07:48Z</time>
      </trkpt>
      <trkpt lat="44.375290973111987" lon="2.202241960912943">
        <ele>374.08999999999997</ele>
        <time>2025-04-25T13:07:49Z</time>
      </trkpt>
      <trkpt lat="44.375307988375425" lon="2.202197033911943">
        <ele>373.61000000000001</ele>
        <time>2025-04-25T13:07:50Z</time>
      </trkpt>
      <trkpt lat="44.375345958396792" lon="2.202094020321965">
        <ele>373.13</ele>
        <time>2025-04-25T13:07:51Z</time>
      </trkpt>
      <trkpt lat="44.375344030559063" lon="2.202083962038159">
        <ele>372.64999999999998</ele>
        <time>2025-04-25T13:07:52Z</time>
      </trkpt>
      <trkpt lat="44.37531896866858" lon="2.201988995075226">
        <ele>372.64999999999998</ele>
        <time>2025-04-25T13:07:53Z</time>
      </trkpt>
      <trkpt lat="44.375290973111987" lon="2.201879024505615">
        <ele>372.64999999999998</ele>
        <time>2025-04-25T13:07:54Z</time>
      </trkpt>
      <trkpt lat="44.375258032232523" lon="2.201752960681915">
        <ele>372.64999999999998</ele>
        <time>2025-04-25T13:07:55Z</time>
      </trkpt>
      <trkpt lat="44.375220984220505" lon="2.201610971242189">
        <ele>372.64999999999998</ele>
        <time>2025-04-25T13:07:56Z</time>
      </trkpt>
      <trkpt lat="44.375174967572093" lon="2.201464958488941">
        <ele>372.64999999999998</ele>
        <time>2025-04-25T13:07:57Z</time>
      </trkpt>
      <trkpt lat="44.375052005052567" lon="2.201174022629857">
        <ele>372.64999999999998</ele>
        <time>2025-04-25T13:07:59Z</time>
      </trkpt>
      <trkpt lat="44.374996013939381" lon="2.201041001826525">
        <ele>373.13</ele>
        <time>2025-04-25T13:08:00Z</time>
      </trkpt>
      <trkpt lat="44.374935999512672" lon="2.200942011550069">
        <ele>373.13</ele>
        <time>2025-04-25T13:08:01Z</time>
      </trkpt>
      <trkpt lat="44.374833991751075" lon="2.200875962153077">
        <ele>373.61000000000001</ele>
        <time>2025-04-25T13:08:02Z</time>
      </trkpt>
      <trkpt lat="44.374713040888309" lon="2.200803961604834">
        <ele>374.08999999999997</ele>
        <time>2025-04-25T13:08:03Z</time>
      </trkpt>
      <trkpt lat="44.374567028135061" lon="2.200777977705002">
        <ele>375.05000000000001</ele>
        <time>2025-04-25T13:08:04Z</time>
      </trkpt>
      <trkpt lat="44.373671002686024" lon="2.200677981600165">
        <ele>380.81999999999999</ele>
        <time>2025-04-25T13:08:09Z</time>
      </trkpt>
      <trkpt lat="44.373476039618254" lon="2.200715029612184">
        <ele>382.25999999999999</ele>
        <time>2025-04-25T13:08:10Z</time>
      </trkpt>
      <trkpt lat="44.37200996093452" lon="2.201108979061246">
        <ele>392.36000000000001</ele>
        <time>2025-04-25T13:08:17Z</time>
      </trkpt>
      <trkpt lat="44.371797982603312" lon="2.201129011809826">
        <ele>393.80000000000001</ele>
        <time>2025-04-25T13:08:18Z</time>
      </trkpt>
      <trkpt lat="44.371588015928864" lon="2.201148960739374">
        <ele>395.24000000000001</ele>
        <time>2025-04-25T13:08:19Z</time>
      </trkpt>
      <trkpt lat="44.371382994577289" lon="2.201167987659574">
        <ele>396.68000000000001</ele>
        <time>2025-04-25T13:08:20Z</time>
      </trkpt>
      <trkpt lat="44.371181996539235" lon="2.201186008751392">
        <ele>397.63999999999999</ele>
        <time>2025-04-25T13:08:21Z</time>
      </trkpt>
      <trkpt lat="44.370985021814704" lon="2.201254991814494">
        <ele>399.07999999999998</ele>
        <time>2025-04-25T13:08:22Z</time>
      </trkpt>
      <trkpt lat="44.370815036818385" lon="2.201335038989782">
        <ele>400.05000000000001</ele>
        <time>2025-04-25T13:08:23Z</time>
      </trkpt>
      <trkpt lat="44.370644968003035" lon="2.201454984024167">
        <ele>401.00999999999999</ele>
        <time>2025-04-25T13:08:24Z</time>
      </trkpt>
      <trkpt lat="44.37048302963376" lon="2.201592028141022">
        <ele>401.97000000000003</ele>
        <time>2025-04-25T13:08:25Z</time>
      </trkpt>
      <trkpt lat="44.37033299356699" lon="2.201742986217141">
        <ele>402.93000000000001</ele>
        <time>2025-04-25T13:08:26Z</time>
      </trkpt>
      <trkpt lat="44.370239032432437" lon="2.201836025342345">
        <ele>403.88999999999999</ele>
        <time>2025-04-25T13:08:27Z</time>
      </trkpt>
      <trkpt lat="44.370033005252481" lon="2.201959993690252">
        <ele>404.85000000000002</ele>
        <time>2025-04-25T13:08:28Z</time>
      </trkpt>
      <trkpt lat="44.369881963357329" lon="2.202011961489916">
        <ele>406.29000000000002</ele>
        <time>2025-04-25T13:08:29Z</time>
      </trkpt>
      <trkpt lat="44.369703009724617" lon="2.202071975916624">
        <ele>407.25999999999999</ele>
        <time>2025-04-25T13:08:30Z</time>
      </trkpt>
      <trkpt lat="44.369609970599413" lon="2.202071975916624">
        <ele>408.69999999999999</ele>
        <time>2025-04-25T13:08:31Z</time>
      </trkpt>
      <trkpt lat="44.369513997808099" lon="2.202057978138328">
        <ele>409.66000000000003</ele>
        <time>2025-04-25T13:08:32Z</time>
      </trkpt>
      <trkpt lat="44.369397992268205" lon="2.201957982033491">
        <ele>411.10000000000002</ele>
        <time>2025-04-25T13:08:33Z</time>
      </trkpt>
      <trkpt lat="44.369294978678226" lon="2.201789002865553">
        <ele>412.54000000000002</ele>
        <time>2025-04-25T13:08:34Z</time>
      </trkpt>
      <trkpt lat="44.369165981188416" lon="2.201579036191106">
        <ele>413.98000000000002</ele>
        <time>2025-04-25T13:08:35Z</time>
      </trkpt>
      <trkpt lat="44.369032960385084" lon="2.201477028429508">
        <ele>414.94999999999999</ele>
        <time>2025-04-25T13:08:36Z</time>
      </trkpt>
      <trkpt lat="44.368854006752372" lon="2.201340990141034">
        <ele>416.38999999999999</ele>
        <time>2025-04-25T13:08:37Z</time>
      </trkpt>
      <trkpt lat="44.368078010156751" lon="2.200752999633551">
        <ele>422.16000000000003</ele>
        <time>2025-04-25T13:08:41Z</time>
      </trkpt>
      <trkpt lat="44.367920011281967" lon="2.200673036277294">
        <ele>423.60000000000002</ele>
        <time>2025-04-25T13:08:42Z</time>
      </trkpt>
      <trkpt lat="44.36775497160852" lon="2.200625007972121">
        <ele>425.04000000000002</ele>
        <time>2025-04-25T13:08:43Z</time>
      </trkpt>
      <trkpt lat="44.36758004128933" lon="2.200602041557431">
        <ele>426.48000000000002</ele>
        <time>2025-04-25T13:08:44Z</time>
      </trkpt>
      <trkpt lat="44.367403015494347" lon="2.200630037114024">
        <ele>427.44</ele>
        <time>2025-04-25T13:08:45Z</time>
      </trkpt>
      <trkpt lat="44.367243004962802" lon="2.200656021013856">
        <ele>428.88999999999999</ele>
        <time>2025-04-25T13:08:46Z</time>
      </trkpt>
      <trkpt lat="44.367106966674328" lon="2.200677981600165">
        <ele>430.32999999999998</ele>
        <time>2025-04-25T13:08:47Z</time>
      </trkpt>
      <trkpt lat="44.366996996104717" lon="2.200696002691984">
        <ele>431.76999999999998</ele>
        <time>2025-04-25T13:08:48Z</time>
      </trkpt>
      <trkpt lat="44.366902029141784" lon="2.200604975223541">
        <ele>433.69</ele>
        <time>2025-04-25T13:08:49Z</time>
      </trkpt>
      <trkpt lat="44.366857018321753" lon="2.200458040460944">
        <ele>435.61000000000001</ele>
        <time>2025-04-25T13:08:50Z</time>
      </trkpt>
      <trkpt lat="44.36680999584496" lon="2.200273973867297">
        <ele>437.54000000000002</ele>
        <time>2025-04-25T13:08:51Z</time>
      </trkpt>
      <trkpt lat="44.366758028045297" lon="2.200075993314385">
        <ele>438.98000000000002</ele>
        <time>2025-04-25T13:08:52Z</time>
      </trkpt>
      <trkpt lat="44.366670018061996" lon="2.19991103745997">
        <ele>439.94</ele>
        <time>2025-04-25T13:08:53Z</time>
      </trkpt>
      <trkpt lat="44.36655099503696" lon="2.199801988899708">
        <ele>440.89999999999998</ele>
        <time>2025-04-25T13:08:54Z</time>
      </trkpt>
      <trkpt lat="44.366417974233627" lon="2.199706016108394">
        <ele>441.86000000000001</ele>
        <time>2025-04-25T13:08:55Z</time>
      </trkpt>
      <trkpt lat="44.366281013935804" lon="2.199606020003557">
        <ele>442.33999999999997</ele>
        <time>2025-04-25T13:08:56Z</time>
      </trkpt>
      <trkpt lat="44.36614396981895" lon="2.19948397949338">
        <ele>443.31</ele>
        <time>2025-04-25T13:08:57Z</time>
      </trkpt>
      <trkpt lat="44.366001980379224" lon="2.199348025023937">
        <ele>444.75</ele>
        <time>2025-04-25T13:08:58Z</time>
      </trkpt>
      <trkpt lat="44.365855967625976" lon="2.199207963421941">
        <ele>445.70999999999998</ele>
        <time>2025-04-25T13:08:59Z</time>
      </trkpt>
      <trkpt lat="44.365707021206617" lon="2.199087012559176">
        <ele>447.14999999999998</ele>
        <time>2025-04-25T13:09:00Z</time>
      </trkpt>
      <trkpt lat="44.365540975704789" lon="2.199004031717777">
        <ele>447.63</ele>
        <time>2025-04-25T13:09:01Z</time>
      </trkpt>
      <trkpt lat="44.365373002365232" lon="2.198919961228967">
        <ele>448.58999999999997</ele>
        <time>2025-04-25T13:09:02Z</time>
      </trkpt>
      <trkpt lat="44.365207962691784" lon="2.198864975944161">
        <ele>449.55000000000001</ele>
        <time>2025-04-25T13:09:03Z</time>
      </trkpt>
      <trkpt lat="44.36504602432251" lon="2.198843015357852">
        <ele>450.51999999999998</ele>
        <time>2025-04-25T13:09:04Z</time>
      </trkpt>
      <trkpt lat="44.364887019619346" lon="2.198847960680723">
        <ele>451.48000000000002</ele>
        <time>2025-04-25T13:09:05Z</time>
      </trkpt>
      <trkpt lat="44.36472499743104" lon="2.198884002864361">
        <ele>452.44</ele>
        <time>2025-04-25T13:09:06Z</time>
      </trkpt>
      <trkpt lat="44.364560041576624" lon="2.198920967057347">
        <ele>452.92000000000002</ele>
        <time>2025-04-25T13:09:07Z</time>
      </trkpt>
      <trkpt lat="44.364393996074796" lon="2.198958015069366">
        <ele>453.88</ele>
        <time>2025-04-25T13:09:08Z</time>
      </trkpt>
      <trkpt lat="44.364229962229729" lon="2.198961032554507">
        <ele>454.83999999999997</ele>
        <time>2025-04-25T13:09:09Z</time>
      </trkpt>
      <trkpt lat="44.364079004153609" lon="2.198961032554507">
        <ele>455.80000000000001</ele>
        <time>2025-04-25T13:09:10Z</time>
      </trkpt>
      <trkpt lat="44.363932991400361" lon="2.198961032554507">
        <ele>456.75999999999999</ele>
        <time>2025-04-25T13:09:11Z</time>
      </trkpt>
      <trkpt lat="44.36378002166748" lon="2.199048958718777">
        <ele>458.20999999999998</ele>
        <time>2025-04-25T13:09:12Z</time>
      </trkpt>
      <trkpt lat="44.363626968115568" lon="2.199154989793897">
        <ele>459.17000000000002</ele>
        <time>2025-04-25T13:09:13Z</time>
      </trkpt>
      <trkpt lat="44.363468969240785" lon="2.199263032525778">
        <ele>460.61000000000001</ele>
        <time>2025-04-25T13:09:14Z</time>
      </trkpt>
      <trkpt lat="44.363121036440134" lon="2.199433017522097">
        <ele>464.44999999999999</ele>
        <time>2025-04-25T13:09:17Z</time>
      </trkpt>
      <trkpt lat="44.363056998699903" lon="2.199417008087039">
        <ele>465.42000000000002</ele>
        <time>2025-04-25T13:09:18Z</time>
      </trkpt>
      <trkpt lat="44.36305096372962" lon="2.199410973116756">
        <ele>466.86000000000001</ele>
        <time>2025-04-25T13:09:19Z</time>
      </trkpt>
      <trkpt lat="44.363020034506917" lon="2.199258003383875">
        <ele>469.74000000000001</ele>
        <time>2025-04-25T13:09:20Z</time>
      </trkpt>
      <trkpt lat="44.363006036728621" lon="2.199147026985884">
        <ele>471.66000000000003</ele>
        <time>2025-04-25T13:09:21Z</time>
      </trkpt>
      <trkpt lat="44.363000001758337" lon="2.198953991755843">
        <ele>473.11000000000001</ele>
        <time>2025-04-25T13:09:22Z</time>
      </trkpt>
      <trkpt lat="44.362992960959673" lon="2.198736984282732">
        <ele>474.55000000000001</ele>
        <time>2025-04-25T13:09:23Z</time>
      </trkpt>
      <trkpt lat="44.362971000373363" lon="2.198058972135186">
        <ele>478.38999999999999</ele>
        <time>2025-04-25T13:09:26Z</time>
      </trkpt>
      <trkpt lat="44.362929007038474" lon="2.197818998247385">
        <ele>478.38999999999999</ele>
        <time>2025-04-25T13:09:27Z</time>
      </trkpt>
      <trkpt lat="44.362849965691566" lon="2.197668962180615">
        <ele>478.87</ele>
        <time>2025-04-25T13:09:28Z</time>
      </trkpt>
      <trkpt lat="44.36277000233531" lon="2.197516998276115">
        <ele>479.83999999999997</ele>
        <time>2025-04-25T13:09:29Z</time>
      </trkpt>
      <trkpt lat="44.362644022330642" lon="2.197409039363265">
        <ele>480.80000000000001</ele>
        <time>2025-04-25T13:09:30Z</time>
      </trkpt>
      <trkpt lat="44.362522987648845" lon="2.197327986359596">
        <ele>481.75999999999999</ele>
        <time>2025-04-25T13:09:31Z</time>
      </trkpt>
      <trkpt lat="44.362388961017132" lon="2.197276018559933">
        <ele>482.72000000000003</ele>
        <time>2025-04-25T13:09:32Z</time>
      </trkpt>
      <trkpt lat="44.362244959920645" lon="2.197232013568282">
        <ele>483.68000000000001</ele>
        <time>2025-04-25T13:09:33Z</time>
      </trkpt>
      <trkpt lat="44.362089978531003" lon="2.197218015789986">
        <ele>485.12</ele>
        <time>2025-04-25T13:09:34Z</time>
      </trkpt>
      <trkpt lat="44.3610920291394" lon="2.197173004969955">
        <ele>493.76999999999998</ele>
        <time>2025-04-25T13:09:40Z</time>
      </trkpt>
      <trkpt lat="44.360915003344417" lon="2.197147021070123">
        <ele>494.74000000000001</ele>
        <time>2025-04-25T13:09:41Z</time>
      </trkpt>
      <trkpt lat="44.360730014741421" lon="2.19709999859333">
        <ele>496.66000000000003</ele>
        <time>2025-04-25T13:09:42Z</time>
      </trkpt>
      <trkpt lat="44.359952006489038" lon="2.196857007220388">
        <ele>502.43000000000001</ele>
        <time>2025-04-25T13:09:46Z</time>
      </trkpt>
      <trkpt lat="44.359750002622604" lon="2.196851978078485">
        <ele>503.87</ele>
        <time>2025-04-25T13:09:47Z</time>
      </trkpt>
      <trkpt lat="44.358160039409995" lon="2.196816019713879">
        <ele>515.39999999999998</ele>
        <time>2025-04-25T13:09:55Z</time>
      </trkpt>
      <trkpt lat="44.357973961159587" lon="2.196752987802029">
        <ele>516.37</ele>
        <time>2025-04-25T13:09:56Z</time>
      </trkpt>
      <trkpt lat="44.357796013355255" lon="2.196685010567308">
        <ele>518.28999999999996</ele>
        <time>2025-04-25T13:09:57Z</time>
      </trkpt>
      <trkpt lat="44.357629967853427" lon="2.196599012240768">
        <ele>519.73000000000002</ele>
        <time>2025-04-25T13:09:58Z</time>
      </trkpt>
      <trkpt lat="44.357479009777308" lon="2.196471020579338">
        <ele>521.16999999999996</ele>
        <time>2025-04-25T13:09:59Z</time>
      </trkpt>
      <trkpt lat="44.35737800784409" lon="2.196319978684187">
        <ele>522.61000000000001</ele>
        <time>2025-04-25T13:10:00Z</time>
      </trkpt>
      <trkpt lat="44.357322016730905" lon="2.196123003959656">
        <ele>524.05999999999995</ele>
        <time>2025-04-25T13:10:01Z</time>
      </trkpt>
      <trkpt lat="44.357327967882156" lon="2.195936003699899">
        <ele>525.5</ele>
        <time>2025-04-25T13:10:02Z</time>
      </trkpt>
      <trkpt lat="44.3573550414294" lon="2.195741962641478">
        <ele>526.46000000000004</ele>
        <time>2025-04-25T13:10:03Z</time>
      </trkpt>
      <trkpt lat="44.357383958995342" lon="2.195540964603424">
        <ele>527.41999999999996</ele>
        <time>2025-04-25T13:10:04Z</time>
      </trkpt>
      <trkpt lat="44.357408015057445" lon="2.195377014577389">
        <ele>528.38</ele>
        <time>2025-04-25T13:10:05Z</time>
      </trkpt>
      <trkpt lat="44.357408015057445" lon="2.1951640304178">
        <ele>529.34000000000003</ele>
        <time>2025-04-25T13:10:06Z</time>
      </trkpt>
      <trkpt lat="44.357384964823723" lon="2.194974012672901">
        <ele>530.29999999999995</ele>
        <time>2025-04-25T13:10:07Z</time>
      </trkpt>
      <trkpt lat="44.357325034216046" lon="2.194761028513312">
        <ele>530.78999999999996</ele>
        <time>2025-04-25T13:10:08Z</time>
      </trkpt>
      <trkpt lat="44.357264013960958" lon="2.194543015211821">
        <ele>532.23000000000002</ele>
        <time>2025-04-25T13:10:09Z</time>
      </trkpt>
      <trkpt lat="44.357171980664134" lon="2.194390967488289">
        <ele>533.19000000000005</ele>
        <time>2025-04-25T13:10:10Z</time>
      </trkpt>
      <trkpt lat="44.357078019529581" lon="2.194249983876944">
        <ele>534.14999999999998</ele>
        <time>2025-04-25T13:10:11Z</time>
      </trkpt>
      <trkpt lat="44.356981962919235" lon="2.194159040227532">
        <ele>535.59000000000003</ele>
        <time>2025-04-25T13:10:12Z</time>
      </trkpt>
      <trkpt lat="44.356860006228089" lon="2.194082010537386">
        <ele>536.54999999999995</ele>
        <time>2025-04-25T13:10:13Z</time>
      </trkpt>
      <trkpt lat="44.356744000688195" lon="2.194009004160762">
        <ele>537.99000000000001</ele>
        <time>2025-04-25T13:10:14Z</time>
      </trkpt>
      <trkpt lat="44.356526993215084" lon="2.193923005834222">
        <ele>539.91999999999996</ele>
        <time>2025-04-25T13:10:16Z</time>
      </trkpt>
      <trkpt lat="44.356408976018429" lon="2.193904984742403">
        <ele>541.36000000000001</ele>
        <time>2025-04-25T13:10:17Z</time>
      </trkpt>
      <trkpt lat="44.356308979913592" lon="2.193915965035558">
        <ele>542.32000000000005</ele>
        <time>2025-04-25T13:10:18Z</time>
      </trkpt>
      <trkpt lat="44.35619599185884" lon="2.19396298751235">
        <ele>543.27999999999997</ele>
        <time>2025-04-25T13:10:19Z</time>
      </trkpt>
      <trkpt lat="44.356077974662185" lon="2.194011015817523">
        <ele>544.24000000000001</ele>
        <time>2025-04-25T13:10:20Z</time>
      </trkpt>
      <trkpt lat="44.355961969122291" lon="2.194072036072612">
        <ele>545.20000000000005</ele>
        <time>2025-04-25T13:10:21Z</time>
      </trkpt>
      <trkpt lat="44.355845041573048" lon="2.194172032177448">
        <ele>546.64999999999998</ele>
        <time>2025-04-25T13:10:22Z</time>
      </trkpt>
      <trkpt lat="44.355203993618488" lon="2.1947340387851">
        <ele>552.40999999999997</ele>
        <time>2025-04-25T13:10:27Z</time>
      </trkpt>
      <trkpt lat="44.35505798086524" lon="2.194810984656215">
        <ele>553.38</ele>
        <time>2025-04-25T13:10:28Z</time>
      </trkpt>
      <trkpt lat="44.354915991425514" lon="2.194836968556047">
        <ele>554.34000000000003</ele>
        <time>2025-04-25T13:10:29Z</time>
      </trkpt>
      <trkpt lat="44.354763021692634" lon="2.194783994928002">
        <ele>555.29999999999995</ele>
        <time>2025-04-25T13:10:30Z</time>
      </trkpt>
      <trkpt lat="44.354596976190805" lon="2.194711994379759">
        <ele>555.77999999999997</ele>
        <time>2025-04-25T13:10:31Z</time>
      </trkpt>
      <trkpt lat="44.354456998407841" lon="2.194623984396458">
        <ele>556.74000000000001</ele>
        <time>2025-04-25T13:10:32Z</time>
      </trkpt>
      <trkpt lat="44.353735987097025" lon="2.194213019683957">
        <ele>558.65999999999997</ele>
        <time>2025-04-25T13:10:37Z</time>
      </trkpt>
      <trkpt lat="44.353615958243608" lon="2.194183012470603">
        <ele>559.13999999999999</ele>
        <time>2025-04-25T13:10:38Z</time>
      </trkpt>
      <trkpt lat="44.353475980460644" lon="2.194160968065262">
        <ele>559.13999999999999</ele>
        <time>2025-04-25T13:10:39Z</time>
      </trkpt>
      <trkpt lat="44.353315969929099" lon="2.194199021905661">
        <ele>559.13999999999999</ele>
        <time>2025-04-25T13:10:40Z</time>
      </trkpt>
      <trkpt lat="44.353150008246303" lon="2.19424000941217">
        <ele>559.13999999999999</ele>
        <time>2025-04-25T13:10:41Z</time>
      </trkpt>
      <trkpt lat="44.352617003023624" lon="2.194341011345387">
        <ele>559.13999999999999</ele>
        <time>2025-04-25T13:10:44Z</time>
      </trkpt>
      <trkpt lat="44.351439010351896" lon="2.194261969998479">
        <ele>562.50999999999999</ele>
        <time>2025-04-25T13:10:50Z</time>
      </trkpt>
      <trkpt lat="44.351249998435378" lon="2.194308992475271">
        <ele>562.99000000000001</ele>
        <time>2025-04-25T13:10:51Z</time>
      </trkpt>
      <trkpt lat="44.350715987384319" lon="2.194538991898298">
        <ele>565.38999999999999</ele>
        <time>2025-04-25T13:10:54Z</time>
      </trkpt>
      <trkpt lat="44.350555976852775" lon="2.194637982174754">
        <ele>565.87</ele>
        <time>2025-04-25T13:10:55Z</time>
      </trkpt>
      <trkpt lat="44.350437959656119" lon="2.19477997161448">
        <ele>566.83000000000004</ele>
        <time>2025-04-25T13:10:56Z</time>
      </trkpt>
      <trkpt lat="44.350328994914889" lon="2.194936964660883">
        <ele>568.27999999999997</ele>
        <time>2025-04-25T13:10:57Z</time>
      </trkpt>
      <trkpt lat="44.350233022123575" lon="2.195116002112627">
        <ele>569.24000000000001</ele>
        <time>2025-04-25T13:10:58Z</time>
      </trkpt>
      <trkpt lat="44.350151969119906" lon="2.195334015414119">
        <ele>570.20000000000005</ele>
        <time>2025-04-25T13:10:59Z</time>
      </trkpt>
      <trkpt lat="44.350074017420411" lon="2.195558985695243">
        <ele>571.63999999999999</ele>
        <time>2025-04-25T13:11:00Z</time>
      </trkpt>
      <trkpt lat="44.349282011389732" lon="2.19783098436892">
        <ele>583.65999999999997</ele>
        <time>2025-04-25T13:11:10Z</time>
      </trkpt>
      <trkpt lat="44.349229037761688" lon="2.197978002950549">
        <ele>584.62</ele>
        <time>2025-04-25T13:11:11Z</time>
      </trkpt>
      <trkpt lat="44.349145973101258" lon="2.198076993227005">
        <ele>585.58000000000004</ele>
        <time>2025-04-25T13:11:12Z</time>
      </trkpt>
      <trkpt lat="44.349125018343329" lon="2.198101971298456">
        <ele>586.53999999999996</ele>
        <time>2025-04-25T13:11:13Z</time>
      </trkpt>
      <trkpt lat="44.349125018343329" lon="2.198101971298456">
        <ele>587.98000000000002</ele>
        <time>2025-04-25T13:11:14Z</time>
      </trkpt>
      <trkpt lat="44.348984034731984" lon="2.198067018762231">
        <ele>588.95000000000005</ele>
        <time>2025-04-25T13:11:15Z</time>
      </trkpt>
      <trkpt lat="44.348953021690249" lon="2.198059977963567">
        <ele>589.90999999999997</ele>
        <time>2025-04-25T13:11:16Z</time>
      </trkpt>
      <trkpt lat="44.348953021690249" lon="2.198059977963567">
        <ele>591.35000000000002</ele>
        <time>2025-04-25T13:11:17Z</time>
      </trkpt>
      <trkpt lat="44.348867023363709" lon="2.197909019887447">
        <ele>592.30999999999995</ele>
        <time>2025-04-25T13:11:18Z</time>
      </trkpt>
      <trkpt lat="44.348867023363709" lon="2.197909019887447">
        <ele>592.78999999999996</ele>
        <time>2025-04-25T13:11:19Z</time>
      </trkpt>
      <trkpt lat="44.348839027807117" lon="2.197545999661088">
        <ele>592.78999999999996</ele>
        <time>2025-04-25T13:11:20Z</time>
      </trkpt>
      <trkpt lat="44.348810026422143" lon="2.197256991639733">
        <ele>593.26999999999998</ele>
        <time>2025-04-25T13:11:21Z</time>
      </trkpt>
      <trkpt lat="44.348453041166067" lon="2.195761995390058">
        <ele>596.63999999999999</ele>
        <time>2025-04-25T13:11:27Z</time>
      </trkpt>
      <trkpt lat="44.34839503839612" lon="2.195355976000428">
        <ele>597.12</ele>
        <time>2025-04-25T13:11:28Z</time>
      </trkpt>
      <trkpt lat="44.348291018977761" lon="2.195240976288915">
        <ele>596.63999999999999</ele>
        <time>2025-04-25T13:11:29Z</time>
      </trkpt>
      <trkpt lat="44.348094966262579" lon="2.195204012095928">
        <ele>596.63999999999999</ele>
        <time>2025-04-25T13:11:30Z</time>
      </trkpt>
      <trkpt lat="44.347993964329362" lon="2.195236030966044">
        <ele>597.12</ele>
        <time>2025-04-25T13:11:31Z</time>
      </trkpt>
      <trkpt lat="44.34781501069665" lon="2.19529302790761">
        <ele>597.12</ele>
        <time>2025-04-25T13:11:32Z</time>
      </trkpt>
      <trkpt lat="44.347685007378459" lon="2.195408027619124">
        <ele>598.08000000000004</ele>
        <time>2025-04-25T13:11:33Z</time>
      </trkpt>
      <trkpt lat="44.347546035423875" lon="2.19553099013865">
        <ele>598.55999999999995</ele>
        <time>2025-04-25T13:11:34Z</time>
      </trkpt>
      <trkpt lat="44.346991991624236" lon="2.19604698009789">
        <ele>600.96000000000004</ele>
        <time>2025-04-25T13:11:38Z</time>
      </trkpt>
      <trkpt lat="44.346863999962807" lon="2.19621897675097">
        <ele>601.44000000000005</ele>
        <time>2025-04-25T13:11:39Z</time>
      </trkpt>
      <trkpt lat="44.346821000799537" lon="2.19636800698936">
        <ele>601.91999999999996</ele>
        <time>2025-04-25T13:11:40Z</time>
      </trkpt>
      <trkpt lat="44.34676400385797" lon="2.196573028340936">
        <ele>602.39999999999998</ele>
        <time>2025-04-25T13:11:41Z</time>
      </trkpt>
      <trkpt lat="44.346758974716067" lon="2.196751981973648">
        <ele>602.88</ele>
        <time>2025-04-25T13:11:42Z</time>
      </trkpt>
      <trkpt lat="44.346754029393196" lon="2.196940993890166">
        <ele>603.36000000000001</ele>
        <time>2025-04-25T13:11:43Z</time>
      </trkpt>
      <trkpt lat="44.346749000251293" lon="2.197134029120207">
        <ele>603.85000000000002</ele>
        <time>2025-04-25T13:11:44Z</time>
      </trkpt>
      <trkpt lat="44.34674397110939" lon="2.197309965267777">
        <ele>604.33000000000004</ele>
        <time>2025-04-25T13:11:45Z</time>
      </trkpt>
      <trkpt lat="44.34674296528101" lon="2.197351036593318">
        <ele>604.80999999999995</ele>
        <time>2025-04-25T13:11:46Z</time>
      </trkpt>
      <trkpt lat="44.346708012744784" lon="2.197397975251079">
        <ele>605.28999999999996</ele>
        <time>2025-04-25T13:11:47Z</time>
      </trkpt>
      <trkpt lat="44.3466139677912" lon="2.197523033246398">
        <ele>605.28999999999996</ele>
        <time>2025-04-25T13:11:48Z</time>
      </trkpt>
      <trkpt lat="44.3466139677912" lon="2.197523033246398">
        <ele>605.28999999999996</ele>
        <time>2025-04-25T13:11:49Z</time>
      </trkpt>
      <trkpt lat="44.346514977514744" lon="2.197505012154579">
        <ele>605.76999999999998</ele>
        <time>2025-04-25T13:11:50Z</time>
      </trkpt>
      <trkpt lat="44.346371982246637" lon="2.197477016597986">
        <ele>605.76999999999998</ele>
        <time>2025-04-25T13:11:51Z</time>
      </trkpt>
      <trkpt lat="44.346218006685376" lon="2.197407027706504">
        <ele>606.25</ele>
        <time>2025-04-25T13:11:52Z</time>
      </trkpt>
      <trkpt lat="44.346048021689057" lon="2.197327986359596">
        <ele>606.25</ele>
        <time>2025-04-25T13:11:53Z</time>
      </trkpt>
      <trkpt lat="44.34547402895987" lon="2.197039984166622">
        <ele>606.73000000000002</ele>
        <time>2025-04-25T13:11:56Z</time>
      </trkpt>
      <trkpt lat="44.345283005386591" lon="2.196909980848432">
        <ele>607.69000000000005</ele>
        <time>2025-04-25T13:11:57Z</time>
      </trkpt>
      <trkpt lat="44.344469038769603" lon="2.196085033938289">
        <ele>610.57000000000005</ele>
        <time>2025-04-25T13:12:02Z</time>
      </trkpt>
      <trkpt lat="44.344359990209341" lon="2.196010015904903">
        <ele>611.53999999999996</ele>
        <time>2025-04-25T13:12:03Z</time>
      </trkpt>
      <trkpt lat="44.344190005213022" lon="2.195891998708248">
        <ele>612.98000000000002</ele>
        <time>2025-04-25T13:12:04Z</time>
      </trkpt>
      <trkpt lat="44.343975009396672" lon="2.195977997034788">
        <ele>614.41999999999996</ele>
        <time>2025-04-25T13:12:05Z</time>
      </trkpt>
      <trkpt lat="44.343945002183318" lon="2.196030970662832">
        <ele>615.86000000000001</ele>
        <time>2025-04-25T13:12:06Z</time>
      </trkpt>
      <trkpt lat="44.343873001635075" lon="2.196155022829771">
        <ele>616.34000000000003</ele>
        <time>2025-04-25T13:12:07Z</time>
      </trkpt>
      <trkpt lat="44.343738975003362" lon="2.196386028081179">
        <ele>617.77999999999997</ele>
        <time>2025-04-25T13:12:08Z</time>
      </trkpt>
      <trkpt lat="44.343707961961627" lon="2.196386028081179">
        <ele>618.75</ele>
        <time>2025-04-25T13:12:09Z</time>
      </trkpt>
      <trkpt lat="44.34354099445045" lon="2.19634797424078">
        <ele>619.71000000000004</ele>
        <time>2025-04-25T13:12:10Z</time>
      </trkpt>
      <trkpt lat="44.343458013609052" lon="2.196230040863156">
        <ele>621.63</ele>
        <time>2025-04-25T13:12:11Z</time>
      </trkpt>
      <trkpt lat="44.343359023332596" lon="2.196090985089541">
        <ele>623.07000000000005</ele>
        <time>2025-04-25T13:12:12Z</time>
      </trkpt>
      <trkpt lat="44.343263972550631" lon="2.195855034515262">
        <ele>624.50999999999999</ele>
        <time>2025-04-25T13:12:13Z</time>
      </trkpt>
      <trkpt lat="44.343201024457812" lon="2.195630986243486">
        <ele>625.47000000000003</ele>
        <time>2025-04-25T13:12:14Z</time>
      </trkpt>
      <trkpt lat="44.343134975060821" lon="2.195394029840827">
        <ele>626.91999999999996</ele>
        <time>2025-04-25T13:12:15Z</time>
      </trkpt>
      <trkpt lat="44.342904975637794" lon="2.194737978279591">
        <ele>631.24000000000001</ele>
        <time>2025-04-25T13:12:18Z</time>
      </trkpt>
      <trkpt lat="44.342823000624776" lon="2.194590037688613">
        <ele>632.20000000000005</ele>
        <time>2025-04-25T13:12:19Z</time>
      </trkpt>
      <trkpt lat="44.342719987034798" lon="2.194494986906648">
        <ele>633.16999999999996</ele>
        <time>2025-04-25T13:12:20Z</time>
      </trkpt>
      <trkpt lat="44.342585038393736" lon="2.194461040198803">
        <ele>634.61000000000001</ele>
        <time>2025-04-25T13:12:21Z</time>
      </trkpt>
      <trkpt lat="44.342479007318616" lon="2.194488029927015">
        <ele>635.57000000000005</ele>
        <time>2025-04-25T13:12:22Z</time>
      </trkpt>
      <trkpt lat="44.342300975695252" lon="2.194561958312988">
        <ele>636.52999999999997</ele>
        <time>2025-04-25T13:12:23Z</time>
      </trkpt>
      <trkpt lat="44.342226041480899" lon="2.194637982174754">
        <ele>637.97000000000003</ele>
        <time>2025-04-25T13:12:24Z</time>
      </trkpt>
      <trkpt lat="44.342094026505947" lon="2.194768991321325">
        <ele>638.92999999999995</ele>
        <time>2025-04-25T13:12:25Z</time>
      </trkpt>
      <trkpt lat="44.341797977685928" lon="2.195039978250861">
        <ele>641.82000000000005</ele>
        <time>2025-04-25T13:12:27Z</time>
      </trkpt>
      <trkpt lat="44.341617012396455" lon="2.195122037082911">
        <ele>643.25999999999999</ele>
        <time>2025-04-25T13:12:28Z</time>
      </trkpt>
      <trkpt lat="44.341450966894627" lon="2.195128994062543">
        <ele>644.70000000000005</ele>
        <time>2025-04-25T13:12:29Z</time>
      </trkpt>
      <trkpt lat="44.341273019090295" lon="2.195136034861207">
        <ele>645.65999999999997</ele>
        <time>2025-04-25T13:12:30Z</time>
      </trkpt>
      <trkpt lat="44.341084007173777" lon="2.195142991840839">
        <ele>647.59000000000003</ele>
        <time>2025-04-25T13:12:31Z</time>
      </trkpt>
      <trkpt lat="44.340742025524378" lon="2.195156989619136">
        <ele>650.95000000000005</ele>
        <time>2025-04-25T13:12:33Z</time>
      </trkpt>
      <trkpt lat="44.340594001114368" lon="2.195162018761039">
        <ele>652.38999999999999</ele>
        <time>2025-04-25T13:12:34Z</time>
      </trkpt>
      <trkpt lat="44.340496016666293" lon="2.195246005430818">
        <ele>653.83000000000004</ele>
        <time>2025-04-25T13:12:35Z</time>
      </trkpt>
      <trkpt lat="44.340367019176483" lon="2.195367040112615">
        <ele>654.79999999999995</ele>
        <time>2025-04-25T13:12:36Z</time>
      </trkpt>
      <trkpt lat="44.340240033343434" lon="2.195486985146999">
        <ele>656.24000000000001</ele>
        <time>2025-04-25T13:12:37Z</time>
      </trkpt>
      <trkpt lat="44.340125033631921" lon="2.195683037862182">
        <ele>657.20000000000005</ele>
        <time>2025-04-25T13:12:38Z</time>
      </trkpt>
      <trkpt lat="44.338915022090077" lon="2.197691006585956">
        <ele>669.70000000000005</ele>
        <time>2025-04-25T13:12:47Z</time>
      </trkpt>
      <trkpt lat="44.338745959103107" lon="2.197859985753894">
        <ele>671.13999999999999</ele>
        <time>2025-04-25T13:12:48Z</time>
      </trkpt>
      <trkpt lat="44.33855602517724" lon="2.198021002113819">
        <ele>672.58000000000004</ele>
        <time>2025-04-25T13:12:49Z</time>
      </trkpt>
      <trkpt lat="44.338354021310806" lon="2.198117980733514">
        <ele>673.53999999999996</ele>
        <time>2025-04-25T13:12:50Z</time>
      </trkpt>
      <trkpt lat="44.33814899995923" lon="2.198215965181589">
        <ele>674.98000000000002</ele>
        <time>2025-04-25T13:12:51Z</time>
      </trkpt>
      <trkpt lat="44.337580958381295" lon="2.198488963767886">
        <ele>677.87</ele>
        <time>2025-04-25T13:12:54Z</time>
      </trkpt>
      <trkpt lat="44.337426982820034" lon="2.198643023148179">
        <ele>679.30999999999995</ele>
        <time>2025-04-25T13:12:55Z</time>
      </trkpt>
      <trkpt lat="44.33728901669383" lon="2.198786018416286">
        <ele>679.78999999999996</ele>
        <time>2025-04-25T13:12:56Z</time>
      </trkpt>
      <trkpt lat="44.337157001718879" lon="2.198975030332804">
        <ele>680.75</ele>
        <time>2025-04-25T13:12:57Z</time>
      </trkpt>
      <trkpt lat="44.337020963430405" lon="2.199169993400574">
        <ele>681.23000000000002</ele>
        <time>2025-04-25T13:12:58Z</time>
      </trkpt>
      <trkpt lat="44.336349992081523" lon="2.20006300136447">
        <ele>683.63</ele>
        <time>2025-04-25T13:13:03Z</time>
      </trkpt>
      <trkpt lat="44.336230969056487" lon="2.200181018561125">
        <ele>684.12</ele>
        <time>2025-04-25T13:13:04Z</time>
      </trkpt>
      <trkpt lat="44.336087973788381" lon="2.200243966653943">
        <ele>684.12</ele>
        <time>2025-04-25T13:13:05Z</time>
      </trkpt>
      <trkpt lat="44.335937015712261" lon="2.200267016887665">
        <ele>684.12</ele>
        <time>2025-04-25T13:13:06Z</time>
      </trkpt>
      <trkpt lat="44.335791002959013" lon="2.200233992189169">
        <ele>684.12</ele>
        <time>2025-04-25T13:13:07Z</time>
      </trkpt>
      <trkpt lat="44.335637027397752" lon="2.200199961662293">
        <ele>684.60000000000002</ele>
        <time>2025-04-25T13:13:08Z</time>
      </trkpt>
      <trkpt lat="44.334374964237213" lon="2.200099965557456">
        <ele>684.60000000000002</ele>
        <time>2025-04-25T13:13:15Z</time>
      </trkpt>
      <trkpt lat="44.334039017558098" lon="2.200006004422903">
        <ele>684.60000000000002</ele>
        <time>2025-04-25T13:13:17Z</time>
      </trkpt>
      <trkpt lat="44.333889987319708" lon="2.19991103745997">
        <ele>684.60000000000002</ele>
        <time>2025-04-25T13:13:18Z</time>
      </trkpt>
      <trkpt lat="44.333741962909698" lon="2.199779022485018">
        <ele>684.60000000000002</ele>
        <time>2025-04-25T13:13:19Z</time>
      </trkpt>
      <trkpt lat="44.332814002409577" lon="2.198790963739157">
        <ele>685.08000000000004</ele>
        <time>2025-04-25T13:13:25Z</time>
      </trkpt>
      <trkpt lat="44.332695985212922" lon="2.198583008721471">
        <ele>685.08000000000004</ele>
        <time>2025-04-25T13:13:26Z</time>
      </trkpt>
      <trkpt lat="44.332494987174869" lon="2.198210014030337">
        <ele>685.08000000000004</ele>
        <time>2025-04-25T13:13:28Z</time>
      </trkpt>
      <trkpt lat="44.332361966371536" lon="2.198059977963567">
        <ele>684.60000000000002</ele>
        <time>2025-04-25T13:13:29Z</time>
      </trkpt>
      <trkpt lat="44.332231963053346" lon="2.197976997122169">
        <ele>684.60000000000002</ele>
        <time>2025-04-25T13:13:30Z</time>
      </trkpt>
      <trkpt lat="44.332097014412284" lon="2.197970962151885">
        <ele>684.12</ele>
        <time>2025-04-25T13:13:31Z</time>
      </trkpt>
      <trkpt lat="44.331958964467049" lon="2.198005998507142">
        <ele>684.60000000000002</ele>
        <time>2025-04-25T13:13:32Z</time>
      </trkpt>
      <trkpt lat="44.331834996119142" lon="2.19806500710547">
        <ele>684.60000000000002</ele>
        <time>2025-04-25T13:13:33Z</time>
      </trkpt>
      <trkpt lat="44.331719996407628" lon="2.198133990168572">
        <ele>684.60000000000002</ele>
        <time>2025-04-25T13:13:34Z</time>
      </trkpt>
      <trkpt lat="44.33161698281765" lon="2.198196016252041">
        <ele>684.60000000000002</ele>
        <time>2025-04-25T13:13:35Z</time>
      </trkpt>
      <trkpt lat="44.331518998369575" lon="2.19821797683835">
        <ele>685.08000000000004</ele>
        <time>2025-04-25T13:13:36Z</time>
      </trkpt>
      <trkpt lat="44.331400981172919" lon="2.198230968788266">
        <ele>685.08000000000004</ele>
        <time>2025-04-25T13:13:37Z</time>
      </trkpt>
      <trkpt lat="44.331355970352888" lon="2.198205990716815">
        <ele>685.55999999999995</ele>
        <time>2025-04-25T13:13:38Z</time>
      </trkpt>
      <trkpt lat="44.331301990896463" lon="2.19817497767508">
        <ele>685.55999999999995</ele>
        <time>2025-04-25T13:13:39Z</time>
      </trkpt>
      <trkpt lat="44.331261003389955" lon="2.198037011548877">
        <ele>686.03999999999996</ele>
        <time>2025-04-25T13:13:40Z</time>
      </trkpt>
      <trkpt lat="44.331269972026348" lon="2.197929974645376">
        <ele>686.51999999999998</ele>
        <time>2025-04-25T13:13:41Z</time>
      </trkpt>
      <trkpt lat="44.331282963976264" lon="2.197789996862412">
        <ele>687.48000000000002</ele>
        <time>2025-04-25T13:13:42Z</time>
      </trkpt>
      <trkpt lat="44.331297967582941" lon="2.197625041007996">
        <ele>687.96000000000004</ele>
        <time>2025-04-25T13:13:43Z</time>
      </trkpt>
      <trkpt lat="44.331314982846379" lon="2.197023974731565">
        <ele>689.88</ele>
        <time>2025-04-25T13:13:46Z</time>
      </trkpt>
      <trkpt lat="44.331287993118167" lon="2.19679900445044">
        <ele>690.36000000000001</ele>
        <time>2025-04-25T13:13:47Z</time>
      </trkpt>
      <trkpt lat="44.331232002004981" lon="2.196567999199033">
        <ele>691.33000000000004</ele>
        <time>2025-04-25T13:13:48Z</time>
      </trkpt>
      <trkpt lat="44.331150026991963" lon="2.196353003382683">
        <ele>691.80999999999995</ele>
        <time>2025-04-25T13:13:49Z</time>
      </trkpt>
      <trkpt lat="44.33108096010983" lon="2.19613297842443">
        <ele>692.28999999999996</ele>
        <time>2025-04-25T13:13:50Z</time>
      </trkpt>
      <trkpt lat="44.330980964004993" lon="2.195940027013421">
        <ele>692.28999999999996</ele>
        <time>2025-04-25T13:13:51Z</time>
      </trkpt>
      <trkpt lat="44.330884991213679" lon="2.195755038410425">
        <ele>692.76999999999998</ele>
        <time>2025-04-25T13:13:52Z</time>
      </trkpt>
      <trkpt lat="44.330798992887139" lon="2.195591004565358">
        <ele>693.25</ele>
        <time>2025-04-25T13:13:53Z</time>
      </trkpt>
      <trkpt lat="44.330702014267445" lon="2.195464018732309">
        <ele>693.73000000000002</ele>
        <time>2025-04-25T13:13:54Z</time>
      </trkpt>
      <trkpt lat="44.330609980970621" lon="2.195343989878893">
        <ele>693.73000000000002</ele>
        <time>2025-04-25T13:13:55Z</time>
      </trkpt>
      <trkpt lat="44.329728959128261" lon="2.194225005805492">
        <ele>694.69000000000005</ele>
        <time>2025-04-25T13:14:03Z</time>
      </trkpt>
      <trkpt lat="44.329004008322954" lon="2.193310037255287">
        <ele>695.16999999999996</ele>
        <time>2025-04-25T13:14:09Z</time>
      </trkpt>
      <trkpt lat="44.328109994530678" lon="2.192353997379541">
        <ele>697.09000000000003</ele>
        <time>2025-04-25T13:14:14Z</time>
      </trkpt>
      <trkpt lat="44.326191041618586" lon="2.191058993339539">
        <ele>698.04999999999995</ele>
        <time>2025-04-25T13:14:24Z</time>
      </trkpt>
      <trkpt lat="44.323263997212052" lon="2.189177004620433">
        <ele>698.52999999999997</ele>
        <time>2025-04-25T13:14:38Z</time>
      </trkpt>
      <trkpt lat="44.32132501155138" lon="2.187543958425522">
        <ele>699.98000000000002</ele>
        <time>2025-04-25T13:14:47Z</time>
      </trkpt>
      <trkpt lat="44.319644020870328" lon="2.185249999165535">
        <ele>700.94000000000005</ele>
        <time>2025-04-25T13:14:56Z</time>
      </trkpt>
      <trkpt lat="44.317554999142885" lon="2.182134026661515">
        <ele>699.01999999999998</ele>
        <time>2025-04-25T13:15:08Z</time>
      </trkpt>
      <trkpt lat="44.316109959036112" lon="2.179977027699351">
        <ele>696.61000000000001</ele>
        <time>2025-04-25T13:15:17Z</time>
      </trkpt>
      <trkpt lat="44.314567018300295" lon="2.178014991804957">
        <ele>695.16999999999996</ele>
        <time>2025-04-25T13:15:27Z</time>
      </trkpt>
      <trkpt lat="44.313094988465309" lon="2.177050989121199">
        <ele>692.28999999999996</ele>
        <time>2025-04-25T13:15:35Z</time>
      </trkpt>
      <trkpt lat="44.309948002919555" lon="2.175108985975385">
        <ele>682.66999999999996</ele>
        <time>2025-04-25T13:15:51Z</time>
      </trkpt>
      <trkpt lat="44.308138014748693" lon="2.173982039093971">
        <ele>676.41999999999996</ele>
        <time>2025-04-25T13:16:01Z</time>
      </trkpt>
      <trkpt lat="44.307861998677254" lon="2.173791015520692">
        <ele>674.98000000000002</ele>
        <time>2025-04-25T13:16:04Z</time>
      </trkpt>
      <trkpt lat="44.30781195871532" lon="2.173866033554077">
        <ele>674.5</ele>
        <time>2025-04-25T13:16:05Z</time>
      </trkpt>
      <trkpt lat="44.30776895955205" lon="2.173929987475276">
        <ele>674.5</ele>
        <time>2025-04-25T13:16:06Z</time>
      </trkpt>
      <trkpt lat="44.307596040889621" lon="2.174167027696967">
        <ele>673.53999999999996</ele>
        <time>2025-04-25T13:16:09Z</time>
      </trkpt>
      <trkpt lat="44.307539965957403" lon="2.174241961911321">
        <ele>674.01999999999998</ele>
        <time>2025-04-25T13:16:10Z</time>
      </trkpt>
      <trkpt lat="44.307433012872934" lon="2.174252020195127">
        <ele>674.01999999999998</ele>
        <time>2025-04-25T13:16:11Z</time>
      </trkpt>
      <trkpt lat="44.307350032031536" lon="2.17426098883152">
        <ele>674.5</ele>
        <time>2025-04-25T13:16:12Z</time>
      </trkpt>
      <trkpt lat="44.307270990684628" lon="2.17421798966825">
        <ele>674.5</ele>
        <time>2025-04-25T13:16:13Z</time>
      </trkpt>
      <trkpt lat="44.30718700401485" lon="2.174148000776768">
        <ele>674.98000000000002</ele>
        <time>2025-04-25T13:16:14Z</time>
      </trkpt>
      <trkpt lat="44.307092959061265" lon="2.174069965258241">
        <ele>674.98000000000002</ele>
        <time>2025-04-25T13:16:15Z</time>
      </trkpt>
      <trkpt lat="44.306992962956429" lon="2.173985978588462">
        <ele>674.98000000000002</ele>
        <time>2025-04-25T13:16:16Z</time>
      </trkpt>
      <trkpt lat="44.30688600987196" lon="2.173920013010502">
        <ele>675.46000000000004</ele>
        <time>2025-04-25T13:16:17Z</time>
      </trkpt>
      <trkpt lat="44.306773021817207" lon="2.173875002190471">
        <ele>675.46000000000004</ele>
        <time>2025-04-25T13:16:18Z</time>
      </trkpt>
      <trkpt lat="44.30665098130703" lon="2.173825968056917">
        <ele>675.94000000000005</ele>
        <time>2025-04-25T13:16:19Z</time>
      </trkpt>
      <trkpt lat="44.306538999080658" lon="2.173838037997484">
        <ele>675.94000000000005</ele>
        <time>2025-04-25T13:16:20Z</time>
      </trkpt>
      <trkpt lat="44.30641402490437" lon="2.173880031332374">
        <ele>676.41999999999996</ele>
        <time>2025-04-25T13:16:21Z</time>
      </trkpt>
      <trkpt lat="44.30628402158618" lon="2.173924036324024">
        <ele>676.41999999999996</ele>
        <time>2025-04-25T13:16:22Z</time>
      </trkpt>
      <trkpt lat="44.306170027703047" lon="2.17400198802352">
        <ele>676.90999999999997</ele>
        <time>2025-04-25T13:16:23Z</time>
      </trkpt>
      <trkpt lat="44.306056033819914" lon="2.174115981906653">
        <ele>677.38999999999999</ele>
        <time>2025-04-25T13:16:24Z</time>
      </trkpt>
      <trkpt lat="44.305952014401555" lon="2.174227964133024">
        <ele>677.87</ele>
        <time>2025-04-25T13:16:25Z</time>
      </trkpt>
      <trkpt lat="44.305860986933112" lon="2.174354027956724">
        <ele>678.35000000000002</ele>
        <time>2025-04-25T13:16:26Z</time>
      </trkpt>
      <trkpt lat="44.305773982778192" lon="2.174468021839857">
        <ele>678.83000000000004</ele>
        <time>2025-04-25T13:16:27Z</time>
      </trkpt>
      <trkpt lat="44.305095970630646" lon="2.175314007326961">
        <ele>677.38999999999999</ele>
        <time>2025-04-25T13:16:33Z</time>
      </trkpt>
      <trkpt lat="44.303881013765931" lon="2.176582021638751">
        <ele>672.10000000000002</ele>
        <time>2025-04-25T13:16:41Z</time>
      </trkpt>
      <trkpt lat="44.303407017141581" lon="2.176836999133229">
        <ele>671.13999999999999</ele>
        <time>2025-04-25T13:16:44Z</time>
      </trkpt>
      <trkpt lat="44.303237032145262" lon="2.176873041316867">
        <ele>671.13999999999999</ele>
        <time>2025-04-25T13:16:45Z</time>
      </trkpt>
      <trkpt lat="44.302538987249136" lon="2.177028022706509">
        <ele>670.17999999999995</ele>
        <time>2025-04-25T13:16:49Z</time>
      </trkpt>
      <trkpt lat="44.302362967282534" lon="2.177101029083133">
        <ele>669.70000000000005</ele>
        <time>2025-04-25T13:16:50Z</time>
      </trkpt>
      <trkpt lat="44.302214020863175" lon="2.177218962460756">
        <ele>669.22000000000003</ele>
        <time>2025-04-25T13:16:51Z</time>
      </trkpt>
      <trkpt lat="44.302064990624785" lon="2.177357012405992">
        <ele>668.25</ele>
        <time>2025-04-25T13:16:52Z</time>
      </trkpt>
      <trkpt lat="44.301915960386395" lon="2.177493972703815">
        <ele>667.28999999999996</ele>
        <time>2025-04-25T13:16:53Z</time>
      </trkpt>
      <trkpt lat="44.301772965118289" lon="2.177634034305811">
        <ele>665.85000000000002</ele>
        <time>2025-04-25T13:16:54Z</time>
      </trkpt>
      <trkpt lat="44.30164497345686" lon="2.177821034565568">
        <ele>664.40999999999997</ele>
        <time>2025-04-25T13:16:55Z</time>
      </trkpt>
      <trkpt lat="44.301511030644178" lon="2.178017003461719">
        <ele>662.97000000000003</ele>
        <time>2025-04-25T13:16:56Z</time>
      </trkpt>
      <trkpt lat="44.300385005772114" lon="2.179936962202191">
        <ele>652.87</ele>
        <time>2025-04-25T13:17:05Z</time>
      </trkpt>
      <trkpt lat="44.299615966156125" lon="2.18119902536273">
        <ele>649.02999999999997</ele>
        <time>2025-04-25T13:17:12Z</time>
      </trkpt>
      <trkpt lat="44.299523010849953" lon="2.181276977062225">
        <ele>648.54999999999995</ele>
        <time>2025-04-25T13:17:13Z</time>
      </trkpt>
      <trkpt lat="44.299427038058639" lon="2.181311007589102">
        <ele>648.54999999999995</ele>
        <time>2025-04-25T13:17:14Z</time>
      </trkpt>
      <trkpt lat="44.299320001155138" lon="2.181318970397115">
        <ele>648.54999999999995</ele>
        <time>2025-04-25T13:17:15Z</time>
      </trkpt>
      <trkpt lat="44.299205001443624" lon="2.181299021467567">
        <ele>648.07000000000005</ele>
        <time>2025-04-25T13:17:16Z</time>
      </trkpt>
      <trkpt lat="44.299091007560492" lon="2.181272031739354">
        <ele>647.59000000000003</ele>
        <time>2025-04-25T13:17:17Z</time>
      </trkpt>
      <trkpt lat="44.298664033412933" lon="2.181168012320995">
        <ele>645.17999999999995</ele>
        <time>2025-04-25T13:17:21Z</time>
      </trkpt>
      <trkpt lat="44.298074031248689" lon="2.180957961827517">
        <ele>638.45000000000005</ele>
        <time>2025-04-25T13:17:27Z</time>
      </trkpt>
      <trkpt lat="44.297985015437007" lon="2.180937007069588">
        <ele>637.49000000000001</ele>
        <time>2025-04-25T13:17:28Z</time>
      </trkpt>
      <trkpt lat="44.297895999625325" lon="2.180939018726349">
        <ele>637.00999999999999</ele>
        <time>2025-04-25T13:17:29Z</time>
      </trkpt>
      <trkpt lat="44.297197032719851" lon="2.180957961827517">
        <ele>633.16999999999996</ele>
        <time>2025-04-25T13:17:37Z</time>
      </trkpt>
      <trkpt lat="44.297045990824699" lon="2.181008001789451">
        <ele>632.20000000000005</ele>
        <time>2025-04-25T13:17:39Z</time>
      </trkpt>
      <trkpt lat="44.296419024467468" lon="2.181397005915642">
        <ele>631.72000000000003</ele>
        <time>2025-04-25T13:17:46Z</time>
      </trkpt>
      <trkpt lat="44.296327996999025" lon="2.18143698759377">
        <ele>632.20000000000005</ele>
        <time>2025-04-25T13:17:47Z</time>
      </trkpt>
      <trkpt lat="44.296245016157627" lon="2.181474035605788">
        <ele>632.20000000000005</ele>
        <time>2025-04-25T13:17:48Z</time>
      </trkpt>
      <trkpt lat="44.296168992295861" lon="2.181507982313633">
        <ele>632.20000000000005</ele>
        <time>2025-04-25T13:17:49Z</time>
      </trkpt>
      <trkpt lat="44.296092968434095" lon="2.181538995355368">
        <ele>632.67999999999995</ele>
        <time>2025-04-25T13:17:50Z</time>
      </trkpt>
      <trkpt lat="44.295626012608409" lon="2.181641003116965">
        <ele>630.27999999999997</ele>
        <time>2025-04-25T13:17:56Z</time>
      </trkpt>
      <trkpt lat="44.295559041202068" lon="2.181666987016797">
        <ele>629.79999999999995</ele>
        <time>2025-04-25T13:17:57Z</time>
      </trkpt>
      <trkpt lat="44.295493997633457" lon="2.181695988401771">
        <ele>629.32000000000005</ele>
        <time>2025-04-25T13:17:58Z</time>
      </trkpt>
      <trkpt lat="44.29541596211493" lon="2.181730018928647">
        <ele>628.36000000000001</ele>
        <time>2025-04-25T13:17:59Z</time>
      </trkpt>
      <trkpt lat="44.295377992093563" lon="2.181761031970382">
        <ele>627.88</ele>
        <time>2025-04-25T13:18:00Z</time>
      </trkpt>
      <trkpt lat="44.295324012637138" lon="2.181804031133652">
        <ele>627.39999999999998</ele>
        <time>2025-04-25T13:18:01Z</time>
      </trkpt>
      <trkpt lat="44.295277995988727" lon="2.181840995326638">
        <ele>626.44000000000005</ele>
        <time>2025-04-25T13:18:02Z</time>
      </trkpt>
      <trkpt lat="44.295234996825457" lon="2.181876031681895">
        <ele>625.96000000000004</ele>
        <time>2025-04-25T13:18:03Z</time>
      </trkpt>
      <trkpt lat="44.295187974348664" lon="2.181921964511275">
        <ele>624.99000000000001</ele>
        <time>2025-04-25T13:18:04Z</time>
      </trkpt>
      <trkpt lat="44.295147992670536" lon="2.181982984766364">
        <ele>624.50999999999999</ele>
        <time>2025-04-25T13:18:05Z</time>
      </trkpt>
      <trkpt lat="44.294837024062872" lon="2.182428985834122">
        <ele>620.66999999999996</ele>
        <time>2025-04-25T13:18:12Z</time>
      </trkpt>
      <trkpt lat="44.294799976050854" lon="2.182473996654153">
        <ele>619.71000000000004</ele>
        <time>2025-04-25T13:18:13Z</time>
      </trkpt>
      <trkpt lat="44.294764017686248" lon="2.18251196667552">
        <ele>619.23000000000002</ele>
        <time>2025-04-25T13:18:14Z</time>
      </trkpt>
      <trkpt lat="44.294735016301274" lon="2.182539962232113">
        <ele>618.75</ele>
        <time>2025-04-25T13:18:15Z</time>
      </trkpt>
      <trkpt lat="44.294707020744681" lon="2.182568041607738">
        <ele>618.75</ele>
        <time>2025-04-25T13:18:16Z</time>
      </trkpt>
      <trkpt lat="44.294622028246522" lon="2.182653034105897">
        <ele>618.25999999999999</ele>
        <time>2025-04-25T13:18:17Z</time>
      </trkpt>
      <trkpt lat="44.29459503851831" lon="2.182522024959326">
        <ele>617.77999999999997</ele>
        <time>2025-04-25T13:18:18Z</time>
      </trkpt>
      <trkpt lat="44.294582968577743" lon="2.18246603384614">
        <ele>618.25999999999999</ele>
        <time>2025-04-25T13:18:19Z</time>
      </trkpt>
      <trkpt lat="44.294568970799446" lon="2.182399984449148">
        <ele>618.25999999999999</ele>
        <time>2025-04-25T13:18:20Z</time>
      </trkpt>
      <trkpt lat="44.294552961364388" lon="2.182323960587382">
        <ele>617.77999999999997</ele>
        <time>2025-04-25T13:18:21Z</time>
      </trkpt>
      <trkpt lat="44.294537035748363" lon="2.182245003059506">
        <ele>617.29999999999995</ele>
        <time>2025-04-25T13:18:22Z</time>
      </trkpt>
      <trkpt lat="44.294526977464557" lon="2.182174008339644">
        <ele>616.82000000000005</ele>
        <time>2025-04-25T13:18:23Z</time>
      </trkpt>
      <trkpt lat="44.294501999393106" lon="2.181993965059519">
        <ele>615.38</ele>
        <time>2025-04-25T13:18:26Z</time>
      </trkpt>
      <trkpt lat="44.294474003836513" lon="2.181787015870214">
        <ele>613.94000000000005</ele>
        <time>2025-04-25T13:18:31Z</time>
      </trkpt>
      <trkpt lat="44.294474003836513" lon="2.181787015870214">
        <ele>613.94000000000005</ele>
        <time>2025-04-25T13:18:33Z</time>
      </trkpt>
      <trkpt lat="44.294474003836513" lon="2.181787015870214">
        <ele>614.41999999999996</ele>
        <time>2025-04-25T13:18:45Z</time>
      </trkpt>
      <trkpt lat="44.294474003836513" lon="2.181787015870214">
        <ele>614.89999999999998</ele>
        <time>2025-04-25T13:18:54Z</time>
      </trkpt>
      <trkpt lat="44.294476015493274" lon="2.181805958971381">
        <ele>614.89999999999998</ele>
        <time>2025-04-25T13:18:56Z</time>
      </trkpt>
      <trkpt lat="44.294486995786428" lon="2.181882988661528">
        <ele>614.89999999999998</ele>
        <time>2025-04-25T13:18:57Z</time>
      </trkpt>
      <trkpt lat="44.294499987736344" lon="2.181982984766364">
        <ele>614.89999999999998</ele>
        <time>2025-04-25T13:18:58Z</time>
      </trkpt>
      <trkpt lat="44.294514991343021" lon="2.182092033326626">
        <ele>614.89999999999998</ele>
        <time>2025-04-25T13:18:59Z</time>
      </trkpt>
      <trkpt lat="44.294529994949698" lon="2.182194963097572">
        <ele>614.89999999999998</ele>
        <time>2025-04-25T13:19:00Z</time>
      </trkpt>
      <trkpt lat="44.294544998556376" lon="2.182285990566015">
        <ele>614.89999999999998</ele>
        <time>2025-04-25T13:19:01Z</time>
      </trkpt>
      <trkpt lat="44.294562013819814" lon="2.182364026084542">
        <ele>614.89999999999998</ele>
        <time>2025-04-25T13:19:02Z</time>
      </trkpt>
      <trkpt lat="44.29457500576973" lon="2.182428985834122">
        <ele>614.89999999999998</ele>
        <time>2025-04-25T13:19:03Z</time>
      </trkpt>
      <trkpt lat="44.294586991891265" lon="2.182483971118927">
        <ele>614.89999999999998</ele>
        <time>2025-04-25T13:19:04Z</time>
      </trkpt>
      <trkpt lat="44.294686987996101" lon="2.182587990537286">
        <ele>614.89999999999998</ele>
        <time>2025-04-25T13:19:05Z</time>
      </trkpt>
      <trkpt lat="44.294719006866217" lon="2.182556977495551">
        <ele>614.89999999999998</ele>
        <time>2025-04-25T13:19:06Z</time>
      </trkpt>
      <trkpt lat="44.294754965230823" lon="2.182521019130945">
        <ele>614.89999999999998</ele>
        <time>2025-04-25T13:19:07Z</time>
      </trkpt>
      <trkpt lat="44.29479100741446" lon="2.182484976947308">
        <ele>614.89999999999998</ele>
        <time>2025-04-25T13:19:08Z</time>
      </trkpt>
      <trkpt lat="44.294823026284575" lon="2.182447006925941">
        <ele>614.89999999999998</ele>
        <time>2025-04-25T13:19:09Z</time>
      </trkpt>
      <trkpt lat="44.294854961335659" lon="2.182408031076193">
        <ele>614.89999999999998</ele>
        <time>2025-04-25T13:19:10Z</time>
      </trkpt>
      <trkpt lat="44.294900977984071" lon="2.182352961972356">
        <ele>614.89999999999998</ele>
        <time>2025-04-25T13:19:11Z</time>
      </trkpt>
      <trkpt lat="44.294900977984071" lon="2.182322032749653">
        <ele>614.89999999999998</ele>
        <time>2025-04-25T13:19:12Z</time>
      </trkpt>
      <trkpt lat="44.294900977984071" lon="2.182288002222776">
        <ele>614.89999999999998</ele>
        <time>2025-04-25T13:19:13Z</time>
      </trkpt>
      <trkpt lat="44.294900977984071" lon="2.182267969474196">
        <ele>615.38</ele>
        <time>2025-04-25T13:19:14Z</time>
      </trkpt>
      <trkpt lat="44.294900977984071" lon="2.182255983352661">
        <ele>615.38</ele>
        <time>2025-04-25T13:19:15Z</time>
      </trkpt>
      <trkpt lat="44.294900977984071" lon="2.182255983352661">
        <ele>615.38</ele>
        <time>2025-04-25T13:19:28Z</time>
      </trkpt>
      <trkpt lat="44.294877005741" lon="2.182236034423113">
        <ele>615.38</ele>
        <time>2025-04-25T13:42:05Z</time>
      </trkpt>
      <trkpt lat="44.294881029054523" lon="2.182229999452829">
        <ele>614.89999999999998</ele>
        <time>2025-04-25T13:42:47Z</time>
      </trkpt>
      <trkpt lat="44.294883040711284" lon="2.182227987796068">
        <ele>614.89999999999998</ele>
        <time>2025-04-25T13:43:35Z</time>
      </trkpt>
      <trkpt lat="44.294883962720633" lon="2.182227987796068">
        <ele>615.38</ele>
        <time>2025-04-25T13:44:09Z</time>
      </trkpt>
      <trkpt lat="44.294885974377394" lon="2.182229999452829">
        <ele>615.38</ele>
        <time>2025-04-25T13:44:46Z</time>
      </trkpt>
      <trkpt lat="44.294905001297593" lon="2.182243997231126">
        <ele>615.86000000000001</ele>
        <time>2025-04-25T13:45:26Z</time>
      </trkpt>
      <trkpt lat="44.294905001297593" lon="2.182245003059506">
        <ele>616.34000000000003</ele>
        <time>2025-04-25T13:45:30Z</time>
      </trkpt>
      <trkpt lat="44.294900977984071" lon="2.182352961972356">
        <ele>617.77999999999997</ele>
        <time>2025-04-25T13:45:32Z</time>
      </trkpt>
      <trkpt lat="44.294867031276226" lon="2.182394033297896">
        <ele>618.25999999999999</ele>
        <time>2025-04-25T13:45:33Z</time>
      </trkpt>
      <trkpt lat="44.294755971059203" lon="2.182519007474184">
        <ele>618.25999999999999</ele>
        <time>2025-04-25T13:45:37Z</time>
      </trkpt>
      <trkpt lat="44.294730992987752" lon="2.182543985545635">
        <ele>618.25999999999999</ele>
        <time>2025-04-25T13:45:38Z</time>
      </trkpt>
      <trkpt lat="44.294707020744681" lon="2.182568041607738">
        <ele>618.25999999999999</ele>
        <time>2025-04-25T13:45:39Z</time>
      </trkpt>
      <trkpt lat="44.294587997719646" lon="2.182487994432449">
        <ele>617.77999999999997</ele>
        <time>2025-04-25T13:45:40Z</time>
      </trkpt>
      <trkpt lat="44.294578023254871" lon="2.182440971955657">
        <ele>617.29999999999995</ele>
        <time>2025-04-25T13:45:41Z</time>
      </trkpt>
      <trkpt lat="44.294567964971066" lon="2.182393027469516">
        <ele>617.29999999999995</ele>
        <time>2025-04-25T13:45:42Z</time>
      </trkpt>
      <trkpt lat="44.294557990506291" lon="2.182344999164343">
        <ele>616.82000000000005</ele>
        <time>2025-04-25T13:45:43Z</time>
      </trkpt>
      <trkpt lat="44.294548016041517" lon="2.182300994172692">
        <ele>616.82000000000005</ele>
        <time>2025-04-25T13:45:44Z</time>
      </trkpt>
      <trkpt lat="44.294476015493274" lon="2.181805036962032">
        <ele>613.46000000000004</ele>
        <time>2025-04-25T13:45:54Z</time>
      </trkpt>
      <trkpt lat="44.294466963037848" lon="2.18173798173666">
        <ele>613.46000000000004</ele>
        <time>2025-04-25T13:45:55Z</time>
      </trkpt>
      <trkpt lat="44.294375013560057" lon="2.181075979024172">
        <ele>611.05999999999995</ele>
        <time>2025-04-25T13:46:04Z</time>
      </trkpt>
      <trkpt lat="44.294157000258565" lon="2.18016997911036">
        <ele>609.61000000000001</ele>
        <time>2025-04-25T13:46:12Z</time>
      </trkpt>
      <trkpt lat="44.294111989438534" lon="2.18008004128933">
        <ele>609.61000000000001</ele>
        <time>2025-04-25T13:46:13Z</time>
      </trkpt>
      <trkpt lat="44.294053986668587" lon="2.179985996335745">
        <ele>609.61000000000001</ele>
        <time>2025-04-25T13:46:14Z</time>
      </trkpt>
      <trkpt lat="44.293531039729714" lon="2.179249981418252">
        <ele>607.69000000000005</ele>
        <time>2025-04-25T13:46:23Z</time>
      </trkpt>
      <trkpt lat="44.29294103756547" lon="2.178506003692746">
        <ele>604.33000000000004</ele>
        <time>2025-04-25T13:46:30Z</time>
      </trkpt>
      <trkpt lat="44.292839029803872" lon="2.178424028679729">
        <ele>603.36000000000001</ele>
        <time>2025-04-25T13:46:31Z</time>
      </trkpt>
      <trkpt lat="44.292740039527416" lon="2.17834398150444">
        <ele>602.88</ele>
        <time>2025-04-25T13:46:32Z</time>
      </trkpt>
      <trkpt lat="44.292634008452296" lon="2.17829997651279">
        <ele>602.39999999999998</ele>
        <time>2025-04-25T13:46:33Z</time>
      </trkpt>
      <trkpt lat="44.292522026225924" lon="2.178254965692759">
        <ele>601.91999999999996</ele>
        <time>2025-04-25T13:46:34Z</time>
      </trkpt>
      <trkpt lat="44.292404009029269" lon="2.178240967914462">
        <ele>601.91999999999996</ele>
        <time>2025-04-25T13:46:35Z</time>
      </trkpt>
      <trkpt lat="44.292272999882698" lon="2.178226970136166">
        <ele>601.91999999999996</ele>
        <time>2025-04-25T13:46:36Z</time>
      </trkpt>
      <trkpt lat="44.292133022099733" lon="2.178210960701108">
        <ele>601.91999999999996</ele>
        <time>2025-04-25T13:46:37Z</time>
      </trkpt>
      <trkpt lat="44.290916975587606" lon="2.178307017311454">
        <ele>600.96000000000004</ele>
        <time>2025-04-25T13:46:44Z</time>
      </trkpt>
      <trkpt lat="44.289648039266467" lon="2.178497035056353">
        <ele>601.91999999999996</ele>
        <time>2025-04-25T13:46:51Z</time>
      </trkpt>
      <trkpt lat="44.289513006806374" lon="2.178446995094419">
        <ele>602.39999999999998</ele>
        <time>2025-04-25T13:46:52Z</time>
      </trkpt>
      <trkpt lat="44.289369005709887" lon="2.178395027294755">
        <ele>602.39999999999998</ele>
        <time>2025-04-25T13:46:53Z</time>
      </trkpt>
      <trkpt lat="44.289058959111571" lon="2.178280027583242">
        <ele>601.91999999999996</ele>
        <time>2025-04-25T13:46:55Z</time>
      </trkpt>
      <trkpt lat="44.288899032399058" lon="2.178221018984914">
        <ele>601.91999999999996</ele>
        <time>2025-04-25T13:46:56Z</time>
      </trkpt>
      <trkpt lat="44.288738016039133" lon="2.178220013156533">
        <ele>601.91999999999996</ele>
        <time>2025-04-25T13:46:57Z</time>
      </trkpt>
      <trkpt lat="44.288585968315601" lon="2.178229987621307">
        <ele>601.91999999999996</ele>
        <time>2025-04-25T13:46:58Z</time>
      </trkpt>
      <trkpt lat="44.288445990532637" lon="2.178239040076733">
        <ele>601.91999999999996</ele>
        <time>2025-04-25T13:46:59Z</time>
      </trkpt>
      <trkpt lat="44.287706036120653" lon="2.178233005106449">
        <ele>601.91999999999996</ele>
        <time>2025-04-25T13:47:05Z</time>
      </trkpt>
      <trkpt lat="44.287209995090961" lon="2.178206015378237">
        <ele>604.33000000000004</ele>
        <time>2025-04-25T13:47:11Z</time>
      </trkpt>
      <trkpt lat="44.286887040361762" lon="2.178229987621307">
        <ele>605.28999999999996</ele>
        <time>2025-04-25T13:47:15Z</time>
      </trkpt>
      <trkpt lat="44.286806993186474" lon="2.178239040076733">
        <ele>605.76999999999998</ele>
        <time>2025-04-25T13:47:16Z</time>
      </trkpt>
      <trkpt lat="44.286645976826549" lon="2.178236022591591">
        <ele>605.76999999999998</ele>
        <time>2025-04-25T13:47:18Z</time>
      </trkpt>
      <trkpt lat="44.28658202290535" lon="2.178204003721476">
        <ele>605.76999999999998</ele>
        <time>2025-04-25T13:47:19Z</time>
      </trkpt>
      <trkpt lat="44.28651999682188" lon="2.17817198485136">
        <ele>606.25</ele>
        <time>2025-04-25T13:47:20Z</time>
      </trkpt>
      <trkpt lat="44.286459982395172" lon="2.178142983466387">
        <ele>606.25</ele>
        <time>2025-04-25T13:47:21Z</time>
      </trkpt>
      <trkpt lat="44.286426035687327" lon="2.178124962374568">
        <ele>606.25</ele>
        <time>2025-04-25T13:47:22Z</time>
      </trkpt>
      <trkpt lat="44.286361997947097" lon="2.178053967654705">
        <ele>606.25</ele>
        <time>2025-04-25T13:47:23Z</time>
      </trkpt>
      <trkpt lat="44.286313969641924" lon="2.178000994026661">
        <ele>606.25</ele>
        <time>2025-04-25T13:47:24Z</time>
      </trkpt>
      <trkpt lat="44.286266025155783" lon="2.177948020398617">
        <ele>606.25</ele>
        <time>2025-04-25T13:47:25Z</time>
      </trkpt>
      <trkpt lat="44.28621900267899" lon="2.177895968779922">
        <ele>606.25</ele>
        <time>2025-04-25T13:47:26Z</time>
      </trkpt>
      <trkpt lat="44.286173991858959" lon="2.177845006808639">
        <ele>606.25</ele>
        <time>2025-04-25T13:47:27Z</time>
      </trkpt>
      <trkpt lat="44.286082964390516" lon="2.177745010703802">
        <ele>606.25</ele>
        <time>2025-04-25T13:47:29Z</time>
      </trkpt>
      <trkpt lat="44.286028984934092" lon="2.177689019590616">
        <ele>606.25</ele>
        <time>2025-04-25T13:47:30Z</time>
      </trkpt>
      <trkpt lat="44.285905016586185" lon="2.177600003778935">
        <ele>606.25</ele>
        <time>2025-04-25T13:47:32Z</time>
      </trkpt>
      <trkpt lat="44.285589018836617" lon="2.17737402766943">
        <ele>605.76999999999998</ele>
        <time>2025-04-25T13:47:37Z</time>
      </trkpt>
      <trkpt lat="44.285486005246639" lon="2.177338991314173">
        <ele>605.76999999999998</ele>
        <time>2025-04-25T13:47:38Z</time>
      </trkpt>
      <trkpt lat="44.284438015893102" lon="2.177014024928212">
        <ele>609.13</ele>
        <time>2025-04-25T13:47:51Z</time>
      </trkpt>
      <trkpt lat="44.284028979018331" lon="2.176872035488486">
        <ele>608.64999999999998</ele>
        <time>2025-04-25T13:47:56Z</time>
      </trkpt>
      <trkpt lat="44.283846002072096" lon="2.176807997748256">
        <ele>608.64999999999998</ele>
        <time>2025-04-25T13:47:58Z</time>
      </trkpt>
      <trkpt lat="44.283338980749249" lon="2.17640801332891">
        <ele>603.36000000000001</ele>
        <time>2025-04-25T13:48:04Z</time>
      </trkpt>
      <trkpt lat="44.282739004120231" lon="2.175912978127599">
        <ele>594.23000000000002</ele>
        <time>2025-04-25T13:48:12Z</time>
      </trkpt>
      <trkpt lat="44.282671026885509" lon="2.175857992842794">
        <ele>593.26999999999998</ele>
        <time>2025-04-25T13:48:13Z</time>
      </trkpt>
      <trkpt lat="44.282162999734282" lon="2.175437975674868">
        <ele>586.53999999999996</ele>
        <time>2025-04-25T13:48:20Z</time>
      </trkpt>
      <trkpt lat="44.2820930108428" lon="2.175379972904921">
        <ele>586.05999999999995</ele>
        <time>2025-04-25T13:48:21Z</time>
      </trkpt>
      <trkpt lat="44.282015981152654" lon="2.175364969298244">
        <ele>585.58000000000004</ele>
        <time>2025-04-25T13:48:22Z</time>
      </trkpt>
      <trkpt lat="44.281937023624778" lon="2.175349965691567">
        <ele>585.58000000000004</ele>
        <time>2025-04-25T13:48:23Z</time>
      </trkpt>
      <trkpt lat="44.281854964792728" lon="2.175334962084889">
        <ele>585.10000000000002</ele>
        <time>2025-04-25T13:48:24Z</time>
      </trkpt>
      <trkpt lat="44.28174801170826" lon="2.175314007326961">
        <ele>585.10000000000002</ele>
        <time>2025-04-25T13:48:25Z</time>
      </trkpt>
      <trkpt lat="44.281693026423454" lon="2.175332028418779">
        <ele>585.10000000000002</ele>
        <time>2025-04-25T13:48:26Z</time>
      </trkpt>
      <trkpt lat="44.281627982854843" lon="2.175352983176708">
        <ele>584.62</ele>
        <time>2025-04-25T13:48:27Z</time>
      </trkpt>
      <trkpt lat="44.281423967331648" lon="2.1754190325737">
        <ele>584.13999999999999</ele>
        <time>2025-04-25T13:48:30Z</time>
      </trkpt>
      <trkpt lat="44.281136970967054" lon="2.175510982051492">
        <ele>584.13999999999999</ele>
        <time>2025-04-25T13:48:34Z</time>
      </trkpt>
      <trkpt lat="44.28108299151063" lon="2.175529003143311">
        <ele>583.65999999999997</ele>
        <time>2025-04-25T13:48:35Z</time>
      </trkpt>
      <trkpt lat="44.281027000397444" lon="2.175512993708253">
        <ele>583.17999999999995</ele>
        <time>2025-04-25T13:48:36Z</time>
      </trkpt>
      <trkpt lat="44.280947037041187" lon="2.175489021465182">
        <ele>582.70000000000005</ele>
        <time>2025-04-25T13:48:37Z</time>
      </trkpt>
      <trkpt lat="44.280858021229506" lon="2.175463037565351">
        <ele>582.70000000000005</ele>
        <time>2025-04-25T13:48:38Z</time>
      </trkpt>
      <trkpt lat="44.280766993761063" lon="2.175435964018107">
        <ele>582.70000000000005</ele>
        <time>2025-04-25T13:48:39Z</time>
      </trkpt>
      <trkpt lat="44.2802469804883" lon="2.175225997343659">
        <ele>583.17999999999995</ele>
        <time>2025-04-25T13:48:45Z</time>
      </trkpt>
      <trkpt lat="44.280171962454915" lon="2.17516397126019">
        <ele>583.17999999999995</ele>
        <time>2025-04-25T13:48:46Z</time>
      </trkpt>
      <trkpt lat="44.280087975785136" lon="2.175087025389075">
        <ele>583.65999999999997</ele>
        <time>2025-04-25T13:48:47Z</time>
      </trkpt>
      <trkpt lat="44.279651027172804" lon="2.17428001575172">
        <ele>583.65999999999997</ele>
        <time>2025-04-25T13:48:55Z</time>
      </trkpt>
      <trkpt lat="44.2795579880476" lon="2.17410801909864">
        <ele>583.17999999999995</ele>
        <time>2025-04-25T13:48:57Z</time>
      </trkpt>
      <trkpt lat="44.279505014419556" lon="2.17404498718679">
        <ele>583.17999999999995</ele>
        <time>2025-04-25T13:48:58Z</time>
      </trkpt>
      <trkpt lat="44.279375011101365" lon="2.173944991081953">
        <ele>582.70000000000005</ele>
        <time>2025-04-25T13:49:00Z</time>
      </trkpt>
      <trkpt lat="44.279306028038263" lon="2.173891011625528">
        <ele>582.70000000000005</ele>
        <time>2025-04-25T13:49:01Z</time>
      </trkpt>
      <trkpt lat="44.2792350333184" lon="2.173836026340723">
        <ele>583.17999999999995</ele>
        <time>2025-04-25T13:49:02Z</time>
      </trkpt>
      <trkpt lat="44.278787020593882" lon="2.173491027206183">
        <ele>584.13999999999999</ele>
        <time>2025-04-25T13:49:10Z</time>
      </trkpt>
      <trkpt lat="44.278522990643978" lon="2.173282988369465">
        <ele>585.10000000000002</ele>
        <time>2025-04-25T13:49:17Z</time>
      </trkpt>
      <trkpt lat="44.278494995087385" lon="2.173261027783155">
        <ele>585.58000000000004</ele>
        <time>2025-04-25T13:49:19Z</time>
      </trkpt>
      <trkpt lat="44.27863497287035" lon="2.173095988109708">
        <ele>586.05999999999995</ele>
        <time>2025-04-25T13:49:21Z</time>
      </trkpt>
      <trkpt lat="44.278474040329456" lon="2.173306960612536">
        <ele>586.05999999999995</ele>
        <time>2025-04-25T13:49:22Z</time>
      </trkpt>
      <trkpt lat="44.278396004810929" lon="2.174125034362078">
        <ele>584.62</ele>
        <time>2025-04-25T13:49:26Z</time>
      </trkpt>
      <trkpt lat="44.278289973735809" lon="2.174198040738702">
        <ele>583.65999999999997</ele>
        <time>2025-04-25T13:49:27Z</time>
      </trkpt>
      <trkpt lat="44.278171034529805" lon="2.174279009923339">
        <ele>583.17999999999995</ele>
        <time>2025-04-25T13:49:28Z</time>
      </trkpt>
      <trkpt lat="44.278039019554853" lon="2.174368025735021">
        <ele>582.22000000000003</ele>
        <time>2025-04-25T13:49:29Z</time>
      </trkpt>
      <trkpt lat="44.277894012629986" lon="2.174467016011477">
        <ele>581.25</ele>
        <time>2025-04-25T13:49:30Z</time>
      </trkpt>
      <trkpt lat="44.277280960232019" lon="2.174928020685911">
        <ele>576.45000000000005</ele>
        <time>2025-04-25T13:49:34Z</time>
      </trkpt>
      <trkpt lat="44.277133019641042" lon="2.175059029832482">
        <ele>575.49000000000001</ele>
        <time>2025-04-25T13:49:35Z</time>
      </trkpt>
      <trkpt lat="44.277022965252399" lon="2.17524703592062">
        <ele>574.03999999999996</ele>
        <time>2025-04-25T13:49:36Z</time>
      </trkpt>
      <trkpt lat="44.276924980804324" lon="2.175458008423448">
        <ele>573.08000000000004</ele>
        <time>2025-04-25T13:49:37Z</time>
      </trkpt>
      <trkpt lat="44.276832025498152" lon="2.175680967047811">
        <ele>571.63999999999999</ele>
        <time>2025-04-25T13:49:38Z</time>
      </trkpt>
      <trkpt lat="44.276477973908186" lon="2.176646981388331">
        <ele>565.38999999999999</ele>
        <time>2025-04-25T13:49:42Z</time>
      </trkpt>
      <trkpt lat="44.276103973388672" lon="2.178061008453369">
        <ele>557.70000000000005</ele>
        <time>2025-04-25T13:49:47Z</time>
      </trkpt>
      <trkpt lat="44.275983022525907" lon="2.178223030641675">
        <ele>555.77999999999997</ele>
        <time>2025-04-25T13:49:48Z</time>
      </trkpt>
      <trkpt lat="44.275911021977663" lon="2.178319003432989">
        <ele>554.34000000000003</ele>
        <time>2025-04-25T13:49:49Z</time>
      </trkpt>
      <trkpt lat="44.275742964819074" lon="2.178417993709445">
        <ele>552.40999999999997</ele>
        <time>2025-04-25T13:49:50Z</time>
      </trkpt>
      <trkpt lat="44.275577003136277" lon="2.178516983985901">
        <ele>551.45000000000005</ele>
        <time>2025-04-25T13:49:51Z</time>
      </trkpt>
      <trkpt lat="44.275399977341294" lon="2.17862200923264">
        <ele>550.00999999999999</ele>
        <time>2025-04-25T13:49:52Z</time>
      </trkpt>
      <trkpt lat="44.275229992344975" lon="2.178723011165857">
        <ele>548.09000000000003</ele>
        <time>2025-04-25T13:49:53Z</time>
      </trkpt>
      <trkpt lat="44.275084985420108" lon="2.178928032517433">
        <ele>546.16999999999996</ele>
        <time>2025-04-25T13:49:54Z</time>
      </trkpt>
      <trkpt lat="44.274977026507258" lon="2.1791369933635">
        <ele>544.24000000000001</ele>
        <time>2025-04-25T13:49:55Z</time>
      </trkpt>
      <trkpt lat="44.274881975725293" lon="2.179363975301385">
        <ele>541.84000000000003</ele>
        <time>2025-04-25T13:49:56Z</time>
      </trkpt>
      <trkpt lat="44.274786002933979" lon="2.179635968059301">
        <ele>539.91999999999996</ele>
        <time>2025-04-25T13:49:57Z</time>
      </trkpt>
      <trkpt lat="44.274414014071226" lon="2.1807049959898">
        <ele>529.34000000000003</ele>
        <time>2025-04-25T13:50:02Z</time>
      </trkpt>
      <trkpt lat="44.274335978552699" lon="2.180776996538043">
        <ele>526.94000000000005</ele>
        <time>2025-04-25T13:50:03Z</time>
      </trkpt>
      <trkpt lat="44.274227013811469" lon="2.180799962952733">
        <ele>525.01999999999998</ele>
        <time>2025-04-25T13:50:04Z</time>
      </trkpt>
      <trkpt lat="44.274098016321659" lon="2.180767022073269">
        <ele>522.61000000000001</ele>
        <time>2025-04-25T13:50:05Z</time>
      </trkpt>
      <trkpt lat="44.273934988304973" lon="2.18068496324122">
        <ele>520.69000000000005</ele>
        <time>2025-04-25T13:50:06Z</time>
      </trkpt>
      <trkpt lat="44.273786041885614" lon="2.18055403791368">
        <ele>518.28999999999996</ele>
        <time>2025-04-25T13:50:07Z</time>
      </trkpt>
      <trkpt lat="44.273122027516365" lon="2.179970992729068">
        <ele>508.19</ele>
        <time>2025-04-25T13:50:11Z</time>
      </trkpt>
      <trkpt lat="44.272948019206524" lon="2.179883988574147">
        <ele>505.79000000000002</ele>
        <time>2025-04-25T13:50:12Z</time>
      </trkpt>
      <trkpt lat="44.272765964269638" lon="2.179792961105704">
        <ele>502.91000000000003</ele>
        <time>2025-04-25T13:50:13Z</time>
      </trkpt>
      <trkpt lat="44.272419959306717" lon="2.179626999422908">
        <ele>498.57999999999998</ele>
        <time>2025-04-25T13:50:15Z</time>
      </trkpt>
      <trkpt lat="44.272241005674005" lon="2.179539995267987">
        <ele>496.66000000000003</ele>
        <time>2025-04-25T13:50:16Z</time>
      </trkpt>
      <trkpt lat="44.272132040932775" lon="2.179363975301385">
        <ele>494.74000000000001</ele>
        <time>2025-04-25T13:50:17Z</time>
      </trkpt>
      <trkpt lat="44.271901035681367" lon="2.17898896895349">
        <ele>490.88999999999999</ele>
        <time>2025-04-25T13:50:19Z</time>
      </trkpt>
      <trkpt lat="44.271790981292725" lon="2.178812026977539">
        <ele>488.97000000000003</ele>
        <time>2025-04-25T13:50:20Z</time>
      </trkpt>
      <trkpt lat="44.271634994074702" lon="2.178711025044322">
        <ele>487.52999999999997</ele>
        <time>2025-04-25T13:50:21Z</time>
      </trkpt>
      <trkpt lat="44.270930998027325" lon="2.178252032026649">
        <ele>483.68000000000001</ele>
        <time>2025-04-25T13:50:25Z</time>
      </trkpt>
      <trkpt lat="44.270781967788935" lon="2.178124040365219">
        <ele>482.72000000000003</ele>
        <time>2025-04-25T13:50:26Z</time>
      </trkpt>
      <trkpt lat="44.270690018311143" lon="2.177939973771572">
        <ele>482.24000000000001</ele>
        <time>2025-04-25T13:50:27Z</time>
      </trkpt>
      <trkpt lat="44.270400004461408" lon="2.17742096632719">
        <ele>481.27999999999997</ele>
        <time>2025-04-25T13:50:30Z</time>
      </trkpt>
      <trkpt lat="44.270288022235036" lon="2.177307978272438">
        <ele>481.27999999999997</ele>
        <time>2025-04-25T13:50:31Z</time>
      </trkpt>
      <trkpt lat="44.270147960633039" lon="2.177255004644394">
        <ele>481.75999999999999</ele>
        <time>2025-04-25T13:50:32Z</time>
      </trkpt>
      <trkpt lat="44.269993985071778" lon="2.177212005481124">
        <ele>482.24000000000001</ele>
        <time>2025-04-25T13:50:33Z</time>
      </trkpt>
      <trkpt lat="44.269832968711853" lon="2.177189039066434">
        <ele>482.72000000000003</ele>
        <time>2025-04-25T13:50:34Z</time>
      </trkpt>
      <trkpt lat="44.269668012857437" lon="2.177214017137885">
        <ele>483.19999999999999</ele>
        <time>2025-04-25T13:50:35Z</time>
      </trkpt>
      <trkpt lat="44.269496016204357" lon="2.177266990765929">
        <ele>483.19999999999999</ele>
        <time>2025-04-25T13:50:36Z</time>
      </trkpt>
      <trkpt lat="44.269337011501193" lon="2.177330022677779">
        <ele>482.72000000000003</ele>
        <time>2025-04-25T13:50:37Z</time>
      </trkpt>
      <trkpt lat="44.269181024283171" lon="2.177433036267757">
        <ele>482.24000000000001</ele>
        <time>2025-04-25T13:50:38Z</time>
      </trkpt>
      <trkpt lat="44.269031994044781" lon="2.177551975473762">
        <ele>481.75999999999999</ele>
        <time>2025-04-25T13:50:39Z</time>
      </trkpt>
      <trkpt lat="44.268882963806391" lon="2.177715003490448">
        <ele>482.24000000000001</ele>
        <time>2025-04-25T13:50:40Z</time>
      </trkpt>
      <trkpt lat="44.268755977973342" lon="2.177887000143528">
        <ele>482.72000000000003</ele>
        <time>2025-04-25T13:50:41Z</time>
      </trkpt>
      <trkpt lat="44.268638966605067" lon="2.178109958767891">
        <ele>483.68000000000001</ele>
        <time>2025-04-25T13:50:42Z</time>
      </trkpt>
      <trkpt lat="44.26853402517736" lon="2.178330989554524">
        <ele>484.63999999999999</ele>
        <time>2025-04-25T13:50:43Z</time>
      </trkpt>
      <trkpt lat="44.267930025234818" lon="2.179595986381173">
        <ele>493.76999999999998</ele>
        <time>2025-04-25T13:50:49Z</time>
      </trkpt>
      <trkpt lat="44.267843021079898" lon="2.179734958335757">
        <ele>494.74000000000001</ele>
        <time>2025-04-25T13:50:50Z</time>
      </trkpt>
      <trkpt lat="44.26772098056972" lon="2.179816011339426">
        <ele>496.18000000000001</ele>
        <time>2025-04-25T13:50:51Z</time>
      </trkpt>
      <trkpt lat="44.267586031928658" lon="2.179906032979488">
        <ele>497.13999999999999</ele>
        <time>2025-04-25T13:50:52Z</time>
      </trkpt>
      <trkpt lat="44.267446976155043" lon="2.179901003837585">
        <ele>498.10000000000002</ele>
        <time>2025-04-25T13:50:53Z</time>
      </trkpt>
      <trkpt lat="44.267314961180091" lon="2.179829003289342">
        <ele>499.06</ele>
        <time>2025-04-25T13:50:54Z</time>
      </trkpt>
      <trkpt lat="44.267173977568746" lon="2.179690031334758">
        <ele>500.01999999999998</ele>
        <time>2025-04-25T13:50:55Z</time>
      </trkpt>
      <trkpt lat="44.267078004777431" lon="2.179508982226253">
        <ele>501.45999999999998</ele>
        <time>2025-04-25T13:50:56Z</time>
      </trkpt>
      <trkpt lat="44.266972979530692" lon="2.179314019158483">
        <ele>502.91000000000003</ele>
        <time>2025-04-25T13:50:57Z</time>
      </trkpt>
      <trkpt lat="44.266866026446223" lon="2.17911402694881">
        <ele>503.87</ele>
        <time>2025-04-25T13:50:58Z</time>
      </trkpt>
      <trkpt lat="44.266762007027864" lon="2.178918980062008">
        <ele>505.31</ele>
        <time>2025-04-25T13:50:59Z</time>
      </trkpt>
      <trkpt lat="44.266639966517687" lon="2.178787970915437">
        <ele>506.75</ele>
        <time>2025-04-25T13:51:00Z</time>
      </trkpt>
      <trkpt lat="44.266449026763439" lon="2.178640030324459">
        <ele>508.19</ele>
        <time>2025-04-25T13:51:01Z</time>
      </trkpt>
      <trkpt lat="44.266334027051926" lon="2.178624020889401">
        <ele>509.63999999999999</ele>
        <time>2025-04-25T13:51:02Z</time>
      </trkpt>
      <trkpt lat="44.266175022348762" lon="2.178656961768866">
        <ele>510.60000000000002</ele>
        <time>2025-04-25T13:51:03Z</time>
      </trkpt>
      <trkpt lat="44.266013000160456" lon="2.178711025044322">
        <ele>512.03999999999996</ele>
        <time>2025-04-25T13:51:04Z</time>
      </trkpt>
      <trkpt lat="44.265874028205872" lon="2.1788589656353">
        <ele>513.96000000000004</ele>
        <time>2025-04-25T13:51:05Z</time>
      </trkpt>
      <trkpt lat="44.265732038766146" lon="2.179010007530451">
        <ele>515.88</ele>
        <time>2025-04-25T13:51:06Z</time>
      </trkpt>
      <trkpt lat="44.265600023791194" lon="2.179192984476686">
        <ele>517.33000000000004</ele>
        <time>2025-04-25T13:51:07Z</time>
      </trkpt>
      <trkpt lat="44.264960987493396" lon="2.180214989930391">
        <ele>525.98000000000002</ele>
        <time>2025-04-25T13:51:12Z</time>
      </trkpt>
      <trkpt lat="44.264805000275373" lon="2.180356979370117">
        <ele>526.94000000000005</ele>
        <time>2025-04-25T13:51:13Z</time>
      </trkpt>
      <trkpt lat="44.264643983915448" lon="2.180471979081631">
        <ele>528.38</ele>
        <time>2025-04-25T13:51:14Z</time>
      </trkpt>
      <trkpt lat="44.264453966170549" lon="2.180505003780127">
        <ele>529.82000000000005</ele>
        <time>2025-04-25T13:51:15Z</time>
      </trkpt>
      <trkpt lat="44.264252968132496" lon="2.180526964366436">
        <ele>531.26999999999998</ele>
        <time>2025-04-25T13:51:16Z</time>
      </trkpt>
      <trkpt lat="44.264061022549868" lon="2.180548002943397">
        <ele>532.23000000000002</ele>
        <time>2025-04-25T13:51:17Z</time>
      </trkpt>
      <trkpt lat="44.263887014240026" lon="2.180628972128034">
        <ele>533.19000000000005</ele>
        <time>2025-04-25T13:51:18Z</time>
      </trkpt>
      <trkpt lat="44.263712000101805" lon="2.180736009031534">
        <ele>533.66999999999996</ele>
        <time>2025-04-25T13:51:19Z</time>
      </trkpt>
      <trkpt lat="44.263546038419008" lon="2.180896019563079">
        <ele>535.11000000000001</ele>
        <time>2025-04-25T13:51:20Z</time>
      </trkpt>
      <trkpt lat="44.263393990695477" lon="2.181086959317327">
        <ele>536.54999999999995</ele>
        <time>2025-04-25T13:51:21Z</time>
      </trkpt>
      <trkpt lat="44.262124970555305" lon="2.182901976630092">
        <ele>552.40999999999997</ele>
        <time>2025-04-25T13:51:30Z</time>
      </trkpt>
      <trkpt lat="44.261761028319597" lon="2.183386031538248">
        <ele>556.74000000000001</ele>
        <time>2025-04-25T13:51:33Z</time>
      </trkpt>
      <trkpt lat="44.261604035273194" lon="2.183484015986323">
        <ele>557.70000000000005</ele>
        <time>2025-04-25T13:51:34Z</time>
      </trkpt>
      <trkpt lat="44.261432038620114" lon="2.183577977120876">
        <ele>558.17999999999995</ele>
        <time>2025-04-25T13:51:35Z</time>
      </trkpt>
      <trkpt lat="44.26028598099947" lon="2.184151969850063">
        <ele>563.47000000000003</ele>
        <time>2025-04-25T13:51:41Z</time>
      </trkpt>
      <trkpt lat="44.260096969082952" lon="2.184305023401976">
        <ele>564.42999999999995</ele>
        <time>2025-04-25T13:51:42Z</time>
      </trkpt>
      <trkpt lat="44.259945005178452" lon="2.184493029490113">
        <ele>564.90999999999997</ele>
        <time>2025-04-25T13:51:43Z</time>
      </trkpt>
      <trkpt lat="44.258431987836957" lon="2.186566963791847">
        <ele>565.87</ele>
        <time>2025-04-25T13:51:52Z</time>
      </trkpt>
      <trkpt lat="44.257454993203282" lon="2.187971016392112">
        <ele>565.87</ele>
        <time>2025-04-25T13:51:58Z</time>
      </trkpt>
      <trkpt lat="44.257270004600286" lon="2.188109988346696">
        <ele>565.87</ele>
        <time>2025-04-25T13:51:59Z</time>
      </trkpt>
      <trkpt lat="44.257085015997291" lon="2.188248038291931">
        <ele>565.87</ele>
        <time>2025-04-25T13:52:00Z</time>
      </trkpt>
      <trkpt lat="44.256887035444379" lon="2.188374018296599">
        <ele>565.87</ele>
        <time>2025-04-25T13:52:01Z</time>
      </trkpt>
      <trkpt lat="44.256677990779281" lon="2.188468985259533">
        <ele>566.35000000000002</ele>
        <time>2025-04-25T13:52:02Z</time>
      </trkpt>
      <trkpt lat="44.256255961954594" lon="2.188661014661193">
        <ele>565.87</ele>
        <time>2025-04-25T13:52:04Z</time>
      </trkpt>
      <trkpt lat="44.256093017756939" lon="2.188796969130635">
        <ele>565.38999999999999</ele>
        <time>2025-04-25T13:52:05Z</time>
      </trkpt>
      <trkpt lat="44.255389021709561" lon="2.189442040398717">
        <ele>565.38999999999999</ele>
        <time>2025-04-25T13:52:10Z</time>
      </trkpt>
      <trkpt lat="44.2552799731493" lon="2.18955704011023">
        <ele>565.38999999999999</ele>
        <time>2025-04-25T13:52:11Z</time>
      </trkpt>
      <trkpt lat="44.255189029499888" lon="2.189695006236434">
        <ele>565.87</ele>
        <time>2025-04-25T13:52:12Z</time>
      </trkpt>
      <trkpt lat="44.25510797649622" lon="2.189819980412722">
        <ele>565.87</ele>
        <time>2025-04-25T13:52:13Z</time>
      </trkpt>
      <trkpt lat="44.255032036453485" lon="2.189935985952616">
        <ele>565.87</ele>
        <time>2025-04-25T13:52:14Z</time>
      </trkpt>
      <trkpt lat="44.254448991268873" lon="2.190665965899825">
        <ele>567.32000000000005</ele>
        <time>2025-04-25T13:52:21Z</time>
      </trkpt>
      <trkpt lat="44.254368022084236" lon="2.190730003640056">
        <ele>567.79999999999995</ele>
        <time>2025-04-25T13:52:22Z</time>
      </trkpt>
      <trkpt lat="44.254279006272554" lon="2.190765962004662">
        <ele>567.32000000000005</ele>
        <time>2025-04-25T13:52:23Z</time>
      </trkpt>
      <trkpt lat="44.254184039309621" lon="2.190768979489803">
        <ele>566.83000000000004</ele>
        <time>2025-04-25T13:52:24Z</time>
      </trkpt>
      <trkpt lat="44.254084965214133" lon="2.190773002803326">
        <ele>566.35000000000002</ele>
        <time>2025-04-25T13:52:25Z</time>
      </trkpt>
      <trkpt lat="44.253686992451549" lon="2.190788006410003">
        <ele>564.42999999999995</ele>
        <time>2025-04-25T13:52:29Z</time>
      </trkpt>
      <trkpt lat="44.252849975600839" lon="2.190822958946228">
        <ele>561.54999999999995</ele>
        <time>2025-04-25T13:52:35Z</time>
      </trkpt>
      <trkpt lat="44.251037975773215" lon="2.190716005861759">
        <ele>559.62</ele>
        <time>2025-04-25T13:52:44Z</time>
      </trkpt>
      <trkpt lat="44.248117972165346" lon="2.190362038090825">
        <ele>565.38999999999999</ele>
        <time>2025-04-25T13:52:57Z</time>
      </trkpt>
      <trkpt lat="44.246076978743076" lon="2.18981402926147">
        <ele>557.22000000000003</ele>
        <time>2025-04-25T13:53:06Z</time>
      </trkpt>
      <trkpt lat="44.24586902372539" lon="2.189675979316235">
        <ele>556.25999999999999</ele>
        <time>2025-04-25T13:53:07Z</time>
      </trkpt>
      <trkpt lat="44.245670959353447" lon="2.189522003754973">
        <ele>554.82000000000005</ele>
        <time>2025-04-25T13:53:08Z</time>
      </trkpt>
      <trkpt lat="44.244893034920096" lon="2.188948011025786">
        <ele>550.97000000000003</ele>
        <time>2025-04-25T13:53:12Z</time>
      </trkpt>
      <trkpt lat="44.244680972769856" lon="2.188858995214105">
        <ele>550.49000000000001</ele>
        <time>2025-04-25T13:53:13Z</time>
      </trkpt>
      <trkpt lat="44.244463965296745" lon="2.188767967745662">
        <ele>550.00999999999999</ele>
        <time>2025-04-25T13:53:14Z</time>
      </trkpt>
      <trkpt lat="44.243646981194615" lon="2.188598988577724">
        <ele>547.61000000000001</ele>
        <time>2025-04-25T13:53:18Z</time>
      </trkpt>
      <trkpt lat="44.243449000641704" lon="2.188635030761361">
        <ele>547.13</ele>
        <time>2025-04-25T13:53:19Z</time>
      </trkpt>
      <trkpt lat="44.243242973461747" lon="2.188694039359689">
        <ele>546.16999999999996</ele>
        <time>2025-04-25T13:53:20Z</time>
      </trkpt>
      <trkpt lat="44.242163971066475" lon="2.189052030444145">
        <ele>544.24000000000001</ele>
        <time>2025-04-25T13:53:25Z</time>
      </trkpt>
      <trkpt lat="44.241943024098873" lon="2.189101986587048">
        <ele>544.24000000000001</ele>
        <time>2025-04-25T13:53:26Z</time>
      </trkpt>
      <trkpt lat="44.24107801169157" lon="2.189058987423778">
        <ele>542.32000000000005</ele>
        <time>2025-04-25T13:53:30Z</time>
      </trkpt>
      <trkpt lat="44.240890005603433" lon="2.189189996570349">
        <ele>541.36000000000001</ele>
        <time>2025-04-25T13:53:31Z</time>
      </trkpt>
      <trkpt lat="44.240725971758366" lon="2.189342966303229">
        <ele>540.88</ele>
        <time>2025-04-25T13:53:32Z</time>
      </trkpt>
      <trkpt lat="44.240552969276905" lon="2.189502976834774">
        <ele>539.91999999999996</ele>
        <time>2025-04-25T13:53:33Z</time>
      </trkpt>
      <trkpt lat="44.240376027300954" lon="2.189667010679841">
        <ele>538.96000000000004</ele>
        <time>2025-04-25T13:53:34Z</time>
      </trkpt>
      <trkpt lat="44.239880992099643" lon="2.190126003697515">
        <ele>536.07000000000005</ele>
        <time>2025-04-25T13:53:37Z</time>
      </trkpt>
      <trkpt lat="44.239702960476279" lon="2.190203033387661">
        <ele>534.63</ele>
        <time>2025-04-25T13:53:38Z</time>
      </trkpt>
      <trkpt lat="44.239524006843567" lon="2.19024502672255">
        <ele>533.19000000000005</ele>
        <time>2025-04-25T13:53:39Z</time>
      </trkpt>
      <trkpt lat="44.239352010190487" lon="2.190200015902519">
        <ele>532.23000000000002</ele>
        <time>2025-04-25T13:53:40Z</time>
      </trkpt>
      <trkpt lat="44.239164004102349" lon="2.190150981768966">
        <ele>530.78999999999996</ele>
        <time>2025-04-25T13:53:41Z</time>
      </trkpt>
      <trkpt lat="44.238969041034579" lon="2.19013798981905">
        <ele>529.82000000000005</ele>
        <time>2025-04-25T13:53:42Z</time>
      </trkpt>
      <trkpt lat="44.2387780174613" lon="2.190186018124223">
        <ele>528.38</ele>
        <time>2025-04-25T13:53:43Z</time>
      </trkpt>
      <trkpt lat="44.238580958917737" lon="2.19024502672255">
        <ele>526.46000000000004</ele>
        <time>2025-04-25T13:53:44Z</time>
      </trkpt>
      <trkpt lat="44.237845027819276" lon="2.190414005890489">
        <ele>521.16999999999996</ele>
        <time>2025-04-25T13:53:48Z</time>
      </trkpt>
      <trkpt lat="44.237686023116112" lon="2.19052598811686">
        <ele>519.73000000000002</ele>
        <time>2025-04-25T13:53:49Z</time>
      </trkpt>
      <trkpt lat="44.237526012584567" lon="2.190639981999993">
        <ele>518.76999999999998</ele>
        <time>2025-04-25T13:53:50Z</time>
      </trkpt>
      <trkpt lat="44.237100966274738" lon="2.191043989732862">
        <ele>514.91999999999996</ele>
        <time>2025-04-25T13:53:53Z</time>
      </trkpt>
      <trkpt lat="44.236989989876747" lon="2.19121104106307">
        <ele>513.48000000000002</ele>
        <time>2025-04-25T13:53:54Z</time>
      </trkpt>
      <trkpt lat="44.236886976286769" lon="2.191398041322827">
        <ele>512.03999999999996</ele>
        <time>2025-04-25T13:53:55Z</time>
      </trkpt>
      <trkpt lat="44.236824028193951" lon="2.191631980240345">
        <ele>510.12</ele>
        <time>2025-04-25T13:53:56Z</time>
      </trkpt>
      <trkpt lat="44.236757978796959" lon="2.191876983270049">
        <ele>508.67000000000002</ele>
        <time>2025-04-25T13:53:57Z</time>
      </trkpt>
      <trkpt lat="44.236624035984278" lon="2.192379981279373">
        <ele>505.79000000000002</ele>
        <time>2025-04-25T13:53:59Z</time>
      </trkpt>
      <trkpt lat="44.236579025164247" lon="2.192545020952821">
        <ele>504.35000000000002</ele>
        <time>2025-04-25T13:54:00Z</time>
      </trkpt>
      <trkpt lat="44.236480034887791" lon="2.19280100427568">
        <ele>502.91000000000003</ele>
        <time>2025-04-25T13:54:01Z</time>
      </trkpt>
      <trkpt lat="44.236428989097476" lon="2.19293100759387">
        <ele>501.45999999999998</ele>
        <time>2025-04-25T13:54:02Z</time>
      </trkpt>
      <trkpt lat="44.236324969679117" lon="2.193013988435268">
        <ele>500.01999999999998</ele>
        <time>2025-04-25T13:54:03Z</time>
      </trkpt>
      <trkpt lat="44.236249029636383" lon="2.193035027012229">
        <ele>498.57999999999998</ele>
        <time>2025-04-25T13:54:04Z</time>
      </trkpt>
      <trkpt lat="44.236142998561263" lon="2.1930589992553">
        <ele>497.13999999999999</ele>
        <time>2025-04-25T13:54:05Z</time>
      </trkpt>
      <trkpt lat="44.235978964716196" lon="2.193033015355468">
        <ele>495.69999999999999</ele>
        <time>2025-04-25T13:54:06Z</time>
      </trkpt>
      <trkpt lat="44.235818032175303" lon="2.193008037284017">
        <ele>494.25999999999999</ele>
        <time>2025-04-25T13:54:07Z</time>
      </trkpt>
      <trkpt lat="44.235669001936913" lon="2.192983981221914">
        <ele>492.32999999999998</ele>
        <time>2025-04-25T13:54:08Z</time>
      </trkpt>
      <trkpt lat="44.235529024153948" lon="2.192962020635605">
        <ele>490.88999999999999</ele>
        <time>2025-04-25T13:54:09Z</time>
      </trkpt>
      <trkpt lat="44.235389968380332" lon="2.192939976230264">
        <ele>488.97000000000003</ele>
        <time>2025-04-25T13:54:10Z</time>
      </trkpt>
      <trkpt lat="44.235236998647451" lon="2.192971995100379">
        <ele>487.05000000000001</ele>
        <time>2025-04-25T13:54:11Z</time>
      </trkpt>
      <trkpt lat="44.235100960358977" lon="2.193029997870326">
        <ele>484.63999999999999</ele>
        <time>2025-04-25T13:54:12Z</time>
      </trkpt>
      <trkpt lat="44.234927035868168" lon="2.19310300424695">
        <ele>481.75999999999999</ele>
        <time>2025-04-25T13:54:13Z</time>
      </trkpt>
      <trkpt lat="44.234856963157654" lon="2.193193025887013">
        <ele>479.35000000000002</ele>
        <time>2025-04-25T13:54:14Z</time>
      </trkpt>
      <trkpt lat="44.234757972881198" lon="2.193344989791513">
        <ele>476.94999999999999</ele>
        <time>2025-04-25T13:54:15Z</time>
      </trkpt>
      <trkpt lat="44.234691001474857" lon="2.193512041121721">
        <ele>474.55000000000001</ele>
        <time>2025-04-25T13:54:16Z</time>
      </trkpt>
      <trkpt lat="44.234650013968349" lon="2.193690994754434">
        <ele>472.63</ele>
        <time>2025-04-25T13:54:17Z</time>
      </trkpt>
      <trkpt lat="44.234606008976698" lon="2.193886041641235">
        <ele>470.69999999999999</ele>
        <time>2025-04-25T13:54:18Z</time>
      </trkpt>
      <trkpt lat="44.234560998156667" lon="2.194084022194147">
        <ele>468.77999999999997</ele>
        <time>2025-04-25T13:54:19Z</time>
      </trkpt>
      <trkpt lat="44.234520010650158" lon="2.194265993312001">
        <ele>466.86000000000001</ele>
        <time>2025-04-25T13:54:20Z</time>
      </trkpt>
      <trkpt lat="44.234485980123281" lon="2.194411000236869">
        <ele>464.93000000000001</ele>
        <time>2025-04-25T13:54:21Z</time>
      </trkpt>
      <trkpt lat="44.234420014545321" lon="2.194518037140369">
        <ele>463.00999999999999</ele>
        <time>2025-04-25T13:54:22Z</time>
      </trkpt>
      <trkpt lat="44.234305014833808" lon="2.19464804045856">
        <ele>461.08999999999997</ele>
        <time>2025-04-25T13:54:23Z</time>
      </trkpt>
      <trkpt lat="44.234237037599087" lon="2.194666983559728">
        <ele>459.64999999999998</ele>
        <time>2025-04-25T13:54:24Z</time>
      </trkpt>
      <trkpt lat="44.234097981825471" lon="2.194677963852882">
        <ele>457.72000000000003</ele>
        <time>2025-04-25T13:54:25Z</time>
      </trkpt>
      <trkpt lat="44.2339669726789" lon="2.194648962467909">
        <ele>456.27999999999997</ele>
        <time>2025-04-25T13:54:26Z</time>
      </trkpt>
      <trkpt lat="44.233688022941351" lon="2.194531029090285">
        <ele>453.88</ele>
        <time>2025-04-25T13:54:28Z</time>
      </trkpt>
      <trkpt lat="44.233504040166736" lon="2.194441007450223">
        <ele>452.92000000000002</ele>
        <time>2025-04-25T13:54:29Z</time>
      </trkpt>
      <trkpt lat="44.23342902213335" lon="2.194303041324019">
        <ele>451.95999999999998</ele>
        <time>2025-04-25T13:54:30Z</time>
      </trkpt>
      <trkpt lat="44.233346963301301" lon="2.194150993600488">
        <ele>451.48000000000002</ele>
        <time>2025-04-25T13:54:31Z</time>
      </trkpt>
      <trkpt lat="44.233249984681606" lon="2.193971034139395">
        <ele>450.51999999999998</ele>
        <time>2025-04-25T13:54:32Z</time>
      </trkpt>
      <trkpt lat="44.233152000233531" lon="2.19378998503089">
        <ele>449.55000000000001</ele>
        <time>2025-04-25T13:54:33Z</time>
      </trkpt>
      <trkpt lat="44.233072958886623" lon="2.193653024733067">
        <ele>448.58999999999997</ele>
        <time>2025-04-25T13:54:34Z</time>
      </trkpt>
      <trkpt lat="44.232953013852239" lon="2.19355302862823">
        <ele>448.11000000000001</ele>
        <time>2025-04-25T13:54:35Z</time>
      </trkpt>
      <trkpt lat="44.232811024412513" lon="2.193527966737747">
        <ele>447.63</ele>
        <time>2025-04-25T13:54:36Z</time>
      </trkpt>
      <trkpt lat="44.232683032751083" lon="2.193524027243257">
        <ele>447.14999999999998</ele>
        <time>2025-04-25T13:54:37Z</time>
      </trkpt>
      <trkpt lat="44.232501983642578" lon="2.1935960277915">
        <ele>446.67000000000002</ele>
        <time>2025-04-25T13:54:38Z</time>
      </trkpt>
      <trkpt lat="44.232411962002516" lon="2.193710021674633">
        <ele>446.67000000000002</ele>
        <time>2025-04-25T13:54:39Z</time>
      </trkpt>
      <trkpt lat="44.232282964512706" lon="2.193882018327713">
        <ele>446.67000000000002</ele>
        <time>2025-04-25T13:54:40Z</time>
      </trkpt>
      <trkpt lat="44.23216100782156" lon="2.194064995273948">
        <ele>446.19</ele>
        <time>2025-04-25T13:54:41Z</time>
      </trkpt>
      <trkpt lat="44.231937965378165" lon="2.194400019943714">
        <ele>445.23000000000002</ele>
        <time>2025-04-25T13:54:43Z</time>
      </trkpt>
      <trkpt lat="44.231859007850289" lon="2.194518959149718">
        <ele>445.23000000000002</ele>
        <time>2025-04-25T13:54:44Z</time>
      </trkpt>
      <trkpt lat="44.231692040339112" lon="2.19456396996975">
        <ele>444.75</ele>
        <time>2025-04-25T13:54:45Z</time>
      </trkpt>
      <trkpt lat="44.231548961251974" lon="2.194573022425175">
        <ele>443.79000000000002</ele>
        <time>2025-04-25T13:54:46Z</time>
      </trkpt>
      <trkpt lat="44.231390040367842" lon="2.194549972191453">
        <ele>443.31</ele>
        <time>2025-04-25T13:54:47Z</time>
      </trkpt>
      <trkpt lat="44.231214020401239" lon="2.194532034918666">
        <ele>442.33999999999997</ele>
        <time>2025-04-25T13:54:48Z</time>
      </trkpt>
      <trkpt lat="44.231034982949495" lon="2.194517031311989">
        <ele>441.86000000000001</ele>
        <time>2025-04-25T13:54:49Z</time>
      </trkpt>
      <trkpt lat="44.230806995183229" lon="2.194498004391789">
        <ele>441.86000000000001</ele>
        <time>2025-04-25T13:54:50Z</time>
      </trkpt>
      <trkpt lat="44.230648996308446" lon="2.194567993283272">
        <ele>442.33999999999997</ele>
        <time>2025-04-25T13:54:51Z</time>
      </trkpt>
      <trkpt lat="44.230470964685082" lon="2.19464804045856">
        <ele>443.31</ele>
        <time>2025-04-25T13:54:52Z</time>
      </trkpt>
      <trkpt lat="44.230112973600626" lon="2.194808972999454">
        <ele>445.23000000000002</ele>
        <time>2025-04-25T13:54:54Z</time>
      </trkpt>
      <trkpt lat="44.229940976947546" lon="2.194887008517981">
        <ele>446.19</ele>
        <time>2025-04-25T13:54:55Z</time>
      </trkpt>
      <trkpt lat="44.229634031653404" lon="2.195024974644184">
        <ele>446.67000000000002</ele>
        <time>2025-04-25T13:54:57Z</time>
      </trkpt>
      <trkpt lat="44.229504028335214" lon="2.195117007941008">
        <ele>447.14999999999998</ele>
        <time>2025-04-25T13:54:58Z</time>
      </trkpt>
      <trkpt lat="44.229444013908505" lon="2.195266038179398">
        <ele>447.63</ele>
        <time>2025-04-25T13:54:59Z</time>
      </trkpt>
      <trkpt lat="44.229385005310178" lon="2.195434011518955">
        <ele>449.06999999999999</ele>
        <time>2025-04-25T13:55:00Z</time>
      </trkpt>
      <trkpt lat="44.229351980611682" lon="2.195621011778712">
        <ele>450.02999999999997</ele>
        <time>2025-04-25T13:55:01Z</time>
      </trkpt>
      <trkpt lat="44.229317028075457" lon="2.195826033130288">
        <ele>451.48000000000002</ele>
        <time>2025-04-25T13:55:02Z</time>
      </trkpt>
      <trkpt lat="44.229278974235058" lon="2.196042034775019">
        <ele>452.44</ele>
        <time>2025-04-25T13:55:03Z</time>
      </trkpt>
      <trkpt lat="44.229203034192324" lon="2.196413017809391">
        <ele>454.83999999999997</ele>
        <time>2025-04-25T13:55:05Z</time>
      </trkpt>
      <trkpt lat="44.229115024209023" lon="2.19656397588551">
        <ele>455.80000000000001</ele>
        <time>2025-04-25T13:55:06Z</time>
      </trkpt>
      <trkpt lat="44.229017961770296" lon="2.196694985032082">
        <ele>456.75999999999999</ele>
        <time>2025-04-25T13:55:07Z</time>
      </trkpt>
      <trkpt lat="44.228884018957615" lon="2.196784000843763">
        <ele>457.72000000000003</ele>
        <time>2025-04-25T13:55:08Z</time>
      </trkpt>
      <trkpt lat="44.228718979284167" lon="2.196854995563626">
        <ele>458.69</ele>
        <time>2025-04-25T13:55:09Z</time>
      </trkpt>
      <trkpt lat="44.228511024266481" lon="2.196944011375308">
        <ele>459.64999999999998</ele>
        <time>2025-04-25T13:55:10Z</time>
      </trkpt>
      <trkpt lat="44.228345984593034" lon="2.196977036073804">
        <ele>460.61000000000001</ele>
        <time>2025-04-25T13:55:11Z</time>
      </trkpt>
      <trkpt lat="44.228154961019754" lon="2.197015006095171">
        <ele>461.08999999999997</ele>
        <time>2025-04-25T13:55:12Z</time>
      </trkpt>
      <trkpt lat="44.227760005742311" lon="2.197093963623047">
        <ele>461.56999999999999</ele>
        <time>2025-04-25T13:55:14Z</time>
      </trkpt>
      <trkpt lat="44.22762799076736" lon="2.19716596417129">
        <ele>462.52999999999997</ele>
        <time>2025-04-25T13:55:15Z</time>
      </trkpt>
      <trkpt lat="44.227458005771041" lon="2.197281969711185">
        <ele>463.00999999999999</ele>
        <time>2025-04-25T13:55:16Z</time>
      </trkpt>
      <trkpt lat="44.226615959778428" lon="2.197965011000633">
        <ele>468.77999999999997</ele>
        <time>2025-04-25T13:55:21Z</time>
      </trkpt>
      <trkpt lat="44.226141041144729" lon="2.198266005143523">
        <ele>471.66000000000003</ele>
        <time>2025-04-25T13:55:24Z</time>
      </trkpt>
      <trkpt lat="44.226014977321029" lon="2.19843196682632">
        <ele>473.11000000000001</ele>
        <time>2025-04-25T13:55:25Z</time>
      </trkpt>
      <trkpt lat="44.225896038115025" lon="2.198598012328148">
        <ele>474.06999999999999</ele>
        <time>2025-04-25T13:55:26Z</time>
      </trkpt>
      <trkpt lat="44.22578196041286" lon="2.198804039508104">
        <ele>475.50999999999999</ele>
        <time>2025-04-25T13:55:27Z</time>
      </trkpt>
      <trkpt lat="44.225678024813533" lon="2.199019035324454">
        <ele>476.94999999999999</ele>
        <time>2025-04-25T13:55:28Z</time>
      </trkpt>
      <trkpt lat="44.225483983755112" lon="2.199480962008238">
        <ele>479.83999999999997</ele>
        <time>2025-04-25T13:55:30Z</time>
      </trkpt>
      <trkpt lat="44.225130015984178" lon="2.200458040460944">
        <ele>484.16000000000003</ele>
        <time>2025-04-25T13:55:34Z</time>
      </trkpt>
      <trkpt lat="44.225013004615903" lon="2.20066498965025">
        <ele>484.63999999999999</ele>
        <time>2025-04-25T13:55:35Z</time>
      </trkpt>
      <trkpt lat="44.224896999076009" lon="2.20085802488029">
        <ele>485.12</ele>
        <time>2025-04-25T13:55:36Z</time>
      </trkpt>
      <trkpt lat="44.224745035171509" lon="2.20105298794806">
        <ele>485.12</ele>
        <time>2025-04-25T13:55:37Z</time>
      </trkpt>
      <trkpt lat="44.224547976627946" lon="2.201120965182781">
        <ele>485.60000000000002</ele>
        <time>2025-04-25T13:55:38Z</time>
      </trkpt>
      <trkpt lat="44.224354019388556" lon="2.201168993487954">
        <ele>485.60000000000002</ele>
        <time>2025-04-25T13:55:39Z</time>
      </trkpt>
      <trkpt lat="44.224159978330135" lon="2.201218027621508">
        <ele>486.56</ele>
        <time>2025-04-25T13:55:40Z</time>
      </trkpt>
      <trkpt lat="44.223963003605604" lon="2.201266977936029">
        <ele>487.05000000000001</ele>
        <time>2025-04-25T13:55:41Z</time>
      </trkpt>
      <trkpt lat="44.223768962547183" lon="2.201325986534357">
        <ele>488.49000000000001</ele>
        <time>2025-04-25T13:55:42Z</time>
      </trkpt>
      <trkpt lat="44.223581962287426" lon="2.201404022052884">
        <ele>489.44999999999999</ele>
        <time>2025-04-25T13:55:43Z</time>
      </trkpt>
      <trkpt lat="44.222225015982985" lon="2.201915988698602">
        <ele>501.45999999999998</ele>
        <time>2025-04-25T13:55:50Z</time>
      </trkpt>
      <trkpt lat="44.221222037449479" lon="2.20212796702981">
        <ele>514.91999999999996</ele>
        <time>2025-04-25T13:55:56Z</time>
      </trkpt>
      <trkpt lat="44.221122963353992" lon="2.202221006155014">
        <ele>516.37</ele>
        <time>2025-04-25T13:55:57Z</time>
      </trkpt>
      <trkpt lat="44.221025984734297" lon="2.202335000038147">
        <ele>517.80999999999995</ele>
        <time>2025-04-25T13:55:58Z</time>
      </trkpt>
      <trkpt lat="44.220937974750996" lon="2.202438013628125">
        <ele>518.76999999999998</ele>
        <time>2025-04-25T13:55:59Z</time>
      </trkpt>
      <trkpt lat="44.220849964767694" lon="2.202540021389723">
        <ele>519.73000000000002</ele>
        <time>2025-04-25T13:56:00Z</time>
      </trkpt>
      <trkpt lat="44.220764972269535" lon="2.20264102332294">
        <ele>520.69000000000005</ele>
        <time>2025-04-25T13:56:01Z</time>
      </trkpt>
      <trkpt lat="44.220686014741659" lon="2.202732972800732">
        <ele>521.64999999999998</ele>
        <time>2025-04-25T13:56:02Z</time>
      </trkpt>
      <trkpt lat="44.220613008365035" lon="2.202819976955652">
        <ele>522.13</ele>
        <time>2025-04-25T13:56:03Z</time>
      </trkpt>
      <trkpt lat="44.220546958968043" lon="2.202897006645799">
        <ele>522.61000000000001</ele>
        <time>2025-04-25T13:56:04Z</time>
      </trkpt>
      <trkpt lat="44.220486022531986" lon="2.202969007194042">
        <ele>523.58000000000004</ele>
        <time>2025-04-25T13:56:05Z</time>
      </trkpt>
      <trkpt lat="44.220335986465216" lon="2.203145027160645">
        <ele>525.5</ele>
        <time>2025-04-25T13:56:09Z</time>
      </trkpt>
      <trkpt lat="44.220335986465216" lon="2.203145027160645">
        <ele>525.5</ele>
        <time>2025-04-25T13:56:10Z</time>
      </trkpt>
      <trkpt lat="44.220153009518981" lon="2.203711979091167">
        <ele>528.38</ele>
        <time>2025-04-25T13:56:17Z</time>
      </trkpt>
      <trkpt lat="44.220046978443861" lon="2.204073993489146">
        <ele>528.38</ele>
        <time>2025-04-25T13:56:20Z</time>
      </trkpt>
      <trkpt lat="44.219887973740697" lon="2.20442502759397">
        <ele>528.38</ele>
        <time>2025-04-25T13:56:23Z</time>
      </trkpt>
      <trkpt lat="44.219373995438218" lon="2.205234970897436">
        <ele>525.98000000000002</ele>
        <time>2025-04-25T13:56:31Z</time>
      </trkpt>
      <trkpt lat="44.219311969354749" lon="2.205333039164543">
        <ele>525.98000000000002</ele>
        <time>2025-04-25T13:56:32Z</time>
      </trkpt>
      <trkpt lat="44.218751974403858" lon="2.206149017438293">
        <ele>522.61000000000001</ele>
        <time>2025-04-25T13:56:39Z</time>
      </trkpt>
      <trkpt lat="44.217931972816586" lon="2.207273030653596">
        <ele>514.91999999999996</ele>
        <time>2025-04-25T13:56:49Z</time>
      </trkpt>
      <trkpt lat="44.21783197671175" lon="2.207378977909684">
        <ele>514.44000000000005</ele>
        <time>2025-04-25T13:56:50Z</time>
      </trkpt>
      <trkpt lat="44.217184977605939" lon="2.207873007282615">
        <ele>512.03999999999996</ele>
        <time>2025-04-25T13:56:56Z</time>
      </trkpt>
      <trkpt lat="44.217065032571554" lon="2.207918018102646">
        <ele>511.56</ele>
        <time>2025-04-25T13:56:57Z</time>
      </trkpt>
      <trkpt lat="44.216953972354531" lon="2.207961017265916">
        <ele>511.07999999999998</ele>
        <time>2025-04-25T13:56:58Z</time>
      </trkpt>
      <trkpt lat="44.216726990416646" lon="2.208047015592456">
        <ele>510.60000000000002</ele>
        <time>2025-04-25T13:57:00Z</time>
      </trkpt>
      <trkpt lat="44.216618025675416" lon="2.208089008927345">
        <ele>509.63999999999999</ele>
        <time>2025-04-25T13:57:01Z</time>
      </trkpt>
      <trkpt lat="44.216028023511171" lon="2.208312973380089">
        <ele>505.79000000000002</ele>
        <time>2025-04-25T13:57:06Z</time>
      </trkpt>
      <trkpt lat="44.21544598415494" lon="2.208526041358709">
        <ele>501.94999999999999</ele>
        <time>2025-04-25T13:57:11Z</time>
      </trkpt>
      <trkpt lat="44.215335007756948" lon="2.208568034693599">
        <ele>500.98000000000002</ele>
        <time>2025-04-25T13:57:12Z</time>
      </trkpt>
      <trkpt lat="44.215220008045435" lon="2.208612039685249">
        <ele>500.01999999999998</ele>
        <time>2025-04-25T13:57:13Z</time>
      </trkpt>
      <trkpt lat="44.214067999273539" lon="2.209016969427466">
        <ele>496.18000000000001</ele>
        <time>2025-04-25T13:57:21Z</time>
      </trkpt>
      <trkpt lat="44.213907988741994" lon="2.209072038531303">
        <ele>495.69999999999999</ele>
        <time>2025-04-25T13:57:22Z</time>
      </trkpt>
      <trkpt lat="44.213742027059197" lon="2.209130041301251">
        <ele>495.22000000000003</ele>
        <time>2025-04-25T13:57:23Z</time>
      </trkpt>
      <trkpt lat="44.211501963436604" lon="2.20994995906949">
        <ele>486.56</ele>
        <time>2025-04-25T13:57:34Z</time>
      </trkpt>
      <trkpt lat="44.209797000512481" lon="2.210974982008338">
        <ele>478.38999999999999</ele>
        <time>2025-04-25T13:57:43Z</time>
      </trkpt>
      <trkpt lat="44.209594996646047" lon="2.21104396507144">
        <ele>477.43000000000001</ele>
        <time>2025-04-25T13:57:44Z</time>
      </trkpt>
      <trkpt lat="44.20805599540472" lon="2.211311012506485">
        <ele>470.22000000000003</ele>
        <time>2025-04-25T13:57:51Z</time>
      </trkpt>
      <trkpt lat="44.20633896254003" lon="2.211529025807977">
        <ele>462.52999999999997</ele>
        <time>2025-04-25T13:57:59Z</time>
      </trkpt>
      <trkpt lat="44.20592799782753" lon="2.211454007774591">
        <ele>461.08999999999997</ele>
        <time>2025-04-25T13:58:01Z</time>
      </trkpt>
      <trkpt lat="44.203769993036985" lon="2.210890995338559">
        <ele>457.72000000000003</ele>
        <time>2025-04-25T13:58:11Z</time>
      </trkpt>
      <trkpt lat="44.20199797488749" lon="2.211052011698484">
        <ele>452.92000000000002</ele>
        <time>2025-04-25T13:58:19Z</time>
      </trkpt>
      <trkpt lat="44.201808040961623" lon="2.211161982268095">
        <ele>452.44</ele>
        <time>2025-04-25T13:58:20Z</time>
      </trkpt>
      <trkpt lat="44.201615005731583" lon="2.21130003221333">
        <ele>451.48000000000002</ele>
        <time>2025-04-25T13:58:21Z</time>
      </trkpt>
      <trkpt lat="44.201420964673162" lon="2.211439004167914">
        <ele>450.51999999999998</ele>
        <time>2025-04-25T13:58:22Z</time>
      </trkpt>
      <trkpt lat="44.201250979676843" lon="2.211627010256052">
        <ele>449.55000000000001</ele>
        <time>2025-04-25T13:58:23Z</time>
      </trkpt>
      <trkpt lat="44.201100021600723" lon="2.211844017729163">
        <ele>448.58999999999997</ele>
        <time>2025-04-25T13:58:24Z</time>
      </trkpt>
      <trkpt lat="44.200967000797391" lon="2.212078962475061">
        <ele>447.63</ele>
        <time>2025-04-25T13:58:25Z</time>
      </trkpt>
      <trkpt lat="44.200854012742639" lon="2.212333017960191">
        <ele>447.14999999999998</ele>
        <time>2025-04-25T13:58:26Z</time>
      </trkpt>
      <trkpt lat="44.200755022466183" lon="2.212600987404585">
        <ele>446.19</ele>
        <time>2025-04-25T13:58:27Z</time>
      </trkpt>
      <trkpt lat="44.200251018628478" lon="2.213882999494672">
        <ele>443.31</ele>
        <time>2025-04-25T13:58:32Z</time>
      </trkpt>
      <trkpt lat="44.200136018916965" lon="2.21409497782588">
        <ele>442.81999999999999</ele>
        <time>2025-04-25T13:58:33Z</time>
      </trkpt>
      <trkpt lat="44.200012972578406" lon="2.214283989742398">
        <ele>441.86000000000001</ele>
        <time>2025-04-25T13:58:34Z</time>
      </trkpt>
      <trkpt lat="44.199886992573738" lon="2.214409969747067">
        <ele>440.89999999999998</ele>
        <time>2025-04-25T13:58:35Z</time>
      </trkpt>
      <trkpt lat="44.199724970385432" lon="2.214538967236877">
        <ele>440.42000000000002</ele>
        <time>2025-04-25T13:58:36Z</time>
      </trkpt>
      <trkpt lat="44.199574012309313" lon="2.214625971391797">
        <ele>439.45999999999998</ele>
        <time>2025-04-25T13:58:37Z</time>
      </trkpt>
      <trkpt lat="44.199412995949388" lon="2.21469696611166">
        <ele>438.5</ele>
        <time>2025-04-25T13:58:38Z</time>
      </trkpt>
      <trkpt lat="44.199247034266591" lon="2.214758992195129">
        <ele>437.54000000000002</ele>
        <time>2025-04-25T13:58:39Z</time>
      </trkpt>
      <trkpt lat="44.199075037613511" lon="2.214781958609819">
        <ele>437.06</ele>
        <time>2025-04-25T13:58:40Z</time>
      </trkpt>
      <trkpt lat="44.19890102930367" lon="2.214806014671922">
        <ele>436.10000000000002</ele>
        <time>2025-04-25T13:58:41Z</time>
      </trkpt>
      <trkpt lat="44.197366973385215" lon="2.215168029069901">
        <ele>427.44</ele>
        <time>2025-04-25T13:58:50Z</time>
      </trkpt>
      <trkpt lat="44.197058016434312" lon="2.215195018798113">
        <ele>426</ele>
        <time>2025-04-25T13:58:52Z</time>
      </trkpt>
      <trkpt lat="44.196908986195922" lon="2.215202981606126">
        <ele>425.51999999999998</ele>
        <time>2025-04-25T13:58:53Z</time>
      </trkpt>
      <trkpt lat="44.19677303172648" lon="2.215130981057882">
        <ele>425.04000000000002</ele>
        <time>2025-04-25T13:58:54Z</time>
      </trkpt>
      <trkpt lat="44.196639005094767" lon="2.215041965246201">
        <ele>424.56</ele>
        <time>2025-04-25T13:58:55Z</time>
      </trkpt>
      <trkpt lat="44.196491986513138" lon="2.214938029646874">
        <ele>424.07999999999998</ele>
        <time>2025-04-25T13:58:56Z</time>
      </trkpt>
      <trkpt lat="44.196401964873075" lon="2.214767960831523">
        <ele>423.60000000000002</ele>
        <time>2025-04-25T13:58:57Z</time>
      </trkpt>
      <trkpt lat="44.19630297459662" lon="2.214580038562417">
        <ele>423.12</ele>
        <time>2025-04-25T13:58:58Z</time>
      </trkpt>
      <trkpt lat="44.196218987926841" lon="2.214376023039222">
        <ele>422.63999999999999</ele>
        <time>2025-04-25T13:58:59Z</time>
      </trkpt>
      <trkpt lat="44.195960992947221" lon="2.213797001168132">
        <ele>419.75</ele>
        <time>2025-04-25T13:59:02Z</time>
      </trkpt>
      <trkpt lat="44.195848004892468" lon="2.213657023385167">
        <ele>419.26999999999998</ele>
        <time>2025-04-25T13:59:03Z</time>
      </trkpt>
      <trkpt lat="44.195712972432375" lon="2.213533977046609">
        <ele>418.79000000000002</ele>
        <time>2025-04-25T13:59:04Z</time>
      </trkpt>
      <trkpt lat="44.195577017962933" lon="2.213455019518733">
        <ele>417.82999999999998</ele>
        <time>2025-04-25T13:59:05Z</time>
      </trkpt>
      <trkpt lat="44.195419019088149" lon="2.213425012305379">
        <ele>416.87</ele>
        <time>2025-04-25T13:59:06Z</time>
      </trkpt>
      <trkpt lat="44.195252973586321" lon="2.213411014527082">
        <ele>416.38999999999999</ele>
        <time>2025-04-25T13:59:07Z</time>
      </trkpt>
      <trkpt lat="44.195088017731905" lon="2.21344898454845">
        <ele>415.43000000000001</ele>
        <time>2025-04-25T13:59:08Z</time>
      </trkpt>
      <trkpt lat="44.194923983886838" lon="2.213486032560468">
        <ele>414.47000000000003</ele>
        <time>2025-04-25T13:59:09Z</time>
      </trkpt>
      <trkpt lat="44.194269021973014" lon="2.213657023385167">
        <ele>412.06</ele>
        <time>2025-04-25T13:59:13Z</time>
      </trkpt>
      <trkpt lat="44.19408998452127" lon="2.213746961206198">
        <ele>411.57999999999998</ele>
        <time>2025-04-25T13:59:14Z</time>
      </trkpt>
      <trkpt lat="44.193668039515615" lon="2.213977966457605">
        <ele>411.10000000000002</ele>
        <time>2025-04-25T13:59:16Z</time>
      </trkpt>
      <trkpt lat="44.193452959880233" lon="2.21413797698915">
        <ele>411.10000000000002</ele>
        <time>2025-04-25T13:59:17Z</time>
      </trkpt>
      <trkpt lat="44.193019028753042" lon="2.214462021365762">
        <ele>411.10000000000002</ele>
        <time>2025-04-25T13:59:19Z</time>
      </trkpt>
      <trkpt lat="44.192807972431183" lon="2.214619014412165">
        <ele>411.10000000000002</ele>
        <time>2025-04-25T13:59:20Z</time>
      </trkpt>
      <trkpt lat="44.192603034898639" lon="2.214772989973426">
        <ele>411.10000000000002</ele>
        <time>2025-04-25T13:59:21Z</time>
      </trkpt>
      <trkpt lat="44.192393990233541" lon="2.214930988848209">
        <ele>410.62</ele>
        <time>2025-04-25T13:59:22Z</time>
      </trkpt>
      <trkpt lat="44.192236997187138" lon="2.215155959129334">
        <ele>410.62</ele>
        <time>2025-04-25T13:59:23Z</time>
      </trkpt>
      <trkpt lat="44.192085033282638" lon="2.215384030714631">
        <ele>409.66000000000003</ele>
        <time>2025-04-25T13:59:24Z</time>
      </trkpt>
      <trkpt lat="44.191971961408854" lon="2.215634984895587">
        <ele>409.66000000000003</ele>
        <time>2025-04-25T13:59:25Z</time>
      </trkpt>
      <trkpt lat="44.191871965304017" lon="2.215859033167362">
        <ele>408.69999999999999</ele>
        <time>2025-04-25T13:59:26Z</time>
      </trkpt>
      <trkpt lat="44.191761994734406" lon="2.216051984578371">
        <ele>408.22000000000003</ele>
        <time>2025-04-25T13:59:27Z</time>
      </trkpt>
      <trkpt lat="44.191583041101694" lon="2.21617897041142">
        <ele>407.74000000000001</ele>
        <time>2025-04-25T13:59:28Z</time>
      </trkpt>
      <trkpt lat="44.191402997821569" lon="2.21609297208488">
        <ele>406.76999999999998</ele>
        <time>2025-04-25T13:59:29Z</time>
      </trkpt>
      <trkpt lat="44.19123200699687" lon="2.215975038707256">
        <ele>406.29000000000002</ele>
        <time>2025-04-25T13:59:30Z</time>
      </trkpt>
      <trkpt lat="44.190967977046967" lon="2.215996999293566">
        <ele>405.32999999999998</ele>
        <time>2025-04-25T13:59:31Z</time>
      </trkpt>
      <trkpt lat="44.190798997879028" lon="2.21613597124815">
        <ele>404.37</ele>
        <time>2025-04-25T13:59:32Z</time>
      </trkpt>
      <trkpt lat="44.190622977912426" lon="2.216279972344637">
        <ele>403.88999999999999</ele>
        <time>2025-04-25T13:59:33Z</time>
      </trkpt>
      <trkpt lat="44.18985502794385" lon="2.21652003005147">
        <ele>399.56999999999999</ele>
        <time>2025-04-25T13:59:37Z</time>
      </trkpt>
      <trkpt lat="44.189700968563557" lon="2.216497985646129">
        <ele>398.60000000000002</ele>
        <time>2025-04-25T13:59:38Z</time>
      </trkpt>
      <trkpt lat="44.189539030194283" lon="2.216424979269505">
        <ele>397.16000000000003</ele>
        <time>2025-04-25T13:59:39Z</time>
      </trkpt>
      <trkpt lat="44.189238036051393" lon="2.216160027310252">
        <ele>395.24000000000001</ele>
        <time>2025-04-25T13:59:41Z</time>
      </trkpt>
      <trkpt lat="44.189064027741551" lon="2.216096995398402">
        <ele>394.27999999999997</ele>
        <time>2025-04-25T13:59:42Z</time>
      </trkpt>
      <trkpt lat="44.188865963369608" lon="2.216075034812093">
        <ele>393.80000000000001</ele>
        <time>2025-04-25T13:59:43Z</time>
      </trkpt>
      <trkpt lat="44.187662992626429" lon="2.215975038707256">
        <ele>388.02999999999997</ele>
        <time>2025-04-25T13:59:49Z</time>
      </trkpt>
      <trkpt lat="44.187484961003065" lon="2.215879987925291">
        <ele>387.06999999999999</ele>
        <time>2025-04-25T13:59:50Z</time>
      </trkpt>
      <trkpt lat="44.187320005148649" lon="2.215741015970707">
        <ele>386.58999999999997</ele>
        <time>2025-04-25T13:59:51Z</time>
      </trkpt>
      <trkpt lat="44.186610979959369" lon="2.215142967179418">
        <ele>384.18000000000001</ele>
        <time>2025-04-25T13:59:55Z</time>
      </trkpt>
      <trkpt lat="44.186425991356373" lon="2.214998966082931">
        <ele>383.69999999999999</ele>
        <time>2025-04-25T13:59:56Z</time>
      </trkpt>
      <trkpt lat="44.185822997242212" lon="2.214781958609819">
        <ele>381.77999999999997</ele>
        <time>2025-04-25T13:59:59Z</time>
      </trkpt>
      <trkpt lat="44.185634991154075" lon="2.214771984145045">
        <ele>381.30000000000001</ele>
        <time>2025-04-25T14:00:00Z</time>
      </trkpt>
      <trkpt lat="44.185434998944402" lon="2.21482596360147">
        <ele>380.81999999999999</ele>
        <time>2025-04-25T14:00:01Z</time>
      </trkpt>
      <trkpt lat="44.184715999290347" lon="2.215140033513308">
        <ele>377.94</ele>
        <time>2025-04-25T14:00:05Z</time>
      </trkpt>
      <trkpt lat="44.184590019285679" lon="2.215328961610794">
        <ele>376.97000000000003</ele>
        <time>2025-04-25T14:00:06Z</time>
      </trkpt>
      <trkpt lat="44.184473007917404" lon="2.215529959648848">
        <ele>376.00999999999999</ele>
        <time>2025-04-25T14:00:07Z</time>
      </trkpt>
      <trkpt lat="44.184180982410908" lon="2.216216018423438">
        <ele>372.64999999999998</ele>
        <time>2025-04-25T14:00:10Z</time>
      </trkpt>
      <trkpt lat="44.184075035154819" lon="2.216406036168337">
        <ele>371.69</ele>
        <time>2025-04-25T14:00:11Z</time>
      </trkpt>
      <trkpt lat="44.183912007138133" lon="2.216510977596045">
        <ele>370.73000000000002</ele>
        <time>2025-04-25T14:00:12Z</time>
      </trkpt>
      <trkpt lat="44.183408003300428" lon="2.216732008382678">
        <ele>366.88</ele>
        <time>2025-04-25T14:00:15Z</time>
      </trkpt>
      <trkpt lat="44.183222008869052" lon="2.216840973123908">
        <ele>365.92000000000002</ele>
        <time>2025-04-25T14:00:16Z</time>
      </trkpt>
      <trkpt lat="44.183040959760547" lon="2.216947004199028">
        <ele>364.48000000000002</ele>
        <time>2025-04-25T14:00:17Z</time>
      </trkpt>
      <trkpt lat="44.182866029441357" lon="2.217049011960626">
        <ele>363.51999999999998</ele>
        <time>2025-04-25T14:00:18Z</time>
      </trkpt>
      <trkpt lat="44.182678023353219" lon="2.217089999467135">
        <ele>362.55000000000001</ele>
        <time>2025-04-25T14:00:19Z</time>
      </trkpt>
      <trkpt lat="44.182483982294798" lon="2.217069966718555">
        <ele>361.58999999999997</ele>
        <time>2025-04-25T14:00:20Z</time>
      </trkpt>
      <trkpt lat="44.182280972599983" lon="2.217042976990342">
        <ele>360.63</ele>
        <time>2025-04-25T14:00:21Z</time>
      </trkpt>
      <trkpt lat="44.182076035067439" lon="2.217014981433749">
        <ele>359.67000000000002</ele>
        <time>2025-04-25T14:00:22Z</time>
      </trkpt>
      <trkpt lat="44.181877970695496" lon="2.216988997533917">
        <ele>358.70999999999998</ele>
        <time>2025-04-25T14:00:23Z</time>
      </trkpt>
      <trkpt lat="44.18150195851922" lon="2.21691096201539">
        <ele>356.79000000000002</ele>
        <time>2025-04-25T14:00:25Z</time>
      </trkpt>
      <trkpt lat="44.181303977966309" lon="2.216856982558966">
        <ele>355.82999999999998</ele>
        <time>2025-04-25T14:00:26Z</time>
      </trkpt>
      <trkpt lat="44.181128041818738" lon="2.216753968968988">
        <ele>354.86000000000001</ele>
        <time>2025-04-25T14:00:27Z</time>
      </trkpt>
      <trkpt lat="44.180944981053472" lon="2.216632012277842">
        <ele>354.38</ele>
        <time>2025-04-25T14:00:28Z</time>
      </trkpt>
      <trkpt lat="44.180758986622095" lon="2.216496979817748">
        <ele>353.42000000000002</ele>
        <time>2025-04-25T14:00:29Z</time>
      </trkpt>
      <trkpt lat="44.18001601472497" lon="2.215986019000411">
        <ele>350.06</ele>
        <time>2025-04-25T14:00:33Z</time>
      </trkpt>
      <trkpt lat="44.179656011983752" lon="2.215847969055176">
        <ele>348.62</ele>
        <time>2025-04-25T14:00:35Z</time>
      </trkpt>
      <trkpt lat="44.179505975916982" lon="2.215745961293578">
        <ele>348.13</ele>
        <time>2025-04-25T14:00:36Z</time>
      </trkpt>
      <trkpt lat="44.179402962327003" lon="2.215592991560698">
        <ele>347.17000000000002</ele>
        <time>2025-04-25T14:00:37Z</time>
      </trkpt>
      <trkpt lat="44.179357029497623" lon="2.215401967987418">
        <ele>346.69</ele>
        <time>2025-04-25T14:00:38Z</time>
      </trkpt>
      <trkpt lat="44.179330039769411" lon="2.215160988271236">
        <ele>345.73000000000002</ele>
        <time>2025-04-25T14:00:39Z</time>
      </trkpt>
      <trkpt lat="44.179383013397455" lon="2.214993014931679">
        <ele>345.25</ele>
        <time>2025-04-25T14:00:40Z</time>
      </trkpt>
      <trkpt lat="44.179451996460557" lon="2.214783970266581">
        <ele>344.76999999999998</ele>
        <time>2025-04-25T14:00:41Z</time>
      </trkpt>
      <trkpt lat="44.179541012272239" lon="2.214581966400147">
        <ele>344.29000000000002</ele>
        <time>2025-04-25T14:00:42Z</time>
      </trkpt>
      <trkpt lat="44.179655006155372" lon="2.214376023039222">
        <ele>343.32999999999998</ele>
        <time>2025-04-25T14:00:43Z</time>
      </trkpt>
      <trkpt lat="44.179791966453195" lon="2.214174019172788">
        <ele>342.37</ele>
        <time>2025-04-25T14:00:44Z</time>
      </trkpt>
      <trkpt lat="44.180159009993076" lon="2.213569013401866">
        <ele>340.44</ele>
        <time>2025-04-25T14:00:47Z</time>
      </trkpt>
      <trkpt lat="44.180227993056178" lon="2.213345970958471">
        <ele>339.48000000000002</ele>
        <time>2025-04-25T14:00:48Z</time>
      </trkpt>
      <trkpt lat="44.180264035239816" lon="2.213107002899051">
        <ele>339</ele>
        <time>2025-04-25T14:00:49Z</time>
      </trkpt>
      <trkpt lat="44.180250959470868" lon="2.212853031232953">
        <ele>337.56</ele>
        <time>2025-04-25T14:00:50Z</time>
      </trkpt>
      <trkpt lat="44.180220030248165" lon="2.21261196769774">
        <ele>337.07999999999998</ele>
        <time>2025-04-25T14:00:51Z</time>
      </trkpt>
      <trkpt lat="44.18018901720643" lon="2.212371993809938">
        <ele>336.12</ele>
        <time>2025-04-25T14:00:52Z</time>
      </trkpt>
      <trkpt lat="44.180093966424465" lon="2.21218298189342">
        <ele>335.16000000000003</ele>
        <time>2025-04-25T14:00:53Z</time>
      </trkpt>
      <trkpt lat="44.179969998076558" lon="2.212001010775566">
        <ele>334.68000000000001</ele>
        <time>2025-04-25T14:00:54Z</time>
      </trkpt>
      <trkpt lat="44.179817028343678" lon="2.211844017729163">
        <ele>334.19999999999999</ele>
        <time>2025-04-25T14:00:55Z</time>
      </trkpt>
      <trkpt lat="44.179132981225848" lon="2.211188971996307">
        <ele>331.31</ele>
        <time>2025-04-25T14:00:59Z</time>
      </trkpt>
      <trkpt lat="44.178956961259246" lon="2.211077995598316">
        <ele>330.35000000000002</ele>
        <time>2025-04-25T14:01:00Z</time>
      </trkpt>
      <trkpt lat="44.178764009848237" lon="2.211032984778285">
        <ele>329.87</ele>
        <time>2025-04-25T14:01:01Z</time>
      </trkpt>
      <trkpt lat="44.178566029295325" lon="2.211011024191976">
        <ele>328.91000000000003</ele>
        <time>2025-04-25T14:01:02Z</time>
      </trkpt>
      <trkpt lat="44.178364025428891" lon="2.21099803224206">
        <ele>327.94999999999999</ele>
        <time>2025-04-25T14:01:03Z</time>
      </trkpt>
      <trkpt lat="44.177584005519748" lon="2.210986968129873">
        <ele>324.57999999999998</ele>
        <time>2025-04-25T14:01:07Z</time>
      </trkpt>
      <trkpt lat="44.177417038008571" lon="2.211032984778285">
        <ele>324.10000000000002</ele>
        <time>2025-04-25T14:01:08Z</time>
      </trkpt>
      <trkpt lat="44.17726599611342" lon="2.211073972284794">
        <ele>323.62</ele>
        <time>2025-04-25T14:01:09Z</time>
      </trkpt>
      <trkpt lat="44.177121995016932" lon="2.211071038618684">
        <ele>322.66000000000003</ele>
        <time>2025-04-25T14:01:10Z</time>
      </trkpt>
      <trkpt lat="44.1769889742136" lon="2.210996020585299">
        <ele>321.69999999999999</ele>
        <time>2025-04-25T14:01:11Z</time>
      </trkpt>
      <trkpt lat="44.176884032785892" lon="2.210890995338559">
        <ele>321.22000000000003</ele>
        <time>2025-04-25T14:01:12Z</time>
      </trkpt>
      <trkpt lat="44.176851008087397" lon="2.21069703809917">
        <ele>320.25999999999999</ele>
        <time>2025-04-25T14:01:13Z</time>
      </trkpt>
      <trkpt lat="44.176818989217281" lon="2.210514983162284">
        <ele>319.77999999999997</ele>
        <time>2025-04-25T14:01:14Z</time>
      </trkpt>
      <trkpt lat="44.17681303806603" lon="2.210315996780992">
        <ele>319.30000000000001</ele>
        <time>2025-04-25T14:01:15Z</time>
      </trkpt>
      <trkpt lat="44.176850002259016" lon="2.210108041763306">
        <ele>318.81</ele>
        <time>2025-04-25T14:01:16Z</time>
      </trkpt>
      <trkpt lat="44.176889983937144" lon="2.209886005148292">
        <ele>318.81</ele>
        <time>2025-04-25T14:01:17Z</time>
      </trkpt>
      <trkpt lat="44.176972964778543" lon="2.209659023210406">
        <ele>318.32999999999998</ele>
        <time>2025-04-25T14:01:18Z</time>
      </trkpt>
      <trkpt lat="44.177078995853662" lon="2.209437992423773">
        <ele>317.85000000000002</ele>
        <time>2025-04-25T14:01:19Z</time>
      </trkpt>
      <trkpt lat="44.17754502967" lon="2.208603993058205">
        <ele>315.93000000000001</ele>
        <time>2025-04-25T14:01:23Z</time>
      </trkpt>
      <trkpt lat="44.177690036594868" lon="2.208498967811465">
        <ele>315.44999999999999</ele>
        <time>2025-04-25T14:01:24Z</time>
      </trkpt>
      <trkpt lat="44.177837977185845" lon="2.208411041647196">
        <ele>315.44999999999999</ele>
        <time>2025-04-25T14:01:25Z</time>
      </trkpt>
      <trkpt lat="44.177994970232248" lon="2.208337029442191">
        <ele>314.97000000000003</ele>
        <time>2025-04-25T14:01:26Z</time>
      </trkpt>
      <trkpt lat="44.178156992420554" lon="2.208261005580425">
        <ele>314.97000000000003</ele>
        <time>2025-04-25T14:01:27Z</time>
      </trkpt>
      <trkpt lat="44.178318008780479" lon="2.208184981718659">
        <ele>314.97000000000003</ele>
        <time>2025-04-25T14:01:28Z</time>
      </trkpt>
      <trkpt lat="44.178472990170121" lon="2.208100995048881">
        <ele>314.49000000000001</ele>
        <time>2025-04-25T14:01:29Z</time>
      </trkpt>
      <trkpt lat="44.178612967953086" lon="2.207961017265916">
        <ele>314.49000000000001</ele>
        <time>2025-04-25T14:01:30Z</time>
      </trkpt>
      <trkpt lat="44.178732996806502" lon="2.20777602866292">
        <ele>314.49000000000001</ele>
        <time>2025-04-25T14:01:31Z</time>
      </trkpt>
      <trkpt lat="44.178852019831538" lon="2.207586010918021">
        <ele>314.00999999999999</ele>
        <time>2025-04-25T14:01:32Z</time>
      </trkpt>
      <trkpt lat="44.178965007886291" lon="2.207406973466277">
        <ele>314.00999999999999</ele>
        <time>2025-04-25T14:01:33Z</time>
      </trkpt>
      <trkpt lat="44.179042959585786" lon="2.207203963771462">
        <ele>313.52999999999997</ele>
        <time>2025-04-25T14:01:34Z</time>
      </trkpt>
      <trkpt lat="44.179103979840875" lon="2.207019980996847">
        <ele>313.52999999999997</ele>
        <time>2025-04-25T14:01:35Z</time>
      </trkpt>
      <trkpt lat="44.179086964577436" lon="2.206835998222232">
        <ele>313.05000000000001</ele>
        <time>2025-04-25T14:01:36Z</time>
      </trkpt>
      <trkpt lat="44.179054023697972" lon="2.206661989912391">
        <ele>312.56999999999999</ele>
        <time>2025-04-25T14:01:37Z</time>
      </trkpt>
      <trkpt lat="44.178997026756406" lon="2.206502985209227">
        <ele>312.08999999999997</ele>
        <time>2025-04-25T14:01:38Z</time>
      </trkpt>
      <trkpt lat="44.178885966539383" lon="2.206392008811235">
        <ele>311.60000000000002</ele>
        <time>2025-04-25T14:01:39Z</time>
      </trkpt>
      <trkpt lat="44.178766021504998" lon="2.206348003819585">
        <ele>310.63999999999999</ele>
        <time>2025-04-25T14:01:40Z</time>
      </trkpt>
      <trkpt lat="44.17864297516644" lon="2.206354038789868">
        <ele>310.16000000000003</ele>
        <time>2025-04-25T14:01:41Z</time>
      </trkpt>
      <trkpt lat="44.178516995161772" lon="2.20640298910439">
        <ele>309.68000000000001</ele>
        <time>2025-04-25T14:01:42Z</time>
      </trkpt>
      <trkpt lat="44.178381040692329" lon="2.20648898743093">
        <ele>308.72000000000003</ele>
        <time>2025-04-25T14:01:43Z</time>
      </trkpt>
      <trkpt lat="44.178237039595842" lon="2.206579009070993">
        <ele>308.24000000000001</ele>
        <time>2025-04-25T14:01:44Z</time>
      </trkpt>
      <trkpt lat="44.177939984947443" lon="2.206728039309382">
        <ele>307.75999999999999</ele>
        <time>2025-04-25T14:01:46Z</time>
      </trkpt>
      <trkpt lat="44.177759019657969" lon="2.206728039309382">
        <ele>307.27999999999997</ele>
        <time>2025-04-25T14:01:47Z</time>
      </trkpt>
      <trkpt lat="44.177571013569832" lon="2.206728039309382">
        <ele>307.27999999999997</ele>
        <time>2025-04-25T14:01:48Z</time>
      </trkpt>
      <trkpt lat="44.177402034401894" lon="2.20666098408401">
        <ele>306.80000000000001</ele>
        <time>2025-04-25T14:01:49Z</time>
      </trkpt>
      <trkpt lat="44.177258033305407" lon="2.206543972715735">
        <ele>306.80000000000001</ele>
        <time>2025-04-25T14:01:50Z</time>
      </trkpt>
      <trkpt lat="44.177131969481707" lon="2.206405000761151">
        <ele>306.31999999999999</ele>
        <time>2025-04-25T14:01:51Z</time>
      </trkpt>
      <trkpt lat="44.177060974761844" lon="2.206212971359491">
        <ele>305.83999999999997</ele>
        <time>2025-04-25T14:01:52Z</time>
      </trkpt>
      <trkpt lat="44.177003977820277" lon="2.205983977764845">
        <ele>305.36000000000001</ele>
        <time>2025-04-25T14:01:53Z</time>
      </trkpt>
      <trkpt lat="44.176941029727459" lon="2.205733023583889">
        <ele>304.88</ele>
        <time>2025-04-25T14:01:54Z</time>
      </trkpt>
      <trkpt lat="44.176844973117113" lon="2.205488020554185">
        <ele>304.38999999999999</ele>
        <time>2025-04-25T14:01:55Z</time>
      </trkpt>
      <trkpt lat="44.176722010597587" lon="2.205277970060706">
        <ele>303.43000000000001</ele>
        <time>2025-04-25T14:01:56Z</time>
      </trkpt>
      <trkpt lat="44.1765589825809" lon="2.205115025863051">
        <ele>302.94999999999999</ele>
        <time>2025-04-25T14:01:57Z</time>
      </trkpt>
      <trkpt lat="44.176390003412962" lon="2.204972030594945">
        <ele>301.99000000000001</ele>
        <time>2025-04-25T14:01:58Z</time>
      </trkpt>
      <trkpt lat="44.176222030073404" lon="2.204829035326839">
        <ele>301.50999999999999</ele>
        <time>2025-04-25T14:01:59Z</time>
      </trkpt>
      <trkpt lat="44.17606595903635" lon="2.204663995653391">
        <ele>301.02999999999997</ele>
        <time>2025-04-25T14:02:00Z</time>
      </trkpt>
      <trkpt lat="44.175939979031682" lon="2.204455034807324">
        <ele>300.06999999999999</ele>
        <time>2025-04-25T14:02:01Z</time>
      </trkpt>
      <trkpt lat="44.17582799680531" lon="2.204228974878788">
        <ele>299.58999999999997</ele>
        <time>2025-04-25T14:02:02Z</time>
      </trkpt>
      <trkpt lat="44.175682989880443" lon="2.204026971012354">
        <ele>298.63</ele>
        <time>2025-04-25T14:02:03Z</time>
      </trkpt>
      <trkpt lat="44.175523985177279" lon="2.203853968530893">
        <ele>297.67000000000002</ele>
        <time>2025-04-25T14:02:04Z</time>
      </trkpt>
      <trkpt lat="44.175345031544566" lon="2.203730000182986">
        <ele>297.18000000000001</ele>
        <time>2025-04-25T14:02:05Z</time>
      </trkpt>
      <trkpt lat="44.175168005749583" lon="2.20360703766346">
        <ele>296.69999999999999</ele>
        <time>2025-04-25T14:02:06Z</time>
      </trkpt>
      <trkpt lat="44.174996009096503" lon="2.203488014638424">
        <ele>296.22000000000003</ele>
        <time>2025-04-25T14:02:07Z</time>
      </trkpt>
      <trkpt lat="44.174769027158618" lon="2.20343898050487">
        <ele>295.74000000000001</ele>
        <time>2025-04-25T14:02:08Z</time>
      </trkpt>
      <trkpt lat="44.173161964863539" lon="2.203104961663485">
        <ele>292.38</ele>
        <time>2025-04-25T14:02:15Z</time>
      </trkpt>
      <trkpt lat="44.171811975538731" lon="2.203189032152295">
        <ele>289.00999999999999</ele>
        <time>2025-04-25T14:02:21Z</time>
      </trkpt>
      <trkpt lat="44.1714440099895" lon="2.203224990516901">
        <ele>287.56999999999999</ele>
        <time>2025-04-25T14:02:23Z</time>
      </trkpt>
      <trkpt lat="44.171268995851278" lon="2.203161958605051">
        <ele>286.61000000000001</ele>
        <time>2025-04-25T14:02:24Z</time>
      </trkpt>
      <trkpt lat="44.171106973662972" lon="2.20307101495564">
        <ele>286.13</ele>
        <time>2025-04-25T14:02:25Z</time>
      </trkpt>
      <trkpt lat="44.170945035293698" lon="2.202934976667166">
        <ele>285.64999999999998</ele>
        <time>2025-04-25T14:02:26Z</time>
      </trkpt>
      <trkpt lat="44.170794999226928" lon="2.202778989449143">
        <ele>285.17000000000002</ele>
        <time>2025-04-25T14:02:27Z</time>
      </trkpt>
      <trkpt lat="44.170667007565498" lon="2.202603975310922">
        <ele>284.69</ele>
        <time>2025-04-25T14:02:28Z</time>
      </trkpt>
      <trkpt lat="44.170555025339127" lon="2.202411023899913">
        <ele>284.20999999999998</ele>
        <time>2025-04-25T14:02:29Z</time>
      </trkpt>
      <trkpt lat="44.170483024790883" lon="2.202175995334983">
        <ele>283.73000000000002</ele>
        <time>2025-04-25T14:02:30Z</time>
      </trkpt>
      <trkpt lat="44.170409012585878" lon="2.201934009790421">
        <ele>283.25</ele>
        <time>2025-04-25T14:02:31Z</time>
      </trkpt>
      <trkpt lat="44.170340029522777" lon="2.201707027852535">
        <ele>282.76999999999998</ele>
        <time>2025-04-25T14:02:32Z</time>
      </trkpt>
      <trkpt lat="44.170274985954165" lon="2.201513992622495">
        <ele>281.80000000000001</ele>
        <time>2025-04-25T14:02:33Z</time>
      </trkpt>
      <trkpt lat="44.17013400234282" lon="2.201359011232853">
        <ele>280.83999999999997</ele>
        <time>2025-04-25T14:02:34Z</time>
      </trkpt>
      <trkpt lat="44.169999975711107" lon="2.201246023178101">
        <ele>279.88</ele>
        <time>2025-04-25T14:02:35Z</time>
      </trkpt>
      <trkpt lat="44.16983200237155" lon="2.201154995709658">
        <ele>278.44</ele>
        <time>2025-04-25T14:02:36Z</time>
      </trkpt>
      <trkpt lat="44.169651959091425" lon="2.201058017089963">
        <ele>277.48000000000002</ele>
        <time>2025-04-25T14:02:37Z</time>
      </trkpt>
      <trkpt lat="44.16910202242434" lon="2.200884008780122">
        <ele>274.11000000000001</ele>
        <time>2025-04-25T14:02:40Z</time>
      </trkpt>
      <trkpt lat="44.168916027992964" lon="2.200916027650237">
        <ele>272.67000000000002</ele>
        <time>2025-04-25T14:02:41Z</time>
      </trkpt>
      <trkpt lat="44.168721986934543" lon="2.200949974358082">
        <ele>271.70999999999998</ele>
        <time>2025-04-25T14:02:42Z</time>
      </trkpt>
      <trkpt lat="44.167322041466832" lon="2.201292039826512">
        <ele>264.98000000000002</ele>
        <time>2025-04-25T14:02:49Z</time>
      </trkpt>
      <trkpt lat="44.167164964601398" lon="2.201286004856229">
        <ele>264.5</ele>
        <time>2025-04-25T14:02:50Z</time>
      </trkpt>
      <trkpt lat="44.167005037888885" lon="2.201268989592791">
        <ele>263.54000000000002</ele>
        <time>2025-04-25T14:02:51Z</time>
      </trkpt>
      <trkpt lat="44.166853995993733" lon="2.201225990429521">
        <ele>263.06</ele>
        <time>2025-04-25T14:02:52Z</time>
      </trkpt>
      <trkpt lat="44.166732039302588" lon="2.201104033738375">
        <ele>262.10000000000002</ele>
        <time>2025-04-25T14:02:53Z</time>
      </trkpt>
      <trkpt lat="44.166635982692242" lon="2.200938994064927">
        <ele>261.13999999999999</ele>
        <time>2025-04-25T14:02:54Z</time>
      </trkpt>
      <trkpt lat="44.166553001850843" lon="2.200720980763435">
        <ele>260.64999999999998</ele>
        <time>2025-04-25T14:02:55Z</time>
      </trkpt>
      <trkpt lat="44.166464991867542" lon="2.20047002658248">
        <ele>259.69</ele>
        <time>2025-04-25T14:02:56Z</time>
      </trkpt>
      <trkpt lat="44.165992001071572" lon="2.19920301809907">
        <ele>255.37</ele>
        <time>2025-04-25T14:03:01Z</time>
      </trkpt>
      <trkpt lat="44.16585898026824" lon="2.199019035324454">
        <ele>254.41</ele>
        <time>2025-04-25T14:03:02Z</time>
      </trkpt>
      <trkpt lat="44.165717996656895" lon="2.198824994266033">
        <ele>253.44</ele>
        <time>2025-04-25T14:03:03Z</time>
      </trkpt>
      <trkpt lat="44.165058005601168" lon="2.198261981830001">
        <ele>249.59999999999999</ele>
        <time>2025-04-25T14:03:07Z</time>
      </trkpt>
      <trkpt lat="44.164922973141074" lon="2.198073975741863">
        <ele>248.16</ele>
        <time>2025-04-25T14:03:08Z</time>
      </trkpt>
      <trkpt lat="44.164223000407219" lon="2.19684200361371">
        <ele>243.34999999999999</ele>
        <time>2025-04-25T14:03:14Z</time>
      </trkpt>
      <trkpt lat="44.164025019854307" lon="2.19658400863409">
        <ele>242.87</ele>
        <time>2025-04-25T14:03:16Z</time>
      </trkpt>
      <trkpt lat="44.163919994607568" lon="2.196502033621073">
        <ele>242.87</ele>
        <time>2025-04-25T14:03:17Z</time>
      </trkpt>
      <trkpt lat="44.163812035694718" lon="2.196447970345616">
        <ele>242.87</ele>
        <time>2025-04-25T14:03:18Z</time>
      </trkpt>
      <trkpt lat="44.163699969649315" lon="2.196406982839108">
        <ele>242.87</ele>
        <time>2025-04-25T14:03:19Z</time>
      </trkpt>
      <trkpt lat="44.163592010736465" lon="2.196406982839108">
        <ele>242.87</ele>
        <time>2025-04-25T14:03:20Z</time>
      </trkpt>
      <trkpt lat="44.163495032116771" lon="2.196406982839108">
        <ele>242.87</ele>
        <time>2025-04-25T14:03:21Z</time>
      </trkpt>
      <trkpt lat="44.163378020748496" lon="2.196465991437435">
        <ele>242.87</ele>
        <time>2025-04-25T14:03:22Z</time>
      </trkpt>
      <trkpt lat="44.163270983844995" lon="2.196518965065479">
        <ele>242.87</ele>
        <time>2025-04-25T14:03:23Z</time>
      </trkpt>
      <trkpt lat="44.163169981911778" lon="2.196570010855794">
        <ele>243.34999999999999</ele>
        <time>2025-04-25T14:03:24Z</time>
      </trkpt>
      <trkpt lat="44.163078032433987" lon="2.196609992533922">
        <ele>243.34999999999999</ele>
        <time>2025-04-25T14:03:25Z</time>
      </trkpt>
      <trkpt lat="44.16300100274384" lon="2.196643017232418">
        <ele>243.34999999999999</ele>
        <time>2025-04-25T14:03:26Z</time>
      </trkpt>
      <trkpt lat="44.162911986932158" lon="2.196634970605373">
        <ele>242.87</ele>
        <time>2025-04-25T14:03:27Z</time>
      </trkpt>
      <trkpt lat="44.162821965292096" lon="2.19662700779736">
        <ele>242.38999999999999</ele>
        <time>2025-04-25T14:03:28Z</time>
      </trkpt>
      <trkpt lat="44.162733033299446" lon="2.196612004190683">
        <ele>242.38999999999999</ele>
        <time>2025-04-25T14:03:29Z</time>
      </trkpt>
      <trkpt lat="44.162112018093467" lon="2.196370018646121">
        <ele>240.47</ele>
        <time>2025-04-25T14:03:35Z</time>
      </trkpt>
      <trkpt lat="44.162042029201984" lon="2.196258036419749">
        <ele>239.99000000000001</ele>
        <time>2025-04-25T14:03:36Z</time>
      </trkpt>
      <trkpt lat="44.161983020603657" lon="2.196148987859488">
        <ele>239.50999999999999</ele>
        <time>2025-04-25T14:03:37Z</time>
      </trkpt>
      <trkpt lat="44.161971034482121" lon="2.196016972884536">
        <ele>239.50999999999999</ele>
        <time>2025-04-25T14:03:38Z</time>
      </trkpt>
      <trkpt lat="44.161972040310502" lon="2.195855034515262">
        <ele>239.50999999999999</ele>
        <time>2025-04-25T14:03:39Z</time>
      </trkpt>
      <trkpt lat="44.161986038088799" lon="2.195670967921615">
        <ele>239.50999999999999</ele>
        <time>2025-04-25T14:03:40Z</time>
      </trkpt>
      <trkpt lat="44.162000035867095" lon="2.195469969883561">
        <ele>239.50999999999999</ele>
        <time>2025-04-25T14:03:41Z</time>
      </trkpt>
      <trkpt lat="44.162049992009997" lon="2.194661032408476">
        <ele>240.47</ele>
        <time>2025-04-25T14:03:45Z</time>
      </trkpt>
      <trkpt lat="44.162009004503489" lon="2.194484006613493">
        <ele>240.47</ele>
        <time>2025-04-25T14:03:46Z</time>
      </trkpt>
      <trkpt lat="44.161891993135214" lon="2.193974973633885">
        <ele>241.91</ele>
        <time>2025-04-25T14:03:49Z</time>
      </trkpt>
      <trkpt lat="44.161587981507182" lon="2.193091018125415">
        <ele>245.75</ele>
        <time>2025-04-25T14:03:54Z</time>
      </trkpt>
      <trkpt lat="44.161511035636067" lon="2.192879039794207">
        <ele>246.22999999999999</ele>
        <time>2025-04-25T14:03:55Z</time>
      </trkpt>
      <trkpt lat="44.1614989656955" lon="2.19258600845933">
        <ele>247.19999999999999</ele>
        <time>2025-04-25T14:03:56Z</time>
      </trkpt>
      <trkpt lat="44.1614989656955" lon="2.192323990166187">
        <ele>248.16</ele>
        <time>2025-04-25T14:03:57Z</time>
      </trkpt>
      <trkpt lat="44.161511035636067" lon="2.192037999629974">
        <ele>248.63999999999999</ele>
        <time>2025-04-25T14:03:58Z</time>
      </trkpt>
      <trkpt lat="44.161542970687151" lon="2.191763995215297">
        <ele>249.59999999999999</ele>
        <time>2025-04-25T14:03:59Z</time>
      </trkpt>
      <trkpt lat="44.161574989557266" lon="2.191495019942522">
        <ele>250.08000000000001</ele>
        <time>2025-04-25T14:04:00Z</time>
      </trkpt>
      <trkpt lat="44.161660987883806" lon="2.19123400747776">
        <ele>251.03999999999999</ele>
        <time>2025-04-25T14:04:01Z</time>
      </trkpt>
      <trkpt lat="44.161765007302165" lon="2.190999984741211">
        <ele>252</ele>
        <time>2025-04-25T14:04:02Z</time>
      </trkpt>
      <trkpt lat="44.161870032548904" lon="2.19076101668179">
        <ele>252</ele>
        <time>2025-04-25T14:04:03Z</time>
      </trkpt>
      <trkpt lat="44.162004981189966" lon="2.190536968410015">
        <ele>252.96000000000001</ele>
        <time>2025-04-25T14:04:04Z</time>
      </trkpt>
      <trkpt lat="44.162158034741879" lon="2.19033102504909">
        <ele>253.44</ele>
        <time>2025-04-25T14:04:05Z</time>
      </trkpt>
      <trkpt lat="44.162322990596294" lon="2.19013899564743">
        <ele>254.41</ele>
        <time>2025-04-25T14:04:06Z</time>
      </trkpt>
      <trkpt lat="44.162514014169574" lon="2.189978985115886">
        <ele>255.37</ele>
        <time>2025-04-25T14:04:07Z</time>
      </trkpt>
      <trkpt lat="44.163094963878393" lon="2.189529966562986">
        <ele>258.25</ele>
        <time>2025-04-25T14:04:10Z</time>
      </trkpt>
      <trkpt lat="44.16377398185432" lon="2.188895959407091">
        <ele>261.13999999999999</ele>
        <time>2025-04-25T14:04:14Z</time>
      </trkpt>
      <trkpt lat="44.163913959637284" lon="2.188675012439489">
        <ele>262.57999999999998</ele>
        <time>2025-04-25T14:04:15Z</time>
      </trkpt>
      <trkpt lat="44.16418100707233" lon="2.188232028856874">
        <ele>264.01999999999998</ele>
        <time>2025-04-25T14:04:17Z</time>
      </trkpt>
      <trkpt lat="44.164345962926745" lon="2.188075035810471">
        <ele>264.5</ele>
        <time>2025-04-25T14:04:18Z</time>
      </trkpt>
      <trkpt lat="44.164587026461959" lon="2.187846964225173">
        <ele>265.45999999999998</ele>
        <time>2025-04-25T14:04:20Z</time>
      </trkpt>
      <trkpt lat="44.164642011746764" lon="2.187745962291956">
        <ele>265.45999999999998</ele>
        <time>2025-04-25T14:04:21Z</time>
      </trkpt>
      <trkpt lat="44.164646035060287" lon="2.187670022249222">
        <ele>265.45999999999998</ele>
        <time>2025-04-25T14:04:22Z</time>
      </trkpt>
      <trkpt lat="44.16463203728199" lon="2.187587963417172">
        <ele>265.45999999999998</ele>
        <time>2025-04-25T14:04:23Z</time>
      </trkpt>
      <trkpt lat="44.164580991491675" lon="2.187519986182451">
        <ele>265.45999999999998</ele>
        <time>2025-04-25T14:04:24Z</time>
      </trkpt>
      <trkpt lat="44.164507985115051" lon="2.187535995617509">
        <ele>265.45999999999998</ele>
        <time>2025-04-25T14:04:25Z</time>
      </trkpt>
      <trkpt lat="44.164412012323737" lon="2.187595004215837">
        <ele>265.45999999999998</ele>
        <time>2025-04-25T14:04:26Z</time>
      </trkpt>
      <trkpt lat="44.164315033704042" lon="2.187726013362408">
        <ele>265.45999999999998</ele>
        <time>2025-04-25T14:04:27Z</time>
      </trkpt>
      <trkpt lat="44.163659987971187" lon="2.188592031598091">
        <ele>265.94</ele>
        <time>2025-04-25T14:04:32Z</time>
      </trkpt>
      <trkpt lat="44.163512969389558" lon="2.188792023807764">
        <ele>265.94</ele>
        <time>2025-04-25T14:04:33Z</time>
      </trkpt>
      <trkpt lat="44.16300100274384" lon="2.189240036532283">
        <ele>266.42000000000002</ele>
        <time>2025-04-25T14:04:36Z</time>
      </trkpt>
      <trkpt lat="44.162819031625986" lon="2.189357969909906">
        <ele>266.89999999999998</ele>
        <time>2025-04-25T14:04:37Z</time>
      </trkpt>
      <trkpt lat="44.162638988345861" lon="2.189474981278181">
        <ele>266.89999999999998</ele>
        <time>2025-04-25T14:04:38Z</time>
      </trkpt>
      <trkpt lat="44.161976985633373" lon="2.189985020086169">
        <ele>266.89999999999998</ele>
        <time>2025-04-25T14:04:42Z</time>
      </trkpt>
      <trkpt lat="44.161703987047076" lon="2.190305041149259">
        <ele>266.89999999999998</ele>
        <time>2025-04-25T14:04:44Z</time>
      </trkpt>
      <trkpt lat="44.161454038694501" lon="2.19065498560667">
        <ele>267.38</ele>
        <time>2025-04-25T14:04:46Z</time>
      </trkpt>
      <trkpt lat="44.161342978477478" lon="2.190865036100149">
        <ele>267.86000000000001</ele>
        <time>2025-04-25T14:04:47Z</time>
      </trkpt>
      <trkpt lat="44.16098297573626" lon="2.191872959956527">
        <ele>269.31</ele>
        <time>2025-04-25T14:04:52Z</time>
      </trkpt>
      <trkpt lat="44.160940982401371" lon="2.192030036821961">
        <ele>269.79000000000002</ele>
        <time>2025-04-25T14:04:53Z</time>
      </trkpt>
      <trkpt lat="44.160948023200035" lon="2.192189963534474">
        <ele>270.75</ele>
        <time>2025-04-25T14:04:54Z</time>
      </trkpt>
      <trkpt lat="44.16096000932157" lon="2.192575028166175">
        <ele>272.67000000000002</ele>
        <time>2025-04-25T14:04:57Z</time>
      </trkpt>
      <trkpt lat="44.160951962694526" lon="2.192666977643967">
        <ele>273.63</ele>
        <time>2025-04-25T14:04:58Z</time>
      </trkpt>
      <trkpt lat="44.160888008773327" lon="2.192804021760821">
        <ele>275.56</ele>
        <time>2025-04-25T14:04:59Z</time>
      </trkpt>
      <trkpt lat="44.160844003781676" lon="2.192822964861989">
        <ele>276.51999999999998</ele>
        <time>2025-04-25T14:05:00Z</time>
      </trkpt>
      <trkpt lat="44.160748030990362" lon="2.1927809715271">
        <ele>277</ele>
        <time>2025-04-25T14:05:01Z</time>
      </trkpt>
      <trkpt lat="44.160752976313233" lon="2.192624984309077">
        <ele>277</ele>
        <time>2025-04-25T14:05:02Z</time>
      </trkpt>
      <trkpt lat="44.160758005455136" lon="2.192470002919436">
        <ele>277.48000000000002</ele>
        <time>2025-04-25T14:05:03Z</time>
      </trkpt>
      <trkpt lat="44.160764962434769" lon="2.192269004881382">
        <ele>278.44</ele>
        <time>2025-04-25T14:05:04Z</time>
      </trkpt>
      <trkpt lat="44.160778038203716" lon="2.192056020721793">
        <ele>279.88</ele>
        <time>2025-04-25T14:05:05Z</time>
      </trkpt>
      <trkpt lat="44.160781977698207" lon="2.19185502268374">
        <ele>280.83999999999997</ele>
        <time>2025-04-25T14:05:06Z</time>
      </trkpt>
      <trkpt lat="44.160748030990362" lon="2.19160096719861">
        <ele>282.76999999999998</ele>
        <time>2025-04-25T14:05:07Z</time>
      </trkpt>
      <trkpt lat="44.160706037655473" lon="2.191436011344194">
        <ele>283.73000000000002</ele>
        <time>2025-04-25T14:05:08Z</time>
      </trkpt>
      <trkpt lat="44.160593971610069" lon="2.19099503941834">
        <ele>286.13</ele>
        <time>2025-04-25T14:05:10Z</time>
      </trkpt>
      <trkpt lat="44.160537980496883" lon="2.190774008631706">
        <ele>287.56999999999999</ele>
        <time>2025-04-25T14:05:11Z</time>
      </trkpt>
      <trkpt lat="44.160488024353981" lon="2.190578039735556">
        <ele>289.00999999999999</ele>
        <time>2025-04-25T14:05:12Z</time>
      </trkpt>
      <trkpt lat="44.160445025190711" lon="2.190407970920205">
        <ele>289.97000000000003</ele>
        <time>2025-04-25T14:05:13Z</time>
      </trkpt>
      <trkpt lat="44.160376964136958" lon="2.190257012844086">
        <ele>291.42000000000002</ele>
        <time>2025-04-25T14:05:14Z</time>
      </trkpt>
      <trkpt lat="44.160274034366012" lon="2.190098008140922">
        <ele>292.86000000000001</ele>
        <time>2025-04-25T14:05:15Z</time>
      </trkpt>
      <trkpt lat="44.160161968320608" lon="2.189921988174319">
        <ele>294.77999999999997</ele>
        <time>2025-04-25T14:05:16Z</time>
      </trkpt>
      <trkpt lat="44.160043029114604" lon="2.189735993742943">
        <ele>296.22000000000003</ele>
        <time>2025-04-25T14:05:17Z</time>
      </trkpt>
      <trkpt lat="44.159360993653536" lon="2.188488012179732">
        <ele>307.27999999999997</ele>
        <time>2025-04-25T14:05:24Z</time>
      </trkpt>
      <trkpt lat="44.159199977293611" lon="2.188181988894939">
        <ele>310.63999999999999</ele>
        <time>2025-04-25T14:05:26Z</time>
      </trkpt>
      <trkpt lat="44.159098975360394" lon="2.188067995011807">
        <ele>312.56999999999999</ele>
        <time>2025-04-25T14:05:27Z</time>
      </trkpt>
      <trkpt lat="44.15898397564888" lon="2.187959030270577">
        <ele>314.00999999999999</ele>
        <time>2025-04-25T14:05:28Z</time>
      </trkpt>
      <trkpt lat="44.158665966242552" lon="2.187605984508991">
        <ele>317.85000000000002</ele>
        <time>2025-04-25T14:05:31Z</time>
      </trkpt>
      <trkpt lat="44.158603018149734" lon="2.187442034482956">
        <ele>318.81</ele>
        <time>2025-04-25T14:05:32Z</time>
      </trkpt>
      <trkpt lat="44.158576028421521" lon="2.187243970111013">
        <ele>319.77999999999997</ele>
        <time>2025-04-25T14:05:33Z</time>
      </trkpt>
      <trkpt lat="44.158563036471605" lon="2.187007013708353">
        <ele>320.74000000000001</ele>
        <time>2025-04-25T14:05:34Z</time>
      </trkpt>
      <trkpt lat="44.158548032864928" lon="2.186732003465295">
        <ele>322.18000000000001</ele>
        <time>2025-04-25T14:05:35Z</time>
      </trkpt>
      <trkpt lat="44.158385004848242" lon="2.185127036646009">
        <ele>329.38999999999999</ele>
        <time>2025-04-25T14:05:40Z</time>
      </trkpt>
      <trkpt lat="44.158317027613521" lon="2.184841968119144">
        <ele>330.82999999999998</ele>
        <time>2025-04-25T14:05:41Z</time>
      </trkpt>
      <trkpt lat="44.158231029286981" lon="2.184578021988273">
        <ele>332.26999999999998</ele>
        <time>2025-04-25T14:05:42Z</time>
      </trkpt>
      <trkpt lat="44.158092979341745" lon="2.184093967080116">
        <ele>335.16000000000003</ele>
        <time>2025-04-25T14:05:44Z</time>
      </trkpt>
      <trkpt lat="44.158050986006856" lon="2.183857010677457">
        <ele>336.60000000000002</ele>
        <time>2025-04-25T14:05:45Z</time>
      </trkpt>
      <trkpt lat="44.157926011830568" lon="2.183117978274822">
        <ele>340.44</ele>
        <time>2025-04-25T14:05:48Z</time>
      </trkpt>
      <trkpt lat="44.157893992960453" lon="2.182886973023415">
        <ele>341.88999999999999</ele>
        <time>2025-04-25T14:05:49Z</time>
      </trkpt>
      <trkpt lat="44.157903967425227" lon="2.182657979428768">
        <ele>343.32999999999998</ele>
        <time>2025-04-25T14:05:50Z</time>
      </trkpt>
      <trkpt lat="44.157956019043922" lon="2.182448012754321">
        <ele>344.76999999999998</ele>
        <time>2025-04-25T14:05:51Z</time>
      </trkpt>
      <trkpt lat="44.158003963530064" lon="2.182254977524281">
        <ele>346.20999999999998</ele>
        <time>2025-04-25T14:05:52Z</time>
      </trkpt>
      <trkpt lat="44.158044029027224" lon="2.182097984477878">
        <ele>347.64999999999998</ele>
        <time>2025-04-25T14:05:53Z</time>
      </trkpt>
      <trkpt lat="44.158047968521714" lon="2.18197301030159">
        <ele>348.62</ele>
        <time>2025-04-25T14:05:54Z</time>
      </trkpt>
      <trkpt lat="44.158001029863954" lon="2.181879971176386">
        <ele>350.06</ele>
        <time>2025-04-25T14:05:55Z</time>
      </trkpt>
      <trkpt lat="44.157906984910369" lon="2.181820962578058">
        <ele>351.01999999999998</ele>
        <time>2025-04-25T14:05:56Z</time>
      </trkpt>
      <trkpt lat="44.157797014340758" lon="2.181752985343337">
        <ele>352.45999999999998</ele>
        <time>2025-04-25T14:05:57Z</time>
      </trkpt>
      <trkpt lat="44.157677991315722" lon="2.181677967309952">
        <ele>353.42000000000002</ele>
        <time>2025-04-25T14:05:58Z</time>
      </trkpt>
      <trkpt lat="44.157581012696028" lon="2.181564979255199">
        <ele>354.86000000000001</ele>
        <time>2025-04-25T14:05:59Z</time>
      </trkpt>
      <trkpt lat="44.157465007156134" lon="2.181413015350699">
        <ele>356.31</ele>
        <time>2025-04-25T14:06:00Z</time>
      </trkpt>
      <trkpt lat="44.157352019101381" lon="2.181249987334013">
        <ele>358.23000000000002</ele>
        <time>2025-04-25T14:06:01Z</time>
      </trkpt>
      <trkpt lat="44.157239031046629" lon="2.181043038144708">
        <ele>359.67000000000002</ele>
        <time>2025-04-25T14:06:02Z</time>
      </trkpt>
      <trkpt lat="44.157117996364832" lon="2.180818989872932">
        <ele>361.11000000000001</ele>
        <time>2025-04-25T14:06:03Z</time>
      </trkpt>
      <trkpt lat="44.156798981130123" lon="2.180137038230896">
        <ele>365.44</ele>
        <time>2025-04-25T14:06:06Z</time>
      </trkpt>
      <trkpt lat="44.156720023602247" lon="2.179941991344094">
        <ele>366.88</ele>
        <time>2025-04-25T14:06:07Z</time>
      </trkpt>
      <trkpt lat="44.156713988631964" lon="2.179734036326408">
        <ele>368.31999999999999</ele>
        <time>2025-04-25T14:06:08Z</time>
      </trkpt>
      <trkpt lat="44.156732009723783" lon="2.179529014974833">
        <ele>369.75999999999999</ele>
        <time>2025-04-25T14:06:09Z</time>
      </trkpt>
      <trkpt lat="44.156797975301743" lon="2.179324999451637">
        <ele>371.20999999999998</ele>
        <time>2025-04-25T14:06:10Z</time>
      </trkpt>
      <trkpt lat="44.156861007213593" lon="2.179128024727106">
        <ele>372.17000000000002</ele>
        <time>2025-04-25T14:06:11Z</time>
      </trkpt>
      <trkpt lat="44.156914986670017" lon="2.178960973396897">
        <ele>373.61000000000001</ele>
        <time>2025-04-25T14:06:12Z</time>
      </trkpt>
      <trkpt lat="44.156915992498398" lon="2.17879300005734">
        <ele>374.56999999999999</ele>
        <time>2025-04-25T14:06:13Z</time>
      </trkpt>
      <trkpt lat="44.156858995556831" lon="2.178669031709433">
        <ele>375.05000000000001</ele>
        <time>2025-04-25T14:06:14Z</time>
      </trkpt>
      <trkpt lat="44.156752964481711" lon="2.178640030324459">
        <ele>375.52999999999997</ele>
        <time>2025-04-25T14:06:15Z</time>
      </trkpt>
      <trkpt lat="44.156635031104088" lon="2.17868696898222">
        <ele>376.00999999999999</ele>
        <time>2025-04-25T14:06:16Z</time>
      </trkpt>
      <trkpt lat="44.156516008079052" lon="2.178743965923786">
        <ele>376.00999999999999</ele>
        <time>2025-04-25T14:06:17Z</time>
      </trkpt>
      <trkpt lat="44.156396985054016" lon="2.178800040856004">
        <ele>376.00999999999999</ele>
        <time>2025-04-25T14:06:18Z</time>
      </trkpt>
      <trkpt lat="44.156286008656025" lon="2.178798029199243">
        <ele>376.00999999999999</ele>
        <time>2025-04-25T14:06:19Z</time>
      </trkpt>
      <trkpt lat="44.156192969530821" lon="2.178702978417277">
        <ele>376.00999999999999</ele>
        <time>2025-04-25T14:06:20Z</time>
      </trkpt>
      <trkpt lat="44.156130021438003" lon="2.178559983149171">
        <ele>375.52999999999997</ele>
        <time>2025-04-25T14:06:21Z</time>
      </trkpt>
      <trkpt lat="44.1561059653759" lon="2.178378012031317">
        <ele>375.52999999999997</ele>
        <time>2025-04-25T14:06:22Z</time>
      </trkpt>
      <trkpt lat="44.156077969819307" lon="2.178164022043347">
        <ele>376.00999999999999</ele>
        <time>2025-04-25T14:06:23Z</time>
      </trkpt>
      <trkpt lat="44.156021978706121" lon="2.177936034277082">
        <ele>376.49000000000001</ele>
        <time>2025-04-25T14:06:24Z</time>
      </trkpt>
      <trkpt lat="44.155951989814639" lon="2.177694970741868">
        <ele>376.49000000000001</ele>
        <time>2025-04-25T14:06:25Z</time>
      </trkpt>
      <trkpt lat="44.155884012579918" lon="2.17746002599597">
        <ele>376.97000000000003</ele>
        <time>2025-04-25T14:06:26Z</time>
      </trkpt>
      <trkpt lat="44.155820980668068" lon="2.177238995209336">
        <ele>376.97000000000003</ele>
        <time>2025-04-25T14:06:27Z</time>
      </trkpt>
      <trkpt lat="44.155798014253378" lon="2.177002038806677">
        <ele>377.44999999999999</ele>
        <time>2025-04-25T14:06:28Z</time>
      </trkpt>
      <trkpt lat="44.155810000374913" lon="2.176754018291831">
        <ele>377.94</ele>
        <time>2025-04-25T14:06:29Z</time>
      </trkpt>
      <trkpt lat="44.155858028680086" lon="2.176499040797353">
        <ele>378.42000000000002</ele>
        <time>2025-04-25T14:06:30Z</time>
      </trkpt>
      <trkpt lat="44.155919970944524" lon="2.176240039989352">
        <ele>379.38</ele>
        <time>2025-04-25T14:06:31Z</time>
      </trkpt>
      <trkpt lat="44.155990965664387" lon="2.175980033352971">
        <ele>379.86000000000001</ele>
        <time>2025-04-25T14:06:32Z</time>
      </trkpt>
      <trkpt lat="44.156199004501104" lon="2.175242006778717">
        <ele>382.74000000000001</ele>
        <time>2025-04-25T14:06:35Z</time>
      </trkpt>
      <trkpt lat="44.156199004501104" lon="2.174985017627478">
        <ele>383.69999999999999</ele>
        <time>2025-04-25T14:06:36Z</time>
      </trkpt>
      <trkpt lat="44.156199004501104" lon="2.174709001556039">
        <ele>384.66000000000003</ele>
        <time>2025-04-25T14:06:37Z</time>
      </trkpt>
      <trkpt lat="44.156202021986246" lon="2.174427034333348">
        <ele>385.63</ele>
        <time>2025-04-25T14:06:38Z</time>
      </trkpt>
      <trkpt lat="44.15621099062264" lon="2.174139032140374">
        <ele>387.06999999999999</ele>
        <time>2025-04-25T14:06:39Z</time>
      </trkpt>
      <trkpt lat="44.156219037249684" lon="2.173841977491975">
        <ele>388.02999999999997</ele>
        <time>2025-04-25T14:06:40Z</time>
      </trkpt>
      <trkpt lat="44.15627502836287" lon="2.173296986147761">
        <ele>390.43000000000001</ele>
        <time>2025-04-25T14:06:42Z</time>
      </trkpt>
      <trkpt lat="44.156345017254353" lon="2.173049971461296">
        <ele>391.38999999999999</ele>
        <time>2025-04-25T14:06:43Z</time>
      </trkpt>
      <trkpt lat="44.156444007530808" lon="2.172813015058637">
        <ele>392.83999999999997</ele>
        <time>2025-04-25T14:06:44Z</time>
      </trkpt>
      <trkpt lat="44.157211035490036" lon="2.171259010210633">
        <ele>401.97000000000003</ele>
        <time>2025-04-25T14:06:51Z</time>
      </trkpt>
      <trkpt lat="44.157205000519753" lon="2.171089025214315">
        <ele>402.44999999999999</ele>
        <time>2025-04-25T14:06:52Z</time>
      </trkpt>
      <trkpt lat="44.157165018841624" lon="2.170916022732854">
        <ele>402.93000000000001</ele>
        <time>2025-04-25T14:06:53Z</time>
      </trkpt>
      <trkpt lat="44.15706804022193" lon="2.170798005536199">
        <ele>403.88999999999999</ele>
        <time>2025-04-25T14:06:54Z</time>
      </trkpt>
      <trkpt lat="44.15696200914681" lon="2.170674037188292">
        <ele>403.88999999999999</ele>
        <time>2025-04-25T14:06:55Z</time>
      </trkpt>
      <trkpt lat="44.156807027757168" lon="2.170579992234707">
        <ele>403.88999999999999</ele>
        <time>2025-04-25T14:06:56Z</time>
      </trkpt>
      <trkpt lat="44.156643999740481" lon="2.170481001958251">
        <ele>404.37</ele>
        <time>2025-04-25T14:06:57Z</time>
      </trkpt>
      <trkpt lat="44.156328001990914" lon="2.170288972556591">
        <ele>405.32999999999998</ele>
        <time>2025-04-25T14:06:59Z</time>
      </trkpt>
      <trkpt lat="44.156191041693091" lon="2.170167015865445">
        <ele>405.81</ele>
        <time>2025-04-25T14:07:00Z</time>
      </trkpt>
      <trkpt lat="44.156090039759874" lon="2.169998958706856">
        <ele>406.29000000000002</ele>
        <time>2025-04-25T14:07:01Z</time>
      </trkpt>
      <trkpt lat="44.156031031161547" lon="2.169802989810705">
        <ele>406.76999999999998</ele>
        <time>2025-04-25T14:07:02Z</time>
      </trkpt>
      <trkpt lat="44.155965987592936" lon="2.169584976509213">
        <ele>407.74000000000001</ele>
        <time>2025-04-25T14:07:03Z</time>
      </trkpt>
      <trkpt lat="44.155895998701453" lon="2.169349025934935">
        <ele>408.22000000000003</ele>
        <time>2025-04-25T14:07:04Z</time>
      </trkpt>
      <trkpt lat="44.155555022880435" lon="2.167568039149046">
        <ele>412.54000000000002</ele>
        <time>2025-04-25T14:07:11Z</time>
      </trkpt>
      <trkpt lat="44.15548000484705" lon="2.167371986433864">
        <ele>413.01999999999998</ele>
        <time>2025-04-25T14:07:12Z</time>
      </trkpt>
      <trkpt lat="44.155388977378607" lon="2.167223962023854">
        <ele>413.98000000000002</ele>
        <time>2025-04-25T14:07:13Z</time>
      </trkpt>
      <trkpt lat="44.155255034565926" lon="2.167075015604496">
        <ele>414.47000000000003</ele>
        <time>2025-04-25T14:07:14Z</time>
      </trkpt>
      <trkpt lat="44.155125031247735" lon="2.166988011449575">
        <ele>414.94999999999999</ele>
        <time>2025-04-25T14:07:15Z</time>
      </trkpt>
      <trkpt lat="44.154977006837726" lon="2.16688902117312">
        <ele>415.43000000000001</ele>
        <time>2025-04-25T14:07:16Z</time>
      </trkpt>
      <trkpt lat="44.153773030266166" lon="2.166216960176826">
        <ele>418.31</ele>
        <time>2025-04-25T14:07:24Z</time>
      </trkpt>
      <trkpt lat="44.152213996276259" lon="2.165613966062665">
        <ele>418.79000000000002</ele>
        <time>2025-04-25T14:07:33Z</time>
      </trkpt>
      <trkpt lat="44.149965969845653" lon="2.165026981383562">
        <ele>416.87</ele>
        <time>2025-04-25T14:07:45Z</time>
      </trkpt>
      <trkpt lat="44.149767989292741" lon="2.165074003860354">
        <ele>416.87</ele>
        <time>2025-04-25T14:07:46Z</time>
      </trkpt>
      <trkpt lat="44.14834801107645" lon="2.16545102186501">
        <ele>414.94999999999999</ele>
        <time>2025-04-25T14:07:54Z</time>
      </trkpt>
      <trkpt lat="44.147577965632081" lon="2.165713962167501">
        <ele>413.5</ele>
        <time>2025-04-25T14:07:59Z</time>
      </trkpt>
      <trkpt lat="44.1472730319947" lon="2.165904985740781">
        <ele>413.01999999999998</ele>
        <time>2025-04-25T14:08:02Z</time>
      </trkpt>
      <trkpt lat="44.14723003283143" lon="2.165937004610896">
        <ele>413.01999999999998</ele>
        <time>2025-04-25T14:08:03Z</time>
      </trkpt>
      <trkpt lat="44.14714403450489" lon="2.166001964360476">
        <ele>413.01999999999998</ele>
        <time>2025-04-25T14:08:04Z</time>
      </trkpt>
      <trkpt lat="44.147073039785028" lon="2.166064996272326">
        <ele>412.54000000000002</ele>
        <time>2025-04-25T14:08:05Z</time>
      </trkpt>
      <trkpt lat="44.146988969296217" lon="2.166140014305711">
        <ele>412.54000000000002</ele>
        <time>2025-04-25T14:08:06Z</time>
      </trkpt>
      <trkpt lat="44.146900959312916" lon="2.166217966005206">
        <ele>412.54000000000002</ele>
        <time>2025-04-25T14:08:07Z</time>
      </trkpt>
      <trkpt lat="44.146819990128279" lon="2.166288960725069">
        <ele>412.54000000000002</ele>
        <time>2025-04-25T14:08:08Z</time>
      </trkpt>
      <trkpt lat="44.146051034331322" lon="2.166947023943067">
        <ele>409.18000000000001</ele>
        <time>2025-04-25T14:08:19Z</time>
      </trkpt>
      <trkpt lat="44.145075967535377" lon="2.167720003053546">
        <ele>406.29000000000002</ele>
        <time>2025-04-25T14:08:32Z</time>
      </trkpt>
      <trkpt lat="44.144909000024199" lon="2.167756967246532">
        <ele>406.76999999999998</ele>
        <time>2025-04-25T14:08:34Z</time>
      </trkpt>
      <trkpt lat="44.143881965428591" lon="2.167984033003449">
        <ele>409.18000000000001</ele>
        <time>2025-04-25T14:08:44Z</time>
      </trkpt>
      <trkpt lat="44.143205964937806" lon="2.168090986087918">
        <ele>410.13999999999999</ele>
        <time>2025-04-25T14:08:51Z</time>
      </trkpt>
      <trkpt lat="44.143128013238311" lon="2.168057039380074">
        <ele>410.13999999999999</ele>
        <time>2025-04-25T14:08:52Z</time>
      </trkpt>
      <trkpt lat="44.143054001033306" lon="2.167990989983082">
        <ele>410.13999999999999</ele>
        <time>2025-04-25T14:08:53Z</time>
      </trkpt>
      <trkpt lat="44.142514038830996" lon="2.167146010324359">
        <ele>407.74000000000001</ele>
        <time>2025-04-25T14:09:02Z</time>
      </trkpt>
      <trkpt lat="44.142453018575907" lon="2.167070992290974">
        <ele>407.25999999999999</ele>
        <time>2025-04-25T14:09:03Z</time>
      </trkpt>
      <trkpt lat="44.142256965860724" lon="2.166833030059934">
        <ele>405.81</ele>
        <time>2025-04-25T14:09:06Z</time>
      </trkpt>
      <trkpt lat="44.141798978671432" lon="2.166232969611883">
        <ele>403.88999999999999</ele>
        <time>2025-04-25T14:09:13Z</time>
      </trkpt>
      <trkpt lat="44.141736030578613" lon="2.166149988770485">
        <ele>403.41000000000003</ele>
        <time>2025-04-25T14:09:14Z</time>
      </trkpt>
      <trkpt lat="44.141675010323524" lon="2.166069019585848">
        <ele>402.93000000000001</ele>
        <time>2025-04-25T14:09:15Z</time>
      </trkpt>
      <trkpt lat="44.141609966754913" lon="2.165983021259308">
        <ele>402.44999999999999</ele>
        <time>2025-04-25T14:09:16Z</time>
      </trkpt>
      <trkpt lat="44.141542995348573" lon="2.165894005447626">
        <ele>401.97000000000003</ele>
        <time>2025-04-25T14:09:17Z</time>
      </trkpt>
      <trkpt lat="44.141479041427374" lon="2.165808007121086">
        <ele>401.49000000000001</ele>
        <time>2025-04-25T14:09:18Z</time>
      </trkpt>
      <trkpt lat="44.140636995434761" lon="2.16467997059226">
        <ele>400.05000000000001</ele>
        <time>2025-04-25T14:09:30Z</time>
      </trkpt>
      <trkpt lat="44.139782041311264" lon="2.163973040878773">
        <ele>401.00999999999999</ele>
        <time>2025-04-25T14:09:39Z</time>
      </trkpt>
      <trkpt lat="44.139677016064525" lon="2.163919983431697">
        <ele>401.49000000000001</ele>
        <time>2025-04-25T14:09:40Z</time>
      </trkpt>
      <trkpt lat="44.139586994424462" lon="2.163688978180289">
        <ele>401.97000000000003</ele>
        <time>2025-04-25T14:09:42Z</time>
      </trkpt>
      <trkpt lat="44.139533014968038" lon="2.163653019815683">
        <ele>401.97000000000003</ele>
        <time>2025-04-25T14:09:43Z</time>
      </trkpt>
      <trkpt lat="44.139452967792749" lon="2.163650002330542">
        <ele>401.97000000000003</ele>
        <time>2025-04-25T14:09:44Z</time>
      </trkpt>
      <trkpt lat="44.139397982507944" lon="2.163705993443728">
        <ele>401.49000000000001</ele>
        <time>2025-04-25T14:09:45Z</time>
      </trkpt>
      <trkpt lat="44.139397982507944" lon="2.163791991770268">
        <ele>401.49000000000001</ele>
        <time>2025-04-25T14:09:46Z</time>
      </trkpt>
      <trkpt lat="44.139387002214789" lon="2.163996007293463">
        <ele>401.49000000000001</ele>
        <time>2025-04-25T14:09:47Z</time>
      </trkpt>
      <trkpt lat="44.139321958646178" lon="2.164045963436365">
        <ele>401.49000000000001</ele>
        <time>2025-04-25T14:09:48Z</time>
      </trkpt>
      <trkpt lat="44.139248030260205" lon="2.16409700922668">
        <ele>401.49000000000001</ele>
        <time>2025-04-25T14:09:49Z</time>
      </trkpt>
      <trkpt lat="44.139160020276904" lon="2.164153000339866">
        <ele>401.97000000000003</ele>
        <time>2025-04-25T14:09:50Z</time>
      </trkpt>
      <trkpt lat="44.138554008677602" lon="2.164573017507792">
        <ele>401.97000000000003</ele>
        <time>2025-04-25T14:09:56Z</time>
      </trkpt>
      <trkpt lat="44.138478990644217" lon="2.164680976420641">
        <ele>401.97000000000003</ele>
        <time>2025-04-25T14:09:57Z</time>
      </trkpt>
      <trkpt lat="44.138404978439212" lon="2.164788013324142">
        <ele>401.97000000000003</ele>
        <time>2025-04-25T14:09:58Z</time>
      </trkpt>
      <trkpt lat="44.137942967936397" lon="2.1656449791044">
        <ele>400.05000000000001</ele>
        <time>2025-04-25T14:10:06Z</time>
      </trkpt>
      <trkpt lat="44.137419015169144" lon="2.166872005909681">
        <ele>401.00999999999999</ele>
        <time>2025-04-25T14:10:15Z</time>
      </trkpt>
      <trkpt lat="44.136780984699726" lon="2.168482001870871">
        <ele>396.19999999999999</ele>
        <time>2025-04-25T14:10:26Z</time>
      </trkpt>
      <trkpt lat="44.136026026681066" lon="2.170275980606675">
        <ele>394.27999999999997</ele>
        <time>2025-04-25T14:10:38Z</time>
      </trkpt>
      <trkpt lat="44.135703993961215" lon="2.170746959745884">
        <ele>394.27999999999997</ele>
        <time>2025-04-25T14:10:41Z</time>
      </trkpt>
      <trkpt lat="44.135560998693109" lon="2.170889033004642">
        <ele>393.80000000000001</ele>
        <time>2025-04-25T14:10:42Z</time>
      </trkpt>
      <trkpt lat="44.133954020217061" lon="2.172184959053993">
        <ele>392.83999999999997</ele>
        <time>2025-04-25T14:10:51Z</time>
      </trkpt>
      <trkpt lat="44.132013022899628" lon="2.173641985282302">
        <ele>390.91000000000003</ele>
        <time>2025-04-25T14:11:01Z</time>
      </trkpt>
      <trkpt lat="44.131821999326348" lon="2.173738041892648">
        <ele>390.91000000000003</ele>
        <time>2025-04-25T14:11:02Z</time>
      </trkpt>
      <trkpt lat="44.130351981148124" lon="2.174083963036537">
        <ele>389.47000000000003</ele>
        <time>2025-04-25T14:11:09Z</time>
      </trkpt>
      <trkpt lat="44.128368990495801" lon="2.173867039382458">
        <ele>382.25999999999999</ele>
        <time>2025-04-25T14:11:20Z</time>
      </trkpt>
      <trkpt lat="44.128004964441061" lon="2.173792021349073">
        <ele>380.33999999999997</ele>
        <time>2025-04-25T14:11:22Z</time>
      </trkpt>
      <trkpt lat="44.127815030515194" lon="2.17372102662921">
        <ele>379.86000000000001</ele>
        <time>2025-04-25T14:11:23Z</time>
      </trkpt>
      <trkpt lat="44.127643033862114" lon="2.173617007210851">
        <ele>379.38</ele>
        <time>2025-04-25T14:11:24Z</time>
      </trkpt>
      <trkpt lat="44.126384994015098" lon="2.172868000343442">
        <ele>377.44999999999999</ele>
        <time>2025-04-25T14:11:31Z</time>
      </trkpt>
      <trkpt lat="44.126200005412102" lon="2.172792982310057">
        <ele>377.44999999999999</ele>
        <time>2025-04-25T14:11:32Z</time>
      </trkpt>
      <trkpt lat="44.124297983944416" lon="2.17221999540925">
        <ele>376.49000000000001</ele>
        <time>2025-04-25T14:11:41Z</time>
      </trkpt>
      <trkpt lat="44.123393995687366" lon="2.171952025964856">
        <ele>375.52999999999997</ele>
        <time>2025-04-25T14:11:47Z</time>
      </trkpt>
      <trkpt lat="44.122800976037979" lon="2.171753961592913">
        <ele>376.00999999999999</ele>
        <time>2025-04-25T14:11:54Z</time>
      </trkpt>
      <trkpt lat="44.121863041073084" lon="2.171289017423987">
        <ele>373.61000000000001</ele>
        <time>2025-04-25T14:12:01Z</time>
      </trkpt>
      <trkpt lat="44.121732031926513" lon="2.171203019097447">
        <ele>372.64999999999998</ele>
        <time>2025-04-25T14:12:02Z</time>
      </trkpt>
      <trkpt lat="44.121609991416335" lon="2.171057006344199">
        <ele>371.69</ele>
        <time>2025-04-25T14:12:03Z</time>
      </trkpt>
      <trkpt lat="44.121531033888459" lon="2.170877968892455">
        <ele>370.73000000000002</ele>
        <time>2025-04-25T14:12:04Z</time>
      </trkpt>
      <trkpt lat="44.121464984491467" lon="2.170681999996305">
        <ele>369.75999999999999</ele>
        <time>2025-04-25T14:12:05Z</time>
      </trkpt>
      <trkpt lat="44.121425002813339" lon="2.170467004179955">
        <ele>368.80000000000001</ele>
        <time>2025-04-25T14:12:06Z</time>
      </trkpt>
      <trkpt lat="44.121436988934875" lon="2.170224012807012">
        <ele>367.83999999999997</ele>
        <time>2025-04-25T14:12:07Z</time>
      </trkpt>
      <trkpt lat="44.121466996148229" lon="2.169976998120546">
        <ele>366.88</ele>
        <time>2025-04-25T14:12:08Z</time>
      </trkpt>
      <trkpt lat="44.121520975604653" lon="2.169730989262462">
        <ele>365.44</ele>
        <time>2025-04-25T14:12:09Z</time>
      </trkpt>
      <trkpt lat="44.121935041621327" lon="2.167823016643524">
        <ele>358.23000000000002</ele>
        <time>2025-04-25T14:12:17Z</time>
      </trkpt>
      <trkpt lat="44.121977034956217" lon="2.167627969756723">
        <ele>357.75</ele>
        <time>2025-04-25T14:12:18Z</time>
      </trkpt>
      <trkpt lat="44.122060015797615" lon="2.167246006429195">
        <ele>356.79000000000002</ele>
        <time>2025-04-25T14:12:20Z</time>
      </trkpt>
      <trkpt lat="44.122039983049035" lon="2.167049031704664">
        <ele>355.82999999999998</ele>
        <time>2025-04-25T14:12:21Z</time>
      </trkpt>
      <trkpt lat="44.122021039947867" lon="2.166860019788146">
        <ele>354.86000000000001</ele>
        <time>2025-04-25T14:12:22Z</time>
      </trkpt>
      <trkpt lat="44.121949961408973" lon="2.166703026741743">
        <ele>353.89999999999998</ele>
        <time>2025-04-25T14:12:23Z</time>
      </trkpt>
      <trkpt lat="44.121858011931181" lon="2.166556008160114">
        <ele>353.42000000000002</ele>
        <time>2025-04-25T14:12:24Z</time>
      </trkpt>
      <trkpt lat="44.121731026098132" lon="2.166498005390167">
        <ele>352.45999999999998</ele>
        <time>2025-04-25T14:12:25Z</time>
      </trkpt>
      <trkpt lat="44.121591970324516" lon="2.166472021490336">
        <ele>351.98000000000002</ele>
        <time>2025-04-25T14:12:26Z</time>
      </trkpt>
      <trkpt lat="44.121446963399649" lon="2.166544022038579">
        <ele>351.01999999999998</ele>
        <time>2025-04-25T14:12:27Z</time>
      </trkpt>
      <trkpt lat="44.121308997273445" lon="2.166629014536738">
        <ele>350.06</ele>
        <time>2025-04-25T14:12:28Z</time>
      </trkpt>
      <trkpt lat="44.121187962591648" lon="2.166775027289987">
        <ele>349.10000000000002</ele>
        <time>2025-04-25T14:12:29Z</time>
      </trkpt>
      <trkpt lat="44.121060976758599" lon="2.166929002851248">
        <ele>348.62</ele>
        <time>2025-04-25T14:12:30Z</time>
      </trkpt>
      <trkpt lat="44.120929967612028" lon="2.167088007554412">
        <ele>348.13</ele>
        <time>2025-04-25T14:12:31Z</time>
      </trkpt>
      <trkpt lat="44.119864040985703" lon="2.16835199855268">
        <ele>343.32999999999998</ele>
        <time>2025-04-25T14:12:39Z</time>
      </trkpt>
      <trkpt lat="44.119734037667513" lon="2.168439002707601">
        <ele>342.37</ele>
        <time>2025-04-25T14:12:40Z</time>
      </trkpt>
      <trkpt lat="44.119602022692561" lon="2.168440008535981">
        <ele>341.41000000000003</ele>
        <time>2025-04-25T14:12:41Z</time>
      </trkpt>
      <trkpt lat="44.119456009939313" lon="2.168430034071207">
        <ele>339.95999999999998</ele>
        <time>2025-04-25T14:12:42Z</time>
      </trkpt>
      <trkpt lat="44.119295999407768" lon="2.168390974402428">
        <ele>339</ele>
        <time>2025-04-25T14:12:43Z</time>
      </trkpt>
      <trkpt lat="44.11822403781116" lon="2.168020997196436">
        <ele>331.79000000000002</ele>
        <time>2025-04-25T14:12:49Z</time>
      </trkpt>
      <trkpt lat="44.118036031723022" lon="2.168012028560042">
        <ele>330.35000000000002</ele>
        <time>2025-04-25T14:12:50Z</time>
      </trkpt>
      <trkpt lat="44.117852970957756" lon="2.168034994974732">
        <ele>329.38999999999999</ele>
        <time>2025-04-25T14:12:51Z</time>
      </trkpt>
      <trkpt lat="44.117676028981805" lon="2.168083023279905">
        <ele>327.94999999999999</ele>
        <time>2025-04-25T14:12:52Z</time>
      </trkpt>
      <trkpt lat="44.117505960166454" lon="2.168135996907949">
        <ele>326.99000000000001</ele>
        <time>2025-04-25T14:12:53Z</time>
      </trkpt>
      <trkpt lat="44.11670196801424" lon="2.168463980779052">
        <ele>323.13999999999999</ele>
        <time>2025-04-25T14:12:58Z</time>
      </trkpt>
      <trkpt lat="44.116262001916766" lon="2.168680988252163">
        <ele>320.74000000000001</ele>
        <time>2025-04-25T14:13:01Z</time>
      </trkpt>
      <trkpt lat="44.115376034751534" lon="2.169191027060151">
        <ele>315.44999999999999</ele>
        <time>2025-04-25T14:13:07Z</time>
      </trkpt>
      <trkpt lat="44.115233961492777" lon="2.169227991253138">
        <ele>314.97000000000003</ele>
        <time>2025-04-25T14:13:08Z</time>
      </trkpt>
      <trkpt lat="44.115079985931516" lon="2.169237965717912">
        <ele>314.00999999999999</ele>
        <time>2025-04-25T14:13:09Z</time>
      </trkpt>
      <trkpt lat="44.114931961521506" lon="2.169147022068501">
        <ele>313.52999999999997</ele>
        <time>2025-04-25T14:13:10Z</time>
      </trkpt>
      <trkpt lat="44.114776980131865" lon="2.169050965458155">
        <ele>313.05000000000001</ele>
        <time>2025-04-25T14:13:11Z</time>
      </trkpt>
      <trkpt lat="44.114618981257081" lon="2.16895398683846">
        <ele>312.56999999999999</ele>
        <time>2025-04-25T14:13:12Z</time>
      </trkpt>
      <trkpt lat="44.113015020266175" lon="2.167812958359718">
        <ele>310.16000000000003</ele>
        <time>2025-04-25T14:13:23Z</time>
      </trkpt>
      <trkpt lat="44.11154399625957" lon="2.167107034474611">
        <ele>309.68000000000001</ele>
        <time>2025-04-25T14:13:32Z</time>
      </trkpt>
      <trkpt lat="44.109762003645301" lon="2.166795982047916">
        <ele>314.49000000000001</ele>
        <time>2025-04-25T14:13:42Z</time>
      </trkpt>
      <trkpt lat="44.109570980072021" lon="2.166795982047916">
        <ele>315.44999999999999</ele>
        <time>2025-04-25T14:13:43Z</time>
      </trkpt>
      <trkpt lat="44.109063036739826" lon="2.16699899174273">
        <ele>318.81</ele>
        <time>2025-04-25T14:13:46Z</time>
      </trkpt>
      <trkpt lat="44.108888022601604" lon="2.167085995897651">
        <ele>319.77999999999997</ele>
        <time>2025-04-25T14:13:47Z</time>
      </trkpt>
      <trkpt lat="44.108559032902122" lon="2.16736301779747">
        <ele>322.18000000000001</ele>
        <time>2025-04-25T14:13:49Z</time>
      </trkpt>
      <trkpt lat="44.108397010713816" lon="2.167521016672254">
        <ele>323.13999999999999</ele>
        <time>2025-04-25T14:13:50Z</time>
      </trkpt>
      <trkpt lat="44.106693975627422" lon="2.169107040390372">
        <ele>335.16000000000003</ele>
        <time>2025-04-25T14:14:01Z</time>
      </trkpt>
      <trkpt lat="44.106155019253492" lon="2.169339973479509">
        <ele>337.07999999999998</ele>
        <time>2025-04-25T14:14:04Z</time>
      </trkpt>
      <trkpt lat="44.105966007336974" lon="2.169401999562979">
        <ele>337.56</ele>
        <time>2025-04-25T14:14:05Z</time>
      </trkpt>
      <trkpt lat="44.104715008288622" lon="2.169353971257806">
        <ele>340.44</ele>
        <time>2025-04-25T14:14:12Z</time>
      </trkpt>
      <trkpt lat="44.103480018675327" lon="2.168936971575022">
        <ele>349.10000000000002</ele>
        <time>2025-04-25T14:14:20Z</time>
      </trkpt>
      <trkpt lat="44.102354999631643" lon="2.168623991310597">
        <ele>354.38</ele>
        <time>2025-04-25T14:14:29Z</time>
      </trkpt>
      <trkpt lat="44.101162003353238" lon="2.168307993561029">
        <ele>354.86000000000001</ele>
        <time>2025-04-25T14:14:39Z</time>
      </trkpt>
      <trkpt lat="44.100118959322572" lon="2.168263988569379">
        <ele>353.42000000000002</ele>
        <time>2025-04-25T14:14:48Z</time>
      </trkpt>
      <trkpt lat="44.099122015759349" lon="2.168447971343994">
        <ele>353.89999999999998</ele>
        <time>2025-04-25T14:14:56Z</time>
      </trkpt>
      <trkpt lat="44.097758028656244" lon="2.168416958302259">
        <ele>352.94</ele>
        <time>2025-04-25T14:15:05Z</time>
      </trkpt>
      <trkpt lat="44.095498016104102" lon="2.168100960552692">
        <ele>347.64999999999998</ele>
        <time>2025-04-25T14:15:17Z</time>
      </trkpt>
      <trkpt lat="44.092878000810742" lon="2.167738024145365">
        <ele>346.20999999999998</ele>
        <time>2025-04-25T14:15:31Z</time>
      </trkpt>
      <trkpt lat="44.091361965984106" lon="2.1676429733634">
        <ele>343.81</ele>
        <time>2025-04-25T14:15:39Z</time>
      </trkpt>
      <trkpt lat="44.09117697738111" lon="2.167683960869908">
        <ele>343.32999999999998</ele>
        <time>2025-04-25T14:15:40Z</time>
      </trkpt>
      <trkpt lat="44.090998023748398" lon="2.167765013873577">
        <ele>343.32999999999998</ele>
        <time>2025-04-25T14:15:41Z</time>
      </trkpt>
      <trkpt lat="44.090814962983131" lon="2.167867021635175">
        <ele>342.85000000000002</ele>
        <time>2025-04-25T14:15:42Z</time>
      </trkpt>
      <trkpt lat="44.090627040714025" lon="2.167972968891263">
        <ele>341.88999999999999</ele>
        <time>2025-04-25T14:15:43Z</time>
      </trkpt>
      <trkpt lat="44.090441968291998" lon="2.168076988309622">
        <ele>340.92000000000002</ele>
        <time>2025-04-25T14:15:44Z</time>
      </trkpt>
      <trkpt lat="44.09029402770102" lon="2.168255019932985">
        <ele>339.95999999999998</ele>
        <time>2025-04-25T14:15:45Z</time>
      </trkpt>
      <trkpt lat="44.090151032432914" lon="2.168433973565698">
        <ele>339.48000000000002</ele>
        <time>2025-04-25T14:15:46Z</time>
      </trkpt>
      <trkpt lat="44.090007031336427" lon="2.168613011017442">
        <ele>338.51999999999998</ele>
        <time>2025-04-25T14:15:47Z</time>
      </trkpt>
      <trkpt lat="44.089897982776165" lon="2.168834041804075">
        <ele>337.56</ele>
        <time>2025-04-25T14:15:48Z</time>
      </trkpt>
      <trkpt lat="44.089788012206554" lon="2.169061023741961">
        <ele>336.12</ele>
        <time>2025-04-25T14:15:49Z</time>
      </trkpt>
      <trkpt lat="44.089677035808563" lon="2.169288005679846">
        <ele>335.16000000000003</ele>
        <time>2025-04-25T14:15:50Z</time>
      </trkpt>
      <trkpt lat="44.089590031653643" lon="2.16953300870955">
        <ele>333.70999999999998</ele>
        <time>2025-04-25T14:15:51Z</time>
      </trkpt>
      <trkpt lat="44.089514007791877" lon="2.16979100368917">
        <ele>332.26999999999998</ele>
        <time>2025-04-25T14:15:52Z</time>
      </trkpt>
      <trkpt lat="44.089437983930111" lon="2.17004899866879">
        <ele>330.82999999999998</ele>
        <time>2025-04-25T14:15:53Z</time>
      </trkpt>
      <trkpt lat="44.089051997289062" lon="2.171287005767226">
        <ele>323.62</ele>
        <time>2025-04-25T14:15:58Z</time>
      </trkpt>
      <trkpt lat="44.088944038376212" lon="2.171495966613293">
        <ele>321.69999999999999</ele>
        <time>2025-04-25T14:15:59Z</time>
      </trkpt>
      <trkpt lat="44.088815040886402" lon="2.171695036813617">
        <ele>319.77999999999997</ele>
        <time>2025-04-25T14:16:00Z</time>
      </trkpt>
      <trkpt lat="44.088526032865047" lon="2.172012040391564">
        <ele>316.41000000000003</ele>
        <time>2025-04-25T14:16:02Z</time>
      </trkpt>
      <trkpt lat="44.088365016505122" lon="2.172131985425949">
        <ele>314.97000000000003</ele>
        <time>2025-04-25T14:16:03Z</time>
      </trkpt>
      <trkpt lat="44.088184973224998" lon="2.172225024551153">
        <ele>313.05000000000001</ele>
        <time>2025-04-25T14:16:04Z</time>
      </trkpt>
      <trkpt lat="44.088003002107143" lon="2.172319991514087">
        <ele>311.12</ele>
        <time>2025-04-25T14:16:05Z</time>
      </trkpt>
      <trkpt lat="44.087813990190625" lon="2.17241101898253">
        <ele>309.19999999999999</ele>
        <time>2025-04-25T14:16:06Z</time>
      </trkpt>
      <trkpt lat="44.086066028103232" lon="2.173019964247942">
        <ele>294.30000000000001</ele>
        <time>2025-04-25T14:16:15Z</time>
      </trkpt>
      <trkpt lat="44.085707031190395" lon="2.173076961189508">
        <ele>291.89999999999998</ele>
        <time>2025-04-25T14:16:17Z</time>
      </trkpt>
      <trkpt lat="44.085145024582744" lon="2.173110991716385">
        <ele>288.52999999999997</ele>
        <time>2025-04-25T14:16:20Z</time>
      </trkpt>
      <trkpt lat="44.08455896191299" lon="2.173106968402863">
        <ele>285.64999999999998</ele>
        <time>2025-04-25T14:16:23Z</time>
      </trkpt>
      <trkpt lat="44.084337009117007" lon="2.173125995323062">
        <ele>284.20999999999998</ele>
        <time>2025-04-25T14:16:24Z</time>
      </trkpt>
      <trkpt lat="44.084159983322024" lon="2.173182992264628">
        <ele>283.25</ele>
        <time>2025-04-25T14:16:25Z</time>
      </trkpt>
      <trkpt lat="44.083968037739396" lon="2.173244012519717">
        <ele>282.27999999999997</ele>
        <time>2025-04-25T14:16:26Z</time>
      </trkpt>
      <trkpt lat="44.083786988630891" lon="2.173303021118045">
        <ele>281.31999999999999</ele>
        <time>2025-04-25T14:16:27Z</time>
      </trkpt>
      <trkpt lat="44.083618009462953" lon="2.173319030553103">
        <ele>280.36000000000001</ele>
        <time>2025-04-25T14:16:28Z</time>
      </trkpt>
      <trkpt lat="44.083414999768138" lon="2.173319030553103">
        <ele>279.39999999999998</ele>
        <time>2025-04-25T14:16:29Z</time>
      </trkpt>
      <trkpt lat="44.083252977579832" lon="2.173237977549434">
        <ele>278.44</ele>
        <time>2025-04-25T14:16:30Z</time>
      </trkpt>
      <trkpt lat="44.083065977320075" lon="2.1731430105865">
        <ele>277.48000000000002</ele>
        <time>2025-04-25T14:16:31Z</time>
      </trkpt>
      <trkpt lat="44.082885012030602" lon="2.173001021146774">
        <ele>276.51999999999998</ele>
        <time>2025-04-25T14:16:32Z</time>
      </trkpt>
      <trkpt lat="44.082703962922096" lon="2.172844028100371">
        <ele>275.56</ele>
        <time>2025-04-25T14:16:33Z</time>
      </trkpt>
      <trkpt lat="44.082544958218932" lon="2.17264898121357">
        <ele>274.58999999999997</ele>
        <time>2025-04-25T14:16:34Z</time>
      </trkpt>
      <trkpt lat="44.082407997921109" lon="2.172419987618923">
        <ele>274.11000000000001</ele>
        <time>2025-04-25T14:16:35Z</time>
      </trkpt>
      <trkpt lat="44.082271037623286" lon="2.172189988195896">
        <ele>273.14999999999998</ele>
        <time>2025-04-25T14:16:36Z</time>
      </trkpt>
      <trkpt lat="44.082156037911773" lon="2.171949008479714">
        <ele>272.19</ele>
        <time>2025-04-25T14:16:37Z</time>
      </trkpt>
      <trkpt lat="44.081492023542523" lon="2.17073799110949">
        <ele>271.23000000000002</ele>
        <time>2025-04-25T14:16:43Z</time>
      </trkpt>
      <trkpt lat="44.081339975818992" lon="2.170609999448061">
        <ele>272.19</ele>
        <time>2025-04-25T14:16:44Z</time>
      </trkpt>
      <trkpt lat="44.081178037449718" lon="2.170498017221689">
        <ele>273.14999999999998</ele>
        <time>2025-04-25T14:16:45Z</time>
      </trkpt>
      <trkpt lat="44.081009980291128" lon="2.170448983088136">
        <ele>274.11000000000001</ele>
        <time>2025-04-25T14:16:46Z</time>
      </trkpt>
      <trkpt lat="44.080829015001655" lon="2.170402966439724">
        <ele>275.06999999999999</ele>
        <time>2025-04-25T14:16:47Z</time>
      </trkpt>
      <trkpt lat="44.080647965893149" lon="2.170389974489808">
        <ele>276.04000000000002</ele>
        <time>2025-04-25T14:16:48Z</time>
      </trkpt>
      <trkpt lat="44.080459037795663" lon="2.17041595838964">
        <ele>277</ele>
        <time>2025-04-25T14:16:49Z</time>
      </trkpt>
      <trkpt lat="44.080274971202016" lon="2.170471027493477">
        <ele>278.44</ele>
        <time>2025-04-25T14:16:50Z</time>
      </trkpt>
      <trkpt lat="44.079206027090549" lon="2.170874029397965">
        <ele>283.25</ele>
        <time>2025-04-25T14:16:56Z</time>
      </trkpt>
      <trkpt lat="44.077280033379793" lon="2.171850018203259">
        <ele>294.77999999999997</ele>
        <time>2025-04-25T14:17:07Z</time>
      </trkpt>
      <trkpt lat="44.076613001525402" lon="2.17219702899456">
        <ele>300.55000000000001</ele>
        <time>2025-04-25T14:17:11Z</time>
      </trkpt>
      <trkpt lat="44.076433964073658" lon="2.172250002622604">
        <ele>301.99000000000001</ele>
        <time>2025-04-25T14:17:12Z</time>
      </trkpt>
      <trkpt lat="44.076254004612565" lon="2.172301970422268">
        <ele>303.43000000000001</ele>
        <time>2025-04-25T14:17:13Z</time>
      </trkpt>
      <trkpt lat="44.07607102766633" lon="2.172310017049313">
        <ele>304.88</ele>
        <time>2025-04-25T14:17:14Z</time>
      </trkpt>
      <trkpt lat="44.075882015749812" lon="2.17228596098721">
        <ele>306.31999999999999</ele>
        <time>2025-04-25T14:17:15Z</time>
      </trkpt>
      <trkpt lat="44.07568302936852" lon="2.172255031764507">
        <ele>307.27999999999997</ele>
        <time>2025-04-25T14:17:16Z</time>
      </trkpt>
      <trkpt lat="44.075481025502086" lon="2.172216977924109">
        <ele>308.72000000000003</ele>
        <time>2025-04-25T14:17:17Z</time>
      </trkpt>
      <trkpt lat="44.075290001928806" lon="2.172126034274697">
        <ele>309.68000000000001</ele>
        <time>2025-04-25T14:17:18Z</time>
      </trkpt>
      <trkpt lat="44.075101995840669" lon="2.172036012634635">
        <ele>311.12</ele>
        <time>2025-04-25T14:17:19Z</time>
      </trkpt>
      <trkpt lat="44.074920024722815" lon="2.17193802818656">
        <ele>312.08999999999997</ele>
        <time>2025-04-25T14:17:20Z</time>
      </trkpt>
      <trkpt lat="44.072755984961987" lon="2.170614022761583">
        <ele>322.18000000000001</ele>
        <time>2025-04-25T14:17:32Z</time>
      </trkpt>
      <trkpt lat="44.072585999965668" lon="2.170468010008335">
        <ele>322.66000000000003</ele>
        <time>2025-04-25T14:17:33Z</time>
      </trkpt>
      <trkpt lat="44.072406962513924" lon="2.170315040275455">
        <ele>322.66000000000003</ele>
        <time>2025-04-25T14:17:34Z</time>
      </trkpt>
      <trkpt lat="44.070758996531367" lon="2.168511003255844">
        <ele>326.01999999999998</ele>
        <time>2025-04-25T14:17:45Z</time>
      </trkpt>
      <trkpt lat="44.070397987961769" lon="2.168295001611114">
        <ele>326.01999999999998</ele>
        <time>2025-04-25T14:17:47Z</time>
      </trkpt>
      <trkpt lat="44.070195984095335" lon="2.168221995234489">
        <ele>325.54000000000002</ele>
        <time>2025-04-25T14:17:48Z</time>
      </trkpt>
      <trkpt lat="44.06999297440052" lon="2.168174972757697">
        <ele>325.06</ele>
        <time>2025-04-25T14:17:49Z</time>
      </trkpt>
      <trkpt lat="44.069573963060975" lon="2.168118981644511">
        <ele>324.10000000000002</ele>
        <time>2025-04-25T14:17:51Z</time>
      </trkpt>
      <trkpt lat="44.069381011649966" lon="2.168129961937666">
        <ele>323.13999999999999</ele>
        <time>2025-04-25T14:17:52Z</time>
      </trkpt>
      <trkpt lat="44.069189988076687" lon="2.168187964707613">
        <ele>322.66000000000003</ele>
        <time>2025-04-25T14:17:53Z</time>
      </trkpt>
      <trkpt lat="44.06900399364531" lon="2.16824303381145">
        <ele>322.18000000000001</ele>
        <time>2025-04-25T14:17:54Z</time>
      </trkpt>
      <trkpt lat="44.068823028355837" lon="2.168298019096255">
        <ele>321.69999999999999</ele>
        <time>2025-04-25T14:17:55Z</time>
      </trkpt>
      <trkpt lat="44.068651031702757" lon="2.168406983837485">
        <ele>321.69999999999999</ele>
        <time>2025-04-25T14:17:56Z</time>
      </trkpt>
      <trkpt lat="44.068490015342832" lon="2.168538998812437">
        <ele>321.22000000000003</ele>
        <time>2025-04-25T14:17:57Z</time>
      </trkpt>
      <trkpt lat="44.068334028124809" lon="2.168684005737305">
        <ele>321.22000000000003</ele>
        <time>2025-04-25T14:17:58Z</time>
      </trkpt>
      <trkpt lat="44.067449988797307" lon="2.169541977345944">
        <ele>319.77999999999997</ele>
        <time>2025-04-25T14:18:05Z</time>
      </trkpt>
      <trkpt lat="44.066612971946597" lon="2.170378994196653">
        <ele>317.37</ele>
        <time>2025-04-25T14:18:14Z</time>
      </trkpt>
      <trkpt lat="44.066379033029079" lon="2.17065199278295">
        <ele>317.85000000000002</ele>
        <time>2025-04-25T14:18:19Z</time>
      </trkpt>
      <trkpt lat="44.06567201949656" lon="2.170943012461066">
        <ele>316.41000000000003</ele>
        <time>2025-04-25T14:18:26Z</time>
      </trkpt>
      <trkpt lat="44.064195966348052" lon="2.17155396938324">
        <ele>314.00999999999999</ele>
        <time>2025-04-25T14:18:37Z</time>
      </trkpt>
      <trkpt lat="44.062857963144779" lon="2.171940039843321">
        <ele>311.60000000000002</ele>
        <time>2025-04-25T14:18:46Z</time>
      </trkpt>
      <trkpt lat="44.061285015195608" lon="2.17209099791944">
        <ele>303.43000000000001</ele>
        <time>2025-04-25T14:18:56Z</time>
      </trkpt>
      <trkpt lat="44.060610020533204" lon="2.172266012057662">
        <ele>299.58999999999997</ele>
        <time>2025-04-25T14:19:00Z</time>
      </trkpt>
      <trkpt lat="44.060444980859756" lon="2.172362990677357">
        <ele>298.63</ele>
        <time>2025-04-25T14:19:01Z</time>
      </trkpt>
      <trkpt lat="44.060303997248411" lon="2.172503974288702">
        <ele>297.67000000000002</ele>
        <time>2025-04-25T14:19:02Z</time>
      </trkpt>
      <trkpt lat="44.060166031122208" lon="2.172654010355473">
        <ele>296.69999999999999</ele>
        <time>2025-04-25T14:19:03Z</time>
      </trkpt>
      <trkpt lat="44.060041978955269" lon="2.172835981473327">
        <ele>295.74000000000001</ele>
        <time>2025-04-25T14:19:04Z</time>
      </trkpt>
      <trkpt lat="44.059931002557278" lon="2.173023987561464">
        <ele>294.30000000000001</ele>
        <time>2025-04-25T14:19:05Z</time>
      </trkpt>
      <trkpt lat="44.059104965999722" lon="2.174339024350047">
        <ele>286.13</ele>
        <time>2025-04-25T14:19:12Z</time>
      </trkpt>
      <trkpt lat="44.058972029015422" lon="2.174489982426167">
        <ele>285.17000000000002</ele>
        <time>2025-04-25T14:19:13Z</time>
      </trkpt>
      <trkpt lat="44.058816963806748" lon="2.174605987966061">
        <ele>284.20999999999998</ele>
        <time>2025-04-25T14:19:14Z</time>
      </trkpt>
      <trkpt lat="44.058659970760345" lon="2.174687962979078">
        <ele>283.25</ele>
        <time>2025-04-25T14:19:15Z</time>
      </trkpt>
      <trkpt lat="44.058494009077549" lon="2.174753006547689">
        <ele>282.27999999999997</ele>
        <time>2025-04-25T14:19:16Z</time>
      </trkpt>
      <trkpt lat="44.058320000767708" lon="2.174804974347353">
        <ele>281.31999999999999</ele>
        <time>2025-04-25T14:19:17Z</time>
      </trkpt>
      <trkpt lat="44.05733403749764" lon="2.174872029572725">
        <ele>276.04000000000002</ele>
        <time>2025-04-25T14:19:23Z</time>
      </trkpt>
      <trkpt lat="44.057188024744391" lon="2.174856020137668">
        <ele>275.56</ele>
        <time>2025-04-25T14:19:24Z</time>
      </trkpt>
      <trkpt lat="44.057044023647904" lon="2.174835987389088">
        <ele>274.58999999999997</ele>
        <time>2025-04-25T14:19:25Z</time>
      </trkpt>
      <trkpt lat="44.056908991187811" lon="2.174790976569057">
        <ele>273.63</ele>
        <time>2025-04-25T14:19:26Z</time>
      </trkpt>
      <trkpt lat="44.056773036718369" lon="2.174686035141349">
        <ele>273.14999999999998</ele>
        <time>2025-04-25T14:19:27Z</time>
      </trkpt>
      <trkpt lat="44.056659964844584" lon="2.17458201572299">
        <ele>272.19</ele>
        <time>2025-04-25T14:19:28Z</time>
      </trkpt>
      <trkpt lat="44.056542031466961" lon="2.174455029889941">
        <ele>271.70999999999998</ele>
        <time>2025-04-25T14:19:29Z</time>
      </trkpt>
      <trkpt lat="44.056452009826899" lon="2.174321003258228">
        <ele>270.75</ele>
        <time>2025-04-25T14:19:30Z</time>
      </trkpt>
      <trkpt lat="44.056385038420558" lon="2.174135008826852">
        <ele>269.79000000000002</ele>
        <time>2025-04-25T14:19:31Z</time>
      </trkpt>
      <trkpt lat="44.056330975145102" lon="2.173972986638546">
        <ele>268.82999999999998</ele>
        <time>2025-04-25T14:19:32Z</time>
      </trkpt>
      <trkpt lat="44.056279007345438" lon="2.173815993592143">
        <ele>267.86000000000001</ele>
        <time>2025-04-25T14:19:33Z</time>
      </trkpt>
      <trkpt lat="44.056227961555123" lon="2.173663023859263">
        <ele>266.89999999999998</ele>
        <time>2025-04-25T14:19:34Z</time>
      </trkpt>
      <trkpt lat="44.056179011240602" lon="2.173516005277634">
        <ele>265.45999999999998</ele>
        <time>2025-04-25T14:19:35Z</time>
      </trkpt>
      <trkpt lat="44.055992010980844" lon="2.172189988195896">
        <ele>258.25</ele>
        <time>2025-04-25T14:19:43Z</time>
      </trkpt>
      <trkpt lat="44.055992010980844" lon="2.172030983492732">
        <ele>257.76999999999998</ele>
        <time>2025-04-25T14:19:44Z</time>
      </trkpt>
      <trkpt lat="44.056016989052296" lon="2.171865021809936">
        <ele>256.81</ele>
        <time>2025-04-25T14:19:45Z</time>
      </trkpt>
      <trkpt lat="44.056051019579172" lon="2.17170299962163">
        <ele>255.84999999999999</ele>
        <time>2025-04-25T14:19:46Z</time>
      </trkpt>
      <trkpt lat="44.056097958236933" lon="2.171555981040001">
        <ele>254.88999999999999</ele>
        <time>2025-04-25T14:19:47Z</time>
      </trkpt>
      <trkpt lat="44.056334998458624" lon="2.170659033581615">
        <ele>251.03999999999999</ele>
        <time>2025-04-25T14:19:53Z</time>
      </trkpt>
      <trkpt lat="44.056334998458624" lon="2.17049902305007">
        <ele>250.56</ele>
        <time>2025-04-25T14:19:54Z</time>
      </trkpt>
      <trkpt lat="44.056312032043934" lon="2.17037103138864">
        <ele>249.12</ele>
        <time>2025-04-25T14:19:55Z</time>
      </trkpt>
      <trkpt lat="44.056275989860296" lon="2.17022200115025">
        <ele>248.16</ele>
        <time>2025-04-25T14:19:56Z</time>
      </trkpt>
      <trkpt lat="44.056238019838929" lon="2.170065008103848">
        <ele>246.72</ele>
        <time>2025-04-25T14:19:57Z</time>
      </trkpt>
      <trkpt lat="44.056008020415902" lon="2.168952981010079">
        <ele>238.53999999999999</ele>
        <time>2025-04-25T14:20:04Z</time>
      </trkpt>
      <trkpt lat="44.05600399710238" lon="2.168788025155664">
        <ele>237.09999999999999</ele>
        <time>2025-04-25T14:20:05Z</time>
      </trkpt>
      <trkpt lat="44.055998967960477" lon="2.168627008795738">
        <ele>236.13999999999999</ele>
        <time>2025-04-25T14:20:06Z</time>
      </trkpt>
      <trkpt lat="44.056244976818562" lon="2.167030004784465">
        <ele>228.93000000000001</ele>
        <time>2025-04-25T14:20:16Z</time>
      </trkpt>
      <trkpt lat="44.056362994015217" lon="2.166393985971808">
        <ele>227.00999999999999</ele>
        <time>2025-04-25T14:20:20Z</time>
      </trkpt>
      <trkpt lat="44.05637196265161" lon="2.166235987097025">
        <ele>226.53</ele>
        <time>2025-04-25T14:20:21Z</time>
      </trkpt>
      <trkpt lat="44.056371040642262" lon="2.166068013757467">
        <ele>225.56999999999999</ele>
        <time>2025-04-25T14:20:22Z</time>
      </trkpt>
      <trkpt lat="44.05617699958384" lon="2.164112012833357">
        <ele>220.28</ele>
        <time>2025-04-25T14:20:34Z</time>
      </trkpt>
      <trkpt lat="44.05615302734077" lon="2.16394898481667">
        <ele>220.28</ele>
        <time>2025-04-25T14:20:35Z</time>
      </trkpt>
      <trkpt lat="44.056128971278667" lon="2.163787968456745">
        <ele>219.80000000000001</ele>
        <time>2025-04-25T14:20:36Z</time>
      </trkpt>
      <trkpt lat="44.056079015135765" lon="2.163641033694148">
        <ele>219.80000000000001</ele>
        <time>2025-04-25T14:20:37Z</time>
      </trkpt>
      <trkpt lat="44.056013971567154" lon="2.163504995405674">
        <ele>220.28</ele>
        <time>2025-04-25T14:20:38Z</time>
      </trkpt>
      <trkpt lat="44.055948005989194" lon="2.16336602345109">
        <ele>220.28</ele>
        <time>2025-04-25T14:20:39Z</time>
      </trkpt>
      <trkpt lat="44.055881034582853" lon="2.163227973505855">
        <ele>220.28</ele>
        <time>2025-04-25T14:20:40Z</time>
      </trkpt>
      <trkpt lat="44.054838996380568" lon="2.161651002243161">
        <ele>219.31999999999999</ele>
        <time>2025-04-25T14:20:53Z</time>
      </trkpt>
      <trkpt lat="44.054354019463062" lon="2.16093996539712">
        <ele>219.31999999999999</ele>
        <time>2025-04-25T14:20:59Z</time>
      </trkpt>
      <trkpt lat="44.053722023963928" lon="2.159947967156768">
        <ele>218.84</ele>
        <time>2025-04-25T14:21:08Z</time>
      </trkpt>
      <trkpt lat="44.053628984838724" lon="2.159798014909029">
        <ele>219.80000000000001</ele>
        <time>2025-04-25T14:21:12Z</time>
      </trkpt>
      <trkpt lat="44.053277028724551" lon="2.159249000251293">
        <ele>222.68000000000001</ele>
        <time>2025-04-25T14:21:20Z</time>
      </trkpt>
      <trkpt lat="44.052794985473156" lon="2.15855497866869">
        <ele>224.12</ele>
        <time>2025-04-25T14:21:27Z</time>
      </trkpt>
      <trkpt lat="44.052719967439771" lon="2.158460011705756">
        <ele>224.61000000000001</ele>
        <time>2025-04-25T14:21:28Z</time>
      </trkpt>
      <trkpt lat="44.052644027397037" lon="2.158363033086062">
        <ele>225.09</ele>
        <time>2025-04-25T14:21:29Z</time>
      </trkpt>
      <trkpt lat="44.052554005756974" lon="2.158322967588902">
        <ele>225.56999999999999</ele>
        <time>2025-04-25T14:21:30Z</time>
      </trkpt>
      <trkpt lat="44.052467001602054" lon="2.158283991739154">
        <ele>226.05000000000001</ele>
        <time>2025-04-25T14:21:31Z</time>
      </trkpt>
      <trkpt lat="44.052382009103894" lon="2.158269993960857">
        <ele>226.53</ele>
        <time>2025-04-25T14:21:32Z</time>
      </trkpt>
      <trkpt lat="44.052292993292212" lon="2.158260019496083">
        <ele>227.00999999999999</ele>
        <time>2025-04-25T14:21:33Z</time>
      </trkpt>
      <trkpt lat="44.051765017211437" lon="2.158212997019291">
        <ele>230.37</ele>
        <time>2025-04-25T14:21:40Z</time>
      </trkpt>
      <trkpt lat="44.05119395814836" lon="2.158166980370879">
        <ele>232.78</ele>
        <time>2025-04-25T14:21:47Z</time>
      </trkpt>
      <trkpt lat="44.051107037812471" lon="2.158160023391247">
        <ele>232.78</ele>
        <time>2025-04-25T14:21:48Z</time>
      </trkpt>
      <trkpt lat="44.051022967323661" lon="2.158153988420963">
        <ele>233.25999999999999</ele>
        <time>2025-04-25T14:21:49Z</time>
      </trkpt>
      <trkpt lat="44.05084703117609" lon="2.158138984814286">
        <ele>233.74000000000001</ele>
        <time>2025-04-25T14:21:51Z</time>
      </trkpt>
      <trkpt lat="44.050749968737364" lon="2.158132027834654">
        <ele>234.22</ele>
        <time>2025-04-25T14:21:52Z</time>
      </trkpt>
      <trkpt lat="44.050371022894979" lon="2.158114006742835">
        <ele>236.62</ele>
        <time>2025-04-25T14:21:56Z</time>
      </trkpt>
      <trkpt lat="44.050273960456252" lon="2.158109983429313">
        <ele>237.09999999999999</ele>
        <time>2025-04-25T14:21:57Z</time>
      </trkpt>
      <trkpt lat="44.049424035474658" lon="2.158071007579565">
        <ele>239.02000000000001</ele>
        <time>2025-04-25T14:22:06Z</time>
      </trkpt>
      <trkpt lat="44.049334013834596" lon="2.158064972609282">
        <ele>239.99000000000001</ele>
        <time>2025-04-25T14:22:07Z</time>
      </trkpt>
      <trkpt lat="44.049242986366153" lon="2.15806002728641">
        <ele>240.47</ele>
        <time>2025-04-25T14:22:08Z</time>
      </trkpt>
      <trkpt lat="44.049151036888361" lon="2.158053992316127">
        <ele>240.94999999999999</ele>
        <time>2025-04-25T14:22:09Z</time>
      </trkpt>
      <trkpt lat="44.049059003591537" lon="2.158048041164875">
        <ele>241.43000000000001</ele>
        <time>2025-04-25T14:22:10Z</time>
      </trkpt>
      <trkpt lat="44.048969987779856" lon="2.158043012022972">
        <ele>241.91</ele>
        <time>2025-04-25T14:22:11Z</time>
      </trkpt>
      <trkpt lat="44.048878038302064" lon="2.158036977052689">
        <ele>242.38999999999999</ele>
        <time>2025-04-25T14:22:12Z</time>
      </trkpt>
      <trkpt lat="44.048787010833621" lon="2.158032031729817">
        <ele>242.38999999999999</ele>
        <time>2025-04-25T14:22:13Z</time>
      </trkpt>
      <trkpt lat="44.048634963110089" lon="2.158022979274392">
        <ele>244.31</ele>
        <time>2025-04-25T14:22:15Z</time>
      </trkpt>
      <trkpt lat="44.048579977825284" lon="2.158092968165875">
        <ele>245.27000000000001</ele>
        <time>2025-04-25T14:22:16Z</time>
      </trkpt>
      <trkpt lat="44.04857000336051" lon="2.158178966492415">
        <ele>245.75</ele>
        <time>2025-04-25T14:22:17Z</time>
      </trkpt>
      <trkpt lat="44.048533039167523" lon="2.158504016697407">
        <ele>247.19999999999999</ele>
        <time>2025-04-25T14:22:20Z</time>
      </trkpt>
      <trkpt lat="44.048517029732466" lon="2.158613987267017">
        <ele>248.16</ele>
        <time>2025-04-25T14:22:21Z</time>
      </trkpt>
      <trkpt lat="44.048495991155505" lon="2.158701997250319">
        <ele>249.12</ele>
        <time>2025-04-25T14:22:22Z</time>
      </trkpt>
      <trkpt lat="44.048460032790899" lon="2.158792018890381">
        <ele>250.08000000000001</ele>
        <time>2025-04-25T14:22:23Z</time>
      </trkpt>
      <trkpt lat="44.048409992828965" lon="2.15883401222527">
        <ele>250.56</ele>
        <time>2025-04-25T14:22:24Z</time>
      </trkpt>
      <trkpt lat="44.048340003937483" lon="2.158892014995217">
        <ele>251.03999999999999</ele>
        <time>2025-04-25T14:22:25Z</time>
      </trkpt>
      <trkpt lat="44.048261968418956" lon="2.158930990844965">
        <ele>251.52000000000001</ele>
        <time>2025-04-25T14:22:26Z</time>
      </trkpt>
      <trkpt lat="44.048174964264035" lon="2.158971978351474">
        <ele>252</ele>
        <time>2025-04-25T14:22:27Z</time>
      </trkpt>
      <trkpt lat="44.048096006736159" lon="2.159009026363492">
        <ele>252.96000000000001</ele>
        <time>2025-04-25T14:22:28Z</time>
      </trkpt>
      <trkpt lat="44.047953011468053" lon="2.15907197445631">
        <ele>254.41</ele>
        <time>2025-04-25T14:22:30Z</time>
      </trkpt>
      <trkpt lat="44.047873970121145" lon="2.159129977226257">
        <ele>256.32999999999998</ele>
        <time>2025-04-25T14:22:31Z</time>
      </trkpt>
      <trkpt lat="44.047809010371566" lon="2.159215975552797">
        <ele>258.25</ele>
        <time>2025-04-25T14:22:32Z</time>
      </trkpt>
      <trkpt lat="44.047497035935521" lon="2.159837996587157">
        <ele>265.45999999999998</ele>
        <time>2025-04-25T14:22:38Z</time>
      </trkpt>
      <trkpt lat="44.047446995973587" lon="2.15992801822722">
        <ele>266.42000000000002</ele>
        <time>2025-04-25T14:22:39Z</time>
      </trkpt>
      <trkpt lat="44.047234011813998" lon="2.160305958241224">
        <ele>269.31</ele>
        <time>2025-04-25T14:22:43Z</time>
      </trkpt>
      <trkpt lat="44.047179026529193" lon="2.160403020679951">
        <ele>269.79000000000002</ele>
        <time>2025-04-25T14:22:44Z</time>
      </trkpt>
      <trkpt lat="44.046828998252749" lon="2.16093996539712">
        <ele>271.23000000000002</ele>
        <time>2025-04-25T14:22:50Z</time>
      </trkpt>
      <trkpt lat="44.046778036281466" lon="2.161015989258885">
        <ele>271.23000000000002</ele>
        <time>2025-04-25T14:22:51Z</time>
      </trkpt>
      <trkpt lat="44.04672397300601" lon="2.161091007292271">
        <ele>271.70999999999998</ele>
        <time>2025-04-25T14:22:52Z</time>
      </trkpt>
      <trkpt lat="44.046612996608019" lon="2.16123903170228">
        <ele>271.70999999999998</ele>
        <time>2025-04-25T14:22:54Z</time>
      </trkpt>
      <trkpt lat="44.046504031866789" lon="2.161397030577064">
        <ele>272.19</ele>
        <time>2025-04-25T14:22:56Z</time>
      </trkpt>
      <trkpt lat="44.046446029096842" lon="2.161482023075223">
        <ele>272.19</ele>
        <time>2025-04-25T14:22:57Z</time>
      </trkpt>
      <trkpt lat="44.046390959993005" lon="2.161559974774718">
        <ele>272.19</ele>
        <time>2025-04-25T14:22:58Z</time>
      </trkpt>
      <trkpt lat="44.046334968879819" lon="2.161634992808104">
        <ele>272.67000000000002</ele>
        <time>2025-04-25T14:22:59Z</time>
      </trkpt>
      <trkpt lat="44.046277971938252" lon="2.161714034155011">
        <ele>272.67000000000002</ele>
        <time>2025-04-25T14:23:00Z</time>
      </trkpt>
      <trkpt lat="44.04564798809588" lon="2.162578962743282">
        <ele>274.58999999999997</ele>
        <time>2025-04-25T14:23:11Z</time>
      </trkpt>
      <trkpt lat="44.045589985325933" lon="2.162659009918571">
        <ele>275.06999999999999</ele>
        <time>2025-04-25T14:23:12Z</time>
      </trkpt>
      <trkpt lat="44.045532988384366" lon="2.162736961618066">
        <ele>275.06999999999999</ele>
        <time>2025-04-25T14:23:13Z</time>
      </trkpt>
      <trkpt lat="44.044893030077219" lon="2.163650002330542">
        <ele>274.58999999999997</ele>
        <time>2025-04-25T14:23:30Z</time>
      </trkpt>
      <trkpt lat="44.043557960540056" lon="2.164432033896446">
        <ele>275.06999999999999</ele>
        <time>2025-04-25T14:23:41Z</time>
      </trkpt>
      <trkpt lat="44.043502975255251" lon="2.164457011967897">
        <ele>275.06999999999999</ele>
        <time>2025-04-25T14:23:42Z</time>
      </trkpt>
      <trkpt lat="44.043396022170782" lon="2.164500011131167">
        <ele>275.56</ele>
        <time>2025-04-25T14:23:43Z</time>
      </trkpt>
      <trkpt lat="44.04248901642859" lon="2.164923967793584">
        <ele>278.92000000000002</ele>
        <time>2025-04-25T14:23:55Z</time>
      </trkpt>
      <trkpt lat="44.042412992566824" lon="2.164960009977222">
        <ele>279.39999999999998</ele>
        <time>2025-04-25T14:23:56Z</time>
      </trkpt>
      <trkpt lat="44.042338980361819" lon="2.16499999165535">
        <ele>279.39999999999998</ele>
        <time>2025-04-25T14:23:57Z</time>
      </trkpt>
      <trkpt lat="44.042185004800558" lon="2.165081966668367">
        <ele>279.39999999999998</ele>
        <time>2025-04-25T14:23:59Z</time>
      </trkpt>
      <trkpt lat="44.042107975110412" lon="2.165138963609934">
        <ele>279.39999999999998</ele>
        <time>2025-04-25T14:24:00Z</time>
      </trkpt>
      <trkpt lat="44.042033040896058" lon="2.165204007178545">
        <ele>279.39999999999998</ele>
        <time>2025-04-25T14:24:01Z</time>
      </trkpt>
      <trkpt lat="44.041959028691053" lon="2.16527801938355">
        <ele>279.39999999999998</ele>
        <time>2025-04-25T14:24:02Z</time>
      </trkpt>
      <trkpt lat="44.041894990950823" lon="2.165361000224948">
        <ele>279.39999999999998</ele>
        <time>2025-04-25T14:24:03Z</time>
      </trkpt>
      <trkpt lat="44.041831959038973" lon="2.165442975237966">
        <ele>279.39999999999998</ele>
        <time>2025-04-25T14:24:04Z</time>
      </trkpt>
      <trkpt lat="44.041056968271732" lon="2.16648199595511">
        <ele>282.27999999999997</ele>
        <time>2025-04-25T14:24:15Z</time>
      </trkpt>
      <trkpt lat="44.040224980562925" lon="2.167625958099961">
        <ele>288.52999999999997</ele>
        <time>2025-04-25T14:24:25Z</time>
      </trkpt>
      <trkpt lat="44.039467005059123" lon="2.168471021577716">
        <ele>295.74000000000001</ele>
        <time>2025-04-25T14:24:34Z</time>
      </trkpt>
      <trkpt lat="44.039103984832764" lon="2.168942000716925">
        <ele>299.11000000000001</ele>
        <time>2025-04-25T14:24:39Z</time>
      </trkpt>
      <trkpt lat="44.039055034518242" lon="2.169089019298554">
        <ele>299.58999999999997</ele>
        <time>2025-04-25T14:24:40Z</time>
      </trkpt>
      <trkpt lat="44.039022009819746" lon="2.169245006516576">
        <ele>300.55000000000001</ele>
        <time>2025-04-25T14:24:41Z</time>
      </trkpt>
      <trkpt lat="44.038994014263153" lon="2.169411974027753">
        <ele>301.50999999999999</ele>
        <time>2025-04-25T14:24:42Z</time>
      </trkpt>
      <trkpt lat="44.03896601870656" lon="2.169580031186342">
        <ele>301.50999999999999</ele>
        <time>2025-04-25T14:24:43Z</time>
      </trkpt>
      <trkpt lat="44.038932994008064" lon="2.169778011739254">
        <ele>302.47000000000003</ele>
        <time>2025-04-25T14:24:44Z</time>
      </trkpt>
      <trkpt lat="44.038932994008064" lon="2.170485025271773">
        <ele>306.80000000000001</ele>
        <time>2025-04-25T14:24:54Z</time>
      </trkpt>
      <trkpt lat="44.0386220254004" lon="2.171476017683744">
        <ele>307.75999999999999</ele>
        <time>2025-04-25T14:24:55Z</time>
      </trkpt>
      <trkpt lat="44.038395965471864" lon="2.171644996851683">
        <ele>308.24000000000001</ele>
        <time>2025-04-25T14:24:56Z</time>
      </trkpt>
      <trkpt lat="44.037647964432836" lon="2.171814981848002">
        <ele>311.12</ele>
        <time>2025-04-25T14:25:02Z</time>
      </trkpt>
      <trkpt lat="44.037528019398451" lon="2.171886982396245">
        <ele>311.12</ele>
        <time>2025-04-25T14:25:03Z</time>
      </trkpt>
      <trkpt lat="44.037410002201796" lon="2.171971974894404">
        <ele>312.08999999999997</ele>
        <time>2025-04-25T14:25:04Z</time>
      </trkpt>
      <trkpt lat="44.03731201775372" lon="2.172098038718104">
        <ele>312.56999999999999</ele>
        <time>2025-04-25T14:25:05Z</time>
      </trkpt>
      <trkpt lat="44.037229036912322" lon="2.172252014279366">
        <ele>313.05000000000001</ele>
        <time>2025-04-25T14:25:06Z</time>
      </trkpt>
      <trkpt lat="44.037156030535698" lon="2.172413030639291">
        <ele>313.52999999999997</ele>
        <time>2025-04-25T14:25:07Z</time>
      </trkpt>
      <trkpt lat="44.037084029987454" lon="2.172572035342455">
        <ele>314.00999999999999</ele>
        <time>2025-04-25T14:25:08Z</time>
      </trkpt>
      <trkpt lat="44.036539038643241" lon="2.173965023830533">
        <ele>315.93000000000001</ele>
        <time>2025-04-25T14:25:17Z</time>
      </trkpt>
      <trkpt lat="44.035777039825916" lon="2.175723966211081">
        <ele>314.00999999999999</ele>
        <time>2025-04-25T14:25:26Z</time>
      </trkpt>
      <trkpt lat="44.034972041845322" lon="2.176906988024712">
        <ele>313.52999999999997</ele>
        <time>2025-04-25T14:25:34Z</time>
      </trkpt>
      <trkpt lat="44.034444987773895" lon="2.177684996277094">
        <ele>318.32999999999998</ele>
        <time>2025-04-25T14:25:41Z</time>
      </trkpt>
      <trkpt lat="44.034397965297103" lon="2.177785998210311">
        <ele>318.81</ele>
        <time>2025-04-25T14:25:42Z</time>
      </trkpt>
      <trkpt lat="44.034355971962214" lon="2.177875014021993">
        <ele>318.81</ele>
        <time>2025-04-25T14:25:43Z</time>
      </trkpt>
      <trkpt lat="44.034319007769227" lon="2.177953971549869">
        <ele>319.30000000000001</ele>
        <time>2025-04-25T14:25:44Z</time>
      </trkpt>
      <trkpt lat="44.034305009990931" lon="2.178031001240015">
        <ele>319.77999999999997</ele>
        <time>2025-04-25T14:25:45Z</time>
      </trkpt>
      <trkpt lat="44.034144999459386" lon="2.178862988948822">
        <ele>321.69999999999999</ele>
        <time>2025-04-25T14:25:51Z</time>
      </trkpt>
      <trkpt lat="44.03378801420331" lon="2.180652022361755">
        <ele>322.18000000000001</ele>
        <time>2025-04-25T14:26:00Z</time>
      </trkpt>
      <trkpt lat="44.0331029612571" lon="2.182441977784038">
        <ele>320.74000000000001</ele>
        <time>2025-04-25T14:26:08Z</time>
      </trkpt>
      <trkpt lat="44.033034984022379" lon="2.182688992470503">
        <ele>320.74000000000001</ele>
        <time>2025-04-25T14:26:09Z</time>
      </trkpt>
      <trkpt lat="44.032967006787658" lon="2.182942964136601">
        <ele>320.25999999999999</ele>
        <time>2025-04-25T14:26:10Z</time>
      </trkpt>
      <trkpt lat="44.032943034544587" lon="2.183211017400026">
        <ele>319.77999999999997</ele>
        <time>2025-04-25T14:26:11Z</time>
      </trkpt>
      <trkpt lat="44.032766008749604" lon="2.185723995789886">
        <ele>321.22000000000003</ele>
        <time>2025-04-25T14:26:21Z</time>
      </trkpt>
      <trkpt lat="44.032234009355307" lon="2.188617009669542">
        <ele>320.74000000000001</ele>
        <time>2025-04-25T14:26:33Z</time>
      </trkpt>
      <trkpt lat="44.031664039939642" lon="2.191271977499127">
        <ele>319.77999999999997</ele>
        <time>2025-04-25T14:26:45Z</time>
      </trkpt>
      <trkpt lat="44.031616011634469" lon="2.19142897054553">
        <ele>319.77999999999997</ele>
        <time>2025-04-25T14:26:46Z</time>
      </trkpt>
      <trkpt lat="44.031573012471199" lon="2.191526032984257">
        <ele>319.77999999999997</ele>
        <time>2025-04-25T14:26:47Z</time>
      </trkpt>
      <trkpt lat="44.031506041064858" lon="2.191622005775571">
        <ele>319.30000000000001</ele>
        <time>2025-04-25T14:26:48Z</time>
      </trkpt>
      <trkpt lat="44.031450971961021" lon="2.191622005775571">
        <ele>319.30000000000001</ele>
        <time>2025-04-25T14:26:49Z</time>
      </trkpt>
      <trkpt lat="44.031376037746668" lon="2.19159702770412">
        <ele>318.81</ele>
        <time>2025-04-25T14:26:50Z</time>
      </trkpt>
      <trkpt lat="44.031321974471211" lon="2.191542964428663">
        <ele>318.32999999999998</ele>
        <time>2025-04-25T14:26:51Z</time>
      </trkpt>
      <trkpt lat="44.031260032206774" lon="2.191481022164226">
        <ele>317.85000000000002</ele>
        <time>2025-04-25T14:26:52Z</time>
      </trkpt>
      <trkpt lat="44.031184008345008" lon="2.19140499830246">
        <ele>317.37</ele>
        <time>2025-04-25T14:26:53Z</time>
      </trkpt>
      <trkpt lat="44.03088603168726" lon="2.191107021644712">
        <ele>315.93000000000001</ele>
        <time>2025-04-25T14:26:56Z</time>
      </trkpt>
      <trkpt lat="44.030761979520321" lon="2.191027980297804">
        <ele>315.93000000000001</ele>
        <time>2025-04-25T14:26:57Z</time>
      </trkpt>
      <trkpt lat="44.030649997293949" lon="2.190956985577941">
        <ele>315.44999999999999</ele>
        <time>2025-04-25T14:26:58Z</time>
      </trkpt>
      <trkpt lat="44.030468026176095" lon="2.190950028598309">
        <ele>314.97000000000003</ele>
        <time>2025-04-25T14:26:59Z</time>
      </trkpt>
      <trkpt lat="44.030303992331028" lon="2.190942987799645">
        <ele>314.49000000000001</ele>
        <time>2025-04-25T14:27:00Z</time>
      </trkpt>
      <trkpt lat="44.03013501316309" lon="2.190936030820012">
        <ele>314.00999999999999</ele>
        <time>2025-04-25T14:27:01Z</time>
      </trkpt>
      <trkpt lat="44.029781967401505" lon="2.190921027213335">
        <ele>314.00999999999999</ele>
        <time>2025-04-25T14:27:03Z</time>
      </trkpt>
      <trkpt lat="44.029596978798509" lon="2.190896971151233">
        <ele>314.00999999999999</ele>
        <time>2025-04-25T14:27:04Z</time>
      </trkpt>
      <trkpt lat="44.029437974095345" lon="2.190779037773609">
        <ele>314.00999999999999</ele>
        <time>2025-04-25T14:27:05Z</time>
      </trkpt>
      <trkpt lat="44.029277041554451" lon="2.190659008920193">
        <ele>314.00999999999999</ele>
        <time>2025-04-25T14:27:06Z</time>
      </trkpt>
      <trkpt lat="44.029113007709384" lon="2.190537974238396">
        <ele>313.52999999999997</ele>
        <time>2025-04-25T14:27:07Z</time>
      </trkpt>
      <trkpt lat="44.028935981914401" lon="2.190401013940573">
        <ele>313.52999999999997</ele>
        <time>2025-04-25T14:27:08Z</time>
      </trkpt>
      <trkpt lat="44.027162035927176" lon="2.188611980527639">
        <ele>313.52999999999997</ele>
        <time>2025-04-25T14:27:18Z</time>
      </trkpt>
      <trkpt lat="44.024577978998423" lon="2.186307962983847">
        <ele>314.00999999999999</ele>
        <time>2025-04-25T14:27:30Z</time>
      </trkpt>
      <trkpt lat="44.021261008456349" lon="2.183480998501182">
        <ele>309.68000000000001</ele>
        <time>2025-04-25T14:27:44Z</time>
      </trkpt>
      <trkpt lat="44.018805027008057" lon="2.181994970887899">
        <ele>305.83999999999997</ele>
        <time>2025-04-25T14:27:54Z</time>
      </trkpt>
      <trkpt lat="44.016046961769462" lon="2.180968020111322">
        <ele>300.06999999999999</ele>
        <time>2025-04-25T14:28:05Z</time>
      </trkpt>
      <trkpt lat="44.013132993131876" lon="2.179795978590846">
        <ele>296.22000000000003</ele>
        <time>2025-04-25T14:28:17Z</time>
      </trkpt>
      <trkpt lat="44.010634012520313" lon="2.178167039528489">
        <ele>291.42000000000002</ele>
        <time>2025-04-25T14:28:28Z</time>
      </trkpt>
      <trkpt lat="44.008202003315091" lon="2.175992019474506">
        <ele>281.80000000000001</ele>
        <time>2025-04-25T14:28:39Z</time>
      </trkpt>
      <trkpt lat="44.005166999995708" lon="2.173504019156098">
        <ele>264.01999999999998</ele>
        <time>2025-04-25T14:28:52Z</time>
      </trkpt>
      <trkpt lat="44.002853007987142" lon="2.172319991514087">
        <ele>252.47999999999999</ele>
        <time>2025-04-25T14:29:01Z</time>
      </trkpt>
      <trkpt lat="44.001063974574208" lon="2.171719009056687">
        <ele>241.43000000000001</ele>
        <time>2025-04-25T14:29:09Z</time>
      </trkpt>
      <trkpt lat="43.99874503724277" lon="2.171394964680076">
        <ele>228.93000000000001</ele>
        <time>2025-04-25T14:29:20Z</time>
      </trkpt>
      <trkpt lat="43.99653104133904" lon="2.171413991600275">
        <ele>219.31999999999999</ele>
        <time>2025-04-25T14:29:31Z</time>
      </trkpt>
      <trkpt lat="43.995564021170139" lon="2.171358000487089">
        <ele>217.40000000000001</ele>
        <time>2025-04-25T14:29:37Z</time>
      </trkpt>
      <trkpt lat="43.995429994538426" lon="2.171310978010297">
        <ele>217.40000000000001</ele>
        <time>2025-04-25T14:29:38Z</time>
      </trkpt>
      <trkpt lat="43.995308037847281" lon="2.171266973018646">
        <ele>217.40000000000001</ele>
        <time>2025-04-25T14:29:39Z</time>
      </trkpt>
      <trkpt lat="43.995196977630258" lon="2.171213999390602">
        <ele>216.91</ele>
        <time>2025-04-25T14:29:40Z</time>
      </trkpt>
      <trkpt lat="43.995108967646956" lon="2.171136969700456">
        <ele>216.91</ele>
        <time>2025-04-25T14:29:41Z</time>
      </trkpt>
      <trkpt lat="43.995047025382519" lon="2.171048959717155">
        <ele>216.91</ele>
        <time>2025-04-25T14:29:42Z</time>
      </trkpt>
      <trkpt lat="43.995026992633939" lon="2.170910993590951">
        <ele>216.91</ele>
        <time>2025-04-25T14:29:43Z</time>
      </trkpt>
      <trkpt lat="43.994966978207231" lon="2.170839998871088">
        <ele>217.40000000000001</ele>
        <time>2025-04-25T14:29:44Z</time>
      </trkpt>
      <trkpt lat="43.994883997365832" lon="2.170796999707818">
        <ele>217.88</ele>
        <time>2025-04-25T14:29:45Z</time>
      </trkpt>
      <trkpt lat="43.994813002645969" lon="2.170814014971256">
        <ele>218.36000000000001</ele>
        <time>2025-04-25T14:29:46Z</time>
      </trkpt>
      <trkpt lat="43.994734967127442" lon="2.170872017741203">
        <ele>218.84</ele>
        <time>2025-04-25T14:29:47Z</time>
      </trkpt>
      <trkpt lat="43.994693979620934" lon="2.17097201384604">
        <ele>218.84</ele>
        <time>2025-04-25T14:29:48Z</time>
      </trkpt>
      <trkpt lat="43.994680987671018" lon="2.171090031042695">
        <ele>218.84</ele>
        <time>2025-04-25T14:29:49Z</time>
      </trkpt>
      <trkpt lat="43.994708983227611" lon="2.171173011884093">
        <ele>218.36000000000001</ele>
        <time>2025-04-25T14:29:50Z</time>
      </trkpt>
      <trkpt lat="43.994777966290712" lon="2.171356994658709">
        <ele>218.36000000000001</ele>
        <time>2025-04-25T14:29:51Z</time>
      </trkpt>
      <trkpt lat="43.994752988219261" lon="2.171473000198603">
        <ele>218.36000000000001</ele>
        <time>2025-04-25T14:29:52Z</time>
      </trkpt>
      <trkpt lat="43.994730021804571" lon="2.171580959111452">
        <ele>217.88</ele>
        <time>2025-04-25T14:29:53Z</time>
      </trkpt>
      <trkpt lat="43.994663972407579" lon="2.171738035976887">
        <ele>217.88</ele>
        <time>2025-04-25T14:29:54Z</time>
      </trkpt>
      <trkpt lat="43.994602030143142" lon="2.171884970739484">
        <ele>217.88</ele>
        <time>2025-04-25T14:29:55Z</time>
      </trkpt>
      <trkpt lat="43.994537992402911" lon="2.172038024291396">
        <ele>217.40000000000001</ele>
        <time>2025-04-25T14:29:56Z</time>
      </trkpt>
      <trkpt lat="43.994472026824951" lon="2.17219702899456">
        <ele>216.91</ele>
        <time>2025-04-25T14:29:57Z</time>
      </trkpt>
      <trkpt lat="43.994375970214605" lon="2.172341030091047">
        <ele>216.43000000000001</ele>
        <time>2025-04-25T14:29:58Z</time>
      </trkpt>
      <trkpt lat="43.994159968569875" lon="2.172613022848964">
        <ele>214.50999999999999</ele>
        <time>2025-04-25T14:30:00Z</time>
      </trkpt>
      <trkpt lat="43.992927996441722" lon="2.173763019964099">
        <ele>210.19</ele>
        <time>2025-04-25T14:30:09Z</time>
      </trkpt>
      <trkpt lat="43.991756960749626" lon="2.174387974664569">
        <ele>207.78</ele>
        <time>2025-04-25T14:30:17Z</time>
      </trkpt>
      <trkpt lat="43.99047302082181" lon="2.174509009346366">
        <ele>204.41999999999999</ele>
        <time>2025-04-25T14:30:25Z</time>
      </trkpt>
      <trkpt lat="43.988452982157469" lon="2.174170967191458">
        <ele>202.97999999999999</ele>
        <time>2025-04-25T14:30:35Z</time>
      </trkpt>
      <trkpt lat="43.985802959650755" lon="2.173650031909347">
        <ele>198.16999999999999</ele>
        <time>2025-04-25T14:30:46Z</time>
      </trkpt>
      <trkpt lat="43.982449024915695" lon="2.173171006143093">
        <ele>190</ele>
        <time>2025-04-25T14:30:59Z</time>
      </trkpt>
      <trkpt lat="43.98046201094985" lon="2.173608038574457">
        <ele>186.15000000000001</ele>
        <time>2025-04-25T14:31:07Z</time>
      </trkpt>
      <trkpt lat="43.978845980018377" lon="2.174632977694273">
        <ele>185.19</ele>
        <time>2025-04-25T14:31:14Z</time>
      </trkpt>
      <trkpt lat="43.977106986567378" lon="2.176380017772317">
        <ele>184.22999999999999</ele>
        <time>2025-04-25T14:31:22Z</time>
      </trkpt>
      <trkpt lat="43.974603982642293" lon="2.179006990045309">
        <ele>178.46000000000001</ele>
        <time>2025-04-25T14:31:34Z</time>
      </trkpt>
      <trkpt lat="43.971908027306199" lon="2.181797996163368">
        <ele>176.53999999999999</ele>
        <time>2025-04-25T14:31:47Z</time>
      </trkpt>
      <trkpt lat="43.970477990806103" lon="2.182872975245118">
        <ele>178.46000000000001</ele>
        <time>2025-04-25T14:31:54Z</time>
      </trkpt>
      <trkpt lat="43.969006966799498" lon="2.183268014341593">
        <ele>180.38</ele>
        <time>2025-04-25T14:32:01Z</time>
      </trkpt>
      <trkpt lat="43.967837020754814" lon="2.183181010186672">
        <ele>181.34999999999999</ele>
        <time>2025-04-25T14:32:08Z</time>
      </trkpt>
      <trkpt lat="43.967512976378202" lon="2.183152008801699">
        <ele>181.83000000000001</ele>
        <time>2025-04-25T14:32:12Z</time>
      </trkpt>
      <trkpt lat="43.96744198165834" lon="2.183144968003035">
        <ele>182.31</ele>
        <time>2025-04-25T14:32:22Z</time>
      </trkpt>
      <trkpt lat="43.967003021389246" lon="2.183104986324906">
        <ele>182.31</ele>
        <time>2025-04-25T14:32:34Z</time>
      </trkpt>
      <trkpt lat="43.966912999749184" lon="2.183098029345274">
        <ele>182.31</ele>
        <time>2025-04-25T14:32:36Z</time>
      </trkpt>
      <trkpt lat="43.966363985091448" lon="2.183051006868482">
        <ele>182.78999999999999</ele>
        <time>2025-04-25T14:32:49Z</time>
      </trkpt>
      <trkpt lat="43.966038012877107" lon="2.183023011311889">
        <ele>183.27000000000001</ele>
        <time>2025-04-25T14:33:01Z</time>
      </trkpt>
      <trkpt lat="43.965774988755584" lon="2.182999961078167">
        <ele>183.75</ele>
        <time>2025-04-25T14:33:10Z</time>
      </trkpt>
      <trkpt lat="43.965683039277792" lon="2.182991998270154">
        <ele>183.75</ele>
        <time>2025-04-25T14:33:12Z</time>
      </trkpt>
      <trkpt lat="43.965631993487477" lon="2.182987974956632">
        <ele>184.22999999999999</ele>
        <time>2025-04-25T14:33:13Z</time>
      </trkpt>
      <trkpt lat="43.965352037921548" lon="2.182959979400039">
        <ele>183.75</ele>
        <time>2025-04-25T14:33:22Z</time>
      </trkpt>
      <trkpt lat="43.965312978252769" lon="2.182955034077168">
        <ele>183.75</ele>
        <time>2025-04-25T14:33:23Z</time>
      </trkpt>
      <trkpt lat="43.965068981051445" lon="2.182927038520575">
        <ele>184.71000000000001</ele>
        <time>2025-04-25T14:33:33Z</time>
      </trkpt>
      <trkpt lat="43.96490603685379" lon="2.182825030758977">
        <ele>185.19</ele>
        <time>2025-04-25T14:33:37Z</time>
      </trkpt>
      <trkpt lat="43.964857002720237" lon="2.182671977207065">
        <ele>185.19</ele>
        <time>2025-04-25T14:33:39Z</time>
      </trkpt>
      <trkpt lat="43.964803023263812" lon="2.182579021900892">
        <ele>185.19</ele>
        <time>2025-04-25T14:33:40Z</time>
      </trkpt>
      <trkpt lat="43.964719958603382" lon="2.182541973888874">
        <ele>185.19</ele>
        <time>2025-04-25T14:33:41Z</time>
      </trkpt>
      <trkpt lat="43.964620968326926" lon="2.18250903300941">
        <ele>184.71000000000001</ele>
        <time>2025-04-25T14:33:42Z</time>
      </trkpt>
      <trkpt lat="43.964538993313909" lon="2.182481037452817">
        <ele>184.71000000000001</ele>
        <time>2025-04-25T14:33:43Z</time>
      </trkpt>
      <trkpt lat="43.964437991380692" lon="2.18233703635633">
        <ele>184.22999999999999</ele>
        <time>2025-04-25T14:33:44Z</time>
      </trkpt>
      <trkpt lat="43.96438904106617" lon="2.182266963645816">
        <ele>184.22999999999999</ele>
        <time>2025-04-25T14:33:45Z</time>
      </trkpt>
      <trkpt lat="43.964317040517926" lon="2.182094966992736">
        <ele>183.75</ele>
        <time>2025-04-25T14:33:46Z</time>
      </trkpt>
      <trkpt lat="43.964264988899231" lon="2.181970998644829">
        <ele>183.27000000000001</ele>
        <time>2025-04-25T14:33:47Z</time>
      </trkpt>
      <trkpt lat="43.963713040575385" lon="2.18055697157979">
        <ele>178.94</ele>
        <time>2025-04-25T14:33:57Z</time>
      </trkpt>
      <trkpt lat="43.963109040632844" lon="2.178389998152852">
        <ele>176.53999999999999</ele>
        <time>2025-04-25T14:34:11Z</time>
      </trkpt>
      <trkpt lat="43.962797988206148" lon="2.177240001037717">
        <ele>174.13999999999999</ele>
        <time>2025-04-25T14:34:18Z</time>
      </trkpt>
      <trkpt lat="43.962174961343408" lon="2.174934977665544">
        <ele>170.28999999999999</ele>
        <time>2025-04-25T14:34:29Z</time>
      </trkpt>
      <trkpt lat="43.961816970258951" lon="2.172639006748796">
        <ele>172.21000000000001</ele>
        <time>2025-04-25T14:34:39Z</time>
      </trkpt>
      <trkpt lat="43.961664000526071" lon="2.17054596170783">
        <ele>174.13999999999999</ele>
        <time>2025-04-25T14:34:49Z</time>
      </trkpt>
      <trkpt lat="43.961590994149446" lon="2.16936101205647">
        <ele>174.62</ele>
        <time>2025-04-25T14:34:57Z</time>
      </trkpt>
      <trkpt lat="43.961557969450951" lon="2.168988017365336">
        <ele>174.13999999999999</ele>
        <time>2025-04-25T14:35:07Z</time>
      </trkpt>
      <trkpt lat="43.961474988609552" lon="2.168471021577716">
        <ele>174.62</ele>
        <time>2025-04-25T14:35:16Z</time>
      </trkpt>
      <trkpt lat="43.961406005546451" lon="2.168040024116635">
        <ele>175.09999999999999</ele>
        <time>2025-04-25T14:35:26Z</time>
      </trkpt>
      <trkpt lat="43.961375998333097" lon="2.167844977229834">
        <ele>174.62</ele>
        <time>2025-04-25T14:35:33Z</time>
      </trkpt>
      <trkpt lat="43.961372980847955" lon="2.167823016643524">
        <ele>174.62</ele>
        <time>2025-04-25T14:35:34Z</time>
      </trkpt>
      <trkpt lat="43.961363006383181" lon="2.167648002505302">
        <ele>174.13999999999999</ele>
        <time>2025-04-25T14:35:37Z</time>
      </trkpt>
      <trkpt lat="43.961363006383181" lon="2.167579019442201">
        <ele>173.66</ele>
        <time>2025-04-25T14:35:38Z</time>
      </trkpt>
      <trkpt lat="43.961363006383181" lon="2.167568039149046">
        <ele>173.66</ele>
        <time>2025-04-25T14:35:39Z</time>
      </trkpt>
      <trkpt lat="43.961421009153128" lon="2.167423032224178">
        <ele>173.66</ele>
        <time>2025-04-25T14:35:40Z</time>
      </trkpt>
      <trkpt lat="43.961387984454632" lon="2.167351031675935">
        <ele>173.66</ele>
        <time>2025-04-25T14:35:41Z</time>
      </trkpt>
      <trkpt lat="43.961349008604884" lon="2.167262015864253">
        <ele>174.13999999999999</ele>
        <time>2025-04-25T14:35:42Z</time>
      </trkpt>
      <trkpt lat="43.961303997784853" lon="2.16717098839581">
        <ele>174.13999999999999</ele>
        <time>2025-04-25T14:35:43Z</time>
      </trkpt>
      <trkpt lat="43.961278013885021" lon="2.167063029482961">
        <ele>174.13999999999999</ele>
        <time>2025-04-25T14:35:44Z</time>
      </trkpt>
      <trkpt lat="43.961252029985189" lon="2.166945012286305">
        <ele>174.13999999999999</ele>
        <time>2025-04-25T14:35:45Z</time>
      </trkpt>
      <trkpt lat="43.960923962295055" lon="2.165715973824263">
        <ele>174.62</ele>
        <time>2025-04-25T14:35:53Z</time>
      </trkpt>
      <trkpt lat="43.960213009268045" lon="2.164043029770255">
        <ele>171.72999999999999</ele>
        <time>2025-04-25T14:36:04Z</time>
      </trkpt>
      <trkpt lat="43.959438018500805" lon="2.162310993298888">
        <ele>169.81</ele>
        <time>2025-04-25T14:36:17Z</time>
      </trkpt>
      <trkpt lat="43.958939965814352" lon="2.16119896620512">
        <ele>170.28999999999999</ele>
        <time>2025-04-25T14:36:24Z</time>
      </trkpt>
      <trkpt lat="43.9588269777596" lon="2.161012971773744">
        <ele>170.77000000000001</ele>
        <time>2025-04-25T14:36:26Z</time>
      </trkpt>
      <trkpt lat="43.95878397859633" lon="2.160942982882261">
        <ele>171.25</ele>
        <time>2025-04-25T14:36:27Z</time>
      </trkpt>
      <trkpt lat="43.958694040775299" lon="2.160796970129013">
        <ele>171.25</ele>
        <time>2025-04-25T14:36:30Z</time>
      </trkpt>
      <trkpt lat="43.958581974729896" lon="2.160612987354398">
        <ele>171.72999999999999</ele>
        <time>2025-04-25T14:36:35Z</time>
      </trkpt>
      <trkpt lat="43.958551967516541" lon="2.160564959049225">
        <ele>171.72999999999999</ele>
        <time>2025-04-25T14:36:36Z</time>
      </trkpt>
      <trkpt lat="43.958533024415374" lon="2.160504022613168">
        <ele>171.72999999999999</ele>
        <time>2025-04-25T14:36:37Z</time>
      </trkpt>
      <trkpt lat="43.958540987223387" lon="2.160431016236544">
        <ele>171.72999999999999</ele>
        <time>2025-04-25T14:36:38Z</time>
      </trkpt>
      <trkpt lat="43.958550039678812" lon="2.160343006253243">
        <ele>171.72999999999999</ele>
        <time>2025-04-25T14:36:39Z</time>
      </trkpt>
      <trkpt lat="43.958533024415374" lon="2.160228006541729">
        <ele>171.72999999999999</ele>
        <time>2025-04-25T14:36:40Z</time>
      </trkpt>
      <trkpt lat="43.958509974181652" lon="2.16012398712337">
        <ele>171.72999999999999</ele>
        <time>2025-04-25T14:36:41Z</time>
      </trkpt>
      <trkpt lat="43.958444008603692" lon="2.160034971311688">
        <ele>171.72999999999999</ele>
        <time>2025-04-25T14:36:42Z</time>
      </trkpt>
      <trkpt lat="43.958386005833745" lon="2.159957019612193">
        <ele>171.25</ele>
        <time>2025-04-25T14:36:43Z</time>
      </trkpt>
      <trkpt lat="43.958306964486837" lon="2.159943021833897">
        <ele>171.25</ele>
        <time>2025-04-25T14:36:44Z</time>
      </trkpt>
      <trkpt lat="43.958234963938594" lon="2.159935981035233">
        <ele>171.25</ele>
        <time>2025-04-25T14:36:45Z</time>
      </trkpt>
      <trkpt lat="43.958165980875492" lon="2.1599290240556">
        <ele>171.25</ele>
        <time>2025-04-25T14:36:46Z</time>
      </trkpt>
      <trkpt lat="43.958127005025744" lon="2.159969005733728">
        <ele>171.72999999999999</ele>
        <time>2025-04-25T14:36:47Z</time>
      </trkpt>
      <trkpt lat="43.958069002255797" lon="2.160026002675295">
        <ele>171.72999999999999</ele>
        <time>2025-04-25T14:36:48Z</time>
      </trkpt>
      <trkpt lat="43.957993984222412" lon="2.16010102070868">
        <ele>171.72999999999999</ele>
        <time>2025-04-25T14:36:49Z</time>
      </trkpt>
      <trkpt lat="43.957978980615735" lon="2.160188024863601">
        <ele>171.72999999999999</ele>
        <time>2025-04-25T14:36:50Z</time>
      </trkpt>
      <trkpt lat="43.957956014201045" lon="2.160310987383127">
        <ele>171.72999999999999</ele>
        <time>2025-04-25T14:36:51Z</time>
      </trkpt>
      <trkpt lat="43.957932963967323" lon="2.160608964040875">
        <ele>171.25</ele>
        <time>2025-04-25T14:36:53Z</time>
      </trkpt>
      <trkpt lat="43.957866998389363" lon="2.160669984295964">
        <ele>171.25</ele>
        <time>2025-04-25T14:36:54Z</time>
      </trkpt>
      <trkpt lat="43.957792986184359" lon="2.160737961530685">
        <ele>170.77000000000001</ele>
        <time>2025-04-25T14:36:55Z</time>
      </trkpt>
      <trkpt lat="43.957546977326274" lon="2.16102696955204">
        <ele>169.33000000000001</ele>
        <time>2025-04-25T14:36:59Z</time>
      </trkpt>
      <trkpt lat="43.957511018961668" lon="2.161074997857213">
        <ele>168.84999999999999</ele>
        <time>2025-04-25T14:37:00Z</time>
      </trkpt>
      <trkpt lat="43.957500960677862" lon="2.161087989807129">
        <ele>168.37</ele>
        <time>2025-04-25T14:37:01Z</time>
      </trkpt>
      <trkpt lat="43.957528034225106" lon="2.161052031442523">
        <ele>167.88999999999999</ele>
        <time>2025-04-25T14:37:03Z</time>
      </trkpt>
      <trkpt lat="43.957561980932951" lon="2.161007020622492">
        <ele>167.88999999999999</ele>
        <time>2025-04-25T14:37:04Z</time>
      </trkpt>
      <trkpt lat="43.95760104060173" lon="2.160953963175416">
        <ele>167.41</ele>
        <time>2025-04-25T14:37:05Z</time>
      </trkpt>
      <trkpt lat="43.957647979259491" lon="2.160892020910978">
        <ele>167.41</ele>
        <time>2025-04-25T14:37:06Z</time>
      </trkpt>
      <trkpt lat="43.957693995907903" lon="2.16083100065589">
        <ele>167.88999999999999</ele>
        <time>2025-04-25T14:37:07Z</time>
      </trkpt>
      <trkpt lat="43.95783799700439" lon="2.160696974024177">
        <ele>167.88999999999999</ele>
        <time>2025-04-25T14:37:10Z</time>
      </trkpt>
      <trkpt lat="43.95788099616766" lon="2.160656992346048">
        <ele>167.88999999999999</ele>
        <time>2025-04-25T14:37:11Z</time>
      </trkpt>
      <trkpt lat="43.957915026694536" lon="2.160624973475933">
        <ele>167.88999999999999</ele>
        <time>2025-04-25T14:37:12Z</time>
      </trkpt>
      <trkpt lat="43.957813018932939" lon="2.160242004320025">
        <ele>167.41</ele>
        <time>2025-04-25T14:37:19Z</time>
      </trkpt>
      <trkpt lat="43.95786196924746" lon="2.160248961299658">
        <ele>171.72999999999999</ele>
        <time>2025-04-25T15:14:42Z</time>
      </trkpt>
      <trkpt lat="43.957854006439447" lon="2.160250972956419">
        <ele>170.77000000000001</ele>
        <time>2025-04-25T15:15:25Z</time>
      </trkpt>
      <trkpt lat="43.95785903558135" lon="2.160257007926703">
        <ele>170.28999999999999</ele>
        <time>2025-04-25T15:16:07Z</time>
      </trkpt>
      <trkpt lat="43.95785903558135" lon="2.160259019583464">
        <ele>170.28999999999999</ele>
        <time>2025-04-25T15:16:54Z</time>
      </trkpt>
      <trkpt lat="43.95785802975297" lon="2.160264970734716">
        <ele>170.28999999999999</ele>
        <time>2025-04-25T15:17:37Z</time>
      </trkpt>
      <trkpt lat="43.95785802975297" lon="2.160264970734716">
        <ele>170.28999999999999</ele>
        <time>2025-04-25T15:17:52Z</time>
      </trkpt>
      <trkpt lat="43.957629958167672" lon="2.160185007378459">
        <ele>168.37</ele>
        <time>2025-04-25T15:17:59Z</time>
      </trkpt>
      <trkpt lat="43.957383027300239" lon="2.160408971831203">
        <ele>166.93000000000001</ele>
        <time>2025-04-25T15:18:04Z</time>
      </trkpt>
      <trkpt lat="43.957295017316937" lon="2.160649029538035">
        <ele>166.93000000000001</ele>
        <time>2025-04-25T15:18:08Z</time>
      </trkpt>
      <trkpt lat="43.957500960677862" lon="2.161087989807129">
        <ele>167.41</ele>
        <time>2025-04-25T15:18:15Z</time>
      </trkpt>
      <trkpt lat="43.95751697011292" lon="2.161106010898948">
        <ele>167.41</ele>
        <time>2025-04-25T15:18:16Z</time>
      </trkpt>
      <trkpt lat="43.957541026175022" lon="2.161034010350704">
        <ele>167.88999999999999</ele>
        <time>2025-04-25T15:18:17Z</time>
      </trkpt>
      <trkpt lat="43.957584025338292" lon="2.160977013409138">
        <ele>167.41</ele>
        <time>2025-04-25T15:18:18Z</time>
      </trkpt>
      <trkpt lat="43.957634987309575" lon="2.160909958183765">
        <ele>167.41</ele>
        <time>2025-04-25T15:18:19Z</time>
      </trkpt>
      <trkpt lat="43.958079982548952" lon="2.160679958760738">
        <ele>167.88999999999999</ele>
        <time>2025-04-25T15:18:24Z</time>
      </trkpt>
      <trkpt lat="43.958079982548952" lon="2.160679958760738">
        <ele>167.88999999999999</ele>
        <time>2025-04-25T15:18:25Z</time>
      </trkpt>
      <trkpt lat="43.958136979490519" lon="2.160718012601137">
        <ele>169.33000000000001</ele>
        <time>2025-04-25T15:18:29Z</time>
      </trkpt>
      <trkpt lat="43.958206968382001" lon="2.160764029249549">
        <ele>169.33000000000001</ele>
        <time>2025-04-25T15:18:30Z</time>
      </trkpt>
      <trkpt lat="43.958303024992347" lon="2.160742990672588">
        <ele>169.33000000000001</ele>
        <time>2025-04-25T15:18:31Z</time>
      </trkpt>
      <trkpt lat="43.958380976691842" lon="2.16072304174304">
        <ele>169.81</ele>
        <time>2025-04-25T15:18:32Z</time>
      </trkpt>
      <trkpt lat="43.958437973633409" lon="2.160650035366416">
        <ele>169.81</ele>
        <time>2025-04-25T15:18:33Z</time>
      </trkpt>
      <trkpt lat="43.958499999716878" lon="2.160568982362747">
        <ele>170.28999999999999</ele>
        <time>2025-04-25T15:18:34Z</time>
      </trkpt>
      <trkpt lat="43.958536041900516" lon="2.160480972379446">
        <ele>170.28999999999999</ele>
        <time>2025-04-25T15:18:35Z</time>
      </trkpt>
      <trkpt lat="43.958548028022051" lon="2.160363961011171">
        <ele>170.28999999999999</ele>
        <time>2025-04-25T15:18:36Z</time>
      </trkpt>
      <trkpt lat="43.958539981395006" lon="2.160260025411844">
        <ele>170.28999999999999</ele>
        <time>2025-04-25T15:18:37Z</time>
      </trkpt>
      <trkpt lat="43.958512991666794" lon="2.160136979073286">
        <ele>170.77000000000001</ele>
        <time>2025-04-25T15:18:38Z</time>
      </trkpt>
      <trkpt lat="43.958459012210369" lon="2.160056009888649">
        <ele>170.77000000000001</ele>
        <time>2025-04-25T15:18:39Z</time>
      </trkpt>
      <trkpt lat="43.958392040804029" lon="2.159965988248587">
        <ele>170.77000000000001</ele>
        <time>2025-04-25T15:18:40Z</time>
      </trkpt>
      <trkpt lat="43.95833496004343" lon="2.159861968830228">
        <ele>170.77000000000001</ele>
        <time>2025-04-25T15:18:41Z</time>
      </trkpt>
      <trkpt lat="43.958281986415386" lon="2.159760966897011">
        <ele>170.77000000000001</ele>
        <time>2025-04-25T15:18:42Z</time>
      </trkpt>
      <trkpt lat="43.957829028367996" lon="2.158837029710412">
        <ele>170.28999999999999</ele>
        <time>2025-04-25T15:18:48Z</time>
      </trkpt>
      <trkpt lat="43.956965021789074" lon="2.157226027920842">
        <ele>169.81</ele>
        <time>2025-04-25T15:18:56Z</time>
      </trkpt>
      <trkpt lat="43.955781999975443" lon="2.156224977225065">
        <ele>170.28999999999999</ele>
        <time>2025-04-25T15:19:04Z</time>
      </trkpt>
      <trkpt lat="43.953902022913098" lon="2.155252005904913">
        <ele>169.81</ele>
        <time>2025-04-25T15:19:17Z</time>
      </trkpt>
      <trkpt lat="43.952845986932516" lon="2.154752025380731">
        <ele>169.81</ele>
        <time>2025-04-25T15:19:28Z</time>
      </trkpt>
      <trkpt lat="43.952727969735861" lon="2.154711959883571">
        <ele>169.81</ele>
        <time>2025-04-25T15:19:36Z</time>
      </trkpt>
      <trkpt lat="43.95250903442502" lon="2.154677007347345">
        <ele>169.33000000000001</ele>
        <time>2025-04-25T15:19:46Z</time>
      </trkpt>
      <trkpt lat="43.952326979488134" lon="2.154671978205442">
        <ele>168.84999999999999</ele>
        <time>2025-04-25T15:19:57Z</time>
      </trkpt>
      <trkpt lat="43.952105026692152" lon="2.154706008732319">
        <ele>168.84999999999999</ele>
        <time>2025-04-25T15:20:08Z</time>
      </trkpt>
      <trkpt lat="43.951937975361943" lon="2.154654962942004">
        <ele>168.37</ele>
        <time>2025-04-25T15:20:17Z</time>
      </trkpt>
      <trkpt lat="43.951878966763616" lon="2.154479026794434">
        <ele>168.37</ele>
        <time>2025-04-25T15:20:18Z</time>
      </trkpt>
      <trkpt lat="43.951802020892501" lon="2.15438598766923">
        <ele>167.88999999999999</ele>
        <time>2025-04-25T15:20:20Z</time>
      </trkpt>
      <trkpt lat="43.951696995645761" lon="2.154318010434508">
        <ele>167.88999999999999</ele>
        <time>2025-04-25T15:20:21Z</time>
      </trkpt>
      <trkpt lat="43.951580990105867" lon="2.154295966029167">
        <ele>167.88999999999999</ele>
        <time>2025-04-25T15:20:22Z</time>
      </trkpt>
      <trkpt lat="43.951491974294186" lon="2.154318010434508">
        <ele>167.41</ele>
        <time>2025-04-25T15:20:23Z</time>
      </trkpt>
      <trkpt lat="43.951390972360969" lon="2.154432004317641">
        <ele>167.41</ele>
        <time>2025-04-25T15:20:24Z</time>
      </trkpt>
      <trkpt lat="43.951334981247783" lon="2.154529988765717">
        <ele>166.93000000000001</ele>
        <time>2025-04-25T15:20:25Z</time>
      </trkpt>
      <trkpt lat="43.951277984306216" lon="2.154692010954022">
        <ele>166.93000000000001</ele>
        <time>2025-04-25T15:20:26Z</time>
      </trkpt>
      <trkpt lat="43.951277984306216" lon="2.154822014272213">
        <ele>166.93000000000001</ele>
        <time>2025-04-25T15:20:27Z</time>
      </trkpt>
      <trkpt lat="43.951321989297867" lon="2.154974984005094">
        <ele>166.93000000000001</ele>
        <time>2025-04-25T15:20:28Z</time>
      </trkpt>
      <trkpt lat="43.951362976804376" lon="2.155088977888227">
        <ele>166.93000000000001</ele>
        <time>2025-04-25T15:20:29Z</time>
      </trkpt>
      <trkpt lat="43.951403964310884" lon="2.155190985649824">
        <ele>167.41</ele>
        <time>2025-04-25T15:20:30Z</time>
      </trkpt>
      <trkpt lat="43.951426008716226" lon="2.155277989804745">
        <ele>167.41</ele>
        <time>2025-04-25T15:20:31Z</time>
      </trkpt>
      <trkpt lat="43.951415028423071" lon="2.155390977859497">
        <ele>167.41</ele>
        <time>2025-04-25T15:20:32Z</time>
      </trkpt>
      <trkpt lat="43.951394995674491" lon="2.155496003106237">
        <ele>167.41</ele>
        <time>2025-04-25T15:20:33Z</time>
      </trkpt>
      <trkpt lat="43.951345961540937" lon="2.155612008646131">
        <ele>167.41</ele>
        <time>2025-04-25T15:20:34Z</time>
      </trkpt>
      <trkpt lat="43.951300028711557" lon="2.155723990872502">
        <ele>166.93000000000001</ele>
        <time>2025-04-25T15:20:35Z</time>
      </trkpt>
      <trkpt lat="43.950644982978702" lon="2.156871976330876">
        <ele>164.52000000000001</ele>
        <time>2025-04-25T15:20:43Z</time>
      </trkpt>
      <trkpt lat="43.949368000030518" lon="2.15814895927906">
        <ele>163.08000000000001</ele>
        <time>2025-04-25T15:20:52Z</time>
      </trkpt>
      <trkpt lat="43.947950033470988" lon="2.159374980255961">
        <ele>163.56</ele>
        <time>2025-04-25T15:21:00Z</time>
      </trkpt>
      <trkpt lat="43.947744006291032" lon="2.15945502743125">
        <ele>164.03999999999999</ele>
        <time>2025-04-25T15:21:01Z</time>
      </trkpt>
      <trkpt lat="43.945946004241705" lon="2.159942016005516">
        <ele>164.03999999999999</ele>
        <time>2025-04-25T15:21:10Z</time>
      </trkpt>
      <trkpt lat="43.94576302729547" lon="2.160032037645578">
        <ele>164.03999999999999</ele>
        <time>2025-04-25T15:21:11Z</time>
      </trkpt>
      <trkpt lat="43.945581978186965" lon="2.160137984901667">
        <ele>164.03999999999999</ele>
        <time>2025-04-25T15:21:12Z</time>
      </trkpt>
      <trkpt lat="43.945404030382633" lon="2.160264970734716">
        <ele>163.56</ele>
        <time>2025-04-25T15:21:13Z</time>
      </trkpt>
      <trkpt lat="43.945221975445747" lon="2.160392962396145">
        <ele>163.56</ele>
        <time>2025-04-25T15:21:14Z</time>
      </trkpt>
      <trkpt lat="43.945052996277809" lon="2.160537969321013">
        <ele>163.56</ele>
        <time>2025-04-25T15:21:15Z</time>
      </trkpt>
      <trkpt lat="43.944896003231406" lon="2.160706026479602">
        <ele>163.56</ele>
        <time>2025-04-25T15:21:16Z</time>
      </trkpt>
      <trkpt lat="43.944746972993016" lon="2.160879028961062">
        <ele>163.08000000000001</ele>
        <time>2025-04-25T15:21:17Z</time>
      </trkpt>
      <trkpt lat="43.94462401047349" lon="2.161078015342355">
        <ele>163.08000000000001</ele>
        <time>2025-04-25T15:21:18Z</time>
      </trkpt>
      <trkpt lat="43.944505993276834" lon="2.161274990066886">
        <ele>163.08000000000001</ele>
        <time>2025-04-25T15:21:19Z</time>
      </trkpt>
      <trkpt lat="43.943907022476196" lon="2.162780966609716">
        <ele>164.52000000000001</ele>
        <time>2025-04-25T15:21:26Z</time>
      </trkpt>
      <trkpt lat="43.943130020052195" lon="2.165290005505085">
        <ele>167.88999999999999</ele>
        <time>2025-04-25T15:21:37Z</time>
      </trkpt>
      <trkpt lat="43.942371038720012" lon="2.167609026655555">
        <ele>173.16999999999999</ele>
        <time>2025-04-25T15:21:46Z</time>
      </trkpt>
      <trkpt lat="43.941612979397178" lon="2.169008972123265">
        <ele>175.09999999999999</ele>
        <time>2025-04-25T15:21:52Z</time>
      </trkpt>
      <trkpt lat="43.94049902446568" lon="2.169902985915542">
        <ele>177.02000000000001</ele>
        <time>2025-04-25T15:21:58Z</time>
      </trkpt>
      <trkpt lat="43.937608022242785" lon="2.171503007411957">
        <ele>181.83000000000001</ele>
        <time>2025-04-25T15:22:13Z</time>
      </trkpt>
      <trkpt lat="43.935095965862274" lon="2.172730034217238">
        <ele>179.90000000000001</ele>
        <time>2025-04-25T15:22:25Z</time>
      </trkpt>
      <trkpt lat="43.933134013786912" lon="2.173482980579138">
        <ele>175.58000000000001</ele>
        <time>2025-04-25T15:22:34Z</time>
      </trkpt>
      <trkpt lat="43.931125039234757" lon="2.173622036352754">
        <ele>172.69</ele>
        <time>2025-04-25T15:22:43Z</time>
      </trkpt>
      <trkpt lat="43.928447021171451" lon="2.173303021118045">
        <ele>172.21000000000001</ele>
        <time>2025-04-25T15:22:55Z</time>
      </trkpt>
      <trkpt lat="43.926375014707446" lon="2.172204991802573">
        <ele>176.53999999999999</ele>
        <time>2025-04-25T15:23:05Z</time>
      </trkpt>
      <trkpt lat="43.923759022727609" lon="2.170090992003679">
        <ele>181.34999999999999</ele>
        <time>2025-04-25T15:23:19Z</time>
      </trkpt>
      <trkpt lat="43.920887969434261" lon="2.16781597584486">
        <ele>186.63</ele>
        <time>2025-04-25T15:23:35Z</time>
      </trkpt>
      <trkpt lat="43.917904011905193" lon="2.16512999497354">
        <ele>188.08000000000001</ele>
        <time>2025-04-25T15:23:50Z</time>
      </trkpt>
      <trkpt lat="43.91671503894031" lon="2.163309026509523">
        <ele>184.71000000000001</ele>
        <time>2025-04-25T15:23:58Z</time>
      </trkpt>
      <trkpt lat="43.916016994044185" lon="2.161470958963037">
        <ele>183.75</ele>
        <time>2025-04-25T15:24:06Z</time>
      </trkpt>
      <trkpt lat="43.915484994649887" lon="2.158815991133452">
        <ele>183.75</ele>
        <time>2025-04-25T15:24:15Z</time>
      </trkpt>
      <trkpt lat="43.915064977481961" lon="2.156196981668472">
        <ele>183.27000000000001</ele>
        <time>2025-04-25T15:24:24Z</time>
      </trkpt>
      <trkpt lat="43.914476986974478" lon="2.152695022523403">
        <ele>182.31</ele>
        <time>2025-04-25T15:24:35Z</time>
      </trkpt>
      <trkpt lat="43.914025034755468" lon="2.150019016116858">
        <ele>183.75</ele>
        <time>2025-04-25T15:24:44Z</time>
      </trkpt>
      <trkpt lat="43.913244009017944" lon="2.147563034668565">
        <ele>187.11000000000001</ele>
        <time>2025-04-25T15:24:53Z</time>
      </trkpt>
      <trkpt lat="43.912297021597624" lon="2.144861966371536">
        <ele>189.03999999999999</ele>
        <time>2025-04-25T15:25:03Z</time>
      </trkpt>
      <trkpt lat="43.911489006131887" lon="2.141213994473219">
        <ele>189.03999999999999</ele>
        <time>2025-04-25T15:25:16Z</time>
      </trkpt>
      <trkpt lat="43.91138800419867" lon="2.140135997906327">
        <ele>187.11000000000001</ele>
        <time>2025-04-25T15:25:21Z</time>
      </trkpt>
      <trkpt lat="43.911394039168954" lon="2.139960983768106">
        <ele>186.63</ele>
        <time>2025-04-25T15:25:22Z</time>
      </trkpt>
      <trkpt lat="43.911394039168954" lon="2.139959977939725">
        <ele>185.66999999999999</ele>
        <time>2025-04-25T15:25:23Z</time>
      </trkpt>
      <trkpt lat="43.91145103611052" lon="2.139823017641902">
        <ele>185.19</ele>
        <time>2025-04-25T15:25:24Z</time>
      </trkpt>
      <trkpt lat="43.911520019173622" lon="2.139700977131724">
        <ele>184.71000000000001</ele>
        <time>2025-04-25T15:25:25Z</time>
      </trkpt>
      <trkpt lat="43.911739960312843" lon="2.139593018218875">
        <ele>183.75</ele>
        <time>2025-04-25T15:25:26Z</time>
      </trkpt>
      <trkpt lat="43.911854960024357" lon="2.139613972976804">
        <ele>183.27000000000001</ele>
        <time>2025-04-25T15:25:27Z</time>
      </trkpt>
      <trkpt lat="43.911980018019676" lon="2.13968999683857">
        <ele>182.31</ele>
        <time>2025-04-25T15:25:28Z</time>
      </trkpt>
      <trkpt lat="43.91205201856792" lon="2.139817988499999">
        <ele>181.34999999999999</ele>
        <time>2025-04-25T15:25:29Z</time>
      </trkpt>
      <trkpt lat="43.91213902272284" lon="2.139973975718021">
        <ele>180.87</ele>
        <time>2025-04-25T15:25:30Z</time>
      </trkpt>
      <trkpt lat="43.912147991359234" lon="2.140139015391469">
        <ele>179.90000000000001</ele>
        <time>2025-04-25T15:25:31Z</time>
      </trkpt>
      <trkpt lat="43.912156959995627" lon="2.140305982902646">
        <ele>179.41999999999999</ele>
        <time>2025-04-25T15:25:32Z</time>
      </trkpt>
      <trkpt lat="43.912144973874092" lon="2.140476973727346">
        <ele>178.94</ele>
        <time>2025-04-25T15:25:33Z</time>
      </trkpt>
      <trkpt lat="43.912011031061411" lon="2.141002016142011">
        <ele>178.94</ele>
        <time>2025-04-25T15:25:39Z</time>
      </trkpt>
      <trkpt lat="43.911965014412999" lon="2.14113000780344">
        <ele>178.94</ele>
        <time>2025-04-25T15:25:43Z</time>
      </trkpt>
      <trkpt lat="43.911944981664419" lon="2.141183987259865">
        <ele>178.46000000000001</ele>
        <time>2025-04-25T15:25:44Z</time>
      </trkpt>
      <trkpt lat="43.911920003592968" lon="2.141250036656857">
        <ele>178.46000000000001</ele>
        <time>2025-04-25T15:25:45Z</time>
      </trkpt>
      <trkpt lat="43.911767033860087" lon="2.141418009996414">
        <ele>177.97999999999999</ele>
        <time>2025-04-25T15:25:47Z</time>
      </trkpt>
      <trkpt lat="43.911702996119857" lon="2.141406023874879">
        <ele>177.97999999999999</ele>
        <time>2025-04-25T15:25:48Z</time>
      </trkpt>
      <trkpt lat="43.911624038591981" lon="2.141390014439821">
        <ele>178.46000000000001</ele>
        <time>2025-04-25T15:25:49Z</time>
      </trkpt>
      <trkpt lat="43.911530999466777" lon="2.141370987519622">
        <ele>178.94</ele>
        <time>2025-04-25T15:25:50Z</time>
      </trkpt>
      <trkpt lat="43.911426980048418" lon="2.141342991963029">
        <ele>178.94</ele>
        <time>2025-04-25T15:25:51Z</time>
      </trkpt>
      <trkpt lat="43.910587029531598" lon="2.141055995598435">
        <ele>179.41999999999999</ele>
        <time>2025-04-25T15:26:00Z</time>
      </trkpt>
      <trkpt lat="43.910289974883199" lon="2.140953987836838">
        <ele>179.90000000000001</ele>
        <time>2025-04-25T15:26:04Z</time>
      </trkpt>
      <trkpt lat="43.910231972113252" lon="2.14093403890729">
        <ele>180.38</ele>
        <time>2025-04-25T15:26:05Z</time>
      </trkpt>
      <trkpt lat="43.910186961293221" lon="2.140724994242191">
        <ele>180.38</ele>
        <time>2025-04-25T15:26:06Z</time>
      </trkpt>
      <trkpt lat="43.910171035677195" lon="2.14070001617074">
        <ele>180.87</ele>
        <time>2025-04-25T15:26:07Z</time>
      </trkpt>
      <trkpt lat="43.910124013200402" lon="2.140623992308974">
        <ele>180.87</ele>
        <time>2025-04-25T15:26:08Z</time>
      </trkpt>
      <trkpt lat="43.910038014873862" lon="2.140552997589111">
        <ele>181.34999999999999</ele>
        <time>2025-04-25T15:26:09Z</time>
      </trkpt>
      <trkpt lat="43.909965008497238" lon="2.140564983710647">
        <ele>181.34999999999999</ele>
        <time>2025-04-25T15:26:10Z</time>
      </trkpt>
      <trkpt lat="43.909894013777375" lon="2.14059297926724">
        <ele>181.83000000000001</ele>
        <time>2025-04-25T15:26:11Z</time>
      </trkpt>
      <trkpt lat="43.909894013777375" lon="2.14059297926724">
        <ele>181.83000000000001</ele>
        <time>2025-04-25T15:26:12Z</time>
      </trkpt>
      <trkpt lat="43.909885967150331" lon="2.140595996752381">
        <ele>181.83000000000001</ele>
        <time>2025-04-25T15:26:13Z</time>
      </trkpt>
      <trkpt lat="43.909671977162361" lon="2.140810992568731">
        <ele>181.83000000000001</ele>
        <time>2025-04-25T15:26:14Z</time>
      </trkpt>
      <trkpt lat="43.909587990492582" lon="2.140814010053873">
        <ele>181.83000000000001</ele>
        <time>2025-04-25T15:26:15Z</time>
      </trkpt>
      <trkpt lat="43.909587990492582" lon="2.140814010053873">
        <ele>182.31</ele>
        <time>2025-04-25T15:26:16Z</time>
      </trkpt>
      <trkpt lat="43.909496963024139" lon="2.140820967033505">
        <ele>182.31</ele>
        <time>2025-04-25T15:26:17Z</time>
      </trkpt>
      <trkpt lat="43.908315030857921" lon="2.140883998945355">
        <ele>183.75</ele>
        <time>2025-04-25T15:26:27Z</time>
      </trkpt>
      <trkpt lat="43.907252037897706" lon="2.141055995598435">
        <ele>188.08000000000001</ele>
        <time>2025-04-25T15:26:37Z</time>
      </trkpt>
      <trkpt lat="43.906352994963527" lon="2.141308039426804">
        <ele>190</ele>
        <time>2025-04-25T15:26:46Z</time>
      </trkpt>
      <trkpt lat="43.905895007774234" lon="2.141476012766361">
        <ele>191.91999999999999</ele>
        <time>2025-04-25T15:26:52Z</time>
      </trkpt>
      <trkpt lat="43.905817978084087" lon="2.141513982787728">
        <ele>191.91999999999999</ele>
        <time>2025-04-25T15:26:53Z</time>
      </trkpt>
      <trkpt lat="43.905681017786264" lon="2.141433013603091">
        <ele>191.91999999999999</ele>
        <time>2025-04-25T15:26:54Z</time>
      </trkpt>
      <trkpt lat="43.905595019459724" lon="2.14149696752429">
        <ele>191.91999999999999</ele>
        <time>2025-04-25T15:26:55Z</time>
      </trkpt>
      <trkpt lat="43.905509021133184" lon="2.141647003591061">
        <ele>191.91999999999999</ele>
        <time>2025-04-25T15:26:56Z</time>
      </trkpt>
      <trkpt lat="43.905413970351219" lon="2.141696959733963">
        <ele>191.91999999999999</ele>
        <time>2025-04-25T15:26:57Z</time>
      </trkpt>
      <trkpt lat="43.90449296683073" lon="2.14235401712358">
        <ele>191.44</ele>
        <time>2025-04-25T15:27:06Z</time>
      </trkpt>
      <trkpt lat="43.903392003849149" lon="2.143443999812007">
        <ele>192.40000000000001</ele>
        <time>2025-04-25T15:27:15Z</time>
      </trkpt>
      <trkpt lat="43.902122983708978" lon="2.145035974681377">
        <ele>194.80000000000001</ele>
        <time>2025-04-25T15:27:26Z</time>
      </trkpt>
      <trkpt lat="43.900939039885998" lon="2.146560978144407">
        <ele>195.77000000000001</ele>
        <time>2025-04-25T15:27:36Z</time>
      </trkpt>
      <trkpt lat="43.899856014177203" lon="2.147924965247512">
        <ele>195.77000000000001</ele>
        <time>2025-04-25T15:27:45Z</time>
      </trkpt>
      <trkpt lat="43.898872984573245" lon="2.149087032303214">
        <ele>194.31999999999999</ele>
        <time>2025-04-25T15:27:54Z</time>
      </trkpt>
      <trkpt lat="43.898773994296789" lon="2.149160960689187">
        <ele>194.31999999999999</ele>
        <time>2025-04-25T15:27:55Z</time>
      </trkpt>
      <trkpt lat="43.898553969338536" lon="2.149246037006378">
        <ele>194.31999999999999</ele>
        <time>2025-04-25T15:27:57Z</time>
      </trkpt>
      <trkpt lat="43.898473000153899" lon="2.149327006191015">
        <ele>194.31999999999999</ele>
        <time>2025-04-25T15:27:58Z</time>
      </trkpt>
      <trkpt lat="43.898470988497138" lon="2.149519035592675">
        <ele>194.80000000000001</ele>
        <time>2025-04-25T15:27:59Z</time>
      </trkpt>
      <trkpt lat="43.898440981283784" lon="2.149686003103852">
        <ele>194.31999999999999</ele>
        <time>2025-04-25T15:28:00Z</time>
      </trkpt>
      <trkpt lat="43.89836504124105" lon="2.149778036400676">
        <ele>194.31999999999999</ele>
        <time>2025-04-25T15:28:01Z</time>
      </trkpt>
      <trkpt lat="43.898285999894142" lon="2.149871997535229">
        <ele>193.84</ele>
        <time>2025-04-25T15:28:02Z</time>
      </trkpt>
      <trkpt lat="43.898206958547235" lon="2.149965036660433">
        <ele>193.84</ele>
        <time>2025-04-25T15:28:03Z</time>
      </trkpt>
      <trkpt lat="43.897171039134264" lon="2.151116961613298">
        <ele>192.88</ele>
        <time>2025-04-25T15:28:15Z</time>
      </trkpt>
      <trkpt lat="43.895538998767734" lon="2.152755036950111">
        <ele>192.40000000000001</ele>
        <time>2025-04-25T15:28:28Z</time>
      </trkpt>
      <trkpt lat="43.8937499653548" lon="2.154542980715632">
        <ele>192.40000000000001</ele>
        <time>2025-04-25T15:28:42Z</time>
      </trkpt>
      <trkpt lat="43.892021030187607" lon="2.156552039086819">
        <ele>194.31999999999999</ele>
        <time>2025-04-25T15:28:55Z</time>
      </trkpt>
      <trkpt lat="43.89114998281002" lon="2.158244010061026">
        <ele>195.28</ele>
        <time>2025-04-25T15:29:04Z</time>
      </trkpt>
      <trkpt lat="43.890533996745944" lon="2.160053998231888">
        <ele>196.72999999999999</ele>
        <time>2025-04-25T15:29:13Z</time>
      </trkpt>
      <trkpt lat="43.889804016798735" lon="2.162349969148636">
        <ele>200.56999999999999</ele>
        <time>2025-04-25T15:29:27Z</time>
      </trkpt>
      <trkpt lat="43.88964400626719" lon="2.162845004349947">
        <ele>201.53</ele>
        <time>2025-04-25T15:29:32Z</time>
      </trkpt>
      <trkpt lat="43.889625985175371" lon="2.162903007119894">
        <ele>201.53</ele>
        <time>2025-04-25T15:29:33Z</time>
      </trkpt>
      <trkpt lat="43.889502016827464" lon="2.162954974919558">
        <ele>201.53</ele>
        <time>2025-04-25T15:29:34Z</time>
      </trkpt>
      <trkpt lat="43.889491036534309" lon="2.162965033203363">
        <ele>201.53</ele>
        <time>2025-04-25T15:29:35Z</time>
      </trkpt>
      <trkpt lat="43.889439990743995" lon="2.163017001003027">
        <ele>201.53</ele>
        <time>2025-04-25T15:29:36Z</time>
      </trkpt>
      <trkpt lat="43.889390034601092" lon="2.163066035136581">
        <ele>202.00999999999999</ele>
        <time>2025-04-25T15:29:37Z</time>
      </trkpt>
      <trkpt lat="43.889364972710609" lon="2.163164019584656">
        <ele>201.53</ele>
        <time>2025-04-25T15:29:38Z</time>
      </trkpt>
      <trkpt lat="43.889354998245835" lon="2.163258986547589">
        <ele>202.00999999999999</ele>
        <time>2025-04-25T15:29:39Z</time>
      </trkpt>
      <trkpt lat="43.889350974932313" lon="2.163297962397337">
        <ele>202.00999999999999</ele>
        <time>2025-04-25T15:29:40Z</time>
      </trkpt>
      <trkpt lat="43.889423981308937" lon="2.163413967937231">
        <ele>202.49000000000001</ele>
        <time>2025-04-25T15:29:41Z</time>
      </trkpt>
      <trkpt lat="43.889402020722628" lon="2.163595017045736">
        <ele>202.49000000000001</ele>
        <time>2025-04-25T15:29:42Z</time>
      </trkpt>
      <trkpt lat="43.889359021559358" lon="2.163691995665431">
        <ele>202.97999999999999</ele>
        <time>2025-04-25T15:29:43Z</time>
      </trkpt>
      <trkpt lat="43.889308981597424" lon="2.163802972063422">
        <ele>203.46000000000001</ele>
        <time>2025-04-25T15:29:44Z</time>
      </trkpt>
      <trkpt lat="43.888682015240192" lon="2.165026981383562">
        <ele>204.41999999999999</ele>
        <time>2025-04-25T15:29:53Z</time>
      </trkpt>
      <trkpt lat="43.887868970632553" lon="2.16594697907567">
        <ele>205.86000000000001</ele>
        <time>2025-04-25T15:30:01Z</time>
      </trkpt>
      <trkpt lat="43.887153994292021" lon="2.166456012055278">
        <ele>205.38</ele>
        <time>2025-04-25T15:30:05Z</time>
      </trkpt>
      <trkpt lat="43.885340988636017" lon="2.167355976998806">
        <ele>202.49000000000001</ele>
        <time>2025-04-25T15:30:16Z</time>
      </trkpt>
      <trkpt lat="43.883871976286173" lon="2.168388040736318">
        <ele>204.90000000000001</ele>
        <time>2025-04-25T15:30:25Z</time>
      </trkpt>
      <trkpt lat="43.882242031395435" lon="2.170321997255087">
        <ele>208.25999999999999</ele>
        <time>2025-04-25T15:30:36Z</time>
      </trkpt>
      <trkpt lat="43.879919992759824" lon="2.173413997516036">
        <ele>215.94999999999999</ele>
        <time>2025-04-25T15:30:51Z</time>
      </trkpt>
      <trkpt lat="43.877659980207682" lon="2.176585961133242">
        <ele>225.56999999999999</ele>
        <time>2025-04-25T15:31:06Z</time>
      </trkpt>
      <trkpt lat="43.877477003261447" lon="2.176743960008025">
        <ele>226.53</ele>
        <time>2025-04-25T15:31:08Z</time>
      </trkpt>
      <trkpt lat="43.87527097016573" lon="2.178080035373569">
        <ele>231.33000000000001</ele>
        <time>2025-04-25T15:31:18Z</time>
      </trkpt>
      <trkpt lat="43.873666003346443" lon="2.179453996941447">
        <ele>236.13999999999999</ele>
        <time>2025-04-25T15:31:27Z</time>
      </trkpt>
      <trkpt lat="43.87174503877759" lon="2.181488033384085">
        <ele>241.43000000000001</ele>
        <time>2025-04-25T15:31:38Z</time>
      </trkpt>
      <trkpt lat="43.869817033410072" lon="2.183862961828709">
        <ele>251.03999999999999</ele>
        <time>2025-04-25T15:31:50Z</time>
      </trkpt>
      <trkpt lat="43.86822497472167" lon="2.185313031077385">
        <ele>258.25</ele>
        <time>2025-04-25T15:31:59Z</time>
      </trkpt>
      <trkpt lat="43.866392020136118" lon="2.18639899045229">
        <ele>265.94</ele>
        <time>2025-04-25T15:32:09Z</time>
      </trkpt>
      <trkpt lat="43.864439958706498" lon="2.187317982316017">
        <ele>268.82999999999998</ele>
        <time>2025-04-25T15:32:21Z</time>
      </trkpt>
      <trkpt lat="43.861751966178417" lon="2.188665037974715">
        <ele>262.10000000000002</ele>
        <time>2025-04-25T15:32:37Z</time>
      </trkpt>
      <trkpt lat="43.858958026394248" lon="2.189890975132585">
        <ele>255.37</ele>
        <time>2025-04-25T15:32:53Z</time>
      </trkpt>
      <trkpt lat="43.858764991164207" lon="2.189925005659461">
        <ele>254.88999999999999</ele>
        <time>2025-04-25T15:32:54Z</time>
      </trkpt>
      <trkpt lat="43.858566004782915" lon="2.189913019537926">
        <ele>254.41</ele>
        <time>2025-04-25T15:32:55Z</time>
      </trkpt>
      <trkpt lat="43.858180018141866" lon="2.189877983182669">
        <ele>253.44</ele>
        <time>2025-04-25T15:32:57Z</time>
      </trkpt>
      <trkpt lat="43.858000980690122" lon="2.189800031483173">
        <ele>252.96000000000001</ele>
        <time>2025-04-25T15:32:58Z</time>
      </trkpt>
      <trkpt lat="43.857821021229029" lon="2.189721995964646">
        <ele>252.47999999999999</ele>
        <time>2025-04-25T15:32:59Z</time>
      </trkpt>
      <trkpt lat="43.857129011303186" lon="2.189302984625101">
        <ele>250.08000000000001</ele>
        <time>2025-04-25T15:33:03Z</time>
      </trkpt>
      <trkpt lat="43.857128005474806" lon="2.189302984625101">
        <ele>250.08000000000001</ele>
        <time>2025-04-25T15:33:04Z</time>
      </trkpt>
      <trkpt lat="43.856822988018394" lon="2.188997967168689">
        <ele>249.59999999999999</ele>
        <time>2025-04-25T15:33:05Z</time>
      </trkpt>
      <trkpt lat="43.856688961386681" lon="2.188809961080551">
        <ele>248.63999999999999</ele>
        <time>2025-04-25T15:33:06Z</time>
      </trkpt>
      <trkpt lat="43.856553006917238" lon="2.188618015497923">
        <ele>248.16</ele>
        <time>2025-04-25T15:33:07Z</time>
      </trkpt>
      <trkpt lat="43.856415040791035" lon="2.188424980267882">
        <ele>247.68000000000001</ele>
        <time>2025-04-25T15:33:08Z</time>
      </trkpt>
      <trkpt lat="43.855123976245522" lon="2.186814984306693">
        <ele>244.78999999999999</ele>
        <time>2025-04-25T15:33:16Z</time>
      </trkpt>
      <trkpt lat="43.853540970012546" lon="2.185704968869686">
        <ele>241.91</ele>
        <time>2025-04-25T15:33:24Z</time>
      </trkpt>
      <trkpt lat="43.851397968828678" lon="2.184920003637672">
        <ele>240.94999999999999</ele>
        <time>2025-04-25T15:33:34Z</time>
      </trkpt>
      <trkpt lat="43.849236024543643" lon="2.184663014486432">
        <ele>239.02000000000001</ele>
        <time>2025-04-25T15:33:44Z</time>
      </trkpt>
      <trkpt lat="43.846333036199212" lon="2.184566035866737">
        <ele>236.62</ele>
        <time>2025-04-25T15:33:58Z</time>
      </trkpt>
      <trkpt lat="43.844226999208331" lon="2.184653040021658">
        <ele>231.81</ele>
        <time>2025-04-25T15:34:08Z</time>
      </trkpt>
      <trkpt lat="43.842455986887217" lon="2.185340020805597">
        <ele>227.97</ele>
        <time>2025-04-25T15:34:16Z</time>
      </trkpt>
      <trkpt lat="43.840858982875943" lon="2.186351967975497">
        <ele>227.49000000000001</ele>
        <time>2025-04-25T15:34:24Z</time>
      </trkpt>
      <trkpt lat="43.838846990838647" lon="2.187394006177783">
        <ele>226.05000000000001</ele>
        <time>2025-04-25T15:34:34Z</time>
      </trkpt>
      <trkpt lat="43.837600015103817" lon="2.187946038320661">
        <ele>223.63999999999999</ele>
        <time>2025-04-25T15:34:40Z</time>
      </trkpt>
      <trkpt lat="43.835987001657486" lon="2.189307007938623">
        <ele>220.28</ele>
        <time>2025-04-25T15:34:49Z</time>
      </trkpt>
      <trkpt lat="43.835789021104574" lon="2.189412033185363">
        <ele>219.80000000000001</ele>
        <time>2025-04-25T15:34:50Z</time>
      </trkpt>
      <trkpt lat="43.833533031865954" lon="2.190261036157608">
        <ele>213.06999999999999</ele>
        <time>2025-04-25T15:35:01Z</time>
      </trkpt>
      <trkpt lat="43.831821028143167" lon="2.190994033589959">
        <ele>210.66999999999999</ele>
        <time>2025-04-25T15:35:10Z</time>
      </trkpt>
      <trkpt lat="43.830310022458434" lon="2.191322017461062">
        <ele>211.15000000000001</ele>
        <time>2025-04-25T15:35:18Z</time>
      </trkpt>
      <trkpt lat="43.828960033133626" lon="2.191001996397972">
        <ele>214.99000000000001</ele>
        <time>2025-04-25T15:35:26Z</time>
      </trkpt>
      <trkpt lat="43.827739041298628" lon="2.190026007592678">
        <ele>220.28</ele>
        <time>2025-04-25T15:35:34Z</time>
      </trkpt>
      <trkpt lat="43.826358038932085" lon="2.188620027154684">
        <ele>222.68000000000001</ele>
        <time>2025-04-25T15:35:43Z</time>
      </trkpt>
      <trkpt lat="43.824619967490435" lon="2.18674398958683">
        <ele>220.75999999999999</ele>
        <time>2025-04-25T15:35:53Z</time>
      </trkpt>
      <trkpt lat="43.823242988437414" lon="2.185249999165535">
        <ele>220.28</ele>
        <time>2025-04-25T15:36:01Z</time>
      </trkpt>
      <trkpt lat="43.821541965007782" lon="2.183420984074473">
        <ele>219.80000000000001</ele>
        <time>2025-04-25T15:36:11Z</time>
      </trkpt>
      <trkpt lat="43.819355964660645" lon="2.181051000952721">
        <ele>227.97</ele>
        <time>2025-04-25T15:36:25Z</time>
      </trkpt>
      <trkpt lat="43.817802965641022" lon="2.179531026631594">
        <ele>234.22</ele>
        <time>2025-04-25T15:36:36Z</time>
      </trkpt>
      <trkpt lat="43.81659597158432" lon="2.179107991978526">
        <ele>237.58000000000001</ele>
        <time>2025-04-25T15:36:42Z</time>
      </trkpt>
      <trkpt lat="43.81517699919641" lon="2.179341008886695">
        <ele>239.02000000000001</ele>
        <time>2025-04-25T15:36:49Z</time>
      </trkpt>
      <trkpt lat="43.813341027125716" lon="2.180355973541737">
        <ele>239.99000000000001</ele>
        <time>2025-04-25T15:36:58Z</time>
      </trkpt>
      <trkpt lat="43.810634007677436" lon="2.181915007531643">
        <ele>249.12</ele>
        <time>2025-04-25T15:37:10Z</time>
      </trkpt>
      <trkpt lat="43.808478014543653" lon="2.182802986353636">
        <ele>257.29000000000002</ele>
        <time>2025-04-25T15:37:19Z</time>
      </trkpt>
      <trkpt lat="43.806076012551785" lon="2.182868029922247">
        <ele>265.94</ele>
        <time>2025-04-25T15:37:29Z</time>
      </trkpt>
      <trkpt lat="43.803597986698151" lon="2.182914968580008">
        <ele>269.31</ele>
        <time>2025-04-25T15:37:40Z</time>
      </trkpt>
      <trkpt lat="43.802707996219397" lon="2.183073973283172">
        <ele>269.31</ele>
        <time>2025-04-25T15:37:44Z</time>
      </trkpt>
      <trkpt lat="43.802490988746285" lon="2.183146979659796">
        <ele>269.79000000000002</ele>
        <time>2025-04-25T15:37:45Z</time>
      </trkpt>
      <trkpt lat="43.802294014021754" lon="2.183285029605031">
        <ele>269.31</ele>
        <time>2025-04-25T15:37:46Z</time>
      </trkpt>
      <trkpt lat="43.802101984620094" lon="2.183431964367628">
        <ele>269.79000000000002</ele>
        <time>2025-04-25T15:37:47Z</time>
      </trkpt>
      <trkpt lat="43.801930993795395" lon="2.183636985719204">
        <ele>269.79000000000002</ele>
        <time>2025-04-25T15:37:48Z</time>
      </trkpt>
      <trkpt lat="43.801755979657173" lon="2.183847036212683">
        <ele>269.79000000000002</ele>
        <time>2025-04-25T15:37:49Z</time>
      </trkpt>
      <trkpt lat="43.801580965518951" lon="2.184062032029033">
        <ele>269.31</ele>
        <time>2025-04-25T15:37:50Z</time>
      </trkpt>
      <trkpt lat="43.801435036584735" lon="2.184322038665414">
        <ele>269.31</ele>
        <time>2025-04-25T15:37:51Z</time>
      </trkpt>
      <trkpt lat="43.801290029659867" lon="2.184579027816653">
        <ele>269.31</ele>
        <time>2025-04-25T15:37:52Z</time>
      </trkpt>
      <trkpt lat="43.8005440402776" lon="2.185828015208244">
        <ele>267.86000000000001</ele>
        <time>2025-04-25T15:37:57Z</time>
      </trkpt>
      <trkpt lat="43.800358967855573" lon="2.186021972447634">
        <ele>267.38</ele>
        <time>2025-04-25T15:37:58Z</time>
      </trkpt>
      <trkpt lat="43.800168028101325" lon="2.186192963272333">
        <ele>266.42000000000002</ele>
        <time>2025-04-25T15:37:59Z</time>
      </trkpt>
      <trkpt lat="43.799954960122705" lon="2.186321960762143">
        <ele>265.94</ele>
        <time>2025-04-25T15:38:00Z</time>
      </trkpt>
      <trkpt lat="43.799745999276638" lon="2.186450036242604">
        <ele>264.98000000000002</ele>
        <time>2025-04-25T15:38:01Z</time>
      </trkpt>
      <trkpt lat="43.799518011510372" lon="2.186507033184171">
        <ele>264.5</ele>
        <time>2025-04-25T15:38:02Z</time>
      </trkpt>
      <trkpt lat="43.799288012087345" lon="2.186557995155454">
        <ele>263.54000000000002</ele>
        <time>2025-04-25T15:38:03Z</time>
      </trkpt>
      <trkpt lat="43.799058012664318" lon="2.186557995155454">
        <ele>262.10000000000002</ele>
        <time>2025-04-25T15:38:04Z</time>
      </trkpt>
      <trkpt lat="43.798824995756149" lon="2.186557995155454">
        <ele>261.13999999999999</ele>
        <time>2025-04-25T15:38:05Z</time>
      </trkpt>
      <trkpt lat="43.796919034793973" lon="2.18676402233541">
        <ele>252</ele>
        <time>2025-04-25T15:38:13Z</time>
      </trkpt>
      <trkpt lat="43.794122999534011" lon="2.187936985865235">
        <ele>240.47</ele>
        <time>2025-04-25T15:38:25Z</time>
      </trkpt>
      <trkpt lat="43.793222028762102" lon="2.188250971958041">
        <ele>236.62</ele>
        <time>2025-04-25T15:38:29Z</time>
      </trkpt>
      <trkpt lat="43.792985994368792" lon="2.188275028020144">
        <ele>235.66</ele>
        <time>2025-04-25T15:38:30Z</time>
      </trkpt>
      <trkpt lat="43.790875012055039" lon="2.188189029693604">
        <ele>226.05000000000001</ele>
        <time>2025-04-25T15:38:39Z</time>
      </trkpt>
      <trkpt lat="43.789106011390686" lon="2.188387010246515">
        <ele>219.80000000000001</ele>
        <time>2025-04-25T15:38:47Z</time>
      </trkpt>
      <trkpt lat="43.787604980170727" lon="2.188743995502591">
        <ele>216.91</ele>
        <time>2025-04-25T15:38:54Z</time>
      </trkpt>
      <trkpt lat="43.787388978525996" lon="2.188728991895914">
        <ele>216.91</ele>
        <time>2025-04-25T15:38:55Z</time>
      </trkpt>
      <trkpt lat="43.787173982709646" lon="2.188660008832812">
        <ele>216.43000000000001</ele>
        <time>2025-04-25T15:38:56Z</time>
      </trkpt>
      <trkpt lat="43.785285037010908" lon="2.187835983932018">
        <ele>215.94999999999999</ele>
        <time>2025-04-25T15:39:06Z</time>
      </trkpt>
      <trkpt lat="43.783656014129519" lon="2.187085971236229">
        <ele>213.55000000000001</ele>
        <time>2025-04-25T15:39:14Z</time>
      </trkpt>
      <trkpt lat="43.78286199644208" lon="2.18676402233541">
        <ele>211.63</ele>
        <time>2025-04-25T15:39:20Z</time>
      </trkpt>
      <trkpt lat="43.781682997941971" lon="2.186611974611878">
        <ele>209.69999999999999</ele>
        <time>2025-04-25T15:39:30Z</time>
      </trkpt>
      <trkpt lat="43.780625034123659" lon="2.186966026201844">
        <ele>207.78</ele>
        <time>2025-04-25T15:39:39Z</time>
      </trkpt>
      <trkpt lat="43.779913997277617" lon="2.187385959550738">
        <ele>207.78</ele>
        <time>2025-04-25T15:39:47Z</time>
      </trkpt>
      <trkpt lat="43.779246965423226" lon="2.187686031684279">
        <ele>208.25999999999999</ele>
        <time>2025-04-25T15:39:57Z</time>
      </trkpt>
      <trkpt lat="43.779176976531744" lon="2.187716038897634">
        <ele>208.25999999999999</ele>
        <time>2025-04-25T15:39:58Z</time>
      </trkpt>
      <trkpt lat="43.778186989948153" lon="2.187997000291944">
        <ele>206.81999999999999</ele>
        <time>2025-04-25T15:40:11Z</time>
      </trkpt>
      <trkpt lat="43.778033014386892" lon="2.188037987798452">
        <ele>206.34</ele>
        <time>2025-04-25T15:40:13Z</time>
      </trkpt>
      <trkpt lat="43.777823969721794" lon="2.188092973083258">
        <ele>205.86000000000001</ele>
        <time>2025-04-25T15:40:17Z</time>
      </trkpt>
      <trkpt lat="43.777711987495422" lon="2.188122980296612">
        <ele>205.86000000000001</ele>
        <time>2025-04-25T15:40:18Z</time>
      </trkpt>
      <trkpt lat="43.777534961700439" lon="2.188170002773404">
        <ele>206.34</ele>
        <time>2025-04-25T15:40:25Z</time>
      </trkpt>
      <trkpt lat="43.777471007779241" lon="2.188188023865223">
        <ele>206.81999999999999</ele>
        <time>2025-04-25T15:40:33Z</time>
      </trkpt>
      <trkpt lat="43.77734100446105" lon="2.188202021643519">
        <ele>207.30000000000001</ele>
        <time>2025-04-25T15:40:37Z</time>
      </trkpt>
      <trkpt lat="43.777296999469399" lon="2.188192969188094">
        <ele>207.30000000000001</ele>
        <time>2025-04-25T15:40:38Z</time>
      </trkpt>
      <trkpt lat="43.7772779725492" lon="2.188189029693604">
        <ele>207.78</ele>
        <time>2025-04-25T15:40:39Z</time>
      </trkpt>
      <trkpt lat="43.7772779725492" lon="2.188189029693604">
        <ele>208.25999999999999</ele>
        <time>2025-04-25T15:40:40Z</time>
      </trkpt>
      <trkpt lat="43.777141012251377" lon="2.188141001388431">
        <ele>208.25999999999999</ele>
        <time>2025-04-25T15:40:41Z</time>
      </trkpt>
      <trkpt lat="43.777102958410978" lon="2.188181988894939">
        <ele>208.25999999999999</ele>
        <time>2025-04-25T15:40:42Z</time>
      </trkpt>
      <trkpt lat="43.777102958410978" lon="2.188181988894939">
        <ele>208.25999999999999</ele>
        <time>2025-04-25T15:40:43Z</time>
      </trkpt>
      <trkpt lat="43.77706297673285" lon="2.18822599388659">
        <ele>208.25999999999999</ele>
        <time>2025-04-25T15:40:44Z</time>
      </trkpt>
      <trkpt lat="43.776956023648381" lon="2.188232028856874">
        <ele>208.25999999999999</ele>
        <time>2025-04-25T15:40:45Z</time>
      </trkpt>
      <trkpt lat="43.776940014213324" lon="2.188215013593435">
        <ele>208.74000000000001</ele>
        <time>2025-04-25T15:40:46Z</time>
      </trkpt>
      <trkpt lat="43.77689098007977" lon="2.188166985288262">
        <ele>208.74000000000001</ele>
        <time>2025-04-25T15:40:47Z</time>
      </trkpt>
      <trkpt lat="43.776600966230035" lon="2.187876971438527">
        <ele>209.22</ele>
        <time>2025-04-25T15:40:52Z</time>
      </trkpt>
      <trkpt lat="43.776536006480455" lon="2.187812011688948">
        <ele>209.22</ele>
        <time>2025-04-25T15:40:53Z</time>
      </trkpt>
      <trkpt lat="43.776467023417354" lon="2.187748979777098">
        <ele>209.22</ele>
        <time>2025-04-25T15:40:54Z</time>
      </trkpt>
      <trkpt lat="43.77639502286911" lon="2.18768896535039">
        <ele>209.22</ele>
        <time>2025-04-25T15:40:55Z</time>
      </trkpt>
      <trkpt lat="43.776324028149247" lon="2.187630040571094">
        <ele>209.22</ele>
        <time>2025-04-25T15:40:56Z</time>
      </trkpt>
      <trkpt lat="43.776174997910857" lon="2.187526021152735">
        <ele>208.74000000000001</ele>
        <time>2025-04-25T15:40:58Z</time>
      </trkpt>
      <trkpt lat="43.776102997362614" lon="2.187486039474607">
        <ele>208.74000000000001</ele>
        <time>2025-04-25T15:40:59Z</time>
      </trkpt>
      <trkpt lat="43.776024961844087" lon="2.187461983412504">
        <ele>208.25999999999999</ele>
        <time>2025-04-25T15:41:00Z</time>
      </trkpt>
      <trkpt lat="43.775957990437746" lon="2.187467012554407">
        <ele>208.25999999999999</ele>
        <time>2025-04-25T15:41:01Z</time>
      </trkpt>
      <trkpt lat="43.775891019031405" lon="2.187472963705659">
        <ele>208.25999999999999</ele>
        <time>2025-04-25T15:41:02Z</time>
      </trkpt>
      <trkpt lat="43.775827987119555" lon="2.187477992847562">
        <ele>208.25999999999999</ele>
        <time>2025-04-25T15:41:03Z</time>
      </trkpt>
      <trkpt lat="43.775755986571312" lon="2.18751696869731">
        <ele>207.78</ele>
        <time>2025-04-25T15:41:04Z</time>
      </trkpt>
      <trkpt lat="43.775701001286507" lon="2.187566002830863">
        <ele>207.78</ele>
        <time>2025-04-25T15:41:05Z</time>
      </trkpt>
      <trkpt lat="43.775460021570325" lon="2.18779600225389">
        <ele>207.78</ele>
        <time>2025-04-25T15:41:09Z</time>
      </trkpt>
      <trkpt lat="43.775369999930263" lon="2.187843024730682">
        <ele>208.25999999999999</ele>
        <time>2025-04-25T15:41:10Z</time>
      </trkpt>
      <trkpt lat="43.775292970240116" lon="2.187836989760399">
        <ele>209.22</ele>
        <time>2025-04-25T15:41:11Z</time>
      </trkpt>
      <trkpt lat="43.775292970240116" lon="2.187836989760399">
        <ele>209.69999999999999</ele>
        <time>2025-04-25T15:41:12Z</time>
      </trkpt>
      <trkpt lat="43.775120973587036" lon="2.187808994203806">
        <ele>210.19</ele>
        <time>2025-04-25T15:41:13Z</time>
      </trkpt>
      <trkpt lat="43.775120973587036" lon="2.187808994203806">
        <ele>210.66999999999999</ele>
        <time>2025-04-25T15:41:14Z</time>
      </trkpt>
      <trkpt lat="43.77506498247385" lon="2.187727019190788">
        <ele>210.66999999999999</ele>
        <time>2025-04-25T15:41:15Z</time>
      </trkpt>
      <trkpt lat="43.774943025782704" lon="2.187550999224186">
        <ele>211.15000000000001</ele>
        <time>2025-04-25T15:41:16Z</time>
      </trkpt>
      <trkpt lat="43.774605989456177" lon="2.18704498372972">
        <ele>211.63</ele>
        <time>2025-04-25T15:41:22Z</time>
      </trkpt>
      <trkpt lat="43.774551004171371" lon="2.186946999281645">
        <ele>211.63</ele>
        <time>2025-04-25T15:41:23Z</time>
      </trkpt>
      <trkpt lat="43.774496018886566" lon="2.18684901483357">
        <ele>211.63</ele>
        <time>2025-04-25T15:41:24Z</time>
      </trkpt>
      <trkpt lat="43.77444002777338" lon="2.186749018728733">
        <ele>211.63</ele>
        <time>2025-04-25T15:41:25Z</time>
      </trkpt>
      <trkpt lat="43.774384036660194" lon="2.186650028452277">
        <ele>211.15000000000001</ele>
        <time>2025-04-25T15:41:26Z</time>
      </trkpt>
      <trkpt lat="43.774327039718628" lon="2.186563024297357">
        <ele>211.15000000000001</ele>
        <time>2025-04-25T15:41:27Z</time>
      </trkpt>
      <trkpt lat="43.77426702529192" lon="2.186471996828914">
        <ele>210.66999999999999</ele>
        <time>2025-04-25T15:41:28Z</time>
      </trkpt>
      <trkpt lat="43.77396997064352" lon="2.186019038781524">
        <ele>207.78</ele>
        <time>2025-04-25T15:41:33Z</time>
      </trkpt>
      <trkpt lat="43.773910962045193" lon="2.185921976342797">
        <ele>207.78</ele>
        <time>2025-04-25T15:41:34Z</time>
      </trkpt>
      <trkpt lat="43.773847008123994" lon="2.1858199685812">
        <ele>207.78</ele>
        <time>2025-04-25T15:41:35Z</time>
      </trkpt>
      <trkpt lat="43.773497985675931" lon="2.185265002772212">
        <ele>206.81999999999999</ele>
        <time>2025-04-25T15:41:41Z</time>
      </trkpt>
      <trkpt lat="43.773254994302988" lon="2.184872981160879">
        <ele>206.34</ele>
        <time>2025-04-25T15:41:45Z</time>
      </trkpt>
      <trkpt lat="43.77270296216011" lon="2.183982990682125">
        <ele>203.46000000000001</ele>
        <time>2025-04-25T15:41:54Z</time>
      </trkpt>
      <trkpt lat="43.772643031552434" lon="2.18388500623405">
        <ele>203.94</ele>
        <time>2025-04-25T15:41:55Z</time>
      </trkpt>
      <trkpt lat="43.772330973297358" lon="2.183386031538248">
        <ele>203.94</ele>
        <time>2025-04-25T15:42:00Z</time>
      </trkpt>
      <trkpt lat="43.772267019376159" lon="2.183286035433412">
        <ele>204.41999999999999</ele>
        <time>2025-04-25T15:42:01Z</time>
      </trkpt>
      <trkpt lat="43.771541984751821" lon="2.182160010561347">
        <ele>209.69999999999999</ele>
        <time>2025-04-25T15:42:12Z</time>
      </trkpt>
      <trkpt lat="43.771178964525461" lon="2.181567996740341">
        <ele>211.15000000000001</ele>
        <time>2025-04-25T15:42:18Z</time>
      </trkpt>
      <trkpt lat="43.771151974797249" lon="2.181490967050195">
        <ele>211.15000000000001</ele>
        <time>2025-04-25T15:42:19Z</time>
      </trkpt>
      <trkpt lat="43.771132025867701" lon="2.181435981765389">
        <ele>211.15000000000001</ele>
        <time>2025-04-25T15:42:20Z</time>
      </trkpt>
      <trkpt lat="43.771047033369541" lon="2.18117798678577">
        <ele>211.63</ele>
        <time>2025-04-25T15:42:28Z</time>
      </trkpt>
      <trkpt lat="43.771120039746165" lon="2.181000960990787">
        <ele>211.63</ele>
        <time>2025-04-25T15:42:29Z</time>
      </trkpt>
      <trkpt lat="43.771122973412275" lon="2.180960979312658">
        <ele>212.11000000000001</ele>
        <time>2025-04-25T15:42:30Z</time>
      </trkpt>
      <trkpt lat="43.771133031696081" lon="2.180856037884951">
        <ele>212.11000000000001</ele>
        <time>2025-04-25T15:42:31Z</time>
      </trkpt>
      <trkpt lat="43.771139988675714" lon="2.180760987102985">
        <ele>212.11000000000001</ele>
        <time>2025-04-25T15:42:32Z</time>
      </trkpt>
      <trkpt lat="43.771103024482727" lon="2.180664008483291">
        <ele>212.59</ele>
        <time>2025-04-25T15:42:33Z</time>
      </trkpt>
      <trkpt lat="43.771066982299089" lon="2.180588990449905">
        <ele>212.59</ele>
        <time>2025-04-25T15:42:34Z</time>
      </trkpt>
      <trkpt lat="43.770988024771214" lon="2.180554959923029">
        <ele>212.59</ele>
        <time>2025-04-25T15:42:35Z</time>
      </trkpt>
      <trkpt lat="43.770914012566209" lon="2.18053299933672">
        <ele>213.06999999999999</ele>
        <time>2025-04-25T15:42:36Z</time>
      </trkpt>
      <trkpt lat="43.770827008411288" lon="2.180562000721693">
        <ele>212.59</ele>
        <time>2025-04-25T15:42:37Z</time>
      </trkpt>
      <trkpt lat="43.770798007026315" lon="2.180571975186467">
        <ele>212.59</ele>
        <time>2025-04-25T15:42:38Z</time>
      </trkpt>
      <trkpt lat="43.770653000101447" lon="2.180798035115004">
        <ele>212.59</ele>
        <time>2025-04-25T15:42:39Z</time>
      </trkpt>
      <trkpt lat="43.770569013431668" lon="2.180784037336707">
        <ele>212.59</ele>
        <time>2025-04-25T15:42:40Z</time>
      </trkpt>
      <trkpt lat="43.770471028983593" lon="2.180767022073269">
        <ele>212.11000000000001</ele>
        <time>2025-04-25T15:42:41Z</time>
      </trkpt>
      <trkpt lat="43.770362986251712" lon="2.180746989324689">
        <ele>211.63</ele>
        <time>2025-04-25T15:42:42Z</time>
      </trkpt>
      <trkpt lat="43.770244969055057" lon="2.180723017081618">
        <ele>211.15000000000001</ele>
        <time>2025-04-25T15:42:43Z</time>
      </trkpt>
      <trkpt lat="43.770110020413995" lon="2.180686974897981">
        <ele>210.19</ele>
        <time>2025-04-25T15:42:44Z</time>
      </trkpt>
      <trkpt lat="43.769984962418675" lon="2.180612040683627">
        <ele>209.22</ele>
        <time>2025-04-25T15:42:45Z</time>
      </trkpt>
      <trkpt lat="43.769852025434375" lon="2.180531993508339">
        <ele>208.25999999999999</ele>
        <time>2025-04-25T15:42:46Z</time>
      </trkpt>
      <trkpt lat="43.769719004631042" lon="2.180439960211515">
        <ele>207.30000000000001</ele>
        <time>2025-04-25T15:42:47Z</time>
      </trkpt>
      <trkpt lat="43.768476974219084" lon="2.179493978619576">
        <ele>199.61000000000001</ele>
        <time>2025-04-25T15:42:55Z</time>
      </trkpt>
      <trkpt lat="43.76692003570497" lon="2.17832101508975">
        <ele>193.84</ele>
        <time>2025-04-25T15:43:04Z</time>
      </trkpt>
      <trkpt lat="43.765149023383856" lon="2.176998015493155">
        <ele>193.84</ele>
        <time>2025-04-25T15:43:14Z</time>
      </trkpt>
      <trkpt lat="43.764033978804946" lon="2.176382029429078">
        <ele>196.25</ele>
        <time>2025-04-25T15:43:20Z</time>
      </trkpt>
      <trkpt lat="43.762373020872474" lon="2.175818011164665">
        <ele>201.05000000000001</ele>
        <time>2025-04-25T15:43:29Z</time>
      </trkpt>
      <trkpt lat="43.762047970667481" lon="2.175579965114594">
        <ele>202.49000000000001</ele>
        <time>2025-04-25T15:43:31Z</time>
      </trkpt>
      <trkpt lat="43.76101397909224" lon="2.174755018204451">
        <ele>206.81999999999999</ele>
        <time>2025-04-25T15:43:37Z</time>
      </trkpt>
      <trkpt lat="43.760824967175722" lon="2.174643035978079">
        <ele>207.30000000000001</ele>
        <time>2025-04-25T15:43:38Z</time>
      </trkpt>
      <trkpt lat="43.759243972599506" lon="2.17410902492702">
        <ele>212.59</ele>
        <time>2025-04-25T15:43:46Z</time>
      </trkpt>
      <trkpt lat="43.75819799490273" lon="2.174225030466914">
        <ele>214.99000000000001</ele>
        <time>2025-04-25T15:43:51Z</time>
      </trkpt>
      <trkpt lat="43.757989034056664" lon="2.174310022965074">
        <ele>215.47</ele>
        <time>2025-04-25T15:43:52Z</time>
      </trkpt>
      <trkpt lat="43.757783006876707" lon="2.174423011019826">
        <ele>216.43000000000001</ele>
        <time>2025-04-25T15:43:53Z</time>
      </trkpt>
      <trkpt lat="43.757581003010273" lon="2.174551002681255">
        <ele>216.91</ele>
        <time>2025-04-25T15:43:54Z</time>
      </trkpt>
      <trkpt lat="43.757386039942503" lon="2.174707995727658">
        <ele>217.88</ele>
        <time>2025-04-25T15:43:55Z</time>
      </trkpt>
      <trkpt lat="43.75720901414752" lon="2.174903964623809">
        <ele>218.84</ele>
        <time>2025-04-25T15:43:56Z</time>
      </trkpt>
      <trkpt lat="43.757045986130834" lon="2.175128012895584">
        <ele>219.31999999999999</ele>
        <time>2025-04-25T15:43:57Z</time>
      </trkpt>
      <trkpt lat="43.75589800067246" lon="2.176787964999676">
        <ele>223.63999999999999</ele>
        <time>2025-04-25T15:44:05Z</time>
      </trkpt>
      <trkpt lat="43.755042962729931" lon="2.178015997633338">
        <ele>225.56999999999999</ele>
        <time>2025-04-25T15:44:11Z</time>
      </trkpt>
      <trkpt lat="43.754886975511909" lon="2.178183970972896">
        <ele>226.05000000000001</ele>
        <time>2025-04-25T15:44:12Z</time>
      </trkpt>
      <trkpt lat="43.754708021879196" lon="2.178323026746512">
        <ele>226.05000000000001</ele>
        <time>2025-04-25T15:44:13Z</time>
      </trkpt>
      <trkpt lat="43.75452596694231" lon="2.178464010357857">
        <ele>226.53</ele>
        <time>2025-04-25T15:44:14Z</time>
      </trkpt>
      <trkpt lat="43.754346007481217" lon="2.178585967049003">
        <ele>226.53</ele>
        <time>2025-04-25T15:44:15Z</time>
      </trkpt>
      <trkpt lat="43.75413897447288" lon="2.17864396981895">
        <ele>227.00999999999999</ele>
        <time>2025-04-25T15:44:16Z</time>
      </trkpt>
      <trkpt lat="43.753926996141672" lon="2.178703984245658">
        <ele>227.00999999999999</ele>
        <time>2025-04-25T15:44:17Z</time>
      </trkpt>
      <trkpt lat="43.753717029467225" lon="2.178762992843986">
        <ele>227.49000000000001</ele>
        <time>2025-04-25T15:44:18Z</time>
      </trkpt>
      <trkpt lat="43.753506978973746" lon="2.178759975358844">
        <ele>227.49000000000001</ele>
        <time>2025-04-25T15:44:19Z</time>
      </trkpt>
      <trkpt lat="43.753288965672255" lon="2.178748995065689">
        <ele>227.49000000000001</ele>
        <time>2025-04-25T15:44:20Z</time>
      </trkpt>
      <trkpt lat="43.753072964027524" lon="2.17870800755918">
        <ele>227.00999999999999</ele>
        <time>2025-04-25T15:44:21Z</time>
      </trkpt>
      <trkpt lat="43.751785000786185" lon="2.178475996479392">
        <ele>227.49000000000001</ele>
        <time>2025-04-25T15:44:27Z</time>
      </trkpt>
      <trkpt lat="43.751575034111738" lon="2.178484965115786">
        <ele>227.49000000000001</ele>
        <time>2025-04-25T15:44:28Z</time>
      </trkpt>
      <trkpt lat="43.751368001103401" lon="2.178517989814282">
        <ele>227.97</ele>
        <time>2025-04-25T15:44:29Z</time>
      </trkpt>
      <trkpt lat="43.750196965411305" lon="2.17911503277719">
        <ele>228.44999999999999</ele>
        <time>2025-04-25T15:44:35Z</time>
      </trkpt>
      <trkpt lat="43.748356970027089" lon="2.180622015148401">
        <ele>230.84999999999999</ele>
        <time>2025-04-25T15:44:45Z</time>
      </trkpt>
      <trkpt lat="43.746114978566766" lon="2.182475002482534">
        <ele>235.66</ele>
        <time>2025-04-25T15:44:57Z</time>
      </trkpt>
      <trkpt lat="43.74356403015554" lon="2.184454975649715">
        <ele>247.68000000000001</ele>
        <time>2025-04-25T15:45:10Z</time>
      </trkpt>
      <trkpt lat="43.74174197204411" lon="2.185070961713791">
        <ele>252.47999999999999</ele>
        <time>2025-04-25T15:45:18Z</time>
      </trkpt>
      <trkpt lat="43.738610995933414" lon="2.185614025220275">
        <ele>245.75</ele>
        <time>2025-04-25T15:45:31Z</time>
      </trkpt>
      <trkpt lat="43.736294992268085" lon="2.186000011861324">
        <ele>239.50999999999999</ele>
        <time>2025-04-25T15:45:41Z</time>
      </trkpt>
      <trkpt lat="43.734739981591702" lon="2.186275022104383">
        <ele>236.62</ele>
        <time>2025-04-25T15:45:50Z</time>
      </trkpt>
      <trkpt lat="43.733955016359687" lon="2.186436960473657">
        <ele>235.66</ele>
        <time>2025-04-25T15:45:58Z</time>
      </trkpt>
      <trkpt lat="43.733900031074882" lon="2.186454981565476">
        <ele>236.13999999999999</ele>
        <time>2025-04-25T15:45:59Z</time>
      </trkpt>
      <trkpt lat="43.733804980292916" lon="2.186344005167484">
        <ele>236.62</ele>
        <time>2025-04-25T15:46:00Z</time>
      </trkpt>
      <trkpt lat="43.733671037480235" lon="2.186283990740776">
        <ele>237.09999999999999</ele>
        <time>2025-04-25T15:46:02Z</time>
      </trkpt>
      <trkpt lat="43.733594007790089" lon="2.186295976862311">
        <ele>237.58000000000001</ele>
        <time>2025-04-25T15:46:03Z</time>
      </trkpt>
      <trkpt lat="43.7335139606148" lon="2.186368983238936">
        <ele>238.06</ele>
        <time>2025-04-25T15:46:04Z</time>
      </trkpt>
      <trkpt lat="43.733483031392097" lon="2.186407959088683">
        <ele>239.02000000000001</ele>
        <time>2025-04-25T15:46:05Z</time>
      </trkpt>
      <trkpt lat="43.733460986986756" lon="2.186557995155454">
        <ele>239.02000000000001</ele>
        <time>2025-04-25T15:46:06Z</time>
      </trkpt>
      <trkpt lat="43.733432991430163" lon="2.186729991808534">
        <ele>239.50999999999999</ele>
        <time>2025-04-25T15:46:07Z</time>
      </trkpt>
      <trkpt lat="43.733355961740017" lon="2.186797969043255">
        <ele>239.99000000000001</ele>
        <time>2025-04-25T15:46:08Z</time>
      </trkpt>
      <trkpt lat="43.733268035575747" lon="2.186873992905021">
        <ele>240.47</ele>
        <time>2025-04-25T15:46:09Z</time>
      </trkpt>
      <trkpt lat="43.733173990622163" lon="2.186954040080309">
        <ele>240.47</ele>
        <time>2025-04-25T15:46:10Z</time>
      </trkpt>
      <trkpt lat="43.732089959084988" lon="2.187797008082271">
        <ele>244.31</ele>
        <time>2025-04-25T15:46:19Z</time>
      </trkpt>
      <trkpt lat="43.730930993333459" lon="2.188723962754011">
        <ele>250.08000000000001</ele>
        <time>2025-04-25T15:46:27Z</time>
      </trkpt>
      <trkpt lat="43.729543033987284" lon="2.189796008169651">
        <ele>256.81</ele>
        <time>2025-04-25T15:46:38Z</time>
      </trkpt>
      <trkpt lat="43.728315001353621" lon="2.19084701500833">
        <ele>261.13999999999999</ele>
        <time>2025-04-25T15:46:50Z</time>
      </trkpt>
      <trkpt lat="43.727222001180053" lon="2.191940015181899">
        <ele>258.73000000000002</ele>
        <time>2025-04-25T15:47:01Z</time>
      </trkpt>
      <trkpt lat="43.726250035688281" lon="2.192928995937109">
        <ele>258.25</ele>
        <time>2025-04-25T15:47:11Z</time>
      </trkpt>
      <trkpt lat="43.724898034706712" lon="2.194247972220182">
        <ele>262.10000000000002</ele>
        <time>2025-04-25T15:47:24Z</time>
      </trkpt>
      <trkpt lat="43.723695985972881" lon="2.195188002660871">
        <ele>260.17000000000002</ele>
        <time>2025-04-25T15:47:31Z</time>
      </trkpt>
      <trkpt lat="43.721610987558961" lon="2.196791963651776">
        <ele>251.52000000000001</ele>
        <time>2025-04-25T15:47:41Z</time>
      </trkpt>
      <trkpt lat="43.719758000224829" lon="2.198485024273396">
        <ele>240.47</ele>
        <time>2025-04-25T15:47:51Z</time>
      </trkpt>
      <trkpt lat="43.718264009803534" lon="2.200023019686341">
        <ele>236.62</ele>
        <time>2025-04-25T15:47:59Z</time>
      </trkpt>
      <trkpt lat="43.715381976217031" lon="2.203406961634755">
        <ele>242.38999999999999</ele>
        <time>2025-04-25T15:48:15Z</time>
      </trkpt>
      <trkpt lat="43.713770974427462" lon="2.20530403777957">
        <ele>251.52000000000001</ele>
        <time>2025-04-25T15:48:25Z</time>
      </trkpt>
      <trkpt lat="43.712742011994123" lon="2.206394020467997">
        <ele>258.73000000000002</ele>
        <time>2025-04-25T15:48:33Z</time>
      </trkpt>
      <trkpt lat="43.711399985477328" lon="2.20730303786695">
        <ele>260.17000000000002</ele>
        <time>2025-04-25T15:48:41Z</time>
      </trkpt>
      <trkpt lat="43.709353040903807" lon="2.208048021420836">
        <ele>252.47999999999999</ele>
        <time>2025-04-25T15:48:52Z</time>
      </trkpt>
      <trkpt lat="43.707569036632776" lon="2.208283971995115">
        <ele>243.83000000000001</ele>
        <time>2025-04-25T15:49:01Z</time>
      </trkpt>
      <trkpt lat="43.705584034323692" lon="2.208022959530354">
        <ele>235.18000000000001</ele>
        <time>2025-04-25T15:49:11Z</time>
      </trkpt>
      <trkpt lat="43.705010963603854" lon="2.208010973408818">
        <ele>232.30000000000001</ele>
        <time>2025-04-25T15:49:14Z</time>
      </trkpt>
      <trkpt lat="43.703540023416281" lon="2.208570968359709">
        <ele>226.53</ele>
        <time>2025-04-25T15:49:22Z</time>
      </trkpt>
      <trkpt lat="43.70255003683269" lon="2.20951703377068">
        <ele>225.56999999999999</ele>
        <time>2025-04-25T15:49:29Z</time>
      </trkpt>
      <trkpt lat="43.701516967266798" lon="2.210772978141904">
        <ele>228.93000000000001</ele>
        <time>2025-04-25T15:49:36Z</time>
      </trkpt>
      <trkpt lat="43.699547974392772" lon="2.213097028434277">
        <ele>235.18000000000001</ele>
        <time>2025-04-25T15:49:48Z</time>
      </trkpt>
      <trkpt lat="43.69745803065598" lon="2.214476019144058">
        <ele>235.66</ele>
        <time>2025-04-25T15:49:58Z</time>
      </trkpt>
      <trkpt lat="43.69539599865675" lon="2.215797007083893">
        <ele>240.47</ele>
        <time>2025-04-25T15:50:09Z</time>
      </trkpt>
      <trkpt lat="43.693007994443178" lon="2.217199970036745">
        <ele>241.91</ele>
        <time>2025-04-25T15:50:22Z</time>
      </trkpt>
      <trkpt lat="43.691514004021883" lon="2.217813022434712">
        <ele>237.58000000000001</ele>
        <time>2025-04-25T15:50:30Z</time>
      </trkpt>
      <trkpt lat="43.690123027190566" lon="2.217635996639729">
        <ele>233.74000000000001</ele>
        <time>2025-04-25T15:50:36Z</time>
      </trkpt>
      <trkpt lat="43.689162964001298" lon="2.217045994475484">
        <ele>228.93000000000001</ele>
        <time>2025-04-25T15:50:42Z</time>
      </trkpt>
      <trkpt lat="43.687970973551273" lon="2.215954000130296">
        <ele>225.09</ele>
        <time>2025-04-25T15:50:47Z</time>
      </trkpt>
      <trkpt lat="43.687753966078162" lon="2.215803964063525">
        <ele>224.61000000000001</ele>
        <time>2025-04-25T15:50:48Z</time>
      </trkpt>
      <trkpt lat="43.687752960249782" lon="2.215803964063525">
        <ele>224.12</ele>
        <time>2025-04-25T15:50:49Z</time>
      </trkpt>
      <trkpt lat="43.687520027160645" lon="2.215708997100592">
        <ele>223.63999999999999</ele>
        <time>2025-04-25T15:50:50Z</time>
      </trkpt>
      <trkpt lat="43.687056005001068" lon="2.215577987954021">
        <ele>223.16</ele>
        <time>2025-04-25T15:50:51Z</time>
      </trkpt>
      <trkpt lat="43.686821982264519" lon="2.215541023761034">
        <ele>223.16</ele>
        <time>2025-04-25T15:50:52Z</time>
      </trkpt>
      <trkpt lat="43.686598017811775" lon="2.215504981577396">
        <ele>223.16</ele>
        <time>2025-04-25T15:50:53Z</time>
      </trkpt>
      <trkpt lat="43.686363995075226" lon="2.215514034032822">
        <ele>223.16</ele>
        <time>2025-04-25T15:50:54Z</time>
      </trkpt>
      <trkpt lat="43.686135001480579" lon="2.215523002669215">
        <ele>223.63999999999999</ele>
        <time>2025-04-25T15:50:55Z</time>
      </trkpt>
      <trkpt lat="43.685915982350707" lon="2.215570025146008">
        <ele>223.63999999999999</ele>
        <time>2025-04-25T15:50:56Z</time>
      </trkpt>
      <trkpt lat="43.685915982350707" lon="2.215570025146008">
        <ele>224.12</ele>
        <time>2025-04-25T15:50:57Z</time>
      </trkpt>
      <trkpt lat="43.684277990832925" lon="2.216466972604394">
        <ele>227.49000000000001</ele>
        <time>2025-04-25T15:51:04Z</time>
      </trkpt>
      <trkpt lat="43.682049997150898" lon="2.218246031552553">
        <ele>234.69999999999999</ele>
        <time>2025-04-25T15:51:16Z</time>
      </trkpt>
      <trkpt lat="43.679971033707261" lon="2.219909001141787">
        <ele>239.02000000000001</ele>
        <time>2025-04-25T15:51:27Z</time>
      </trkpt>
      <trkpt lat="43.677743040025234" lon="2.221689987927675">
        <ele>249.12</ele>
        <time>2025-04-25T15:51:39Z</time>
      </trkpt>
      <trkpt lat="43.675796007737517" lon="2.223381958901882">
        <ele>258.73000000000002</ele>
        <time>2025-04-25T15:51:50Z</time>
      </trkpt>
      <trkpt lat="43.673942014575005" lon="2.22524399869144">
        <ele>267.38</ele>
        <time>2025-04-25T15:52:02Z</time>
      </trkpt>
      <trkpt lat="43.673777980729938" lon="2.225424963980913">
        <ele>268.82999999999998</ele>
        <time>2025-04-25T15:52:03Z</time>
      </trkpt>
      <trkpt lat="43.672545002773404" lon="2.22664000466466">
        <ele>277.95999999999998</ele>
        <time>2025-04-25T15:52:11Z</time>
      </trkpt>
      <trkpt lat="43.670604005455971" lon="2.228333987295628">
        <ele>283.73000000000002</ele>
        <time>2025-04-25T15:52:23Z</time>
      </trkpt>
      <trkpt lat="43.668598970398307" lon="2.22971398383379">
        <ele>283.25</ele>
        <time>2025-04-25T15:52:34Z</time>
      </trkpt>
      <trkpt lat="43.667045971378684" lon="2.230774965137243">
        <ele>281.80000000000001</ele>
        <time>2025-04-25T15:52:44Z</time>
      </trkpt>
      <trkpt lat="43.666887972503901" lon="2.230865992605686">
        <ele>281.80000000000001</ele>
        <time>2025-04-25T15:52:45Z</time>
      </trkpt>
      <trkpt lat="43.66671497002244" lon="2.230946961790323">
        <ele>282.27999999999997</ele>
        <time>2025-04-25T15:52:46Z</time>
      </trkpt>
      <trkpt lat="43.666540961712599" lon="2.230989960953593">
        <ele>281.80000000000001</ele>
        <time>2025-04-25T15:52:47Z</time>
      </trkpt>
      <trkpt lat="43.666366031393409" lon="2.231033965945244">
        <ele>281.80000000000001</ele>
        <time>2025-04-25T15:52:48Z</time>
      </trkpt>
      <trkpt lat="43.666166961193085" lon="2.231042012572289">
        <ele>281.80000000000001</ele>
        <time>2025-04-25T15:52:49Z</time>
      </trkpt>
      <trkpt lat="43.665987001731992" lon="2.231003036722541">
        <ele>281.31999999999999</ele>
        <time>2025-04-25T15:52:50Z</time>
      </trkpt>
      <trkpt lat="43.665806036442518" lon="2.230963977053762">
        <ele>280.83999999999997</ele>
        <time>2025-04-25T15:52:51Z</time>
      </trkpt>
      <trkpt lat="43.665620964020491" lon="2.230889964848757">
        <ele>280.36000000000001</ele>
        <time>2025-04-25T15:52:52Z</time>
      </trkpt>
      <trkpt lat="43.665443016216159" lon="2.230773959308863">
        <ele>279.88</ele>
        <time>2025-04-25T15:52:53Z</time>
      </trkpt>
      <trkpt lat="43.66512400098145" lon="2.230480005964637">
        <ele>278.92000000000002</ele>
        <time>2025-04-25T15:52:54Z</time>
      </trkpt>
      <trkpt lat="43.664964996278286" lon="2.230303985998035">
        <ele>277.95999999999998</ele>
        <time>2025-04-25T15:52:55Z</time>
      </trkpt>
      <trkpt lat="43.664963990449905" lon="2.230303985998035">
        <ele>277.48000000000002</ele>
        <time>2025-04-25T15:52:56Z</time>
      </trkpt>
      <trkpt lat="43.66480297408998" lon="2.230126960203052">
        <ele>276.51999999999998</ele>
        <time>2025-04-25T15:52:57Z</time>
      </trkpt>
      <trkpt lat="43.663453990593553" lon="2.228026036173105">
        <ele>268.35000000000002</ele>
        <time>2025-04-25T15:53:06Z</time>
      </trkpt>
      <trkpt lat="43.66228898987174" lon="2.22597498446703">
        <ele>262.57999999999998</ele>
        <time>2025-04-25T15:53:15Z</time>
      </trkpt>
      <trkpt lat="43.661008989438415" lon="2.2236970346421">
        <ele>264.5</ele>
        <time>2025-04-25T15:53:25Z</time>
      </trkpt>
      <trkpt lat="43.659635027870536" lon="2.221493013203144">
        <ele>266.89999999999998</ele>
        <time>2025-04-25T15:53:35Z</time>
      </trkpt>
      <trkpt lat="43.658435996621847" lon="2.220232039690018">
        <ele>261.62</ele>
        <time>2025-04-25T15:53:44Z</time>
      </trkpt>
      <trkpt lat="43.656617039814591" lon="2.218607040122151">
        <ele>254.88999999999999</ele>
        <time>2025-04-25T15:53:53Z</time>
      </trkpt>
      <trkpt lat="43.656433979049325" lon="2.218512995168567">
        <ele>254.88999999999999</ele>
        <time>2025-04-25T15:53:54Z</time>
      </trkpt>
      <trkpt lat="43.655017018318176" lon="2.21841299906373">
        <ele>252</ele>
        <time>2025-04-25T15:54:01Z</time>
      </trkpt>
      <trkpt lat="43.652273034676909" lon="2.218753974884749">
        <ele>247.68000000000001</ele>
        <time>2025-04-25T15:54:15Z</time>
      </trkpt>
      <trkpt lat="43.650721041485667" lon="2.218895964324474">
        <ele>245.27000000000001</ele>
        <time>2025-04-25T15:54:23Z</time>
      </trkpt>
      <trkpt lat="43.650522977113724" lon="2.218868974596262">
        <ele>244.78999999999999</ele>
        <time>2025-04-25T15:54:24Z</time>
      </trkpt>
      <trkpt lat="43.649326963350177" lon="2.218270003795624">
        <ele>243.34999999999999</ele>
        <time>2025-04-25T15:54:31Z</time>
      </trkpt>
      <trkpt lat="43.647868009284139" lon="2.217350006103516">
        <ele>240.47</ele>
        <time>2025-04-25T15:54:41Z</time>
      </trkpt>
      <trkpt lat="43.64774102345109" lon="2.217269036918879">
        <ele>239.99000000000001</ele>
        <time>2025-04-25T15:54:43Z</time>
      </trkpt>
      <trkpt lat="43.647687966004014" lon="2.217236012220383">
        <ele>239.50999999999999</ele>
        <time>2025-04-25T15:54:44Z</time>
      </trkpt>
      <trkpt lat="43.647687966004014" lon="2.217236012220383">
        <ele>239.50999999999999</ele>
        <time>2025-04-25T15:54:45Z</time>
      </trkpt>
      <trkpt lat="43.647652007639408" lon="2.217027973383665">
        <ele>239.50999999999999</ele>
        <time>2025-04-25T15:54:46Z</time>
      </trkpt>
      <trkpt lat="43.647614037618041" lon="2.216926971450448">
        <ele>239.50999999999999</ele>
        <time>2025-04-25T15:54:47Z</time>
      </trkpt>
      <trkpt lat="43.647614037618041" lon="2.216926971450448">
        <ele>239.50999999999999</ele>
        <time>2025-04-25T15:54:48Z</time>
      </trkpt>
      <trkpt lat="43.647562991827726" lon="2.216847008094192">
        <ele>239.50999999999999</ele>
        <time>2025-04-25T15:54:49Z</time>
      </trkpt>
      <trkpt lat="43.647424019873142" lon="2.216795040294528">
        <ele>239.50999999999999</ele>
        <time>2025-04-25T15:54:50Z</time>
      </trkpt>
      <trkpt lat="43.647424019873142" lon="2.216795040294528">
        <ele>239.50999999999999</ele>
        <time>2025-04-25T15:54:51Z</time>
      </trkpt>
      <trkpt lat="43.647350007668138" lon="2.216847008094192">
        <ele>239.50999999999999</ele>
        <time>2025-04-25T15:54:52Z</time>
      </trkpt>
      <trkpt lat="43.647206006571651" lon="2.216863017529249">
        <ele>239.50999999999999</ele>
        <time>2025-04-25T15:54:53Z</time>
      </trkpt>
      <trkpt lat="43.646014016121626" lon="2.216336969286203">
        <ele>239.02000000000001</ele>
        <time>2025-04-25T15:55:00Z</time>
      </trkpt>
      <trkpt lat="43.644327996298671" lon="2.215588968247175">
        <ele>240.94999999999999</ele>
        <time>2025-04-25T15:55:08Z</time>
      </trkpt>
      <trkpt lat="43.642063960433006" lon="2.214572997763753">
        <ele>239.99000000000001</ele>
        <time>2025-04-25T15:55:17Z</time>
      </trkpt>
      <trkpt lat="43.638867018744349" lon="2.213161988183856">
        <ele>237.09999999999999</ele>
        <time>2025-04-25T15:55:30Z</time>
      </trkpt>
      <trkpt lat="43.635563040152192" lon="2.21183898858726">
        <ele>247.19999999999999</ele>
        <time>2025-04-25T15:55:45Z</time>
      </trkpt>
      <trkpt lat="43.632033001631498" lon="2.210486987605691">
        <ele>251.03999999999999</ele>
        <time>2025-04-25T15:56:00Z</time>
      </trkpt>
      <trkpt lat="43.629972981289029" lon="2.210288001224399">
        <ele>246.72</ele>
        <time>2025-04-25T15:56:07Z</time>
      </trkpt>
      <trkpt lat="43.627893012017012" lon="2.210739031434059">
        <ele>239.02000000000001</ele>
        <time>2025-04-25T15:56:15Z</time>
      </trkpt>
      <trkpt lat="43.623909009620547" lon="2.212018026039004">
        <ele>219.31999999999999</ele>
        <time>2025-04-25T15:56:30Z</time>
      </trkpt>
      <trkpt lat="43.621765002608299" lon="2.212183987721801">
        <ele>212.59</ele>
        <time>2025-04-25T15:56:38Z</time>
      </trkpt>
      <trkpt lat="43.618767969310284" lon="2.211918029934168">
        <ele>212.59</ele>
        <time>2025-04-25T15:56:51Z</time>
      </trkpt>
      <trkpt lat="43.615833967924118" lon="2.211809987202287">
        <ele>218.36000000000001</ele>
        <time>2025-04-25T15:57:03Z</time>
      </trkpt>
      <trkpt lat="43.612941959872842" lon="2.212247019633651">
        <ele>223.63999999999999</ele>
        <time>2025-04-25T15:57:14Z</time>
      </trkpt>
      <trkpt lat="43.610026985406876" lon="2.213428029790521">
        <ele>222.68000000000001</ele>
        <time>2025-04-25T15:57:25Z</time>
      </trkpt>
      <trkpt lat="43.607086027041078" lon="2.215021010488272">
        <ele>207.78</ele>
        <time>2025-04-25T15:57:37Z</time>
      </trkpt>
      <trkpt lat="43.604789972305298" lon="2.216109987348318">
        <ele>198.16999999999999</ele>
        <time>2025-04-25T15:57:47Z</time>
      </trkpt>
      <trkpt lat="43.602526020258665" lon="2.216832004487515">
        <ele>194.80000000000001</ele>
        <time>2025-04-25T15:57:58Z</time>
      </trkpt>
      <trkpt lat="43.599561005830765" lon="2.21778997220099">
        <ele>191.44</ele>
        <time>2025-04-25T15:58:14Z</time>
      </trkpt>
      <trkpt lat="43.598191989585757" lon="2.218316020444036">
        <ele>188.56</ele>
        <time>2025-04-25T15:58:23Z</time>
      </trkpt>
      <trkpt lat="43.597951009869576" lon="2.218352984637022">
        <ele>187.59</ele>
        <time>2025-04-25T15:58:25Z</time>
      </trkpt>
      <trkpt lat="43.597840033471584" lon="2.218334041535854">
        <ele>187.11000000000001</ele>
        <time>2025-04-25T15:58:26Z</time>
      </trkpt>
      <trkpt lat="43.597734002396464" lon="2.218299005180597">
        <ele>186.15000000000001</ele>
        <time>2025-04-25T15:58:27Z</time>
      </trkpt>
      <trkpt lat="43.597640041261911" lon="2.218233961611986">
        <ele>185.66999999999999</ele>
        <time>2025-04-25T15:58:28Z</time>
      </trkpt>
      <trkpt lat="43.597543984651566" lon="2.218161961063743">
        <ele>185.19</ele>
        <time>2025-04-25T15:58:29Z</time>
      </trkpt>
      <trkpt lat="43.597447006031871" lon="2.21808903850615">
        <ele>184.71000000000001</ele>
        <time>2025-04-25T15:58:30Z</time>
      </trkpt>
      <trkpt lat="43.597352039068937" lon="2.217994993552566">
        <ele>183.75</ele>
        <time>2025-04-25T15:58:31Z</time>
      </trkpt>
      <trkpt lat="43.59727299772203" lon="2.217863984405994">
        <ele>182.78999999999999</ele>
        <time>2025-04-25T15:58:32Z</time>
      </trkpt>
      <trkpt lat="43.597191022709012" lon="2.217728029936552">
        <ele>182.31</ele>
        <time>2025-04-25T15:58:33Z</time>
      </trkpt>
      <trkpt lat="43.597133019939065" lon="2.217560978606343">
        <ele>181.34999999999999</ele>
        <time>2025-04-25T15:58:34Z</time>
      </trkpt>
      <trkpt lat="43.597076022997499" lon="2.217389987781644">
        <ele>180.38</ele>
        <time>2025-04-25T15:58:35Z</time>
      </trkpt>
      <trkpt lat="43.597018020227551" lon="2.217216985300183">
        <ele>179.41999999999999</ele>
        <time>2025-04-25T15:58:36Z</time>
      </trkpt>
      <trkpt lat="43.596612000837922" lon="2.21598400734365">
        <ele>175.09999999999999</ele>
        <time>2025-04-25T15:58:45Z</time>
      </trkpt>
      <trkpt lat="43.596600014716387" lon="2.215903960168362">
        <ele>174.62</ele>
        <time>2025-04-25T15:58:46Z</time>
      </trkpt>
      <trkpt lat="43.596592973917723" lon="2.215857021510601">
        <ele>174.62</ele>
        <time>2025-04-25T15:58:47Z</time>
      </trkpt>
      <trkpt lat="43.59658501110971" lon="2.215800024569035">
        <ele>174.13999999999999</ele>
        <time>2025-04-25T15:58:54Z</time>
      </trkpt>
      <trkpt lat="43.596711996942759" lon="2.215698016807437">
        <ele>173.66</ele>
        <time>2025-04-25T15:58:55Z</time>
      </trkpt>
      <trkpt lat="43.596719959750772" lon="2.215624004602432">
        <ele>173.66</ele>
        <time>2025-04-25T15:58:56Z</time>
      </trkpt>
      <trkpt lat="43.5967150144279" lon="2.215377995744348">
        <ele>173.66</ele>
        <time>2025-04-25T15:58:57Z</time>
      </trkpt>
      <trkpt lat="43.596630021929741" lon="2.215288979932666">
        <ele>173.66</ele>
        <time>2025-04-25T15:58:58Z</time>
      </trkpt>
      <trkpt lat="43.596538994461298" lon="2.215283028781414">
        <ele>173.66</ele>
        <time>2025-04-25T15:58:59Z</time>
      </trkpt>
      <trkpt lat="43.596458025276661" lon="2.215300966054201">
        <ele>173.16999999999999</ele>
        <time>2025-04-25T15:59:01Z</time>
      </trkpt>
      <trkpt lat="43.596333973109722" lon="2.215591985732317">
        <ele>173.16999999999999</ele>
        <time>2025-04-25T15:59:02Z</time>
      </trkpt>
      <trkpt lat="43.596111014485359" lon="2.215741015970707">
        <ele>173.16999999999999</ele>
        <time>2025-04-25T15:59:04Z</time>
      </trkpt>
      <trkpt lat="43.596055023372173" lon="2.215871019288898">
        <ele>173.16999999999999</ele>
        <time>2025-04-25T15:59:05Z</time>
      </trkpt>
      <trkpt lat="43.595982016995549" lon="2.216041004285216">
        <ele>173.16999999999999</ele>
        <time>2025-04-25T15:59:06Z</time>
      </trkpt>
      <trkpt lat="43.595982016995549" lon="2.216041004285216">
        <ele>173.16999999999999</ele>
        <time>2025-04-25T15:59:07Z</time>
      </trkpt>
      <trkpt lat="43.595901969820261" lon="2.216419028118253">
        <ele>173.16999999999999</ele>
        <time>2025-04-25T15:59:08Z</time>
      </trkpt>
      <trkpt lat="43.595641041174531" lon="2.217506999149919">
        <ele>175.09999999999999</ele>
        <time>2025-04-25T15:59:13Z</time>
      </trkpt>
      <trkpt lat="43.59555596485734" lon="2.217716965824366">
        <ele>175.58000000000001</ele>
        <time>2025-04-25T15:59:14Z</time>
      </trkpt>
      <trkpt lat="43.595423027873039" lon="2.217883011326194">
        <ele>176.06</ele>
        <time>2025-04-25T15:59:15Z</time>
      </trkpt>
      <trkpt lat="43.59527600929141" lon="2.218022989109159">
        <ele>177.02000000000001</ele>
        <time>2025-04-25T15:59:16Z</time>
      </trkpt>
      <trkpt lat="43.59527600929141" lon="2.218022989109159">
        <ele>177.5</ele>
        <time>2025-04-25T15:59:17Z</time>
      </trkpt>
      <trkpt lat="43.594592968001962" lon="2.21856202930212">
        <ele>177.97999999999999</ele>
        <time>2025-04-25T15:59:22Z</time>
      </trkpt>
      <trkpt lat="43.594472017139196" lon="2.218642998486757">
        <ele>177.5</ele>
        <time>2025-04-25T15:59:23Z</time>
      </trkpt>
      <trkpt lat="43.594346037134528" lon="2.218679962679744">
        <ele>177.02000000000001</ele>
        <time>2025-04-25T15:59:24Z</time>
      </trkpt>
      <trkpt lat="43.594220979139209" lon="2.218679962679744">
        <ele>176.06</ele>
        <time>2025-04-25T15:59:25Z</time>
      </trkpt>
      <trkpt lat="43.594089969992638" lon="2.218665964901447">
        <ele>175.09999999999999</ele>
        <time>2025-04-25T15:59:26Z</time>
      </trkpt>
      <trkpt lat="43.593973964452744" lon="2.218601005151868">
        <ele>174.13999999999999</ele>
        <time>2025-04-25T15:59:27Z</time>
      </trkpt>
      <trkpt lat="43.593861982226372" lon="2.218537973240018">
        <ele>173.16999999999999</ele>
        <time>2025-04-25T15:59:28Z</time>
      </trkpt>
      <trkpt lat="43.593499967828393" lon="2.218336975201964">
        <ele>171.25</ele>
        <time>2025-04-25T15:59:32Z</time>
      </trkpt>
      <trkpt lat="43.593499967828393" lon="2.218336975201964">
        <ele>170.77000000000001</ele>
        <time>2025-04-25T15:59:33Z</time>
      </trkpt>
      <trkpt lat="43.593408018350601" lon="2.218156009912491">
        <ele>170.28999999999999</ele>
        <time>2025-04-25T15:59:34Z</time>
      </trkpt>
      <trkpt lat="43.59338304027915" lon="2.218061964958906">
        <ele>169.33000000000001</ele>
        <time>2025-04-25T15:59:35Z</time>
      </trkpt>
      <trkpt lat="43.593346998095512" lon="2.217978984117508">
        <ele>169.33000000000001</ele>
        <time>2025-04-25T15:59:36Z</time>
      </trkpt>
      <trkpt lat="43.593282960355282" lon="2.217923998832703">
        <ele>168.84999999999999</ele>
        <time>2025-04-25T15:59:37Z</time>
      </trkpt>
      <trkpt lat="43.593207020312548" lon="2.217798018828034">
        <ele>168.84999999999999</ele>
        <time>2025-04-25T15:59:38Z</time>
      </trkpt>
      <trkpt lat="43.593193022534251" lon="2.217673966661096">
        <ele>168.84999999999999</ele>
        <time>2025-04-25T15:59:39Z</time>
      </trkpt>
      <trkpt lat="43.593180030584335" lon="2.217558966949582">
        <ele>168.84999999999999</ele>
        <time>2025-04-25T15:59:40Z</time>
      </trkpt>
      <trkpt lat="43.593079028651118" lon="2.216384997591376">
        <ele>168.84999999999999</ele>
        <time>2025-04-25T15:59:51Z</time>
      </trkpt>
      <trkpt lat="43.593039968982339" lon="2.215994987636805">
        <ele>171.25</ele>
        <time>2025-04-25T16:00:03Z</time>
      </trkpt>
      <trkpt lat="43.593029994517565" lon="2.215891974046826">
        <ele>172.21000000000001</ele>
        <time>2025-04-25T16:00:22Z</time>
      </trkpt>
      <trkpt lat="43.592978026717901" lon="2.215026039630175">
        <ele>172.69</ele>
        <time>2025-04-25T16:00:30Z</time>
      </trkpt>
      <trkpt lat="43.592813992872834" lon="2.213607989251614">
        <ele>175.09999999999999</ele>
        <time>2025-04-25T16:00:41Z</time>
      </trkpt>
      <trkpt lat="43.592732017859817" lon="2.213102979585528">
        <ele>175.09999999999999</ele>
        <time>2025-04-25T16:00:46Z</time>
      </trkpt>
      <trkpt lat="43.59271802008152" lon="2.213026033714414">
        <ele>175.09999999999999</ele>
        <time>2025-04-25T16:00:47Z</time>
      </trkpt>
      <trkpt lat="43.592522973194718" lon="2.211958011612296">
        <ele>175.09999999999999</ele>
        <time>2025-04-25T16:00:58Z</time>
      </trkpt>
      <trkpt lat="43.592246035113931" lon="2.210504002869129">
        <ele>175.58000000000001</ele>
        <time>2025-04-25T16:01:10Z</time>
      </trkpt>
      <trkpt lat="43.591935988515615" lon="2.208947986364365">
        <ele>175.09999999999999</ele>
        <time>2025-04-25T16:01:22Z</time>
      </trkpt>
      <trkpt lat="43.591556958854198" lon="2.207122994586825">
        <ele>176.53999999999999</ele>
        <time>2025-04-25T16:01:34Z</time>
      </trkpt>
      <trkpt lat="43.59147003851831" lon="2.206555036827922">
        <ele>175.09999999999999</ele>
        <time>2025-04-25T16:01:40Z</time>
      </trkpt>
      <trkpt lat="43.591458974406123" lon="2.206196961924434">
        <ele>173.66</ele>
        <time>2025-04-25T16:01:46Z</time>
      </trkpt>
      <trkpt lat="43.591455034911633" lon="2.206063019111753">
        <ele>173.16999999999999</ele>
        <time>2025-04-25T16:01:47Z</time>
      </trkpt>
      <trkpt lat="43.591455034911633" lon="2.206063019111753">
        <ele>173.16999999999999</ele>
        <time>2025-04-25T16:01:48Z</time>
      </trkpt>
      <trkpt lat="43.591467021033168" lon="2.206006022170186">
        <ele>172.69</ele>
        <time>2025-04-25T16:01:49Z</time>
      </trkpt>
      <trkpt lat="43.591514965519309" lon="2.20577996224165">
        <ele>172.69</ele>
        <time>2025-04-25T16:01:50Z</time>
      </trkpt>
      <trkpt lat="43.591485964134336" lon="2.205664040520787">
        <ele>172.69</ele>
        <time>2025-04-25T16:01:51Z</time>
      </trkpt>
      <trkpt lat="43.591455034911633" lon="2.205569995567203">
        <ele>172.21000000000001</ele>
        <time>2025-04-25T16:01:52Z</time>
      </trkpt>
      <trkpt lat="43.591376999393106" lon="2.205510986968875">
        <ele>172.21000000000001</ele>
        <time>2025-04-25T16:01:53Z</time>
      </trkpt>
      <trkpt lat="43.591327965259552" lon="2.205365980044007">
        <ele>172.21000000000001</ele>
        <time>2025-04-25T16:01:54Z</time>
      </trkpt>
      <trkpt lat="43.591291001066566" lon="2.205240000039339">
        <ele>172.21000000000001</ele>
        <time>2025-04-25T16:01:55Z</time>
      </trkpt>
      <trkpt lat="43.591251019388437" lon="2.205103039741516">
        <ele>171.72999999999999</ele>
        <time>2025-04-25T16:01:56Z</time>
      </trkpt>
      <trkpt lat="43.591251019388437" lon="2.205103039741516">
        <ele>171.72999999999999</ele>
        <time>2025-04-25T16:01:57Z</time>
      </trkpt>
      <trkpt lat="43.59097701497376" lon="2.203732011839747">
        <ele>170.28999999999999</ele>
        <time>2025-04-25T16:02:04Z</time>
      </trkpt>
      <trkpt lat="43.590492960065603" lon="2.201099004596472">
        <ele>169.81</ele>
        <time>2025-04-25T16:02:14Z</time>
      </trkpt>
      <trkpt lat="43.589931037276983" lon="2.198510002344847">
        <ele>167.41</ele>
        <time>2025-04-25T16:02:25Z</time>
      </trkpt>
      <trkpt lat="43.589236009865999" lon="2.195365028455854">
        <ele>170.28999999999999</ele>
        <time>2025-04-25T16:02:39Z</time>
      </trkpt>
      <trkpt lat="43.588728988543153" lon="2.192129027098417">
        <ele>169.81</ele>
        <time>2025-04-25T16:02:53Z</time>
      </trkpt>
      <trkpt lat="43.588476022705436" lon="2.190007986500859">
        <ele>164.03999999999999</ele>
        <time>2025-04-25T16:03:02Z</time>
      </trkpt>
      <trkpt lat="43.588263960555196" lon="2.18798995949328">
        <ele>164.03999999999999</ele>
        <time>2025-04-25T16:03:12Z</time>
      </trkpt>
      <trkpt lat="43.588166981935501" lon="2.187171969562769">
        <ele>164.52000000000001</ele>
        <time>2025-04-25T16:03:19Z</time>
      </trkpt>
      <trkpt lat="43.588115014135838" lon="2.186840968206525">
        <ele>165.47999999999999</ele>
        <time>2025-04-25T16:03:28Z</time>
      </trkpt>
      <trkpt lat="43.588064974173903" lon="2.186520025134087">
        <ele>165.96000000000001</ele>
        <time>2025-04-25T16:03:35Z</time>
      </trkpt>
      <trkpt lat="43.58807603828609" lon="2.186437966302037">
        <ele>165.96000000000001</ele>
        <time>2025-04-25T16:03:36Z</time>
      </trkpt>
      <trkpt lat="43.588090036064386" lon="2.186344005167484">
        <ele>165.96000000000001</ele>
        <time>2025-04-25T16:03:37Z</time>
      </trkpt>
      <trkpt lat="43.588106967508793" lon="2.18622799962759">
        <ele>165.96000000000001</ele>
        <time>2025-04-25T16:03:38Z</time>
      </trkpt>
      <trkpt lat="43.588128006085753" lon="2.186088021844626">
        <ele>165.96000000000001</ele>
        <time>2025-04-25T16:03:39Z</time>
      </trkpt>
      <trkpt lat="43.588166981935501" lon="2.1859460324049">
        <ele>165.96000000000001</ele>
        <time>2025-04-25T16:03:40Z</time>
      </trkpt>
      <trkpt lat="43.588180979713798" lon="2.185786021873355">
        <ele>166.44999999999999</ele>
        <time>2025-04-25T16:03:41Z</time>
      </trkpt>
      <trkpt lat="43.588154995813966" lon="2.185649983584881">
        <ele>166.44999999999999</ele>
        <time>2025-04-25T16:03:42Z</time>
      </trkpt>
      <trkpt lat="43.588132029399276" lon="2.185525009408593">
        <ele>166.93000000000001</ele>
        <time>2025-04-25T16:03:43Z</time>
      </trkpt>
      <trkpt lat="43.588038990274072" lon="2.185446973890066">
        <ele>166.93000000000001</ele>
        <time>2025-04-25T16:03:44Z</time>
      </trkpt>
      <trkpt lat="43.587958021089435" lon="2.185392994433641">
        <ele>166.93000000000001</ele>
        <time>2025-04-25T16:03:45Z</time>
      </trkpt>
      <trkpt lat="43.587831035256386" lon="2.18515302054584">
        <ele>166.93000000000001</ele>
        <time>2025-04-25T16:03:47Z</time>
      </trkpt>
      <trkpt lat="43.587778983637691" lon="2.185010025277734">
        <ele>166.93000000000001</ele>
        <time>2025-04-25T16:03:48Z</time>
      </trkpt>
      <trkpt lat="43.587756017223001" lon="2.18485202640295">
        <ele>167.41</ele>
        <time>2025-04-25T16:03:49Z</time>
      </trkpt>
      <trkpt lat="43.587634982541203" lon="2.183319982141256">
        <ele>166.93000000000001</ele>
        <time>2025-04-25T16:03:58Z</time>
      </trkpt>
      <trkpt lat="43.587381010875106" lon="2.181287035346031">
        <ele>169.33000000000001</ele>
        <time>2025-04-25T16:04:07Z</time>
      </trkpt>
      <trkpt lat="43.587160985916853" lon="2.179933022707701">
        <ele>172.69</ele>
        <time>2025-04-25T16:04:14Z</time>
      </trkpt>
      <trkpt lat="43.587038023397326" lon="2.179230032488704">
        <ele>173.66</ele>
        <time>2025-04-25T16:04:21Z</time>
      </trkpt>
      <trkpt lat="43.587004998698831" lon="2.179046971723437">
        <ele>172.69</ele>
        <time>2025-04-25T16:04:30Z</time>
      </trkpt>
      <trkpt lat="43.586930986493826" lon="2.178625026717782">
        <ele>173.66</ele>
        <time>2025-04-25T16:04:40Z</time>
      </trkpt>
      <trkpt lat="43.586805006489158" lon="2.177649037912488">
        <ele>175.58000000000001</ele>
        <time>2025-04-25T16:04:47Z</time>
      </trkpt>
      <trkpt lat="43.586727976799011" lon="2.176963984966278">
        <ele>177.02000000000001</ele>
        <time>2025-04-25T16:04:53Z</time>
      </trkpt>
      <trkpt lat="43.586727976799011" lon="2.176963984966278">
        <ele>177.5</ele>
        <time>2025-04-25T16:05:05Z</time>
      </trkpt>
      <trkpt lat="43.586714984849095" lon="2.176886033266783">
        <ele>178.94</ele>
        <time>2025-04-25T16:05:51Z</time>
      </trkpt>
      <trkpt lat="43.586622029542923" lon="2.176164016127586">
        <ele>179.41999999999999</ele>
        <time>2025-04-25T16:05:59Z</time>
      </trkpt>
      <trkpt lat="43.586520021781325" lon="2.175449961796403">
        <ele>179.90000000000001</ele>
        <time>2025-04-25T16:06:08Z</time>
      </trkpt>
      <trkpt lat="43.586201006546617" lon="2.174254031851888">
        <ele>180.38</ele>
        <time>2025-04-25T16:06:17Z</time>
      </trkpt>
      <trkpt lat="43.585921972990036" lon="2.172506991773844">
        <ele>179.90000000000001</ele>
        <time>2025-04-25T16:06:26Z</time>
      </trkpt>
      <trkpt lat="43.585677975788713" lon="2.170925997197628">
        <ele>177.97999999999999</ele>
        <time>2025-04-25T16:06:35Z</time>
      </trkpt>
      <trkpt lat="43.585313027724624" lon="2.168416958302259">
        <ele>177.97999999999999</ele>
        <time>2025-04-25T16:06:47Z</time>
      </trkpt>
      <trkpt lat="43.585119992494583" lon="2.166603030636907">
        <ele>182.31</ele>
        <time>2025-04-25T16:06:57Z</time>
      </trkpt>
      <trkpt lat="43.585110018029809" lon="2.16648199595511">
        <ele>182.31</ele>
        <time>2025-04-25T16:06:58Z</time>
      </trkpt>
      <trkpt lat="43.585145976394415" lon="2.166280997917056">
        <ele>183.27000000000001</ele>
        <time>2025-04-25T16:07:00Z</time>
      </trkpt>
      <trkpt lat="43.585095014423132" lon="2.166152000427246">
        <ele>183.75</ele>
        <time>2025-04-25T16:07:01Z</time>
      </trkpt>
      <trkpt lat="43.585054026916623" lon="2.166047981008887">
        <ele>184.22999999999999</ele>
        <time>2025-04-25T16:07:02Z</time>
      </trkpt>
      <trkpt lat="43.584974985569715" lon="2.165824016556144">
        <ele>185.19</ele>
        <time>2025-04-25T16:07:04Z</time>
      </trkpt>
      <trkpt lat="43.584867026656866" lon="2.165529979392886">
        <ele>185.66999999999999</ele>
        <time>2025-04-25T16:07:06Z</time>
      </trkpt>
      <trkpt lat="43.584614982828498" lon="2.163899028673768">
        <ele>185.66999999999999</ele>
        <time>2025-04-25T16:07:15Z</time>
      </trkpt>
      <trkpt lat="43.584144003689289" lon="2.160759000107646">
        <ele>186.63</ele>
        <time>2025-04-25T16:07:29Z</time>
      </trkpt>
      <trkpt lat="43.583742007613182" lon="2.158154994249344">
        <ele>187.11000000000001</ele>
        <time>2025-04-25T16:07:40Z</time>
      </trkpt>
      <trkpt lat="43.583342023193836" lon="2.155723990872502">
        <ele>186.63</ele>
        <time>2025-04-25T16:07:51Z</time>
      </trkpt>
      <trkpt lat="43.582730982452631" lon="2.153704036027193">
        <ele>185.66999999999999</ele>
        <time>2025-04-25T16:08:00Z</time>
      </trkpt>
      <trkpt lat="43.581779971718788" lon="2.151989014819264">
        <ele>178.94</ele>
        <time>2025-04-25T16:08:09Z</time>
      </trkpt>
      <trkpt lat="43.580686971545219" lon="2.150285979732871">
        <ele>170.28999999999999</ele>
        <time>2025-04-25T16:08:19Z</time>
      </trkpt>
      <trkpt lat="43.580263014882803" lon="2.149644009768963">
        <ele>169.33000000000001</ele>
        <time>2025-04-25T16:08:23Z</time>
      </trkpt>
      <trkpt lat="43.5794170293957" lon="2.148323021829128">
        <ele>165.96000000000001</ele>
        <time>2025-04-25T16:08:31Z</time>
      </trkpt>
      <trkpt lat="43.578438023105264" lon="2.146805981174111">
        <ele>163.56</ele>
        <time>2025-04-25T16:08:41Z</time>
      </trkpt>
      <trkpt lat="43.577921027317643" lon="2.146024033427239">
        <ele>162.59999999999999</ele>
        <time>2025-04-25T16:08:48Z</time>
      </trkpt>
      <trkpt lat="43.577843997627497" lon="2.145907022058964">
        <ele>162.59999999999999</ele>
        <time>2025-04-25T16:08:49Z</time>
      </trkpt>
      <trkpt lat="43.577843997627497" lon="2.145907022058964">
        <ele>162.59999999999999</ele>
        <time>2025-04-25T16:08:50Z</time>
      </trkpt>
      <trkpt lat="43.577635958790779" lon="2.145595969632268">
        <ele>163.08000000000001</ele>
        <time>2025-04-25T16:08:52Z</time>
      </trkpt>
      <trkpt lat="43.577544009312987" lon="2.145445011556149">
        <ele>163.08000000000001</ele>
        <time>2025-04-25T16:08:53Z</time>
      </trkpt>
      <trkpt lat="43.577453987672925" lon="2.14529799297452">
        <ele>164.03999999999999</ele>
        <time>2025-04-25T16:08:54Z</time>
      </trkpt>
      <trkpt lat="43.577351979911327" lon="2.145137982442975">
        <ele>164.52000000000001</ele>
        <time>2025-04-25T16:08:55Z</time>
      </trkpt>
      <trkpt lat="43.577246032655239" lon="2.144978977739811">
        <ele>165</ele>
        <time>2025-04-25T16:08:56Z</time>
      </trkpt>
      <trkpt lat="43.576270965859294" lon="2.143473001196981">
        <ele>166.93000000000001</ele>
        <time>2025-04-25T16:09:05Z</time>
      </trkpt>
      <trkpt lat="43.575328001752496" lon="2.142066014930606">
        <ele>166.44999999999999</ele>
        <time>2025-04-25T16:09:16Z</time>
      </trkpt>
      <trkpt lat="43.574395012110472" lon="2.140632960945368">
        <ele>165</ele>
        <time>2025-04-25T16:09:26Z</time>
      </trkpt>
      <trkpt lat="43.573653968051076" lon="2.139457985758781">
        <ele>166.44999999999999</ele>
        <time>2025-04-25T16:09:32Z</time>
      </trkpt>
      <trkpt lat="43.572792978957295" lon="2.138148983940482">
        <ele>165.96000000000001</ele>
        <time>2025-04-25T16:09:40Z</time>
      </trkpt>
      <trkpt lat="43.571694027632475" lon="2.136448966339231">
        <ele>166.93000000000001</ele>
        <time>2025-04-25T16:09:51Z</time>
      </trkpt>
      <trkpt lat="43.570684008300304" lon="2.134888004511595">
        <ele>165.96000000000001</ele>
        <time>2025-04-25T16:10:01Z</time>
      </trkpt>
      <trkpt lat="43.569538034498692" lon="2.133111041039228">
        <ele>165.96000000000001</ele>
        <time>2025-04-25T16:10:12Z</time>
      </trkpt>
      <trkpt lat="43.568366998806596" lon="2.131298035383225">
        <ele>166.44999999999999</ele>
        <time>2025-04-25T16:10:24Z</time>
      </trkpt>
      <trkpt lat="43.567282967269421" lon="2.129644034430385">
        <ele>165</ele>
        <time>2025-04-25T16:10:36Z</time>
      </trkpt>
      <trkpt lat="43.566793967038393" lon="2.128782039508224">
        <ele>164.52000000000001</ele>
        <time>2025-04-25T16:10:45Z</time>
      </trkpt>
      <trkpt lat="43.566672010347247" lon="2.128538964316249">
        <ele>164.52000000000001</ele>
        <time>2025-04-25T16:10:48Z</time>
      </trkpt>
      <trkpt lat="43.566629011183977" lon="2.128445003181696">
        <ele>165</ele>
        <time>2025-04-25T16:10:49Z</time>
      </trkpt>
      <trkpt lat="43.566653989255428" lon="2.128335032612085">
        <ele>165</ele>
        <time>2025-04-25T16:10:50Z</time>
      </trkpt>
      <trkpt lat="43.566645020619035" lon="2.128184996545315">
        <ele>165</ele>
        <time>2025-04-25T16:10:51Z</time>
      </trkpt>
      <trkpt lat="43.566561033949256" lon="2.128005959093571">
        <ele>165</ele>
        <time>2025-04-25T16:10:53Z</time>
      </trkpt>
      <trkpt lat="43.566503031179309" lon="2.127966983243823">
        <ele>165</ele>
        <time>2025-04-25T16:10:54Z</time>
      </trkpt>
      <trkpt lat="43.566435975953937" lon="2.127935970202088">
        <ele>164.52000000000001</ele>
        <time>2025-04-25T16:10:55Z</time>
      </trkpt>
      <trkpt lat="43.566363975405693" lon="2.127935970202088">
        <ele>164.52000000000001</ele>
        <time>2025-04-25T16:10:56Z</time>
      </trkpt>
      <trkpt lat="43.566307984292507" lon="2.127977041527629">
        <ele>164.03999999999999</ele>
        <time>2025-04-25T16:10:57Z</time>
      </trkpt>
      <trkpt lat="43.566255010664463" lon="2.128029009327292">
        <ele>164.03999999999999</ele>
        <time>2025-04-25T16:10:58Z</time>
      </trkpt>
      <trkpt lat="43.566204970702529" lon="2.128079971298575">
        <ele>164.03999999999999</ele>
        <time>2025-04-25T16:10:59Z</time>
      </trkpt>
      <trkpt lat="43.566176975145936" lon="2.128107966855168">
        <ele>164.03999999999999</ele>
        <time>2025-04-25T16:11:00Z</time>
      </trkpt>
      <trkpt lat="43.566168006509542" lon="2.128229001536965">
        <ele>164.03999999999999</ele>
        <time>2025-04-25T16:11:01Z</time>
      </trkpt>
      <trkpt lat="43.566105980426073" lon="2.128406027331948">
        <ele>164.03999999999999</ele>
        <time>2025-04-25T16:11:02Z</time>
      </trkpt>
      <trkpt lat="43.566053006798029" lon="2.128427987918258">
        <ele>164.03999999999999</ele>
        <time>2025-04-25T16:11:03Z</time>
      </trkpt>
      <trkpt lat="43.565998021513224" lon="2.128450032323599">
        <ele>164.52000000000001</ele>
        <time>2025-04-25T16:11:04Z</time>
      </trkpt>
      <trkpt lat="43.565945969894528" lon="2.128469981253147">
        <ele>164.52000000000001</ele>
        <time>2025-04-25T16:11:05Z</time>
      </trkpt>
      <trkpt lat="43.565889978781343" lon="2.128471992909908">
        <ele>164.52000000000001</ele>
        <time>2025-04-25T16:11:06Z</time>
      </trkpt>
      <trkpt lat="43.565833987668157" lon="2.128471992909908">
        <ele>164.52000000000001</ele>
        <time>2025-04-25T16:11:07Z</time>
      </trkpt>
      <trkpt lat="43.565777996554971" lon="2.128449026495218">
        <ele>164.52000000000001</ele>
        <time>2025-04-25T16:11:08Z</time>
      </trkpt>
      <trkpt lat="43.565722005441785" lon="2.1284119784832">
        <ele>164.52000000000001</ele>
        <time>2025-04-25T16:11:09Z</time>
      </trkpt>
      <trkpt lat="43.565664002671838" lon="2.128374008461833">
        <ele>164.52000000000001</ele>
        <time>2025-04-25T16:11:10Z</time>
      </trkpt>
      <trkpt lat="43.56560398824513" lon="2.128285998478532">
        <ele>165</ele>
        <time>2025-04-25T16:11:11Z</time>
      </trkpt>
      <trkpt lat="43.565578004345298" lon="2.128184996545315">
        <ele>164.52000000000001</ele>
        <time>2025-04-25T16:11:12Z</time>
      </trkpt>
      <trkpt lat="43.565547997131944" lon="2.128071002662182">
        <ele>164.52000000000001</ele>
        <time>2025-04-25T16:11:13Z</time>
      </trkpt>
      <trkpt lat="43.565513966605067" lon="2.127944016829133">
        <ele>164.52000000000001</ele>
        <time>2025-04-25T16:11:14Z</time>
      </trkpt>
      <trkpt lat="43.565480019897223" lon="2.12780898436904">
        <ele>164.52000000000001</ele>
        <time>2025-04-25T16:11:15Z</time>
      </trkpt>
      <trkpt lat="43.565330989658833" lon="2.12722803466022">
        <ele>164.03999999999999</ele>
        <time>2025-04-25T16:11:19Z</time>
      </trkpt>
      <trkpt lat="43.565286984667182" lon="2.127082021906972">
        <ele>164.03999999999999</ele>
        <time>2025-04-25T16:11:20Z</time>
      </trkpt>
      <trkpt lat="43.565207021310925" lon="2.126945983618498">
        <ele>163.56</ele>
        <time>2025-04-25T16:11:21Z</time>
      </trkpt>
      <trkpt lat="43.565123034641147" lon="2.126805000007153">
        <ele>163.56</ele>
        <time>2025-04-25T16:11:22Z</time>
      </trkpt>
      <trkpt lat="43.565036030486226" lon="2.126657981425524">
        <ele>163.08000000000001</ele>
        <time>2025-04-25T16:11:23Z</time>
      </trkpt>
      <trkpt lat="43.563833981752396" lon="2.124861991032958">
        <ele>163.56</ele>
        <time>2025-04-25T16:11:35Z</time>
      </trkpt>
      <trkpt lat="43.562953965738416" lon="2.123399013653398">
        <ele>164.03999999999999</ele>
        <time>2025-04-25T16:11:43Z</time>
      </trkpt>
      <trkpt lat="43.562418026849627" lon="2.122263014316559">
        <ele>164.03999999999999</ele>
        <time>2025-04-25T16:11:50Z</time>
      </trkpt>
      <trkpt lat="43.562337979674339" lon="2.12213602848351">
        <ele>164.52000000000001</ele>
        <time>2025-04-25T16:11:51Z</time>
      </trkpt>
      <trkpt lat="43.561784019693732" lon="2.121260035783052">
        <ele>165.96000000000001</ele>
        <time>2025-04-25T16:11:59Z</time>
      </trkpt>
      <trkpt lat="43.56126400642097" lon="2.120361998677254">
        <ele>165.96000000000001</ele>
        <time>2025-04-25T16:12:10Z</time>
      </trkpt>
      <trkpt lat="43.561155963689089" lon="2.120276000350714">
        <ele>165.47999999999999</ele>
        <time>2025-04-25T16:12:11Z</time>
      </trkpt>
      <trkpt lat="43.561146995052695" lon="2.12026895955205">
        <ele>165</ele>
        <time>2025-04-25T16:12:12Z</time>
      </trkpt>
      <trkpt lat="43.561146995052695" lon="2.12026895955205">
        <ele>165</ele>
        <time>2025-04-25T16:12:13Z</time>
      </trkpt>
      <trkpt lat="43.561081029474735" lon="2.120219003409147">
        <ele>165</ele>
        <time>2025-04-25T16:12:14Z</time>
      </trkpt>
      <trkpt lat="43.5609429795295" lon="2.120062010362744">
        <ele>165</ele>
        <time>2025-04-25T16:12:15Z</time>
      </trkpt>
      <trkpt lat="43.560863016173244" lon="2.119980035349727">
        <ele>164.52000000000001</ele>
        <time>2025-04-25T16:12:16Z</time>
      </trkpt>
      <trkpt lat="43.560308972373605" lon="2.11940897628665">
        <ele>165</ele>
        <time>2025-04-25T16:12:22Z</time>
      </trkpt>
      <trkpt lat="43.560209982097149" lon="2.119310991838574">
        <ele>165</ele>
        <time>2025-04-25T16:12:23Z</time>
      </trkpt>
      <trkpt lat="43.559195017442107" lon="2.118494007736445">
        <ele>167.88999999999999</ele>
        <time>2025-04-25T16:12:33Z</time>
      </trkpt>
      <trkpt lat="43.558418015018106" lon="2.118016993626952">
        <ele>165.47999999999999</ele>
        <time>2025-04-25T16:12:43Z</time>
      </trkpt>
      <trkpt lat="43.557393997907639" lon="2.117437971755862">
        <ele>163.56</ele>
        <time>2025-04-25T16:12:55Z</time>
      </trkpt>
      <trkpt lat="43.557022009044886" lon="2.117230016738176">
        <ele>164.03999999999999</ele>
        <time>2025-04-25T16:13:01Z</time>
      </trkpt>
      <trkpt lat="43.557022009044886" lon="2.117230016738176">
        <ele>164.03999999999999</ele>
        <time>2025-04-25T16:13:02Z</time>
      </trkpt>
      <trkpt lat="43.556249029934406" lon="2.116812011227012">
        <ele>165.47999999999999</ele>
        <time>2025-04-25T16:13:14Z</time>
      </trkpt>
      <trkpt lat="43.556221034377813" lon="2.116799019277096">
        <ele>165.47999999999999</ele>
        <time>2025-04-25T16:13:15Z</time>
      </trkpt>
      <trkpt lat="43.556134030222893" lon="2.116733975708485">
        <ele>165.47999999999999</ele>
        <time>2025-04-25T16:13:16Z</time>
      </trkpt>
      <trkpt lat="43.556068986654282" lon="2.116698017343879">
        <ele>165.47999999999999</ele>
        <time>2025-04-25T16:13:17Z</time>
      </trkpt>
      <trkpt lat="43.555653998628259" lon="2.116466006264091">
        <ele>165.47999999999999</ele>
        <time>2025-04-25T16:13:26Z</time>
      </trkpt>
      <trkpt lat="43.555603036656976" lon="2.116437004879117">
        <ele>165.47999999999999</ele>
        <time>2025-04-25T16:13:27Z</time>
      </trkpt>
      <trkpt lat="43.555474961176515" lon="2.116372967138887">
        <ele>165</ele>
        <time>2025-04-25T16:13:29Z</time>
      </trkpt>
      <trkpt lat="43.555403966456652" lon="2.116337008774281">
        <ele>164.52000000000001</ele>
        <time>2025-04-25T16:13:30Z</time>
      </trkpt>
      <trkpt lat="43.554821005091071" lon="2.116003995761275">
        <ele>163.08000000000001</ele>
        <time>2025-04-25T16:13:38Z</time>
      </trkpt>
      <trkpt lat="43.554747998714447" lon="2.115962002426386">
        <ele>163.08000000000001</ele>
        <time>2025-04-25T16:13:39Z</time>
      </trkpt>
      <trkpt lat="43.554487992078066" lon="2.115811966359615">
        <ele>162.59999999999999</ele>
        <time>2025-04-25T16:13:43Z</time>
      </trkpt>
      <trkpt lat="43.554435018450022" lon="2.115781959146261">
        <ele>162.59999999999999</ele>
        <time>2025-04-25T16:13:44Z</time>
      </trkpt>
      <trkpt lat="43.554116003215313" lon="2.115607028827071">
        <ele>162.12</ele>
        <time>2025-04-25T16:13:53Z</time>
      </trkpt>
      <trkpt lat="43.553869994357228" lon="2.115479037165642">
        <ele>162.12</ele>
        <time>2025-04-25T16:14:00Z</time>
      </trkpt>
      <trkpt lat="43.553246967494488" lon="2.115123979747295">
        <ele>161.63999999999999</ele>
        <time>2025-04-25T16:14:11Z</time>
      </trkpt>
      <trkpt lat="43.553135991096497" lon="2.115044016391039">
        <ele>161.63999999999999</ele>
        <time>2025-04-25T16:14:19Z</time>
      </trkpt>
      <trkpt lat="43.553085029125214" lon="2.114993976429105">
        <ele>162.12</ele>
        <time>2025-04-25T16:14:20Z</time>
      </trkpt>
      <trkpt lat="43.553027026355267" lon="2.114935973659158">
        <ele>162.12</ele>
        <time>2025-04-25T16:14:21Z</time>
      </trkpt>
      <trkpt lat="43.552966006100178" lon="2.114875037223101">
        <ele>162.12</ele>
        <time>2025-04-25T16:14:22Z</time>
      </trkpt>
      <trkpt lat="43.552904985845089" lon="2.114814016968012">
        <ele>162.59999999999999</ele>
        <time>2025-04-25T16:14:23Z</time>
      </trkpt>
      <trkpt lat="43.552839020267129" lon="2.114762971177697">
        <ele>163.08000000000001</ele>
        <time>2025-04-25T16:14:24Z</time>
      </trkpt>
      <trkpt lat="43.552773976698518" lon="2.114716032519937">
        <ele>163.08000000000001</ele>
        <time>2025-04-25T16:14:25Z</time>
      </trkpt>
      <trkpt lat="43.552075009793043" lon="2.114258967339993">
        <ele>163.56</ele>
        <time>2025-04-25T16:14:36Z</time>
      </trkpt>
      <trkpt lat="43.551978031173348" lon="2.114199036732316">
        <ele>163.56</ele>
        <time>2025-04-25T16:14:38Z</time>
      </trkpt>
      <trkpt lat="43.551922040060163" lon="2.114157965406776">
        <ele>163.08000000000001</ele>
        <time>2025-04-25T16:14:39Z</time>
      </trkpt>
      <trkpt lat="43.551071025431156" lon="2.113601993769407">
        <ele>163.08000000000001</ele>
        <time>2025-04-25T16:14:48Z</time>
      </trkpt>
      <trkpt lat="43.550180029124022" lon="2.113010985776782">
        <ele>162.59999999999999</ele>
        <time>2025-04-25T16:14:57Z</time>
      </trkpt>
      <trkpt lat="43.54897303506732" lon="2.112346971407533">
        <ele>162.12</ele>
        <time>2025-04-25T16:15:07Z</time>
      </trkpt>
      <trkpt lat="43.547594966366887" lon="2.112053018063307">
        <ele>164.52000000000001</ele>
        <time>2025-04-25T16:15:18Z</time>
      </trkpt>
      <trkpt lat="43.546382021158934" lon="2.111582038924098">
        <ele>165.47999999999999</ele>
        <time>2025-04-25T16:15:25Z</time>
      </trkpt>
      <trkpt lat="43.544254023581743" lon="2.110528014600277">
        <ele>165</ele>
        <time>2025-04-25T16:15:35Z</time>
      </trkpt>
      <trkpt lat="43.542153015732765" lon="2.109324960038066">
        <ele>166.44999999999999</ele>
        <time>2025-04-25T16:15:45Z</time>
      </trkpt>
      <trkpt lat="43.540748963132501" lon="2.107838010415435">
        <ele>168.84999999999999</ele>
        <time>2025-04-25T16:15:53Z</time>
      </trkpt>
      <trkpt lat="43.53997103869915" lon="2.107085986062884">
        <ele>169.81</ele>
        <time>2025-04-25T16:16:00Z</time>
      </trkpt>
      <trkpt lat="43.538800003007054" lon="2.106295991688967">
        <ele>170.77000000000001</ele>
        <time>2025-04-25T16:16:11Z</time>
      </trkpt>
      <trkpt lat="43.537722006440163" lon="2.105565005913377">
        <ele>173.16999999999999</ele>
        <time>2025-04-25T16:16:21Z</time>
      </trkpt>
      <trkpt lat="43.537215990945697" lon="2.105116993188858">
        <ele>175.09999999999999</ele>
        <time>2025-04-25T16:16:26Z</time>
      </trkpt>
      <trkpt lat="43.537120018154383" lon="2.105011967942119">
        <ele>175.58000000000001</ele>
        <time>2025-04-25T16:16:27Z</time>
      </trkpt>
      <trkpt lat="43.537022033706307" lon="2.10490501485765">
        <ele>175.58000000000001</ele>
        <time>2025-04-25T16:16:28Z</time>
      </trkpt>
      <trkpt lat="43.536519035696983" lon="2.104430012404919">
        <ele>175.09999999999999</ele>
        <time>2025-04-25T16:16:33Z</time>
      </trkpt>
      <trkpt lat="43.536411998793483" lon="2.104358011856675">
        <ele>174.62</ele>
        <time>2025-04-25T16:16:34Z</time>
      </trkpt>
      <trkpt lat="43.536304039880633" lon="2.104288022965193">
        <ele>174.13999999999999</ele>
        <time>2025-04-25T16:16:35Z</time>
      </trkpt>
      <trkpt lat="43.535143984481692" lon="2.103793993592262">
        <ele>169.81</ele>
        <time>2025-04-25T16:16:45Z</time>
      </trkpt>
      <trkpt lat="43.534106975421309" lon="2.102911965921521">
        <ele>168.84999999999999</ele>
        <time>2025-04-25T16:16:55Z</time>
      </trkpt>
      <trkpt lat="43.533384036272764" lon="2.102077966555953">
        <ele>169.81</ele>
        <time>2025-04-25T16:17:01Z</time>
      </trkpt>
      <trkpt lat="43.531912006437778" lon="2.100430000573397">
        <ele>169.81</ele>
        <time>2025-04-25T16:17:10Z</time>
      </trkpt>
      <trkpt lat="43.529721982777119" lon="2.098516998812556">
        <ele>170.77000000000001</ele>
        <time>2025-04-25T16:17:21Z</time>
      </trkpt>
      <trkpt lat="43.528177030384541" lon="2.096967017278075">
        <ele>174.62</ele>
        <time>2025-04-25T16:17:29Z</time>
      </trkpt>
      <trkpt lat="43.526997026056051" lon="2.095207991078496">
        <ele>175.09999999999999</ele>
        <time>2025-04-25T16:17:37Z</time>
      </trkpt>
      <trkpt lat="43.525503035634756" lon="2.092677997425199">
        <ele>170.77000000000001</ele>
        <time>2025-04-25T16:17:48Z</time>
      </trkpt>
      <trkpt lat="43.524812031537294" lon="2.090723002329469">
        <ele>171.25</ele>
        <time>2025-04-25T16:17:55Z</time>
      </trkpt>
      <trkpt lat="43.523825984448195" lon="2.086865985766053">
        <ele>174.13999999999999</ele>
        <time>2025-04-25T16:18:08Z</time>
      </trkpt>
      <trkpt lat="43.523090975359082" lon="2.083946987986565">
        <ele>174.13999999999999</ele>
        <time>2025-04-25T16:18:18Z</time>
      </trkpt>
      <trkpt lat="43.522281032055616" lon="2.080592969432473">
        <ele>172.69</ele>
        <time>2025-04-25T16:18:29Z</time>
      </trkpt>
      <trkpt lat="43.521140003576875" lon="2.075893990695477">
        <ele>173.66</ele>
        <time>2025-04-25T16:18:44Z</time>
      </trkpt>
      <trkpt lat="43.520388985052705" lon="2.07362400367856">
        <ele>175.58000000000001</ele>
        <time>2025-04-25T16:18:52Z</time>
      </trkpt>
      <trkpt lat="43.519422970712185" lon="2.071853997185826">
        <ele>176.06</ele>
        <time>2025-04-25T16:18:59Z</time>
      </trkpt>
      <trkpt lat="43.518003998324275" lon="2.069714013487101">
        <ele>176.06</ele>
        <time>2025-04-25T16:19:08Z</time>
      </trkpt>
      <trkpt lat="43.515858985483646" lon="2.067839987576008">
        <ele>175.58000000000001</ele>
        <time>2025-04-25T16:19:19Z</time>
      </trkpt>
      <trkpt lat="43.513828972354531" lon="2.066134018823504">
        <ele>176.53999999999999</ele>
        <time>2025-04-25T16:19:30Z</time>
      </trkpt>
      <trkpt lat="43.512024013325572" lon="2.064540032297373">
        <ele>182.78999999999999</ele>
        <time>2025-04-25T16:19:40Z</time>
      </trkpt>
      <trkpt lat="43.510642005130649" lon="2.062683021649718">
        <ele>187.11000000000001</ele>
        <time>2025-04-25T16:19:48Z</time>
      </trkpt>
      <trkpt lat="43.508633030578494" lon="2.05976796336472">
        <ele>190.96000000000001</ele>
        <time>2025-04-25T16:20:00Z</time>
      </trkpt>
      <trkpt lat="43.507150020450354" lon="2.057632002979517">
        <ele>191.91999999999999</ele>
        <time>2025-04-25T16:20:09Z</time>
      </trkpt>
      <trkpt lat="43.505042977631092" lon="2.054570009931922">
        <ele>196.72999999999999</ele>
        <time>2025-04-25T16:20:23Z</time>
      </trkpt>
      <trkpt lat="43.503649989143014" lon="2.052533961832523">
        <ele>200.56999999999999</ele>
        <time>2025-04-25T16:20:33Z</time>
      </trkpt>
      <trkpt lat="43.502580961212516" lon="2.050985991954804">
        <ele>204.41999999999999</ele>
        <time>2025-04-25T16:20:42Z</time>
      </trkpt>
      <trkpt lat="43.501345971599221" lon="2.049206010997295">
        <ele>204.90000000000001</ele>
        <time>2025-04-25T16:20:52Z</time>
      </trkpt>
      <trkpt lat="43.500449024140835" lon="2.047902960330248">
        <ele>206.81999999999999</ele>
        <time>2025-04-25T16:20:59Z</time>
      </trkpt>
      <trkpt lat="43.498908011242747" lon="2.045731963589788">
        <ele>210.66999999999999</ele>
        <time>2025-04-25T16:21:10Z</time>
      </trkpt>
      <trkpt lat="43.498565023764968" lon="2.045388976112008">
        <ele>210.19</ele>
        <time>2025-04-25T16:21:12Z</time>
      </trkpt>
      <trkpt lat="43.498384980484843" lon="2.045261990278959">
        <ele>209.69999999999999</ele>
        <time>2025-04-25T16:21:13Z</time>
      </trkpt>
      <trkpt lat="43.498195968568325" lon="2.045146990567446">
        <ele>208.74000000000001</ele>
        <time>2025-04-25T16:21:14Z</time>
      </trkpt>
      <trkpt lat="43.498006034642458" lon="2.045037019997835">
        <ele>208.25999999999999</ele>
        <time>2025-04-25T16:21:15Z</time>
      </trkpt>
      <trkpt lat="43.497803024947643" lon="2.04496200196445">
        <ele>206.81999999999999</ele>
        <time>2025-04-25T16:21:16Z</time>
      </trkpt>
      <trkpt lat="43.496764004230499" lon="2.044465038925409">
        <ele>202.00999999999999</ele>
        <time>2025-04-25T16:21:21Z</time>
      </trkpt>
      <trkpt lat="43.495076978579164" lon="2.042863005772233">
        <ele>192.88</ele>
        <time>2025-04-25T16:21:30Z</time>
      </trkpt>
      <trkpt lat="43.493555998429656" lon="2.041110014542937">
        <ele>188.08000000000001</ele>
        <time>2025-04-25T16:21:39Z</time>
      </trkpt>
      <trkpt lat="43.49124401807785" lon="2.038464015349746">
        <ele>192.88</ele>
        <time>2025-04-25T16:21:53Z</time>
      </trkpt>
      <trkpt lat="43.489324981346726" lon="2.036072993651032">
        <ele>198.16999999999999</ele>
        <time>2025-04-25T16:22:05Z</time>
      </trkpt>
      <trkpt lat="43.487653965130448" lon="2.033699993044138">
        <ele>203.46000000000001</ele>
        <time>2025-04-25T16:22:16Z</time>
      </trkpt>
      <trkpt lat="43.486674036830664" lon="2.031556991860271">
        <ele>202.49000000000001</ele>
        <time>2025-04-25T16:22:24Z</time>
      </trkpt>
      <trkpt lat="43.485476011410356" lon="2.029049964621663">
        <ele>205.86000000000001</ele>
        <time>2025-04-25T16:22:35Z</time>
      </trkpt>
      <trkpt lat="43.484228029847145" lon="2.026407988741994">
        <ele>207.78</ele>
        <time>2025-04-25T16:22:47Z</time>
      </trkpt>
      <trkpt lat="43.483218010514975" lon="2.024672012776136">
        <ele>207.78</ele>
        <time>2025-04-25T16:22:56Z</time>
      </trkpt>
      <trkpt lat="43.481687977910042" lon="2.02244401909411">
        <ele>210.66999999999999</ele>
        <time>2025-04-25T16:23:08Z</time>
      </trkpt>
      <trkpt lat="43.479917971417308" lon="2.020201021805406">
        <ele>211.63</ele>
        <time>2025-04-25T16:23:20Z</time>
      </trkpt>
      <trkpt lat="43.478252990171313" lon="2.01814997009933">
        <ele>210.19</ele>
        <time>2025-04-25T16:23:30Z</time>
      </trkpt>
      <trkpt lat="43.476824965327978" lon="2.016448024660349">
        <ele>210.66999999999999</ele>
        <time>2025-04-25T16:23:40Z</time>
      </trkpt>
      <trkpt lat="43.476713988929987" lon="2.016330007463694">
        <ele>210.66999999999999</ele>
        <time>2025-04-25T16:23:41Z</time>
      </trkpt>
      <trkpt lat="43.476603012531996" lon="2.016238979995251">
        <ele>210.66999999999999</ele>
        <time>2025-04-25T16:23:42Z</time>
      </trkpt>
      <trkpt lat="43.476408971473575" lon="2.016091039404273">
        <ele>210.66999999999999</ele>
        <time>2025-04-25T16:23:44Z</time>
      </trkpt>
      <trkpt lat="43.476355997845531" lon="2.015841007232666">
        <ele>210.19</ele>
        <time>2025-04-25T16:23:45Z</time>
      </trkpt>
      <trkpt lat="43.476348035037518" lon="2.015816029161215">
        <ele>210.19</ele>
        <time>2025-04-25T16:23:46Z</time>
      </trkpt>
      <trkpt lat="43.476310987025499" lon="2.015691976994276">
        <ele>210.19</ele>
        <time>2025-04-25T16:23:47Z</time>
      </trkpt>
      <trkpt lat="43.476210990920663" lon="2.015579994767904">
        <ele>209.69999999999999</ele>
        <time>2025-04-25T16:23:48Z</time>
      </trkpt>
      <trkpt lat="43.476141002029181" lon="2.015541018918157">
        <ele>209.69999999999999</ele>
        <time>2025-04-25T16:23:49Z</time>
      </trkpt>
      <trkpt lat="43.476019967347383" lon="2.015541018918157">
        <ele>209.22</ele>
        <time>2025-04-25T16:23:50Z</time>
      </trkpt>
      <trkpt lat="43.475936986505985" lon="2.015616036951542">
        <ele>208.74000000000001</ele>
        <time>2025-04-25T16:23:51Z</time>
      </trkpt>
      <trkpt lat="43.475926006212831" lon="2.015626011416316">
        <ele>208.74000000000001</ele>
        <time>2025-04-25T16:23:52Z</time>
      </trkpt>
      <trkpt lat="43.475701035931706" lon="2.015775041654706">
        <ele>208.25999999999999</ele>
        <time>2025-04-25T16:23:53Z</time>
      </trkpt>
      <trkpt lat="43.475576983764768" lon="2.015754003077745">
        <ele>207.78</ele>
        <time>2025-04-25T16:23:54Z</time>
      </trkpt>
      <trkpt lat="43.475446980446577" lon="2.015717960894108">
        <ele>207.78</ele>
        <time>2025-04-25T16:23:55Z</time>
      </trkpt>
      <trkpt lat="43.475304991006851" lon="2.015664987266064">
        <ele>207.30000000000001</ele>
        <time>2025-04-25T16:23:56Z</time>
      </trkpt>
      <trkpt lat="43.475167024880648" lon="2.015579994767904">
        <ele>206.81999999999999</ele>
        <time>2025-04-25T16:23:57Z</time>
      </trkpt>
      <trkpt lat="43.475023023784161" lon="2.015490978956223">
        <ele>205.86000000000001</ele>
        <time>2025-04-25T16:23:58Z</time>
      </trkpt>
      <trkpt lat="43.473575972020626" lon="2.014507027342916">
        <ele>202.97999999999999</ele>
        <time>2025-04-25T16:24:07Z</time>
      </trkpt>
      <trkpt lat="43.472592020407319" lon="2.013801019638777">
        <ele>202.97999999999999</ele>
        <time>2025-04-25T16:24:14Z</time>
      </trkpt>
      <trkpt lat="43.471300033852458" lon="2.012880016118288">
        <ele>203.46000000000001</ele>
        <time>2025-04-25T16:24:26Z</time>
      </trkpt>
      <trkpt lat="43.469675034284592" lon="2.011719960719347">
        <ele>205.38</ele>
        <time>2025-04-25T16:24:41Z</time>
      </trkpt>
      <trkpt lat="43.468587985262275" lon="2.010969026014209">
        <ele>205.38</ele>
        <time>2025-04-25T16:24:51Z</time>
      </trkpt>
      <trkpt lat="43.467508982867002" lon="2.010206021368504">
        <ele>207.78</ele>
        <time>2025-04-25T16:25:01Z</time>
      </trkpt>
      <trkpt lat="43.46655503846705" lon="2.009520968422294">
        <ele>207.30000000000001</ele>
        <time>2025-04-25T16:25:11Z</time>
      </trkpt>
      <trkpt lat="43.465016959235072" lon="2.008469961583614">
        <ele>206.81999999999999</ele>
        <time>2025-04-25T16:25:24Z</time>
      </trkpt>
      <trkpt lat="43.464905982837081" lon="2.0083930157125">
        <ele>206.81999999999999</ele>
        <time>2025-04-25T16:25:25Z</time>
      </trkpt>
      <trkpt lat="43.464799029752612" lon="2.008317997679114">
        <ele>206.81999999999999</ele>
        <time>2025-04-25T16:25:26Z</time>
      </trkpt>
      <trkpt lat="43.463761014863849" lon="2.00755700469017">
        <ele>208.74000000000001</ele>
        <time>2025-04-25T16:25:36Z</time>
      </trkpt>
      <trkpt lat="43.463682979345322" lon="2.007501013576984">
        <ele>208.74000000000001</ele>
        <time>2025-04-25T16:25:37Z</time>
      </trkpt>
      <trkpt lat="43.463545013219118" lon="2.007430018857122">
        <ele>208.74000000000001</ele>
        <time>2025-04-25T16:25:38Z</time>
      </trkpt>
      <trkpt lat="43.462790977209806" lon="2.006882010027766">
        <ele>207.30000000000001</ele>
        <time>2025-04-25T16:25:47Z</time>
      </trkpt>
      <trkpt lat="43.462257971987128" lon="2.006495017558336">
        <ele>207.30000000000001</ele>
        <time>2025-04-25T16:25:54Z</time>
      </trkpt>
      <trkpt lat="43.462197035551071" lon="2.006445983424783">
        <ele>206.81999999999999</ele>
        <time>2025-04-25T16:25:55Z</time>
      </trkpt>
      <trkpt lat="43.462151018902659" lon="2.006270969286561">
        <ele>206.81999999999999</ele>
        <time>2025-04-25T16:25:56Z</time>
      </trkpt>
      <trkpt lat="43.462151018902659" lon="2.006255965679884">
        <ele>206.81999999999999</ele>
        <time>2025-04-25T16:25:57Z</time>
      </trkpt>
      <trkpt lat="43.462111037224531" lon="2.006134008988738">
        <ele>206.34</ele>
        <time>2025-04-25T16:25:58Z</time>
      </trkpt>
      <trkpt lat="43.462065020576119" lon="2.006098972633481">
        <ele>205.86000000000001</ele>
        <time>2025-04-25T16:25:59Z</time>
      </trkpt>
      <trkpt lat="43.461979022249579" lon="2.006141971796751">
        <ele>205.38</ele>
        <time>2025-04-25T16:26:00Z</time>
      </trkpt>
      <trkpt lat="43.461979022249579" lon="2.006141971796751">
        <ele>205.38</ele>
        <time>2025-04-25T16:26:01Z</time>
      </trkpt>
      <trkpt lat="43.461979022249579" lon="2.006141971796751">
        <ele>204.90000000000001</ele>
        <time>2025-04-25T16:26:02Z</time>
      </trkpt>
      <trkpt lat="43.461748016998172" lon="2.006098972633481">
        <ele>204.41999999999999</ele>
        <time>2025-04-25T16:26:03Z</time>
      </trkpt>
      <trkpt lat="43.460720982402563" lon="2.00540604069829">
        <ele>203.94</ele>
        <time>2025-04-25T16:26:15Z</time>
      </trkpt>
      <trkpt lat="43.460494000464678" lon="2.005215017125011">
        <ele>203.94</ele>
        <time>2025-04-25T16:26:18Z</time>
      </trkpt>
      <trkpt lat="43.460438009351492" lon="2.005159026011825">
        <ele>204.41999999999999</ele>
        <time>2025-04-25T16:26:19Z</time>
      </trkpt>
      <trkpt lat="43.4603909868747" lon="2.004961967468262">
        <ele>204.90000000000001</ele>
        <time>2025-04-25T16:26:20Z</time>
      </trkpt>
      <trkpt lat="43.4603909868747" lon="2.004961967468262">
        <ele>205.38</ele>
        <time>2025-04-25T16:26:21Z</time>
      </trkpt>
      <trkpt lat="43.460370032116771" lon="2.004908993840218">
        <ele>205.38</ele>
        <time>2025-04-25T16:26:22Z</time>
      </trkpt>
      <trkpt lat="43.460354022681713" lon="2.004798017442226">
        <ele>205.86000000000001</ele>
        <time>2025-04-25T16:26:23Z</time>
      </trkpt>
      <trkpt lat="43.460365002974868" lon="2.004705984145403">
        <ele>206.34</ele>
        <time>2025-04-25T16:26:24Z</time>
      </trkpt>
      <trkpt lat="43.460297025740147" lon="2.003829991444945">
        <ele>209.22</ele>
        <time>2025-04-25T16:26:35Z</time>
      </trkpt>
      <trkpt lat="43.460195017978549" lon="2.00310898013413">
        <ele>211.15000000000001</ele>
        <time>2025-04-25T16:26:44Z</time>
      </trkpt>
      <trkpt lat="43.460195017978549" lon="2.00310898013413">
        <ele>211.15000000000001</ele>
        <time>2025-04-25T16:26:45Z</time>
      </trkpt>
      <trkpt lat="43.460139026865363" lon="2.002977970987558">
        <ele>212.11000000000001</ele>
        <time>2025-04-25T16:26:53Z</time>
      </trkpt>
      <trkpt lat="43.460139026865363" lon="2.002977970987558">
        <ele>214.99000000000001</ele>
        <time>2025-04-25T16:27:16Z</time>
      </trkpt>
      <trkpt lat="43.460049005225301" lon="2.002873029559851">
        <ele>214.50999999999999</ele>
        <time>2025-04-25T16:27:29Z</time>
      </trkpt>
      <trkpt lat="43.459705011919141" lon="2.002500034868717">
        <ele>213.55000000000001</ele>
        <time>2025-04-25T16:27:36Z</time>
      </trkpt>
      <trkpt lat="43.459264962002635" lon="2.002158975228667">
        <ele>211.63</ele>
        <time>2025-04-25T16:27:42Z</time>
      </trkpt>
      <trkpt lat="43.459212994202971" lon="2.002114970237017">
        <ele>211.15000000000001</ele>
        <time>2025-04-25T16:27:43Z</time>
      </trkpt>
      <trkpt lat="43.458515033125877" lon="2.001555981114507">
        <ele>207.78</ele>
        <time>2025-04-25T16:27:53Z</time>
      </trkpt>
      <trkpt lat="43.458433980122209" lon="2.001515999436379">
        <ele>207.78</ele>
        <time>2025-04-25T16:27:54Z</time>
      </trkpt>
      <trkpt lat="43.458360973745584" lon="2.001514993607998">
        <ele>207.30000000000001</ele>
        <time>2025-04-25T16:27:55Z</time>
      </trkpt>
      <trkpt lat="43.458275981247425" lon="2.001526979729533">
        <ele>207.30000000000001</ele>
        <time>2025-04-25T16:27:56Z</time>
      </trkpt>
      <trkpt lat="43.458193000406027" lon="2.001538965851069">
        <ele>206.81999999999999</ele>
        <time>2025-04-25T16:27:57Z</time>
      </trkpt>
      <trkpt lat="43.457776000723243" lon="2.001535026356578">
        <ele>206.34</ele>
        <time>2025-04-25T16:28:02Z</time>
      </trkpt>
      <trkpt lat="43.457674998790026" lon="2.00151901692152">
        <ele>206.34</ele>
        <time>2025-04-25T16:28:03Z</time>
      </trkpt>
      <trkpt lat="43.457596963271499" lon="2.001460008323193">
        <ele>206.81999999999999</ele>
        <time>2025-04-25T16:28:05Z</time>
      </trkpt>
      <trkpt lat="43.457257999107242" lon="2.001220034435391">
        <ele>207.78</ele>
        <time>2025-04-25T16:28:08Z</time>
      </trkpt>
      <trkpt lat="43.457172000780702" lon="2.001152979210019">
        <ele>207.78</ele>
        <time>2025-04-25T16:28:09Z</time>
      </trkpt>
      <trkpt lat="43.456358034163713" lon="2.000592984259129">
        <ele>209.22</ele>
        <time>2025-04-25T16:28:19Z</time>
      </trkpt>
      <trkpt lat="43.456100039184093" lon="2.000433979555965">
        <ele>208.74000000000001</ele>
        <time>2025-04-25T16:28:23Z</time>
      </trkpt>
      <trkpt lat="43.456097021698952" lon="2.000421993434429">
        <ele>208.74000000000001</ele>
        <time>2025-04-25T16:28:24Z</time>
      </trkpt>
      <trkpt lat="43.456077994778752" lon="2.000327026471496">
        <ele>208.25999999999999</ele>
        <time>2025-04-25T16:28:34Z</time>
      </trkpt>
      <trkpt lat="43.456061985343695" lon="2.000318979844451">
        <ele>208.74000000000001</ele>
        <time>2025-04-25T16:28:35Z</time>
      </trkpt>
      <trkpt lat="43.455991996452212" lon="2.000284027308226">
        <ele>208.25999999999999</ele>
        <time>2025-04-25T16:28:36Z</time>
      </trkpt>
      <trkpt lat="43.455975987017155" lon="2.000214960426092">
        <ele>208.25999999999999</ele>
        <time>2025-04-25T16:28:37Z</time>
      </trkpt>
      <trkpt lat="43.455958971753716" lon="2.000141032040119">
        <ele>208.25999999999999</ele>
        <time>2025-04-25T16:28:38Z</time>
      </trkpt>
      <trkpt lat="43.455940028652549" lon="2.00005897320807">
        <ele>208.25999999999999</ele>
        <time>2025-04-25T16:28:39Z</time>
      </trkpt>
      <trkpt lat="43.455640040338039" lon="1.998864971101284">
        <ele>210.19</ele>
        <time>2025-04-25T16:28:50Z</time>
      </trkpt>
      <trkpt lat="43.455381039530039" lon="1.997626964002848">
        <ele>211.15000000000001</ele>
        <time>2025-04-25T16:28:59Z</time>
      </trkpt>
      <trkpt lat="43.455110974609852" lon="1.996390968561173">
        <ele>212.11000000000001</ele>
        <time>2025-04-25T16:29:09Z</time>
      </trkpt>
      <trkpt lat="43.455054983496666" lon="1.996121993288398">
        <ele>212.11000000000001</ele>
        <time>2025-04-25T16:29:11Z</time>
      </trkpt>
      <trkpt lat="43.454844010993838" lon="1.995207024738193">
        <ele>211.63</ele>
        <time>2025-04-25T16:29:18Z</time>
      </trkpt>
      <trkpt lat="43.454820960760117" lon="1.995108034461737">
        <ele>212.11000000000001</ele>
        <time>2025-04-25T16:29:19Z</time>
      </trkpt>
      <trkpt lat="43.454670002683997" lon="1.994382999837399">
        <ele>212.59</ele>
        <time>2025-04-25T16:29:27Z</time>
      </trkpt>
      <trkpt lat="43.454555002972484" lon="1.99348202906549">
        <ele>213.55000000000001</ele>
        <time>2025-04-25T16:29:34Z</time>
      </trkpt>
      <trkpt lat="43.454557014629245" lon="1.993468031287193">
        <ele>213.06999999999999</ele>
        <time>2025-04-25T16:29:35Z</time>
      </trkpt>
      <trkpt lat="43.454565983265638" lon="1.993325036019087">
        <ele>213.06999999999999</ele>
        <time>2025-04-25T16:29:36Z</time>
      </trkpt>
      <trkpt lat="43.454532958567142" lon="1.993223028257489">
        <ele>212.59</ele>
        <time>2025-04-25T16:29:37Z</time>
      </trkpt>
      <trkpt lat="43.454446960240602" lon="1.993116997182369">
        <ele>212.59</ele>
        <time>2025-04-25T16:29:38Z</time>
      </trkpt>
      <trkpt lat="43.454421982169151" lon="1.993038039654493">
        <ele>212.59</ele>
        <time>2025-04-25T16:29:39Z</time>
      </trkpt>
      <trkpt lat="43.454387029632926" lon="1.99292303994298">
        <ele>212.59</ele>
        <time>2025-04-25T16:29:40Z</time>
      </trkpt>
      <trkpt lat="43.454346964135766" lon="1.99279798194766">
        <ele>212.11000000000001</ele>
        <time>2025-04-25T16:29:41Z</time>
      </trkpt>
      <trkpt lat="43.453998025506735" lon="1.991302985697985">
        <ele>211.15000000000001</ele>
        <time>2025-04-25T16:29:50Z</time>
      </trkpt>
      <trkpt lat="43.453603992238641" lon="1.989499032497406">
        <ele>212.11000000000001</ele>
        <time>2025-04-25T16:30:00Z</time>
      </trkpt>
      <trkpt lat="43.453062018379569" lon="1.986975995823741">
        <ele>212.11000000000001</ele>
        <time>2025-04-25T16:30:14Z</time>
      </trkpt>
      <trkpt lat="43.452601013705134" lon="1.984859984368086">
        <ele>212.11000000000001</ele>
        <time>2025-04-25T16:30:26Z</time>
      </trkpt>
      <trkpt lat="43.4521400090307" lon="1.982670966535807">
        <ele>211.15000000000001</ele>
        <time>2025-04-25T16:30:38Z</time>
      </trkpt>
      <trkpt lat="43.451743964105844" lon="1.980900038033724">
        <ele>213.55000000000001</ele>
        <time>2025-04-25T16:30:47Z</time>
      </trkpt>
      <trkpt lat="43.451629970222712" lon="1.980407014489174">
        <ele>214.99000000000001</ele>
        <time>2025-04-25T16:30:50Z</time>
      </trkpt>
      <trkpt lat="43.4515390265733" lon="1.979994038119912">
        <ele>215.94999999999999</ele>
        <time>2025-04-25T16:30:53Z</time>
      </trkpt>
      <trkpt lat="43.451636005192995" lon="1.979770995676518">
        <ele>215.94999999999999</ele>
        <time>2025-04-25T16:30:54Z</time>
      </trkpt>
      <trkpt lat="43.451637011021376" lon="1.979766972362995">
        <ele>216.43000000000001</ele>
        <time>2025-04-25T16:30:55Z</time>
      </trkpt>
      <trkpt lat="43.451671041548252" lon="1.979655995965004">
        <ele>216.43000000000001</ele>
        <time>2025-04-25T16:30:56Z</time>
      </trkpt>
      <trkpt lat="43.451688978821039" lon="1.979528004303575">
        <ele>215.94999999999999</ele>
        <time>2025-04-25T16:30:57Z</time>
      </trkpt>
      <trkpt lat="43.451650002971292" lon="1.979437982663512">
        <ele>215.94999999999999</ele>
        <time>2025-04-25T16:30:58Z</time>
      </trkpt>
      <trkpt lat="43.451636005192995" lon="1.979405963793397">
        <ele>215.94999999999999</ele>
        <time>2025-04-25T16:30:59Z</time>
      </trkpt>
      <trkpt lat="43.451460991054773" lon="1.979331029579043">
        <ele>215.47</ele>
        <time>2025-04-25T16:31:00Z</time>
      </trkpt>
      <trkpt lat="43.451426038518548" lon="1.979223992675543">
        <ele>215.47</ele>
        <time>2025-04-25T16:31:01Z</time>
      </trkpt>
      <trkpt lat="43.451426038518548" lon="1.979223992675543">
        <ele>215.47</ele>
        <time>2025-04-25T16:31:02Z</time>
      </trkpt>
      <trkpt lat="43.451385973021388" lon="1.979091977700591">
        <ele>215.47</ele>
        <time>2025-04-25T16:31:03Z</time>
      </trkpt>
      <trkpt lat="43.45130299217999" lon="1.978776985779405">
        <ele>215.47</ele>
        <time>2025-04-25T16:31:04Z</time>
      </trkpt>
      <trkpt lat="43.451256975531578" lon="1.978597026318312">
        <ele>215.47</ele>
        <time>2025-04-25T16:31:05Z</time>
      </trkpt>
      <trkpt lat="43.451207019388676" lon="1.978406002745032">
        <ele>215.47</ele>
        <time>2025-04-25T16:31:06Z</time>
      </trkpt>
      <trkpt lat="43.450952963903546" lon="1.977307973429561">
        <ele>212.11000000000001</ele>
        <time>2025-04-25T16:31:12Z</time>
      </trkpt>
      <trkpt lat="43.450842993333936" lon="1.976803969591856">
        <ele>212.11000000000001</ele>
        <time>2025-04-25T16:31:13Z</time>
      </trkpt>
      <trkpt lat="43.45027101226151" lon="1.974131986498833">
        <ele>213.06999999999999</ele>
        <time>2025-04-25T16:31:23Z</time>
      </trkpt>
      <trkpt lat="43.449729960411787" lon="1.971672987565398">
        <ele>211.63</ele>
        <time>2025-04-25T16:31:32Z</time>
      </trkpt>
      <trkpt lat="43.449268033728004" lon="1.969476006925106">
        <ele>211.15000000000001</ele>
        <time>2025-04-25T16:31:41Z</time>
      </trkpt>
      <trkpt lat="43.448656992986798" lon="1.966675026342273">
        <ele>212.11000000000001</ele>
        <time>2025-04-25T16:31:52Z</time>
      </trkpt>
      <trkpt lat="43.448253991082311" lon="1.964859003201127">
        <ele>215.94999999999999</ele>
        <time>2025-04-25T16:32:00Z</time>
      </trkpt>
      <trkpt lat="43.448022985830903" lon="1.963821994140744">
        <ele>216.43000000000001</ele>
        <time>2025-04-25T16:32:05Z</time>
      </trkpt>
      <trkpt lat="43.447512025013566" lon="1.961497021839023">
        <ele>210.66999999999999</ele>
        <time>2025-04-25T16:32:15Z</time>
      </trkpt>
      <trkpt lat="43.44694297760725" lon="1.958848005160689">
        <ele>209.69999999999999</ele>
        <time>2025-04-25T16:32:25Z</time>
      </trkpt>
      <trkpt lat="43.446538969874382" lon="1.956967022269964">
        <ele>210.19</ele>
        <time>2025-04-25T16:32:32Z</time>
      </trkpt>
      <trkpt lat="43.446091962978244" lon="1.954890992492437">
        <ele>210.19</ele>
        <time>2025-04-25T16:32:41Z</time>
      </trkpt>
      <trkpt lat="43.445654008537531" lon="1.952943960204721">
        <ele>211.63</ele>
        <time>2025-04-25T16:32:50Z</time>
      </trkpt>
      <trkpt lat="43.445463990792632" lon="1.952363010495901">
        <ele>211.63</ele>
        <time>2025-04-25T16:32:53Z</time>
      </trkpt>
      <trkpt lat="43.445382015779614" lon="1.952161006629467">
        <ele>211.63</ele>
        <time>2025-04-25T16:32:54Z</time>
      </trkpt>
      <trkpt lat="43.44526500441134" lon="1.952012982219458">
        <ele>211.15000000000001</ele>
        <time>2025-04-25T16:32:55Z</time>
      </trkpt>
      <trkpt lat="43.445127038285136" lon="1.951882978901267">
        <ele>211.15000000000001</ele>
        <time>2025-04-25T16:32:56Z</time>
      </trkpt>
      <trkpt lat="43.444972978904843" lon="1.951751969754696">
        <ele>210.66999999999999</ele>
        <time>2025-04-25T16:32:57Z</time>
      </trkpt>
      <trkpt lat="43.444812968373299" lon="1.951682986691594">
        <ele>210.66999999999999</ele>
        <time>2025-04-25T16:32:58Z</time>
      </trkpt>
      <trkpt lat="43.444633008912206" lon="1.951622972264886">
        <ele>210.66999999999999</ele>
        <time>2025-04-25T16:32:59Z</time>
      </trkpt>
      <trkpt lat="43.444460006430745" lon="1.951577961444855">
        <ele>210.66999999999999</ele>
        <time>2025-04-25T16:33:00Z</time>
      </trkpt>
      <trkpt lat="43.444265965372324" lon="1.951596988365054">
        <ele>210.19</ele>
        <time>2025-04-25T16:33:01Z</time>
      </trkpt>
      <trkpt lat="43.444068990647793" lon="1.951616015285254">
        <ele>210.19</ele>
        <time>2025-04-25T16:33:02Z</time>
      </trkpt>
      <trkpt lat="43.441454004496336" lon="1.952007031068206">
        <ele>210.66999999999999</ele>
        <time>2025-04-25T16:33:15Z</time>
      </trkpt>
      <trkpt lat="43.438853016123176" lon="1.952382959425449">
        <ele>211.63</ele>
        <time>2025-04-25T16:33:28Z</time>
      </trkpt>
      <trkpt lat="43.436617981642485" lon="1.952703986316919">
        <ele>213.55000000000001</ele>
        <time>2025-04-25T16:33:39Z</time>
      </trkpt>
      <trkpt lat="43.434063009917736" lon="1.953081004321575">
        <ele>218.84</ele>
        <time>2025-04-25T16:33:52Z</time>
      </trkpt>
      <trkpt lat="43.432145984843373" lon="1.953377975150943">
        <ele>222.19999999999999</ele>
        <time>2025-04-25T16:34:02Z</time>
      </trkpt>
      <trkpt lat="43.429985968396068" lon="1.953677963465452">
        <ele>225.09</ele>
        <time>2025-04-25T16:34:14Z</time>
      </trkpt>
      <trkpt lat="43.428230965510011" lon="1.953939981758595">
        <ele>227.49000000000001</ele>
        <time>2025-04-25T16:34:23Z</time>
      </trkpt>
      <trkpt lat="43.426069021224976" lon="1.954252040013671">
        <ele>228.93000000000001</ele>
        <time>2025-04-25T16:34:33Z</time>
      </trkpt>
      <trkpt lat="43.423708006739616" lon="1.954613970592618">
        <ele>228.93000000000001</ele>
        <time>2025-04-25T16:34:44Z</time>
      </trkpt>
      <trkpt lat="43.421153035014868" lon="1.954987971112132">
        <ele>232.30000000000001</ele>
        <time>2025-04-25T16:34:56Z</time>
      </trkpt>
      <trkpt lat="43.418146027252078" lon="1.955435983836651">
        <ele>238.53999999999999</ele>
        <time>2025-04-25T16:35:10Z</time>
      </trkpt>
      <trkpt lat="43.414899967610836" lon="1.955924984067679">
        <ele>249.59999999999999</ele>
        <time>2025-04-25T16:35:25Z</time>
      </trkpt>
      <trkpt lat="43.412249023094773" lon="1.956308959051967">
        <ele>256.32999999999998</ele>
        <time>2025-04-25T16:35:37Z</time>
      </trkpt>
      <trkpt lat="43.409454999491572" lon="1.956719001755118">
        <ele>262.10000000000002</ele>
        <time>2025-04-25T16:35:50Z</time>
      </trkpt>
      <trkpt lat="43.406974039971828" lon="1.957083027809858">
        <ele>269.31</ele>
        <time>2025-04-25T16:36:02Z</time>
      </trkpt>
      <trkpt lat="43.404757026582956" lon="1.957412017509341">
        <ele>284.69</ele>
        <time>2025-04-25T16:36:13Z</time>
      </trkpt>
      <trkpt lat="43.403231017291546" lon="1.957759028300643">
        <ele>294.77999999999997</ele>
        <time>2025-04-25T16:36:21Z</time>
      </trkpt>
      <trkpt lat="43.401763010770082" lon="1.958696963265538">
        <ele>301.50999999999999</ele>
        <time>2025-04-25T16:36:29Z</time>
      </trkpt>
      <trkpt lat="43.400821974501014" lon="1.95996799506247">
        <ele>304.88</ele>
        <time>2025-04-25T16:36:35Z</time>
      </trkpt>
      <trkpt lat="43.400011025369167" lon="1.962065985426307">
        <ele>308.72000000000003</ele>
        <time>2025-04-25T16:36:43Z</time>
      </trkpt>
      <trkpt lat="43.399062026292086" lon="1.965508013963699">
        <ele>308.72000000000003</ele>
        <time>2025-04-25T16:36:55Z</time>
      </trkpt>
      <trkpt lat="43.398947026580572" lon="1.965766008943319">
        <ele>308.24000000000001</ele>
        <time>2025-04-25T16:36:56Z</time>
      </trkpt>
      <trkpt lat="43.398803025484085" lon="1.965995002537966">
        <ele>308.24000000000001</ele>
        <time>2025-04-25T16:36:57Z</time>
      </trkpt>
      <trkpt lat="43.398644020780921" lon="1.966188959777355">
        <ele>307.75999999999999</ele>
        <time>2025-04-25T16:36:58Z</time>
      </trkpt>
      <trkpt lat="43.398455008864403" lon="1.9663489703089">
        <ele>307.27999999999997</ele>
        <time>2025-04-25T16:36:59Z</time>
      </trkpt>
      <trkpt lat="43.398264991119504" lon="1.966509986668825">
        <ele>306.80000000000001</ele>
        <time>2025-04-25T16:37:00Z</time>
      </trkpt>
      <trkpt lat="43.398070028051734" lon="1.966632027179003">
        <ele>306.31999999999999</ele>
        <time>2025-04-25T16:37:01Z</time>
      </trkpt>
      <trkpt lat="43.397852014750242" lon="1.966716013848782">
        <ele>306.31999999999999</ele>
        <time>2025-04-25T16:37:02Z</time>
      </trkpt>
      <trkpt lat="43.397630983963609" lon="1.96680000051856">
        <ele>305.83999999999997</ele>
        <time>2025-04-25T16:37:03Z</time>
      </trkpt>
      <trkpt lat="43.395861983299255" lon="1.967684039846063">
        <ele>298.63</ele>
        <time>2025-04-25T16:37:11Z</time>
      </trkpt>
      <trkpt lat="43.394419960677624" lon="1.968593979254365">
        <ele>291.89999999999998</ele>
        <time>2025-04-25T16:37:18Z</time>
      </trkpt>
      <trkpt lat="43.392833014950156" lon="1.970175979658961">
        <ele>284.20999999999998</ele>
        <time>2025-04-25T16:37:26Z</time>
      </trkpt>
      <trkpt lat="43.391670025885105" lon="1.971366964280605">
        <ele>279.39999999999998</ele>
        <time>2025-04-25T16:37:33Z</time>
      </trkpt>
      <trkpt lat="43.389831036329269" lon="1.972864978015423">
        <ele>272.19</ele>
        <time>2025-04-25T16:37:43Z</time>
      </trkpt>
      <trkpt lat="43.387817032635212" lon="1.974001983180642">
        <ele>265.45999999999998</ele>
        <time>2025-04-25T16:37:53Z</time>
      </trkpt>
      <trkpt lat="43.386080972850323" lon="1.974657028913498">
        <ele>258.73000000000002</ele>
        <time>2025-04-25T16:38:01Z</time>
      </trkpt>
      <trkpt lat="43.383524995297194" lon="1.975115016102791">
        <ele>246.22999999999999</ele>
        <time>2025-04-25T16:38:13Z</time>
      </trkpt>
      <trkpt lat="43.380866004154086" lon="1.975478958338499">
        <ele>235.18000000000001</ele>
        <time>2025-04-25T16:38:26Z</time>
      </trkpt>
      <trkpt lat="43.379460023716092" lon="1.975344009697437">
        <ele>231.81</ele>
        <time>2025-04-25T16:38:33Z</time>
      </trkpt>
      <trkpt lat="43.378548994660378" lon="1.974832965061069">
        <ele>231.81</ele>
        <time>2025-04-25T16:38:38Z</time>
      </trkpt>
      <trkpt lat="43.378397030755877" lon="1.97466298006475">
        <ele>231.81</ele>
        <time>2025-04-25T16:38:39Z</time>
      </trkpt>
      <trkpt lat="43.377983970567584" lon="1.97408203035593">
        <ele>231.81</ele>
        <time>2025-04-25T16:38:42Z</time>
      </trkpt>
      <trkpt lat="43.377756988629699" lon="1.973621025681496">
        <ele>231.81</ele>
        <time>2025-04-25T16:38:44Z</time>
      </trkpt>
      <trkpt lat="43.377667972818017" lon="1.973370993509889">
        <ele>231.81</ele>
        <time>2025-04-25T16:38:45Z</time>
      </trkpt>
      <trkpt lat="43.377580968663096" lon="1.973120961338282">
        <ele>231.81</ele>
        <time>2025-04-25T16:38:46Z</time>
      </trkpt>
      <trkpt lat="43.377072019502521" lon="1.970749972388148">
        <ele>233.25999999999999</ele>
        <time>2025-04-25T16:38:55Z</time>
      </trkpt>
      <trkpt lat="43.376890970394015" lon="1.970273964107037">
        <ele>233.74000000000001</ele>
        <time>2025-04-25T16:38:57Z</time>
      </trkpt>
      <trkpt lat="43.376791980117559" lon="1.970039019361138">
        <ele>233.74000000000001</ele>
        <time>2025-04-25T16:38:58Z</time>
      </trkpt>
      <trkpt lat="43.375754971057177" lon="1.968759018927813">
        <ele>235.18000000000001</ele>
        <time>2025-04-25T16:39:05Z</time>
      </trkpt>
      <trkpt lat="43.375576017424464" lon="1.968656005337834">
        <ele>235.18000000000001</ele>
        <time>2025-04-25T16:39:06Z</time>
      </trkpt>
      <trkpt lat="43.374003991484642" lon="1.967970030382276">
        <ele>230.84999999999999</ele>
        <time>2025-04-25T16:39:14Z</time>
      </trkpt>
      <trkpt lat="43.371110977604985" lon="1.966918017715216">
        <ele>218.36000000000001</ele>
        <time>2025-04-25T16:39:28Z</time>
      </trkpt>
      <trkpt lat="43.36866999976337" lon="1.966011011973023">
        <ele>203.94</ele>
        <time>2025-04-25T16:39:40Z</time>
      </trkpt>
      <trkpt lat="43.365983013063669" lon="1.965014990419149">
        <ele>188.56</ele>
        <time>2025-04-25T16:39:53Z</time>
      </trkpt>
      <trkpt lat="43.363475985825062" lon="1.964086024090648">
        <ele>180.38</ele>
        <time>2025-04-25T16:40:05Z</time>
      </trkpt>
      <trkpt lat="43.361621992662549" lon="1.963417986407876">
        <ele>176.53999999999999</ele>
        <time>2025-04-25T16:40:15Z</time>
      </trkpt>
      <trkpt lat="43.360640974715352" lon="1.963062006980181">
        <ele>176.53999999999999</ele>
        <time>2025-04-25T16:40:23Z</time>
      </trkpt>
      <trkpt lat="43.358992002904415" lon="1.962453983724117">
        <ele>173.16999999999999</ele>
        <time>2025-04-25T16:40:37Z</time>
      </trkpt>
      <trkpt lat="43.357462976127863" lon="1.961905974894762">
        <ele>171.25</ele>
        <time>2025-04-25T16:40:50Z</time>
      </trkpt>
      <trkpt lat="43.356290012598038" lon="1.961495010182262">
        <ele>170.28999999999999</ele>
        <time>2025-04-25T16:41:00Z</time>
      </trkpt>
      <trkpt lat="43.354633999988437" lon="1.960883969441056">
        <ele>167.41</ele>
        <time>2025-04-25T16:41:14Z</time>
      </trkpt>
      <trkpt lat="43.353505963459611" lon="1.960476022213697">
        <ele>165.96000000000001</ele>
        <time>2025-04-25T16:41:22Z</time>
      </trkpt>
      <trkpt lat="43.351595979183912" lon="1.959779988974333">
        <ele>163.56</ele>
        <time>2025-04-25T16:41:35Z</time>
      </trkpt>
      <trkpt lat="43.351132962852716" lon="1.959608998149633">
        <ele>163.08000000000001</ele>
        <time>2025-04-25T16:41:40Z</time>
      </trkpt>
      <trkpt lat="43.351078983396292" lon="1.959588965401053">
        <ele>162.59999999999999</ele>
        <time>2025-04-25T16:41:41Z</time>
      </trkpt>
      <trkpt lat="43.351033972576261" lon="1.959573039785028">
        <ele>162.59999999999999</ele>
        <time>2025-04-25T16:41:42Z</time>
      </trkpt>
      <trkpt lat="43.350945962592959" lon="1.959540015086532">
        <ele>162.59999999999999</ele>
        <time>2025-04-25T16:41:45Z</time>
      </trkpt>
      <trkpt lat="43.350926013663411" lon="1.959532974287868">
        <ele>162.59999999999999</ele>
        <time>2025-04-25T16:41:46Z</time>
      </trkpt>
      <trkpt lat="43.350910004228354" lon="1.959527023136616">
        <ele>162.59999999999999</ele>
        <time>2025-04-25T16:41:47Z</time>
      </trkpt>
      <trkpt lat="43.350910004228354" lon="1.959527023136616">
        <ele>162.59999999999999</ele>
        <time>2025-04-25T16:41:48Z</time>
      </trkpt>
      <trkpt lat="43.350910004228354" lon="1.959527023136616">
        <ele>162.59999999999999</ele>
        <time>2025-04-25T16:42:03Z</time>
      </trkpt>
      <trkpt lat="43.350910004228354" lon="1.959527023136616">
        <ele>162.12</ele>
        <time>2025-04-25T16:42:51Z</time>
      </trkpt>
      <trkpt lat="43.350910004228354" lon="1.959527023136616">
        <ele>162.12</ele>
        <time>2025-04-25T16:43:32Z</time>
      </trkpt>
      <trkpt lat="43.350889971479774" lon="1.959519982337952">
        <ele>162.12</ele>
        <time>2025-04-25T16:43:52Z</time>
      </trkpt>
      <trkpt lat="43.350889971479774" lon="1.959519982337952">
        <ele>162.12</ele>
        <time>2025-04-25T16:43:53Z</time>
      </trkpt>
      <trkpt lat="43.350756028667092" lon="1.95947103202343">
        <ele>162.12</ele>
        <time>2025-04-25T16:43:54Z</time>
      </trkpt>
      <trkpt lat="43.350660977885127" lon="1.959437001496553">
        <ele>161.63999999999999</ele>
        <time>2025-04-25T16:43:55Z</time>
      </trkpt>
      <trkpt lat="43.350551007315516" lon="1.959397019818425">
        <ele>161.63999999999999</ele>
        <time>2025-04-25T16:43:56Z</time>
      </trkpt>
      <trkpt lat="43.349343007430434" lon="1.958965016528964">
        <ele>160.19999999999999</ele>
        <time>2025-04-25T16:44:04Z</time>
      </trkpt>
      <trkpt lat="43.347481973469257" lon="1.958306031301618">
        <ele>157.31</ele>
        <time>2025-04-25T16:44:13Z</time>
      </trkpt>
      <trkpt lat="43.344321995973587" lon="1.957156034186482">
        <ele>154.91</ele>
        <time>2025-04-25T16:44:28Z</time>
      </trkpt>
      <trkpt lat="43.342102970927954" lon="1.95633796043694">
        <ele>156.83000000000001</ele>
        <time>2025-04-25T16:44:40Z</time>
      </trkpt>
      <trkpt lat="43.339393017813563" lon="1.955354008823633">
        <ele>163.08000000000001</ele>
        <time>2025-04-25T16:44:54Z</time>
      </trkpt>
      <trkpt lat="43.33863596431911" lon="1.95506801828742">
        <ele>164.52000000000001</ele>
        <time>2025-04-25T16:44:57Z</time>
      </trkpt>
      <trkpt lat="43.335996000096202" lon="1.954099992290139">
        <ele>163.08000000000001</ele>
        <time>2025-04-25T16:45:11Z</time>
      </trkpt>
      <trkpt lat="43.333562985062599" lon="1.953204972669482">
        <ele>163.08000000000001</ele>
        <time>2025-04-25T16:45:24Z</time>
      </trkpt>
      <trkpt lat="43.331525009125471" lon="1.952465018257499">
        <ele>163.08000000000001</ele>
        <time>2025-04-25T16:45:35Z</time>
      </trkpt>
      <trkpt lat="43.328777002170682" lon="1.951466985046864">
        <ele>165.47999999999999</ele>
        <time>2025-04-25T16:45:50Z</time>
      </trkpt>
      <trkpt lat="43.326837010681629" lon="1.950743040069938">
        <ele>175.58000000000001</ele>
        <time>2025-04-25T16:46:02Z</time>
      </trkpt>
      <trkpt lat="43.326488994061947" lon="1.950610019266605">
        <ele>176.06</ele>
        <time>2025-04-25T16:46:03Z</time>
      </trkpt>
      <trkpt lat="43.326316997408867" lon="1.950543969869614">
        <ele>177.02000000000001</ele>
        <time>2025-04-25T16:46:04Z</time>
      </trkpt>
      <trkpt lat="43.325236989185214" lon="1.950177010148764">
        <ele>184.71000000000001</ele>
        <time>2025-04-25T16:46:12Z</time>
      </trkpt>
      <trkpt lat="43.325131963938475" lon="1.95014800876379">
        <ele>186.15000000000001</ele>
        <time>2025-04-25T16:46:13Z</time>
      </trkpt>
      <trkpt lat="43.324946975335479" lon="1.950154965743423">
        <ele>189.03999999999999</ele>
        <time>2025-04-25T16:46:15Z</time>
      </trkpt>
      <trkpt lat="43.324863994494081" lon="1.950201988220215">
        <ele>190.47999999999999</ele>
        <time>2025-04-25T16:46:16Z</time>
      </trkpt>
      <trkpt lat="43.324809009209275" lon="1.950285974889994">
        <ele>190.96000000000001</ele>
        <time>2025-04-25T16:46:17Z</time>
      </trkpt>
      <trkpt lat="43.324768021702766" lon="1.950378008186817">
        <ele>191.44</ele>
        <time>2025-04-25T16:46:18Z</time>
      </trkpt>
      <trkpt lat="43.324739020317793" lon="1.950501976534724">
        <ele>191.44</ele>
        <time>2025-04-25T16:46:19Z</time>
      </trkpt>
      <trkpt lat="43.324715970084071" lon="1.950628040358424">
        <ele>191.44</ele>
        <time>2025-04-25T16:46:20Z</time>
      </trkpt>
      <trkpt lat="43.324738014489412" lon="1.950787967070937">
        <ele>191.44</ele>
        <time>2025-04-25T16:46:21Z</time>
      </trkpt>
      <trkpt lat="43.32479702308774" lon="1.950944038107991">
        <ele>191.44</ele>
        <time>2025-04-25T16:46:22Z</time>
      </trkpt>
      <trkpt lat="43.325003972277045" lon="1.951733026653528">
        <ele>190</ele>
        <time>2025-04-25T16:46:26Z</time>
      </trkpt>
      <trkpt lat="43.325003972277045" lon="1.951733026653528">
        <ele>189.52000000000001</ele>
        <time>2025-04-25T16:46:27Z</time>
      </trkpt>
      <trkpt lat="43.325049988925457" lon="1.952207023277879">
        <ele>189.03999999999999</ele>
        <time>2025-04-25T16:46:28Z</time>
      </trkpt>
      <trkpt lat="43.324906993657351" lon="1.954461000859737">
        <ele>181.34999999999999</ele>
        <time>2025-04-25T16:46:37Z</time>
      </trkpt>
      <trkpt lat="43.324533998966217" lon="1.957719968631864">
        <ele>173.16999999999999</ele>
        <time>2025-04-25T16:46:47Z</time>
      </trkpt>
      <trkpt lat="43.324034018442035" lon="1.959314038977027">
        <ele>168.37</ele>
        <time>2025-04-25T16:46:53Z</time>
      </trkpt>
      <trkpt lat="43.323019975796342" lon="1.96130096912384">
        <ele>163.08000000000001</ele>
        <time>2025-04-25T16:47:01Z</time>
      </trkpt>
      <trkpt lat="43.321694964542985" lon="1.963715041056275">
        <ele>159.24000000000001</ele>
        <time>2025-04-25T16:47:11Z</time>
      </trkpt>
      <trkpt lat="43.320578997954726" lon="1.965468032285571">
        <ele>157.31</ele>
        <time>2025-04-25T16:47:19Z</time>
      </trkpt>
      <trkpt lat="43.319382984191179" lon="1.966501018032432">
        <ele>156.34999999999999</ele>
        <time>2025-04-25T16:47:26Z</time>
      </trkpt>
      <trkpt lat="43.318055039271712" lon="1.967269973829389">
        <ele>155.38999999999999</ele>
        <time>2025-04-25T16:47:35Z</time>
      </trkpt>
      <trkpt lat="43.317553969100118" lon="1.967532997950912">
        <ele>155.38999999999999</ele>
        <time>2025-04-25T16:47:39Z</time>
      </trkpt>
      <trkpt lat="43.317323969677091" lon="1.967523023486137">
        <ele>156.34999999999999</ele>
        <time>2025-04-25T16:47:41Z</time>
      </trkpt>
      <trkpt lat="43.317323969677091" lon="1.967523023486137">
        <ele>156.34999999999999</ele>
        <time>2025-04-25T16:47:42Z</time>
      </trkpt>
      <trkpt lat="43.317211987450719" lon="1.967604998499155">
        <ele>156.83000000000001</ele>
        <time>2025-04-25T16:47:43Z</time>
      </trkpt>
      <trkpt lat="43.31697603687644" lon="1.968025015667081">
        <ele>156.83000000000001</ele>
        <time>2025-04-25T16:47:45Z</time>
      </trkpt>
      <trkpt lat="43.316857013851404" lon="1.968143032863736">
        <ele>156.83000000000001</ele>
        <time>2025-04-25T16:47:46Z</time>
      </trkpt>
      <trkpt lat="43.316723993048072" lon="1.968233976513147">
        <ele>156.83000000000001</ele>
        <time>2025-04-25T16:47:47Z</time>
      </trkpt>
      <trkpt lat="43.315138975158334" lon="1.969309039413929">
        <ele>157.31</ele>
        <time>2025-04-25T16:47:57Z</time>
      </trkpt>
      <trkpt lat="43.312284015119076" lon="1.971148028969765">
        <ele>158.75</ele>
        <time>2025-04-25T16:48:12Z</time>
      </trkpt>
      <trkpt lat="43.310726992785931" lon="1.972155030816793">
        <ele>162.12</ele>
        <time>2025-04-25T16:48:22Z</time>
      </trkpt>
      <trkpt lat="43.309241971001029" lon="1.973468977957964">
        <ele>165.96000000000001</ele>
        <time>2025-04-25T16:48:31Z</time>
      </trkpt>
      <trkpt lat="43.30806196667254" lon="1.975331017747521">
        <ele>165</ele>
        <time>2025-04-25T16:48:42Z</time>
      </trkpt>
      <trkpt lat="43.307177005335689" lon="1.977259023115039">
        <ele>164.52000000000001</ele>
        <time>2025-04-25T16:48:52Z</time>
      </trkpt>
      <trkpt lat="43.306476026773453" lon="1.978833982720971">
        <ele>163.08000000000001</ele>
        <time>2025-04-25T16:49:00Z</time>
      </trkpt>
      <trkpt lat="43.306305035948753" lon="1.979040009900928">
        <ele>163.08000000000001</ele>
        <time>2025-04-25T16:49:02Z</time>
      </trkpt>
      <trkpt lat="43.306219959631562" lon="1.979123996570706">
        <ele>163.08000000000001</ele>
        <time>2025-04-25T16:49:03Z</time>
      </trkpt>
      <trkpt lat="43.306133961305022" lon="1.979170013219118">
        <ele>163.08000000000001</ele>
        <time>2025-04-25T16:49:04Z</time>
      </trkpt>
      <trkpt lat="43.306024996563792" lon="1.979178981855512">
        <ele>163.08000000000001</ele>
        <time>2025-04-25T16:49:05Z</time>
      </trkpt>
      <trkpt lat="43.305925000458956" lon="1.979221981018782">
        <ele>162.59999999999999</ele>
        <time>2025-04-25T16:49:06Z</time>
      </trkpt>
      <trkpt lat="43.305814024060965" lon="1.979170013219118">
        <ele>162.12</ele>
        <time>2025-04-25T16:49:07Z</time>
      </trkpt>
      <trkpt lat="43.305711010470986" lon="1.97908996604383">
        <ele>162.12</ele>
        <time>2025-04-25T16:49:08Z</time>
      </trkpt>
      <trkpt lat="43.305599028244615" lon="1.979002039879561">
        <ele>162.59999999999999</ele>
        <time>2025-04-25T16:49:09Z</time>
      </trkpt>
      <trkpt lat="43.305477993562818" lon="1.978906989097595">
        <ele>162.59999999999999</ele>
        <time>2025-04-25T16:49:10Z</time>
      </trkpt>
      <trkpt lat="43.305241037160158" lon="1.978652011603117">
        <ele>163.08000000000001</ele>
        <time>2025-04-25T16:49:12Z</time>
      </trkpt>
      <trkpt lat="43.304206961765885" lon="1.97728400118649">
        <ele>164.03999999999999</ele>
        <time>2025-04-25T16:49:20Z</time>
      </trkpt>
      <trkpt lat="43.303495002910495" lon="1.975913979113102">
        <ele>162.59999999999999</ele>
        <time>2025-04-25T16:49:27Z</time>
      </trkpt>
      <trkpt lat="43.303272966295481" lon="1.975139994174242">
        <ele>161.63999999999999</ele>
        <time>2025-04-25T16:49:31Z</time>
      </trkpt>
      <trkpt lat="43.303284030407667" lon="1.974977971985936">
        <ele>161.63999999999999</ele>
        <time>2025-04-25T16:49:32Z</time>
      </trkpt>
      <trkpt lat="43.303320994600654" lon="1.974677983671427">
        <ele>161.63999999999999</ele>
        <time>2025-04-25T16:49:34Z</time>
      </trkpt>
      <trkpt lat="43.303289981558919" lon="1.974526019766927">
        <ele>161.16</ele>
        <time>2025-04-25T16:49:35Z</time>
      </trkpt>
      <trkpt lat="43.303289981558919" lon="1.974525013938546">
        <ele>161.16</ele>
        <time>2025-04-25T16:49:36Z</time>
      </trkpt>
      <trkpt lat="43.303155032917857" lon="1.974311023950577">
        <ele>161.16</ele>
        <time>2025-04-25T16:49:37Z</time>
      </trkpt>
      <trkpt lat="43.30305403098464" lon="1.97425402700901">
        <ele>160.68000000000001</ele>
        <time>2025-04-25T16:49:38Z</time>
      </trkpt>
      <trkpt lat="43.30305403098464" lon="1.97425402700901">
        <ele>160.68000000000001</ele>
        <time>2025-04-25T16:49:39Z</time>
      </trkpt>
      <trkpt lat="43.302809027954936" lon="1.974218990653753">
        <ele>160.19999999999999</ele>
        <time>2025-04-25T16:49:40Z</time>
      </trkpt>
      <trkpt lat="43.302809027954936" lon="1.974218990653753">
        <ele>159.72</ele>
        <time>2025-04-25T16:49:41Z</time>
      </trkpt>
      <trkpt lat="43.302701991051435" lon="1.974118994548917">
        <ele>158.75</ele>
        <time>2025-04-25T16:49:42Z</time>
      </trkpt>
      <trkpt lat="43.302587997168303" lon="1.974012963473797">
        <ele>158.27000000000001</ele>
        <time>2025-04-25T16:49:43Z</time>
      </trkpt>
      <trkpt lat="43.302480960264802" lon="1.973870974034071">
        <ele>157.78999999999999</ele>
        <time>2025-04-25T16:49:44Z</time>
      </trkpt>
      <trkpt lat="43.301491979509592" lon="1.972185038030148">
        <ele>153.47</ele>
        <time>2025-04-25T16:49:52Z</time>
      </trkpt>
      <trkpt lat="43.300760993734002" lon="1.970714014023542">
        <ele>151.53999999999999</ele>
        <time>2025-04-25T16:50:00Z</time>
      </trkpt>
      <trkpt lat="43.300265036523342" lon="1.968886004760861">
        <ele>153.47</ele>
        <time>2025-04-25T16:50:07Z</time>
      </trkpt>
      <trkpt lat="43.300222037360072" lon="1.968276975676417">
        <ele>153.94999999999999</ele>
        <time>2025-04-25T16:50:10Z</time>
      </trkpt>
      <trkpt lat="43.300227988511324" lon="1.968102967366576">
        <ele>154.43000000000001</ele>
        <time>2025-04-25T16:50:11Z</time>
      </trkpt>
      <trkpt lat="43.300267970189452" lon="1.967963995411992">
        <ele>154.43000000000001</ele>
        <time>2025-04-25T16:50:12Z</time>
      </trkpt>
      <trkpt lat="43.300397973507643" lon="1.967685967683792">
        <ele>153.94999999999999</ele>
        <time>2025-04-25T16:50:14Z</time>
      </trkpt>
      <trkpt lat="43.300392022356391" lon="1.967528974637389">
        <ele>153.94999999999999</ele>
        <time>2025-04-25T16:50:15Z</time>
      </trkpt>
      <trkpt lat="43.300354974344373" lon="1.967373993247747">
        <ele>153.94999999999999</ele>
        <time>2025-04-25T16:50:16Z</time>
      </trkpt>
      <trkpt lat="43.300280040130019" lon="1.967266034334898">
        <ele>153.47</ele>
        <time>2025-04-25T16:50:17Z</time>
      </trkpt>
      <trkpt lat="43.30017501488328" lon="1.967200990766287">
        <ele>153.94999999999999</ele>
        <time>2025-04-25T16:50:18Z</time>
      </trkpt>
      <trkpt lat="43.300078036263585" lon="1.967209037393332">
        <ele>153.94999999999999</ele>
        <time>2025-04-25T16:50:19Z</time>
      </trkpt>
      <trkpt lat="43.299970999360085" lon="1.967221023514867">
        <ele>154.43000000000001</ele>
        <time>2025-04-25T16:50:20Z</time>
      </trkpt>
      <trkpt lat="43.29989799298346" lon="1.967325964942575">
        <ele>154.43000000000001</ele>
        <time>2025-04-25T16:50:21Z</time>
      </trkpt>
      <trkpt lat="43.299824986606836" lon="1.967429984360933">
        <ele>154.43000000000001</ele>
        <time>2025-04-25T16:50:22Z</time>
      </trkpt>
      <trkpt lat="43.299813000485301" lon="1.967549007385969">
        <ele>154.43000000000001</ele>
        <time>2025-04-25T16:50:23Z</time>
      </trkpt>
      <trkpt lat="43.299727002158761" lon="1.967674987390637">
        <ele>154.91</ele>
        <time>2025-04-25T16:50:24Z</time>
      </trkpt>
      <trkpt lat="43.299661036580801" lon="1.967681022360921">
        <ele>154.91</ele>
        <time>2025-04-25T16:50:25Z</time>
      </trkpt>
      <trkpt lat="43.299587024375796" lon="1.967687979340553">
        <ele>154.91</ele>
        <time>2025-04-25T16:50:26Z</time>
      </trkpt>
      <trkpt lat="43.299503037706017" lon="1.967689990997315">
        <ele>154.43000000000001</ele>
        <time>2025-04-25T16:50:27Z</time>
      </trkpt>
      <trkpt lat="43.299409998580813" lon="1.967689990997315">
        <ele>154.43000000000001</ele>
        <time>2025-04-25T16:50:28Z</time>
      </trkpt>
      <trkpt lat="43.298393022269011" lon="1.967799039557576">
        <ele>153.47</ele>
        <time>2025-04-25T16:50:37Z</time>
      </trkpt>
      <trkpt lat="43.296727035194635" lon="1.968161975964904">
        <ele>154.43000000000001</ele>
        <time>2025-04-25T16:50:50Z</time>
      </trkpt>
      <trkpt lat="43.294802969321609" lon="1.967932982370257">
        <ele>155.38999999999999</ele>
        <time>2025-04-25T16:51:03Z</time>
      </trkpt>
      <trkpt lat="43.293653978034854" lon="1.967928959056735">
        <ele>155.38999999999999</ele>
        <time>2025-04-25T16:51:10Z</time>
      </trkpt>
      <trkpt lat="43.292517978698015" lon="1.967795016244054">
        <ele>156.34999999999999</ele>
        <time>2025-04-25T16:51:17Z</time>
      </trkpt>
      <trkpt lat="43.292369032278657" lon="1.96783198043704">
        <ele>156.34999999999999</ele>
        <time>2025-04-25T16:51:18Z</time>
      </trkpt>
      <trkpt lat="43.292233999818563" lon="1.967889983206987">
        <ele>156.83000000000001</ele>
        <time>2025-04-25T16:51:19Z</time>
      </trkpt>
      <trkpt lat="43.292124029248953" lon="1.967974975705147">
        <ele>156.83000000000001</ele>
        <time>2025-04-25T16:51:20Z</time>
      </trkpt>
      <trkpt lat="43.292040964588523" lon="1.968069020658732">
        <ele>157.31</ele>
        <time>2025-04-25T16:51:21Z</time>
      </trkpt>
      <trkpt lat="43.291967958211899" lon="1.968185026198626">
        <ele>157.31</ele>
        <time>2025-04-25T16:51:22Z</time>
      </trkpt>
      <trkpt lat="43.291884977370501" lon="1.968315029516816">
        <ele>157.78999999999999</ele>
        <time>2025-04-25T16:51:23Z</time>
      </trkpt>
      <trkpt lat="43.291596975177526" lon="1.968719959259033">
        <ele>158.27000000000001</ele>
        <time>2025-04-25T16:51:26Z</time>
      </trkpt>
      <trkpt lat="43.291492033749819" lon="1.968814004212618">
        <ele>158.27000000000001</ele>
        <time>2025-04-25T16:51:27Z</time>
      </trkpt>
      <trkpt lat="43.291376028209925" lon="1.968869995325804">
        <ele>158.27000000000001</ele>
        <time>2025-04-25T16:51:28Z</time>
      </trkpt>
      <trkpt lat="43.291376028209925" lon="1.968869995325804">
        <ele>158.27000000000001</ele>
        <time>2025-04-25T16:51:29Z</time>
      </trkpt>
      <trkpt lat="43.291248958557844" lon="1.968893967568874">
        <ele>158.27000000000001</ele>
        <time>2025-04-25T16:51:30Z</time>
      </trkpt>
      <trkpt lat="43.291123984381557" lon="1.968898996710777">
        <ele>157.78999999999999</ele>
        <time>2025-04-25T16:51:31Z</time>
      </trkpt>
      <trkpt lat="43.290717964991927" lon="1.968911988660693">
        <ele>156.83000000000001</ele>
        <time>2025-04-25T16:51:34Z</time>
      </trkpt>
      <trkpt lat="43.290642024949193" lon="1.96894601918757">
        <ele>156.34999999999999</ele>
        <time>2025-04-25T16:51:35Z</time>
      </trkpt>
      <trkpt lat="43.290544040501118" lon="1.968998992815614">
        <ele>155.87</ele>
        <time>2025-04-25T16:51:36Z</time>
      </trkpt>
      <trkpt lat="43.29044203273952" lon="1.9690549839288">
        <ele>155.38999999999999</ele>
        <time>2025-04-25T16:51:37Z</time>
      </trkpt>
      <trkpt lat="43.290443038567901" lon="1.9690549839288">
        <ele>154.91</ele>
        <time>2025-04-25T16:51:38Z</time>
      </trkpt>
      <trkpt lat="43.289720015600324" lon="1.969454968348146">
        <ele>152.50999999999999</ele>
        <time>2025-04-25T16:51:44Z</time>
      </trkpt>
      <trkpt lat="43.289560005068779" lon="1.969511965289712">
        <ele>152.50999999999999</ele>
        <time>2025-04-25T16:51:45Z</time>
      </trkpt>
      <trkpt lat="43.288918035104871" lon="1.969680022448301">
        <ele>152.50999999999999</ele>
        <time>2025-04-25T16:51:48Z</time>
      </trkpt>
      <trkpt lat="43.288763975724578" lon="1.969746993854642">
        <ele>152.50999999999999</ele>
        <time>2025-04-25T16:51:49Z</time>
      </trkpt>
      <trkpt lat="43.288612011820078" lon="1.96985000744462">
        <ele>152.50999999999999</ele>
        <time>2025-04-25T16:51:50Z</time>
      </trkpt>
      <trkpt lat="43.287696959450841" lon="1.97060102596879">
        <ele>152.03</ele>
        <time>2025-04-25T16:51:57Z</time>
      </trkpt>
      <trkpt lat="43.287581959739327" lon="1.970661040395498">
        <ele>152.50999999999999</ele>
        <time>2025-04-25T16:51:58Z</time>
      </trkpt>
      <trkpt lat="43.28745799139142" lon="1.970681995153427">
        <ele>152.50999999999999</ele>
        <time>2025-04-25T16:51:59Z</time>
      </trkpt>
      <trkpt lat="43.286595996469259" lon="1.970834964886308">
        <ele>153.47</ele>
        <time>2025-04-25T16:52:06Z</time>
      </trkpt>
      <trkpt lat="43.286531958729029" lon="1.970842005684972">
        <ele>153.47</ele>
        <time>2025-04-25T16:52:07Z</time>
      </trkpt>
      <trkpt lat="43.286500023677945" lon="1.970833037048578">
        <ele>153.94999999999999</ele>
        <time>2025-04-25T16:52:08Z</time>
      </trkpt>
      <trkpt lat="43.286500023677945" lon="1.970833037048578">
        <ele>154.43000000000001</ele>
        <time>2025-04-25T16:52:18Z</time>
      </trkpt>
      <trkpt lat="43.286390975117683" lon="1.970801018178463">
        <ele>155.38999999999999</ele>
        <time>2025-04-25T16:52:25Z</time>
      </trkpt>
      <trkpt lat="43.286343030631542" lon="1.970848962664604">
        <ele>155.87</ele>
        <time>2025-04-25T16:52:26Z</time>
      </trkpt>
      <trkpt lat="43.286270024254918" lon="1.970922974869609">
        <ele>155.87</ele>
        <time>2025-04-25T16:52:27Z</time>
      </trkpt>
      <trkpt lat="43.285725032910705" lon="1.971405018121004">
        <ele>157.78999999999999</ele>
        <time>2025-04-25T16:52:33Z</time>
      </trkpt>
      <trkpt lat="43.284072959795594" lon="1.972827007994056">
        <ele>161.63999999999999</ele>
        <time>2025-04-25T16:52:43Z</time>
      </trkpt>
      <trkpt lat="43.282316029071808" lon="1.974691981449723">
        <ele>161.16</ele>
        <time>2025-04-25T16:52:54Z</time>
      </trkpt>
      <trkpt lat="43.280608970671892" lon="1.976949982345104">
        <ele>160.19999999999999</ele>
        <time>2025-04-25T16:53:06Z</time>
      </trkpt>
      <trkpt lat="43.277750993147492" lon="1.979934023693204">
        <ele>162.12</ele>
        <time>2025-04-25T16:53:22Z</time>
      </trkpt>
      <trkpt lat="43.275215970352292" lon="1.982616987079382">
        <ele>165.47999999999999</ele>
        <time>2025-04-25T16:53:37Z</time>
      </trkpt>
      <trkpt lat="43.272703997790813" lon="1.985271032899618">
        <ele>165.47999999999999</ele>
        <time>2025-04-25T16:53:52Z</time>
      </trkpt>
      <trkpt lat="43.271016972139478" lon="1.987033998593688">
        <ele>165</ele>
        <time>2025-04-25T16:54:03Z</time>
      </trkpt>
      <trkpt lat="43.270540041849017" lon="1.987530961632729">
        <ele>164.52000000000001</ele>
        <time>2025-04-25T16:54:09Z</time>
      </trkpt>
      <trkpt lat="43.270511962473392" lon="1.987559963017702">
        <ele>164.52000000000001</ele>
        <time>2025-04-25T16:54:10Z</time>
      </trkpt>
      <trkpt lat="43.270562002435327" lon="1.987607991322875">
        <ele>164.03999999999999</ele>
        <time>2025-04-25T16:54:11Z</time>
      </trkpt>
      <trkpt lat="43.270600978285074" lon="1.987646967172623">
        <ele>163.56</ele>
        <time>2025-04-25T16:54:12Z</time>
      </trkpt>
      <trkpt lat="43.270650012418628" lon="1.987693989649415">
        <ele>163.08000000000001</ele>
        <time>2025-04-25T16:54:13Z</time>
      </trkpt>
      <trkpt lat="43.270708015188575" lon="1.987751992419362">
        <ele>162.59999999999999</ele>
        <time>2025-04-25T16:54:14Z</time>
      </trkpt>
      <trkpt lat="43.270776998251677" lon="1.987819969654083">
        <ele>162.59999999999999</ele>
        <time>2025-04-25T16:54:15Z</time>
      </trkpt>
    </trkseg>
  </trk>

</gpx>